<?xml version='1.0' encoding='UTF-8'?><gpx version="1.1" creator="JPX - https://github.com/jenetics/jpx" xmlns="http://www.topografix.com/GPX/1/1"><trk><trkseg><trkpt lat="44.756766668410044" lon="9.937259701340022"><ele>620.0</ele><time>2026-05-02T06:32:11.229Z</time></trkpt><trkpt lat="44.75678825033769" lon="9.937354416850107"><ele>620.0</ele><time>2026-05-02T06:33:24.999Z</time></trkpt><trkpt lat="44.7567917563932" lon="9.937465532524374"><ele>620.0</ele><time>2026-05-02T06:33:26.999Z</time></trkpt><trkpt lat="44.75680401753532" lon="9.93758492905247"><ele>620.0</ele><time>2026-05-02T06:33:28.999Z</time></trkpt><trkpt lat="44.75682301304519" lon="9.937708924106449"><ele>620.0</ele><time>2026-05-02T06:33:30.999Z</time></trkpt><trkpt lat="44.756852850010354" lon="9.93783731293112"><ele>620.0</ele><time>2026-05-02T06:33:32.999Z</time></trkpt><trkpt lat="44.756877774494946" lon="9.937974829817868"><ele>618.25</ele><time>2026-05-02T06:33:34.999Z</time></trkpt><trkpt lat="44.756898062239664" lon="9.938125356518771"><ele>616.5</ele><time>2026-05-02T06:33:36.999Z</time></trkpt><trkpt lat="44.75692358032935" lon="9.938284510920694"><ele>614.75</ele><time>2026-05-02T06:33:38.999Z</time></trkpt><trkpt lat="44.75695504074988" lon="9.938442933331379"><ele>613.0</ele><time>2026-05-02T06:33:40.999Z</time></trkpt><trkpt lat="44.75698355923654" lon="9.938614438668791"><ele>612.6666666666667</ele><time>2026-05-02T06:33:42.999Z</time></trkpt><trkpt lat="44.7570058226983" lon="9.93870489983628"><ele>612.3333333333334</ele><time>2026-05-02T06:33:43.999Z</time></trkpt><trkpt lat="44.757034608264554" lon="9.938795519655809"><ele>612.0</ele><time>2026-05-02T06:33:44.999Z</time></trkpt><trkpt lat="44.7570704583734" lon="9.938887177295562"><ele>611.6666666666666</ele><time>2026-05-02T06:33:45.999Z</time></trkpt><trkpt lat="44.7571198316281" lon="9.938971848291915"><ele>611.3333333333333</ele><time>2026-05-02T06:33:46.999Z</time></trkpt><trkpt lat="44.75718508797689" lon="9.939042636316747"><ele>611.0</ele><time>2026-05-02T06:33:47.999Z</time></trkpt><trkpt lat="44.75725860294146" lon="9.939092952751865"><ele>611.0</ele><time>2026-05-02T06:33:48.999Z</time></trkpt><trkpt lat="44.75733873684855" lon="9.939110636260503"><ele>611.0</ele><time>2026-05-02T06:33:49.999Z</time></trkpt><trkpt lat="44.757419978591194" lon="9.939108896484308"><ele>611.0</ele><time>2026-05-02T06:33:50.999Z</time></trkpt><trkpt lat="44.757502046427796" lon="9.939086685280795"><ele>611.0</ele><time>2026-05-02T06:33:51.999Z</time></trkpt><trkpt lat="44.75757973935953" lon="9.939018900342433"><ele>611.0</ele><time>2026-05-02T06:33:52.999Z</time></trkpt><trkpt lat="44.75763972124011" lon="9.938910518078284"><ele>611.0</ele><time>2026-05-02T06:33:53.999Z</time></trkpt><trkpt lat="44.75767655229876" lon="9.93877501652253"><ele>611.0</ele><time>2026-05-02T06:33:54.999Z</time></trkpt><trkpt lat="44.757686850175354" lon="9.93863880905874"><ele>611.0</ele><time>2026-05-02T06:33:55.999Z</time></trkpt><trkpt lat="44.757666350098496" lon="9.93850498367306"><ele>611.0</ele><time>2026-05-02T06:33:56.999Z</time></trkpt><trkpt lat="44.757611489476034" lon="9.938396273439274"><ele>611.0</ele><time>2026-05-02T06:33:57.999Z</time></trkpt><trkpt lat="44.757533038981634" lon="9.938316198527795"><ele>611.0</ele><time>2026-05-02T06:33:58.999Z</time></trkpt><trkpt lat="44.757444737310955" lon="9.938255605417622"><ele>611.4</ele><time>2026-05-02T06:33:59.999Z</time></trkpt><trkpt lat="44.75736232476747" lon="9.938191832626147"><ele>611.8</ele><time>2026-05-02T06:34:00.999Z</time></trkpt><trkpt lat="44.75728528586824" lon="9.93811508257294"><ele>612.1999999999999</ele><time>2026-05-02T06:34:01.999Z</time></trkpt><trkpt lat="44.75722703697266" lon="9.938012445362585"><ele>612.6</ele><time>2026-05-02T06:34:02.999Z</time></trkpt><trkpt lat="44.75719030955873" lon="9.93788730490982"><ele>613.0</ele><time>2026-05-02T06:34:03.999Z</time></trkpt><trkpt lat="44.75717269896421" lon="9.937755280267417"><ele>613.0</ele><time>2026-05-02T06:34:04.999Z</time></trkpt><trkpt lat="44.757209725635356" lon="9.937622299830588"><ele>613.0</ele><time>2026-05-02T06:34:05.999Z</time></trkpt><trkpt lat="44.75724606827812" lon="9.937495331586678"><ele>613.0</ele><time>2026-05-02T06:34:06.999Z</time></trkpt><trkpt lat="44.757290573212664" lon="9.937367375607513"><ele>613.0</ele><time>2026-05-02T06:34:07.999Z</time></trkpt><trkpt lat="44.75733383269492" lon="9.937248709715993"><ele>613.0</ele><time>2026-05-02T06:34:08.999Z</time></trkpt><trkpt lat="44.75737932888538" lon="9.93712868842985"><ele>612.8</ele><time>2026-05-02T06:34:09.999Z</time></trkpt><trkpt lat="44.75741901014686" lon="9.937003107332517"><ele>612.5999999999999</ele><time>2026-05-02T06:34:10.999Z</time></trkpt><trkpt lat="44.75745944168726" lon="9.936874106290453"><ele>612.4000000000001</ele><time>2026-05-02T06:34:11.998Z</time></trkpt><trkpt lat="44.75750531555704" lon="9.936743464994427"><ele>612.2</ele><time>2026-05-02T06:34:12.998Z</time></trkpt><trkpt lat="44.75755318508518" lon="9.936616707912577"><ele>612.0</ele><time>2026-05-02T06:34:13.998Z</time></trkpt><trkpt lat="44.757604118936065" lon="9.9364861266465"><ele>612.0</ele><time>2026-05-02T06:34:14.998Z</time></trkpt><trkpt lat="44.75765346564223" lon="9.936358844119356"><ele>612.0</ele><time>2026-05-02T06:34:15.998Z</time></trkpt><trkpt lat="44.757706304272965" lon="9.936242365302972"><ele>612.0</ele><time>2026-05-02T06:34:16.998Z</time></trkpt><trkpt lat="44.75777021824502" lon="9.936134012313374"><ele>612.0</ele><time>2026-05-02T06:34:17.998Z</time></trkpt><trkpt lat="44.75784720174612" lon="9.936047118962891"><ele>612.0</ele><time>2026-05-02T06:34:18.998Z</time></trkpt><trkpt lat="44.75793768064054" lon="9.935991491805005"><ele>608.0</ele><time>2026-05-02T06:34:19.998Z</time></trkpt><trkpt lat="44.758030756026486" lon="9.935969112757313"><ele>604.0</ele><time>2026-05-02T06:34:20.998Z</time></trkpt><trkpt lat="44.758125678990815" lon="9.9360227993684"><ele>600.0</ele><time>2026-05-02T06:34:22Z</time></trkpt><trkpt lat="44.75821530587575" lon="9.936057257057096"><ele>596.0</ele><time>2026-05-02T06:34:23Z</time></trkpt><trkpt lat="44.75828734513601" lon="9.936094703378775"><ele>592.0</ele><time>2026-05-02T06:34:24Z</time></trkpt><trkpt lat="44.75834239338785" lon="9.936140706452408"><ele>588.0</ele><time>2026-05-02T06:34:25Z</time></trkpt><trkpt lat="44.758370835177075" lon="9.936317847915106"><ele>588.0</ele><time>2026-05-02T06:34:27Z</time></trkpt><trkpt lat="44.75831006581737" lon="9.93642644451007"><ele>588.0</ele><time>2026-05-02T06:34:28Z</time></trkpt><trkpt lat="44.75820307227433" lon="9.936442958987785"><ele>588.0</ele><time>2026-05-02T06:34:29Z</time></trkpt><trkpt lat="44.7581293716225" lon="9.936517386741988"><ele>588.0</ele><time>2026-05-02T06:34:30Z</time></trkpt><trkpt lat="44.75806557001338" lon="9.936596982260141"><ele>588.0</ele><time>2026-05-02T06:34:31Z</time></trkpt><trkpt lat="44.758007731123385" lon="9.936711534034929"><ele>586.8</ele><time>2026-05-02T06:34:32Z</time></trkpt><trkpt lat="44.757961968500055" lon="9.936831675843985"><ele>585.5999999999999</ele><time>2026-05-02T06:34:33Z</time></trkpt><trkpt lat="44.75792589047" lon="9.936959272042397"><ele>584.4000000000001</ele><time>2026-05-02T06:34:34Z</time></trkpt><trkpt lat="44.75789820773008" lon="9.937094955460257"><ele>583.2</ele><time>2026-05-02T06:34:35Z</time></trkpt><trkpt lat="44.757886999568534" lon="9.937239004049875"><ele>582.0</ele><time>2026-05-02T06:34:36Z</time></trkpt><trkpt lat="44.757880345150575" lon="9.937380129712201"><ele>582.0</ele><time>2026-05-02T06:34:37Z</time></trkpt><trkpt lat="44.75788986278089" lon="9.937523613334655"><ele>582.0</ele><time>2026-05-02T06:34:38Z</time></trkpt><trkpt lat="44.75790984151181" lon="9.93766282745321"><ele>582.0</ele><time>2026-05-02T06:34:39Z</time></trkpt><trkpt lat="44.75794696915184" lon="9.937797735325171"><ele>582.0</ele><time>2026-05-02T06:34:40Z</time></trkpt><trkpt lat="44.75801247368511" lon="9.937916413058383"><ele>582.0</ele><time>2026-05-02T06:34:41Z</time></trkpt><trkpt lat="44.75809315715091" lon="9.938023283354072"><ele>582.6</ele><time>2026-05-02T06:34:42Z</time></trkpt><trkpt lat="44.758169198324" lon="9.938124384139726"><ele>583.2</ele><time>2026-05-02T06:34:43Z</time></trkpt><trkpt lat="44.758215384880224" lon="9.938248566047866"><ele>583.8</ele><time>2026-05-02T06:34:44Z</time></trkpt><trkpt lat="44.75823862032647" lon="9.93839499135477"><ele>584.4</ele><time>2026-05-02T06:34:45Z</time></trkpt><trkpt lat="44.75825186457081" lon="9.938541125755245"><ele>585.0</ele><time>2026-05-02T06:34:46Z</time></trkpt><trkpt lat="44.75826922595404" lon="9.938674598587053"><ele>586.4</ele><time>2026-05-02T06:34:47Z</time></trkpt><trkpt lat="44.75831678274894" lon="9.938785727998598"><ele>587.8</ele><time>2026-05-02T06:34:48Z</time></trkpt><trkpt lat="44.75839373133938" lon="9.938867524173823"><ele>589.2</ele><time>2026-05-02T06:34:49Z</time></trkpt><trkpt lat="44.7584892485398" lon="9.938913092500353"><ele>590.6</ele><time>2026-05-02T06:34:50Z</time></trkpt><trkpt lat="44.758589903983435" lon="9.938934394095936"><ele>592.0</ele><time>2026-05-02T06:34:51Z</time></trkpt><trkpt lat="44.75869589551265" lon="9.938927235802195"><ele>587.6</ele><time>2026-05-02T06:34:52Z</time></trkpt><trkpt lat="44.75879918757469" lon="9.938918335388006"><ele>583.2</ele><time>2026-05-02T06:34:53Z</time></trkpt><trkpt lat="44.7589005924688" lon="9.93893079581322"><ele>578.8</ele><time>2026-05-02T06:34:54Z</time></trkpt><trkpt lat="44.758990439968095" lon="9.939009002199175"><ele>574.4</ele><time>2026-05-02T06:34:55Z</time></trkpt><trkpt lat="44.75906316695122" lon="9.939110106395523"><ele>570.0</ele><time>2026-05-02T06:34:56Z</time></trkpt><trkpt lat="44.7591159476696" lon="9.939257106324272"><ele>570.0</ele><time>2026-05-02T06:34:57Z</time></trkpt><trkpt lat="44.7591496530854" lon="9.939413104446242"><ele>570.0</ele><time>2026-05-02T06:34:58Z</time></trkpt><trkpt lat="44.75916735387773" lon="9.939565293868798"><ele>570.0</ele><time>2026-05-02T06:34:59Z</time></trkpt><trkpt lat="44.75916984783754" lon="9.93971975889747"><ele>570.0</ele><time>2026-05-02T06:35:00Z</time></trkpt><trkpt lat="44.75914395942554" lon="9.939864363795696"><ele>570.0</ele><time>2026-05-02T06:35:01Z</time></trkpt><trkpt lat="44.75905933001352" lon="9.939976711647915"><ele>568.75</ele><time>2026-05-02T06:35:02Z</time></trkpt><trkpt lat="44.758992277697686" lon="9.940107677793034"><ele>567.5</ele><time>2026-05-02T06:35:03Z</time></trkpt><trkpt lat="44.75895515312855" lon="9.94025517986716"><ele>566.25</ele><time>2026-05-02T06:35:04Z</time></trkpt><trkpt lat="44.75894273345289" lon="9.940409487340027"><ele>565.0</ele><time>2026-05-02T06:35:05Z</time></trkpt><trkpt lat="44.75897565204347" lon="9.940563043790934"><ele>565.0</ele><time>2026-05-02T06:35:06Z</time></trkpt><trkpt lat="44.75902382203939" lon="9.940707248103333"><ele>565.0</ele><time>2026-05-02T06:35:07Z</time></trkpt><trkpt lat="44.75902491849323" lon="9.940857064168291"><ele>565.0</ele><time>2026-05-02T06:35:08Z</time></trkpt><trkpt lat="44.759006774334466" lon="9.941012643742436"><ele>565.0</ele><time>2026-05-02T06:35:09Z</time></trkpt><trkpt lat="44.75899498482629" lon="9.941176225284027"><ele>565.0</ele><time>2026-05-02T06:35:10Z</time></trkpt><trkpt lat="44.75896596891817" lon="9.941335993831695"><ele>562.75</ele><time>2026-05-02T06:35:11Z</time></trkpt><trkpt lat="44.75893289824067" lon="9.941495916226913"><ele>560.5</ele><time>2026-05-02T06:35:12Z</time></trkpt><trkpt lat="44.758894865496" lon="9.94165434477639"><ele>558.25</ele><time>2026-05-02T06:35:13Z</time></trkpt><trkpt lat="44.758860640782075" lon="9.941818534562413"><ele>556.0</ele><time>2026-05-02T06:35:14Z</time></trkpt><trkpt lat="44.75883757460169" lon="9.941986331048216"><ele>554.0</ele><time>2026-05-02T06:35:15Z</time></trkpt><trkpt lat="44.758826492220464" lon="9.942164485444122"><ele>552.0</ele><time>2026-05-02T06:35:16Z</time></trkpt><trkpt lat="44.75882798981838" lon="9.942342433335275"><ele>550.0</ele><time>2026-05-02T06:35:17Z</time></trkpt><trkpt lat="44.75884840867818" lon="9.942522589731466"><ele>548.0</ele><time>2026-05-02T06:35:18Z</time></trkpt><trkpt lat="44.75887861236971" lon="9.942701096023436"><ele>547.5</ele><time>2026-05-02T06:35:19Z</time></trkpt><trkpt lat="44.75890903802765" lon="9.942856474208815"><ele>547.0</ele><time>2026-05-02T06:35:20Z</time></trkpt><trkpt lat="44.758936216100025" lon="9.94298925928729"><ele>546.5</ele><time>2026-05-02T06:35:20.999Z</time></trkpt><trkpt lat="44.75896437935014" lon="9.94308054542468"><ele>546.0</ele><time>2026-05-02T06:35:21.999Z</time></trkpt><trkpt lat="44.759015153172314" lon="9.943134864678036"><ele>545.5</ele><time>2026-05-02T06:35:22.999Z</time></trkpt><trkpt lat="44.759086452535655" lon="9.943105696660693"><ele>545.0</ele><time>2026-05-02T06:35:23.999Z</time></trkpt><trkpt lat="44.759144562900126" lon="9.943006120283002"><ele>545.0</ele><time>2026-05-02T06:35:24.999Z</time></trkpt><trkpt lat="44.759143883504926" lon="9.942876582783498"><ele>545.0</ele><time>2026-05-02T06:35:25.999Z</time></trkpt><trkpt lat="44.759130377313454" lon="9.942758380865635"><ele>545.0</ele><time>2026-05-02T06:35:26.999Z</time></trkpt><trkpt lat="44.75911876572797" lon="9.942643003651845"><ele>545.0</ele><time>2026-05-02T06:35:27.999Z</time></trkpt><trkpt lat="44.759109889470245" lon="9.94252471614908"><ele>545.0</ele><time>2026-05-02T06:35:28.999Z</time></trkpt><trkpt lat="44.759121139405075" lon="9.94239749610096"><ele>545.0</ele><time>2026-05-02T06:35:29.999Z</time></trkpt><trkpt lat="44.75914901019083" lon="9.942270962294955"><ele>545.6</ele><time>2026-05-02T06:35:30.999Z</time></trkpt><trkpt lat="44.75917169005896" lon="9.942141399742146"><ele>546.2</ele><time>2026-05-02T06:35:31.999Z</time></trkpt><trkpt lat="44.759229227621695" lon="9.942032823262114"><ele>546.8</ele><time>2026-05-02T06:35:32.999Z</time></trkpt><trkpt lat="44.75928752007684" lon="9.94191724530171"><ele>547.4</ele><time>2026-05-02T06:35:33.999Z</time></trkpt><trkpt lat="44.75935570435887" lon="9.941795720621235"><ele>548.0</ele><time>2026-05-02T06:35:34.999Z</time></trkpt><trkpt lat="44.759418429178965" lon="9.94167424680936"><ele>544.8</ele><time>2026-05-02T06:35:35.999Z</time></trkpt><trkpt lat="44.75947940265522" lon="9.941547674133199"><ele>541.5999999999999</ele><time>2026-05-02T06:35:36.999Z</time></trkpt><trkpt lat="44.759537724504405" lon="9.941418873028768"><ele>538.4000000000001</ele><time>2026-05-02T06:35:37.999Z</time></trkpt><trkpt lat="44.759601790582934" lon="9.941291436881388"><ele>535.2</ele><time>2026-05-02T06:35:38.999Z</time></trkpt><trkpt lat="44.75966809833849" lon="9.941161784851685"><ele>532.0</ele><time>2026-05-02T06:35:39.999Z</time></trkpt><trkpt lat="44.75973654303091" lon="9.94102882028678"><ele>532.0</ele><time>2026-05-02T06:35:40.999Z</time></trkpt><trkpt lat="44.759816400243274" lon="9.940906179538658"><ele>532.0</ele><time>2026-05-02T06:35:41.999Z</time></trkpt><trkpt lat="44.759897772106534" lon="9.940788290075599"><ele>532.0</ele><time>2026-05-02T06:35:42.999Z</time></trkpt><trkpt lat="44.75997773103007" lon="9.940662840048446"><ele>532.0</ele><time>2026-05-02T06:35:43.999Z</time></trkpt><trkpt lat="44.76005406496137" lon="9.94053663400984"><ele>530.5</ele><time>2026-05-02T06:35:44.999Z</time></trkpt><trkpt lat="44.7601270728114" lon="9.94042032838778"><ele>529.0</ele><time>2026-05-02T06:35:45.999Z</time></trkpt><trkpt lat="44.76022062976983" lon="9.940328627798097"><ele>527.5</ele><time>2026-05-02T06:35:46.999Z</time></trkpt><trkpt lat="44.76033335987405" lon="9.940267840351755"><ele>526.0</ele><time>2026-05-02T06:35:47.999Z</time></trkpt><trkpt lat="44.76045397836633" lon="9.940239249553002"><ele>526.0</ele><time>2026-05-02T06:35:48.999Z</time></trkpt><trkpt lat="44.760571155439905" lon="9.940206234405476"><ele>526.0</ele><time>2026-05-02T06:35:49.999Z</time></trkpt><trkpt lat="44.76068306288825" lon="9.940159259163481"><ele>526.0</ele><time>2026-05-02T06:35:50.999Z</time></trkpt><trkpt lat="44.76077864091378" lon="9.940101342037465"><ele>526.0</ele><time>2026-05-02T06:35:51.999Z</time></trkpt><trkpt lat="44.76086381509857" lon="9.940074801311152"><ele>526.0</ele><time>2026-05-02T06:35:52.999Z</time></trkpt><trkpt lat="44.76093748447632" lon="9.940044357468127"><ele>526.0</ele><time>2026-05-02T06:35:53.999Z</time></trkpt><trkpt lat="44.760996918768576" lon="9.940098631617976"><ele>526.0</ele><time>2026-05-02T06:35:54.999Z</time></trkpt><trkpt lat="44.76102852233614" lon="9.940193946344095"><ele>526.0</ele><time>2026-05-02T06:35:55.999Z</time></trkpt><trkpt lat="44.76100967755171" lon="9.940319912962165"><ele>526.0</ele><time>2026-05-02T06:35:56.999Z</time></trkpt><trkpt lat="44.76093156244395" lon="9.940391149023403"><ele>526.0</ele><time>2026-05-02T06:35:57.999Z</time></trkpt><trkpt lat="44.76087097544682" lon="9.940505801418329"><ele>526.0</ele><time>2026-05-02T06:35:58.999Z</time></trkpt><trkpt lat="44.76082335705885" lon="9.94058602914886"><ele>526.0</ele><time>2026-05-02T06:35:59.999Z</time></trkpt><trkpt lat="44.76075322197995" lon="9.940680808451908"><ele>526.0</ele><time>2026-05-02T06:36:00.999Z</time></trkpt><trkpt lat="44.760686095926815" lon="9.940773822348111"><ele>526.0</ele><time>2026-05-02T06:36:01.999Z</time></trkpt><trkpt lat="44.760621615813065" lon="9.94087236610051"><ele>526.0</ele><time>2026-05-02T06:36:02.999Z</time></trkpt><trkpt lat="44.760563298395176" lon="9.940980965859792"><ele>526.0</ele><time>2026-05-02T06:36:03.999Z</time></trkpt><trkpt lat="44.76051017786747" lon="9.941104278930458"><ele>523.8</ele><time>2026-05-02T06:36:04.999Z</time></trkpt><trkpt lat="44.76046538275005" lon="9.941246755727514"><ele>521.6</ele><time>2026-05-02T06:36:05.999Z</time></trkpt><trkpt lat="44.760437487536564" lon="9.941383872720843"><ele>519.4</ele><time>2026-05-02T06:36:06.999Z</time></trkpt><trkpt lat="44.7604047738603" lon="9.941527237310282"><ele>517.2</ele><time>2026-05-02T06:36:07.999Z</time></trkpt><trkpt lat="44.76037362839471" lon="9.941674864049753"><ele>515.0</ele><time>2026-05-02T06:36:08.999Z</time></trkpt><trkpt lat="44.76034385137968" lon="9.941823094355144"><ele>515.0</ele><time>2026-05-02T06:36:09.999Z</time></trkpt><trkpt lat="44.760321437768724" lon="9.941973670628363"><ele>515.0</ele><time>2026-05-02T06:36:10.999Z</time></trkpt><trkpt lat="44.76029552369411" lon="9.94212859936592"><ele>515.0</ele><time>2026-05-02T06:36:11.999Z</time></trkpt><trkpt lat="44.76026931178388" lon="9.942283352361276"><ele>515.0</ele><time>2026-05-02T06:36:12.999Z</time></trkpt><trkpt lat="44.76025124295103" lon="9.942436799676713"><ele>515.0</ele><time>2026-05-02T06:36:13.999Z</time></trkpt><trkpt lat="44.76024598372668" lon="9.942587285851005"><ele>515.0</ele><time>2026-05-02T06:36:14.998Z</time></trkpt><trkpt lat="44.76028161685113" lon="9.942730302528176"><ele>515.0</ele><time>2026-05-02T06:36:15.998Z</time></trkpt><trkpt lat="44.760346577107796" lon="9.942852727661453"><ele>515.0</ele><time>2026-05-02T06:36:16.998Z</time></trkpt><trkpt lat="44.760429777344896" lon="9.942956459716532"><ele>515.0</ele><time>2026-05-02T06:36:17.998Z</time></trkpt><trkpt lat="44.76049404238638" lon="9.943073334810364"><ele>515.0</ele><time>2026-05-02T06:36:18.998Z</time></trkpt><trkpt lat="44.76054238312541" lon="9.94320468136522"><ele>515.0</ele><time>2026-05-02T06:36:19.998Z</time></trkpt><trkpt lat="44.76057749534924" lon="9.943352525278927"><ele>515.0</ele><time>2026-05-02T06:36:20.998Z</time></trkpt><trkpt lat="44.760603703729515" lon="9.943506193454933"><ele>515.0</ele><time>2026-05-02T06:36:21.998Z</time></trkpt><trkpt lat="44.760639700596535" lon="9.943649518567925"><ele>515.0</ele><time>2026-05-02T06:36:22.998Z</time></trkpt><trkpt lat="44.76067388061637" lon="9.943793687838525"><ele>515.0</ele><time>2026-05-02T06:36:23.998Z</time></trkpt><trkpt lat="44.76071140810972" lon="9.943924527200933"><ele>514.2857142857143</ele><time>2026-05-02T06:36:24.998Z</time></trkpt><trkpt lat="44.76076288181942" lon="9.944023043208123"><ele>513.5714285714286</ele><time>2026-05-02T06:36:25.998Z</time></trkpt><trkpt lat="44.7608221215368" lon="9.94408252482724"><ele>512.8571428571429</ele><time>2026-05-02T06:36:26.998Z</time></trkpt><trkpt lat="44.760886241891136" lon="9.944097346846142"><ele>512.1428571428571</ele><time>2026-05-02T06:36:28Z</time></trkpt><trkpt lat="44.760943153922945" lon="9.944056893846033"><ele>511.42857142857144</ele><time>2026-05-02T06:36:29Z</time></trkpt><trkpt lat="44.76098530906485" lon="9.943965757729151"><ele>510.7142857142857</ele><time>2026-05-02T06:36:30Z</time></trkpt><trkpt lat="44.761004243626786" lon="9.943864666202915"><ele>510.0</ele><time>2026-05-02T06:36:31Z</time></trkpt><trkpt lat="44.76102677981416" lon="9.94376370017367"><ele>510.8333333333333</ele><time>2026-05-02T06:36:32Z</time></trkpt><trkpt lat="44.761046933724884" lon="9.943663506441155"><ele>511.66666666666663</ele><time>2026-05-02T06:36:33Z</time></trkpt><trkpt lat="44.761062288846134" lon="9.943556843030693"><ele>512.5</ele><time>2026-05-02T06:36:34Z</time></trkpt><trkpt lat="44.76106799177546" lon="9.94344583018439"><ele>513.3333333333333</ele><time>2026-05-02T06:36:35Z</time></trkpt><trkpt lat="44.76106352683543" lon="9.943328622713526"><ele>514.1666666666666</ele><time>2026-05-02T06:36:36Z</time></trkpt><trkpt lat="44.76104549919586" lon="9.94321148132011"><ele>515.0</ele><time>2026-05-02T06:36:37Z</time></trkpt><trkpt lat="44.76101475670613" lon="9.943097775433019"><ele>515.0</ele><time>2026-05-02T06:36:38Z</time></trkpt><trkpt lat="44.760979484385345" lon="9.942977337852351"><ele>515.0</ele><time>2026-05-02T06:36:39Z</time></trkpt><trkpt lat="44.76096315807609" lon="9.942847924203072"><ele>515.0</ele><time>2026-05-02T06:36:40Z</time></trkpt><trkpt lat="44.760964686560904" lon="9.942715766059136"><ele>515.0</ele><time>2026-05-02T06:36:41Z</time></trkpt><trkpt lat="44.76099395415636" lon="9.942589603611648"><ele>515.0</ele><time>2026-05-02T06:36:42Z</time></trkpt><trkpt lat="44.761050475164645" lon="9.942470293748467"><ele>511.0</ele><time>2026-05-02T06:36:43Z</time></trkpt><trkpt lat="44.761113465938344" lon="9.942354220099519"><ele>507.0</ele><time>2026-05-02T06:36:44Z</time></trkpt><trkpt lat="44.76117507343733" lon="9.942237629902749"><ele>503.0</ele><time>2026-05-02T06:36:45Z</time></trkpt><trkpt lat="44.76123971779096" lon="9.942120341543758"><ele>499.0</ele><time>2026-05-02T06:36:46Z</time></trkpt><trkpt lat="44.76130771396734" lon="9.941999940727596"><ele>495.0</ele><time>2026-05-02T06:36:47Z</time></trkpt><trkpt lat="44.76138825958713" lon="9.941894074027449"><ele>495.0</ele><time>2026-05-02T06:36:48Z</time></trkpt><trkpt lat="44.76148011975682" lon="9.94179799344244"><ele>495.0</ele><time>2026-05-02T06:36:49Z</time></trkpt><trkpt lat="44.76158237236214" lon="9.94171865971316"><ele>495.0</ele><time>2026-05-02T06:36:50Z</time></trkpt><trkpt lat="44.76169208282983" lon="9.94167802114905"><ele>495.0</ele><time>2026-05-02T06:36:51Z</time></trkpt><trkpt lat="44.76180842987614" lon="9.941664814798555"><ele>494.0</ele><time>2026-05-02T06:36:52Z</time></trkpt><trkpt lat="44.76192301609115" lon="9.941679897711913"><ele>493.0</ele><time>2026-05-02T06:36:53Z</time></trkpt><trkpt lat="44.76203331500892" lon="9.941699152205047"><ele>492.0</ele><time>2026-05-02T06:36:54Z</time></trkpt><trkpt lat="44.762140393581525" lon="9.94167020812373"><ele>491.0</ele><time>2026-05-02T06:36:55Z</time></trkpt><trkpt lat="44.762242443470925" lon="9.94159238667316"><ele>491.0</ele><time>2026-05-02T06:36:56Z</time></trkpt><trkpt lat="44.76232909547137" lon="9.941481982579973"><ele>491.0</ele><time>2026-05-02T06:36:57Z</time></trkpt><trkpt lat="44.76240040447714" lon="9.94134538906551"><ele>491.0</ele><time>2026-05-02T06:36:58Z</time></trkpt><trkpt lat="44.76247021981282" lon="9.94121101705285"><ele>491.0</ele><time>2026-05-02T06:36:59Z</time></trkpt><trkpt lat="44.762548408630785" lon="9.941098311283957"><ele>491.0</ele><time>2026-05-02T06:37:00Z</time></trkpt><trkpt lat="44.76263645594991" lon="9.94103028138434"><ele>491.0</ele><time>2026-05-02T06:37:01Z</time></trkpt><trkpt lat="44.76273727234093" lon="9.941026926476695"><ele>491.0</ele><time>2026-05-02T06:37:02Z</time></trkpt><trkpt lat="44.76283569302549" lon="9.941072212478824"><ele>491.0</ele><time>2026-05-02T06:37:03Z</time></trkpt><trkpt lat="44.76292666821193" lon="9.941135224417403"><ele>491.0</ele><time>2026-05-02T06:37:04Z</time></trkpt><trkpt lat="44.76301898739594" lon="9.941185875253808"><ele>488.4</ele><time>2026-05-02T06:37:05Z</time></trkpt><trkpt lat="44.76312046714223" lon="9.941202522086751"><ele>485.8</ele><time>2026-05-02T06:37:06Z</time></trkpt><trkpt lat="44.76322529035592" lon="9.941176025858633"><ele>483.19999999999993</ele><time>2026-05-02T06:37:07Z</time></trkpt><trkpt lat="44.76332572205985" lon="9.94111749487296"><ele>480.59999999999997</ele><time>2026-05-02T06:37:08Z</time></trkpt><trkpt lat="44.763423761203455" lon="9.941046740747202"><ele>478.0</ele><time>2026-05-02T06:37:09Z</time></trkpt><trkpt lat="44.763523763089424" lon="9.940976694656444"><ele>476.59999999999997</ele><time>2026-05-02T06:37:10Z</time></trkpt><trkpt lat="44.763620817970136" lon="9.940905678181055"><ele>475.19999999999993</ele><time>2026-05-02T06:37:11Z</time></trkpt><trkpt lat="44.76370147184171" lon="9.940810604936752"><ele>473.8</ele><time>2026-05-02T06:37:12Z</time></trkpt><trkpt lat="44.76376156336288" lon="9.940703531830678"><ele>472.4</ele><time>2026-05-02T06:37:13Z</time></trkpt><trkpt lat="44.76379988160366" lon="9.940604056631448"><ele>471.0</ele><time>2026-05-02T06:37:14Z</time></trkpt><trkpt lat="44.763829200562206" lon="9.940519829506545"><ele>471.0</ele><time>2026-05-02T06:37:15Z</time></trkpt><trkpt lat="44.76393323747193" lon="9.940477926159298"><ele>471.0</ele><time>2026-05-02T06:37:17Z</time></trkpt><trkpt lat="44.7639773515916" lon="9.940549231703587"><ele>471.0</ele><time>2026-05-02T06:37:18Z</time></trkpt><trkpt lat="44.76394637616083" lon="9.940656845662346"><ele>471.0</ele><time>2026-05-02T06:37:19Z</time></trkpt><trkpt lat="44.76391455438369" lon="9.940749578840734"><ele>471.0</ele><time>2026-05-02T06:37:20Z</time></trkpt><trkpt lat="44.76388481253497" lon="9.940855743496709"><ele>471.0</ele><time>2026-05-02T06:37:21Z</time></trkpt><trkpt lat="44.76384085154109" lon="9.940945206398537"><ele>469.0</ele><time>2026-05-02T06:37:22Z</time></trkpt><trkpt lat="44.763794249474536" lon="9.941044208038772"><ele>467.0</ele><time>2026-05-02T06:37:23Z</time></trkpt><trkpt lat="44.76373982294963" lon="9.941145599845525"><ele>465.0</ele><time>2026-05-02T06:37:23.999Z</time></trkpt><trkpt lat="44.7636812037471" lon="9.941253542332463"><ele>463.0</ele><time>2026-05-02T06:37:24.999Z</time></trkpt><trkpt lat="44.76362657772904" lon="9.941371064277952"><ele>461.0</ele><time>2026-05-02T06:37:25.999Z</time></trkpt><trkpt lat="44.76356407661565" lon="9.941486550878347"><ele>462.0</ele><time>2026-05-02T06:37:26.999Z</time></trkpt><trkpt lat="44.76350147641103" lon="9.941606727999611"><ele>463.0</ele><time>2026-05-02T06:37:27.999Z</time></trkpt><trkpt lat="44.76343629076407" lon="9.941727829525739"><ele>464.0</ele><time>2026-05-02T06:37:28.999Z</time></trkpt><trkpt lat="44.76336911684909" lon="9.941857486999018"><ele>465.0</ele><time>2026-05-02T06:37:29.999Z</time></trkpt><trkpt lat="44.76330464658359" lon="9.941989455490344"><ele>466.0</ele><time>2026-05-02T06:37:30.999Z</time></trkpt><trkpt lat="44.7632423472967" lon="9.942123874364142"><ele>466.0</ele><time>2026-05-02T06:37:31.999Z</time></trkpt><trkpt lat="44.763187814627614" lon="9.942253904583568"><ele>466.0</ele><time>2026-05-02T06:37:32.999Z</time></trkpt><trkpt lat="44.76313514436339" lon="9.942368366794236"><ele>466.0</ele><time>2026-05-02T06:37:33.999Z</time></trkpt><trkpt lat="44.76309682435888" lon="9.942483931282641"><ele>466.0</ele><time>2026-05-02T06:37:34.999Z</time></trkpt><trkpt lat="44.763080451918064" lon="9.942599565495287"><ele>466.0</ele><time>2026-05-02T06:37:35.999Z</time></trkpt><trkpt lat="44.76309943583352" lon="9.942711796830508"><ele>465.6</ele><time>2026-05-02T06:37:36.999Z</time></trkpt><trkpt lat="44.76317031425526" lon="9.94278675044003"><ele>465.20000000000005</ele><time>2026-05-02T06:37:37.999Z</time></trkpt><trkpt lat="44.76326513453701" lon="9.942806540089235"><ele>464.79999999999995</ele><time>2026-05-02T06:37:38.999Z</time></trkpt><trkpt lat="44.76336211275683" lon="9.942789105432793"><ele>464.4</ele><time>2026-05-02T06:37:39.999Z</time></trkpt><trkpt lat="44.76345916049828" lon="9.94274498180445"><ele>464.0</ele><time>2026-05-02T06:37:40.999Z</time></trkpt><trkpt lat="44.76355748177059" lon="9.942697559125337"><ele>461.75</ele><time>2026-05-02T06:37:41.999Z</time></trkpt><trkpt lat="44.76365614809163" lon="9.942639962827027"><ele>459.5</ele><time>2026-05-02T06:37:42.999Z</time></trkpt><trkpt lat="44.763756372708265" lon="9.942567630247689"><ele>457.25</ele><time>2026-05-02T06:37:43.999Z</time></trkpt><trkpt lat="44.763854665817846" lon="9.942476854299793"><ele>455.0</ele><time>2026-05-02T06:37:44.999Z</time></trkpt><trkpt lat="44.76394807632577" lon="9.942374987632633"><ele>455.0</ele><time>2026-05-02T06:37:45.999Z</time></trkpt><trkpt lat="44.7640463560904" lon="9.9422673930299"><ele>455.0</ele><time>2026-05-02T06:37:46.999Z</time></trkpt><trkpt lat="44.76415102919931" lon="9.942168191417679"><ele>455.0</ele><time>2026-05-02T06:37:47.999Z</time></trkpt><trkpt lat="44.76426313926192" lon="9.942080766801315"><ele>455.0</ele><time>2026-05-02T06:37:48.999Z</time></trkpt><trkpt lat="44.764373948309775" lon="9.941996606703363"><ele>452.25</ele><time>2026-05-02T06:37:49.999Z</time></trkpt><trkpt lat="44.76449131665356" lon="9.94190928302178"><ele>449.5</ele><time>2026-05-02T06:37:50.999Z</time></trkpt><trkpt lat="44.76460820068778" lon="9.941815572330267"><ele>446.75</ele><time>2026-05-02T06:37:51.999Z</time></trkpt><trkpt lat="44.76472105037629" lon="9.94172538329442"><ele>444.0</ele><time>2026-05-02T06:37:52.999Z</time></trkpt><trkpt lat="44.764840138643486" lon="9.941636883974946"><ele>444.0</ele><time>2026-05-02T06:37:53.999Z</time></trkpt><trkpt lat="44.764960536297764" lon="9.941541836500262"><ele>444.0</ele><time>2026-05-02T06:37:54.999Z</time></trkpt><trkpt lat="44.76507850008088" lon="9.941447061533196"><ele>444.0</ele><time>2026-05-02T06:37:55.999Z</time></trkpt><trkpt lat="44.76520258017916" lon="9.941356012152987"><ele>444.0</ele><time>2026-05-02T06:37:56.999Z</time></trkpt><trkpt lat="44.76532451744317" lon="9.9412614772456"><ele>441.0</ele><time>2026-05-02T06:37:57.999Z</time></trkpt><trkpt lat="44.76544754067436" lon="9.941167151655963"><ele>438.0</ele><time>2026-05-02T06:37:58.999Z</time></trkpt><trkpt lat="44.765575426567175" lon="9.941079104656428"><ele>435.0</ele><time>2026-05-02T06:37:59.999Z</time></trkpt><trkpt lat="44.76570355899923" lon="9.94099592490341"><ele>432.0</ele><time>2026-05-02T06:38:00.999Z</time></trkpt><trkpt lat="44.7658369970703" lon="9.940928051783251"><ele>432.0</ele><time>2026-05-02T06:38:01.999Z</time></trkpt><trkpt lat="44.76597117396129" lon="9.940874790778548"><ele>432.0</ele><time>2026-05-02T06:38:02.999Z</time></trkpt><trkpt lat="44.76610520937008" lon="9.94082045316529"><ele>432.0</ele><time>2026-05-02T06:38:03.999Z</time></trkpt><trkpt lat="44.76624035267809" lon="9.940767988919363"><ele>432.0</ele><time>2026-05-02T06:38:04.999Z</time></trkpt><trkpt lat="44.76637431905552" lon="9.940706858387655"><ele>432.0</ele><time>2026-05-02T06:38:05.999Z</time></trkpt><trkpt lat="44.76650690613405" lon="9.940640070860917"><ele>432.0</ele><time>2026-05-02T06:38:06.999Z</time></trkpt><trkpt lat="44.76664280908471" lon="9.940585801604131"><ele>432.0</ele><time>2026-05-02T06:38:07.999Z</time></trkpt><trkpt lat="44.76678223809789" lon="9.940548797725521"><ele>432.0</ele><time>2026-05-02T06:38:08.999Z</time></trkpt><trkpt lat="44.7669237954981" lon="9.940516738327263"><ele>431.25</ele><time>2026-05-02T06:38:09.999Z</time></trkpt><trkpt lat="44.76706581493095" lon="9.940479469535443"><ele>430.5</ele><time>2026-05-02T06:38:10.999Z</time></trkpt><trkpt lat="44.76720724047184" lon="9.940442892382062"><ele>429.75</ele><time>2026-05-02T06:38:11.999Z</time></trkpt><trkpt lat="44.76734322612515" lon="9.940414037969198"><ele>429.0</ele><time>2026-05-02T06:38:12.999Z</time></trkpt><trkpt lat="44.767478347983484" lon="9.94038472634106"><ele>429.0</ele><time>2026-05-02T06:38:13.999Z</time></trkpt><trkpt lat="44.767613072010676" lon="9.94035314527106"><ele>429.0</ele><time>2026-05-02T06:38:14.999Z</time></trkpt><trkpt lat="44.76774371636176" lon="9.940335298721823"><ele>429.0</ele><time>2026-05-02T06:38:15.999Z</time></trkpt><trkpt lat="44.76787299257519" lon="9.940345515706566"><ele>429.0</ele><time>2026-05-02T06:38:16.999Z</time></trkpt><trkpt lat="44.76799965252892" lon="9.940378993311036"><ele>428.0</ele><time>2026-05-02T06:38:17.998Z</time></trkpt><trkpt lat="44.768123813892934" lon="9.940429920085338"><ele>427.0</ele><time>2026-05-02T06:38:18.998Z</time></trkpt><trkpt lat="44.7682372029902" lon="9.940500380391862"><ele>426.0</ele><time>2026-05-02T06:38:19.998Z</time></trkpt><trkpt lat="44.768340723741254" lon="9.940595455095352"><ele>425.0</ele><time>2026-05-02T06:38:20.998Z</time></trkpt><trkpt lat="44.76842995753002" lon="9.940718463513175"><ele>425.0</ele><time>2026-05-02T06:38:21.998Z</time></trkpt><trkpt lat="44.76849912229238" lon="9.940865676911052"><ele>425.0</ele><time>2026-05-02T06:38:22.998Z</time></trkpt><trkpt lat="44.768523618279595" lon="9.941041760750313"><ele>425.0</ele><time>2026-05-02T06:38:23.998Z</time></trkpt><trkpt lat="44.768571097208735" lon="9.941214152159525"><ele>425.0</ele><time>2026-05-02T06:38:24.998Z</time></trkpt><trkpt lat="44.768615451349305" lon="9.941368676873976"><ele>422.5</ele><time>2026-05-02T06:38:25.998Z</time></trkpt><trkpt lat="44.768692415137764" lon="9.941497827465652"><ele>420.0</ele><time>2026-05-02T06:38:26.998Z</time></trkpt><trkpt lat="44.768798478588245" lon="9.941584892252234"><ele>417.5</ele><time>2026-05-02T06:38:27.998Z</time></trkpt><trkpt lat="44.768907737874066" lon="9.941663394238521"><ele>415.0</ele><time>2026-05-02T06:38:28.998Z</time></trkpt><trkpt lat="44.769022355301544" lon="9.941725185719404"><ele>414.0</ele><time>2026-05-02T06:38:29.998Z</time></trkpt><trkpt lat="44.76913481723835" lon="9.941771616666193"><ele>413.0</ele><time>2026-05-02T06:38:30.998Z</time></trkpt><trkpt lat="44.769254901190756" lon="9.941795871840942"><ele>412.0</ele><time>2026-05-02T06:38:31.998Z</time></trkpt><trkpt lat="44.76937820178587" lon="9.941802116262798"><ele>411.0</ele><time>2026-05-02T06:38:33Z</time></trkpt><trkpt lat="44.76950174572624" lon="9.941776347873327"><ele>411.25</ele><time>2026-05-02T06:38:34Z</time></trkpt><trkpt lat="44.76962081174886" lon="9.94171061633552"><ele>411.5</ele><time>2026-05-02T06:38:35Z</time></trkpt><trkpt lat="44.7697271970473" lon="9.941620792204205"><ele>411.75</ele><time>2026-05-02T06:38:36Z</time></trkpt><trkpt lat="44.7698275138022" lon="9.941509575034903"><ele>412.0</ele><time>2026-05-02T06:38:37Z</time></trkpt><trkpt lat="44.76990971837428" lon="9.941376961412937"><ele>412.0</ele><time>2026-05-02T06:38:38Z</time></trkpt><trkpt lat="44.76998163162039" lon="9.941225803545928"><ele>412.0</ele><time>2026-05-02T06:38:39Z</time></trkpt><trkpt lat="44.770043959560496" lon="9.941068134171994"><ele>412.0</ele><time>2026-05-02T06:38:40Z</time></trkpt><trkpt lat="44.77010664308924" lon="9.940912840347906"><ele>412.0</ele><time>2026-05-02T06:38:41Z</time></trkpt><trkpt lat="44.7701608747193" lon="9.940758083812572"><ele>407.25</ele><time>2026-05-02T06:38:42Z</time></trkpt><trkpt lat="44.77021930440323" lon="9.940613640755977"><ele>402.5</ele><time>2026-05-02T06:38:43Z</time></trkpt><trkpt lat="44.77029379450019" lon="9.940491139296046"><ele>397.75</ele><time>2026-05-02T06:38:44Z</time></trkpt><trkpt lat="44.77039842440518" lon="9.940411192552922"><ele>393.0</ele><time>2026-05-02T06:38:45Z</time></trkpt><trkpt lat="44.77051207779302" lon="9.940363395888285"><ele>393.0</ele><time>2026-05-02T06:38:46Z</time></trkpt><trkpt lat="44.77062875267016" lon="9.940321538693265"><ele>393.0</ele><time>2026-05-02T06:38:47Z</time></trkpt><trkpt lat="44.770746923538546" lon="9.940261642476198"><ele>393.0</ele><time>2026-05-02T06:38:48Z</time></trkpt><trkpt lat="44.77085266903427" lon="9.94018380871061"><ele>393.0</ele><time>2026-05-02T06:38:49Z</time></trkpt><trkpt lat="44.77095698994171" lon="9.9400990162887"><ele>389.25</ele><time>2026-05-02T06:38:50Z</time></trkpt><trkpt lat="44.771062910351574" lon="9.94001115464855"><ele>385.5</ele><time>2026-05-02T06:38:51Z</time></trkpt><trkpt lat="44.77117320130527" lon="9.939927620546218"><ele>381.75</ele><time>2026-05-02T06:38:52Z</time></trkpt><trkpt lat="44.771285996568686" lon="9.939861129082633"><ele>378.0</ele><time>2026-05-02T06:38:53Z</time></trkpt><trkpt lat="44.77139182468079" lon="9.939807753308905"><ele>378.0</ele><time>2026-05-02T06:38:54Z</time></trkpt><trkpt lat="44.77149742160051" lon="9.939754580030113"><ele>378.0</ele><time>2026-05-02T06:38:55Z</time></trkpt><trkpt lat="44.77159298953754" lon="9.939695900561313"><ele>378.0</ele><time>2026-05-02T06:38:56Z</time></trkpt><trkpt lat="44.771677248636124" lon="9.939614071100898"><ele>378.0</ele><time>2026-05-02T06:38:57Z</time></trkpt><trkpt lat="44.77174121788358" lon="9.939494923223737"><ele>378.0</ele><time>2026-05-02T06:38:58Z</time></trkpt><trkpt lat="44.771779327424724" lon="9.93934892849921"><ele>380.59999999999997</ele><time>2026-05-02T06:38:59Z</time></trkpt><trkpt lat="44.77179326910454" lon="9.939189737981637"><ele>383.2</ele><time>2026-05-02T06:39:00Z</time></trkpt><trkpt lat="44.771782340201646" lon="9.939028546049508"><ele>385.8</ele><time>2026-05-02T06:39:01Z</time></trkpt><trkpt lat="44.77174699257239" lon="9.938882014772277"><ele>388.4</ele><time>2026-05-02T06:39:02Z</time></trkpt><trkpt lat="44.77169175747392" lon="9.938766159936959"><ele>391.0</ele><time>2026-05-02T06:39:03Z</time></trkpt><trkpt lat="44.77161902035871" lon="9.938668803170332"><ele>391.0</ele><time>2026-05-02T06:39:04Z</time></trkpt><trkpt lat="44.77153290286125" lon="9.938588519616347"><ele>391.0</ele><time>2026-05-02T06:39:05Z</time></trkpt><trkpt lat="44.771437970018276" lon="9.93854711971575"><ele>391.0</ele><time>2026-05-02T06:39:06Z</time></trkpt><trkpt lat="44.77133474229886" lon="9.938554759176252"><ele>391.0</ele><time>2026-05-02T06:39:07Z</time></trkpt><trkpt lat="44.771230829668895" lon="9.938595026627368"><ele>391.0</ele><time>2026-05-02T06:39:08Z</time></trkpt><trkpt lat="44.77112006145811" lon="9.938616629742855"><ele>390.8</ele><time>2026-05-02T06:39:09Z</time></trkpt><trkpt lat="44.771013339778015" lon="9.938652492182852"><ele>390.6</ele><time>2026-05-02T06:39:10Z</time></trkpt><trkpt lat="44.770907239642696" lon="9.938672473741532"><ele>390.4</ele><time>2026-05-02T06:39:11Z</time></trkpt><trkpt lat="44.7708125293926" lon="9.938658757254572"><ele>390.2</ele><time>2026-05-02T06:39:12Z</time></trkpt><trkpt lat="44.770719198564684" lon="9.938614857220642"><ele>390.0</ele><time>2026-05-02T06:39:13Z</time></trkpt><trkpt lat="44.7706358676091" lon="9.938531542447246"><ele>390.0</ele><time>2026-05-02T06:39:14Z</time></trkpt><trkpt lat="44.770543239283455" lon="9.938443203466969"><ele>390.0</ele><time>2026-05-02T06:39:15Z</time></trkpt><trkpt lat="44.77044883685175" lon="9.938354833526713"><ele>390.0</ele><time>2026-05-02T06:39:16Z</time></trkpt><trkpt lat="44.77035263153499" lon="9.938264776055371"><ele>390.0</ele><time>2026-05-02T06:39:17Z</time></trkpt><trkpt lat="44.7702543086284" lon="9.938175040665325"><ele>387.8</ele><time>2026-05-02T06:39:18Z</time></trkpt><trkpt lat="44.77017511936629" lon="9.938076286275793"><ele>385.6</ele><time>2026-05-02T06:39:19Z</time></trkpt><trkpt lat="44.77014156177163" lon="9.937938666296374"><ele>383.4</ele><time>2026-05-02T06:39:20Z</time></trkpt><trkpt lat="44.7701493606112" lon="9.93780155998085"><ele>381.2</ele><time>2026-05-02T06:39:21Z</time></trkpt><trkpt lat="44.77020470627504" lon="9.937693226213831"><ele>379.0</ele><time>2026-05-02T06:39:22Z</time></trkpt><trkpt lat="44.770277397541705" lon="9.93762244697644"><ele>379.0</ele><time>2026-05-02T06:39:23Z</time></trkpt><trkpt lat="44.77036701585035" lon="9.937606234469657"><ele>379.0</ele><time>2026-05-02T06:39:24Z</time></trkpt><trkpt lat="44.77045681996968" lon="9.937640282620274"><ele>379.0</ele><time>2026-05-02T06:39:25Z</time></trkpt><trkpt lat="44.77051570216749" lon="9.93771437869065"><ele>379.0</ele><time>2026-05-02T06:39:26Z</time></trkpt><trkpt lat="44.77056497475685" lon="9.937821639328593"><ele>379.0</ele><time>2026-05-02T06:39:27Z</time></trkpt><trkpt lat="44.7706137074684" lon="9.937916607620313"><ele>379.0</ele><time>2026-05-02T06:39:27.999Z</time></trkpt><trkpt lat="44.77067655483496" lon="9.938022308029469"><ele>379.0</ele><time>2026-05-02T06:39:28.999Z</time></trkpt><trkpt lat="44.770772423764186" lon="9.938065765942932"><ele>379.0</ele><time>2026-05-02T06:39:29.999Z</time></trkpt><trkpt lat="44.770877897025485" lon="9.938061608040432"><ele>379.0</ele><time>2026-05-02T06:39:30.999Z</time></trkpt><trkpt lat="44.77096013824947" lon="9.93799566480785"><ele>379.0</ele><time>2026-05-02T06:39:31.999Z</time></trkpt><trkpt lat="44.77102905192264" lon="9.937892156398904"><ele>379.0</ele><time>2026-05-02T06:39:32.999Z</time></trkpt><trkpt lat="44.77109426878132" lon="9.937802369590033"><ele>378.79999999999995</ele><time>2026-05-02T06:39:33.999Z</time></trkpt><trkpt lat="44.77117026083083" lon="9.937716498212406"><ele>378.59999999999997</ele><time>2026-05-02T06:39:34.999Z</time></trkpt><trkpt lat="44.77125873233481" lon="9.93765040288345"><ele>378.4</ele><time>2026-05-02T06:39:35.999Z</time></trkpt><trkpt lat="44.77136195998116" lon="9.937620014197785"><ele>378.2</ele><time>2026-05-02T06:39:36.999Z</time></trkpt><trkpt lat="44.771465850722166" lon="9.937641623286298"><ele>378.0</ele><time>2026-05-02T06:39:37.999Z</time></trkpt><trkpt lat="44.77155627614248" lon="9.93768839041492"><ele>378.0</ele><time>2026-05-02T06:39:38.999Z</time></trkpt><trkpt lat="44.77163270404989" lon="9.93771161876993"><ele>378.0</ele><time>2026-05-02T06:39:39.999Z</time></trkpt><trkpt lat="44.77169182773988" lon="9.937670484247588"><ele>378.0</ele><time>2026-05-02T06:39:40.999Z</time></trkpt><trkpt lat="44.77171282311516" lon="9.937585897622704"><ele>378.0</ele><time>2026-05-02T06:39:41.999Z</time></trkpt><trkpt lat="44.77167964029103" lon="9.937494843433685"><ele>378.0</ele><time>2026-05-02T06:39:42.999Z</time></trkpt><trkpt lat="44.77161546083662" lon="9.93744018835029"><ele>378.0</ele><time>2026-05-02T06:39:43.999Z</time></trkpt><trkpt lat="44.77155037132496" lon="9.937417768973699"><ele>378.0</ele><time>2026-05-02T06:39:44.999Z</time></trkpt><trkpt lat="44.77148792547087" lon="9.937405664824489"><ele>375.0</ele><time>2026-05-02T06:39:45.999Z</time></trkpt><trkpt lat="44.771420340140104" lon="9.937395046141187"><ele>372.0</ele><time>2026-05-02T06:39:46.999Z</time></trkpt><trkpt lat="44.77135539860644" lon="9.937379103691114"><ele>369.0</ele><time>2026-05-02T06:39:47.999Z</time></trkpt><trkpt lat="44.77128344334699" lon="9.937361625456798"><ele>366.0</ele><time>2026-05-02T06:39:48.999Z</time></trkpt><trkpt lat="44.771209317713996" lon="9.937344589671783"><ele>363.0</ele><time>2026-05-02T06:39:49.999Z</time></trkpt><trkpt lat="44.77114809110358" lon="9.937306647447647"><ele>360.0</ele><time>2026-05-02T06:39:50.999Z</time></trkpt><trkpt lat="44.77113830076757" lon="9.937138965376255"><ele>360.0</ele><time>2026-05-02T06:39:52.999Z</time></trkpt><trkpt lat="44.77119950680245" lon="9.93708793125736"><ele>360.0</ele><time>2026-05-02T06:39:53.999Z</time></trkpt><trkpt lat="44.77127647516763" lon="9.937134920364146"><ele>360.0</ele><time>2026-05-02T06:39:54.999Z</time></trkpt><trkpt lat="44.771353716956106" lon="9.937153832496579"><ele>360.0</ele><time>2026-05-02T06:39:55.999Z</time></trkpt><trkpt lat="44.77143508335178" lon="9.937156335593723"><ele>360.0</ele><time>2026-05-02T06:39:56.999Z</time></trkpt><trkpt lat="44.771518428149534" lon="9.937188609804748"><ele>360.0</ele><time>2026-05-02T06:39:57.999Z</time></trkpt><trkpt lat="44.77160447316062" lon="9.937224874225027"><ele>360.0</ele><time>2026-05-02T06:39:58.999Z</time></trkpt><trkpt lat="44.77169781084341" lon="9.93725489333404"><ele>360.0</ele><time>2026-05-02T06:39:59.999Z</time></trkpt><trkpt lat="44.771796544208144" lon="9.937283160994959"><ele>360.0</ele><time>2026-05-02T06:40:00.999Z</time></trkpt><trkpt lat="44.77189849424344" lon="9.937312556922972"><ele>360.0</ele><time>2026-05-02T06:40:01.999Z</time></trkpt><trkpt lat="44.77200317583149" lon="9.937347046401296"><ele>360.0</ele><time>2026-05-02T06:40:02.999Z</time></trkpt><trkpt lat="44.77210989374197" lon="9.937380212770499"><ele>361.75</ele><time>2026-05-02T06:40:03.999Z</time></trkpt><trkpt lat="44.77221893842903" lon="9.937414394109"><ele>363.5</ele><time>2026-05-02T06:40:04.999Z</time></trkpt><trkpt lat="44.77232798684495" lon="9.937460587790552"><ele>365.25</ele><time>2026-05-02T06:40:05.999Z</time></trkpt><trkpt lat="44.77243843927648" lon="9.937510674605031"><ele>367.0</ele><time>2026-05-02T06:40:06.999Z</time></trkpt><trkpt lat="44.772546355638376" lon="9.937557115121152"><ele>367.0</ele><time>2026-05-02T06:40:07.999Z</time></trkpt><trkpt lat="44.77263771385155" lon="9.93760936933175"><ele>367.0</ele><time>2026-05-02T06:40:08.999Z</time></trkpt><trkpt lat="44.772717852473725" lon="9.937654383035152"><ele>367.0</ele><time>2026-05-02T06:40:09.999Z</time></trkpt><trkpt lat="44.77278864911805" lon="9.937664331697192"><ele>367.0</ele><time>2026-05-02T06:40:10.999Z</time></trkpt><trkpt lat="44.772852555025494" lon="9.937634522631019"><ele>367.0</ele><time>2026-05-02T06:40:11.999Z</time></trkpt><trkpt lat="44.77286296246512" lon="9.937461076760046"><ele>367.0</ele><time>2026-05-02T06:40:13.999Z</time></trkpt><trkpt lat="44.77280279520898" lon="9.937389431965588"><ele>364.7142857142857</ele><time>2026-05-02T06:40:14.999Z</time></trkpt><trkpt lat="44.772743903221034" lon="9.937327050753245"><ele>362.42857142857144</ele><time>2026-05-02T06:40:15.999Z</time></trkpt><trkpt lat="44.77267756128414" lon="9.93729447289625"><ele>360.14285714285717</ele><time>2026-05-02T06:40:16.999Z</time></trkpt><trkpt lat="44.77261731234697" lon="9.937242878240781"><ele>357.8571428571429</ele><time>2026-05-02T06:40:17.999Z</time></trkpt><trkpt lat="44.772567883367444" lon="9.937180436285937"><ele>355.57142857142856</ele><time>2026-05-02T06:40:18.999Z</time></trkpt><trkpt lat="44.7725502748973" lon="9.937092567233488"><ele>353.28571428571433</ele><time>2026-05-02T06:40:19.999Z</time></trkpt><trkpt lat="44.77256971817902" lon="9.937002854778166"><ele>351.0</ele><time>2026-05-02T06:40:20.999Z</time></trkpt><trkpt lat="44.77263310756618" lon="9.936947041394411"><ele>348.5</ele><time>2026-05-02T06:40:21.998Z</time></trkpt><trkpt lat="44.772719191393556" lon="9.936958536748355"><ele>346.0</ele><time>2026-05-02T06:40:22.998Z</time></trkpt><trkpt lat="44.77278702968934" lon="9.937035731645361"><ele>343.5</ele><time>2026-05-02T06:40:23.998Z</time></trkpt><trkpt lat="44.77286345167241" lon="9.937083073675947"><ele>341.0</ele><time>2026-05-02T06:40:24.998Z</time></trkpt><trkpt lat="44.77294894171472" lon="9.937117259173515"><ele>338.5</ele><time>2026-05-02T06:40:25.998Z</time></trkpt><trkpt lat="44.773034340077224" lon="9.937171612008896"><ele>336.0</ele><time>2026-05-02T06:40:26.998Z</time></trkpt><trkpt lat="44.77312370491078" lon="9.937232123002468"><ele>336.0</ele><time>2026-05-02T06:40:27.998Z</time></trkpt><trkpt lat="44.773213627493725" lon="9.93729238949753"><ele>336.0</ele><time>2026-05-02T06:40:28.998Z</time></trkpt><trkpt lat="44.77330761324687" lon="9.93734763096607"><ele>336.0</ele><time>2026-05-02T06:40:29.998Z</time></trkpt><trkpt lat="44.77340147525152" lon="9.937405240168538"><ele>336.0</ele><time>2026-05-02T06:40:30.998Z</time></trkpt><trkpt lat="44.77349652832381" lon="9.937461758293534"><ele>336.0</ele><time>2026-05-02T06:40:31.998Z</time></trkpt><trkpt lat="44.77358688891436" lon="9.937512565016796"><ele>335.8333333333333</ele><time>2026-05-02T06:40:32.998Z</time></trkpt><trkpt lat="44.773659355300666" lon="9.937555101761529"><ele>335.6666666666667</ele><time>2026-05-02T06:40:33.998Z</time></trkpt><trkpt lat="44.773715710245554" lon="9.93759577113984"><ele>335.5</ele><time>2026-05-02T06:40:34.998Z</time></trkpt><trkpt lat="44.773772752197964" lon="9.937674352374797"><ele>335.33333333333337</ele><time>2026-05-02T06:40:36.998Z</time></trkpt><trkpt lat="44.77376965715005" lon="9.93758463210442"><ele>335.1666666666667</ele><time>2026-05-02T06:40:47Z</time></trkpt><trkpt lat="44.77369974583811" lon="9.937536869867701"><ele>335.0</ele><time>2026-05-02T06:40:50Z</time></trkpt><trkpt lat="44.77361992382133" lon="9.937477090887063"><ele>334.99999999999994</ele><time>2026-05-02T06:40:53Z</time></trkpt><trkpt lat="44.77356222605954" lon="9.937440605438514"><ele>335.0</ele><time>2026-05-02T06:40:55Z</time></trkpt><trkpt lat="44.77349587485463" lon="9.937398947527702"><ele>335.0</ele><time>2026-05-02T06:40:57Z</time></trkpt><trkpt lat="44.77342515001962" lon="9.937357596051141"><ele>335.0</ele><time>2026-05-02T06:40:59Z</time></trkpt><trkpt lat="44.773358310393576" lon="9.937312435820152"><ele>335.0</ele><time>2026-05-02T06:41:01Z</time></trkpt><trkpt lat="44.77329533441601" lon="9.937274691154176"><ele>334.99999999999994</ele><time>2026-05-02T06:41:03Z</time></trkpt><trkpt lat="44.773211793325345" lon="9.937231544941545"><ele>335.0</ele><time>2026-05-02T06:41:06Z</time></trkpt><trkpt lat="44.773132866899566" lon="9.937188576698249"><ele>335.1666666666667</ele><time>2026-05-02T06:41:09Z</time></trkpt><trkpt lat="44.773057504418475" lon="9.937145474944812"><ele>335.33333333333337</ele><time>2026-05-02T06:41:12Z</time></trkpt><trkpt lat="44.77298216580859" lon="9.937089642716968"><ele>335.5</ele><time>2026-05-02T06:41:15Z</time></trkpt><trkpt lat="44.77291915794681" lon="9.937057663569204"><ele>335.6666666666667</ele><time>2026-05-02T06:41:18Z</time></trkpt><trkpt lat="44.77284145578822" lon="9.937010613111568"><ele>335.8333333333333</ele><time>2026-05-02T06:41:21Z</time></trkpt><trkpt lat="44.77276611334161" lon="9.936964013547174"><ele>336.0</ele><time>2026-05-02T06:41:25Z</time></trkpt><trkpt lat="44.77268888437328" lon="9.93692713237893"><ele>336.0</ele><time>2026-05-02T06:41:28.999Z</time></trkpt><trkpt lat="44.772605630389144" lon="9.93693636222838"><ele>336.0</ele><time>2026-05-02T06:41:32.999Z</time></trkpt><trkpt lat="44.772554621423886" lon="9.937002847327895"><ele>336.0</ele><time>2026-05-02T06:41:35.999Z</time></trkpt><trkpt lat="44.772544075190595" lon="9.937098801036191"><ele>336.0</ele><time>2026-05-02T06:41:38.999Z</time></trkpt><trkpt lat="44.77256986994536" lon="9.937190891021325"><ele>336.0</ele><time>2026-05-02T06:41:41.999Z</time></trkpt><trkpt lat="44.77262915700559" lon="9.937257450332122"><ele>336.0</ele><time>2026-05-02T06:41:44.999Z</time></trkpt><trkpt lat="44.77268404400676" lon="9.937321121535863"><ele>336.0</ele><time>2026-05-02T06:41:47.999Z</time></trkpt><trkpt lat="44.77274228145343" lon="9.937385875831836"><ele>336.0</ele><time>2026-05-02T06:41:50.999Z</time></trkpt><trkpt lat="44.77281313035045" lon="9.937467763783488"><ele>336.0</ele><time>2026-05-02T06:41:53.999Z</time></trkpt><trkpt lat="44.77281220053878" lon="9.937568102245148"><ele>336.0</ele><time>2026-05-02T06:41:57.999Z</time></trkpt><trkpt lat="44.772745605973654" lon="9.937585385674351"><ele>336.0</ele><time>2026-05-02T06:42:01.999Z</time></trkpt><trkpt lat="44.77267080852485" lon="9.93756147508776"><ele>336.0</ele><time>2026-05-02T06:42:04.999Z</time></trkpt><trkpt lat="44.77260470678206" lon="9.937532584229473"><ele>336.0</ele><time>2026-05-02T06:42:07.999Z</time></trkpt><trkpt lat="44.772535081245856" lon="9.937505812832917"><ele>336.0</ele><time>2026-05-02T06:42:11.999Z</time></trkpt><trkpt lat="44.77246437871201" lon="9.937467641506698"><ele>338.14285714285717</ele><time>2026-05-02T06:42:14.999Z</time></trkpt><trkpt lat="44.77239193811471" lon="9.937441796092028"><ele>340.2857142857143</ele><time>2026-05-02T06:42:18.999Z</time></trkpt><trkpt lat="44.77232510665075" lon="9.937418513195867"><ele>342.42857142857144</ele><time>2026-05-02T06:42:21.998Z</time></trkpt><trkpt lat="44.772264778433374" lon="9.937386073538718"><ele>344.57142857142856</ele><time>2026-05-02T06:42:23.998Z</time></trkpt><trkpt lat="44.772197059735035" lon="9.937362614831326"><ele>346.7142857142857</ele><time>2026-05-02T06:42:26.998Z</time></trkpt><trkpt lat="44.77212456666108" lon="9.93733836847791"><ele>348.8571428571429</ele><time>2026-05-02T06:42:30.998Z</time></trkpt><trkpt lat="44.77203442578381" lon="9.937304978052046"><ele>351.0</ele><time>2026-05-02T06:42:33.998Z</time></trkpt><trkpt lat="44.7719629959753" lon="9.93728292273798"><ele>351.00000000000006</ele><time>2026-05-02T06:42:36.998Z</time></trkpt><trkpt lat="44.77188898344066" lon="9.937256548431273"><ele>351.0</ele><time>2026-05-02T06:42:40.998Z</time></trkpt><trkpt lat="44.7718194673396" lon="9.937235494999909"><ele>351.0</ele><time>2026-05-02T06:42:44Z</time></trkpt><trkpt lat="44.77174830117006" lon="9.93721668068333"><ele>351.0</ele><time>2026-05-02T06:42:47Z</time></trkpt><trkpt lat="44.771682735411765" lon="9.93719653880953"><ele>351.0</ele><time>2026-05-02T06:42:50Z</time></trkpt><trkpt lat="44.77161775494443" lon="9.937172786563467"><ele>351.00000000000006</ele><time>2026-05-02T06:42:53Z</time></trkpt><trkpt lat="44.7715467343803" lon="9.93715248644041"><ele>351.0</ele><time>2026-05-02T06:42:56Z</time></trkpt><trkpt lat="44.77147026720925" lon="9.937132609349288"><ele>352.28571428571433</ele><time>2026-05-02T06:42:59Z</time></trkpt><trkpt lat="44.77139985395206" lon="9.937115391940065"><ele>353.57142857142856</ele><time>2026-05-02T06:43:02Z</time></trkpt><trkpt lat="44.77132511437571" lon="9.937094471417058"><ele>354.8571428571429</ele><time>2026-05-02T06:43:06Z</time></trkpt><trkpt lat="44.77125703847988" lon="9.93708280197363"><ele>356.14285714285717</ele><time>2026-05-02T06:43:09Z</time></trkpt><trkpt lat="44.771179013638864" lon="9.937084061210474"><ele>357.42857142857144</ele><time>2026-05-02T06:43:12Z</time></trkpt><trkpt lat="44.77111468323" lon="9.937137453505361"><ele>358.7142857142857</ele><time>2026-05-02T06:43:16Z</time></trkpt><trkpt lat="44.77108775892932" lon="9.937229410526411"><ele>360.0</ele><time>2026-05-02T06:43:19Z</time></trkpt><trkpt lat="44.771124015190274" lon="9.937336820440668"><ele>360.0</ele><time>2026-05-02T06:43:22Z</time></trkpt><trkpt lat="44.77118721919174" lon="9.937373534399839"><ele>360.0</ele><time>2026-05-02T06:43:25Z</time></trkpt><trkpt lat="44.77125112907692" lon="9.937401971719495"><ele>360.0</ele><time>2026-05-02T06:43:28Z</time></trkpt><trkpt lat="44.77131537897239" lon="9.937417179553968"><ele>360.0</ele><time>2026-05-02T06:43:31Z</time></trkpt><trkpt lat="44.771388275406466" lon="9.937445440548329"><ele>360.0</ele><time>2026-05-02T06:43:33.999Z</time></trkpt><trkpt lat="44.77147835883116" lon="9.93748021490981"><ele>360.0</ele><time>2026-05-02T06:43:36.999Z</time></trkpt><trkpt lat="44.771550557802186" lon="9.937502754288662"><ele>360.0</ele><time>2026-05-02T06:43:39.999Z</time></trkpt><trkpt lat="44.77162101806685" lon="9.937536016392702"><ele>362.57142857142856</ele><time>2026-05-02T06:43:42.999Z</time></trkpt><trkpt lat="44.77165061430824" lon="9.937626342864249"><ele>365.14285714285717</ele><time>2026-05-02T06:43:45.999Z</time></trkpt><trkpt lat="44.77157028241566" lon="9.937642370896777"><ele>367.7142857142857</ele><time>2026-05-02T06:43:49.999Z</time></trkpt><trkpt lat="44.77149945344759" lon="9.937608148378985"><ele>370.2857142857143</ele><time>2026-05-02T06:43:52.999Z</time></trkpt><trkpt lat="44.77143701933887" lon="9.937587629777404"><ele>372.8571428571429</ele><time>2026-05-02T06:43:55.999Z</time></trkpt><trkpt lat="44.77135348632147" lon="9.937577521800627"><ele>375.42857142857144</ele><time>2026-05-02T06:43:59.999Z</time></trkpt><trkpt lat="44.77128083911225" lon="9.93759083515432"><ele>378.0</ele><time>2026-05-02T06:44:02.999Z</time></trkpt><trkpt lat="44.77121115073081" lon="9.937630009483193"><ele>378.0</ele><time>2026-05-02T06:44:05.999Z</time></trkpt><trkpt lat="44.77115572872408" lon="9.93768504623176"><ele>378.0</ele><time>2026-05-02T06:44:08.999Z</time></trkpt><trkpt lat="44.77110646217753" lon="9.93774503259975"><ele>378.0</ele><time>2026-05-02T06:44:10.999Z</time></trkpt><trkpt lat="44.771058314027464" lon="9.937816284886926"><ele>378.0</ele><time>2026-05-02T06:44:13.999Z</time></trkpt><trkpt lat="44.77100799453535" lon="9.937878868476389"><ele>378.0</ele><time>2026-05-02T06:44:16.999Z</time></trkpt><trkpt lat="44.77095673902194" lon="9.937934765473017"><ele>378.0</ele><time>2026-05-02T06:44:18.999Z</time></trkpt><trkpt lat="44.77089238308349" lon="9.937989597698701"><ele>378.0</ele><time>2026-05-02T06:44:21.999Z</time></trkpt><trkpt lat="44.77082519557616" lon="9.938019018731563"><ele>378.14285714285717</ele><time>2026-05-02T06:44:23.999Z</time></trkpt><trkpt lat="44.770750869587495" lon="9.93800118442523"><ele>378.2857142857143</ele><time>2026-05-02T06:44:26.998Z</time></trkpt><trkpt lat="44.77068502843595" lon="9.93794802498466"><ele>378.42857142857144</ele><time>2026-05-02T06:44:29.998Z</time></trkpt><trkpt lat="44.770646549483764" lon="9.937876463035687"><ele>378.57142857142856</ele><time>2026-05-02T06:44:32.998Z</time></trkpt><trkpt lat="44.77061017124661" lon="9.937792487611958"><ele>378.7142857142857</ele><time>2026-05-02T06:44:35.998Z</time></trkpt><trkpt lat="44.77056990612785" lon="9.937704896690603"><ele>378.8571428571429</ele><time>2026-05-02T06:44:38.998Z</time></trkpt><trkpt lat="44.77052785462377" lon="9.937626380748725"><ele>379.0</ele><time>2026-05-02T06:44:41.998Z</time></trkpt><trkpt lat="44.770465635660784" lon="9.937590800990085"><ele>379.0</ele><time>2026-05-02T06:44:43.998Z</time></trkpt><trkpt lat="44.77038381686431" lon="9.937563324936074"><ele>379.0</ele><time>2026-05-02T06:44:46.998Z</time></trkpt><trkpt lat="44.77030672574041" lon="9.93757816624121"><ele>379.0</ele><time>2026-05-02T06:44:49Z</time></trkpt><trkpt lat="44.77023247388812" lon="9.937624829389929"><ele>379.0</ele><time>2026-05-02T06:44:52Z</time></trkpt><trkpt lat="44.770161719532695" lon="9.937725286831526"><ele>379.0</ele><time>2026-05-02T06:44:55Z</time></trkpt><trkpt lat="44.77012472558161" lon="9.937833955678645"><ele>379.0</ele><time>2026-05-02T06:44:57Z</time></trkpt><trkpt lat="44.77012356602787" lon="9.937930464765193"><ele>379.0</ele><time>2026-05-02T06:44:59Z</time></trkpt><trkpt lat="44.770135816118135" lon="9.938030205054226"><ele>379.0</ele><time>2026-05-02T06:45:01Z</time></trkpt><trkpt lat="44.77017106876026" lon="9.938123039343068"><ele>379.0</ele><time>2026-05-02T06:45:03Z</time></trkpt><trkpt lat="44.77021847631811" lon="9.938193351536894"><ele>379.0</ele><time>2026-05-02T06:45:05Z</time></trkpt><trkpt lat="44.770270688643855" lon="9.938246893537348"><ele>379.0</ele><time>2026-05-02T06:45:07Z</time></trkpt><trkpt lat="44.770342662876935" lon="9.938321752935456"><ele>379.0</ele><time>2026-05-02T06:45:10Z</time></trkpt><trkpt lat="44.770409337912746" lon="9.938385162082836"><ele>380.8333333333333</ele><time>2026-05-02T06:45:13Z</time></trkpt><trkpt lat="44.7704735885061" lon="9.938448274324719"><ele>382.66666666666663</ele><time>2026-05-02T06:45:16Z</time></trkpt><trkpt lat="44.770538436352645" lon="9.938508310935966"><ele>384.5</ele><time>2026-05-02T06:45:19Z</time></trkpt><trkpt lat="44.77061085981477" lon="9.938581954729631"><ele>386.3333333333333</ele><time>2026-05-02T06:45:23Z</time></trkpt><trkpt lat="44.770675390030156" lon="9.938645834546968"><ele>388.1666666666667</ele><time>2026-05-02T06:45:27Z</time></trkpt><trkpt lat="44.77073249331408" lon="9.938694079391626"><ele>390.0</ele><time>2026-05-02T06:45:30Z</time></trkpt><trkpt lat="44.770820630663714" lon="9.938728755285778"><ele>390.0</ele><time>2026-05-02T06:45:33Z</time></trkpt><trkpt lat="44.77090645542135" lon="9.938735535946027"><ele>390.0</ele><time>2026-05-02T06:45:36.999Z</time></trkpt><trkpt lat="44.770991915275964" lon="9.938721299386676"><ele>390.0</ele><time>2026-05-02T06:45:39.999Z</time></trkpt><trkpt lat="44.771071107187204" lon="9.938698302697603"><ele>390.0</ele><time>2026-05-02T06:45:42.999Z</time></trkpt><trkpt lat="44.77115612178525" lon="9.93867065033332"><ele>390.0</ele><time>2026-05-02T06:45:45.999Z</time></trkpt><trkpt lat="44.7712335498631" lon="9.93864799052788"><ele>390.0</ele><time>2026-05-02T06:45:48.999Z</time></trkpt><trkpt lat="44.771305296038676" lon="9.938622266132624"><ele>390.1666666666667</ele><time>2026-05-02T06:45:51.999Z</time></trkpt><trkpt lat="44.771382040675036" lon="9.93861447352073"><ele>390.33333333333337</ele><time>2026-05-02T06:45:54.999Z</time></trkpt><trkpt lat="44.771470811277666" lon="9.938634913195227"><ele>390.5</ele><time>2026-05-02T06:45:58.999Z</time></trkpt><trkpt lat="44.771533783154894" lon="9.93867383715648"><ele>390.6666666666667</ele><time>2026-05-02T06:46:01.999Z</time></trkpt><trkpt lat="44.771588321173695" lon="9.938740358088733"><ele>390.83333333333337</ele><time>2026-05-02T06:46:04.999Z</time></trkpt><trkpt lat="44.77163686300836" lon="9.938812443802089"><ele>391.0</ele><time>2026-05-02T06:46:07.999Z</time></trkpt><trkpt lat="44.7716773734902" lon="9.938895889379369"><ele>391.00000000000006</ele><time>2026-05-02T06:46:10.999Z</time></trkpt><trkpt lat="44.77171828430864" lon="9.938999465796785"><ele>391.0</ele><time>2026-05-02T06:46:13.999Z</time></trkpt><trkpt lat="44.7717374241708" lon="9.93911023667964"><ele>391.0</ele><time>2026-05-02T06:46:17.999Z</time></trkpt><trkpt lat="44.7717384913099" lon="9.939207237246205"><ele>391.0</ele><time>2026-05-02T06:46:20.999Z</time></trkpt><trkpt lat="44.771727443848576" lon="9.939304228194677"><ele>391.00000000000006</ele><time>2026-05-02T06:46:23.999Z</time></trkpt><trkpt lat="44.77170867318827" lon="9.939397029157682"><ele>391.0</ele><time>2026-05-02T06:46:26.999Z</time></trkpt><trkpt lat="44.771671633666315" lon="9.939495518415178"><ele>389.1428571428571</ele><time>2026-05-02T06:46:29.998Z</time></trkpt><trkpt lat="44.77162126431176" lon="9.939573328622624"><ele>387.2857142857143</ele><time>2026-05-02T06:46:33.998Z</time></trkpt><trkpt lat="44.77156099454657" lon="9.939622998399209"><ele>385.42857142857144</ele><time>2026-05-02T06:46:36.998Z</time></trkpt><trkpt lat="44.77149118972338" lon="9.939671821763973"><ele>383.57142857142856</ele><time>2026-05-02T06:46:39.998Z</time></trkpt><trkpt lat="44.77142452412109" lon="9.939706576038171"><ele>381.7142857142857</ele><time>2026-05-02T06:46:43.998Z</time></trkpt><trkpt lat="44.771363011845715" lon="9.939743343778929"><ele>379.85714285714283</ele><time>2026-05-02T06:46:46.998Z</time></trkpt><trkpt lat="44.77128491914083" lon="9.939781938692013"><ele>378.0</ele><time>2026-05-02T06:46:49.998Z</time></trkpt><trkpt lat="44.77122463536988" lon="9.939825697659854"><ele>378.0</ele><time>2026-05-02T06:46:52.998Z</time></trkpt><trkpt lat="44.7711664167765" lon="9.939870162394149"><ele>378.0</ele><time>2026-05-02T06:46:56Z</time></trkpt><trkpt lat="44.771102988172814" lon="9.93991442486734"><ele>378.0</ele><time>2026-05-02T06:46:59Z</time></trkpt><trkpt lat="44.77103799607288" lon="9.939967000156184"><ele>378.0</ele><time>2026-05-02T06:47:02Z</time></trkpt><trkpt lat="44.77097437025029" lon="9.940023191429207"><ele>378.0</ele><time>2026-05-02T06:47:05Z</time></trkpt><trkpt lat="44.77090757275975" lon="9.940079068026675"><ele>378.0</ele><time>2026-05-02T06:47:08Z</time></trkpt><trkpt lat="44.77083999909249" lon="9.940138116942519"><ele>378.0</ele><time>2026-05-02T06:47:11Z</time></trkpt><trkpt lat="44.770772847376634" lon="9.940170574958655"><ele>380.14285714285717</ele><time>2026-05-02T06:47:14Z</time></trkpt><trkpt lat="44.770715516685826" lon="9.940208557052607"><ele>382.2857142857143</ele><time>2026-05-02T06:47:17Z</time></trkpt><trkpt lat="44.770656198755304" lon="9.940246096270652"><ele>384.42857142857144</ele><time>2026-05-02T06:47:20Z</time></trkpt><trkpt lat="44.77058889183993" lon="9.940273995184947"><ele>386.57142857142856</ele><time>2026-05-02T06:47:23Z</time></trkpt><trkpt lat="44.770521718595916" lon="9.940298806375822"><ele>388.7142857142857</ele><time>2026-05-02T06:47:26Z</time></trkpt><trkpt lat="44.770453713035366" lon="9.940337909509934"><ele>390.8571428571429</ele><time>2026-05-02T06:47:29Z</time></trkpt><trkpt lat="44.770383857867095" lon="9.940370643174202"><ele>393.0</ele><time>2026-05-02T06:47:32Z</time></trkpt><trkpt lat="44.770321426204426" lon="9.940420537931313"><ele>393.00000000000006</ele><time>2026-05-02T06:47:35Z</time></trkpt><trkpt lat="44.77025869505961" lon="9.940486209990743"><ele>393.0</ele><time>2026-05-02T06:47:38Z</time></trkpt><trkpt lat="44.770214721904" lon="9.940555969600519"><ele>393.0</ele><time>2026-05-02T06:47:39.999Z</time></trkpt><trkpt lat="44.77016939033689" lon="9.940647433203601"><ele>393.0</ele><time>2026-05-02T06:47:42.999Z</time></trkpt><trkpt lat="44.770134875579316" lon="9.940727949737962"><ele>393.0</ele><time>2026-05-02T06:47:45.999Z</time></trkpt><trkpt lat="44.770102903854216" lon="9.940819898990991"><ele>393.00000000000006</ele><time>2026-05-02T06:47:47.999Z</time></trkpt><trkpt lat="44.770074213761625" lon="9.940901602296242"><ele>393.0</ele><time>2026-05-02T06:47:50.999Z</time></trkpt><trkpt lat="44.770044071596836" lon="9.940989699687664"><ele>395.7142857142857</ele><time>2026-05-02T06:47:52.999Z</time></trkpt><trkpt lat="44.770009211711226" lon="9.941079786407467"><ele>398.42857142857144</ele><time>2026-05-02T06:47:55.999Z</time></trkpt><trkpt lat="44.76997425102882" lon="9.941164841471611"><ele>401.1428571428571</ele><time>2026-05-02T06:47:58.999Z</time></trkpt><trkpt lat="44.769939787686916" lon="9.941248988205414"><ele>403.8571428571429</ele><time>2026-05-02T06:48:01.999Z</time></trkpt><trkpt lat="44.76989737282312" lon="9.941332313653227"><ele>406.57142857142856</ele><time>2026-05-02T06:48:04.999Z</time></trkpt><trkpt lat="44.76984497137273" lon="9.941405895287543"><ele>409.2857142857143</ele><time>2026-05-02T06:48:07.999Z</time></trkpt><trkpt lat="44.769786883741844" lon="9.94147617942627"><ele>412.0</ele><time>2026-05-02T06:48:10.999Z</time></trkpt><trkpt lat="44.7697260029816" lon="9.941545546067177"><ele>411.99999999999994</ele><time>2026-05-02T06:48:13.999Z</time></trkpt><trkpt lat="44.76966236593361" lon="9.9416047594806"><ele>412.0</ele><time>2026-05-02T06:48:16.999Z</time></trkpt><trkpt lat="44.76959933173371" lon="9.941650073849694"><ele>412.0</ele><time>2026-05-02T06:48:19.999Z</time></trkpt><trkpt lat="44.769535756966555" lon="9.941686678608141"><ele>412.0</ele><time>2026-05-02T06:48:21.999Z</time></trkpt><trkpt lat="44.76947304365528" lon="9.941712310396387"><ele>412.0</ele><time>2026-05-02T06:48:24.999Z</time></trkpt><trkpt lat="44.769399852531606" lon="9.941724679030964"><ele>411.99999999999994</ele><time>2026-05-02T06:48:27.999Z</time></trkpt><trkpt lat="44.769329898987195" lon="9.941732745239804"><ele>412.0</ele><time>2026-05-02T06:48:30.999Z</time></trkpt><trkpt lat="44.76925155945709" lon="9.941732133424344"><ele>412.4285714285714</ele><time>2026-05-02T06:48:33.999Z</time></trkpt><trkpt lat="44.76917999457843" lon="9.941714469629204"><ele>412.85714285714283</ele><time>2026-05-02T06:48:36.998Z</time></trkpt><trkpt lat="44.76911118036627" lon="9.941689936089595"><ele>413.2857142857143</ele><time>2026-05-02T06:48:39.998Z</time></trkpt><trkpt lat="44.769037793922145" lon="9.941660022921717"><ele>413.71428571428567</ele><time>2026-05-02T06:48:42.998Z</time></trkpt><trkpt lat="44.76896676968928" lon="9.941628649338739"><ele>414.14285714285717</ele><time>2026-05-02T06:48:45.998Z</time></trkpt><trkpt lat="44.76889120590947" lon="9.94159163970069"><ele>414.57142857142856</ele><time>2026-05-02T06:48:48.998Z</time></trkpt><trkpt lat="44.76883283639965" lon="9.941551659792951"><ele>415.0</ele><time>2026-05-02T06:48:51.998Z</time></trkpt><trkpt lat="44.7687705252695" lon="9.941500970290518"><ele>415.00000000000006</ele><time>2026-05-02T06:48:54.998Z</time></trkpt><trkpt lat="44.768720143611404" lon="9.941442636839888"><ele>415.0</ele><time>2026-05-02T06:48:57.998Z</time></trkpt><trkpt lat="44.76866917852759" lon="9.941362279736225"><ele>415.0</ele><time>2026-05-02T06:49:01Z</time></trkpt><trkpt lat="44.76863220661357" lon="9.941268260031235"><ele>415.0</ele><time>2026-05-02T06:49:04Z</time></trkpt><trkpt lat="44.7685942403185" lon="9.941149706075576"><ele>415.00000000000006</ele><time>2026-05-02T06:49:07Z</time></trkpt><trkpt lat="44.76858197583295" lon="9.941048177630174"><ele>415.0</ele><time>2026-05-02T06:49:10Z</time></trkpt><trkpt lat="44.76856340534239" lon="9.940952770642635"><ele>413.6666666666667</ele><time>2026-05-02T06:49:13Z</time></trkpt><trkpt lat="44.76853233437203" lon="9.94086034421554"><ele>412.33333333333337</ele><time>2026-05-02T06:49:16Z</time></trkpt><trkpt lat="44.76849712529431" lon="9.940759232705503"><ele>411.0</ele><time>2026-05-02T06:49:19Z</time></trkpt><trkpt lat="44.76845051971077" lon="9.940673698874315"><ele>409.66666666666663</ele><time>2026-05-02T06:49:22Z</time></trkpt><trkpt lat="44.76840052419405" lon="9.940600810392766"><ele>408.3333333333333</ele><time>2026-05-02T06:49:25Z</time></trkpt><trkpt lat="44.768335647632306" lon="9.940536744442122"><ele>407.0</ele><time>2026-05-02T06:49:28Z</time></trkpt><trkpt lat="44.76827386069805" lon="9.940482252080635"><ele>409.5714285714286</ele><time>2026-05-02T06:49:31Z</time></trkpt><trkpt lat="44.76819786060243" lon="9.94042900992126"><ele>412.14285714285717</ele><time>2026-05-02T06:49:34Z</time></trkpt><trkpt lat="44.76813336820946" lon="9.940394486881537"><ele>414.7142857142857</ele><time>2026-05-02T06:49:37Z</time></trkpt><trkpt lat="44.76806801912166" lon="9.940363737533154"><ele>417.28571428571433</ele><time>2026-05-02T06:49:39Z</time></trkpt><trkpt lat="44.76799157904754" lon="9.940335542391194"><ele>419.85714285714283</ele><time>2026-05-02T06:49:42Z</time></trkpt><trkpt lat="44.76792566009185" lon="9.940319640460814"><ele>422.42857142857144</ele><time>2026-05-02T06:49:44.999Z</time></trkpt><trkpt lat="44.767862224646734" lon="9.940304741799956"><ele>425.0</ele><time>2026-05-02T06:49:46.999Z</time></trkpt><trkpt lat="44.76778698203987" lon="9.940300479011976"><ele>424.99999999999994</ele><time>2026-05-02T06:49:49.999Z</time></trkpt><trkpt lat="44.767714186347966" lon="9.940306928929749"><ele>425.0</ele><time>2026-05-02T06:49:52.999Z</time></trkpt><trkpt lat="44.76763491401472" lon="9.940321628930766"><ele>425.0</ele><time>2026-05-02T06:49:55.999Z</time></trkpt><trkpt lat="44.767557309778496" lon="9.940337217869047"><ele>425.0</ele><time>2026-05-02T06:49:58.999Z</time></trkpt><trkpt lat="44.76747481404521" lon="9.940352871909608"><ele>424.99999999999994</ele><time>2026-05-02T06:50:01.999Z</time></trkpt><trkpt lat="44.76739421927559" lon="9.940367960324235"><ele>425.0</ele><time>2026-05-02T06:50:04.999Z</time></trkpt><trkpt lat="44.76731344078301" lon="9.9403823466904"><ele>425.66666666666663</ele><time>2026-05-02T06:50:07.999Z</time></trkpt><trkpt lat="44.76724895475876" lon="9.940396833895665"><ele>426.3333333333333</ele><time>2026-05-02T06:50:10.999Z</time></trkpt><trkpt lat="44.767176085316855" lon="9.94041114026351"><ele>427.0</ele><time>2026-05-02T06:50:13.999Z</time></trkpt><trkpt lat="44.76709716904063" lon="9.940423389370448"><ele>427.66666666666663</ele><time>2026-05-02T06:50:16.999Z</time></trkpt><trkpt lat="44.767023317504666" lon="9.940440713061777"><ele>428.3333333333333</ele><time>2026-05-02T06:50:19.999Z</time></trkpt><trkpt lat="44.7669354190086" lon="9.940465253487998"><ele>429.0</ele><time>2026-05-02T06:50:22.999Z</time></trkpt><trkpt lat="44.76684389827133" lon="9.940484387823759"><ele>429.5</ele><time>2026-05-02T06:50:25.999Z</time></trkpt><trkpt lat="44.766767137866346" lon="9.940503650300396"><ele>430.0</ele><time>2026-05-02T06:50:28.999Z</time></trkpt><trkpt lat="44.76669365258768" lon="9.9405303067549"><ele>430.5</ele><time>2026-05-02T06:50:31.999Z</time></trkpt><trkpt lat="44.76661749878829" lon="9.940554705749921"><ele>431.0</ele><time>2026-05-02T06:50:34.999Z</time></trkpt><trkpt lat="44.76654180433138" lon="9.940572937919613"><ele>431.5</ele><time>2026-05-02T06:50:37.999Z</time></trkpt><trkpt lat="44.766470980752615" lon="9.94061403765928"><ele>432.0</ele><time>2026-05-02T06:50:40.998Z</time></trkpt><trkpt lat="44.76639779310833" lon="9.940646500411116"><ele>432.0</ele><time>2026-05-02T06:50:43.998Z</time></trkpt><trkpt lat="44.766323926407644" lon="9.940682175715809"><ele>432.0</ele><time>2026-05-02T06:50:46.998Z</time></trkpt><trkpt lat="44.76625237589674" lon="9.940717879383152"><ele>432.0</ele><time>2026-05-02T06:50:49.998Z</time></trkpt><trkpt lat="44.76618025095548" lon="9.940750733309457"><ele>432.0</ele><time>2026-05-02T06:50:52.998Z</time></trkpt><trkpt lat="44.766109729295174" lon="9.94077930128285"><ele>432.0</ele><time>2026-05-02T06:50:55.998Z</time></trkpt><trkpt lat="44.76604870410561" lon="9.940804187153764"><ele>432.0</ele><time>2026-05-02T06:50:58.998Z</time></trkpt><trkpt lat="44.765979054609744" lon="9.940832597000353"><ele>432.0</ele><time>2026-05-02T06:51:01.998Z</time></trkpt><trkpt lat="44.76591100547048" lon="9.940860058192856"><ele>432.0</ele><time>2026-05-02T06:51:04.998Z</time></trkpt><trkpt lat="44.765841126632125" lon="9.94089036654156"><ele>432.0</ele><time>2026-05-02T06:51:08Z</time></trkpt><trkpt lat="44.76576597867478" lon="9.940923524559112"><ele>432.0</ele><time>2026-05-02T06:51:11Z</time></trkpt><trkpt lat="44.7656929889483" lon="9.94096492026002"><ele>432.0</ele><time>2026-05-02T06:51:14Z</time></trkpt><trkpt lat="44.76562184012646" lon="9.94100438089085"><ele>432.0</ele><time>2026-05-02T06:51:17Z</time></trkpt><trkpt lat="44.765557873270446" lon="9.94105291455206"><ele>432.0</ele><time>2026-05-02T06:51:20Z</time></trkpt><trkpt lat="44.765495077246236" lon="9.941098327442472"><ele>432.0</ele><time>2026-05-02T06:51:23Z</time></trkpt><trkpt lat="44.7654322794152" lon="9.941140692476138"><ele>432.0</ele><time>2026-05-02T06:51:26Z</time></trkpt><trkpt lat="44.76537486570343" lon="9.941179998488103"><ele>432.0</ele><time>2026-05-02T06:51:28Z</time></trkpt><trkpt lat="44.765303877362555" lon="9.941233619667987"><ele>432.0</ele><time>2026-05-02T06:51:32Z</time></trkpt><trkpt lat="44.76523952231906" lon="9.94127947086754"><ele>432.0</ele><time>2026-05-02T06:51:35Z</time></trkpt><trkpt lat="44.76517079493573" lon="9.941325620939482"><ele>432.0</ele><time>2026-05-02T06:51:38Z</time></trkpt><trkpt lat="44.76510699925389" lon="9.941376320688075"><ele>432.0</ele><time>2026-05-02T06:51:41Z</time></trkpt><trkpt lat="44.76504362803031" lon="9.941427502218044"><ele>432.85714285714283</ele><time>2026-05-02T06:51:44Z</time></trkpt><trkpt lat="44.76498666278611" lon="9.94147055312269"><ele>433.71428571428567</ele><time>2026-05-02T06:51:47Z</time></trkpt><trkpt lat="44.76493048301811" lon="9.941514576823234"><ele>434.57142857142856</ele><time>2026-05-02T06:51:49.999Z</time></trkpt><trkpt lat="44.76487461641651" lon="9.941560494400338"><ele>435.42857142857144</ele><time>2026-05-02T06:51:52.999Z</time></trkpt><trkpt lat="44.76480283830875" lon="9.941613986943485"><ele>436.2857142857143</ele><time>2026-05-02T06:51:55.999Z</time></trkpt><trkpt lat="44.76474536542373" lon="9.941658830854948"><ele>437.14285714285717</ele><time>2026-05-02T06:51:58.999Z</time></trkpt><trkpt lat="44.76468608259202" lon="9.941700798423591"><ele>438.0</ele><time>2026-05-02T06:52:01.999Z</time></trkpt><trkpt lat="44.764622836328336" lon="9.941743501366687"><ele>438.0</ele><time>2026-05-02T06:52:04.999Z</time></trkpt><trkpt lat="44.764567019967245" lon="9.941787475682537"><ele>438.0</ele><time>2026-05-02T06:52:07.999Z</time></trkpt><trkpt lat="44.76450979130144" lon="9.941829707716508"><ele>438.0</ele><time>2026-05-02T06:52:10.999Z</time></trkpt><trkpt lat="44.76445427510375" lon="9.941875958745158"><ele>438.0</ele><time>2026-05-02T06:52:13.999Z</time></trkpt><trkpt lat="44.764381499475306" lon="9.941929470243354"><ele>438.0</ele><time>2026-05-02T06:52:17.999Z</time></trkpt><trkpt lat="44.764312789282506" lon="9.94198223520291"><ele>438.0</ele><time>2026-05-02T06:52:21.999Z</time></trkpt><trkpt lat="44.76425329567014" lon="9.942027896699937"><ele>438.0</ele><time>2026-05-02T06:52:24.999Z</time></trkpt><trkpt lat="44.76418888973482" lon="9.942078244809435"><ele>440.8333333333333</ele><time>2026-05-02T06:52:28.999Z</time></trkpt><trkpt lat="44.76413128069972" lon="9.942131339331768"><ele>443.66666666666663</ele><time>2026-05-02T06:52:31.999Z</time></trkpt><trkpt lat="44.764073582081195" lon="9.942178271541637"><ele>446.5</ele><time>2026-05-02T06:52:34.999Z</time></trkpt><trkpt lat="44.76400292625783" lon="9.9422442690238"><ele>449.3333333333333</ele><time>2026-05-02T06:52:38.999Z</time></trkpt><trkpt lat="44.76393961794686" lon="9.94231476586666"><ele>452.16666666666663</ele><time>2026-05-02T06:52:42.998Z</time></trkpt><trkpt lat="44.76386501422404" lon="9.94238164831854"><ele>455.0</ele><time>2026-05-02T06:52:46.998Z</time></trkpt><trkpt lat="44.763794057441714" lon="9.942457759696518"><ele>455.0</ele><time>2026-05-02T06:52:50.998Z</time></trkpt><trkpt lat="44.763732411788915" lon="9.942513536517254"><ele>455.0</ele><time>2026-05-02T06:52:54.998Z</time></trkpt><trkpt lat="44.76367457888331" lon="9.942559334464221"><ele>455.0</ele><time>2026-05-02T06:52:57.998Z</time></trkpt><trkpt lat="44.76361612071423" lon="9.94259226059559"><ele>455.0</ele><time>2026-05-02T06:53:00.998Z</time></trkpt><trkpt lat="44.76355629267041" lon="9.942629898020042"><ele>455.0</ele><time>2026-05-02T06:53:03.998Z</time></trkpt><trkpt lat="44.76347158784328" lon="9.942659638771074"><ele>455.0</ele><time>2026-05-02T06:53:07.998Z</time></trkpt><trkpt lat="44.76340835482106" lon="9.942682597472222"><ele>455.0</ele><time>2026-05-02T06:53:10.998Z</time></trkpt><trkpt lat="44.76334449819697" lon="9.942707905406241"><ele>456.49999999999994</ele><time>2026-05-02T06:53:14Z</time></trkpt><trkpt lat="44.763282319905635" lon="9.942723199802032"><ele>458.0</ele><time>2026-05-02T06:53:17Z</time></trkpt><trkpt lat="44.76319582964358" lon="9.942710657028627"><ele>459.5</ele><time>2026-05-02T06:53:21Z</time></trkpt><trkpt lat="44.76315935438769" lon="9.942631994613539"><ele>461.0</ele><time>2026-05-02T06:53:25Z</time></trkpt><trkpt lat="44.763163490733675" lon="9.942510071345403"><ele>462.49999999999994</ele><time>2026-05-02T06:53:29Z</time></trkpt><trkpt lat="44.763193346580394" lon="9.942402024303318"><ele>464.0</ele><time>2026-05-02T06:53:33Z</time></trkpt><trkpt lat="44.763222249881984" lon="9.942313887979655"><ele>464.28571428571433</ele><time>2026-05-02T06:53:36Z</time></trkpt><trkpt lat="44.76325720122491" lon="9.942229783460293"><ele>464.57142857142856</ele><time>2026-05-02T06:53:39Z</time></trkpt><trkpt lat="44.763293126922335" lon="9.942131209209158"><ele>464.8571428571429</ele><time>2026-05-02T06:53:43Z</time></trkpt><trkpt lat="44.763326454577715" lon="9.942049291112777"><ele>465.14285714285717</ele><time>2026-05-02T06:53:46Z</time></trkpt><trkpt lat="44.76337230779821" lon="9.941956202602743"><ele>465.42857142857144</ele><time>2026-05-02T06:53:49Z</time></trkpt><trkpt lat="44.76341562424484" lon="9.941871155615729"><ele>465.7142857142857</ele><time>2026-05-02T06:53:52.999Z</time></trkpt><trkpt lat="44.763456123972595" lon="9.941789786830887"><ele>466.0</ele><time>2026-05-02T06:53:55.999Z</time></trkpt><trkpt lat="44.76349589521882" lon="9.941707550638041"><ele>465.1666666666667</ele><time>2026-05-02T06:53:58.999Z</time></trkpt><trkpt lat="44.76354689647694" lon="9.941616703527632"><ele>464.33333333333337</ele><time>2026-05-02T06:54:01.999Z</time></trkpt><trkpt lat="44.763589654437375" lon="9.941531893988257"><ele>463.5</ele><time>2026-05-02T06:54:05.999Z</time></trkpt><trkpt lat="44.763629941377964" lon="9.941448161390493"><ele>462.66666666666663</ele><time>2026-05-02T06:54:08.999Z</time></trkpt><trkpt lat="44.76367694092915" lon="9.94136522273978"><ele>461.8333333333333</ele><time>2026-05-02T06:54:11.999Z</time></trkpt><trkpt lat="44.763727413868985" lon="9.941279125778253"><ele>461.0</ele><time>2026-05-02T06:54:14.999Z</time></trkpt><trkpt lat="44.76377677565978" lon="9.941181403471514"><ele>460.99999999999994</ele><time>2026-05-02T06:54:17.999Z</time></trkpt><trkpt lat="44.763822230974746" lon="9.941099923482161"><ele>461.0</ele><time>2026-05-02T06:54:20.999Z</time></trkpt><trkpt lat="44.76386879698038" lon="9.94102370502649"><ele>461.0</ele><time>2026-05-02T06:54:23.999Z</time></trkpt><trkpt lat="44.76390703728845" lon="9.940930087986597"><ele>461.0</ele><time>2026-05-02T06:54:27.999Z</time></trkpt><trkpt lat="44.76394178841432" lon="9.940843394049027"><ele>460.99999999999994</ele><time>2026-05-02T06:54:30.999Z</time></trkpt><trkpt lat="44.76397222993946" lon="9.940746101635755"><ele>461.0</ele><time>2026-05-02T06:54:33.999Z</time></trkpt><trkpt lat="44.763998933440845" lon="9.94062711041002"><ele>462.42857142857144</ele><time>2026-05-02T06:54:36.999Z</time></trkpt><trkpt lat="44.76399128067382" lon="9.94053856479727"><ele>463.8571428571429</ele><time>2026-05-02T06:54:39.999Z</time></trkpt><trkpt lat="44.76394263173254" lon="9.940467246024202"><ele>465.28571428571433</ele><time>2026-05-02T06:54:42.999Z</time></trkpt><trkpt lat="44.76387834462401" lon="9.94047161050319"><ele>466.7142857142858</ele><time>2026-05-02T06:54:44.999Z</time></trkpt><trkpt lat="44.7638277367209" lon="9.940531041790729"><ele>468.14285714285717</ele><time>2026-05-02T06:54:47.998Z</time></trkpt><trkpt lat="44.763783299873296" lon="9.940595599033125"><ele>469.57142857142867</ele><time>2026-05-02T06:54:49.998Z</time></trkpt><trkpt lat="44.763741646982865" lon="9.940674446152618"><ele>471.00000000000006</ele><time>2026-05-02T06:54:52.998Z</time></trkpt><trkpt lat="44.763694416662936" lon="9.94074345903848"><ele>471.00000000000006</ele><time>2026-05-02T06:54:55.998Z</time></trkpt><trkpt lat="44.76364387027317" lon="9.940825174399082"><ele>471.0</ele><time>2026-05-02T06:54:58.998Z</time></trkpt><trkpt lat="44.76358544552907" lon="9.94088391318749"><ele>471.00000000000006</ele><time>2026-05-02T06:55:01.998Z</time></trkpt><trkpt lat="44.76351616544132" lon="9.940934550371502"><ele>471.00000000000006</ele><time>2026-05-02T06:55:04.998Z</time></trkpt><trkpt lat="44.763439800646594" lon="9.940982379742001"><ele>471.0</ele><time>2026-05-02T06:55:07.998Z</time></trkpt><trkpt lat="44.76337986938534" lon="9.941015738686351"><ele>471.00000000000006</ele><time>2026-05-02T06:55:10.998Z</time></trkpt><trkpt lat="44.7633183632912" lon="9.941054025759364"><ele>471.00000000000006</ele><time>2026-05-02T06:55:13.998Z</time></trkpt><trkpt lat="44.76324833857646" lon="9.941094037772102"><ele>472.1666666666667</ele><time>2026-05-02T06:55:17Z</time></trkpt><trkpt lat="44.76317987136626" lon="9.94112144198015"><ele>473.33333333333337</ele><time>2026-05-02T06:55:20Z</time></trkpt><trkpt lat="44.76310190816594" lon="9.941135096971426"><ele>474.5</ele><time>2026-05-02T06:55:23Z</time></trkpt><trkpt lat="44.76302839197488" lon="9.941120306801556"><ele>475.6666666666667</ele><time>2026-05-02T06:55:26Z</time></trkpt><trkpt lat="44.76295218594046" lon="9.941090162537543"><ele>476.83333333333337</ele><time>2026-05-02T06:55:29Z</time></trkpt><trkpt lat="44.762866548746246" lon="9.941052583433038"><ele>478.0</ele><time>2026-05-02T06:55:32Z</time></trkpt><trkpt lat="44.76279514074258" lon="9.94101924617638"><ele>478.00000000000006</ele><time>2026-05-02T06:55:35Z</time></trkpt><trkpt lat="44.762720555265844" lon="9.94100718185406"><ele>478.0</ele><time>2026-05-02T06:55:38Z</time></trkpt><trkpt lat="44.76263838247974" lon="9.9410151745261"><ele>478.0</ele><time>2026-05-02T06:55:41Z</time></trkpt><trkpt lat="44.76257530667732" lon="9.941050568793242"><ele>478.0</ele><time>2026-05-02T06:55:43Z</time></trkpt><trkpt lat="44.76251023980063" lon="9.941120294557981"><ele>478.00000000000006</ele><time>2026-05-02T06:55:46Z</time></trkpt><trkpt lat="44.76245851743908" lon="9.941194563509036"><ele>478.0</ele><time>2026-05-02T06:55:49Z</time></trkpt><trkpt lat="44.76240151980971" lon="9.941279554608924"><ele>479.8571428571429</ele><time>2026-05-02T06:55:52Z</time></trkpt><trkpt lat="44.76235496573611" lon="9.941351959405042"><ele>481.7142857142857</ele><time>2026-05-02T06:55:54Z</time></trkpt><trkpt lat="44.76230344021237" lon="9.941427210878233"><ele>483.57142857142856</ele><time>2026-05-02T06:55:57Z</time></trkpt><trkpt lat="44.762251118066544" lon="9.941506864862312"><ele>485.42857142857144</ele><time>2026-05-02T06:55:59.999Z</time></trkpt><trkpt lat="44.76219423888629" lon="9.94156240301986"><ele>487.2857142857142</ele><time>2026-05-02T06:56:02.999Z</time></trkpt><trkpt lat="44.76212948804309" lon="9.941601747634289"><ele>489.1428571428571</ele><time>2026-05-02T06:56:05.999Z</time></trkpt><trkpt lat="44.76205290367526" lon="9.941615558165783"><ele>491.0</ele><time>2026-05-02T06:56:08.999Z</time></trkpt><trkpt lat="44.76197658142662" lon="9.941625661829601"><ele>490.99999999999994</ele><time>2026-05-02T06:56:11.999Z</time></trkpt><trkpt lat="44.76189995478364" lon="9.941620646696082"><ele>491.0</ele><time>2026-05-02T06:56:14.999Z</time></trkpt><trkpt lat="44.761831268271045" lon="9.941609829303973"><ele>491.0</ele><time>2026-05-02T06:56:17.999Z</time></trkpt><trkpt lat="44.76175173869259" lon="9.941611579603055"><ele>491.0</ele><time>2026-05-02T06:56:20.999Z</time></trkpt><trkpt lat="44.761664674954986" lon="9.941624556027811"><ele>490.99999999999994</ele><time>2026-05-02T06:56:23.999Z</time></trkpt><trkpt lat="44.76160157337062" lon="9.941657249714975"><ele>491.0</ele><time>2026-05-02T06:56:26.999Z</time></trkpt><trkpt lat="44.76152364324156" lon="9.941708456548984"><ele>491.66666666666663</ele><time>2026-05-02T06:56:29.999Z</time></trkpt><trkpt lat="44.76146274297715" lon="9.941766234058937"><ele>492.3333333333333</ele><time>2026-05-02T06:56:32.999Z</time></trkpt><trkpt lat="44.76140977306557" lon="9.941815223377208"><ele>493.0</ele><time>2026-05-02T06:56:34.999Z</time></trkpt><trkpt lat="44.7613549526624" lon="9.941881480278475"><ele>493.66666666666663</ele><time>2026-05-02T06:56:37.999Z</time></trkpt><trkpt lat="44.76130139411362" lon="9.941959654667487"><ele>494.3333333333333</ele><time>2026-05-02T06:56:40.999Z</time></trkpt><trkpt lat="44.76123894082213" lon="9.942052016992553"><ele>495.0</ele><time>2026-05-02T06:56:43.999Z</time></trkpt><trkpt lat="44.76119453174036" lon="9.942135576209298"><ele>494.99999999999994</ele><time>2026-05-02T06:56:46.999Z</time></trkpt><trkpt lat="44.76115547342844" lon="9.942208247727905"><ele>495.0</ele><time>2026-05-02T06:56:48.999Z</time></trkpt><trkpt lat="44.761114412104725" lon="9.942290432388962"><ele>494.99999999999994</ele><time>2026-05-02T06:56:51.999Z</time></trkpt><trkpt lat="44.7610620070549" lon="9.942384526141122"><ele>494.99999999999994</ele><time>2026-05-02T06:56:54.998Z</time></trkpt><trkpt lat="44.76101571271638" lon="9.94247376464133"><ele>495.0</ele><time>2026-05-02T06:56:57.998Z</time></trkpt><trkpt lat="44.76097899876158" lon="9.9425639196151"><ele>494.99999999999994</ele><time>2026-05-02T06:57:00.998Z</time></trkpt><trkpt lat="44.76095569188518" lon="9.942659743207702"><ele>494.99999999999994</ele><time>2026-05-02T06:57:03.998Z</time></trkpt><trkpt lat="44.760938536546924" lon="9.942749686822683"><ele>498.3333333333333</ele><time>2026-05-02T06:57:05.998Z</time></trkpt><trkpt lat="44.76093376888507" lon="9.94286583490415"><ele>501.66666666666663</ele><time>2026-05-02T06:57:08.998Z</time></trkpt><trkpt lat="44.76094672896956" lon="9.94296760346427"><ele>505.0</ele><time>2026-05-02T06:57:11.998Z</time></trkpt><trkpt lat="44.7609724134738" lon="9.943073309955297"><ele>508.3333333333333</ele><time>2026-05-02T06:57:14.998Z</time></trkpt><trkpt lat="44.76099591777616" lon="9.943157402644426"><ele>511.66666666666663</ele><time>2026-05-02T06:57:16.998Z</time></trkpt><trkpt lat="44.761021839066935" lon="9.94325327509884"><ele>515.0</ele><time>2026-05-02T06:57:19.998Z</time></trkpt><trkpt lat="44.76103199178248" lon="9.943362511983743"><ele>514.1666666666666</ele><time>2026-05-02T06:57:23Z</time></trkpt><trkpt lat="44.761031482229484" lon="9.943481073518365"><ele>513.3333333333333</ele><time>2026-05-02T06:57:26Z</time></trkpt><trkpt lat="44.76101857700637" lon="9.94358688692022"><ele>512.5</ele><time>2026-05-02T06:57:29Z</time></trkpt><trkpt lat="44.76100455150321" lon="9.94369098462949"><ele>511.66666666666663</ele><time>2026-05-02T06:57:31Z</time></trkpt><trkpt lat="44.76098400053474" lon="9.943812320954747"><ele>510.8333333333333</ele><time>2026-05-02T06:57:34Z</time></trkpt><trkpt lat="44.7609502323662" lon="9.943924038934144"><ele>510.0</ele><time>2026-05-02T06:57:37Z</time></trkpt><trkpt lat="44.76090033958365" lon="9.944015928647573"><ele>510.0</ele><time>2026-05-02T06:57:40Z</time></trkpt><trkpt lat="44.76082091203888" lon="9.944026538855734"><ele>510.0</ele><time>2026-05-02T06:57:43Z</time></trkpt><trkpt lat="44.760765713956935" lon="9.943949846949591"><ele>510.0</ele><time>2026-05-02T06:57:46Z</time></trkpt><trkpt lat="44.76073457892839" lon="9.943849713741034"><ele>510.0</ele><time>2026-05-02T06:57:49Z</time></trkpt><trkpt lat="44.760702983819506" lon="9.943741100753224"><ele>510.0</ele><time>2026-05-02T06:57:52Z</time></trkpt><trkpt lat="44.760665773938" lon="9.943642301779922"><ele>510.0</ele><time>2026-05-02T06:57:55Z</time></trkpt><trkpt lat="44.760645927857325" lon="9.943521940181283"><ele>510.0</ele><time>2026-05-02T06:57:57.999Z</time></trkpt><trkpt lat="44.760630703477005" lon="9.943402424953385"><ele>510.0</ele><time>2026-05-02T06:58:00.999Z</time></trkpt><trkpt lat="44.76060140153635" lon="9.94329339570111"><ele>510.0</ele><time>2026-05-02T06:58:03.999Z</time></trkpt><trkpt lat="44.76056930849169" lon="9.94318604414283"><ele>510.0</ele><time>2026-05-02T06:58:06.999Z</time></trkpt><trkpt lat="44.76052941982634" lon="9.94307868677299"><ele>510.0</ele><time>2026-05-02T06:58:09.999Z</time></trkpt><trkpt lat="44.7604879354883" lon="9.942976201589389"><ele>510.0</ele><time>2026-05-02T06:58:12.999Z</time></trkpt><trkpt lat="44.76043733219868" lon="9.942879749268558"><ele>510.5</ele><time>2026-05-02T06:58:15.999Z</time></trkpt><trkpt lat="44.760387557608176" lon="9.942778501336036"><ele>511.0</ele><time>2026-05-02T06:58:18.999Z</time></trkpt><trkpt lat="44.76033969426426" lon="9.94267417456685"><ele>511.5</ele><time>2026-05-02T06:58:21.999Z</time></trkpt><trkpt lat="44.76030938863306" lon="9.942558876142275"><ele>512.0</ele><time>2026-05-02T06:58:24.999Z</time></trkpt><trkpt lat="44.76030556892042" lon="9.942428337312752"><ele>512.5</ele><time>2026-05-02T06:58:27.999Z</time></trkpt><trkpt lat="44.760321677816734" lon="9.942300104828941"><ele>513.0</ele><time>2026-05-02T06:58:30.999Z</time></trkpt><trkpt lat="44.76034096371665" lon="9.94218900669008"><ele>513.0</ele><time>2026-05-02T06:58:33.999Z</time></trkpt><trkpt lat="44.760359299491185" lon="9.942070892921247"><ele>513.0</ele><time>2026-05-02T06:58:36.999Z</time></trkpt><trkpt lat="44.76037935050408" lon="9.94195647337243"><ele>513.0</ele><time>2026-05-02T06:58:39.999Z</time></trkpt><trkpt lat="44.760402553785724" lon="9.941811001839325"><ele>513.0</ele><time>2026-05-02T06:58:42.999Z</time></trkpt><trkpt lat="44.76041968058284" lon="9.941719619538988"><ele>513.0</ele><time>2026-05-02T06:58:45.999Z</time></trkpt><trkpt lat="44.76043872832725" lon="9.9415943511146"><ele>513.0</ele><time>2026-05-02T06:58:48.998Z</time></trkpt><trkpt lat="44.76045271287481" lon="9.941487264670295"><ele>513.3333333333334</ele><time>2026-05-02T06:58:51.998Z</time></trkpt><trkpt lat="44.760474322352394" lon="9.94139101932365"><ele>513.6666666666666</ele><time>2026-05-02T06:58:53.998Z</time></trkpt><trkpt lat="44.76050769658816" lon="9.941272993313666"><ele>514.0</ele><time>2026-05-02T06:58:56.998Z</time></trkpt><trkpt lat="44.76053743370713" lon="9.941172412537565"><ele>514.3333333333333</ele><time>2026-05-02T06:58:59.998Z</time></trkpt><trkpt lat="44.760570175482506" lon="9.941080158307914"><ele>514.6666666666666</ele><time>2026-05-02T06:59:02.998Z</time></trkpt><trkpt lat="44.76060730673445" lon="9.940991624203425"><ele>515.0</ele><time>2026-05-02T06:59:05.998Z</time></trkpt><trkpt lat="44.76066510653501" lon="9.940881262447137"><ele>516.5714285714286</ele><time>2026-05-02T06:59:09.998Z</time></trkpt><trkpt lat="44.760711968298125" lon="9.940809727821897"><ele>518.1428571428571</ele><time>2026-05-02T06:59:12.998Z</time></trkpt><trkpt lat="44.76075680915121" lon="9.94074172575674"><ele>519.7142857142857</ele><time>2026-05-02T06:59:15.998Z</time></trkpt><trkpt lat="44.760802772507986" lon="9.940679725322525"><ele>521.2857142857142</ele><time>2026-05-02T06:59:18.998Z</time></trkpt><trkpt lat="44.76085179058473" lon="9.940609782065765"><ele>522.8571428571428</ele><time>2026-05-02T06:59:21.998Z</time></trkpt><trkpt lat="44.76089819651474" lon="9.94053551769698"><ele>524.4285714285714</ele><time>2026-05-02T06:59:24.998Z</time></trkpt><trkpt lat="44.76095350414114" lon="9.940458154596138"><ele>526.0</ele><time>2026-05-02T06:59:27.998Z</time></trkpt><trkpt lat="44.761007070705304" lon="9.940373072752797"><ele>526.0</ele><time>2026-05-02T06:59:31Z</time></trkpt><trkpt lat="44.76104231054682" lon="9.940258017724531"><ele>526.0</ele><time>2026-05-02T06:59:34Z</time></trkpt><trkpt lat="44.76102429727747" lon="9.940147136199352"><ele>526.0</ele><time>2026-05-02T06:59:38Z</time></trkpt><trkpt lat="44.760964987992736" lon="9.940068916068908"><ele>526.0</ele><time>2026-05-02T06:59:41Z</time></trkpt><trkpt lat="44.76088436708082" lon="9.940051155880537"><ele>526.0</ele><time>2026-05-02T06:59:44Z</time></trkpt><trkpt lat="44.76080857396587" lon="9.940076579622735"><ele>526.0</ele><time>2026-05-02T06:59:47Z</time></trkpt><trkpt lat="44.760722573651094" lon="9.940113298620947"><ele>526.0</ele><time>2026-05-02T06:59:50Z</time></trkpt><trkpt lat="44.76065671316186" lon="9.940143683251387"><ele>526.0</ele><time>2026-05-02T06:59:53Z</time></trkpt><trkpt lat="44.760595185838014" lon="9.94017111585418"><ele>526.0</ele><time>2026-05-02T06:59:56Z</time></trkpt><trkpt lat="44.760522887594746" lon="9.94019454490735"><ele>526.0</ele><time>2026-05-02T06:59:59Z</time></trkpt><trkpt lat="44.76046082186665" lon="9.940215589455866"><ele>526.0</ele><time>2026-05-02T07:00:01Z</time></trkpt><trkpt lat="44.76039457846415" lon="9.940237334692867"><ele>526.0</ele><time>2026-05-02T07:00:04Z</time></trkpt><trkpt lat="44.76033060371091" lon="9.94025845148042"><ele>526.0</ele><time>2026-05-02T07:00:06Z</time></trkpt><trkpt lat="44.760263474440464" lon="9.94028723138832"><ele>528.0</ele><time>2026-05-02T07:00:08.999Z</time></trkpt><trkpt lat="44.76019139176752" lon="9.940334545516968"><ele>530.0</ele><time>2026-05-02T07:00:11.999Z</time></trkpt><trkpt lat="44.76013403361501" lon="9.940387515372702"><ele>532.0</ele><time>2026-05-02T07:00:14.999Z</time></trkpt><trkpt lat="44.76008376389084" lon="9.940451159960702"><ele>534.0</ele><time>2026-05-02T07:00:16.999Z</time></trkpt><trkpt lat="44.76003125059485" lon="9.940527503524162"><ele>536.0</ele><time>2026-05-02T07:00:19.999Z</time></trkpt><trkpt lat="44.759982214943996" lon="9.940602820769492"><ele>538.0</ele><time>2026-05-02T07:00:22.999Z</time></trkpt><trkpt lat="44.75992717203074" lon="9.940689231878494"><ele>540.0</ele><time>2026-05-02T07:00:25.999Z</time></trkpt><trkpt lat="44.75987169088831" lon="9.940775849369532"><ele>540.0</ele><time>2026-05-02T07:00:28.999Z</time></trkpt><trkpt lat="44.75980830862459" lon="9.940879474569334"><ele>540.0</ele><time>2026-05-02T07:00:31.999Z</time></trkpt><trkpt lat="44.75975662218188" lon="9.940957619274739"><ele>540.0</ele><time>2026-05-02T07:00:34.999Z</time></trkpt><trkpt lat="44.759704319415604" lon="9.941037928370195"><ele>540.0</ele><time>2026-05-02T07:00:37.999Z</time></trkpt><trkpt lat="44.75965273152783" lon="9.941122843391561"><ele>540.0</ele><time>2026-05-02T07:00:40.999Z</time></trkpt><trkpt lat="44.75960794188466" lon="9.941212106770053"><ele>540.0</ele><time>2026-05-02T07:00:43.999Z</time></trkpt><trkpt lat="44.75956414500727" lon="9.941298580204627"><ele>538.6666666666666</ele><time>2026-05-02T07:00:46.999Z</time></trkpt><trkpt lat="44.75951483970727" lon="9.94138763504219"><ele>537.3333333333334</ele><time>2026-05-02T07:00:49.999Z</time></trkpt><trkpt lat="44.759474550631914" lon="9.941480000487472"><ele>536.0</ele><time>2026-05-02T07:00:52.999Z</time></trkpt><trkpt lat="44.75942232163022" lon="9.941568585647426"><ele>534.6666666666667</ele><time>2026-05-02T07:00:55.999Z</time></trkpt><trkpt lat="44.75937644599462" lon="9.941662303953661"><ele>533.3333333333334</ele><time>2026-05-02T07:00:58.999Z</time></trkpt><trkpt lat="44.759328747127306" lon="9.94176980476564"><ele>532.0</ele><time>2026-05-02T07:01:01.998Z</time></trkpt><trkpt lat="44.75928368707104" lon="9.941854642634834"><ele>534.2857142857143</ele><time>2026-05-02T07:01:04.998Z</time></trkpt><trkpt lat="44.75924669456337" lon="9.94194111214455"><ele>536.5714285714286</ele><time>2026-05-02T07:01:07.998Z</time></trkpt><trkpt lat="44.759206108448936" lon="9.942029735496135"><ele>538.8571428571429</ele><time>2026-05-02T07:01:10.998Z</time></trkpt><trkpt lat="44.7591683893853" lon="9.942120157193783"><ele>541.1428571428571</ele><time>2026-05-02T07:01:13.998Z</time></trkpt><trkpt lat="44.75912989106768" lon="9.942215323990073"><ele>543.4285714285714</ele><time>2026-05-02T07:01:16.998Z</time></trkpt><trkpt lat="44.7591077283625" lon="9.942302981806433"><ele>545.7142857142858</ele><time>2026-05-02T07:01:18.998Z</time></trkpt><trkpt lat="44.75909064193318" lon="9.942413233917327"><ele>548.0</ele><time>2026-05-02T07:01:21.998Z</time></trkpt><trkpt lat="44.759080476577594" lon="9.942526085694332"><ele>547.5</ele><time>2026-05-02T07:01:24.998Z</time></trkpt><trkpt lat="44.75907834211963" lon="9.942622902963453"><ele>547.0</ele><time>2026-05-02T07:01:27.998Z</time></trkpt><trkpt lat="44.75907453610061" lon="9.942740018594458"><ele>546.5</ele><time>2026-05-02T07:01:30.998Z</time></trkpt><trkpt lat="44.75908486864833" lon="9.942861188679293"><ele>546.0</ele><time>2026-05-02T07:01:33.998Z</time></trkpt><trkpt lat="44.75907811068184" lon="9.942986490804405"><ele>545.5</ele><time>2026-05-02T07:01:37Z</time></trkpt><trkpt lat="44.75901136244758" lon="9.943023628873034"><ele>545.0</ele><time>2026-05-02T07:01:40Z</time></trkpt><trkpt lat="44.75897166623017" lon="9.9429467401169"><ele>545.0</ele><time>2026-05-02T07:01:43Z</time></trkpt><trkpt lat="44.75895943168203" lon="9.942859172394396"><ele>545.0</ele><time>2026-05-02T07:01:46Z</time></trkpt><trkpt lat="44.758943580877826" lon="9.942766621971721"><ele>545.0</ele><time>2026-05-02T07:01:49Z</time></trkpt><trkpt lat="44.7589245847107" lon="9.942668670758684"><ele>545.0</ele><time>2026-05-02T07:01:52Z</time></trkpt><trkpt lat="44.758905620204274" lon="9.942576235297135"><ele>545.0</ele><time>2026-05-02T07:01:55Z</time></trkpt><trkpt lat="44.75890057545405" lon="9.942467092430958"><ele>545.0</ele><time>2026-05-02T07:01:58Z</time></trkpt><trkpt lat="44.758891102787" lon="9.942358823824975"><ele>545.0</ele><time>2026-05-02T07:02:01Z</time></trkpt><trkpt lat="44.75888257843653" lon="9.942256883303441"><ele>545.4285714285714</ele><time>2026-05-02T07:02:04Z</time></trkpt><trkpt lat="44.75888580436923" lon="9.942160516945808"><ele>545.8571428571429</ele><time>2026-05-02T07:02:07Z</time></trkpt><trkpt lat="44.75889121646656" lon="9.942071098441648"><ele>546.2857142857143</ele><time>2026-05-02T07:02:10Z</time></trkpt><trkpt lat="44.758906652362775" lon="9.941973501947528"><ele>546.7142857142858</ele><time>2026-05-02T07:02:12.999Z</time></trkpt><trkpt lat="44.75891521313143" lon="9.94186683398421"><ele>547.1428571428571</ele><time>2026-05-02T07:02:15.999Z</time></trkpt><trkpt lat="44.75893164341418" lon="9.94177023186958"><ele>547.5714285714287</ele><time>2026-05-02T07:02:18.999Z</time></trkpt><trkpt lat="44.758949828542114" lon="9.941675238682247"><ele>548.0</ele><time>2026-05-02T07:02:21.999Z</time></trkpt><trkpt lat="44.75896669972388" lon="9.941581646024892"><ele>549.3333333333333</ele><time>2026-05-02T07:02:24.999Z</time></trkpt><trkpt lat="44.75898445216209" lon="9.941491838087053"><ele>550.6666666666666</ele><time>2026-05-02T07:02:27.999Z</time></trkpt><trkpt lat="44.75900912052705" lon="9.941379038371547"><ele>552.0</ele><time>2026-05-02T07:02:31.999Z</time></trkpt><trkpt lat="44.75903010023892" lon="9.941278677454495"><ele>553.3333333333334</ele><time>2026-05-02T07:02:34.999Z</time></trkpt><trkpt lat="44.75905229359134" lon="9.941157069022845"><ele>554.6666666666667</ele><time>2026-05-02T07:02:37.999Z</time></trkpt><trkpt lat="44.7590653550902" lon="9.94104702303331"><ele>556.0</ele><time>2026-05-02T07:02:41.999Z</time></trkpt><trkpt lat="44.75907304340289" lon="9.940948211537009"><ele>557.2857142857142</ele><time>2026-05-02T07:02:44.999Z</time></trkpt><trkpt lat="44.75907068784301" lon="9.940855958660084"><ele>558.5714285714286</ele><time>2026-05-02T07:02:47.999Z</time></trkpt><trkpt lat="44.759063456156824" lon="9.940758983891543"><ele>559.8571428571429</ele><time>2026-05-02T07:02:50.999Z</time></trkpt><trkpt lat="44.75904865626293" lon="9.940642433896137"><ele>561.1428571428571</ele><time>2026-05-02T07:02:53.999Z</time></trkpt><trkpt lat="44.7590258467818" lon="9.940555453630058"><ele>562.4285714285714</ele><time>2026-05-02T07:02:56.999Z</time></trkpt><trkpt lat="44.75900434848298" lon="9.940462663915259"><ele>563.7142857142857</ele><time>2026-05-02T07:02:59.999Z</time></trkpt><trkpt lat="44.75899381199586" lon="9.940371700269278"><ele>565.0</ele><time>2026-05-02T07:03:02.999Z</time></trkpt><trkpt lat="44.759002717839465" lon="9.94028210607597"><ele>564.9999999999999</ele><time>2026-05-02T07:03:05.998Z</time></trkpt><trkpt lat="44.75903016948756" lon="9.940193167230511"><ele>565.0</ele><time>2026-05-02T07:03:08.998Z</time></trkpt><trkpt lat="44.7590723635256" lon="9.940106173950841"><ele>565.0</ele><time>2026-05-02T07:03:11.998Z</time></trkpt><trkpt lat="44.75910835731725" lon="9.94002248479142"><ele>565.0</ele><time>2026-05-02T07:03:14.998Z</time></trkpt><trkpt lat="44.75915243745344" lon="9.939925013394403"><ele>565.0</ele><time>2026-05-02T07:03:17.998Z</time></trkpt><trkpt lat="44.75917950487892" lon="9.939825497100731"><ele>564.9999999999999</ele><time>2026-05-02T07:03:21.998Z</time></trkpt><trkpt lat="44.75919442871635" lon="9.939725261190652"><ele>565.0</ele><time>2026-05-02T07:03:24.998Z</time></trkpt><trkpt lat="44.75919883707304" lon="9.939620399995464"><ele>565.5714285714286</ele><time>2026-05-02T07:03:27.998Z</time></trkpt><trkpt lat="44.75919350751633" lon="9.939510531895392"><ele>566.1428571428571</ele><time>2026-05-02T07:03:30.998Z</time></trkpt><trkpt lat="44.759177766313364" lon="9.939401927243939"><ele>566.7142857142858</ele><time>2026-05-02T07:03:33.998Z</time></trkpt><trkpt lat="44.75915692371279" lon="9.939315914219366"><ele>567.2857142857142</ele><time>2026-05-02T07:03:36.998Z</time></trkpt><trkpt lat="44.75912928798327" lon="9.939225971603106"><ele>567.8571428571429</ele><time>2026-05-02T07:03:39.998Z</time></trkpt><trkpt lat="44.75909652740213" lon="9.939135090159587"><ele>568.4285714285714</ele><time>2026-05-02T07:03:43Z</time></trkpt><trkpt lat="44.75905117623281" lon="9.939053056886372"><ele>569.0</ele><time>2026-05-02T07:03:46Z</time></trkpt><trkpt lat="44.75899750996514" lon="9.938980685963104"><ele>569.0000000000001</ele><time>2026-05-02T07:03:49Z</time></trkpt><trkpt lat="44.75893903073179" lon="9.938924185776237"><ele>569.0</ele><time>2026-05-02T07:03:52Z</time></trkpt><trkpt lat="44.75887363453365" lon="9.938886413370625"><ele>569.0</ele><time>2026-05-02T07:03:55Z</time></trkpt><trkpt lat="44.758796816242516" lon="9.938864747696467"><ele>569.0</ele><time>2026-05-02T07:03:58Z</time></trkpt><trkpt lat="44.7587161479601" lon="9.938857878437755"><ele>569.0</ele><time>2026-05-02T07:04:01Z</time></trkpt><trkpt lat="44.75864672961567" lon="9.938855464607286"><ele>569.0000000000001</ele><time>2026-05-02T07:04:04Z</time></trkpt><trkpt lat="44.758569080055864" lon="9.93885301636711"><ele>569.0</ele><time>2026-05-02T07:04:08Z</time></trkpt><trkpt lat="44.7585012102891" lon="9.938848067992929"><ele>571.6666666666666</ele><time>2026-05-02T07:04:11Z</time></trkpt><trkpt lat="44.75843002904366" lon="9.938809941183095"><ele>574.3333333333333</ele><time>2026-05-02T07:04:15Z</time></trkpt><trkpt lat="44.758371428179416" lon="9.938750710958264"><ele>577.0</ele><time>2026-05-02T07:04:17.999Z</time></trkpt><trkpt lat="44.75832408362916" lon="9.938653724044146"><ele>579.6666666666666</ele><time>2026-05-02T07:04:20.999Z</time></trkpt><trkpt lat="44.75829918719249" lon="9.938538262212942"><ele>582.3333333333334</ele><time>2026-05-02T07:04:24.999Z</time></trkpt><trkpt lat="44.75828526426134" lon="9.938435102890654"><ele>585.0</ele><time>2026-05-02T07:04:27.999Z</time></trkpt><trkpt lat="44.75826715831923" lon="9.938313646912594"><ele>585.0</ele><time>2026-05-02T07:04:30.999Z</time></trkpt><trkpt lat="44.758251935408325" lon="9.938223884793235"><ele>585.0</ele><time>2026-05-02T07:04:33.999Z</time></trkpt><trkpt lat="44.75822468863527" lon="9.938139707540241"><ele>585.0</ele><time>2026-05-02T07:04:36.999Z</time></trkpt><trkpt lat="44.758184913609036" lon="9.938053521273273"><ele>585.0</ele><time>2026-05-02T07:04:39.999Z</time></trkpt><trkpt lat="44.758133072006665" lon="9.93797516545779"><ele>585.0</ele><time>2026-05-02T07:04:42.999Z</time></trkpt><trkpt lat="44.75808080928018" lon="9.937900328831212"><ele>585.0</ele><time>2026-05-02T07:04:45.999Z</time></trkpt><trkpt lat="44.75803083950115" lon="9.937805853857668"><ele>585.0</ele><time>2026-05-02T07:04:48.999Z</time></trkpt><trkpt lat="44.75799641516962" lon="9.937703632357678"><ele>585.0</ele><time>2026-05-02T07:04:52.999Z</time></trkpt><trkpt lat="44.75796899604231" lon="9.937608654992891"><ele>585.0</ele><time>2026-05-02T07:04:55.999Z</time></trkpt><trkpt lat="44.75795187940389" lon="9.93750817057414"><ele>585.0</ele><time>2026-05-02T07:04:58.999Z</time></trkpt><trkpt lat="44.75794456892178" lon="9.937393168572688"><ele>585.0</ele><time>2026-05-02T07:05:01.999Z</time></trkpt><trkpt lat="44.757941233024034" lon="9.937278680273828"><ele>585.0</ele><time>2026-05-02T07:05:05.999Z</time></trkpt><trkpt lat="44.75794588521939" lon="9.937174209078297"><ele>585.0</ele><time>2026-05-02T07:05:08.999Z</time></trkpt><trkpt lat="44.75795466591884" lon="9.93706446256912"><ele>584.5714285714286</ele><time>2026-05-02T07:05:11.998Z</time></trkpt><trkpt lat="44.75797447685535" lon="9.936974927262888"><ele>584.1428571428571</ele><time>2026-05-02T07:05:14.998Z</time></trkpt><trkpt lat="44.75800449967476" lon="9.936890732905024"><ele>583.7142857142857</ele><time>2026-05-02T07:05:17.998Z</time></trkpt><trkpt lat="44.758038025393525" lon="9.936796169401742"><ele>583.2857142857142</ele><time>2026-05-02T07:05:20.998Z</time></trkpt><trkpt lat="44.75807093051476" lon="9.936711354763125"><ele>582.8571428571428</ele><time>2026-05-02T07:05:23.998Z</time></trkpt><trkpt lat="44.75810936527293" lon="9.936628276258487"><ele>582.4285714285714</ele><time>2026-05-02T07:05:26.998Z</time></trkpt><trkpt lat="44.758165950163495" lon="9.936566492577017"><ele>582.0</ele><time>2026-05-02T07:05:29.998Z</time></trkpt><trkpt lat="44.758218647202355" lon="9.936512277403953"><ele>582.8571428571429</ele><time>2026-05-02T07:05:32.998Z</time></trkpt><trkpt lat="44.75828122710382" lon="9.936469706671176"><ele>583.7142857142857</ele><time>2026-05-02T07:05:35.998Z</time></trkpt><trkpt lat="44.75833724671045" lon="9.93641629872225"><ele>584.5714285714286</ele><time>2026-05-02T07:05:38.998Z</time></trkpt><trkpt lat="44.75837619408552" lon="9.93633887928137"><ele>585.4285714285714</ele><time>2026-05-02T07:05:41.998Z</time></trkpt><trkpt lat="44.75837833176193" lon="9.936242130091845"><ele>586.2857142857142</ele><time>2026-05-02T07:05:44.998Z</time></trkpt><trkpt lat="44.75836435301278" lon="9.936151712145623"><ele>587.1428571428571</ele><time>2026-05-02T07:05:48Z</time></trkpt><trkpt lat="44.7583111677255" lon="9.93608889983895"><ele>588.0</ele><time>2026-05-02T07:05:51Z</time></trkpt><trkpt lat="44.75824835563168" lon="9.936054784802234"><ele>588.0</ele><time>2026-05-02T07:05:54Z</time></trkpt><trkpt lat="44.75818908787247" lon="9.93601997661727"><ele>588.0</ele><time>2026-05-02T07:05:57Z</time></trkpt><trkpt lat="44.758125838426196" lon="9.935997148844912"><ele>588.0</ele><time>2026-05-02T07:06:00Z</time></trkpt><trkpt lat="44.75806235323867" lon="9.935972080749703"><ele>588.0</ele><time>2026-05-02T07:06:03Z</time></trkpt><trkpt lat="44.75799216084504" lon="9.93596922591081"><ele>588.0</ele><time>2026-05-02T07:06:06Z</time></trkpt><trkpt lat="44.75792920731974" lon="9.935978298298359"><ele>588.0</ele><time>2026-05-02T07:06:09Z</time></trkpt><trkpt lat="44.75786627478364" lon="9.93600303486825"><ele>588.0</ele><time>2026-05-02T07:06:12Z</time></trkpt><trkpt lat="44.75780516498728" lon="9.936048648257126"><ele>588.0</ele><time>2026-05-02T07:06:15Z</time></trkpt><trkpt lat="44.75776237417412" lon="9.936114490605522"><ele>588.0</ele><time>2026-05-02T07:06:18Z</time></trkpt><trkpt lat="44.75771645044818" lon="9.93618521118925"><ele>588.0</ele><time>2026-05-02T07:06:20.999Z</time></trkpt><trkpt lat="44.75766791056649" lon="9.936254969808301"><ele>588.0</ele><time>2026-05-02T07:06:23.999Z</time></trkpt><trkpt lat="44.757621457941845" lon="9.93633407254035"><ele>588.0</ele><time>2026-05-02T07:06:26.999Z</time></trkpt><trkpt lat="44.7575791459453" lon="9.93644489007032"><ele>588.0</ele><time>2026-05-02T07:06:29.999Z</time></trkpt><trkpt lat="44.75754483730833" lon="9.93653452245618"><ele>588.0</ele><time>2026-05-02T07:06:32.999Z</time></trkpt><trkpt lat="44.75751112412321" lon="9.936623022445355"><ele>590.7142857142857</ele><time>2026-05-02T07:06:35.999Z</time></trkpt><trkpt lat="44.757480448305174" lon="9.936711619492758"><ele>593.4285714285714</ele><time>2026-05-02T07:06:38.999Z</time></trkpt><trkpt lat="44.757451152678826" lon="9.936807519549335"><ele>596.1428571428571</ele><time>2026-05-02T07:06:41.999Z</time></trkpt><trkpt lat="44.75741307343316" lon="9.936898276311378"><ele>598.8571428571429</ele><time>2026-05-02T07:06:44.999Z</time></trkpt><trkpt lat="44.75737696853742" lon="9.936998553014682"><ele>601.5714285714286</ele><time>2026-05-02T07:06:47.999Z</time></trkpt><trkpt lat="44.75734762588521" lon="9.937093178493814"><ele>604.2857142857142</ele><time>2026-05-02T07:06:50.999Z</time></trkpt><trkpt lat="44.75731319513989" lon="9.937190577932009"><ele>607.0</ele><time>2026-05-02T07:06:53.999Z</time></trkpt><trkpt lat="44.75727316112435" lon="9.93729882551766"><ele>606.9999999999999</ele><time>2026-05-02T07:06:56.999Z</time></trkpt><trkpt lat="44.757245006717724" lon="9.937384671212083"><ele>607.0</ele><time>2026-05-02T07:06:59.999Z</time></trkpt><trkpt lat="44.7572133939495" lon="9.937479467094802"><ele>607.0</ele><time>2026-05-02T07:07:02.999Z</time></trkpt><trkpt lat="44.757189523960854" lon="9.937582502925643"><ele>607.0</ele><time>2026-05-02T07:07:05.999Z</time></trkpt><trkpt lat="44.75717743676694" lon="9.937681642345963"><ele>607.0</ele><time>2026-05-02T07:07:08.999Z</time></trkpt><trkpt lat="44.757170944929705" lon="9.937770664514723"><ele>606.9999999999999</ele><time>2026-05-02T07:07:10.999Z</time></trkpt><trkpt lat="44.75717593281314" lon="9.937877522806625"><ele>607.0</ele><time>2026-05-02T07:07:13.998Z</time></trkpt><trkpt lat="44.75719492376202" lon="9.937981883041004"><ele>607.6666666666667</ele><time>2026-05-02T07:07:16.998Z</time></trkpt><trkpt lat="44.757223227700656" lon="9.938072187284122"><ele>608.3333333333334</ele><time>2026-05-02T07:07:19.998Z</time></trkpt><trkpt lat="44.75727607019923" lon="9.938167472550582"><ele>609.0</ele><time>2026-05-02T07:07:22.998Z</time></trkpt><trkpt lat="44.75732124397385" lon="9.938237392722444"><ele>609.6666666666666</ele><time>2026-05-02T07:07:24.998Z</time></trkpt><trkpt lat="44.757385073441554" lon="9.938309593765469"><ele>610.3333333333333</ele><time>2026-05-02T07:07:27.998Z</time></trkpt><trkpt lat="44.75744529898448" lon="9.938378401790574"><ele>611.0</ele><time>2026-05-02T07:07:30.998Z</time></trkpt><trkpt lat="44.75750052632666" lon="9.938442628494112"><ele>611.0000000000001</ele><time>2026-05-02T07:07:33.998Z</time></trkpt><trkpt lat="44.75754939921868" lon="9.938516170705002"><ele>611.0</ele><time>2026-05-02T07:07:36.998Z</time></trkpt><trkpt lat="44.75758247909018" lon="9.938608722006613"><ele>611.0</ele><time>2026-05-02T07:07:39.998Z</time></trkpt><trkpt lat="44.7575949059729" lon="9.938698001249971"><ele>611.0</ele><time>2026-05-02T07:07:42.998Z</time></trkpt><trkpt lat="44.75759078142481" lon="9.93878947315973"><ele>611.0</ele><time>2026-05-02T07:07:45.998Z</time></trkpt><trkpt lat="44.7575629538672" lon="9.938879579116282"><ele>611.0000000000001</ele><time>2026-05-02T07:07:48.998Z</time></trkpt><trkpt lat="44.75752293416438" lon="9.93895453140566"><ele>611.0</ele><time>2026-05-02T07:07:52Z</time></trkpt><trkpt lat="44.757459264266814" lon="9.939012880539618"><ele>611.0000000000001</ele><time>2026-05-02T07:07:55Z</time></trkpt><trkpt lat="44.75739398708988" lon="9.939019084708503"><ele>611.0</ele><time>2026-05-02T07:07:58Z</time></trkpt><trkpt lat="44.75732807566203" lon="9.939011512854458"><ele>611.0</ele><time>2026-05-02T07:08:01Z</time></trkpt><trkpt lat="44.75726586438271" lon="9.938977194826354"><ele>611.0</ele><time>2026-05-02T07:08:04Z</time></trkpt><trkpt lat="44.757201872424076" lon="9.938931339365462"><ele>611.0</ele><time>2026-05-02T07:08:07Z</time></trkpt><trkpt lat="44.757146288441206" lon="9.938871743303869"><ele>611.0000000000001</ele><time>2026-05-02T07:08:10Z</time></trkpt><trkpt lat="44.75709876181337" lon="9.938799014829064"><ele>611.0</ele><time>2026-05-02T07:08:13Z</time></trkpt><trkpt lat="44.757062699553316" lon="9.938719119360739"><ele>611.0</ele><time>2026-05-02T07:08:16Z</time></trkpt><trkpt lat="44.75703785798897" lon="9.938625292095326"><ele>611.0</ele><time>2026-05-02T07:08:19Z</time></trkpt><trkpt lat="44.757019020504195" lon="9.938512452274832"><ele>611.0</ele><time>2026-05-02T07:08:22Z</time></trkpt><trkpt lat="44.75700360783971" lon="9.938413574895826"><ele>611.0</ele><time>2026-05-02T07:08:24.999Z</time></trkpt><trkpt lat="44.75698978297042" lon="9.93830157229565"><ele>611.0</ele><time>2026-05-02T07:08:28.999Z</time></trkpt><trkpt lat="44.75697286509091" lon="9.938204186488711"><ele>611.0</ele><time>2026-05-02T07:08:31.999Z</time></trkpt><trkpt lat="44.75695537537477" lon="9.938097196063165"><ele>611.3333333333333</ele><time>2026-05-02T07:08:34.999Z</time></trkpt><trkpt lat="44.75693487161825" lon="9.937990945599504"><ele>611.6666666666666</ele><time>2026-05-02T07:08:37.999Z</time></trkpt><trkpt lat="44.75691348204172" lon="9.93786557135814"><ele>612.0</ele><time>2026-05-02T07:08:40.999Z</time></trkpt><trkpt lat="44.756897273796795" lon="9.937758178282971"><ele>612.3333333333334</ele><time>2026-05-02T07:08:43.999Z</time></trkpt><trkpt lat="44.75687554463929" lon="9.93765289763692"><ele>612.6666666666667</ele><time>2026-05-02T07:08:46.999Z</time></trkpt><trkpt lat="44.75685777972622" lon="9.937549533393437"><ele>613.0</ele><time>2026-05-02T07:08:49.999Z</time></trkpt><trkpt lat="44.75683724316597" lon="9.937442069537399"><ele>614.0</ele><time>2026-05-02T07:08:52.999Z</time></trkpt><trkpt lat="44.756824348489374" lon="9.937335267590866"><ele>615.0</ele><time>2026-05-02T07:08:56.999Z</time></trkpt><trkpt lat="44.75682035945337" lon="9.93723616022421"><ele>616.0</ele><time>2026-05-02T07:08:59.999Z</time></trkpt><trkpt lat="44.756816328511796" lon="9.93713998723038"><ele>617.0</ele><time>2026-05-02T07:09:02.999Z</time></trkpt><trkpt lat="44.75682521299555" lon="9.937039160219916"><ele>618.0</ele><time>2026-05-02T07:09:05.999Z</time></trkpt><trkpt lat="44.756845575191775" lon="9.936941609173473"><ele>619.0</ele><time>2026-05-02T07:09:09.999Z</time></trkpt><trkpt lat="44.75678881133539" lon="9.937007793191755"><ele>620.0</ele><time>2026-05-02T07:09:16.998Z</time></trkpt><trkpt lat="44.75677955601113" lon="9.937113823016231"><ele>620.0</ele><time>2026-05-02T07:09:20.998Z</time></trkpt><trkpt lat="44.756778387630014" lon="9.937208053928389"><ele>620.0</ele><time>2026-05-02T07:10:17Z</time></trkpt><trkpt lat="44.75677947397078" lon="9.937329928745424"><ele>620.0</ele><time>2026-05-02T07:10:20Z</time></trkpt><trkpt lat="44.75678537697046" lon="9.937436945244047"><ele>620.0</ele><time>2026-05-02T07:10:22Z</time></trkpt><trkpt lat="44.756800633018266" lon="9.937538795707903"><ele>620.0</ele><time>2026-05-02T07:10:24Z</time></trkpt><trkpt lat="44.75681765284759" lon="9.937653106145348"><ele>620.0</ele><time>2026-05-02T07:10:26Z</time></trkpt><trkpt lat="44.75683585365938" lon="9.937777762178888"><ele>618.75</ele><time>2026-05-02T07:10:27.999Z</time></trkpt><trkpt lat="44.756860894263106" lon="9.937913578643252"><ele>617.5</ele><time>2026-05-02T07:10:29.999Z</time></trkpt><trkpt lat="44.75688651053517" lon="9.93806655372268"><ele>616.25</ele><time>2026-05-02T07:10:31.999Z</time></trkpt><trkpt lat="44.75691689668834" lon="9.938231350542988"><ele>615.0</ele><time>2026-05-02T07:10:33.999Z</time></trkpt><trkpt lat="44.75694827786826" lon="9.938399186579636"><ele>614.3333333333334</ele><time>2026-05-02T07:10:35.999Z</time></trkpt><trkpt lat="44.756959908497954" lon="9.93849161337949"><ele>613.6666666666666</ele><time>2026-05-02T07:10:36.999Z</time></trkpt><trkpt lat="44.75696981786143" lon="9.938585841077764"><ele>613.0</ele><time>2026-05-02T07:10:37.999Z</time></trkpt><trkpt lat="44.75701473477795" lon="9.938736464598106"><ele>612.3333333333333</ele><time>2026-05-02T07:10:39.999Z</time></trkpt><trkpt lat="44.757059428895474" lon="9.93886357190601"><ele>611.6666666666666</ele><time>2026-05-02T07:10:41.999Z</time></trkpt><trkpt lat="44.75712782686037" lon="9.938959919469335"><ele>611.0</ele><time>2026-05-02T07:10:43.999Z</time></trkpt><trkpt lat="44.75721587642816" lon="9.939048860265919"><ele>611.0</ele><time>2026-05-02T07:10:45.999Z</time></trkpt><trkpt lat="44.75732944902848" lon="9.939102291436749"><ele>611.0</ele><time>2026-05-02T07:10:47.999Z</time></trkpt><trkpt lat="44.757395286407125" lon="9.939102621006253"><ele>611.0</ele><time>2026-05-02T07:10:48.999Z</time></trkpt><trkpt lat="44.757513356572865" lon="9.939057248554539"><ele>611.0</ele><time>2026-05-02T07:10:50.999Z</time></trkpt><trkpt lat="44.7575638862777" lon="9.93899622909744"><ele>611.0</ele><time>2026-05-02T07:10:51.999Z</time></trkpt><trkpt lat="44.757602068028234" lon="9.938909714422872"><ele>611.0</ele><time>2026-05-02T07:10:52.999Z</time></trkpt><trkpt lat="44.75763174386662" lon="9.938814101439903"><ele>611.0</ele><time>2026-05-02T07:10:53.999Z</time></trkpt><trkpt lat="44.757645903394945" lon="9.938707260421953"><ele>611.0</ele><time>2026-05-02T07:10:54.999Z</time></trkpt><trkpt lat="44.75764156281016" lon="9.938598428767955"><ele>611.0</ele><time>2026-05-02T07:10:55.999Z</time></trkpt><trkpt lat="44.75761042852288" lon="9.938498235638193"><ele>611.0</ele><time>2026-05-02T07:10:56.999Z</time></trkpt><trkpt lat="44.7575551180318" lon="9.938419009875634"><ele>611.0</ele><time>2026-05-02T07:10:57.999Z</time></trkpt><trkpt lat="44.75748894445403" lon="9.938355079274626"><ele>611.0</ele><time>2026-05-02T07:10:58.999Z</time></trkpt><trkpt lat="44.75742341867868" lon="9.938294247175932"><ele>611.3333333333333</ele><time>2026-05-02T07:10:59.999Z</time></trkpt><trkpt lat="44.757362895100464" lon="9.938233585165458"><ele>611.6666666666666</ele><time>2026-05-02T07:11:00.999Z</time></trkpt><trkpt lat="44.75730450785647" lon="9.93816238535983"><ele>612.0</ele><time>2026-05-02T07:11:01.999Z</time></trkpt><trkpt lat="44.75725346061597" lon="9.938070798196618"><ele>612.3333333333334</ele><time>2026-05-02T07:11:02.999Z</time></trkpt><trkpt lat="44.757214836848895" lon="9.937968488112364"><ele>612.6666666666667</ele><time>2026-05-02T07:11:03.999Z</time></trkpt><trkpt lat="44.757196496558215" lon="9.937854094442365"><ele>613.0</ele><time>2026-05-02T07:11:04.999Z</time></trkpt><trkpt lat="44.75719796364396" lon="9.937728524631883"><ele>613.0</ele><time>2026-05-02T07:11:05.999Z</time></trkpt><trkpt lat="44.75721739235669" lon="9.937604940583835"><ele>613.0</ele><time>2026-05-02T07:11:06.999Z</time></trkpt><trkpt lat="44.75725446718378" lon="9.937486546554116"><ele>613.0</ele><time>2026-05-02T07:11:07.999Z</time></trkpt><trkpt lat="44.75729067510979" lon="9.937372087091724"><ele>613.0</ele><time>2026-05-02T07:11:08.999Z</time></trkpt><trkpt lat="44.75733060908823" lon="9.937255089804447"><ele>613.0</ele><time>2026-05-02T07:11:09.999Z</time></trkpt><trkpt lat="44.75737037467822" lon="9.937135711420343"><ele>612.8</ele><time>2026-05-02T07:11:10.999Z</time></trkpt><trkpt lat="44.75741121762674" lon="9.937011634640356"><ele>612.5999999999999</ele><time>2026-05-02T07:11:11.999Z</time></trkpt><trkpt lat="44.75745286621545" lon="9.936885989652687"><ele>612.4000000000001</ele><time>2026-05-02T07:11:12.999Z</time></trkpt><trkpt lat="44.757497244221646" lon="9.936761686439024"><ele>612.2</ele><time>2026-05-02T07:11:13.999Z</time></trkpt><trkpt lat="44.75754484337817" lon="9.936636591235208"><ele>612.0</ele><time>2026-05-02T07:11:14.999Z</time></trkpt><trkpt lat="44.757596159164144" lon="9.936510350632993"><ele>612.0</ele><time>2026-05-02T07:11:15.999Z</time></trkpt><trkpt lat="44.75764853679691" lon="9.936383592212524"><ele>612.0</ele><time>2026-05-02T07:11:16.999Z</time></trkpt><trkpt lat="44.75770634013116" lon="9.93626464712437"><ele>612.0</ele><time>2026-05-02T07:11:17.999Z</time></trkpt><trkpt lat="44.757771358768714" lon="9.936155259851331"><ele>612.0</ele><time>2026-05-02T07:11:18.999Z</time></trkpt><trkpt lat="44.75785151879582" lon="9.936065196226794"><ele>612.0</ele><time>2026-05-02T07:11:19.998Z</time></trkpt><trkpt lat="44.75794126537012" lon="9.936007721626577"><ele>608.0</ele><time>2026-05-02T07:11:20.998Z</time></trkpt><trkpt lat="44.7580341793558" lon="9.935991872881148"><ele>604.0</ele><time>2026-05-02T07:11:21.998Z</time></trkpt><trkpt lat="44.75813156255791" lon="9.93600994460075"><ele>600.0</ele><time>2026-05-02T07:11:22.998Z</time></trkpt><trkpt lat="44.75821674554202" lon="9.936057876684764"><ele>596.0</ele><time>2026-05-02T07:11:23.998Z</time></trkpt><trkpt lat="44.75828952023023" lon="9.93609592781109"><ele>592.0</ele><time>2026-05-02T07:11:24.998Z</time></trkpt><trkpt lat="44.75834948704931" lon="9.936136380000368"><ele>588.0</ele><time>2026-05-02T07:11:25.998Z</time></trkpt><trkpt lat="44.75837110884798" lon="9.936236660329568"><ele>588.0</ele><time>2026-05-02T07:11:26.998Z</time></trkpt><trkpt lat="44.75835452846878" lon="9.936343634763826"><ele>588.0</ele><time>2026-05-02T07:11:27.998Z</time></trkpt><trkpt lat="44.75827355720539" lon="9.936406422026266"><ele>588.0</ele><time>2026-05-02T07:11:28.998Z</time></trkpt><trkpt lat="44.75819121536656" lon="9.936453273544775"><ele>588.0</ele><time>2026-05-02T07:11:29.998Z</time></trkpt><trkpt lat="44.75812027573993" lon="9.936536309960879"><ele>588.0</ele><time>2026-05-02T07:11:30.998Z</time></trkpt><trkpt lat="44.75805322833962" lon="9.936635576347282"><ele>588.0</ele><time>2026-05-02T07:11:31.998Z</time></trkpt><trkpt lat="44.758002472676" lon="9.936754249979774"><ele>586.8</ele><time>2026-05-02T07:11:32.998Z</time></trkpt><trkpt lat="44.75795767332986" lon="9.936877969630423"><ele>585.5999999999999</ele><time>2026-05-02T07:11:33.998Z</time></trkpt><trkpt lat="44.75792255148404" lon="9.937012874010634"><ele>584.4000000000001</ele><time>2026-05-02T07:11:34.998Z</time></trkpt><trkpt lat="44.757901153667966" lon="9.937155388470023"><ele>583.2</ele><time>2026-05-02T07:11:35.998Z</time></trkpt><trkpt lat="44.757890833700536" lon="9.937304103482356"><ele>582.0</ele><time>2026-05-02T07:11:36.998Z</time></trkpt><trkpt lat="44.75788882362508" lon="9.937454880443632"><ele>582.6</ele><time>2026-05-02T07:11:37.998Z</time></trkpt><trkpt lat="44.757907078735556" lon="9.937606993160458"><ele>583.2</ele><time>2026-05-02T07:11:38.998Z</time></trkpt><trkpt lat="44.75794584640858" lon="9.93775086118231"><ele>583.8</ele><time>2026-05-02T07:11:39.998Z</time></trkpt><trkpt lat="44.75800746445907" lon="9.937878972262403"><ele>584.4</ele><time>2026-05-02T07:11:40.998Z</time></trkpt><trkpt lat="44.758087698303065" lon="9.937988294593254"><ele>585.0</ele><time>2026-05-02T07:11:41.998Z</time></trkpt><trkpt lat="44.75816459305106" lon="9.938095897497153"><ele>585.0</ele><time>2026-05-02T07:11:42.998Z</time></trkpt><trkpt lat="44.75821000249099" lon="9.938238669042631"><ele>585.0</ele><time>2026-05-02T07:11:43.998Z</time></trkpt><trkpt lat="44.75823694384861" lon="9.938391091184512"><ele>585.0</ele><time>2026-05-02T07:11:44.998Z</time></trkpt><trkpt lat="44.75825694960852" lon="9.938539608487648"><ele>585.0</ele><time>2026-05-02T07:11:45.998Z</time></trkpt><trkpt lat="44.75827355321397" lon="9.938684687080762"><ele>585.0</ele><time>2026-05-02T07:11:46.998Z</time></trkpt><trkpt lat="44.758336391109395" lon="9.938804781355978"><ele>586.4</ele><time>2026-05-02T07:11:47.998Z</time></trkpt><trkpt lat="44.75844148045091" lon="9.938862488136742"><ele>587.8</ele><time>2026-05-02T07:11:48.998Z</time></trkpt><trkpt lat="44.75854090042226" lon="9.93890120230918"><ele>589.2</ele><time>2026-05-02T07:11:49.998Z</time></trkpt><trkpt lat="44.758646580193485" lon="9.938910358970503"><ele>590.6</ele><time>2026-05-02T07:11:50.998Z</time></trkpt><trkpt lat="44.758752806867264" lon="9.938910171059804"><ele>592.0</ele><time>2026-05-02T07:11:51.998Z</time></trkpt><trkpt lat="44.7588565386165" lon="9.93892609565598"><ele>587.6</ele><time>2026-05-02T07:11:52.998Z</time></trkpt><trkpt lat="44.75895923986738" lon="9.938974924183029"><ele>583.2</ele><time>2026-05-02T07:11:53.998Z</time></trkpt><trkpt lat="44.75904255781473" lon="9.939076621428617"><ele>578.8</ele><time>2026-05-02T07:11:54.998Z</time></trkpt><trkpt lat="44.759098024989676" lon="9.939211010373958"><ele>574.4</ele><time>2026-05-02T07:11:55.998Z</time></trkpt><trkpt lat="44.759132803488264" lon="9.93936197769056"><ele>570.0</ele><time>2026-05-02T07:11:56.998Z</time></trkpt><trkpt lat="44.75915587795796" lon="9.939517985766566"><ele>570.0</ele><time>2026-05-02T07:11:57.998Z</time></trkpt><trkpt lat="44.75916672618722" lon="9.939667955692169"><ele>570.0</ele><time>2026-05-02T07:11:58.998Z</time></trkpt><trkpt lat="44.75914670873337" lon="9.939816013901517"><ele>570.0</ele><time>2026-05-02T07:11:59.998Z</time></trkpt><trkpt lat="44.75907700345692" lon="9.939940269073682"><ele>570.0</ele><time>2026-05-02T07:12:00.998Z</time></trkpt><trkpt lat="44.759021737960445" lon="9.940079890678753"><ele>570.0</ele><time>2026-05-02T07:12:01.998Z</time></trkpt><trkpt lat="44.75896984130958" lon="9.940220088403528"><ele>568.75</ele><time>2026-05-02T07:12:02.998Z</time></trkpt><trkpt lat="44.75895583592651" lon="9.940379093839566"><ele>567.5</ele><time>2026-05-02T07:12:04Z</time></trkpt><trkpt lat="44.75897608603493" lon="9.940540793716023"><ele>566.25</ele><time>2026-05-02T07:12:05Z</time></trkpt><trkpt lat="44.759019451670575" lon="9.94068834950122"><ele>565.0</ele><time>2026-05-02T07:12:06Z</time></trkpt><trkpt lat="44.759029316233196" lon="9.940850291798284"><ele>562.75</ele><time>2026-05-02T07:12:07Z</time></trkpt><trkpt lat="44.75901124554012" lon="9.941013831747394"><ele>560.5</ele><time>2026-05-02T07:12:08Z</time></trkpt><trkpt lat="44.758988712340546" lon="9.94117621653378"><ele>558.25</ele><time>2026-05-02T07:12:09Z</time></trkpt><trkpt lat="44.75896570862225" lon="9.941339939976153"><ele>556.0</ele><time>2026-05-02T07:12:10Z</time></trkpt><trkpt lat="44.75893215393879" lon="9.941506152470689"><ele>556.0</ele><time>2026-05-02T07:12:11Z</time></trkpt><trkpt lat="44.758888941213264" lon="9.941670339456307"><ele>556.0</ele><time>2026-05-02T07:12:12Z</time></trkpt><trkpt lat="44.75885491598957" lon="9.941841866421969"><ele>556.0</ele><time>2026-05-02T07:12:13Z</time></trkpt><trkpt lat="44.7588395546823" lon="9.942019919192031"><ele>556.0</ele><time>2026-05-02T07:12:14Z</time></trkpt><trkpt lat="44.758834099970436" lon="9.942203148992588"><ele>554.0</ele><time>2026-05-02T07:12:15Z</time></trkpt><trkpt lat="44.758841452633725" lon="9.942389378913685"><ele>552.0</ele><time>2026-05-02T07:12:16Z</time></trkpt><trkpt lat="44.75886202674634" lon="9.942569317215195"><ele>550.0</ele><time>2026-05-02T07:12:17Z</time></trkpt><trkpt lat="44.75888977990592" lon="9.942725843837362"><ele>548.0</ele><time>2026-05-02T07:12:18Z</time></trkpt><trkpt lat="44.758915145809496" lon="9.942861809607006"><ele>547.5</ele><time>2026-05-02T07:12:19Z</time></trkpt><trkpt lat="44.75893843203794" lon="9.94298026221074"><ele>547.0</ele><time>2026-05-02T07:12:20Z</time></trkpt><trkpt lat="44.75897026391531" lon="9.943076288430554"><ele>546.5</ele><time>2026-05-02T07:12:21Z</time></trkpt><trkpt lat="44.759025679295085" lon="9.943120886559148"><ele>546.0</ele><time>2026-05-02T07:12:22Z</time></trkpt><trkpt lat="44.75909089129692" lon="9.94309438534805"><ele>545.5</ele><time>2026-05-02T07:12:23Z</time></trkpt><trkpt lat="44.759133370347996" lon="9.942997294536559"><ele>545.0</ele><time>2026-05-02T07:12:24Z</time></trkpt><trkpt lat="44.75913530058001" lon="9.942877351209598"><ele>545.0</ele><time>2026-05-02T07:12:25Z</time></trkpt><trkpt lat="44.75912172263413" lon="9.942767907322219"><ele>545.0</ele><time>2026-05-02T07:12:26Z</time></trkpt><trkpt lat="44.759115792224456" lon="9.942650444750017"><ele>545.0</ele><time>2026-05-02T07:12:27Z</time></trkpt><trkpt lat="44.75911625301816" lon="9.942527974966062"><ele>545.0</ele><time>2026-05-02T07:12:28Z</time></trkpt><trkpt lat="44.75912571113559" lon="9.942400955164738"><ele>545.0</ele><time>2026-05-02T07:12:29Z</time></trkpt><trkpt lat="44.759144141796256" lon="9.94227257325752"><ele>545.0</ele><time>2026-05-02T07:12:30Z</time></trkpt><trkpt lat="44.759182790305296" lon="9.942148302752898"><ele>545.6</ele><time>2026-05-02T07:12:30.999Z</time></trkpt><trkpt lat="44.75923856452309" lon="9.942030845666038"><ele>546.2</ele><time>2026-05-02T07:12:31.999Z</time></trkpt><trkpt lat="44.759295505601386" lon="9.941915002373358"><ele>546.8</ele><time>2026-05-02T07:12:32.999Z</time></trkpt><trkpt lat="44.75935673579509" lon="9.941796213518417"><ele>547.4</ele><time>2026-05-02T07:12:33.999Z</time></trkpt><trkpt lat="44.75941468804381" lon="9.941672733906238"><ele>548.0</ele><time>2026-05-02T07:12:34.999Z</time></trkpt><trkpt lat="44.7594769917845" lon="9.94154990003487"><ele>544.0</ele><time>2026-05-02T07:12:35.999Z</time></trkpt><trkpt lat="44.75953877996121" lon="9.94142202491146"><ele>540.0</ele><time>2026-05-02T07:12:36.999Z</time></trkpt><trkpt lat="44.75960552166506" lon="9.94129475491862"><ele>536.0</ele><time>2026-05-02T07:12:37.999Z</time></trkpt><trkpt lat="44.759672340606535" lon="9.941165766536535"><ele>532.0</ele><time>2026-05-02T07:12:38.999Z</time></trkpt><trkpt lat="44.759742080547596" lon="9.941036249650688"><ele>532.0</ele><time>2026-05-02T07:12:39.999Z</time></trkpt><trkpt lat="44.759818325870604" lon="9.940913902989235"><ele>532.0</ele><time>2026-05-02T07:12:40.999Z</time></trkpt><trkpt lat="44.75989798815116" lon="9.940795101841976"><ele>532.0</ele><time>2026-05-02T07:12:41.999Z</time></trkpt><trkpt lat="44.75997802609034" lon="9.940673403545775"><ele>532.0</ele><time>2026-05-02T07:12:42.999Z</time></trkpt><trkpt lat="44.7600512871286" lon="9.940558341816523"><ele>530.8000000000001</ele><time>2026-05-02T07:12:43.999Z</time></trkpt><trkpt lat="44.760127497003886" lon="9.94045037543541"><ele>529.6</ele><time>2026-05-02T07:12:44.999Z</time></trkpt><trkpt lat="44.76021929149649" lon="9.940364722691934"><ele>528.4000000000001</ele><time>2026-05-02T07:12:45.999Z</time></trkpt><trkpt lat="44.7603246529528" lon="9.940307850564036"><ele>527.2</ele><time>2026-05-02T07:12:46.999Z</time></trkpt><trkpt lat="44.76043472843611" lon="9.940267260554569"><ele>526.0</ele><time>2026-05-02T07:12:47.999Z</time></trkpt><trkpt lat="44.76054398583887" lon="9.940228362969167"><ele>526.0</ele><time>2026-05-02T07:12:48.999Z</time></trkpt><trkpt lat="44.76065320834811" lon="9.940181058555684"><ele>526.0</ele><time>2026-05-02T07:12:49.999Z</time></trkpt><trkpt lat="44.760751300331165" lon="9.940122790172426"><ele>526.0</ele><time>2026-05-02T07:12:50.999Z</time></trkpt><trkpt lat="44.76083371439633" lon="9.940078333021184"><ele>526.0</ele><time>2026-05-02T07:12:51.999Z</time></trkpt><trkpt lat="44.76091445769408" lon="9.940071630876075"><ele>526.0</ele><time>2026-05-02T07:12:52.999Z</time></trkpt><trkpt lat="44.76097937277758" lon="9.940110727915185"><ele>526.0</ele><time>2026-05-02T07:12:53.999Z</time></trkpt><trkpt lat="44.76101883799481" lon="9.940187818900064"><ele>526.0</ele><time>2026-05-02T07:12:54.999Z</time></trkpt><trkpt lat="44.760985932601415" lon="9.940296452530783"><ele>526.0</ele><time>2026-05-02T07:12:55.999Z</time></trkpt><trkpt lat="44.76093250273284" lon="9.940370722728508"><ele>526.0</ele><time>2026-05-02T07:12:56.999Z</time></trkpt><trkpt lat="44.760877945322505" lon="9.940455286241061"><ele>526.0</ele><time>2026-05-02T07:12:57.999Z</time></trkpt><trkpt lat="44.76083278559586" lon="9.940556046311245"><ele>526.0</ele><time>2026-05-02T07:12:58.999Z</time></trkpt><trkpt lat="44.76077296658331" lon="9.940644709579047"><ele>526.0</ele><time>2026-05-02T07:12:59.999Z</time></trkpt><trkpt lat="44.76071081347598" lon="9.940734789249358"><ele>526.0</ele><time>2026-05-02T07:13:00.999Z</time></trkpt><trkpt lat="44.76064549531931" lon="9.940831597640122"><ele>526.0</ele><time>2026-05-02T07:13:01.999Z</time></trkpt><trkpt lat="44.7605811455821" lon="9.940933147570611"><ele>526.0</ele><time>2026-05-02T07:13:02.999Z</time></trkpt><trkpt lat="44.76052853976004" lon="9.941053364621014"><ele>526.0</ele><time>2026-05-02T07:13:03.999Z</time></trkpt><trkpt lat="44.76048506979819" lon="9.941185138614712"><ele>523.8</ele><time>2026-05-02T07:13:04.999Z</time></trkpt><trkpt lat="44.76044970407272" lon="9.941323560339677"><ele>521.6</ele><time>2026-05-02T07:13:05.999Z</time></trkpt><trkpt lat="44.76041617378164" lon="9.941463937056039"><ele>519.4</ele><time>2026-05-02T07:13:06.999Z</time></trkpt><trkpt lat="44.760387106745476" lon="9.941606864257102"><ele>517.2</ele><time>2026-05-02T07:13:07.999Z</time></trkpt><trkpt lat="44.760360717206915" lon="9.941750759492933"><ele>515.0</ele><time>2026-05-02T07:13:08.999Z</time></trkpt><trkpt lat="44.760331247295795" lon="9.94189491112532"><ele>515.0</ele><time>2026-05-02T07:13:09.999Z</time></trkpt><trkpt lat="44.76030347643214" lon="9.942044450795873"><ele>515.0</ele><time>2026-05-02T07:13:10.999Z</time></trkpt><trkpt lat="44.760281746374716" lon="9.94219425510596"><ele>515.0</ele><time>2026-05-02T07:13:11.999Z</time></trkpt><trkpt lat="44.76026064520628" lon="9.94234407134263"><ele>515.0</ele><time>2026-05-02T07:13:12.999Z</time></trkpt><trkpt lat="44.76024871684289" lon="9.94248978738781"><ele>515.0</ele><time>2026-05-02T07:13:13.999Z</time></trkpt><trkpt lat="44.7602696271013" lon="9.942637489117244"><ele>515.0</ele><time>2026-05-02T07:13:14.999Z</time></trkpt><trkpt lat="44.760321690330514" lon="9.942770491813178"><ele>515.0</ele><time>2026-05-02T07:13:15.999Z</time></trkpt><trkpt lat="44.7603880609711" lon="9.942890431815426"><ele>515.0</ele><time>2026-05-02T07:13:16.999Z</time></trkpt><trkpt lat="44.760457006509846" lon="9.943006944848895"><ele>515.0</ele><time>2026-05-02T07:13:17.999Z</time></trkpt><trkpt lat="44.76051480415646" lon="9.943136438734735"><ele>515.0</ele><time>2026-05-02T07:13:18.999Z</time></trkpt><trkpt lat="44.76055438152766" lon="9.943283625938784"><ele>514.0</ele><time>2026-05-02T07:13:19.999Z</time></trkpt><trkpt lat="44.760588546591606" lon="9.943431942785997"><ele>513.0</ele><time>2026-05-02T07:13:20.999Z</time></trkpt><trkpt lat="44.76062049883714" lon="9.943583411917793"><ele>512.0</ele><time>2026-05-02T07:13:21.999Z</time></trkpt><trkpt lat="44.76065480409826" lon="9.943735173396583"><ele>511.0</ele><time>2026-05-02T07:13:22.998Z</time></trkpt><trkpt lat="44.76069444287885" lon="9.943877197525593"><ele>510.0</ele><time>2026-05-02T07:13:23.998Z</time></trkpt><trkpt lat="44.76074735023999" lon="9.94399689440485"><ele>510.0</ele><time>2026-05-02T07:13:24.998Z</time></trkpt><trkpt lat="44.76081314455596" lon="9.944075074567548"><ele>510.0</ele><time>2026-05-02T07:13:25.998Z</time></trkpt><trkpt lat="44.760884267546814" lon="9.944095910856445"><ele>510.0</ele><time>2026-05-02T07:13:26.998Z</time></trkpt><trkpt lat="44.76095259704591" lon="9.944035601128103"><ele>510.0</ele><time>2026-05-02T07:13:27.998Z</time></trkpt><trkpt lat="44.76099081112441" lon="9.94392323960915"><ele>510.0</ele><time>2026-05-02T07:13:28.998Z</time></trkpt><trkpt lat="44.761013186703494" lon="9.943812263180126"><ele>510.0</ele><time>2026-05-02T07:13:29.998Z</time></trkpt><trkpt lat="44.76103645833841" lon="9.943708104144036"><ele>510.8333333333333</ele><time>2026-05-02T07:13:30.998Z</time></trkpt><trkpt lat="44.76105468175386" lon="9.94359837131"><ele>511.66666666666663</ele><time>2026-05-02T07:13:31.998Z</time></trkpt><trkpt lat="44.761064223063414" lon="9.94348179040779"><ele>512.5</ele><time>2026-05-02T07:13:32.998Z</time></trkpt><trkpt lat="44.76106070626039" lon="9.943362022382546"><ele>513.3333333333333</ele><time>2026-05-02T07:13:33.998Z</time></trkpt><trkpt lat="44.761041135082486" lon="9.943240270646433"><ele>514.1666666666666</ele><time>2026-05-02T07:13:34.998Z</time></trkpt><trkpt lat="44.76101015642274" lon="9.94312089486846"><ele>515.0</ele><time>2026-05-02T07:13:35.998Z</time></trkpt><trkpt lat="44.76097439643157" lon="9.942999741359088"><ele>515.0</ele><time>2026-05-02T07:13:36.998Z</time></trkpt><trkpt lat="44.76095829918316" lon="9.942871604975876"><ele>515.0</ele><time>2026-05-02T07:13:37.998Z</time></trkpt><trkpt lat="44.76096573871781" lon="9.94273823560516"><ele>515.0</ele><time>2026-05-02T07:13:38.998Z</time></trkpt><trkpt lat="44.760995413582236" lon="9.942603006246657"><ele>515.0</ele><time>2026-05-02T07:13:39.998Z</time></trkpt><trkpt lat="44.761050249667136" lon="9.942477559271754"><ele>515.0</ele><time>2026-05-02T07:13:40.998Z</time></trkpt><trkpt lat="44.76111121095605" lon="9.942356490848681"><ele>511.0</ele><time>2026-05-02T07:13:41.998Z</time></trkpt><trkpt lat="44.76117171790564" lon="9.942230931876216"><ele>507.0</ele><time>2026-05-02T07:13:42.998Z</time></trkpt><trkpt lat="44.76123359163628" lon="9.942102162246867"><ele>503.0</ele><time>2026-05-02T07:13:43.998Z</time></trkpt><trkpt lat="44.76130692819867" lon="9.941981331761841"><ele>499.0</ele><time>2026-05-02T07:13:44.998Z</time></trkpt><trkpt lat="44.76138988161888" lon="9.941871191930645"><ele>495.0</ele><time>2026-05-02T07:13:45.998Z</time></trkpt><trkpt lat="44.76149076596193" lon="9.941782156467168"><ele>494.0</ele><time>2026-05-02T07:13:46.998Z</time></trkpt><trkpt lat="44.76159944302491" lon="9.94171265898505"><ele>493.0</ele><time>2026-05-02T07:13:47.998Z</time></trkpt><trkpt lat="44.76171381329245" lon="9.941668782327291"><ele>492.0</ele><time>2026-05-02T07:13:48.998Z</time></trkpt><trkpt lat="44.76183650810644" lon="9.941666492658094"><ele>491.0</ele><time>2026-05-02T07:13:49.998Z</time></trkpt><trkpt lat="44.761954187424195" lon="9.941687487948451"><ele>491.0</ele><time>2026-05-02T07:13:50.998Z</time></trkpt><trkpt lat="44.76207007175034" lon="9.941695791687964"><ele>491.0</ele><time>2026-05-02T07:13:51.998Z</time></trkpt><trkpt lat="44.76218337588875" lon="9.94164663288482"><ele>491.0</ele><time>2026-05-02T07:13:52.998Z</time></trkpt><trkpt lat="44.76228429970195" lon="9.94154328185679"><ele>491.0</ele><time>2026-05-02T07:13:53.998Z</time></trkpt><trkpt lat="44.76236230924155" lon="9.941404615074621"><ele>491.0</ele><time>2026-05-02T07:13:54.998Z</time></trkpt><trkpt lat="44.762434041420235" lon="9.941260995060285"><ele>491.0</ele><time>2026-05-02T07:13:55.998Z</time></trkpt><trkpt lat="44.76251409451535" lon="9.94113774941696"><ele>491.0</ele><time>2026-05-02T07:13:56.998Z</time></trkpt><trkpt lat="44.76259261785989" lon="9.94105002700205"><ele>491.0</ele><time>2026-05-02T07:13:57.998Z</time></trkpt><trkpt lat="44.76269376977336" lon="9.941019429666403"><ele>491.0</ele><time>2026-05-02T07:13:58.998Z</time></trkpt><trkpt lat="44.76280004074805" lon="9.941055740589109"><ele>488.4</ele><time>2026-05-02T07:13:59.998Z</time></trkpt><trkpt lat="44.7628981172799" lon="9.941123082433831"><ele>485.8</ele><time>2026-05-02T07:14:00.998Z</time></trkpt><trkpt lat="44.76299254471407" lon="9.94118732788639"><ele>483.19999999999993</ele><time>2026-05-02T07:14:01.998Z</time></trkpt><trkpt lat="44.76309031926039" lon="9.941200003324797"><ele>480.59999999999997</ele><time>2026-05-02T07:14:02.998Z</time></trkpt><trkpt lat="44.76319835871145" lon="9.941188071117157"><ele>478.0</ele><time>2026-05-02T07:14:03.998Z</time></trkpt><trkpt lat="44.76330078529324" lon="9.941136858742993"><ele>478.0</ele><time>2026-05-02T07:14:04.998Z</time></trkpt><trkpt lat="44.76340251024077" lon="9.94106666601518"><ele>478.0</ele><time>2026-05-02T07:14:05.998Z</time></trkpt><trkpt lat="44.763502971408776" lon="9.940991299062881"><ele>478.0</ele><time>2026-05-02T07:14:06.998Z</time></trkpt><trkpt lat="44.763606059205614" lon="9.94091809948097"><ele>478.0</ele><time>2026-05-02T07:14:07.998Z</time></trkpt><trkpt lat="44.763701771123756" lon="9.940818174196181"><ele>476.59999999999997</ele><time>2026-05-02T07:14:08.998Z</time></trkpt><trkpt lat="44.76377734780048" lon="9.940689941129307"><ele>475.19999999999993</ele><time>2026-05-02T07:14:10Z</time></trkpt><trkpt lat="44.763824728832326" lon="9.940566755660047"><ele>473.8</ele><time>2026-05-02T07:14:11Z</time></trkpt><trkpt lat="44.763868154436906" lon="9.940481582892401"><ele>472.4</ele><time>2026-05-02T07:14:12Z</time></trkpt><trkpt lat="44.76397651147356" lon="9.940519055914175"><ele>471.0</ele><time>2026-05-02T07:14:14Z</time></trkpt><trkpt lat="44.7639689822915" lon="9.940630453623074"><ele>471.0</ele><time>2026-05-02T07:14:15Z</time></trkpt><trkpt lat="44.76392690414322" lon="9.940708937614197"><ele>471.0</ele><time>2026-05-02T07:14:16Z</time></trkpt><trkpt lat="44.763896397554625" lon="9.940806377296315"><ele>471.0</ele><time>2026-05-02T07:14:17Z</time></trkpt><trkpt lat="44.76386151929025" lon="9.940900743188774"><ele>471.0</ele><time>2026-05-02T07:14:18Z</time></trkpt><trkpt lat="44.76381531459812" lon="9.94099448074229"><ele>471.0</ele><time>2026-05-02T07:14:19Z</time></trkpt><trkpt lat="44.763759224310945" lon="9.941096850335441"><ele>471.0</ele><time>2026-05-02T07:14:20Z</time></trkpt><trkpt lat="44.763702388066285" lon="9.941197433482536"><ele>470.0</ele><time>2026-05-02T07:14:21Z</time></trkpt><trkpt lat="44.763643473931786" lon="9.94130603846138"><ele>469.0</ele><time>2026-05-02T07:14:22Z</time></trkpt><trkpt lat="44.76358540087264" lon="9.94141475953956"><ele>468.0</ele><time>2026-05-02T07:14:23Z</time></trkpt><trkpt lat="44.763524786637795" lon="9.94152816360742"><ele>467.0</ele><time>2026-05-02T07:14:24Z</time></trkpt><trkpt lat="44.76346371413791" lon="9.94164953287103"><ele>466.0</ele><time>2026-05-02T07:14:25Z</time></trkpt><trkpt lat="44.76339950789288" lon="9.941777216225484"><ele>466.0</ele><time>2026-05-02T07:14:26Z</time></trkpt><trkpt lat="44.76333430683934" lon="9.941907672664485"><ele>466.0</ele><time>2026-05-02T07:14:27Z</time></trkpt><trkpt lat="44.76326931169138" lon="9.942043886092211"><ele>466.0</ele><time>2026-05-02T07:14:28Z</time></trkpt><trkpt lat="44.763214365513484" lon="9.942196561401008"><ele>466.0</ele><time>2026-05-02T07:14:29Z</time></trkpt><trkpt lat="44.76316400827479" lon="9.942337970930826"><ele>466.0</ele><time>2026-05-02T07:14:30Z</time></trkpt><trkpt lat="44.7631113883225" lon="9.942463619417364"><ele>466.0</ele><time>2026-05-02T07:14:31Z</time></trkpt><trkpt lat="44.76309098936922" lon="9.942586524204422"><ele>466.0</ele><time>2026-05-02T07:14:32Z</time></trkpt><trkpt lat="44.76310832784795" lon="9.94270298862484"><ele>466.0</ele><time>2026-05-02T07:14:33Z</time></trkpt><trkpt lat="44.76317731693065" lon="9.942791181853854"><ele>466.0</ele><time>2026-05-02T07:14:34Z</time></trkpt><trkpt lat="44.76327761502513" lon="9.942814602615385"><ele>465.6</ele><time>2026-05-02T07:14:34.999Z</time></trkpt><trkpt lat="44.76337758969814" lon="9.942787281309934"><ele>465.20000000000005</ele><time>2026-05-02T07:14:35.999Z</time></trkpt><trkpt lat="44.76347331544466" lon="9.942734035433451"><ele>464.79999999999995</ele><time>2026-05-02T07:14:36.999Z</time></trkpt><trkpt lat="44.763571275713765" lon="9.942683469706195"><ele>464.4</ele><time>2026-05-02T07:14:37.999Z</time></trkpt><trkpt lat="44.76367556913618" lon="9.94262670469528"><ele>464.0</ele><time>2026-05-02T07:14:38.999Z</time></trkpt><trkpt lat="44.76377716022655" lon="9.942548826881705"><ele>461.75</ele><time>2026-05-02T07:14:39.999Z</time></trkpt><trkpt lat="44.76387528455321" lon="9.942453400798454"><ele>459.5</ele><time>2026-05-02T07:14:40.999Z</time></trkpt><trkpt lat="44.76397468406333" lon="9.94234730663732"><ele>457.25</ele><time>2026-05-02T07:14:41.999Z</time></trkpt><trkpt lat="44.76407547395477" lon="9.942241591337167"><ele>455.0</ele><time>2026-05-02T07:14:42.999Z</time></trkpt><trkpt lat="44.76418403409665" lon="9.942141168694047"><ele>455.0</ele><time>2026-05-02T07:14:43.999Z</time></trkpt><trkpt lat="44.764298974648376" lon="9.942047571363428"><ele>455.0</ele><time>2026-05-02T07:14:44.999Z</time></trkpt><trkpt lat="44.76442235079362" lon="9.941962513861613"><ele>455.0</ele><time>2026-05-02T07:14:45.999Z</time></trkpt><trkpt lat="44.76454516086083" lon="9.94186926912847"><ele>455.0</ele><time>2026-05-02T07:14:46.999Z</time></trkpt><trkpt lat="44.76466814134195" lon="9.94176849180103"><ele>452.25</ele><time>2026-05-02T07:14:47.999Z</time></trkpt><trkpt lat="44.76479397806271" lon="9.941667309499081"><ele>449.5</ele><time>2026-05-02T07:14:48.999Z</time></trkpt><trkpt lat="44.76492089930067" lon="9.941566438033297"><ele>446.75</ele><time>2026-05-02T07:14:49.999Z</time></trkpt><trkpt lat="44.76504973937519" lon="9.94146557644556"><ele>444.0</ele><time>2026-05-02T07:14:50.999Z</time></trkpt><trkpt lat="44.765180468113286" lon="9.941364903980876"><ele>441.0</ele><time>2026-05-02T07:14:51.999Z</time></trkpt><trkpt lat="44.76531266291317" lon="9.941266066029263"><ele>438.0</ele><time>2026-05-02T07:14:52.999Z</time></trkpt><trkpt lat="44.76544554272347" lon="9.941168006853612"><ele>435.0</ele><time>2026-05-02T07:14:53.999Z</time></trkpt><trkpt lat="44.76557883887761" lon="9.941071862818726"><ele>432.0</ele><time>2026-05-02T07:14:54.999Z</time></trkpt><trkpt lat="44.765713353728636" lon="9.94098398299612"><ele>432.0</ele><time>2026-05-02T07:14:55.999Z</time></trkpt><trkpt lat="44.76585527739414" lon="9.940916208064024"><ele>432.0</ele><time>2026-05-02T07:14:56.999Z</time></trkpt><trkpt lat="44.76599765230085" lon="9.940860613567605"><ele>432.0</ele><time>2026-05-02T07:14:57.999Z</time></trkpt><trkpt lat="44.76613774484328" lon="9.940800858577067"><ele>432.0</ele><time>2026-05-02T07:14:58.999Z</time></trkpt><trkpt lat="44.76627840537461" lon="9.940745161754194"><ele>432.0</ele><time>2026-05-02T07:14:59.999Z</time></trkpt><trkpt lat="44.76641878844323" lon="9.940685939237524"><ele>432.0</ele><time>2026-05-02T07:15:00.999Z</time></trkpt><trkpt lat="44.766559403136526" lon="9.940624387339703"><ele>432.0</ele><time>2026-05-02T07:15:01.999Z</time></trkpt><trkpt lat="44.76670037502862" lon="9.94057472790243"><ele>432.0</ele><time>2026-05-02T07:15:02.999Z</time></trkpt><trkpt lat="44.76684279648913" lon="9.940538931759496"><ele>431.25</ele><time>2026-05-02T07:15:03.999Z</time></trkpt><trkpt lat="44.76698801693795" lon="9.940504512571465"><ele>430.5</ele><time>2026-05-02T07:15:04.999Z</time></trkpt><trkpt lat="44.76713401190318" lon="9.940466009214939"><ele>429.75</ele><time>2026-05-02T07:15:05.999Z</time></trkpt><trkpt lat="44.76728108185268" lon="9.940435854683088"><ele>429.0</ele><time>2026-05-02T07:15:06.999Z</time></trkpt><trkpt lat="44.767424421152015" lon="9.940402449036073"><ele>429.0</ele><time>2026-05-02T07:15:07.999Z</time></trkpt><trkpt lat="44.76756217251622" lon="9.940366222049311"><ele>429.0</ele><time>2026-05-02T07:15:08.999Z</time></trkpt><trkpt lat="44.7676948007157" lon="9.940335021486591"><ele>429.0</ele><time>2026-05-02T07:15:09.999Z</time></trkpt><trkpt lat="44.76782673478563" lon="9.940333143833728"><ele>429.0</ele><time>2026-05-02T07:15:10.999Z</time></trkpt><trkpt lat="44.76795721090975" lon="9.940361583854857"><ele>428.0</ele><time>2026-05-02T07:15:11.999Z</time></trkpt><trkpt lat="44.76808507099232" lon="9.94040554378059"><ele>427.0</ele><time>2026-05-02T07:15:12.999Z</time></trkpt><trkpt lat="44.76820233602972" lon="9.940476441707712"><ele>426.0</ele><time>2026-05-02T07:15:13.999Z</time></trkpt><trkpt lat="44.76830512830503" lon="9.940554234116467"><ele>425.0</ele><time>2026-05-02T07:15:14.999Z</time></trkpt><trkpt lat="44.76839899476681" lon="9.940665743719453"><ele>425.0</ele><time>2026-05-02T07:15:15.999Z</time></trkpt><trkpt lat="44.768475566660904" lon="9.940797881279178"><ele>425.0</ele><time>2026-05-02T07:15:16.999Z</time></trkpt><trkpt lat="44.76850660687279" lon="9.94096312413998"><ele>425.0</ele><time>2026-05-02T07:15:17.999Z</time></trkpt><trkpt lat="44.768540914741735" lon="9.94112582502408"><ele>425.0</ele><time>2026-05-02T07:15:18.999Z</time></trkpt><trkpt lat="44.76859271970678" lon="9.94128342066637"><ele>422.5</ele><time>2026-05-02T07:15:19.999Z</time></trkpt><trkpt lat="44.76865332379105" lon="9.941430380285809"><ele>420.0</ele><time>2026-05-02T07:15:20.999Z</time></trkpt><trkpt lat="44.768748921317126" lon="9.941542929032558"><ele>417.5</ele><time>2026-05-02T07:15:21.999Z</time></trkpt><trkpt lat="44.76885701930237" lon="9.941623498138442"><ele>415.0</ele><time>2026-05-02T07:15:22.999Z</time></trkpt><trkpt lat="44.76897084640596" lon="9.941689580470971"><ele>414.0</ele><time>2026-05-02T07:15:23.999Z</time></trkpt><trkpt lat="44.76908744386268" lon="9.941751274373633"><ele>413.0</ele><time>2026-05-02T07:15:24.999Z</time></trkpt><trkpt lat="44.76921021449348" lon="9.94178293912861"><ele>412.0</ele><time>2026-05-02T07:15:25.999Z</time></trkpt><trkpt lat="44.769335734621826" lon="9.941801350893893"><ele>411.0</ele><time>2026-05-02T07:15:26.998Z</time></trkpt><trkpt lat="44.76946576119517" lon="9.941785160624162"><ele>411.25</ele><time>2026-05-02T07:15:27.998Z</time></trkpt><trkpt lat="44.76958892746615" lon="9.941722774526541"><ele>411.5</ele><time>2026-05-02T07:15:28.998Z</time></trkpt><trkpt lat="44.76970178035299" lon="9.941629095450148"><ele>411.75</ele><time>2026-05-02T07:15:29.998Z</time></trkpt><trkpt lat="44.76980595592836" lon="9.94151746773037"><ele>412.0</ele><time>2026-05-02T07:15:30.998Z</time></trkpt><trkpt lat="44.76990077305005" lon="9.941390224100397"><ele>412.0</ele><time>2026-05-02T07:15:31.998Z</time></trkpt><trkpt lat="44.76997757957658" lon="9.941241119007369"><ele>412.0</ele><time>2026-05-02T07:15:32.998Z</time></trkpt><trkpt lat="44.770038833417296" lon="9.941078353816561"><ele>412.0</ele><time>2026-05-02T07:15:33.998Z</time></trkpt><trkpt lat="44.77009196703501" lon="9.940910069206714"><ele>412.0</ele><time>2026-05-02T07:15:34.998Z</time></trkpt><trkpt lat="44.770148482127595" lon="9.940748448868609"><ele>407.25</ele><time>2026-05-02T07:15:35.998Z</time></trkpt><trkpt lat="44.77020959752222" lon="9.940601857918667"><ele>402.5</ele><time>2026-05-02T07:15:36.998Z</time></trkpt><trkpt lat="44.77029175872395" lon="9.940481408719545"><ele>397.75</ele><time>2026-05-02T07:15:37.998Z</time></trkpt><trkpt lat="44.77039899621164" lon="9.940399983464513"><ele>393.0</ele><time>2026-05-02T07:15:38.998Z</time></trkpt><trkpt lat="44.77052005645591" lon="9.940353600612077"><ele>393.0</ele><time>2026-05-02T07:15:39.998Z</time></trkpt><trkpt lat="44.77064214108753" lon="9.940312054762103"><ele>393.0</ele><time>2026-05-02T07:15:40.998Z</time></trkpt><trkpt lat="44.770761958817594" lon="9.940248510552655"><ele>393.0</ele><time>2026-05-02T07:15:41.998Z</time></trkpt><trkpt lat="44.77087928546664" lon="9.94015591661159"><ele>393.0</ele><time>2026-05-02T07:15:42.998Z</time></trkpt><trkpt lat="44.77099319097641" lon="9.940062582280083"><ele>389.25</ele><time>2026-05-02T07:15:43.998Z</time></trkpt><trkpt lat="44.771109062710806" lon="9.939974124554594"><ele>385.5</ele><time>2026-05-02T07:15:44.998Z</time></trkpt><trkpt lat="44.771225773486414" lon="9.939899772066266"><ele>381.75</ele><time>2026-05-02T07:15:45.998Z</time></trkpt><trkpt lat="44.771333403948056" lon="9.939837890466066"><ele>378.0</ele><time>2026-05-02T07:15:46.998Z</time></trkpt><trkpt lat="44.771437744622055" lon="9.939778926513846"><ele>378.0</ele><time>2026-05-02T07:15:47.998Z</time></trkpt><trkpt lat="44.77154428216732" lon="9.939723958335579"><ele>378.0</ele><time>2026-05-02T07:15:48.998Z</time></trkpt><trkpt lat="44.771634965903935" lon="9.939656247868548"><ele>378.0</ele><time>2026-05-02T07:15:49.998Z</time></trkpt><trkpt lat="44.77170993456964" lon="9.939549496058527"><ele>378.0</ele><time>2026-05-02T07:15:50.998Z</time></trkpt><trkpt lat="44.77175760848782" lon="9.939409002670873"><ele>378.0</ele><time>2026-05-02T07:15:51.998Z</time></trkpt><trkpt lat="44.77178752559393" lon="9.939252934000745"><ele>380.59999999999997</ele><time>2026-05-02T07:15:52.998Z</time></trkpt><trkpt lat="44.7717934351226" lon="9.939091173456537"><ele>383.2</ele><time>2026-05-02T07:15:53.998Z</time></trkpt><trkpt lat="44.771767868436775" lon="9.938940135553029"><ele>385.8</ele><time>2026-05-02T07:15:54.998Z</time></trkpt><trkpt lat="44.771709071177796" lon="9.938818130848952"><ele>388.4</ele><time>2026-05-02T07:15:55.998Z</time></trkpt><trkpt lat="44.77163736957312" lon="9.93870304448434"><ele>391.0</ele><time>2026-05-02T07:15:56.998Z</time></trkpt><trkpt lat="44.771551917665164" lon="9.938613558025537"><ele>391.0</ele><time>2026-05-02T07:15:57.998Z</time></trkpt><trkpt lat="44.771455332928646" lon="9.938556336049126"><ele>391.0</ele><time>2026-05-02T07:15:58.998Z</time></trkpt><trkpt lat="44.77134970929721" lon="9.938542347266075"><ele>391.0</ele><time>2026-05-02T07:15:59.998Z</time></trkpt><trkpt lat="44.77124378245865" lon="9.938581348177337"><ele>391.0</ele><time>2026-05-02T07:16:00.998Z</time></trkpt><trkpt lat="44.77113971657872" lon="9.938631168709641"><ele>391.0</ele><time>2026-05-02T07:16:01.998Z</time></trkpt><trkpt lat="44.771033412762755" lon="9.93866776329847"><ele>390.8</ele><time>2026-05-02T07:16:02.998Z</time></trkpt><trkpt lat="44.77092124992773" lon="9.938670611260127"><ele>390.6</ele><time>2026-05-02T07:16:03.998Z</time></trkpt><trkpt lat="44.77082358538433" lon="9.938669734069515"><ele>390.4</ele><time>2026-05-02T07:16:04.998Z</time></trkpt><trkpt lat="44.770741244318664" lon="9.938626246365327"><ele>390.2</ele><time>2026-05-02T07:16:05.998Z</time></trkpt><trkpt lat="44.770661410695475" lon="9.938557236997351"><ele>390.0</ele><time>2026-05-02T07:16:06.998Z</time></trkpt><trkpt lat="44.770577858372285" lon="9.9384756103294"><ele>390.0</ele><time>2026-05-02T07:16:07.998Z</time></trkpt><trkpt lat="44.77048181194539" lon="9.938402978147085"><ele>390.0</ele><time>2026-05-02T07:16:08.998Z</time></trkpt><trkpt lat="44.77039698386243" lon="9.93831061242711"><ele>390.0</ele><time>2026-05-02T07:16:09.998Z</time></trkpt><trkpt lat="44.770302814855256" lon="9.938225352741474"><ele>390.0</ele><time>2026-05-02T07:16:10.998Z</time></trkpt><trkpt lat="44.77020992036895" lon="9.93813420842551"><ele>390.0</ele><time>2026-05-02T07:16:11.998Z</time></trkpt><trkpt lat="44.77014896168844" lon="9.938011830346381"><ele>387.8</ele><time>2026-05-02T07:16:12.998Z</time></trkpt><trkpt lat="44.77013805885024" lon="9.937873714407365"><ele>385.6</ele><time>2026-05-02T07:16:13.998Z</time></trkpt><trkpt lat="44.770171016818345" lon="9.937745936441896"><ele>383.4</ele><time>2026-05-02T07:16:14.998Z</time></trkpt><trkpt lat="44.77023357530529" lon="9.937651605534043"><ele>381.2</ele><time>2026-05-02T07:16:16Z</time></trkpt><trkpt lat="44.77032370655027" lon="9.937613266696136"><ele>379.0</ele><time>2026-05-02T07:16:17Z</time></trkpt><trkpt lat="44.77041501068447" lon="9.937621922822578"><ele>379.0</ele><time>2026-05-02T07:16:18Z</time></trkpt><trkpt lat="44.77049430459301" lon="9.937674187977256"><ele>379.0</ele><time>2026-05-02T07:16:19Z</time></trkpt><trkpt lat="44.77055482410215" lon="9.937767978361105"><ele>379.0</ele><time>2026-05-02T07:16:20Z</time></trkpt><trkpt lat="44.77059651893053" lon="9.937892079849023"><ele>379.0</ele><time>2026-05-02T07:16:21Z</time></trkpt><trkpt lat="44.770655828246746" lon="9.937991272482131"><ele>379.0</ele><time>2026-05-02T07:16:22Z</time></trkpt><trkpt lat="44.77074108836638" lon="9.938063648664532"><ele>379.0</ele><time>2026-05-02T07:16:23Z</time></trkpt><trkpt lat="44.770843558088366" lon="9.938078732166508"><ele>379.0</ele><time>2026-05-02T07:16:24Z</time></trkpt><trkpt lat="44.770938404389454" lon="9.93803097681503"><ele>379.0</ele><time>2026-05-02T07:16:25Z</time></trkpt><trkpt lat="44.77101762197326" lon="9.937934627056084"><ele>379.0</ele><time>2026-05-02T07:16:26Z</time></trkpt><trkpt lat="44.77108258632585" lon="9.937826510629035"><ele>379.0</ele><time>2026-05-02T07:16:27Z</time></trkpt><trkpt lat="44.77116012040753" lon="9.93773731752574"><ele>378.79999999999995</ele><time>2026-05-02T07:16:28Z</time></trkpt><trkpt lat="44.7712447403087" lon="9.937657733496096"><ele>378.59999999999997</ele><time>2026-05-02T07:16:29Z</time></trkpt><trkpt lat="44.77134606795386" lon="9.937622879276123"><ele>378.4</ele><time>2026-05-02T07:16:30Z</time></trkpt><trkpt lat="44.77144839815301" lon="9.937635670097846"><ele>378.2</ele><time>2026-05-02T07:16:31Z</time></trkpt><trkpt lat="44.77154349930578" lon="9.937682384614977"><ele>378.0</ele><time>2026-05-02T07:16:32Z</time></trkpt><trkpt lat="44.771618150171776" lon="9.937707049130957"><ele>378.0</ele><time>2026-05-02T07:16:33Z</time></trkpt><trkpt lat="44.77168306925083" lon="9.937677346216038"><ele>378.0</ele><time>2026-05-02T07:16:34Z</time></trkpt><trkpt lat="44.77170566731791" lon="9.937499527322382"><ele>378.0</ele><time>2026-05-02T07:16:36Z</time></trkpt><trkpt lat="44.77163216023687" lon="9.937444400726125"><ele>378.0</ele><time>2026-05-02T07:16:37Z</time></trkpt><trkpt lat="44.77156109207432" lon="9.937425726185571"><ele>378.0</ele><time>2026-05-02T07:16:38Z</time></trkpt><trkpt lat="44.77149430859352" lon="9.937413364545185"><ele>378.0</ele><time>2026-05-02T07:16:38.999Z</time></trkpt><trkpt lat="44.77142591216978" lon="9.937399529922402"><ele>375.42857142857144</ele><time>2026-05-02T07:16:39.999Z</time></trkpt><trkpt lat="44.77135486842757" lon="9.937379485941738"><ele>372.8571428571429</ele><time>2026-05-02T07:16:40.999Z</time></trkpt><trkpt lat="44.77127976534434" lon="9.937359663964367"><ele>370.2857142857143</ele><time>2026-05-02T07:16:41.999Z</time></trkpt><trkpt lat="44.77120419126111" lon="9.93733817626545"><ele>367.7142857142857</ele><time>2026-05-02T07:16:42.999Z</time></trkpt><trkpt lat="44.77113869564752" lon="9.93731205217444"><ele>365.14285714285717</ele><time>2026-05-02T07:16:43.999Z</time></trkpt><trkpt lat="44.77110375374236" lon="9.937234526714855"><ele>362.57142857142856</ele><time>2026-05-02T07:16:44.999Z</time></trkpt><trkpt lat="44.771115381649516" lon="9.937140785954059"><ele>360.0</ele><time>2026-05-02T07:16:45.999Z</time></trkpt><trkpt lat="44.771177265400965" lon="9.937081436773466"><ele>360.0</ele><time>2026-05-02T07:16:46.999Z</time></trkpt><trkpt lat="44.771264721817445" lon="9.937093322863706"><ele>360.0</ele><time>2026-05-02T07:16:47.999Z</time></trkpt><trkpt lat="44.77134848370205" lon="9.937152484187587"><ele>360.0</ele><time>2026-05-02T07:16:48.999Z</time></trkpt><trkpt lat="44.77143298288078" lon="9.93716649558756"><ele>360.0</ele><time>2026-05-02T07:16:49.999Z</time></trkpt><trkpt lat="44.771520988524294" lon="9.937199410283299"><ele>360.0</ele><time>2026-05-02T07:16:50.999Z</time></trkpt><trkpt lat="44.77161141342977" lon="9.937229100902764"><ele>360.0</ele><time>2026-05-02T07:16:51.999Z</time></trkpt><trkpt lat="44.77170668867421" lon="9.937260101025274"><ele>360.0</ele><time>2026-05-02T07:16:52.999Z</time></trkpt><trkpt lat="44.771806523013645" lon="9.937288719308256"><ele>360.0</ele><time>2026-05-02T07:16:53.999Z</time></trkpt><trkpt lat="44.771908589471174" lon="9.937319385652838"><ele>360.0</ele><time>2026-05-02T07:16:54.999Z</time></trkpt><trkpt lat="44.77201444393344" lon="9.937350860181176"><ele>360.0</ele><time>2026-05-02T07:16:55.999Z</time></trkpt><trkpt lat="44.77212195782824" lon="9.93739117962441"><ele>361.75</ele><time>2026-05-02T07:16:56.999Z</time></trkpt><trkpt lat="44.77223500063741" lon="9.93743131520345"><ele>363.5</ele><time>2026-05-02T07:16:57.999Z</time></trkpt><trkpt lat="44.772345140516244" lon="9.937474969947695"><ele>365.25</ele><time>2026-05-02T07:16:58.999Z</time></trkpt><trkpt lat="44.77246008617567" lon="9.937525029457401"><ele>367.0</ele><time>2026-05-02T07:16:59.999Z</time></trkpt><trkpt lat="44.77256506950667" lon="9.937577145955753"><ele>367.0</ele><time>2026-05-02T07:17:00.999Z</time></trkpt><trkpt lat="44.77265273310695" lon="9.937625909318774"><ele>367.0</ele><time>2026-05-02T07:17:01.999Z</time></trkpt><trkpt lat="44.772729708550635" lon="9.937666311947032"><ele>367.0</ele><time>2026-05-02T07:17:02.999Z</time></trkpt><trkpt lat="44.772806614009674" lon="9.937665090619511"><ele>367.0</ele><time>2026-05-02T07:17:03.999Z</time></trkpt><trkpt lat="44.77288538978734" lon="9.937516579589746"><ele>367.0</ele><time>2026-05-02T07:17:05.999Z</time></trkpt><trkpt lat="44.772840817048284" lon="9.937394783791978"><ele>364.7142857142857</ele><time>2026-05-02T07:17:06.999Z</time></trkpt><trkpt lat="44.772755324579634" lon="9.937348079802366"><ele>362.42857142857144</ele><time>2026-05-02T07:17:07.999Z</time></trkpt><trkpt lat="44.772689524254396" lon="9.937299059095366"><ele>360.14285714285717</ele><time>2026-05-02T07:17:08.999Z</time></trkpt><trkpt lat="44.77262362035783" lon="9.937245412320992"><ele>357.8571428571429</ele><time>2026-05-02T07:17:09.999Z</time></trkpt><trkpt lat="44.77256342155688" lon="9.937186353799296"><ele>355.57142857142856</ele><time>2026-05-02T07:17:10.999Z</time></trkpt><trkpt lat="44.77254350348696" lon="9.937096640418545"><ele>353.28571428571433</ele><time>2026-05-02T07:17:11.999Z</time></trkpt><trkpt lat="44.77255930929671" lon="9.937010723374444"><ele>351.0</ele><time>2026-05-02T07:17:12.999Z</time></trkpt><trkpt lat="44.77261787647113" lon="9.93694828663813"><ele>348.5</ele><time>2026-05-02T07:17:13.999Z</time></trkpt><trkpt lat="44.77270311707087" lon="9.93697362479021"><ele>346.0</ele><time>2026-05-02T07:17:14.999Z</time></trkpt><trkpt lat="44.77276946963942" lon="9.937024350337058"><ele>343.5</ele><time>2026-05-02T07:17:15.999Z</time></trkpt><trkpt lat="44.772852573034676" lon="9.937056463307547"><ele>341.0</ele><time>2026-05-02T07:17:16.999Z</time></trkpt><trkpt lat="44.772928648545545" lon="9.937111842060744"><ele>338.5</ele><time>2026-05-02T07:17:17.999Z</time></trkpt><trkpt lat="44.77301570784777" lon="9.937164366781532"><ele>336.0</ele><time>2026-05-02T07:17:18.999Z</time></trkpt><trkpt lat="44.77310435431534" lon="9.937220322897067"><ele>336.0</ele><time>2026-05-02T07:17:19.999Z</time></trkpt><trkpt lat="44.77319389734218" lon="9.93727799892615"><ele>336.0</ele><time>2026-05-02T07:17:20.999Z</time></trkpt><trkpt lat="44.7732882436235" lon="9.937330769769183"><ele>336.0</ele><time>2026-05-02T07:17:21.999Z</time></trkpt><trkpt lat="44.77337934566487" lon="9.937382826346221"><ele>336.0</ele><time>2026-05-02T07:17:22.999Z</time></trkpt><trkpt lat="44.77347179538092" lon="9.937438672488577"><ele>336.0</ele><time>2026-05-02T07:17:23.999Z</time></trkpt><trkpt lat="44.773560799998364" lon="9.937498055958976"><ele>335.8333333333333</ele><time>2026-05-02T07:17:24.999Z</time></trkpt><trkpt lat="44.77363978426361" lon="9.937549487752687"><ele>335.6666666666667</ele><time>2026-05-02T07:17:25.999Z</time></trkpt><trkpt lat="44.77370153924673" lon="9.937590184007062"><ele>335.5</ele><time>2026-05-02T07:17:26.999Z</time></trkpt><trkpt lat="44.773773498192455" lon="9.937657689359833"><ele>335.33333333333337</ele><time>2026-05-02T07:17:28.999Z</time></trkpt><trkpt lat="44.77384292167804" lon="9.93770428835589"><ele>335.1666666666667</ele><time>2026-05-02T07:17:31.998Z</time></trkpt><trkpt lat="44.77383944523629" lon="9.937603664147042"><ele>335.0</ele><time>2026-05-02T07:17:34.998Z</time></trkpt><trkpt lat="44.77376976576017" lon="9.937573125282459"><ele>335.0</ele><time>2026-05-02T07:17:38.998Z</time></trkpt><trkpt lat="44.77370979938901" lon="9.937524032263914"><ele>335.0</ele><time>2026-05-02T07:17:41.998Z</time></trkpt><trkpt lat="44.77364154623535" lon="9.937478200176482"><ele>335.0</ele><time>2026-05-02T07:17:44.998Z</time></trkpt><trkpt lat="44.7735618299553" lon="9.937426589727167"><ele>335.0</ele><time>2026-05-02T07:17:47.998Z</time></trkpt><trkpt lat="44.773475609513866" lon="9.937378766705114"><ele>335.0</ele><time>2026-05-02T07:17:50.998Z</time></trkpt><trkpt lat="44.77339073210097" lon="9.937329781307186"><ele>335.0</ele><time>2026-05-02T07:17:53.998Z</time></trkpt><trkpt lat="44.77331906095531" lon="9.937289053294837"><ele>335.1428571428571</ele><time>2026-05-02T07:17:56.998Z</time></trkpt><trkpt lat="44.773242573101996" lon="9.937255366812431"><ele>335.2857142857143</ele><time>2026-05-02T07:17:59.998Z</time></trkpt><trkpt lat="44.77317186926183" lon="9.937214883144906"><ele>335.42857142857144</ele><time>2026-05-02T07:18:02.998Z</time></trkpt><trkpt lat="44.77309978643235" lon="9.937190299552029"><ele>335.57142857142856</ele><time>2026-05-02T07:18:05.998Z</time></trkpt><trkpt lat="44.77303192459261" lon="9.937147652433714"><ele>335.7142857142857</ele><time>2026-05-02T07:18:08.998Z</time></trkpt><trkpt lat="44.772972169551394" lon="9.93710575797603"><ele>335.85714285714283</ele><time>2026-05-02T07:18:11.998Z</time></trkpt><trkpt lat="44.77291241510607" lon="9.937072336218893"><ele>336.0</ele><time>2026-05-02T07:18:14.998Z</time></trkpt><trkpt lat="44.77283921319779" lon="9.937015832725896"><ele>336.0</ele><time>2026-05-02T07:18:19.998Z</time></trkpt><trkpt lat="44.77277412621193" lon="9.936968496772398"><ele>336.0</ele><time>2026-05-02T07:18:24Z</time></trkpt><trkpt lat="44.77270227185805" lon="9.936930144843844"><ele>336.0</ele><time>2026-05-02T07:18:28Z</time></trkpt><trkpt lat="44.77263943270183" lon="9.936916098957036"><ele>336.0</ele><time>2026-05-02T07:18:31Z</time></trkpt><trkpt lat="44.77257175782694" lon="9.936942555775953"><ele>336.0</ele><time>2026-05-02T07:18:34Z</time></trkpt><trkpt lat="44.77253008447285" lon="9.937032061400581"><ele>336.0</ele><time>2026-05-02T07:18:37Z</time></trkpt><trkpt lat="44.77252645094387" lon="9.93712983031727"><ele>336.0</ele><time>2026-05-02T07:18:40Z</time></trkpt><trkpt lat="44.772570790604995" lon="9.937220552586165"><ele>336.0</ele><time>2026-05-02T07:18:43.999Z</time></trkpt><trkpt lat="44.772619928224074" lon="9.937278462807445"><ele>336.0</ele><time>2026-05-02T07:18:46.999Z</time></trkpt><trkpt lat="44.772678512414835" lon="9.93733439135494"><ele>336.0</ele><time>2026-05-02T07:18:49.999Z</time></trkpt><trkpt lat="44.77273959021055" lon="9.937390306915358"><ele>336.0</ele><time>2026-05-02T07:18:52.999Z</time></trkpt><trkpt lat="44.7728056864281" lon="9.93746188666584"><ele>336.0</ele><time>2026-05-02T07:18:55.999Z</time></trkpt><trkpt lat="44.77283343119164" lon="9.937552404233081"><ele>336.0</ele><time>2026-05-02T07:18:59.999Z</time></trkpt><trkpt lat="44.77278195707289" lon="9.937617605358355"><ele>336.0</ele><time>2026-05-02T07:19:02.999Z</time></trkpt><trkpt lat="44.77271078400525" lon="9.937593186999587"><ele>338.14285714285717</ele><time>2026-05-02T07:19:06.999Z</time></trkpt><trkpt lat="44.77264511051656" lon="9.937564155813075"><ele>340.2857142857143</ele><time>2026-05-02T07:19:09.999Z</time></trkpt><trkpt lat="44.77258164494436" lon="9.937536524684797"><ele>342.42857142857144</ele><time>2026-05-02T07:19:12.999Z</time></trkpt><trkpt lat="44.77251005765448" lon="9.93749493853467"><ele>344.57142857142856</ele><time>2026-05-02T07:19:16.999Z</time></trkpt><trkpt lat="44.772442323024485" lon="9.937465474696058"><ele>346.7142857142857</ele><time>2026-05-02T07:19:19.999Z</time></trkpt><trkpt lat="44.772368343941224" lon="9.93743174921776"><ele>348.8571428571429</ele><time>2026-05-02T07:19:22.999Z</time></trkpt><trkpt lat="44.772293971417106" lon="9.937399647184884"><ele>351.0</ele><time>2026-05-02T07:19:25.999Z</time></trkpt><trkpt lat="44.772212801143525" lon="9.937369426099142"><ele>351.00000000000006</ele><time>2026-05-02T07:19:29.999Z</time></trkpt><trkpt lat="44.77214804818704" lon="9.937345153479056"><ele>351.0</ele><time>2026-05-02T07:19:32.999Z</time></trkpt><trkpt lat="44.77208242496123" lon="9.937327487479662"><ele>351.0</ele><time>2026-05-02T07:19:35.998Z</time></trkpt><trkpt lat="44.772020098464544" lon="9.937302433649078"><ele>351.0</ele><time>2026-05-02T07:19:38.998Z</time></trkpt><trkpt lat="44.771954448152194" lon="9.937278795831014"><ele>351.0</ele><time>2026-05-02T07:19:42.998Z</time></trkpt><trkpt lat="44.77187696430809" lon="9.9372601024784"><ele>351.00000000000006</ele><time>2026-05-02T07:19:45.998Z</time></trkpt><trkpt lat="44.77181270722191" lon="9.937236911401259"><ele>351.0</ele><time>2026-05-02T07:19:49.998Z</time></trkpt><trkpt lat="44.771748813576885" lon="9.937215361933916"><ele>352.28571428571433</ele><time>2026-05-02T07:19:52.998Z</time></trkpt><trkpt lat="44.77168138823592" lon="9.937196520046237"><ele>353.57142857142856</ele><time>2026-05-02T07:19:55.998Z</time></trkpt><trkpt lat="44.77160491977584" lon="9.937168245614023"><ele>354.8571428571429</ele><time>2026-05-02T07:19:59.998Z</time></trkpt><trkpt lat="44.771531043365336" lon="9.93714389382235"><ele>356.14285714285717</ele><time>2026-05-02T07:20:02.998Z</time></trkpt><trkpt lat="44.77145863969546" lon="9.937127280607791"><ele>357.42857142857144</ele><time>2026-05-02T07:20:06.998Z</time></trkpt><trkpt lat="44.771391859452145" lon="9.937109785257283"><ele>358.7142857142857</ele><time>2026-05-02T07:20:09.998Z</time></trkpt><trkpt lat="44.77132078562703" lon="9.937086927730308"><ele>360.0</ele><time>2026-05-02T07:20:12.998Z</time></trkpt><trkpt lat="44.77124234928012" lon="9.937074600076826"><ele>360.0</ele><time>2026-05-02T07:20:16.998Z</time></trkpt><trkpt lat="44.77117894791476" lon="9.937083839000273"><ele>360.0</ele><time>2026-05-02T07:20:19.998Z</time></trkpt><trkpt lat="44.77112357192144" lon="9.93712991077493"><ele>360.0</ele><time>2026-05-02T07:20:22.998Z</time></trkpt><trkpt lat="44.771098396826275" lon="9.937224081028296"><ele>360.0</ele><time>2026-05-02T07:20:25.998Z</time></trkpt><trkpt lat="44.771133400511374" lon="9.93731212024728"><ele>360.0</ele><time>2026-05-02T07:20:29Z</time></trkpt><trkpt lat="44.771192110106746" lon="9.93737185469107"><ele>360.0</ele><time>2026-05-02T07:20:32Z</time></trkpt><trkpt lat="44.771256733592125" lon="9.93739696068014"><ele>360.0</ele><time>2026-05-02T07:20:35Z</time></trkpt><trkpt lat="44.771337003401996" lon="9.937431269655715"><ele>360.0</ele><time>2026-05-02T07:20:39Z</time></trkpt><trkpt lat="44.77140786893942" lon="9.937458481833922"><ele>360.0</ele><time>2026-05-02T07:20:42Z</time></trkpt><trkpt lat="44.771486568863814" lon="9.937478041186948"><ele>360.0</ele><time>2026-05-02T07:20:45Z</time></trkpt><trkpt lat="44.77155177978311" lon="9.937496434881286"><ele>360.0</ele><time>2026-05-02T07:20:47.999Z</time></trkpt><trkpt lat="44.771613880953275" lon="9.937535624443672"><ele>360.0</ele><time>2026-05-02T07:20:50.999Z</time></trkpt><trkpt lat="44.77164389719488" lon="9.937647494193039"><ele>360.0</ele><time>2026-05-02T07:20:54.999Z</time></trkpt><trkpt lat="44.77156800391692" lon="9.937647383650479"><ele>360.0</ele><time>2026-05-02T07:20:58.999Z</time></trkpt><trkpt lat="44.771505440592904" lon="9.93761156390709"><ele>363.0</ele><time>2026-05-02T07:21:01.999Z</time></trkpt><trkpt lat="44.77142108944011" lon="9.9375808681651"><ele>366.0</ele><time>2026-05-02T07:21:04.999Z</time></trkpt><trkpt lat="44.77134220578345" lon="9.93757841015571"><ele>369.0</ele><time>2026-05-02T07:21:08.999Z</time></trkpt><trkpt lat="44.77127007763217" lon="9.937591955573614"><ele>372.0</ele><time>2026-05-02T07:21:11.999Z</time></trkpt><trkpt lat="44.77120404012846" lon="9.937634027451235"><ele>375.0</ele><time>2026-05-02T07:21:14.999Z</time></trkpt><trkpt lat="44.77113867801671" lon="9.93769439268026"><ele>378.0</ele><time>2026-05-02T07:21:17.999Z</time></trkpt><trkpt lat="44.77107000332253" lon="9.937782512370143"><ele>378.0</ele><time>2026-05-02T07:21:20.999Z</time></trkpt><trkpt lat="44.77102461977796" lon="9.937844345055712"><ele>378.0</ele><time>2026-05-02T07:21:22.999Z</time></trkpt><trkpt lat="44.770974567469246" lon="9.937908455649628"><ele>378.0</ele><time>2026-05-02T07:21:25.999Z</time></trkpt><trkpt lat="44.7709140821255" lon="9.937970831980088"><ele>378.0</ele><time>2026-05-02T07:21:28.999Z</time></trkpt><trkpt lat="44.770832087562596" lon="9.938012056138643"><ele>378.0</ele><time>2026-05-02T07:21:31.999Z</time></trkpt><trkpt lat="44.7707369458451" lon="9.93799997527851"><ele>378.0</ele><time>2026-05-02T07:21:34.999Z</time></trkpt><trkpt lat="44.77068151639864" lon="9.93794459529742"><ele>378.1666666666667</ele><time>2026-05-02T07:21:37.999Z</time></trkpt><trkpt lat="44.7706390326214" lon="9.937871153181103"><ele>378.3333333333333</ele><time>2026-05-02T07:21:40.998Z</time></trkpt><trkpt lat="44.770600160693306" lon="9.937793963137871"><ele>378.5</ele><time>2026-05-02T07:21:42.998Z</time></trkpt><trkpt lat="44.770549216789945" lon="9.937711919256225"><ele>378.66666666666663</ele><time>2026-05-02T07:21:45.998Z</time></trkpt><trkpt lat="44.770509640709136" lon="9.937635368713668"><ele>378.8333333333333</ele><time>2026-05-02T07:21:48.998Z</time></trkpt><trkpt lat="44.770425196098635" lon="9.937584603631278"><ele>379.0</ele><time>2026-05-02T07:21:51.998Z</time></trkpt><trkpt lat="44.77032806969756" lon="9.937574937977468"><ele>379.00000000000006</ele><time>2026-05-02T07:21:54.998Z</time></trkpt><trkpt lat="44.77026480892949" lon="9.937593215513692"><ele>379.0</ele><time>2026-05-02T07:21:56.998Z</time></trkpt><trkpt lat="44.77020560072235" lon="9.93764071789027"><ele>379.0</ele><time>2026-05-02T07:21:58.998Z</time></trkpt><trkpt lat="44.77015703435351" lon="9.937712739308898"><ele>379.0</ele><time>2026-05-02T07:22:00.998Z</time></trkpt><trkpt lat="44.77012460576558" lon="9.93779535898733"><ele>379.0</ele><time>2026-05-02T07:22:02.998Z</time></trkpt><trkpt lat="44.77010886087487" lon="9.937883996314387"><ele>379.00000000000006</ele><time>2026-05-02T07:22:04.998Z</time></trkpt><trkpt lat="44.77011260047224" lon="9.937987003861366"><ele>379.0</ele><time>2026-05-02T07:22:06.998Z</time></trkpt><trkpt lat="44.77013957585836" lon="9.93809821028462"><ele>379.00000000000006</ele><time>2026-05-02T07:22:08.998Z</time></trkpt><trkpt lat="44.77018470743236" lon="9.938167555593521"><ele>379.0</ele><time>2026-05-02T07:22:10.998Z</time></trkpt><trkpt lat="44.770231860148044" lon="9.938226729764768"><ele>379.0</ele><time>2026-05-02T07:22:12.998Z</time></trkpt><trkpt lat="44.77028501450542" lon="9.938276950098437"><ele>379.0</ele><time>2026-05-02T07:22:14.998Z</time></trkpt><trkpt lat="44.77036364118555" lon="9.938344053579272"><ele>379.0</ele><time>2026-05-02T07:22:17.998Z</time></trkpt><trkpt lat="44.77042979017615" lon="9.938414989645567"><ele>379.00000000000006</ele><time>2026-05-02T07:22:20.998Z</time></trkpt><trkpt lat="44.770498433552284" lon="9.93847328770661"><ele>379.0</ele><time>2026-05-02T07:22:23.998Z</time></trkpt><trkpt lat="44.770565563033" lon="9.938540064332717"><ele>380.5714285714286</ele><time>2026-05-02T07:22:26.998Z</time></trkpt><trkpt lat="44.77063137711638" lon="9.938594017878128"><ele>382.14285714285717</ele><time>2026-05-02T07:22:29.998Z</time></trkpt><trkpt lat="44.770690440489616" lon="9.938640548829941"><ele>383.7142857142857</ele><time>2026-05-02T07:22:33Z</time></trkpt><trkpt lat="44.770748313105216" lon="9.938687189910883"><ele>385.28571428571433</ele><time>2026-05-02T07:22:37Z</time></trkpt><trkpt lat="44.77080908257989" lon="9.938717246429839"><ele>386.85714285714283</ele><time>2026-05-02T07:22:40Z</time></trkpt><trkpt lat="44.7708742580507" lon="9.938724452782825"><ele>388.42857142857144</ele><time>2026-05-02T07:22:43Z</time></trkpt><trkpt lat="44.77095620130832" lon="9.93871766632666"><ele>390.0</ele><time>2026-05-02T07:22:46Z</time></trkpt><trkpt lat="44.77103823250691" lon="9.938693567704593"><ele>390.1428571428571</ele><time>2026-05-02T07:22:49Z</time></trkpt><trkpt lat="44.771112111008534" lon="9.938671322630332"><ele>390.2857142857143</ele><time>2026-05-02T07:22:51.999Z</time></trkpt><trkpt lat="44.77118342937855" lon="9.938653321193081"><ele>390.42857142857144</ele><time>2026-05-02T07:22:54.999Z</time></trkpt><trkpt lat="44.77124979392575" lon="9.938636175621648"><ele>390.57142857142856</ele><time>2026-05-02T07:22:57.999Z</time></trkpt><trkpt lat="44.77131253572329" lon="9.93861701676711"><ele>390.7142857142857</ele><time>2026-05-02T07:23:00.999Z</time></trkpt><trkpt lat="44.77138426994169" lon="9.938606212089956"><ele>390.85714285714283</ele><time>2026-05-02T07:23:03.999Z</time></trkpt><trkpt lat="44.77145812081675" lon="9.938640650636646"><ele>391.0</ele><time>2026-05-02T07:23:06.999Z</time></trkpt><trkpt lat="44.77152828999783" lon="9.938686836364678"><ele>390.99999999999994</ele><time>2026-05-02T07:23:09.999Z</time></trkpt><trkpt lat="44.771588343063456" lon="9.938745437258738"><ele>391.0</ele><time>2026-05-02T07:23:12.999Z</time></trkpt><trkpt lat="44.77163996823868" lon="9.938819507894857"><ele>391.0</ele><time>2026-05-02T07:23:15.999Z</time></trkpt><trkpt lat="44.77168479406535" lon="9.938902608570642"><ele>391.0</ele><time>2026-05-02T07:23:18.999Z</time></trkpt><trkpt lat="44.77171207252831" lon="9.938987965854395"><ele>391.0</ele><time>2026-05-02T07:23:21.999Z</time></trkpt><trkpt lat="44.77173721703777" lon="9.939098024097682"><ele>390.99999999999994</ele><time>2026-05-02T07:23:25.999Z</time></trkpt><trkpt lat="44.7717403862845" lon="9.93919474087894"><ele>391.0</ele><time>2026-05-02T07:23:28.999Z</time></trkpt><trkpt lat="44.77172626160764" lon="9.939306802579997"><ele>389.1428571428571</ele><time>2026-05-02T07:23:31.999Z</time></trkpt><trkpt lat="44.77170607268452" lon="9.939391590606773"><ele>387.2857142857143</ele><time>2026-05-02T07:23:34.999Z</time></trkpt><trkpt lat="44.77167747942631" lon="9.939474672678044"><ele>385.42857142857144</ele><time>2026-05-02T07:23:37.999Z</time></trkpt><trkpt lat="44.77163664331246" lon="9.939554878036953"><ele>383.57142857142856</ele><time>2026-05-02T07:23:40.999Z</time></trkpt><trkpt lat="44.771585498350426" lon="9.939619223990206"><ele>381.7142857142857</ele><time>2026-05-02T07:23:43.998Z</time></trkpt><trkpt lat="44.771525725457785" lon="9.939662250013194"><ele>379.85714285714283</ele><time>2026-05-02T07:23:46.998Z</time></trkpt><trkpt lat="44.771456959879444" lon="9.939705548437438"><ele>378.0</ele><time>2026-05-02T07:23:49.998Z</time></trkpt><trkpt lat="44.77138699951782" lon="9.939743385263398"><ele>378.0</ele><time>2026-05-02T07:23:53.998Z</time></trkpt><trkpt lat="44.77131815466949" lon="9.939772465504605"><ele>378.0</ele><time>2026-05-02T07:23:56.998Z</time></trkpt><trkpt lat="44.77125254504343" lon="9.939797947139775"><ele>378.0</ele><time>2026-05-02T07:23:59.998Z</time></trkpt><trkpt lat="44.77119010677711" lon="9.93983879215114"><ele>378.0</ele><time>2026-05-02T07:24:02.998Z</time></trkpt><trkpt lat="44.771128126086204" lon="9.939885535208946"><ele>378.0</ele><time>2026-05-02T07:24:05.998Z</time></trkpt><trkpt lat="44.77106081245448" lon="9.939940923162684"><ele>378.0</ele><time>2026-05-02T07:24:08.998Z</time></trkpt><trkpt lat="44.770993654421574" lon="9.940001025946323"><ele>378.0</ele><time>2026-05-02T07:24:11.998Z</time></trkpt><trkpt lat="44.77092065287455" lon="9.940063583979192"><ele>380.14285714285717</ele><time>2026-05-02T07:24:14.998Z</time></trkpt><trkpt lat="44.770863605129975" lon="9.940113344171728"><ele>382.2857142857143</ele><time>2026-05-02T07:24:17.998Z</time></trkpt><trkpt lat="44.77080698855716" lon="9.940156680673633"><ele>384.42857142857144</ele><time>2026-05-02T07:24:20.998Z</time></trkpt><trkpt lat="44.77074606731662" lon="9.940199745570728"><ele>386.57142857142856</ele><time>2026-05-02T07:24:23.998Z</time></trkpt><trkpt lat="44.770683540278796" lon="9.940244993924551"><ele>388.7142857142857</ele><time>2026-05-02T07:24:26.998Z</time></trkpt><trkpt lat="44.77061363763211" lon="9.9402723761839"><ele>390.8571428571429</ele><time>2026-05-02T07:24:29.998Z</time></trkpt><trkpt lat="44.77053769073727" lon="9.94029621608838"><ele>393.0</ele><time>2026-05-02T07:24:32.998Z</time></trkpt><trkpt lat="44.770463767316905" lon="9.940317373349993"><ele>393.0</ele><time>2026-05-02T07:24:36.997Z</time></trkpt><trkpt lat="44.770392124976965" lon="9.940354790441669"><ele>393.0</ele><time>2026-05-02T07:24:40Z</time></trkpt><trkpt lat="44.77032232572398" lon="9.940407339168814"><ele>393.0</ele><time>2026-05-02T07:24:43Z</time></trkpt><trkpt lat="44.77025634804871" lon="9.94048015174175"><ele>393.0</ele><time>2026-05-02T07:24:46Z</time></trkpt><trkpt lat="44.770197711036744" lon="9.940575928013333"><ele>393.0</ele><time>2026-05-02T07:24:49Z</time></trkpt><trkpt lat="44.770154016690256" lon="9.940658304279326"><ele>393.0</ele><time>2026-05-02T07:24:52Z</time></trkpt><trkpt lat="44.77011547660027" lon="9.940752675607127"><ele>395.00000000000006</ele><time>2026-05-02T07:24:54.999Z</time></trkpt><trkpt lat="44.77008079404331" lon="9.940841820620788"><ele>397.0</ele><time>2026-05-02T07:24:56.999Z</time></trkpt><trkpt lat="44.77004257545187" lon="9.940929267537966"><ele>399.0</ele><time>2026-05-02T07:24:59.999Z</time></trkpt><trkpt lat="44.77000920328314" lon="9.941015117079091"><ele>401.0</ele><time>2026-05-02T07:25:02.999Z</time></trkpt><trkpt lat="44.76997865958462" lon="9.94111054986585"><ele>403.0</ele><time>2026-05-02T07:25:05.999Z</time></trkpt><trkpt lat="44.76994611035449" lon="9.941187956634165"><ele>405.00000000000006</ele><time>2026-05-02T07:25:07.999Z</time></trkpt><trkpt lat="44.769906653259675" lon="9.941267828308229"><ele>407.0</ele><time>2026-05-02T07:25:10.999Z</time></trkpt><trkpt lat="44.76986097715326" lon="9.941354535538864"><ele>407.8333333333333</ele><time>2026-05-02T07:25:13.999Z</time></trkpt><trkpt lat="44.76981021978247" lon="9.941429393270464"><ele>408.66666666666663</ele><time>2026-05-02T07:25:16.999Z</time></trkpt><trkpt lat="44.76975559507035" lon="9.941502042282396"><ele>409.5</ele><time>2026-05-02T07:25:19.999Z</time></trkpt><trkpt lat="44.769694325191765" lon="9.941567908131711"><ele>410.33333333333337</ele><time>2026-05-02T07:25:22.999Z</time></trkpt><trkpt lat="44.76962768249697" lon="9.941625948461313"><ele>411.1666666666667</ele><time>2026-05-02T07:25:25.999Z</time></trkpt><trkpt lat="44.76955591684324" lon="9.941673955824193"><ele>412.0</ele><time>2026-05-02T07:25:28.999Z</time></trkpt><trkpt lat="44.76947691879952" lon="9.94170876563172"><ele>411.85714285714283</ele><time>2026-05-02T07:25:31.999Z</time></trkpt><trkpt lat="44.76940189410826" lon="9.941723628494309"><ele>411.7142857142857</ele><time>2026-05-02T07:25:34.999Z</time></trkpt><trkpt lat="44.76933180219724" lon="9.94172320407903"><ele>411.57142857142856</ele><time>2026-05-02T07:25:37.999Z</time></trkpt><trkpt lat="44.769260489793126" lon="9.941727398348501"><ele>411.42857142857144</ele><time>2026-05-02T07:25:40.999Z</time></trkpt><trkpt lat="44.76918878675783" lon="9.941715437333063"><ele>411.2857142857143</ele><time>2026-05-02T07:25:43.999Z</time></trkpt><trkpt lat="44.769117680925746" lon="9.941690991851925"><ele>411.1428571428571</ele><time>2026-05-02T07:25:46.998Z</time></trkpt><trkpt lat="44.76904659466994" lon="9.941667625674734"><ele>411.0</ele><time>2026-05-02T07:25:49.998Z</time></trkpt><trkpt lat="44.76897650543282" lon="9.941634167926917"><ele>411.6666666666667</ele><time>2026-05-02T07:25:52.998Z</time></trkpt><trkpt lat="44.768908193910235" lon="9.941599187405718"><ele>412.33333333333337</ele><time>2026-05-02T07:25:55.998Z</time></trkpt><trkpt lat="44.76882852751293" lon="9.941549271707604"><ele>413.0</ele><time>2026-05-02T07:25:58.998Z</time></trkpt><trkpt lat="44.7687607958403" lon="9.941488523828431"><ele>413.6666666666667</ele><time>2026-05-02T07:26:02.998Z</time></trkpt><trkpt lat="44.76870487595342" lon="9.941419215490225"><ele>414.33333333333337</ele><time>2026-05-02T07:26:05.998Z</time></trkpt><trkpt lat="44.76866007172387" lon="9.941351514276933"><ele>415.0</ele><time>2026-05-02T07:26:08.998Z</time></trkpt><trkpt lat="44.76863058898995" lon="9.941263348269919"><ele>415.00000000000006</ele><time>2026-05-02T07:26:11.998Z</time></trkpt><trkpt lat="44.76859890584499" lon="9.941161376638908"><ele>415.0</ele><time>2026-05-02T07:26:14.998Z</time></trkpt><trkpt lat="44.76857151351549" lon="9.941050997457864"><ele>415.0</ele><time>2026-05-02T07:26:17.998Z</time></trkpt><trkpt lat="44.7685454558407" lon="9.940925318447777"><ele>415.0</ele><time>2026-05-02T07:26:20.998Z</time></trkpt><trkpt lat="44.76851245291895" lon="9.940833666636639"><ele>415.00000000000006</ele><time>2026-05-02T07:26:23.998Z</time></trkpt><trkpt lat="44.76848085162086" lon="9.940746131873526"><ele>415.0</ele><time>2026-05-02T07:26:26.998Z</time></trkpt><trkpt lat="44.768435609391275" lon="9.940664307630477"><ele>416.6666666666667</ele><time>2026-05-02T07:26:29.998Z</time></trkpt><trkpt lat="44.76838442730315" lon="9.94058789373871"><ele>418.33333333333337</ele><time>2026-05-02T07:26:32.998Z</time></trkpt><trkpt lat="44.768324298873125" lon="9.940521365381604"><ele>420.0</ele><time>2026-05-02T07:26:35.998Z</time></trkpt><trkpt lat="44.76824455850432" lon="9.940460992079801"><ele>421.66666666666663</ele><time>2026-05-02T07:26:38.998Z</time></trkpt><trkpt lat="44.76817678340715" lon="9.940407994627208"><ele>423.3333333333333</ele><time>2026-05-02T07:26:41.997Z</time></trkpt><trkpt lat="44.76811287855228" lon="9.940375689219115"><ele>425.0</ele><time>2026-05-02T07:26:45Z</time></trkpt><trkpt lat="44.76802794493372" lon="9.940335252559391"><ele>424.99999999999994</ele><time>2026-05-02T07:26:48Z</time></trkpt><trkpt lat="44.767957307485894" lon="9.940317486910528"><ele>425.0</ele><time>2026-05-02T07:26:50Z</time></trkpt><trkpt lat="44.76787390881368" lon="9.940303491149448"><ele>425.0</ele><time>2026-05-02T07:26:53Z</time></trkpt><trkpt lat="44.76780041886796" lon="9.940295830520924"><ele>425.0</ele><time>2026-05-02T07:26:54.999Z</time></trkpt><trkpt lat="44.767714780142256" lon="9.940299372467324"><ele>424.99999999999994</ele><time>2026-05-02T07:26:57.999Z</time></trkpt><trkpt lat="44.76762932061105" lon="9.94031213970661"><ele>425.0</ele><time>2026-05-02T07:27:00.999Z</time></trkpt><trkpt lat="44.767539034811044" lon="9.940323032505756"><ele>425.66666666666663</ele><time>2026-05-02T07:27:03.999Z</time></trkpt><trkpt lat="44.76747510936203" lon="9.94033794037961"><ele>426.3333333333333</ele><time>2026-05-02T07:27:06.999Z</time></trkpt><trkpt lat="44.767400004421816" lon="9.940353300969173"><ele>427.0</ele><time>2026-05-02T07:27:09.999Z</time></trkpt><trkpt lat="44.767317125797476" lon="9.940366305479277"><ele>427.66666666666663</ele><time>2026-05-02T07:27:12.999Z</time></trkpt><trkpt lat="44.76723459885448" lon="9.940387010332048"><ele>428.3333333333333</ele><time>2026-05-02T07:27:15.999Z</time></trkpt><trkpt lat="44.76714639560639" lon="9.940403829564247"><ele>429.0</ele><time>2026-05-02T07:27:18.999Z</time></trkpt><trkpt lat="44.76706916098825" lon="9.940420432089175"><ele>429.0</ele><time>2026-05-02T07:27:21.999Z</time></trkpt><trkpt lat="44.76699422928868" lon="9.940441654629575"><ele>429.0</ele><time>2026-05-02T07:27:24.999Z</time></trkpt><trkpt lat="44.76692784516528" lon="9.940453919161746"><ele>429.0</ele><time>2026-05-02T07:27:26.999Z</time></trkpt><trkpt lat="44.76686560464358" lon="9.940469027451115"><ele>429.0</ele><time>2026-05-02T07:27:28.999Z</time></trkpt><trkpt lat="44.766785131963374" lon="9.940490596076199"><ele>429.0</ele><time>2026-05-02T07:27:31.999Z</time></trkpt><trkpt lat="44.766702202255594" lon="9.940516859787433"><ele>429.0</ele><time>2026-05-02T07:27:35.999Z</time></trkpt><trkpt lat="44.76661759546177" lon="9.940543039585865"><ele>429.42857142857144</ele><time>2026-05-02T07:27:38.999Z</time></trkpt><trkpt lat="44.766545007953724" lon="9.940573321397386"><ele>429.8571428571429</ele><time>2026-05-02T07:27:41.999Z</time></trkpt><trkpt lat="44.76647890642011" lon="9.940603711300723"><ele>430.2857142857143</ele><time>2026-05-02T07:27:44.999Z</time></trkpt><trkpt lat="44.766408318997264" lon="9.940635664456055"><ele>430.7142857142857</ele><time>2026-05-02T07:27:47.999Z</time></trkpt><trkpt lat="44.766347042567425" lon="9.940661758345277"><ele>431.1428571428571</ele><time>2026-05-02T07:27:49.999Z</time></trkpt><trkpt lat="44.76627670238262" lon="9.940691291152799"><ele>431.57142857142856</ele><time>2026-05-02T07:27:52.999Z</time></trkpt><trkpt lat="44.76621533872061" lon="9.940719936702942"><ele>432.0</ele><time>2026-05-02T07:27:54.998Z</time></trkpt><trkpt lat="44.76614865721673" lon="9.940748503763897"><ele>432.0</ele><time>2026-05-02T07:27:57.998Z</time></trkpt><trkpt lat="44.76607156180993" lon="9.940781709442849"><ele>432.0</ele><time>2026-05-02T07:28:00.998Z</time></trkpt><trkpt lat="44.766003192537596" lon="9.940810801484792"><ele>432.0</ele><time>2026-05-02T07:28:03.998Z</time></trkpt><trkpt lat="44.76592811163183" lon="9.940838987953208"><ele>432.0</ele><time>2026-05-02T07:28:06.998Z</time></trkpt><trkpt lat="44.76585322493738" lon="9.940869046335237"><ele>432.0</ele><time>2026-05-02T07:28:09.998Z</time></trkpt><trkpt lat="44.76577952486458" lon="9.940902521498737"><ele>432.0</ele><time>2026-05-02T07:28:12.998Z</time></trkpt><trkpt lat="44.76570290322536" lon="9.940941688872275"><ele>432.0</ele><time>2026-05-02T07:28:15.998Z</time></trkpt><trkpt lat="44.765626982594696" lon="9.940990875397482"><ele>432.0</ele><time>2026-05-02T07:28:18.998Z</time></trkpt><trkpt lat="44.7655527544248" lon="9.941044022957877"><ele>432.0</ele><time>2026-05-02T07:28:21.998Z</time></trkpt><trkpt lat="44.76548555872545" lon="9.94109501320709"><ele>432.0</ele><time>2026-05-02T07:28:24.998Z</time></trkpt><trkpt lat="44.765420500341364" lon="9.941149401376205"><ele>432.0</ele><time>2026-05-02T07:28:27.998Z</time></trkpt><trkpt lat="44.76536067919874" lon="9.941186577715449"><ele>432.0</ele><time>2026-05-02T07:28:29.998Z</time></trkpt><trkpt lat="44.765291487618406" lon="9.941239008767521"><ele>432.0</ele><time>2026-05-02T07:28:33.998Z</time></trkpt><trkpt lat="44.76521398340774" lon="9.94129775015678"><ele>432.0</ele><time>2026-05-02T07:28:36.998Z</time></trkpt><trkpt lat="44.76514051040968" lon="9.941349103413462"><ele>432.0</ele><time>2026-05-02T07:28:39.998Z</time></trkpt><trkpt lat="44.76507501398177" lon="9.941409363734998"><ele>432.0</ele><time>2026-05-02T07:28:42.998Z</time></trkpt><trkpt lat="44.76500403985051" lon="9.941451639870756"><ele>432.0</ele><time>2026-05-02T07:28:45.998Z</time></trkpt><trkpt lat="44.76493731220216" lon="9.941499903235478"><ele>432.0</ele><time>2026-05-02T07:28:48.997Z</time></trkpt><trkpt lat="44.76487607775664" lon="9.941546283833842"><ele>432.85714285714283</ele><time>2026-05-02T07:28:52Z</time></trkpt><trkpt lat="44.764813391329255" lon="9.941591468485093"><ele>433.71428571428567</ele><time>2026-05-02T07:28:54.999Z</time></trkpt><trkpt lat="44.764756094160894" lon="9.941640644665885"><ele>434.57142857142856</ele><time>2026-05-02T07:28:57.999Z</time></trkpt><trkpt lat="44.76469151308207" lon="9.941680537180597"><ele>435.42857142857144</ele><time>2026-05-02T07:29:00.999Z</time></trkpt><trkpt lat="44.76463474308776" lon="9.941722927285499"><ele>436.2857142857143</ele><time>2026-05-02T07:29:03.999Z</time></trkpt><trkpt lat="44.76457852221307" lon="9.94177172428562"><ele>437.14285714285717</ele><time>2026-05-02T07:29:06.999Z</time></trkpt><trkpt lat="44.76452008973861" lon="9.941817572819508"><ele>438.0</ele><time>2026-05-02T07:29:09.999Z</time></trkpt><trkpt lat="44.764450654989695" lon="9.941866833179867"><ele>438.0</ele><time>2026-05-02T07:29:13.999Z</time></trkpt><trkpt lat="44.76438952533413" lon="9.941909534532408"><ele>438.0</ele><time>2026-05-02T07:29:16.999Z</time></trkpt><trkpt lat="44.764318748914064" lon="9.94196206107336"><ele>438.0</ele><time>2026-05-02T07:29:19.999Z</time></trkpt><trkpt lat="44.76426467771488" lon="9.942009194502257"><ele>438.0</ele><time>2026-05-02T07:29:22.999Z</time></trkpt><trkpt lat="44.764195297832295" lon="9.942065006405413"><ele>438.0</ele><time>2026-05-02T07:29:26.999Z</time></trkpt><trkpt lat="44.764135393719535" lon="9.942112130912031"><ele>438.0</ele><time>2026-05-02T07:29:29.999Z</time></trkpt><trkpt lat="44.764077244749366" lon="9.942168239662944"><ele>438.0</ele><time>2026-05-02T07:29:32.999Z</time></trkpt><trkpt lat="44.76401785296838" lon="9.942222472657974"><ele>440.0</ele><time>2026-05-02T07:29:36.999Z</time></trkpt><trkpt lat="44.763958360033605" lon="9.942280627438167"><ele>442.0</ele><time>2026-05-02T07:29:39.999Z</time></trkpt><trkpt lat="44.7638990617197" lon="9.942342520187937"><ele>444.0</ele><time>2026-05-02T07:29:44Z</time></trkpt><trkpt lat="44.76384097486359" lon="9.942400566311777"><ele>446.0</ele><time>2026-05-02T07:29:47Z</time></trkpt><trkpt lat="44.76378637649561" lon="9.942456203517313"><ele>448.0</ele><time>2026-05-02T07:29:50Z</time></trkpt><trkpt lat="44.76372452416214" lon="9.94251139429119"><ele>450.0</ele><time>2026-05-02T07:29:53Z</time></trkpt><trkpt lat="44.76365236592429" lon="9.942562330117727"><ele>452.0</ele><time>2026-05-02T07:29:57Z</time></trkpt><trkpt lat="44.76359276662408" lon="9.942603737035759"><ele>452.0</ele><time>2026-05-02T07:29:59.999Z</time></trkpt><trkpt lat="44.76353240150443" lon="9.94263506462352"><ele>452.0</ele><time>2026-05-02T07:30:02.999Z</time></trkpt><trkpt lat="44.763468090942474" lon="9.942661107712985"><ele>452.0</ele><time>2026-05-02T07:30:05.999Z</time></trkpt><trkpt lat="44.76339285806923" lon="9.942688365138068"><ele>452.0</ele><time>2026-05-02T07:30:08.999Z</time></trkpt><trkpt lat="44.76332498816294" lon="9.942712227490992"><ele>452.0</ele><time>2026-05-02T07:30:12.999Z</time></trkpt><trkpt lat="44.763262542473406" lon="9.942727356134476"><ele>452.0</ele><time>2026-05-02T07:30:15.999Z</time></trkpt><trkpt lat="44.76319994409391" lon="9.9427112762929"><ele>452.0</ele><time>2026-05-02T07:30:18.999Z</time></trkpt><trkpt lat="44.763155415355556" lon="9.942648181502024"><ele>453.7142857142857</ele><time>2026-05-02T07:30:21.999Z</time></trkpt><trkpt lat="44.763148915534686" lon="9.942550620730847"><ele>455.42857142857144</ele><time>2026-05-02T07:30:25.999Z</time></trkpt><trkpt lat="44.76316663735621" lon="9.942464881306156"><ele>457.14285714285717</ele><time>2026-05-02T07:30:28.999Z</time></trkpt><trkpt lat="44.763207419750614" lon="9.942360655749667"><ele>458.8571428571429</ele><time>2026-05-02T07:30:31.999Z</time></trkpt><trkpt lat="44.763244912088105" lon="9.942266414095986"><ele>460.57142857142856</ele><time>2026-05-02T07:30:35.999Z</time></trkpt><trkpt lat="44.763278674588605" lon="9.942181946106318"><ele>462.28571428571433</ele><time>2026-05-02T07:30:38.999Z</time></trkpt><trkpt lat="44.76331039958888" lon="9.942097599585265"><ele>464.00000000000006</ele><time>2026-05-02T07:30:41.999Z</time></trkpt><trkpt lat="44.763346952321086" lon="9.94201649421951"><ele>464.3333333333333</ele><time>2026-05-02T07:30:44.999Z</time></trkpt><trkpt lat="44.76339200304086" lon="9.941922689481444"><ele>464.66666666666663</ele><time>2026-05-02T07:30:47.999Z</time></trkpt><trkpt lat="44.76343660474436" lon="9.941834322147965"><ele>465.0</ele><time>2026-05-02T07:30:51.998Z</time></trkpt><trkpt lat="44.76347404556098" lon="9.941751118061571"><ele>465.33333333333337</ele><time>2026-05-02T07:30:54.998Z</time></trkpt><trkpt lat="44.763517370749405" lon="9.941671930529745"><ele>465.6666666666667</ele><time>2026-05-02T07:30:58Z</time></trkpt><trkpt lat="44.763564007281644" lon="9.941593656245288"><ele>466.0</ele><time>2026-05-02T07:31:01Z</time></trkpt><trkpt lat="44.76361166670989" lon="9.941498976793396"><ele>465.28571428571433</ele><time>2026-05-02T07:31:04Z</time></trkpt><trkpt lat="44.76365985868335" lon="9.941418573986601"><ele>464.57142857142856</ele><time>2026-05-02T07:31:08Z</time></trkpt><trkpt lat="44.76370557504433" lon="9.941340448746102"><ele>463.8571428571429</ele><time>2026-05-02T07:31:11Z</time></trkpt><trkpt lat="44.7637488503885" lon="9.941262282614723"><ele>463.14285714285717</ele><time>2026-05-02T07:31:14Z</time></trkpt><trkpt lat="44.76379491286631" lon="9.941183964823264"><ele>462.42857142857144</ele><time>2026-05-02T07:31:17Z</time></trkpt><trkpt lat="44.76384543609022" lon="9.941090305150395"><ele>461.7142857142857</ele><time>2026-05-02T07:31:21Z</time></trkpt><trkpt lat="44.76388418436068" lon="9.941008622978211"><ele>461.0</ele><time>2026-05-02T07:31:24Z</time></trkpt><trkpt lat="44.7639202647451" lon="9.940914380573654"><ele>462.42857142857144</ele><time>2026-05-02T07:31:27Z</time></trkpt><trkpt lat="44.76395429278557" lon="9.94082246430727"><ele>463.8571428571429</ele><time>2026-05-02T07:31:30Z</time></trkpt><trkpt lat="44.763977079334325" lon="9.940737310032045"><ele>465.28571428571433</ele><time>2026-05-02T07:31:33Z</time></trkpt><trkpt lat="44.76399839437202" lon="9.940647861560116"><ele>466.7142857142858</ele><time>2026-05-02T07:31:36Z</time></trkpt><trkpt lat="44.76399675047173" lon="9.940548095973488"><ele>468.14285714285717</ele><time>2026-05-02T07:31:39Z</time></trkpt><trkpt lat="44.7639447025799" lon="9.940469946020997"><ele>469.57142857142867</ele><time>2026-05-02T07:31:42Z</time></trkpt><trkpt lat="44.76387367080768" lon="9.940468240731375"><ele>471.00000000000006</ele><time>2026-05-02T07:31:45Z</time></trkpt><trkpt lat="44.76381649241972" lon="9.940528035092585"><ele>471.0</ele><time>2026-05-02T07:31:48Z</time></trkpt><trkpt lat="44.76377334994913" lon="9.940618063062344"><ele>471.0</ele><time>2026-05-02T07:31:51Z</time></trkpt><trkpt lat="44.763721732478686" lon="9.940713285752478"><ele>471.0</ele><time>2026-05-02T07:31:55Z</time></trkpt><trkpt lat="44.76367486182199" lon="9.940796891017337"><ele>471.0</ele><time>2026-05-02T07:31:58Z</time></trkpt><trkpt lat="44.763614713784825" lon="9.940860942815215"><ele>471.0</ele><time>2026-05-02T07:32:01Z</time></trkpt><trkpt lat="44.76354489359714" lon="9.940924021475059"><ele>471.0</ele><time>2026-05-02T07:32:03.999Z</time></trkpt><trkpt lat="44.763473214479525" lon="9.940966425250615"><ele>472.00000000000006</ele><time>2026-05-02T07:32:07.999Z</time></trkpt><trkpt lat="44.763411577924835" lon="9.941011821373198"><ele>473.0</ele><time>2026-05-02T07:32:10.999Z</time></trkpt><trkpt lat="44.76334100723169" lon="9.941055270475628"><ele>474.00000000000006</ele><time>2026-05-02T07:32:13.999Z</time></trkpt><trkpt lat="44.76328355569128" lon="9.941091611293723"><ele>475.00000000000006</ele><time>2026-05-02T07:32:16.999Z</time></trkpt><trkpt lat="44.7632270112952" lon="9.941131339454477"><ele>476.0</ele><time>2026-05-02T07:32:19.999Z</time></trkpt><trkpt lat="44.76315961131572" lon="9.94115032166268"><ele>477.00000000000006</ele><time>2026-05-02T07:32:22.999Z</time></trkpt><trkpt lat="44.76309244319414" lon="9.941151808485152"><ele>478.00000000000006</ele><time>2026-05-02T07:32:25.999Z</time></trkpt><trkpt lat="44.76302004356741" lon="9.941129584044768"><ele>478.00000000000006</ele><time>2026-05-02T07:32:28.999Z</time></trkpt><trkpt lat="44.76294714762881" lon="9.941100882504726"><ele>478.0</ele><time>2026-05-02T07:32:31.999Z</time></trkpt><trkpt lat="44.7628720460507" lon="9.941053284228932"><ele>478.0</ele><time>2026-05-02T07:32:34.999Z</time></trkpt><trkpt lat="44.762798092556025" lon="9.941006152653195"><ele>478.0</ele><time>2026-05-02T07:32:37.999Z</time></trkpt><trkpt lat="44.762714253570046" lon="9.940989923085887"><ele>478.00000000000006</ele><time>2026-05-02T07:32:40.999Z</time></trkpt><trkpt lat="44.76263821594866" lon="9.941005246914443"><ele>478.0</ele><time>2026-05-02T07:32:42.999Z</time></trkpt><trkpt lat="44.76255604116699" lon="9.941061701713549"><ele>480.1666666666667</ele><time>2026-05-02T07:32:45.999Z</time></trkpt><trkpt lat="44.76249707227852" lon="9.94114306871612"><ele>482.33333333333337</ele><time>2026-05-02T07:32:48.999Z</time></trkpt><trkpt lat="44.76243824503777" lon="9.941231731676467"><ele>484.5</ele><time>2026-05-02T07:32:51.999Z</time></trkpt><trkpt lat="44.76238191906019" lon="9.941322344679623"><ele>486.66666666666663</ele><time>2026-05-02T07:32:54.999Z</time></trkpt><trkpt lat="44.76232974855646" lon="9.941411990176656"><ele>488.8333333333333</ele><time>2026-05-02T07:32:57.998Z</time></trkpt><trkpt lat="44.76228014952085" lon="9.94149044688038"><ele>491.0</ele><time>2026-05-02T07:33:00.998Z</time></trkpt><trkpt lat="44.76222777394397" lon="9.941550613732502"><ele>491.0</ele><time>2026-05-02T07:33:04Z</time></trkpt><trkpt lat="44.762170078224855" lon="9.941595992644267"><ele>490.99999999999994</ele><time>2026-05-02T07:33:07Z</time></trkpt><trkpt lat="44.762101567662285" lon="9.941622939515232"><ele>491.0</ele><time>2026-05-02T07:33:10Z</time></trkpt><trkpt lat="44.762017582382256" lon="9.94163640083868"><ele>491.0</ele><time>2026-05-02T07:33:14Z</time></trkpt><trkpt lat="44.761947941208774" lon="9.94162483910124"><ele>490.99999999999994</ele><time>2026-05-02T07:33:17Z</time></trkpt><trkpt lat="44.76187545164587" lon="9.941622963107175"><ele>491.0</ele><time>2026-05-02T07:33:20Z</time></trkpt><trkpt lat="44.76180101928324" lon="9.941628998382853"><ele>491.0</ele><time>2026-05-02T07:33:23Z</time></trkpt><trkpt lat="44.761727008058706" lon="9.941626548168918"><ele>491.66666666666663</ele><time>2026-05-02T07:33:26Z</time></trkpt><trkpt lat="44.76165448110375" lon="9.941648342056439"><ele>492.3333333333333</ele><time>2026-05-02T07:33:29Z</time></trkpt><trkpt lat="44.76157381503209" lon="9.941685547413512"><ele>493.0</ele><time>2026-05-02T07:33:32Z</time></trkpt><trkpt lat="44.761497399064055" lon="9.941730148072022"><ele>493.66666666666663</ele><time>2026-05-02T07:33:35Z</time></trkpt><trkpt lat="44.761412861364924" lon="9.941805687495384"><ele>494.3333333333333</ele><time>2026-05-02T07:33:38Z</time></trkpt><trkpt lat="44.76134849734344" lon="9.94187307217193"><ele>495.0</ele><time>2026-05-02T07:33:41Z</time></trkpt><trkpt lat="44.761285590962565" lon="9.94196123579992"><ele>495.0</ele><time>2026-05-02T07:33:44Z</time></trkpt><trkpt lat="44.76122708884057" lon="9.942056526309214"><ele>495.0</ele><time>2026-05-02T07:33:47Z</time></trkpt><trkpt lat="44.76117333822118" lon="9.942168249730726"><ele>495.0</ele><time>2026-05-02T07:33:51Z</time></trkpt><trkpt lat="44.7611260654175" lon="9.942266699788949"><ele>495.0</ele><time>2026-05-02T07:33:55Z</time></trkpt><trkpt lat="44.761082715236356" lon="9.942355214277704"><ele>495.0</ele><time>2026-05-02T07:33:58Z</time></trkpt><trkpt lat="44.76104280774296" lon="9.94244355597318"><ele>495.0</ele><time>2026-05-02T07:34:01Z</time></trkpt><trkpt lat="44.76100102976335" lon="9.94253331456105"><ele>498.3333333333333</ele><time>2026-05-02T07:34:04Z</time></trkpt><trkpt lat="44.76096584288027" lon="9.94262740153089"><ele>501.66666666666663</ele><time>2026-05-02T07:34:07Z</time></trkpt><trkpt lat="44.76093996323742" lon="9.942731918889343"><ele>505.0</ele><time>2026-05-02T07:34:09.999Z</time></trkpt><trkpt lat="44.760933818445935" lon="9.942849514922043"><ele>508.3333333333333</ele><time>2026-05-02T07:34:12.999Z</time></trkpt><trkpt lat="44.76095079243182" lon="9.942961887815965"><ele>511.66666666666663</ele><time>2026-05-02T07:34:15.999Z</time></trkpt><trkpt lat="44.76097358435909" lon="9.943076498600776"><ele>515.0</ele><time>2026-05-02T07:34:18.999Z</time></trkpt><trkpt lat="44.76100640680256" lon="9.943176474034063"><ele>515.0</ele><time>2026-05-02T07:34:21.999Z</time></trkpt><trkpt lat="44.761031962526424" lon="9.943286266602057"><ele>515.0</ele><time>2026-05-02T07:34:23.999Z</time></trkpt><trkpt lat="44.761041412701886" lon="9.943411288100032"><ele>515.0</ele><time>2026-05-02T07:34:26.999Z</time></trkpt><trkpt lat="44.76103391449689" lon="9.94353341918717"><ele>515.0</ele><time>2026-05-02T07:34:29.999Z</time></trkpt><trkpt lat="44.761022279073174" lon="9.943621479045639"><ele>515.0</ele><time>2026-05-02T07:34:31.999Z</time></trkpt><trkpt lat="44.76099863447035" lon="9.94373935051951"><ele>515.0</ele><time>2026-05-02T07:34:34.999Z</time></trkpt><trkpt lat="44.76097401787761" lon="9.943855959673156"><ele>514.1666666666666</ele><time>2026-05-02T07:34:38.999Z</time></trkpt><trkpt lat="44.760939892728835" lon="9.943971995534865"><ele>513.3333333333333</ele><time>2026-05-02T07:34:41.999Z</time></trkpt><trkpt lat="44.76087222711505" lon="9.94403305321462"><ele>512.5</ele><time>2026-05-02T07:34:44.999Z</time></trkpt><trkpt lat="44.760795701062115" lon="9.944009499433497"><ele>511.66666666666663</ele><time>2026-05-02T07:34:47.999Z</time></trkpt><trkpt lat="44.760735492515344" lon="9.943902343462481"><ele>510.8333333333333</ele><time>2026-05-02T07:34:50.999Z</time></trkpt><trkpt lat="44.76070580064149" lon="9.943801700053784"><ele>510.0</ele><time>2026-05-02T07:34:53.999Z</time></trkpt><trkpt lat="44.7606786859685" lon="9.94369787178414"><ele>510.0</ele><time>2026-05-02T07:34:56.999Z</time></trkpt><trkpt lat="44.76065580576016" lon="9.943592367238704"><ele>510.0</ele><time>2026-05-02T07:34:59.999Z</time></trkpt><trkpt lat="44.76063394751131" lon="9.943483967420082"><ele>510.0</ele><time>2026-05-02T07:35:02.998Z</time></trkpt><trkpt lat="44.76061610261852" lon="9.943398087731422"><ele>510.0</ele><time>2026-05-02T07:35:05.998Z</time></trkpt><trkpt lat="44.76059196601185" lon="9.943299344479625"><ele>510.0</ele><time>2026-05-02T07:35:09Z</time></trkpt><trkpt lat="44.76056275478443" lon="9.943199256176381"><ele>510.0</ele><time>2026-05-02T07:35:12Z</time></trkpt><trkpt lat="44.76052695713898" lon="9.943097593082832"><ele>510.5</ele><time>2026-05-02T07:35:15Z</time></trkpt><trkpt lat="44.76048426021065" lon="9.943003541028423"><ele>511.0</ele><time>2026-05-02T07:35:18Z</time></trkpt><trkpt lat="44.76042365018089" lon="9.942887918716096"><ele>511.5</ele><time>2026-05-02T07:35:21Z</time></trkpt><trkpt lat="44.760377114419484" lon="9.942796884317508"><ele>512.0</ele><time>2026-05-02T07:35:24Z</time></trkpt><trkpt lat="44.76032957404311" lon="9.942697513468685"><ele>512.5</ele><time>2026-05-02T07:35:27Z</time></trkpt><trkpt lat="44.76030112838254" lon="9.942594523116018"><ele>513.0</ele><time>2026-05-02T07:35:30Z</time></trkpt><trkpt lat="44.76029388883853" lon="9.942499069868138"><ele>513.0</ele><time>2026-05-02T07:35:32Z</time></trkpt><trkpt lat="44.76029696755307" lon="9.942406729992062"><ele>513.0</ele><time>2026-05-02T07:35:34Z</time></trkpt><trkpt lat="44.760313173757105" lon="9.942283271785126"><ele>513.0</ele><time>2026-05-02T07:35:37Z</time></trkpt><trkpt lat="44.76032944760446" lon="9.942164276959181"><ele>513.0</ele><time>2026-05-02T07:35:40Z</time></trkpt><trkpt lat="44.76034845429249" lon="9.942051936880762"><ele>513.0</ele><time>2026-05-02T07:35:43Z</time></trkpt><trkpt lat="44.76036827944534" lon="9.941942205647152"><ele>513.0</ele><time>2026-05-02T07:35:46Z</time></trkpt><trkpt lat="44.7603916400823" lon="9.94183027235708"><ele>513.0</ele><time>2026-05-02T07:35:49Z</time></trkpt><trkpt lat="44.76041370333109" lon="9.941722315485373"><ele>513.0</ele><time>2026-05-02T07:35:52Z</time></trkpt><trkpt lat="44.7604320391561" lon="9.941615037089948"><ele>513.0</ele><time>2026-05-02T07:35:55Z</time></trkpt><trkpt lat="44.76045304972867" lon="9.94151025515674"><ele>513.0</ele><time>2026-05-02T07:35:58Z</time></trkpt><trkpt lat="44.76047669431986" lon="9.941402406551926"><ele>513.0</ele><time>2026-05-02T07:36:01Z</time></trkpt><trkpt lat="44.76049545117043" lon="9.94131599086568"><ele>513.0</ele><time>2026-05-02T07:36:04Z</time></trkpt><trkpt lat="44.760520868495284" lon="9.94120438578763"><ele>513.3333333333334</ele><time>2026-05-02T07:36:07Z</time></trkpt><trkpt lat="44.76056174652125" lon="9.94107703895567"><ele>513.6666666666666</ele><time>2026-05-02T07:36:10Z</time></trkpt><trkpt lat="44.76059547569741" lon="9.940998448482869"><ele>514.0</ele><time>2026-05-02T07:36:12.999Z</time></trkpt><trkpt lat="44.7606418814986" lon="9.940909081833457"><ele>514.3333333333333</ele><time>2026-05-02T07:36:15.999Z</time></trkpt><trkpt lat="44.76069281872177" lon="9.940834972811405"><ele>514.6666666666666</ele><time>2026-05-02T07:36:18.999Z</time></trkpt><trkpt lat="44.76073779034467" lon="9.940770395563382"><ele>515.0</ele><time>2026-05-02T07:36:20.999Z</time></trkpt><trkpt lat="44.76078513124264" lon="9.940696705256752"><ele>516.5714285714286</ele><time>2026-05-02T07:36:23.999Z</time></trkpt><trkpt lat="44.76083276170725" lon="9.94062036810142"><ele>518.1428571428571</ele><time>2026-05-02T07:36:26.999Z</time></trkpt><trkpt lat="44.760883034803776" lon="9.940546809014343"><ele>519.7142857142857</ele><time>2026-05-02T07:36:29.999Z</time></trkpt><trkpt lat="44.76092825699412" lon="9.94047984827557"><ele>521.2857142857142</ele><time>2026-05-02T07:36:31.999Z</time></trkpt><trkpt lat="44.760973474260105" lon="9.940408094456854"><ele>522.8571428571428</ele><time>2026-05-02T07:36:34.999Z</time></trkpt><trkpt lat="44.76100676509779" lon="9.940317983458623"><ele>524.4285714285714</ele><time>2026-05-02T07:36:37.999Z</time></trkpt><trkpt lat="44.76101722770275" lon="9.94022252508411"><ele>526.0</ele><time>2026-05-02T07:36:40.999Z</time></trkpt><trkpt lat="44.76099410279314" lon="9.940121599556086"><ele>526.0</ele><time>2026-05-02T07:36:43.999Z</time></trkpt><trkpt lat="44.76093060773702" lon="9.94006482650821"><ele>526.0</ele><time>2026-05-02T07:36:46.999Z</time></trkpt><trkpt lat="44.76085631474556" lon="9.940062486782095"><ele>526.0</ele><time>2026-05-02T07:36:49.999Z</time></trkpt><trkpt lat="44.76078506034361" lon="9.94008562044493"><ele>526.0</ele><time>2026-05-02T07:36:52.999Z</time></trkpt><trkpt lat="44.76071604473408" lon="9.940114461897611"><ele>526.0</ele><time>2026-05-02T07:36:55.999Z</time></trkpt><trkpt lat="44.760634180144024" lon="9.94015096867383"><ele>526.0</ele><time>2026-05-02T07:36:58.999Z</time></trkpt><trkpt lat="44.760566833072296" lon="9.940181511789728"><ele>526.0</ele><time>2026-05-02T07:37:01.999Z</time></trkpt><trkpt lat="44.76049756707361" lon="9.94020739192582"><ele>526.0</ele><time>2026-05-02T07:37:04.998Z</time></trkpt><trkpt lat="44.760436187621536" lon="9.94023013035616"><ele>526.0</ele><time>2026-05-02T07:37:06.998Z</time></trkpt><trkpt lat="44.76035953952457" lon="9.940251064625226"><ele>526.0</ele><time>2026-05-02T07:37:09.998Z</time></trkpt><trkpt lat="44.760293298945385" lon="9.94027565187023"><ele>526.0</ele><time>2026-05-02T07:37:12.998Z</time></trkpt><trkpt lat="44.76022053252341" lon="9.940313918024554"><ele>526.0</ele><time>2026-05-02T07:37:16Z</time></trkpt><trkpt lat="44.76016203649854" lon="9.940362296383553"><ele>526.0</ele><time>2026-05-02T07:37:18Z</time></trkpt><trkpt lat="44.760106648702674" lon="9.940424158937317"><ele>527.0</ele><time>2026-05-02T07:37:21Z</time></trkpt><trkpt lat="44.760048554318324" lon="9.940503370373124"><ele>528.0</ele><time>2026-05-02T07:37:24Z</time></trkpt><trkpt lat="44.75999422721632" lon="9.940587942125491"><ele>529.0</ele><time>2026-05-02T07:37:27Z</time></trkpt><trkpt lat="44.75994780557382" lon="9.940652854974475"><ele>530.0</ele><time>2026-05-02T07:37:29Z</time></trkpt><trkpt lat="44.7598926403502" lon="9.94074371541684"><ele>531.0</ele><time>2026-05-02T07:37:32Z</time></trkpt><trkpt lat="44.759840258686125" lon="9.940824411376655"><ele>532.0</ele><time>2026-05-02T07:37:35Z</time></trkpt><trkpt lat="44.75978480428615" lon="9.940908272011484"><ele>532.0</ele><time>2026-05-02T07:37:38Z</time></trkpt><trkpt lat="44.7597324941129" lon="9.94098954580054"><ele>532.0</ele><time>2026-05-02T07:37:41Z</time></trkpt><trkpt lat="44.75968810304136" lon="9.941062806459144"><ele>532.0</ele><time>2026-05-02T07:37:43Z</time></trkpt><trkpt lat="44.759638664056176" lon="9.941145651671972"><ele>532.0</ele><time>2026-05-02T07:37:46Z</time></trkpt><trkpt lat="44.75959052195162" lon="9.94124553866562"><ele>532.0</ele><time>2026-05-02T07:37:49Z</time></trkpt><trkpt lat="44.759547570847786" lon="9.941337759067473"><ele>532.0</ele><time>2026-05-02T07:37:52Z</time></trkpt><trkpt lat="44.759498463730914" lon="9.94142731313233"><ele>532.0</ele><time>2026-05-02T07:37:55Z</time></trkpt><trkpt lat="44.75945717212252" lon="9.941510994511763"><ele>532.0</ele><time>2026-05-02T07:37:57Z</time></trkpt><trkpt lat="44.759412864925615" lon="9.941597733079819"><ele>532.0</ele><time>2026-05-02T07:38:01Z</time></trkpt><trkpt lat="44.759374575727605" lon="9.941697349024697"><ele>532.0</ele><time>2026-05-02T07:38:04Z</time></trkpt><trkpt lat="44.759332240879615" lon="9.941787231207416"><ele>532.0</ele><time>2026-05-02T07:38:07Z</time></trkpt><trkpt lat="44.75928142782346" lon="9.941885807136467"><ele>532.0</ele><time>2026-05-02T07:38:10Z</time></trkpt><trkpt lat="44.75923277573161" lon="9.94197385926818"><ele>533.8571428571429</ele><time>2026-05-02T07:38:13Z</time></trkpt><trkpt lat="44.75918847581707" lon="9.942063931986612"><ele>535.7142857142858</ele><time>2026-05-02T07:38:15.999Z</time></trkpt><trkpt lat="44.75915229481007" lon="9.94216050282126"><ele>537.5714285714286</ele><time>2026-05-02T07:38:18.999Z</time></trkpt><trkpt lat="44.759124075867085" lon="9.942248985608027"><ele>539.4285714285714</ele><time>2026-05-02T07:38:21.999Z</time></trkpt><trkpt lat="44.759103676699745" lon="9.94234254565218"><ele>541.2857142857143</ele><time>2026-05-02T07:38:24.999Z</time></trkpt><trkpt lat="44.7590878429547" lon="9.942437942320614"><ele>543.1428571428571</ele><time>2026-05-02T07:38:27.999Z</time></trkpt><trkpt lat="44.75908757215482" lon="9.942535160609992"><ele>545.0</ele><time>2026-05-02T07:38:30.999Z</time></trkpt><trkpt lat="44.759091993085335" lon="9.942641172161158"><ele>545.0</ele><time>2026-05-02T07:38:33.999Z</time></trkpt><trkpt lat="44.75909075962647" lon="9.942750592509551"><ele>545.0</ele><time>2026-05-02T07:38:36.999Z</time></trkpt><trkpt lat="44.75909137835169" lon="9.942859520052906"><ele>545.0</ele><time>2026-05-02T07:38:39.999Z</time></trkpt><trkpt lat="44.75907919566168" lon="9.942980528065357"><ele>545.0</ele><time>2026-05-02T07:38:42.999Z</time></trkpt><trkpt lat="44.759022514617016" lon="9.943031632608255"><ele>545.0</ele><time>2026-05-02T07:38:45.999Z</time></trkpt><trkpt lat="44.75896659714141" lon="9.942982625497264"><ele>545.0</ele><time>2026-05-02T07:38:48.999Z</time></trkpt><trkpt lat="44.75894639969897" lon="9.9428958980552"><ele>545.0</ele><time>2026-05-02T07:38:51.999Z</time></trkpt><trkpt lat="44.758931192224615" lon="9.942801670037484"><ele>545.0</ele><time>2026-05-02T07:38:54.999Z</time></trkpt><trkpt lat="44.75891897949987" lon="9.942703121846977"><ele>545.0</ele><time>2026-05-02T07:38:57.999Z</time></trkpt><trkpt lat="44.75890097495468" lon="9.942600044002223"><ele>545.0</ele><time>2026-05-02T07:39:00.999Z</time></trkpt><trkpt lat="44.75889279880395" lon="9.94250289449099"><ele>545.0</ele><time>2026-05-02T07:39:03.999Z</time></trkpt><trkpt lat="44.75888098077183" lon="9.942406936235738"><ele>545.0</ele><time>2026-05-02T07:39:06.999Z</time></trkpt><trkpt lat="44.75887560682958" lon="9.942286526418272"><ele>545.0</ele><time>2026-05-02T07:39:09.998Z</time></trkpt><trkpt lat="44.75887852812316" lon="9.942192094169895"><ele>545.0</ele><time>2026-05-02T07:39:12.998Z</time></trkpt><trkpt lat="44.758884748682135" lon="9.94209502160861"><ele>545.5</ele><time>2026-05-02T07:39:15.998Z</time></trkpt><trkpt lat="44.7588837979986" lon="9.94199548309896"><ele>546.0</ele><time>2026-05-02T07:39:18.998Z</time></trkpt><trkpt lat="44.7588991374398" lon="9.941899294854549"><ele>546.5</ele><time>2026-05-02T07:39:22Z</time></trkpt><trkpt lat="44.75891557666308" lon="9.94180277427794"><ele>547.0</ele><time>2026-05-02T07:39:25Z</time></trkpt><trkpt lat="44.7589388163525" lon="9.941690713711155"><ele>547.5</ele><time>2026-05-02T07:39:29Z</time></trkpt><trkpt lat="44.758963836104826" lon="9.941577914267663"><ele>548.0</ele><time>2026-05-02T07:39:32Z</time></trkpt><trkpt lat="44.75898092310165" lon="9.941479464355043"><ele>549.3333333333333</ele><time>2026-05-02T07:39:36Z</time></trkpt><trkpt lat="44.759002946000855" lon="9.94138169209063"><ele>550.6666666666666</ele><time>2026-05-02T07:39:39Z</time></trkpt><trkpt lat="44.759019361674504" lon="9.941279398508666"><ele>552.0</ele><time>2026-05-02T07:39:42Z</time></trkpt><trkpt lat="44.75903289836726" lon="9.941176382140195"><ele>553.3333333333334</ele><time>2026-05-02T07:39:45Z</time></trkpt><trkpt lat="44.759048723302975" lon="9.941068510167266"><ele>554.6666666666667</ele><time>2026-05-02T07:39:48Z</time></trkpt><trkpt lat="44.75905864773404" lon="9.940959424042159"><ele>556.0</ele><time>2026-05-02T07:39:51Z</time></trkpt><trkpt lat="44.75905983279501" lon="9.940839827396573"><ele>557.2857142857142</ele><time>2026-05-02T07:39:55Z</time></trkpt><trkpt lat="44.75905636297562" lon="9.940741004140571"><ele>558.5714285714286</ele><time>2026-05-02T07:39:58Z</time></trkpt><trkpt lat="44.75904332138976" lon="9.94062279651093"><ele>559.8571428571429</ele><time>2026-05-02T07:40:01Z</time></trkpt><trkpt lat="44.75902212587355" lon="9.940532826894096"><ele>561.1428571428571</ele><time>2026-05-02T07:40:04Z</time></trkpt><trkpt lat="44.7590049488196" lon="9.940438115471096"><ele>562.4285714285714</ele><time>2026-05-02T07:40:07Z</time></trkpt><trkpt lat="44.758996374480226" lon="9.940336807737406"><ele>563.7142857142857</ele><time>2026-05-02T07:40:10Z</time></trkpt><trkpt lat="44.75901535732126" lon="9.94023433418578"><ele>565.0</ele><time>2026-05-02T07:40:13Z</time></trkpt><trkpt lat="44.759047797997255" lon="9.940142993595193"><ele>565.0</ele><time>2026-05-02T07:40:16Z</time></trkpt><trkpt lat="44.75908661096329" lon="9.940053417269826"><ele>565.0</ele><time>2026-05-02T07:40:18.999Z</time></trkpt><trkpt lat="44.75912565845887" lon="9.939963667531009"><ele>565.0</ele><time>2026-05-02T07:40:21.999Z</time></trkpt><trkpt lat="44.7591598144993" lon="9.939868893796096"><ele>565.0</ele><time>2026-05-02T07:40:24.999Z</time></trkpt><trkpt lat="44.759186046152834" lon="9.939753367480211"><ele>565.0</ele><time>2026-05-02T07:40:27.999Z</time></trkpt><trkpt lat="44.759185052384396" lon="9.939653047795954"><ele>565.0</ele><time>2026-05-02T07:40:30.999Z</time></trkpt><trkpt lat="44.75918490118804" lon="9.939548033712475"><ele>565.6666666666667</ele><time>2026-05-02T07:40:33.999Z</time></trkpt><trkpt lat="44.75917225279283" lon="9.939438658514495"><ele>566.3333333333334</ele><time>2026-05-02T07:40:36.999Z</time></trkpt><trkpt lat="44.75914745836536" lon="9.93934590788153"><ele>567.0</ele><time>2026-05-02T07:40:39.999Z</time></trkpt><trkpt lat="44.759122897039816" lon="9.939249174940631"><ele>567.6666666666666</ele><time>2026-05-02T07:40:42.999Z</time></trkpt><trkpt lat="44.75908817105829" lon="9.939155941323644"><ele>568.3333333333333</ele><time>2026-05-02T07:40:45.999Z</time></trkpt><trkpt lat="44.75904474687073" lon="9.939070576577153"><ele>569.0</ele><time>2026-05-02T07:40:48.999Z</time></trkpt><trkpt lat="44.7589908185731" lon="9.938988417089547"><ele>569.0</ele><time>2026-05-02T07:40:51.999Z</time></trkpt><trkpt lat="44.75893792843928" lon="9.938938471340322"><ele>569.0</ele><time>2026-05-02T07:40:54.999Z</time></trkpt><trkpt lat="44.75886731404742" lon="9.938898652574293"><ele>569.0</ele><time>2026-05-02T07:40:57.999Z</time></trkpt><trkpt lat="44.758774892049566" lon="9.938863773345437"><ele>569.0</ele><time>2026-05-02T07:41:00.999Z</time></trkpt><trkpt lat="44.758701220853375" lon="9.938859200219389"><ele>569.0</ele><time>2026-05-02T07:41:03.999Z</time></trkpt><trkpt lat="44.75860156781095" lon="9.93885627753409"><ele>569.0</ele><time>2026-05-02T07:41:07.999Z</time></trkpt><trkpt lat="44.75853461578648" lon="9.938861280322287"><ele>572.8333333333333</ele><time>2026-05-02T07:41:10.999Z</time></trkpt><trkpt lat="44.758464420162866" lon="9.938837925636502"><ele>576.6666666666666</ele><time>2026-05-02T07:41:13.998Z</time></trkpt><trkpt lat="44.75840118876243" lon="9.938799818728674"><ele>580.5</ele><time>2026-05-02T07:41:16.998Z</time></trkpt><trkpt lat="44.7583424339386" lon="9.93872438517071"><ele>584.3333333333334</ele><time>2026-05-02T07:41:19.998Z</time></trkpt><trkpt lat="44.7583068842646" lon="9.938635215589768"><ele>588.1666666666667</ele><time>2026-05-02T07:41:22.998Z</time></trkpt><trkpt lat="44.75828218088897" lon="9.93852852237845"><ele>592.0</ele><time>2026-05-02T07:41:26Z</time></trkpt><trkpt lat="44.75827056493513" lon="9.9384200098983"><ele>590.8333333333334</ele><time>2026-05-02T07:41:29Z</time></trkpt><trkpt lat="44.75825893026919" lon="9.938311088764978"><ele>589.6666666666667</ele><time>2026-05-02T07:41:32Z</time></trkpt><trkpt lat="44.758236610087245" lon="9.938177759785372"><ele>588.5</ele><time>2026-05-02T07:41:35Z</time></trkpt><trkpt lat="44.75819803216771" lon="9.938090794865834"><ele>587.3333333333334</ele><time>2026-05-02T07:41:38Z</time></trkpt><trkpt lat="44.758150106395675" lon="9.938011992410463"><ele>586.1666666666666</ele><time>2026-05-02T07:41:41Z</time></trkpt><trkpt lat="44.7581036973031" lon="9.9379514763295"><ele>585.0</ele><time>2026-05-02T07:41:43Z</time></trkpt><trkpt lat="44.75805649995363" lon="9.937884441862668"><ele>585.0</ele><time>2026-05-02T07:41:46Z</time></trkpt><trkpt lat="44.75800981557307" lon="9.9377910756698"><ele>585.0</ele><time>2026-05-02T07:41:49Z</time></trkpt><trkpt lat="44.75797791669412" lon="9.937709273967224"><ele>585.0</ele><time>2026-05-02T07:41:51Z</time></trkpt><trkpt lat="44.75795345487363" lon="9.937618125049259"><ele>585.0</ele><time>2026-05-02T07:41:54Z</time></trkpt><trkpt lat="44.75793889980738" lon="9.937523846969397"><ele>585.0</ele><time>2026-05-02T07:41:57Z</time></trkpt><trkpt lat="44.757931586379286" lon="9.937420089506622"><ele>585.0</ele><time>2026-05-02T07:42:00Z</time></trkpt><trkpt lat="44.75792973175654" lon="9.937315447811722"><ele>585.0</ele><time>2026-05-02T07:42:03Z</time></trkpt><trkpt lat="44.757932772698275" lon="9.937209305007647"><ele>584.5</ele><time>2026-05-02T07:42:06Z</time></trkpt><trkpt lat="44.75794514668131" lon="9.937102955637156"><ele>584.0</ele><time>2026-05-02T07:42:09Z</time></trkpt><trkpt lat="44.75796535009161" lon="9.93699976446343"><ele>583.5</ele><time>2026-05-02T07:42:12Z</time></trkpt><trkpt lat="44.75799687906373" lon="9.936883303860228"><ele>583.0</ele><time>2026-05-02T07:42:15Z</time></trkpt><trkpt lat="44.758030590721326" lon="9.936790781671863"><ele>582.5</ele><time>2026-05-02T07:42:18Z</time></trkpt><trkpt lat="44.75806731416461" lon="9.936714345001212"><ele>582.0</ele><time>2026-05-02T07:42:21Z</time></trkpt><trkpt lat="44.75811321698414" lon="9.936633256824177"><ele>583.0</ele><time>2026-05-02T07:42:23.999Z</time></trkpt><trkpt lat="44.75816529069414" lon="9.936560832328015"><ele>584.0</ele><time>2026-05-02T07:42:26.999Z</time></trkpt><trkpt lat="44.758225950378524" lon="9.936508574815354"><ele>585.0</ele><time>2026-05-02T07:42:29.999Z</time></trkpt><trkpt lat="44.758292954851534" lon="9.936446378342117"><ele>586.0</ele><time>2026-05-02T07:42:32.999Z</time></trkpt><trkpt lat="44.75835418254082" lon="9.93636480356193"><ele>587.0</ele><time>2026-05-02T07:42:35.999Z</time></trkpt><trkpt lat="44.75837279147813" lon="9.93626336513234"><ele>588.0</ele><time>2026-05-02T07:42:38.999Z</time></trkpt><trkpt lat="44.75836373395384" lon="9.936167102569396"><ele>588.0</ele><time>2026-05-02T07:42:41.999Z</time></trkpt><trkpt lat="44.758319672327055" lon="9.936094334769843"><ele>588.0</ele><time>2026-05-02T07:42:44.999Z</time></trkpt><trkpt lat="44.758261296170346" lon="9.93604929565048"><ele>588.0</ele><time>2026-05-02T07:42:47.999Z</time></trkpt><trkpt lat="44.75819478602391" lon="9.936018138314248"><ele>588.0</ele><time>2026-05-02T07:42:50.999Z</time></trkpt><trkpt lat="44.75812671644793" lon="9.93599906683478"><ele>588.0</ele><time>2026-05-02T07:42:53.999Z</time></trkpt><trkpt lat="44.75805676905471" lon="9.93598149710915"><ele>588.0</ele><time>2026-05-02T07:42:56.999Z</time></trkpt><trkpt lat="44.75796254119222" lon="9.935973407377551"><ele>588.0</ele><time>2026-05-02T07:43:00.999Z</time></trkpt><trkpt lat="44.75790030565205" lon="9.935993823877025"><ele>588.0</ele><time>2026-05-02T07:43:03.999Z</time></trkpt><trkpt lat="44.75784193983044" lon="9.936033669703834"><ele>588.0</ele><time>2026-05-02T07:43:06.999Z</time></trkpt><trkpt lat="44.75778225320168" lon="9.936091057405102"><ele>588.0</ele><time>2026-05-02T07:43:09.999Z</time></trkpt><trkpt lat="44.75772939142891" lon="9.936153210564694"><ele>588.0</ele><time>2026-05-02T07:43:12.999Z</time></trkpt><trkpt lat="44.75768093180427" lon="9.9362249267265"><ele>588.0</ele><time>2026-05-02T07:43:15.998Z</time></trkpt><trkpt lat="44.75763436726493" lon="9.936306847169382"><ele>588.0</ele><time>2026-05-02T07:43:18.998Z</time></trkpt><trkpt lat="44.75758997045639" lon="9.936402623526716"><ele>588.0</ele><time>2026-05-02T07:43:21.998Z</time></trkpt><trkpt lat="44.75755203462679" lon="9.936503383940147"><ele>590.7142857142857</ele><time>2026-05-02T07:43:24.998Z</time></trkpt><trkpt lat="44.757522584744905" lon="9.936596482156277"><ele>593.4285714285714</ele><time>2026-05-02T07:43:27.998Z</time></trkpt><trkpt lat="44.75749201909941" lon="9.93667540089568"><ele>596.1428571428571</ele><time>2026-05-02T07:43:29.998Z</time></trkpt><trkpt lat="44.75746221786948" lon="9.936766597842997"><ele>598.8571428571429</ele><time>2026-05-02T07:43:33Z</time></trkpt><trkpt lat="44.75743772821574" lon="9.936859716133807"><ele>601.5714285714286</ele><time>2026-05-02T07:43:36Z</time></trkpt><trkpt lat="44.757400993709325" lon="9.936961570338187"><ele>604.2857142857142</ele><time>2026-05-02T07:43:39Z</time></trkpt><trkpt lat="44.75737422581904" lon="9.93704368318733"><ele>607.0</ele><time>2026-05-02T07:43:41Z</time></trkpt><trkpt lat="44.757342576948965" lon="9.937143574937398"><ele>606.9999999999999</ele><time>2026-05-02T07:43:44Z</time></trkpt><trkpt lat="44.75730364344245" lon="9.937234084810418"><ele>607.0</ele><time>2026-05-02T07:43:47Z</time></trkpt><trkpt lat="44.75727689387693" lon="9.9373148933807"><ele>607.0</ele><time>2026-05-02T07:43:49Z</time></trkpt><trkpt lat="44.757249596423655" lon="9.937402044541937"><ele>607.0</ele><time>2026-05-02T07:43:52Z</time></trkpt><trkpt lat="44.75721870259093" lon="9.937486955931885"><ele>607.0</ele><time>2026-05-02T07:43:54Z</time></trkpt><trkpt lat="44.757196224393454" lon="9.937571943928953"><ele>606.9999999999999</ele><time>2026-05-02T07:43:57Z</time></trkpt><trkpt lat="44.75717865855052" lon="9.937676404766666"><ele>607.0</ele><time>2026-05-02T07:44:00Z</time></trkpt><trkpt lat="44.75717501152264" lon="9.937788126282525"><ele>608.0</ele><time>2026-05-02T07:44:03Z</time></trkpt><trkpt lat="44.757180999919534" lon="9.93788857090881"><ele>609.0</ele><time>2026-05-02T07:44:06Z</time></trkpt><trkpt lat="44.75720455718291" lon="9.937997846587743"><ele>610.0</ele><time>2026-05-02T07:44:09Z</time></trkpt><trkpt lat="44.75724829265248" lon="9.93809793037167"><ele>611.0</ele><time>2026-05-02T07:44:12Z</time></trkpt><trkpt lat="44.75729529142293" lon="9.93819439726638"><ele>612.0</ele><time>2026-05-02T07:44:15Z</time></trkpt><trkpt lat="44.75736589571746" lon="9.938277659458773"><ele>613.0</ele><time>2026-05-02T07:44:18Z</time></trkpt><trkpt lat="44.75742820117467" lon="9.93835057850498"><ele>612.6666666666667</ele><time>2026-05-02T07:44:21Z</time></trkpt><trkpt lat="44.75749473135351" lon="9.938424426815692"><ele>612.3333333333334</ele><time>2026-05-02T07:44:24Z</time></trkpt><trkpt lat="44.75755276400287" lon="9.938507968514632"><ele>612.0</ele><time>2026-05-02T07:44:26.999Z</time></trkpt><trkpt lat="44.75759566714723" lon="9.938616001026707"><ele>611.6666666666666</ele><time>2026-05-02T07:44:29.999Z</time></trkpt><trkpt lat="44.75760919557155" lon="9.938742038294123"><ele>611.3333333333333</ele><time>2026-05-02T07:44:32.999Z</time></trkpt><trkpt lat="44.75757114522299" lon="9.938874529350693"><ele>611.0</ele><time>2026-05-02T07:44:36.999Z</time></trkpt><trkpt lat="44.75752634972906" lon="9.938963022516125"><ele>611.0000000000001</ele><time>2026-05-02T07:44:39.999Z</time></trkpt><trkpt lat="44.75746050254252" lon="9.939009015352143"><ele>611.0</ele><time>2026-05-02T07:44:42.999Z</time></trkpt><trkpt lat="44.757380053048344" lon="9.939025704953297"><ele>611.0</ele><time>2026-05-02T07:44:46.999Z</time></trkpt><trkpt lat="44.75731678685105" lon="9.93901030430572"><ele>611.0</ele><time>2026-05-02T07:44:49.999Z</time></trkpt><trkpt lat="44.75725340243086" lon="9.93897018891677"><ele>611.0</ele><time>2026-05-02T07:44:52.999Z</time></trkpt><trkpt lat="44.75719160396674" lon="9.938914449639482"><ele>611.0000000000001</ele><time>2026-05-02T07:44:55.999Z</time></trkpt><trkpt lat="44.757134510135884" lon="9.938845705083047"><ele>611.0</ele><time>2026-05-02T07:44:58.999Z</time></trkpt><trkpt lat="44.75709447407109" lon="9.93876443033733"><ele>611.0</ele><time>2026-05-02T07:45:01.999Z</time></trkpt><trkpt lat="44.757061329053755" lon="9.938672077881312"><ele>611.0</ele><time>2026-05-02T07:45:04.999Z</time></trkpt><trkpt lat="44.75703363140949" lon="9.938575072840585"><ele>611.0</ele><time>2026-05-02T07:45:07.999Z</time></trkpt><trkpt lat="44.757008968163966" lon="9.9384719075346"><ele>611.0</ele><time>2026-05-02T07:45:10.999Z</time></trkpt><trkpt lat="44.75699012669457" lon="9.938362139758572"><ele>611.0</ele><time>2026-05-02T07:45:12.999Z</time></trkpt><trkpt lat="44.7569749718762" lon="9.938267916892219"><ele>611.0</ele><time>2026-05-02T07:45:15.999Z</time></trkpt><trkpt lat="44.75695195042166" lon="9.938142035173676"><ele>611.2857142857143</ele><time>2026-05-02T07:45:19.998Z</time></trkpt><trkpt lat="44.756931573483804" lon="9.938044500314955"><ele>611.5714285714286</ele><time>2026-05-02T07:45:22.998Z</time></trkpt><trkpt lat="44.75691444084503" lon="9.937949892473867"><ele>611.8571428571429</ele><time>2026-05-02T07:45:25.998Z</time></trkpt><trkpt lat="44.756899931824435" lon="9.937841138831365"><ele>612.1428571428571</ele><time>2026-05-02T07:45:28.998Z</time></trkpt><trkpt lat="44.756879607517064" lon="9.937733190289224"><ele>612.4285714285714</ele><time>2026-05-02T07:45:31.998Z</time></trkpt><trkpt lat="44.75686245153842" lon="9.937634754678836"><ele>612.7142857142858</ele><time>2026-05-02T07:45:34.998Z</time></trkpt><trkpt lat="44.75684979723372" lon="9.937536427767801"><ele>613.0</ele><time>2026-05-02T07:45:38Z</time></trkpt><trkpt lat="44.756839375720126" lon="9.937434279973088"><ele>614.0</ele><time>2026-05-02T07:45:41Z</time></trkpt><trkpt lat="44.75682794348492" lon="9.93732675991398"><ele>615.0</ele><time>2026-05-02T07:45:44Z</time></trkpt><trkpt lat="44.756824270765236" lon="9.937231631791837"><ele>616.0</ele><time>2026-05-02T07:45:46Z</time></trkpt><trkpt lat="44.75682849620703" lon="9.937127104197835"><ele>617.0</ele><time>2026-05-02T07:45:49Z</time></trkpt><trkpt lat="44.75683878760859" lon="9.937025513183048"><ele>618.0</ele><time>2026-05-02T07:45:52Z</time></trkpt><trkpt lat="44.756843775230415" lon="9.936913866654873"><ele>619.0</ele><time>2026-05-02T07:45:56Z</time></trkpt><trkpt lat="44.75679998296065" lon="9.937000840917873"><ele>620.0</ele><time>2026-05-02T07:46:01Z</time></trkpt><trkpt lat="44.75679342919906" lon="9.937091540300644"><ele>620.0</ele><time>2026-05-02T07:47:49Z</time></trkpt><trkpt lat="44.756787078242084" lon="9.937203953690904"><ele>620.0</ele><time>2026-05-02T07:47:53Z</time></trkpt><trkpt lat="44.756785937199155" lon="9.93731012719175"><ele>620.0</ele><time>2026-05-02T07:47:56Z</time></trkpt><trkpt lat="44.75677445823912" lon="9.937409327773898"><ele>620.0</ele><time>2026-05-02T07:48:05Z</time></trkpt><trkpt lat="44.75679673291698" lon="9.937531532269954"><ele>620.0</ele><time>2026-05-02T07:48:09Z</time></trkpt><trkpt lat="44.75680941891895" lon="9.937627983815412"><ele>620.0</ele><time>2026-05-02T07:48:11Z</time></trkpt><trkpt lat="44.756829967848006" lon="9.937737129231415"><ele>619.0</ele><time>2026-05-02T07:48:13Z</time></trkpt><trkpt lat="44.75686053653336" lon="9.937866325219131"><ele>618.0</ele><time>2026-05-02T07:48:15Z</time></trkpt><trkpt lat="44.756886812657626" lon="9.938019777483042"><ele>617.0</ele><time>2026-05-02T07:48:17Z</time></trkpt><trkpt lat="44.75691295873238" lon="9.938186344599718"><ele>616.0</ele><time>2026-05-02T07:48:19Z</time></trkpt><trkpt lat="44.75692521548555" lon="9.938277616814533"><ele>615.0</ele><time>2026-05-02T07:48:20Z</time></trkpt><trkpt lat="44.75694133722359" lon="9.938367923144494"><ele>614.4285714285714</ele><time>2026-05-02T07:48:21Z</time></trkpt><trkpt lat="44.756959658746894" lon="9.938462150277111"><ele>613.8571428571429</ele><time>2026-05-02T07:48:22Z</time></trkpt><trkpt lat="44.75697796120076" lon="9.93855592551598"><ele>613.2857142857143</ele><time>2026-05-02T07:48:23Z</time></trkpt><trkpt lat="44.75699846948459" lon="9.938652983397528"><ele>612.7142857142858</ele><time>2026-05-02T07:48:24Z</time></trkpt><trkpt lat="44.757025308412885" lon="9.938751068157108"><ele>612.1428571428571</ele><time>2026-05-02T07:48:25Z</time></trkpt><trkpt lat="44.75706454319172" lon="9.938845318780515"><ele>611.5714285714287</ele><time>2026-05-02T07:48:26Z</time></trkpt><trkpt lat="44.75711840667497" lon="9.938930843684975"><ele>611.0</ele><time>2026-05-02T07:48:27Z</time></trkpt><trkpt lat="44.75718097640041" lon="9.939004925863241"><ele>611.0</ele><time>2026-05-02T07:48:28Z</time></trkpt><trkpt lat="44.757258321205974" lon="9.939057338363881"><ele>611.0</ele><time>2026-05-02T07:48:29Z</time></trkpt><trkpt lat="44.757342899969814" lon="9.9390842211867"><ele>611.0</ele><time>2026-05-02T07:48:30Z</time></trkpt><trkpt lat="44.75743091033609" lon="9.939083018195275"><ele>611.0</ele><time>2026-05-02T07:48:31Z</time></trkpt><trkpt lat="44.757517503502676" lon="9.939049909563984"><ele>611.0</ele><time>2026-05-02T07:48:32Z</time></trkpt><trkpt lat="44.75758509600158" lon="9.9389635454846"><ele>611.0</ele><time>2026-05-02T07:48:32.999Z</time></trkpt><trkpt lat="44.75763181243758" lon="9.938847792416825"><ele>611.0</ele><time>2026-05-02T07:48:33.999Z</time></trkpt><trkpt lat="44.757654979348196" lon="9.938718778083631"><ele>611.0</ele><time>2026-05-02T07:48:34.999Z</time></trkpt><trkpt lat="44.75764679241445" lon="9.93859038722229"><ele>611.0</ele><time>2026-05-02T07:48:35.999Z</time></trkpt><trkpt lat="44.7576039009014" lon="9.938474257388666"><ele>611.0</ele><time>2026-05-02T07:48:36.999Z</time></trkpt><trkpt lat="44.75753690266675" lon="9.938384101382608"><ele>611.0</ele><time>2026-05-02T07:48:37.999Z</time></trkpt><trkpt lat="44.757458414904306" lon="9.93831141081011"><ele>611.4</ele><time>2026-05-02T07:48:38.999Z</time></trkpt><trkpt lat="44.75737806854284" lon="9.938245415188199"><ele>611.8</ele><time>2026-05-02T07:48:39.999Z</time></trkpt><trkpt lat="44.75730528880045" lon="9.93816210640181"><ele>612.1999999999999</ele><time>2026-05-02T07:48:40.999Z</time></trkpt><trkpt lat="44.75724561016147" lon="9.938054221205256"><ele>612.6</ele><time>2026-05-02T07:48:41.999Z</time></trkpt><trkpt lat="44.75720406700884" lon="9.93793384127887"><ele>613.0</ele><time>2026-05-02T07:48:42.999Z</time></trkpt><trkpt lat="44.757192487741584" lon="9.937803956605357"><ele>613.0</ele><time>2026-05-02T07:48:43.999Z</time></trkpt><trkpt lat="44.757207749843666" lon="9.937668624927733"><ele>613.0</ele><time>2026-05-02T07:48:44.999Z</time></trkpt><trkpt lat="44.757240915546056" lon="9.937536034882148"><ele>613.0</ele><time>2026-05-02T07:48:45.999Z</time></trkpt><trkpt lat="44.7572834964507" lon="9.937411897456776"><ele>613.0</ele><time>2026-05-02T07:48:46.999Z</time></trkpt><trkpt lat="44.757328923049734" lon="9.937289130408434"><ele>613.0</ele><time>2026-05-02T07:48:47.999Z</time></trkpt><trkpt lat="44.75737124222012" lon="9.937162584779712"><ele>612.8</ele><time>2026-05-02T07:48:48.999Z</time></trkpt><trkpt lat="44.75740837281393" lon="9.937036551368447"><ele>612.5999999999999</ele><time>2026-05-02T07:48:49.999Z</time></trkpt><trkpt lat="44.757445835258245" lon="9.936923177072384"><ele>612.4000000000001</ele><time>2026-05-02T07:48:50.999Z</time></trkpt><trkpt lat="44.75748521194975" lon="9.936811776806424"><ele>612.2</ele><time>2026-05-02T07:48:51.999Z</time></trkpt><trkpt lat="44.75752879665655" lon="9.936695974345781"><ele>612.0</ele><time>2026-05-02T07:48:52.999Z</time></trkpt><trkpt lat="44.757571950008014" lon="9.936580574367078"><ele>612.0</ele><time>2026-05-02T07:48:53.999Z</time></trkpt><trkpt lat="44.75761586062479" lon="9.93646415815783"><ele>612.0</ele><time>2026-05-02T07:48:54.999Z</time></trkpt><trkpt lat="44.75766556241634" lon="9.936345797579495"><ele>612.0</ele><time>2026-05-02T07:48:55.999Z</time></trkpt><trkpt lat="44.757721507036045" lon="9.936231037475851"><ele>612.0</ele><time>2026-05-02T07:48:56.999Z</time></trkpt><trkpt lat="44.75779187573232" lon="9.936128005120016"><ele>612.0</ele><time>2026-05-02T07:48:57.999Z</time></trkpt><trkpt lat="44.75787406762824" lon="9.936049653808748"><ele>608.0</ele><time>2026-05-02T07:48:58.999Z</time></trkpt><trkpt lat="44.757962337684674" lon="9.936005587408978"><ele>604.0</ele><time>2026-05-02T07:48:59.999Z</time></trkpt><trkpt lat="44.7580546653154" lon="9.936001130802188"><ele>600.0</ele><time>2026-05-02T07:49:00.999Z</time></trkpt><trkpt lat="44.75814786582853" lon="9.936020924589085"><ele>596.0</ele><time>2026-05-02T07:49:01.999Z</time></trkpt><trkpt lat="44.75823527184318" lon="9.936051285839284"><ele>592.0</ele><time>2026-05-02T07:49:02.999Z</time></trkpt><trkpt lat="44.758301644866634" lon="9.936100674853746"><ele>588.0</ele><time>2026-05-02T07:49:03.999Z</time></trkpt><trkpt lat="44.75835461044083" lon="9.936176956549135"><ele>588.0</ele><time>2026-05-02T07:49:04.999Z</time></trkpt><trkpt lat="44.7583755934797" lon="9.936269286180027"><ele>588.0</ele><time>2026-05-02T07:49:05.999Z</time></trkpt><trkpt lat="44.758343954634945" lon="9.936374919321091"><ele>588.0</ele><time>2026-05-02T07:49:06.999Z</time></trkpt><trkpt lat="44.758263386689244" lon="9.93641844683275"><ele>588.0</ele><time>2026-05-02T07:49:07.999Z</time></trkpt><trkpt lat="44.75819531434314" lon="9.936472323081086"><ele>588.0</ele><time>2026-05-02T07:49:08.999Z</time></trkpt><trkpt lat="44.75812083820702" lon="9.936532661595884"><ele>588.0</ele><time>2026-05-02T07:49:09.999Z</time></trkpt><trkpt lat="44.758061087146245" lon="9.936629399711595"><ele>586.8</ele><time>2026-05-02T07:49:10.999Z</time></trkpt><trkpt lat="44.75801030538885" lon="9.93673982867231"><ele>585.5999999999999</ele><time>2026-05-02T07:49:11.999Z</time></trkpt><trkpt lat="44.757965416620024" lon="9.936853633389465"><ele>584.4000000000001</ele><time>2026-05-02T07:49:12.999Z</time></trkpt><trkpt lat="44.757932049012425" lon="9.936978793747027"><ele>583.2</ele><time>2026-05-02T07:49:13.999Z</time></trkpt><trkpt lat="44.757911414752414" lon="9.937110796504397"><ele>582.0</ele><time>2026-05-02T07:49:14.999Z</time></trkpt><trkpt lat="44.757893363916985" lon="9.937244510308739"><ele>582.0</ele><time>2026-05-02T07:49:15.999Z</time></trkpt><trkpt lat="44.75788549656663" lon="9.93738205378385"><ele>582.0</ele><time>2026-05-02T07:49:16.999Z</time></trkpt><trkpt lat="44.75789548019717" lon="9.937522728265625"><ele>582.0</ele><time>2026-05-02T07:49:17.999Z</time></trkpt><trkpt lat="44.75792085248112" lon="9.937662095303164"><ele>582.0</ele><time>2026-05-02T07:49:18.999Z</time></trkpt><trkpt lat="44.757964220926326" lon="9.937796178319678"><ele>582.0</ele><time>2026-05-02T07:49:19.999Z</time></trkpt><trkpt lat="44.75802919052657" lon="9.937914239521445"><ele>582.6</ele><time>2026-05-02T07:49:20.999Z</time></trkpt><trkpt lat="44.75810626034426" lon="9.93801833262265"><ele>583.2</ele><time>2026-05-02T07:49:21.999Z</time></trkpt><trkpt lat="44.75817254324091" lon="9.938133212651442"><ele>583.8</ele><time>2026-05-02T07:49:22.999Z</time></trkpt><trkpt lat="44.75821547575691" lon="9.93827190297546"><ele>584.4</ele><time>2026-05-02T07:49:23.999Z</time></trkpt><trkpt lat="44.75823553858659" lon="9.938418367438125"><ele>585.0</ele><time>2026-05-02T07:49:24.999Z</time></trkpt><trkpt lat="44.75825227784048" lon="9.938558673353254"><ele>586.4</ele><time>2026-05-02T07:49:25.998Z</time></trkpt><trkpt lat="44.75828260002684" lon="9.938689999169743"><ele>587.8</ele><time>2026-05-02T07:49:26.998Z</time></trkpt><trkpt lat="44.75834139083467" lon="9.938797762122979"><ele>589.2</ele><time>2026-05-02T07:49:27.998Z</time></trkpt><trkpt lat="44.7584238787276" lon="9.938870823456085"><ele>590.6</ele><time>2026-05-02T07:49:28.998Z</time></trkpt><trkpt lat="44.75852142723227" lon="9.938904953730033"><ele>592.0</ele><time>2026-05-02T07:49:29.998Z</time></trkpt><trkpt lat="44.75862424323141" lon="9.938910326196993"><ele>587.4</ele><time>2026-05-02T07:49:30.998Z</time></trkpt><trkpt lat="44.758729637920524" lon="9.938901976289332"><ele>582.8000000000001</ele><time>2026-05-02T07:49:31.998Z</time></trkpt><trkpt lat="44.75883428907931" lon="9.938909816818619"><ele>578.2</ele><time>2026-05-02T07:49:32.998Z</time></trkpt><trkpt lat="44.75893565394855" lon="9.938959996618587"><ele>573.6</ele><time>2026-05-02T07:49:33.998Z</time></trkpt><trkpt lat="44.75901816161918" lon="9.939055153054005"><ele>569.0</ele><time>2026-05-02T07:49:34.998Z</time></trkpt><trkpt lat="44.759080853712256" lon="9.939177928646181"><ele>569.2</ele><time>2026-05-02T07:49:35.998Z</time></trkpt><trkpt lat="44.759124490959685" lon="9.939320296823919"><ele>569.4</ele><time>2026-05-02T07:49:36.998Z</time></trkpt><trkpt lat="44.75915325055072" lon="9.9394728360484"><ele>569.6</ele><time>2026-05-02T07:49:37.998Z</time></trkpt><trkpt lat="44.75916798699872" lon="9.939627460630431"><ele>569.8</ele><time>2026-05-02T07:49:38.998Z</time></trkpt><trkpt lat="44.75915546920782" lon="9.939778253515003"><ele>570.0</ele><time>2026-05-02T07:49:39.998Z</time></trkpt><trkpt lat="44.75910538516738" lon="9.939918175958491"><ele>570.0</ele><time>2026-05-02T07:49:40.998Z</time></trkpt><trkpt lat="44.759034677849776" lon="9.940043226648566"><ele>570.0</ele><time>2026-05-02T07:49:41.998Z</time></trkpt><trkpt lat="44.758976174778155" lon="9.940174299040587"><ele>570.0</ele><time>2026-05-02T07:49:42.998Z</time></trkpt><trkpt lat="44.7589523537401" lon="9.940324802567112"><ele>570.0</ele><time>2026-05-02T07:49:43.998Z</time></trkpt><trkpt lat="44.758973345783424" lon="9.940480962360747"><ele>570.0</ele><time>2026-05-02T07:49:44.998Z</time></trkpt><trkpt lat="44.75900822587929" lon="9.940629187395517"><ele>568.75</ele><time>2026-05-02T07:49:45.998Z</time></trkpt><trkpt lat="44.75903682440645" lon="9.94077812357705"><ele>567.5</ele><time>2026-05-02T07:49:46.998Z</time></trkpt><trkpt lat="44.759028687460216" lon="9.940940177647924"><ele>566.25</ele><time>2026-05-02T07:49:48Z</time></trkpt><trkpt lat="44.75900062796811" lon="9.941099968649004"><ele>565.0</ele><time>2026-05-02T07:49:49Z</time></trkpt><trkpt lat="44.75897318444827" lon="9.941258578601305"><ele>562.75</ele><time>2026-05-02T07:49:50Z</time></trkpt><trkpt lat="44.758944982992546" lon="9.94141649283681"><ele>560.5</ele><time>2026-05-02T07:49:51Z</time></trkpt><trkpt lat="44.758910136141026" lon="9.941576320735482"><ele>558.25</ele><time>2026-05-02T07:49:52Z</time></trkpt><trkpt lat="44.75887624275596" lon="9.941738555518528"><ele>556.0</ele><time>2026-05-02T07:49:53Z</time></trkpt><trkpt lat="44.75885111118865" lon="9.941907094064337"><ele>554.0</ele><time>2026-05-02T07:49:54Z</time></trkpt><trkpt lat="44.75883762874858" lon="9.942080163419078"><ele>552.0</ele><time>2026-05-02T07:49:55Z</time></trkpt><trkpt lat="44.75883456334446" lon="9.942256585636368"><ele>550.0</ele><time>2026-05-02T07:49:56Z</time></trkpt><trkpt lat="44.758845195072126" lon="9.942435524328989"><ele>548.0</ele><time>2026-05-02T07:49:57Z</time></trkpt><trkpt lat="44.758868718128646" lon="9.942609618679375"><ele>547.5</ele><time>2026-05-02T07:49:58Z</time></trkpt><trkpt lat="44.75890244184166" lon="9.94277018763401"><ele>547.0</ele><time>2026-05-02T07:49:59Z</time></trkpt><trkpt lat="44.758927149465556" lon="9.942911813214286"><ele>546.5</ele><time>2026-05-02T07:50:00Z</time></trkpt><trkpt lat="44.75895121964415" lon="9.943024992150084"><ele>546.0</ele><time>2026-05-02T07:50:01Z</time></trkpt><trkpt lat="44.75899822313009" lon="9.94309530552359"><ele>545.5</ele><time>2026-05-02T07:50:02Z</time></trkpt><trkpt lat="44.759060972132886" lon="9.94310418754847"><ele>545.0</ele><time>2026-05-02T07:50:03Z</time></trkpt><trkpt lat="44.759123247344306" lon="9.94303061159144"><ele>545.0</ele><time>2026-05-02T07:50:04Z</time></trkpt><trkpt lat="44.75913750813052" lon="9.942911456072562"><ele>545.0</ele><time>2026-05-02T07:50:05Z</time></trkpt><trkpt lat="44.75911293371649" lon="9.942790367489627"><ele>545.0</ele><time>2026-05-02T07:50:06Z</time></trkpt><trkpt lat="44.759108921983696" lon="9.942683830737558"><ele>545.0</ele><time>2026-05-02T07:50:07Z</time></trkpt><trkpt lat="44.75910791555012" lon="9.942565051400639"><ele>545.0</ele><time>2026-05-02T07:50:08Z</time></trkpt><trkpt lat="44.75911407955427" lon="9.942441975650526"><ele>545.0</ele><time>2026-05-02T07:50:09Z</time></trkpt><trkpt lat="44.75913409699307" lon="9.942316289895096"><ele>545.6</ele><time>2026-05-02T07:50:10Z</time></trkpt><trkpt lat="44.759161093938374" lon="9.942194662020224"><ele>546.2</ele><time>2026-05-02T07:50:11Z</time></trkpt><trkpt lat="44.759205696872634" lon="9.942084385852091"><ele>546.8</ele><time>2026-05-02T07:50:12Z</time></trkpt><trkpt lat="44.759260445291694" lon="9.941964162664666"><ele>547.4</ele><time>2026-05-02T07:50:13Z</time></trkpt><trkpt lat="44.75931782452835" lon="9.941850686440668"><ele>548.0</ele><time>2026-05-02T07:50:14Z</time></trkpt><trkpt lat="44.75938032026989" lon="9.941736825226473"><ele>544.8</ele><time>2026-05-02T07:50:15Z</time></trkpt><trkpt lat="44.75944391858097" lon="9.941618254135676"><ele>541.5999999999999</ele><time>2026-05-02T07:50:16Z</time></trkpt><trkpt lat="44.75950372906826" lon="9.94149325665848"><ele>538.4000000000001</ele><time>2026-05-02T07:50:17Z</time></trkpt><trkpt lat="44.7595655460547" lon="9.941369970455272"><ele>535.2</ele><time>2026-05-02T07:50:18Z</time></trkpt><trkpt lat="44.75962859838649" lon="9.941244675342736"><ele>532.0</ele><time>2026-05-02T07:50:19Z</time></trkpt><trkpt lat="44.75969418260161" lon="9.94111982980978"><ele>532.0</ele><time>2026-05-02T07:50:20Z</time></trkpt><trkpt lat="44.7597630907093" lon="9.941000719649365"><ele>532.0</ele><time>2026-05-02T07:50:21Z</time></trkpt><trkpt lat="44.759832971601355" lon="9.940880366898327"><ele>532.0</ele><time>2026-05-02T07:50:22Z</time></trkpt><trkpt lat="44.759907866905586" lon="9.940767228831564"><ele>532.0</ele><time>2026-05-02T07:50:23Z</time></trkpt><trkpt lat="44.759985264298756" lon="9.94065254830119"><ele>532.0</ele><time>2026-05-02T07:50:24Z</time></trkpt><trkpt lat="44.7600569836804" lon="9.940536539377693"><ele>530.8000000000001</ele><time>2026-05-02T07:50:25Z</time></trkpt><trkpt lat="44.76013705917513" lon="9.940427366011289"><ele>529.6</ele><time>2026-05-02T07:50:26Z</time></trkpt><trkpt lat="44.76023611415867" lon="9.940350575319236"><ele>528.4000000000001</ele><time>2026-05-02T07:50:27Z</time></trkpt><trkpt lat="44.76034202594356" lon="9.940299589065885"><ele>527.2</ele><time>2026-05-02T07:50:28Z</time></trkpt><trkpt lat="44.76045075474205" lon="9.940265393414697"><ele>526.0</ele><time>2026-05-02T07:50:29Z</time></trkpt><trkpt lat="44.760558292340605" lon="9.940230352751243"><ele>526.0</ele><time>2026-05-02T07:50:30Z</time></trkpt><trkpt lat="44.76066433007366" lon="9.94018445959044"><ele>526.0</ele><time>2026-05-02T07:50:31Z</time></trkpt><trkpt lat="44.760763517242815" lon="9.940125782482381"><ele>526.0</ele><time>2026-05-02T07:50:32Z</time></trkpt><trkpt lat="44.76085004150793" lon="9.940078267088351"><ele>526.0</ele><time>2026-05-02T07:50:33Z</time></trkpt><trkpt lat="44.76092888062486" lon="9.940066576141467"><ele>526.0</ele><time>2026-05-02T07:50:34Z</time></trkpt><trkpt lat="44.760992588424266" lon="9.94011057420485"><ele>526.0</ele><time>2026-05-02T07:50:35Z</time></trkpt><trkpt lat="44.76102477704424" lon="9.940196616008334"><ele>526.0</ele><time>2026-05-02T07:50:36Z</time></trkpt><trkpt lat="44.760980705783034" lon="9.94029879251387"><ele>526.0</ele><time>2026-05-02T07:50:37Z</time></trkpt><trkpt lat="44.760930597748754" lon="9.940373740685935"><ele>526.0</ele><time>2026-05-02T07:50:38Z</time></trkpt><trkpt lat="44.7608886298509" lon="9.940476326906305"><ele>526.0</ele><time>2026-05-02T07:50:38.999Z</time></trkpt><trkpt lat="44.760829347780984" lon="9.940558618197526"><ele>526.0</ele><time>2026-05-02T07:50:39.999Z</time></trkpt><trkpt lat="44.76076882321253" lon="9.940647539708898"><ele>526.0</ele><time>2026-05-02T07:50:40.999Z</time></trkpt><trkpt lat="44.76070855131294" lon="9.940740608595583"><ele>526.0</ele><time>2026-05-02T07:50:41.999Z</time></trkpt><trkpt lat="44.76064669859107" lon="9.940834798352364"><ele>526.0</ele><time>2026-05-02T07:50:42.999Z</time></trkpt><trkpt lat="44.76058905758135" lon="9.940940421589875"><ele>526.0</ele><time>2026-05-02T07:50:43.999Z</time></trkpt><trkpt lat="44.760535378184855" lon="9.941055404379505"><ele>526.0</ele><time>2026-05-02T07:50:44.999Z</time></trkpt><trkpt lat="44.76049161605551" lon="9.941182806123573"><ele>523.8</ele><time>2026-05-02T07:50:45.999Z</time></trkpt><trkpt lat="44.7604572762222" lon="9.941318628028627"><ele>521.6</ele><time>2026-05-02T07:50:46.999Z</time></trkpt><trkpt lat="44.76042348635856" lon="9.941454814405175"><ele>519.4</ele><time>2026-05-02T07:50:47.999Z</time></trkpt><trkpt lat="44.76039090454576" lon="9.94159558793674"><ele>517.2</ele><time>2026-05-02T07:50:48.999Z</time></trkpt><trkpt lat="44.7603638528051" lon="9.941740131371718"><ele>515.0</ele><time>2026-05-02T07:50:49.999Z</time></trkpt><trkpt lat="44.760335592114195" lon="9.941885922969785"><ele>515.0</ele><time>2026-05-02T07:50:50.999Z</time></trkpt><trkpt lat="44.76031106543787" lon="9.942035059978425"><ele>515.0</ele><time>2026-05-02T07:50:51.999Z</time></trkpt><trkpt lat="44.76028574852269" lon="9.942187323206504"><ele>515.0</ele><time>2026-05-02T07:50:52.999Z</time></trkpt><trkpt lat="44.76026213855082" lon="9.942335919434244"><ele>515.0</ele><time>2026-05-02T07:50:53.999Z</time></trkpt><trkpt lat="44.7602480981301" lon="9.942483691250867"><ele>515.0</ele><time>2026-05-02T07:50:54.999Z</time></trkpt><trkpt lat="44.76026044038501" lon="9.942626186819995"><ele>515.0</ele><time>2026-05-02T07:50:55.999Z</time></trkpt><trkpt lat="44.760305727486646" lon="9.942754804723775"><ele>515.0</ele><time>2026-05-02T07:50:56.999Z</time></trkpt><trkpt lat="44.76037304285807" lon="9.942863776518326"><ele>515.0</ele><time>2026-05-02T07:50:57.999Z</time></trkpt><trkpt lat="44.76044075905225" lon="9.942970931208235"><ele>515.0</ele><time>2026-05-02T07:50:58.999Z</time></trkpt><trkpt lat="44.76049798730884" lon="9.943090189272068"><ele>515.0</ele><time>2026-05-02T07:50:59.999Z</time></trkpt><trkpt lat="44.76054374456468" lon="9.943218812059584"><ele>515.0</ele><time>2026-05-02T07:51:00.999Z</time></trkpt><trkpt lat="44.760572220517865" lon="9.943359201645972"><ele>515.0</ele><time>2026-05-02T07:51:01.999Z</time></trkpt><trkpt lat="44.760599702521326" lon="9.943500454881251"><ele>515.0</ele><time>2026-05-02T07:51:02.999Z</time></trkpt><trkpt lat="44.76063446126432" lon="9.943642937698096"><ele>515.0</ele><time>2026-05-02T07:51:03.999Z</time></trkpt><trkpt lat="44.760663966645744" lon="9.943780818762013"><ele>515.0</ele><time>2026-05-02T07:51:04.999Z</time></trkpt><trkpt lat="44.76070149470791" lon="9.943905873226647"><ele>514.1666666666666</ele><time>2026-05-02T07:51:05.999Z</time></trkpt><trkpt lat="44.760755050617824" lon="9.944014651014507"><ele>513.3333333333333</ele><time>2026-05-02T07:51:06.999Z</time></trkpt><trkpt lat="44.76081681467933" lon="9.944083643915162"><ele>512.5</ele><time>2026-05-02T07:51:07.999Z</time></trkpt><trkpt lat="44.760885849251984" lon="9.944099538854408"><ele>511.66666666666663</ele><time>2026-05-02T07:51:08.999Z</time></trkpt><trkpt lat="44.76094774049159" lon="9.944043936016406"><ele>510.8333333333333</ele><time>2026-05-02T07:51:09.999Z</time></trkpt><trkpt lat="44.760988325437644" lon="9.943939384649713"><ele>510.0</ele><time>2026-05-02T07:51:10.999Z</time></trkpt><trkpt lat="44.76101216403467" lon="9.943834450646802"><ele>507.3333333333333</ele><time>2026-05-02T07:51:11.999Z</time></trkpt><trkpt lat="44.76103830539628" lon="9.943733596083883"><ele>504.66666666666663</ele><time>2026-05-02T07:51:12.999Z</time></trkpt><trkpt lat="44.761054337463655" lon="9.94362517773469"><ele>502.0</ele><time>2026-05-02T07:51:13.999Z</time></trkpt><trkpt lat="44.76106608769473" lon="9.943514901269936"><ele>499.3333333333333</ele><time>2026-05-02T07:51:14.999Z</time></trkpt><trkpt lat="44.76106847187302" lon="9.943399046908029"><ele>496.66666666666663</ele><time>2026-05-02T07:51:15.999Z</time></trkpt><trkpt lat="44.761059311134645" lon="9.943279771948193"><ele>494.0</ele><time>2026-05-02T07:51:16.999Z</time></trkpt><trkpt lat="44.76103252050077" lon="9.943158300659604"><ele>498.2</ele><time>2026-05-02T07:51:17.999Z</time></trkpt><trkpt lat="44.76100155985268" lon="9.94304651847842"><ele>502.4</ele><time>2026-05-02T07:51:18.999Z</time></trkpt><trkpt lat="44.760966729464926" lon="9.942930340168934"><ele>506.6</ele><time>2026-05-02T07:51:19.999Z</time></trkpt><trkpt lat="44.760956436710394" lon="9.942801325582137"><ele>510.8</ele><time>2026-05-02T07:51:20.999Z</time></trkpt><trkpt lat="44.76097329389441" lon="9.942672308532984"><ele>515.0</ele><time>2026-05-02T07:51:21.999Z</time></trkpt><trkpt lat="44.76101076865901" lon="9.94255433556753"><ele>511.0</ele><time>2026-05-02T07:51:22.999Z</time></trkpt><trkpt lat="44.76107118882789" lon="9.942437256760615"><ele>507.0</ele><time>2026-05-02T07:51:23.999Z</time></trkpt><trkpt lat="44.76112780784228" lon="9.94232123846192"><ele>503.0</ele><time>2026-05-02T07:51:24.999Z</time></trkpt><trkpt lat="44.76119098768218" lon="9.94220935639114"><ele>499.0</ele><time>2026-05-02T07:51:25.999Z</time></trkpt><trkpt lat="44.76125485002677" lon="9.942091551007058"><ele>495.0</ele><time>2026-05-02T07:51:26.999Z</time></trkpt><trkpt lat="44.76132330196131" lon="9.94197478161793"><ele>495.0</ele><time>2026-05-02T07:51:27.999Z</time></trkpt><trkpt lat="44.76140502942653" lon="9.941873097547944"><ele>495.0</ele><time>2026-05-02T07:51:28.999Z</time></trkpt><trkpt lat="44.76149694479799" lon="9.941784260319912"><ele>495.0</ele><time>2026-05-02T07:51:29.999Z</time></trkpt><trkpt lat="44.761597751875655" lon="9.94171383894923"><ele>495.0</ele><time>2026-05-02T07:51:30.998Z</time></trkpt><trkpt lat="44.76170673612864" lon="9.941674682781061"><ele>495.0</ele><time>2026-05-02T07:51:31.998Z</time></trkpt><trkpt lat="44.76181329184406" lon="9.94166673141906"><ele>494.2</ele><time>2026-05-02T07:51:32.998Z</time></trkpt><trkpt lat="44.761916177709736" lon="9.941682286092934"><ele>493.4</ele><time>2026-05-02T07:51:33.998Z</time></trkpt><trkpt lat="44.76202010123669" lon="9.941699691647784"><ele>492.6</ele><time>2026-05-02T07:51:34.998Z</time></trkpt><trkpt lat="44.762128128205006" lon="9.941682290854995"><ele>491.8</ele><time>2026-05-02T07:51:35.998Z</time></trkpt><trkpt lat="44.76222805967503" lon="9.94161349831831"><ele>491.0</ele><time>2026-05-02T07:51:36.998Z</time></trkpt><trkpt lat="44.76230819109511" lon="9.94151297976743"><ele>491.0</ele><time>2026-05-02T07:51:37.998Z</time></trkpt><trkpt lat="44.76237624844626" lon="9.941388594323007"><ele>491.0</ele><time>2026-05-02T07:51:38.998Z</time></trkpt><trkpt lat="44.76244269892391" lon="9.941272158448218"><ele>491.0</ele><time>2026-05-02T07:51:39.998Z</time></trkpt><trkpt lat="44.76250252480295" lon="9.94116479958385"><ele>491.0</ele><time>2026-05-02T07:51:40.998Z</time></trkpt><trkpt lat="44.76256780297781" lon="9.941090377573628"><ele>491.0</ele><time>2026-05-02T07:51:41.998Z</time></trkpt><trkpt lat="44.76264751433123" lon="9.941039883405747"><ele>488.4</ele><time>2026-05-02T07:51:42.998Z</time></trkpt><trkpt lat="44.76274250771537" lon="9.941034816486454"><ele>485.8</ele><time>2026-05-02T07:51:43.998Z</time></trkpt><trkpt lat="44.76282967773779" lon="9.941080361176912"><ele>483.19999999999993</ele><time>2026-05-02T07:51:44.998Z</time></trkpt><trkpt lat="44.762917877622286" lon="9.941140860151906"><ele>480.59999999999997</ele><time>2026-05-02T07:51:45.998Z</time></trkpt><trkpt lat="44.76300517783283" lon="9.941185009561538"><ele>478.0</ele><time>2026-05-02T07:51:46.998Z</time></trkpt><trkpt lat="44.76309940517456" lon="9.941207885628678"><ele>478.0</ele><time>2026-05-02T07:51:47.998Z</time></trkpt><trkpt lat="44.76319481507588" lon="9.941191656907286"><ele>477.99999999999994</ele><time>2026-05-02T07:51:48.998Z</time></trkpt><trkpt lat="44.76328820679556" lon="9.941144202274566"><ele>477.99999999999994</ele><time>2026-05-02T07:51:49.998Z</time></trkpt><trkpt lat="44.763375797417886" lon="9.941078762563492"><ele>478.0</ele><time>2026-05-02T07:51:50.998Z</time></trkpt><trkpt lat="44.76347069401043" lon="9.941019785244434"><ele>478.0</ele><time>2026-05-02T07:51:51.998Z</time></trkpt><trkpt lat="44.76356681584493" lon="9.940960428804566"><ele>476.59999999999997</ele><time>2026-05-02T07:51:53Z</time></trkpt><trkpt lat="44.763653950246145" lon="9.940891451027502"><ele>475.19999999999993</ele><time>2026-05-02T07:51:54Z</time></trkpt><trkpt lat="44.7637254891279" lon="9.940798995610287"><ele>473.8</ele><time>2026-05-02T07:51:55Z</time></trkpt><trkpt lat="44.763777235251744" lon="9.940680862460916"><ele>472.4</ele><time>2026-05-02T07:51:56Z</time></trkpt><trkpt lat="44.7638214582506" lon="9.940566830379042"><ele>471.0</ele><time>2026-05-02T07:51:57Z</time></trkpt><trkpt lat="44.76386277068813" lon="9.940488123743911"><ele>471.0</ele><time>2026-05-02T07:51:58Z</time></trkpt><trkpt lat="44.7639675266301" lon="9.940500534281943"><ele>471.0</ele><time>2026-05-02T07:52:00Z</time></trkpt><trkpt lat="44.76396416519692" lon="9.940598128485528"><ele>471.0</ele><time>2026-05-02T07:52:01Z</time></trkpt><trkpt lat="44.76393540038119" lon="9.940687538617654"><ele>471.0</ele><time>2026-05-02T07:52:02Z</time></trkpt><trkpt lat="44.763918662004954" lon="9.9407893908624"><ele>471.0</ele><time>2026-05-02T07:52:03Z</time></trkpt><trkpt lat="44.76387124676662" lon="9.940875681153804"><ele>471.0</ele><time>2026-05-02T07:52:04Z</time></trkpt><trkpt lat="44.763832007354694" lon="9.940962188760956"><ele>469.0</ele><time>2026-05-02T07:52:05Z</time></trkpt><trkpt lat="44.76379301369539" lon="9.941066796805627"><ele>467.0</ele><time>2026-05-02T07:52:06Z</time></trkpt><trkpt lat="44.763740346410664" lon="9.94116258327565"><ele>465.0</ele><time>2026-05-02T07:52:07Z</time></trkpt><trkpt lat="44.763683126738684" lon="9.941262238801903"><ele>463.0</ele><time>2026-05-02T07:52:08Z</time></trkpt><trkpt lat="44.76362652182771" lon="9.941369444741916"><ele>461.0</ele><time>2026-05-02T07:52:09Z</time></trkpt><trkpt lat="44.763568102932226" lon="9.941482336262036"><ele>462.0</ele><time>2026-05-02T07:52:10Z</time></trkpt><trkpt lat="44.76349570811777" lon="9.94158595128132"><ele>463.0</ele><time>2026-05-02T07:52:11Z</time></trkpt><trkpt lat="44.763435366448995" lon="9.94170586818757"><ele>464.0</ele><time>2026-05-02T07:52:12Z</time></trkpt><trkpt lat="44.763373648789674" lon="9.94182895597332"><ele>465.0</ele><time>2026-05-02T07:52:13Z</time></trkpt><trkpt lat="44.76331036978819" lon="9.941955566669913"><ele>466.0</ele><time>2026-05-02T07:52:14Z</time></trkpt><trkpt lat="44.763262566615715" lon="9.942103399528257"><ele>466.0</ele><time>2026-05-02T07:52:15Z</time></trkpt><trkpt lat="44.76320138329101" lon="9.94223939076751"><ele>466.0</ele><time>2026-05-02T07:52:16Z</time></trkpt><trkpt lat="44.7631467365792" lon="9.942368077749915"><ele>466.0</ele><time>2026-05-02T07:52:17Z</time></trkpt><trkpt lat="44.76310742404731" lon="9.942495862167252"><ele>466.0</ele><time>2026-05-02T07:52:18Z</time></trkpt><trkpt lat="44.76307133834189" lon="9.942609365723618"><ele>466.0</ele><time>2026-05-02T07:52:19Z</time></trkpt><trkpt lat="44.76311758319691" lon="9.942729940944833"><ele>465.6</ele><time>2026-05-02T07:52:20Z</time></trkpt><trkpt lat="44.763191128768646" lon="9.942801048701664"><ele>465.20000000000005</ele><time>2026-05-02T07:52:21Z</time></trkpt><trkpt lat="44.7632860879058" lon="9.942814234938977"><ele>464.79999999999995</ele><time>2026-05-02T07:52:22Z</time></trkpt><trkpt lat="44.76338263882377" lon="9.942787302871603"><ele>464.4</ele><time>2026-05-02T07:52:23Z</time></trkpt><trkpt lat="44.76347685277372" lon="9.942747314612758"><ele>464.0</ele><time>2026-05-02T07:52:24Z</time></trkpt><trkpt lat="44.763572678145714" lon="9.942696608870298"><ele>461.75</ele><time>2026-05-02T07:52:25Z</time></trkpt><trkpt lat="44.763671157453665" lon="9.942638885447641"><ele>459.5</ele><time>2026-05-02T07:52:26Z</time></trkpt><trkpt lat="44.763768913029615" lon="9.942564161001703"><ele>457.25</ele><time>2026-05-02T07:52:27Z</time></trkpt><trkpt lat="44.763864164689004" lon="9.942476215356248"><ele>455.0</ele><time>2026-05-02T07:52:28Z</time></trkpt><trkpt lat="44.763956451400844" lon="9.942369735636493"><ele>455.0</ele><time>2026-05-02T07:52:29Z</time></trkpt><trkpt lat="44.76404918742956" lon="9.942262237697685"><ele>455.0</ele><time>2026-05-02T07:52:30Z</time></trkpt><trkpt lat="44.76415255825187" lon="9.942166342480167"><ele>455.0</ele><time>2026-05-02T07:52:31Z</time></trkpt><trkpt lat="44.76426557174636" lon="9.942084280868759"><ele>455.0</ele><time>2026-05-02T07:52:32Z</time></trkpt><trkpt lat="44.76437835265028" lon="9.941996654404546"><ele>452.25</ele><time>2026-05-02T07:52:33Z</time></trkpt><trkpt lat="44.76449256547573" lon="9.941907408466157"><ele>449.5</ele><time>2026-05-02T07:52:34Z</time></trkpt><trkpt lat="44.764607240335344" lon="9.941825194163059"><ele>446.75</ele><time>2026-05-02T07:52:35Z</time></trkpt><trkpt lat="44.76472651569273" lon="9.941740222383325"><ele>444.0</ele><time>2026-05-02T07:52:36Z</time></trkpt><trkpt lat="44.76484400905669" lon="9.941648954175767"><ele>444.0</ele><time>2026-05-02T07:52:37Z</time></trkpt><trkpt lat="44.7649628590356" lon="9.941551271170674"><ele>444.0</ele><time>2026-05-02T07:52:38Z</time></trkpt><trkpt lat="44.76508517919271" lon="9.941458580996766"><ele>444.0</ele><time>2026-05-02T07:52:39Z</time></trkpt><trkpt lat="44.7652106454919" lon="9.941367765326675"><ele>444.0</ele><time>2026-05-02T07:52:40Z</time></trkpt><trkpt lat="44.7653327498838" lon="9.941271985516748"><ele>441.0</ele><time>2026-05-02T07:52:40.999Z</time></trkpt><trkpt lat="44.76545574048114" lon="9.941177682518976"><ele>438.0</ele><time>2026-05-02T07:52:41.999Z</time></trkpt><trkpt lat="44.76558102342616" lon="9.941087386687046"><ele>435.0</ele><time>2026-05-02T07:52:42.999Z</time></trkpt><trkpt lat="44.76570774456522" lon="9.941003232691429"><ele>432.0</ele><time>2026-05-02T07:52:43.999Z</time></trkpt><trkpt lat="44.76583678747469" lon="9.940932376330716"><ele>432.0</ele><time>2026-05-02T07:52:44.999Z</time></trkpt><trkpt lat="44.76596848786876" lon="9.940879870168123"><ele>432.0</ele><time>2026-05-02T07:52:45.999Z</time></trkpt><trkpt lat="44.76610196444499" lon="9.940823729466391"><ele>432.0</ele><time>2026-05-02T07:52:46.999Z</time></trkpt><trkpt lat="44.76623395893094" lon="9.940764304682231"><ele>432.0</ele><time>2026-05-02T07:52:47.999Z</time></trkpt><trkpt lat="44.7663656927175" lon="9.94070882987714"><ele>432.0</ele><time>2026-05-02T07:52:48.999Z</time></trkpt><trkpt lat="44.766494550573974" lon="9.940644261238898"><ele>432.0</ele><time>2026-05-02T07:52:49.999Z</time></trkpt><trkpt lat="44.76662578326825" lon="9.940587823789443"><ele>432.0</ele><time>2026-05-02T07:52:50.999Z</time></trkpt><trkpt lat="44.766759740460905" lon="9.940547224256596"><ele>432.0</ele><time>2026-05-02T07:52:51.999Z</time></trkpt><trkpt lat="44.76689377308096" lon="9.940515514715406"><ele>431.25</ele><time>2026-05-02T07:52:52.999Z</time></trkpt><trkpt lat="44.767029796375795" lon="9.940489213831407"><ele>430.5</ele><time>2026-05-02T07:52:53.999Z</time></trkpt><trkpt lat="44.76716422282622" lon="9.94045978648692"><ele>429.75</ele><time>2026-05-02T07:52:54.999Z</time></trkpt><trkpt lat="44.7672989942362" lon="9.940431976093"><ele>429.0</ele><time>2026-05-02T07:52:55.999Z</time></trkpt><trkpt lat="44.76743122433194" lon="9.940402622488897"><ele>429.0</ele><time>2026-05-02T07:52:56.999Z</time></trkpt><trkpt lat="44.76756271907277" lon="9.940370562595469"><ele>429.0</ele><time>2026-05-02T07:52:57.999Z</time></trkpt><trkpt lat="44.76769200176741" lon="9.940344304150148"><ele>429.0</ele><time>2026-05-02T07:52:58.999Z</time></trkpt><trkpt lat="44.76781882222427" lon="9.940338142286482"><ele>429.0</ele><time>2026-05-02T07:52:59.999Z</time></trkpt><trkpt lat="44.76794686277906" lon="9.940363801408735"><ele>428.0</ele><time>2026-05-02T07:53:00.999Z</time></trkpt><trkpt lat="44.768069859335405" lon="9.940410382309633"><ele>427.0</ele><time>2026-05-02T07:53:01.999Z</time></trkpt><trkpt lat="44.76818680340799" lon="9.940473910335575"><ele>426.0</ele><time>2026-05-02T07:53:02.999Z</time></trkpt><trkpt lat="44.76828858513705" lon="9.940547465737474"><ele>425.0</ele><time>2026-05-02T07:53:03.999Z</time></trkpt><trkpt lat="44.768376141031496" lon="9.940645322733396"><ele>425.0</ele><time>2026-05-02T07:53:04.999Z</time></trkpt><trkpt lat="44.76845290748761" lon="9.940773911591391"><ele>425.0</ele><time>2026-05-02T07:53:05.999Z</time></trkpt><trkpt lat="44.76851043805642" lon="9.940916893278455"><ele>425.0</ele><time>2026-05-02T07:53:06.999Z</time></trkpt><trkpt lat="44.768545535721735" lon="9.941078017471936"><ele>425.0</ele><time>2026-05-02T07:53:07.999Z</time></trkpt><trkpt lat="44.76857234312116" lon="9.941241670504766"><ele>422.5</ele><time>2026-05-02T07:53:08.999Z</time></trkpt><trkpt lat="44.768617724218885" lon="9.941389394427452"><ele>420.0</ele><time>2026-05-02T07:53:09.999Z</time></trkpt><trkpt lat="44.768698189411445" lon="9.94151490203466"><ele>417.5</ele><time>2026-05-02T07:53:10.999Z</time></trkpt><trkpt lat="44.768799493778374" lon="9.941604805800779"><ele>415.0</ele><time>2026-05-02T07:53:11.999Z</time></trkpt><trkpt lat="44.768909056921565" lon="9.941672354837877"><ele>414.0</ele><time>2026-05-02T07:53:12.999Z</time></trkpt><trkpt lat="44.76902339960087" lon="9.941728964202207"><ele>413.0</ele><time>2026-05-02T07:53:13.999Z</time></trkpt><trkpt lat="44.769140448388505" lon="9.941774124538236"><ele>412.0</ele><time>2026-05-02T07:53:14.999Z</time></trkpt><trkpt lat="44.76926266839495" lon="9.941799816289"><ele>411.0</ele><time>2026-05-02T07:53:15.999Z</time></trkpt><trkpt lat="44.769387607257414" lon="9.941801905462468"><ele>411.25</ele><time>2026-05-02T07:53:16.999Z</time></trkpt><trkpt lat="44.76951177674351" lon="9.9417762977645"><ele>411.5</ele><time>2026-05-02T07:53:17.999Z</time></trkpt><trkpt lat="44.76963072560837" lon="9.941713170516875"><ele>411.75</ele><time>2026-05-02T07:53:18.999Z</time></trkpt><trkpt lat="44.76973695533612" lon="9.94161689441998"><ele>412.0</ele><time>2026-05-02T07:53:19.999Z</time></trkpt><trkpt lat="44.76983484225744" lon="9.94150423611454"><ele>412.0</ele><time>2026-05-02T07:53:20.999Z</time></trkpt><trkpt lat="44.769918654182554" lon="9.941369259410415"><ele>412.0</ele><time>2026-05-02T07:53:21.999Z</time></trkpt><trkpt lat="44.76998843625628" lon="9.941218855224284"><ele>412.0</ele><time>2026-05-02T07:53:22.999Z</time></trkpt><trkpt lat="44.77005089338938" lon="9.941061777125903"><ele>412.0</ele><time>2026-05-02T07:53:23.999Z</time></trkpt><trkpt lat="44.770110130744705" lon="9.940908423899069"><ele>410.75</ele><time>2026-05-02T07:53:24.999Z</time></trkpt><trkpt lat="44.770166182745065" lon="9.940754776180771"><ele>409.5</ele><time>2026-05-02T07:53:25.999Z</time></trkpt><trkpt lat="44.77022380733472" lon="9.940613996266542"><ele>408.25</ele><time>2026-05-02T07:53:26.999Z</time></trkpt><trkpt lat="44.77029445328919" lon="9.940502086286212"><ele>407.0</ele><time>2026-05-02T07:53:27.999Z</time></trkpt><trkpt lat="44.77038342670157" lon="9.940421994445874"><ele>403.5</ele><time>2026-05-02T07:53:28.999Z</time></trkpt><trkpt lat="44.77048920965998" lon="9.940371929945346"><ele>400.0</ele><time>2026-05-02T07:53:29.999Z</time></trkpt><trkpt lat="44.77060003398034" lon="9.940340019331163"><ele>396.5</ele><time>2026-05-02T07:53:30.999Z</time></trkpt><trkpt lat="44.77071036967306" lon="9.940286405092916"><ele>393.0</ele><time>2026-05-02T07:53:31.999Z</time></trkpt><trkpt lat="44.77081746673781" lon="9.940210532992378"><ele>393.0</ele><time>2026-05-02T07:53:32.999Z</time></trkpt><trkpt lat="44.77091976713832" lon="9.940121227298908"><ele>393.0</ele><time>2026-05-02T07:53:33.998Z</time></trkpt><trkpt lat="44.77102764706309" lon="9.940038444114151"><ele>393.0</ele><time>2026-05-02T07:53:34.998Z</time></trkpt><trkpt lat="44.77113895870336" lon="9.939959331789433"><ele>393.0</ele><time>2026-05-02T07:53:35.998Z</time></trkpt><trkpt lat="44.77124852176074" lon="9.939885682001872"><ele>390.0</ele><time>2026-05-02T07:53:36.998Z</time></trkpt><trkpt lat="44.77135243799307" lon="9.939828505712933"><ele>387.0</ele><time>2026-05-02T07:53:37.998Z</time></trkpt><trkpt lat="44.7714588270453" lon="9.939779817414536"><ele>384.0</ele><time>2026-05-02T07:53:38.998Z</time></trkpt><trkpt lat="44.77155526627689" lon="9.939719751149212"><ele>381.0</ele><time>2026-05-02T07:53:39.998Z</time></trkpt><trkpt lat="44.77164050841096" lon="9.93963595494684"><ele>378.0</ele><time>2026-05-02T07:53:40.998Z</time></trkpt><trkpt lat="44.77171987672167" lon="9.939538454338933"><ele>378.0</ele><time>2026-05-02T07:53:41.998Z</time></trkpt><trkpt lat="44.7717701428319" lon="9.939407583941152"><ele>378.0</ele><time>2026-05-02T07:53:42.998Z</time></trkpt><trkpt lat="44.771797101634235" lon="9.939257129237443"><ele>378.0</ele><time>2026-05-02T07:53:43.998Z</time></trkpt><trkpt lat="44.77180272375917" lon="9.93910542630861"><ele>378.0</ele><time>2026-05-02T07:53:44.998Z</time></trkpt><trkpt lat="44.771777261131646" lon="9.938965067991388"><ele>378.0</ele><time>2026-05-02T07:53:45.998Z</time></trkpt><trkpt lat="44.77173907995602" lon="9.93884240318093"><ele>380.59999999999997</ele><time>2026-05-02T07:53:46.998Z</time></trkpt><trkpt lat="44.77168096498926" lon="9.938731880087415"><ele>383.2</ele><time>2026-05-02T07:53:47.998Z</time></trkpt><trkpt lat="44.77161015549683" lon="9.938638420396614"><ele>385.8</ele><time>2026-05-02T07:53:48.998Z</time></trkpt><trkpt lat="44.771528885227085" lon="9.938572236965134"><ele>388.4</ele><time>2026-05-02T07:53:49.998Z</time></trkpt><trkpt lat="44.77143115241772" lon="9.938545600623806"><ele>391.0</ele><time>2026-05-02T07:53:50.998Z</time></trkpt><trkpt lat="44.77132991007163" lon="9.938556821594805"><ele>391.0</ele><time>2026-05-02T07:53:51.998Z</time></trkpt><trkpt lat="44.77122862839441" lon="9.93858825540589"><ele>391.0</ele><time>2026-05-02T07:53:52.998Z</time></trkpt><trkpt lat="44.771129900989855" lon="9.938632658829633"><ele>391.0</ele><time>2026-05-02T07:53:53.998Z</time></trkpt><trkpt lat="44.77102774079682" lon="9.938669873009458"><ele>391.0</ele><time>2026-05-02T07:53:54.998Z</time></trkpt><trkpt lat="44.770929011422716" lon="9.938691438277031"><ele>391.0</ele><time>2026-05-02T07:53:55.998Z</time></trkpt><trkpt lat="44.77083576343573" lon="9.938691154424241"><ele>390.8</ele><time>2026-05-02T07:53:56.998Z</time></trkpt><trkpt lat="44.770751186637305" lon="9.93865703295573"><ele>390.6</ele><time>2026-05-02T07:53:57.998Z</time></trkpt><trkpt lat="44.770670582784206" lon="9.938591359556534"><ele>390.4</ele><time>2026-05-02T07:53:59Z</time></trkpt><trkpt lat="44.77059298892258" lon="9.938510065007092"><ele>390.2</ele><time>2026-05-02T07:54:00Z</time></trkpt><trkpt lat="44.77050943043134" lon="9.938426828808778"><ele>390.0</ele><time>2026-05-02T07:54:01Z</time></trkpt><trkpt lat="44.770423300609984" lon="9.938348125899044"><ele>387.8</ele><time>2026-05-02T07:54:02Z</time></trkpt><trkpt lat="44.77033422555423" lon="9.938261443542112"><ele>385.6</ele><time>2026-05-02T07:54:03Z</time></trkpt><trkpt lat="44.770242339139244" lon="9.938177412911354"><ele>383.4</ele><time>2026-05-02T07:54:04Z</time></trkpt><trkpt lat="44.77017320546586" lon="9.938070586201057"><ele>381.2</ele><time>2026-05-02T07:54:05Z</time></trkpt><trkpt lat="44.7701395755098" lon="9.937937557051017"><ele>379.0</ele><time>2026-05-02T07:54:06Z</time></trkpt><trkpt lat="44.77015172521826" lon="9.937800604460607"><ele>379.0</ele><time>2026-05-02T07:54:07Z</time></trkpt><trkpt lat="44.77019836466439" lon="9.937687462475507"><ele>379.0</ele><time>2026-05-02T07:54:08Z</time></trkpt><trkpt lat="44.77027233678766" lon="9.937615763531033"><ele>379.0</ele><time>2026-05-02T07:54:09Z</time></trkpt><trkpt lat="44.77036607353629" lon="9.937611195142834"><ele>379.0</ele><time>2026-05-02T07:54:10Z</time></trkpt><trkpt lat="44.77045045928982" lon="9.937636157268276"><ele>379.0</ele><time>2026-05-02T07:54:11Z</time></trkpt><trkpt lat="44.77052210824755" lon="9.937703420815224"><ele>379.0</ele><time>2026-05-02T07:54:12Z</time></trkpt><trkpt lat="44.770568591685624" lon="9.93780809716316"><ele>379.0</ele><time>2026-05-02T07:54:13Z</time></trkpt><trkpt lat="44.770609442415996" lon="9.937919733601301"><ele>379.0</ele><time>2026-05-02T07:54:14Z</time></trkpt><trkpt lat="44.77066989333723" lon="9.938016323191468"><ele>379.0</ele><time>2026-05-02T07:54:15Z</time></trkpt><trkpt lat="44.770760576807554" lon="9.938073443920596"><ele>379.0</ele><time>2026-05-02T07:54:16Z</time></trkpt><trkpt lat="44.77086204626524" lon="9.938074969013151"><ele>379.0</ele><time>2026-05-02T07:54:17Z</time></trkpt><trkpt lat="44.77095261779733" lon="9.938020505114206"><ele>379.0</ele><time>2026-05-02T07:54:18Z</time></trkpt><trkpt lat="44.77102339650083" lon="9.937921790692291"><ele>379.0</ele><time>2026-05-02T07:54:19Z</time></trkpt><trkpt lat="44.77108875280394" lon="9.937819505495765"><ele>379.0</ele><time>2026-05-02T07:54:20Z</time></trkpt><trkpt lat="44.771158887297865" lon="9.937721881990647"><ele>379.0</ele><time>2026-05-02T07:54:21Z</time></trkpt><trkpt lat="44.771245278873344" lon="9.93765313522131"><ele>379.0</ele><time>2026-05-02T07:54:22Z</time></trkpt><trkpt lat="44.771343709324725" lon="9.937620539228769"><ele>378.79999999999995</ele><time>2026-05-02T07:54:23Z</time></trkpt><trkpt lat="44.77144355493935" lon="9.937634429181706"><ele>378.59999999999997</ele><time>2026-05-02T07:54:24Z</time></trkpt><trkpt lat="44.771537558541226" lon="9.937680406660615"><ele>378.4</ele><time>2026-05-02T07:54:25Z</time></trkpt><trkpt lat="44.77160949788916" lon="9.93771710314134"><ele>378.2</ele><time>2026-05-02T07:54:26Z</time></trkpt><trkpt lat="44.771674392033454" lon="9.937710245664885"><ele>378.0</ele><time>2026-05-02T07:54:27Z</time></trkpt><trkpt lat="44.771709541777994" lon="9.937550134432634"><ele>375.42857142857144</ele><time>2026-05-02T07:54:29Z</time></trkpt><trkpt lat="44.7716666227597" lon="9.937453803941748"><ele>372.8571428571429</ele><time>2026-05-02T07:54:30Z</time></trkpt><trkpt lat="44.77158227697966" lon="9.93744282821936"><ele>370.2857142857143</ele><time>2026-05-02T07:54:31Z</time></trkpt><trkpt lat="44.77151301837036" lon="9.937426651334842"><ele>367.7142857142857</ele><time>2026-05-02T07:54:32Z</time></trkpt><trkpt lat="44.7714447902875" lon="9.937400407539597"><ele>365.14285714285717</ele><time>2026-05-02T07:54:33Z</time></trkpt><trkpt lat="44.771376064948925" lon="9.937386625546361"><ele>362.57142857142856</ele><time>2026-05-02T07:54:34Z</time></trkpt><trkpt lat="44.771303607567624" lon="9.937377084321872"><ele>360.0</ele><time>2026-05-02T07:54:35Z</time></trkpt><trkpt lat="44.771233350999324" lon="9.937337449586222"><ele>360.0</ele><time>2026-05-02T07:54:36Z</time></trkpt><trkpt lat="44.771171034210376" lon="9.93731287056815"><ele>360.0</ele><time>2026-05-02T07:54:37Z</time></trkpt><trkpt lat="44.7711154778629" lon="9.937207642078482"><ele>360.0</ele><time>2026-05-02T07:54:39Z</time></trkpt><trkpt lat="44.77115620885105" lon="9.937133836091938"><ele>360.0</ele><time>2026-05-02T07:54:40Z</time></trkpt><trkpt lat="44.77122400374704" lon="9.93711977073799"><ele>360.0</ele><time>2026-05-02T07:54:41Z</time></trkpt><trkpt lat="44.771303163882706" lon="9.937125913978882"><ele>360.0</ele><time>2026-05-02T07:54:42Z</time></trkpt><trkpt lat="44.771381837862755" lon="9.937165983790262"><ele>360.0</ele><time>2026-05-02T07:54:42.999Z</time></trkpt><trkpt lat="44.77146238959949" lon="9.93719773115692"><ele>360.0</ele><time>2026-05-02T07:54:43.999Z</time></trkpt><trkpt lat="44.7715483011475" lon="9.937224193352241"><ele>360.0</ele><time>2026-05-02T07:54:44.999Z</time></trkpt><trkpt lat="44.771636873879665" lon="9.937251218785919"><ele>360.0</ele><time>2026-05-02T07:54:45.999Z</time></trkpt><trkpt lat="44.77173131492778" lon="9.937277267679688"><ele>360.0</ele><time>2026-05-02T07:54:46.999Z</time></trkpt><trkpt lat="44.77182792434176" lon="9.937304446090517"><ele>358.2</ele><time>2026-05-02T07:54:47.999Z</time></trkpt><trkpt lat="44.77193027935759" lon="9.937332659200287"><ele>356.4</ele><time>2026-05-02T07:54:48.999Z</time></trkpt><trkpt lat="44.77203362652559" lon="9.937368787896196"><ele>354.6</ele><time>2026-05-02T07:54:49.999Z</time></trkpt><trkpt lat="44.772138605852376" lon="9.93739898036288"><ele>352.8</ele><time>2026-05-02T07:54:50.999Z</time></trkpt><trkpt lat="44.77224513157087" lon="9.937434822345498"><ele>351.0</ele><time>2026-05-02T07:54:51.999Z</time></trkpt><trkpt lat="44.77235121948961" lon="9.937475697820263"><ele>351.0</ele><time>2026-05-02T07:54:52.999Z</time></trkpt><trkpt lat="44.772451216922555" lon="9.937522004127931"><ele>351.0</ele><time>2026-05-02T07:54:53.999Z</time></trkpt><trkpt lat="44.77254879303348" lon="9.93756660446022"><ele>351.0</ele><time>2026-05-02T07:54:54.999Z</time></trkpt><trkpt lat="44.772630314996015" lon="9.937609217567317"><ele>351.0</ele><time>2026-05-02T07:54:55.999Z</time></trkpt><trkpt lat="44.77270707872347" lon="9.937655646885245"><ele>351.0</ele><time>2026-05-02T07:54:56.999Z</time></trkpt><trkpt lat="44.7727789749323" lon="9.93767503811589"><ele>351.00000000000006</ele><time>2026-05-02T07:54:57.999Z</time></trkpt><trkpt lat="44.77284929140181" lon="9.937658127755046"><ele>351.0</ele><time>2026-05-02T07:54:58.999Z</time></trkpt><trkpt lat="44.77288166341223" lon="9.937578242860027"><ele>351.0</ele><time>2026-05-02T07:54:59.999Z</time></trkpt><trkpt lat="44.7728739040212" lon="9.937480207320897"><ele>351.0</ele><time>2026-05-02T07:55:00.999Z</time></trkpt><trkpt lat="44.77281840930719" lon="9.937388676751556"><ele>351.0</ele><time>2026-05-02T07:55:01.999Z</time></trkpt><trkpt lat="44.77274500244448" lon="9.937341838013696"><ele>351.00000000000006</ele><time>2026-05-02T07:55:02.999Z</time></trkpt><trkpt lat="44.77268192644219" lon="9.937296370431222"><ele>351.0</ele><time>2026-05-02T07:55:03.999Z</time></trkpt><trkpt lat="44.77261769055515" lon="9.937241711943555"><ele>351.0</ele><time>2026-05-02T07:55:04.999Z</time></trkpt><trkpt lat="44.77256803607696" lon="9.937179820327302"><ele>351.0</ele><time>2026-05-02T07:55:05.999Z</time></trkpt><trkpt lat="44.77255836492762" lon="9.93701771546932"><ele>351.0</ele><time>2026-05-02T07:55:07.999Z</time></trkpt><trkpt lat="44.772605101753676" lon="9.93695389605503"><ele>351.0</ele><time>2026-05-02T07:55:08.999Z</time></trkpt><trkpt lat="44.77267545911624" lon="9.93695055876"><ele>351.0</ele><time>2026-05-02T07:55:09.999Z</time></trkpt><trkpt lat="44.77274563253217" lon="9.936995632559338"><ele>351.0</ele><time>2026-05-02T07:55:10.999Z</time></trkpt><trkpt lat="44.772808570012295" lon="9.937044227353427"><ele>348.5</ele><time>2026-05-02T07:55:11.999Z</time></trkpt><trkpt lat="44.772879889658746" lon="9.937090041278516"><ele>346.0</ele><time>2026-05-02T07:55:12.999Z</time></trkpt><trkpt lat="44.77295609122994" lon="9.937137809501229"><ele>343.5</ele><time>2026-05-02T07:55:13.999Z</time></trkpt><trkpt lat="44.77303196220416" lon="9.937187856681556"><ele>341.0</ele><time>2026-05-02T07:55:14.999Z</time></trkpt><trkpt lat="44.77310802477297" lon="9.937234324823589"><ele>338.5</ele><time>2026-05-02T07:55:15.999Z</time></trkpt><trkpt lat="44.77319232197657" lon="9.937273589063551"><ele>336.0</ele><time>2026-05-02T07:55:16.999Z</time></trkpt><trkpt lat="44.77327091179845" lon="9.937328581022285"><ele>336.0</ele><time>2026-05-02T07:55:17.999Z</time></trkpt><trkpt lat="44.77335355763751" lon="9.937381759038518"><ele>336.0</ele><time>2026-05-02T07:55:18.999Z</time></trkpt><trkpt lat="44.773438130350875" lon="9.937423310824466"><ele>336.0</ele><time>2026-05-02T07:55:19.999Z</time></trkpt><trkpt lat="44.773518140248186" lon="9.937479486073558"><ele>336.0</ele><time>2026-05-02T07:55:20.999Z</time></trkpt><trkpt lat="44.773597406413195" lon="9.937530725021563"><ele>336.0</ele><time>2026-05-02T07:55:21.999Z</time></trkpt><trkpt lat="44.77367151784076" lon="9.937568269211996"><ele>336.0</ele><time>2026-05-02T07:55:22.999Z</time></trkpt><trkpt lat="44.77372907164202" lon="9.9376114538814"><ele>336.0</ele><time>2026-05-02T07:55:23.999Z</time></trkpt><trkpt lat="44.773799456443925" lon="9.937698125014979"><ele>336.0</ele><time>2026-05-02T07:55:25.999Z</time></trkpt><trkpt lat="44.77375541174015" lon="9.93761822643362"><ele>336.0</ele><time>2026-05-02T07:55:30.999Z</time></trkpt><trkpt lat="44.77371915786759" lon="9.93754370610045"><ele>336.0</ele><time>2026-05-02T07:55:33.999Z</time></trkpt><trkpt lat="44.77365064828051" lon="9.937493162638331"><ele>336.0</ele><time>2026-05-02T07:55:36.998Z</time></trkpt><trkpt lat="44.77357765091713" lon="9.937444447340162"><ele>336.0</ele><time>2026-05-02T07:55:39.998Z</time></trkpt><trkpt lat="44.77350301823291" lon="9.93740510532214"><ele>336.0</ele><time>2026-05-02T07:55:42.998Z</time></trkpt><trkpt lat="44.77343492478216" lon="9.937360237157607"><ele>336.0</ele><time>2026-05-02T07:55:45.998Z</time></trkpt><trkpt lat="44.77337634245285" lon="9.937327301419712"><ele>336.0</ele><time>2026-05-02T07:55:48.998Z</time></trkpt><trkpt lat="44.77330409689563" lon="9.937286568043612"><ele>336.0</ele><time>2026-05-02T07:55:52.998Z</time></trkpt><trkpt lat="44.77323704756966" lon="9.93724529776197"><ele>336.0</ele><time>2026-05-02T07:55:56.998Z</time></trkpt><trkpt lat="44.77316084971916" lon="9.937213521907656"><ele>336.0</ele><time>2026-05-02T07:56:00.998Z</time></trkpt><trkpt lat="44.77308482282952" lon="9.937164773375992"><ele>336.0</ele><time>2026-05-02T07:56:05Z</time></trkpt><trkpt lat="44.7730251768027" lon="9.937121188547604"><ele>336.0</ele><time>2026-05-02T07:56:08Z</time></trkpt><trkpt lat="44.772960950363654" lon="9.937097239981929"><ele>336.0</ele><time>2026-05-02T07:56:11Z</time></trkpt><trkpt lat="44.772897159492956" lon="9.937047129021483"><ele>336.0</ele><time>2026-05-02T07:56:15Z</time></trkpt><trkpt lat="44.7728281768995" lon="9.937000045051386"><ele>336.0</ele><time>2026-05-02T07:56:19Z</time></trkpt><trkpt lat="44.772761852340274" lon="9.936951695734383"><ele>336.0</ele><time>2026-05-02T07:56:23Z</time></trkpt><trkpt lat="44.772691836076596" lon="9.936929043752896"><ele>336.0</ele><time>2026-05-02T07:56:27Z</time></trkpt><trkpt lat="44.772614039831346" lon="9.936932083283782"><ele>336.0</ele><time>2026-05-02T07:56:31Z</time></trkpt><trkpt lat="44.77254518987364" lon="9.936988209928314"><ele>336.0</ele><time>2026-05-02T07:56:35Z</time></trkpt><trkpt lat="44.77252671620483" lon="9.937096572917474"><ele>336.0</ele><time>2026-05-02T07:56:39Z</time></trkpt><trkpt lat="44.772555014157405" lon="9.937182139291972"><ele>336.0</ele><time>2026-05-02T07:56:42Z</time></trkpt><trkpt lat="44.77260471958924" lon="9.93724702997469"><ele>336.0</ele><time>2026-05-02T07:56:45Z</time></trkpt><trkpt lat="44.772665431821686" lon="9.937303156414389"><ele>336.0</ele><time>2026-05-02T07:56:48Z</time></trkpt><trkpt lat="44.77273060469488" lon="9.937364302734998"><ele>336.0</ele><time>2026-05-02T07:56:51.999Z</time></trkpt><trkpt lat="44.77278508128109" lon="9.937421857346873"><ele>336.0</ele><time>2026-05-02T07:56:54.999Z</time></trkpt><trkpt lat="44.77282640154318" lon="9.937500751957506"><ele>336.0</ele><time>2026-05-02T07:56:57.999Z</time></trkpt><trkpt lat="44.77279542088344" lon="9.93758450404318"><ele>336.0</ele><time>2026-05-02T07:57:01.999Z</time></trkpt><trkpt lat="44.77271324414986" lon="9.937589343687396"><ele>336.0</ele><time>2026-05-02T07:57:05.999Z</time></trkpt><trkpt lat="44.77265241455089" lon="9.937565970428505"><ele>336.0</ele><time>2026-05-02T07:57:09.999Z</time></trkpt><trkpt lat="44.77259120125052" lon="9.937541718216577"><ele>336.0</ele><time>2026-05-02T07:57:12.999Z</time></trkpt><trkpt lat="44.772526016538365" lon="9.937511235572675"><ele>336.0</ele><time>2026-05-02T07:57:16.999Z</time></trkpt><trkpt lat="44.77246177038653" lon="9.937475576413755"><ele>338.14285714285717</ele><time>2026-05-02T07:57:19.999Z</time></trkpt><trkpt lat="44.772396226151294" lon="9.937450519680757"><ele>340.2857142857143</ele><time>2026-05-02T07:57:23.999Z</time></trkpt><trkpt lat="44.77231701232422" lon="9.937415324481604"><ele>342.42857142857144</ele><time>2026-05-02T07:57:27.999Z</time></trkpt><trkpt lat="44.77224177799639" lon="9.937386350148227"><ele>344.57142857142856</ele><time>2026-05-02T07:57:30.999Z</time></trkpt><trkpt lat="44.77216153830667" lon="9.937354927413612"><ele>346.7142857142857</ele><time>2026-05-02T07:57:34.999Z</time></trkpt><trkpt lat="44.77209865071054" lon="9.93733322978419"><ele>348.8571428571429</ele><time>2026-05-02T07:57:37.999Z</time></trkpt><trkpt lat="44.77203435917412" lon="9.937314302347712"><ele>351.0</ele><time>2026-05-02T07:57:40.999Z</time></trkpt><trkpt lat="44.771967269538074" lon="9.937287113262546"><ele>351.00000000000006</ele><time>2026-05-02T07:57:44.998Z</time></trkpt><trkpt lat="44.77190025648258" lon="9.937266511709165"><ele>351.0</ele><time>2026-05-02T07:57:47.998Z</time></trkpt><trkpt lat="44.77182921583048" lon="9.937246500897624"><ele>351.0</ele><time>2026-05-02T07:57:50.998Z</time></trkpt><trkpt lat="44.7717567948976" lon="9.93721902046321"><ele>351.0</ele><time>2026-05-02T07:57:54.998Z</time></trkpt><trkpt lat="44.77169133479887" lon="9.937207531514167"><ele>351.0</ele><time>2026-05-02T07:57:57.998Z</time></trkpt><trkpt lat="44.77161437842786" lon="9.937181235588122"><ele>351.00000000000006</ele><time>2026-05-02T07:58:00.998Z</time></trkpt><trkpt lat="44.77153410829554" lon="9.937163823276839"><ele>351.0</ele><time>2026-05-02T07:58:04.998Z</time></trkpt><trkpt lat="44.77144798735712" lon="9.937142776019424"><ele>352.28571428571433</ele><time>2026-05-02T07:58:07.998Z</time></trkpt><trkpt lat="44.771377473616276" lon="9.93712798340682"><ele>353.57142857142856</ele><time>2026-05-02T07:58:12Z</time></trkpt><trkpt lat="44.77130643803916" lon="9.93710794595637"><ele>354.8571428571429</ele><time>2026-05-02T07:58:15Z</time></trkpt><trkpt lat="44.77123546969723" lon="9.937098542429073"><ele>356.14285714285717</ele><time>2026-05-02T07:58:18Z</time></trkpt><trkpt lat="44.771161516915306" lon="9.937113966519595"><ele>357.42857142857144</ele><time>2026-05-02T07:58:21Z</time></trkpt><trkpt lat="44.77109717352717" lon="9.937185017263124"><ele>358.7142857142857</ele><time>2026-05-02T07:58:24Z</time></trkpt><trkpt lat="44.771095958988134" lon="9.937276606472278"><ele>360.0</ele><time>2026-05-02T07:58:27Z</time></trkpt><trkpt lat="44.77115429113524" lon="9.937369619601519"><ele>360.0</ele><time>2026-05-02T07:58:30Z</time></trkpt><trkpt lat="44.771225247857004" lon="9.937409751947778"><ele>360.0</ele><time>2026-05-02T07:58:33Z</time></trkpt><trkpt lat="44.77130198869938" lon="9.937438623231245"><ele>360.0</ele><time>2026-05-02T07:58:36Z</time></trkpt><trkpt lat="44.77137754081122" lon="9.937455220533492"><ele>360.0</ele><time>2026-05-02T07:58:40Z</time></trkpt><trkpt lat="44.77145386833458" lon="9.937477534360664"><ele>360.0</ele><time>2026-05-02T07:58:43Z</time></trkpt><trkpt lat="44.77153586465129" lon="9.937496175715324"><ele>360.0</ele><time>2026-05-02T07:58:46Z</time></trkpt><trkpt lat="44.771602129064604" lon="9.937534716770775"><ele>362.57142857142856</ele><time>2026-05-02T07:58:49Z</time></trkpt><trkpt lat="44.77163481123128" lon="9.937626706271548"><ele>365.14285714285717</ele><time>2026-05-02T07:58:52Z</time></trkpt><trkpt lat="44.77156775674244" lon="9.9376645193425"><ele>367.7142857142857</ele><time>2026-05-02T07:58:55.999Z</time></trkpt><trkpt lat="44.77150721018015" lon="9.937638681377022"><ele>370.2857142857143</ele><time>2026-05-02T07:58:58.999Z</time></trkpt><trkpt lat="44.77144187021204" lon="9.937617818808558"><ele>372.8571428571429</ele><time>2026-05-02T07:59:01.999Z</time></trkpt><trkpt lat="44.77136482610967" lon="9.937597632492643"><ele>375.42857142857144</ele><time>2026-05-02T07:59:04.999Z</time></trkpt><trkpt lat="44.77129669538764" lon="9.937602816101714"><ele>378.0</ele><time>2026-05-02T07:59:07.999Z</time></trkpt><trkpt lat="44.771231345054595" lon="9.937628633492777"><ele>378.0</ele><time>2026-05-02T07:59:10.999Z</time></trkpt><trkpt lat="44.77116532349788" lon="9.937684117456714"><ele>378.0</ele><time>2026-05-02T07:59:13.999Z</time></trkpt><trkpt lat="44.77111497023877" lon="9.937741532876684"><ele>378.0</ele><time>2026-05-02T07:59:15.999Z</time></trkpt><trkpt lat="44.771058439372254" lon="9.937810930443229"><ele>378.0</ele><time>2026-05-02T07:59:18.999Z</time></trkpt><trkpt lat="44.771006490643636" lon="9.937878076915581"><ele>378.0</ele><time>2026-05-02T07:59:21.999Z</time></trkpt><trkpt lat="44.77095539656732" lon="9.937941747202393"><ele>378.0</ele><time>2026-05-02T07:59:23.999Z</time></trkpt><trkpt lat="44.77089373685028" lon="9.938004321335626"><ele>378.0</ele><time>2026-05-02T07:59:26.999Z</time></trkpt><trkpt lat="44.770817695939215" lon="9.938030554156581"><ele>378.14285714285717</ele><time>2026-05-02T07:59:29.999Z</time></trkpt><trkpt lat="44.77075200965706" lon="9.938021265488647"><ele>378.2857142857143</ele><time>2026-05-02T07:59:31.999Z</time></trkpt><trkpt lat="44.770686476387844" lon="9.937975163263966"><ele>378.42857142857144</ele><time>2026-05-02T07:59:34.999Z</time></trkpt><trkpt lat="44.77063833495289" lon="9.937894432831602"><ele>378.57142857142856</ele><time>2026-05-02T07:59:37.999Z</time></trkpt><trkpt lat="44.77059710865215" lon="9.937812730620411"><ele>378.7142857142857</ele><time>2026-05-02T07:59:40.999Z</time></trkpt><trkpt lat="44.770552617478536" lon="9.937726008869879"><ele>378.8571428571429</ele><time>2026-05-02T07:59:43.999Z</time></trkpt><trkpt lat="44.77049666055286" lon="9.93765020749873"><ele>379.0</ele><time>2026-05-02T07:59:46.998Z</time></trkpt><trkpt lat="44.77041901642909" lon="9.93761459199161"><ele>379.0</ele><time>2026-05-02T07:59:49.998Z</time></trkpt><trkpt lat="44.77032900516397" lon="9.93760987709564"><ele>379.0</ele><time>2026-05-02T07:59:52.998Z</time></trkpt><trkpt lat="44.77023791697364" lon="9.93765098889278"><ele>379.0</ele><time>2026-05-02T07:59:55.998Z</time></trkpt><trkpt lat="44.77015898139748" lon="9.93775257804388"><ele>379.0</ele><time>2026-05-02T07:59:58.998Z</time></trkpt><trkpt lat="44.77012469462075" lon="9.937848442732568"><ele>379.0</ele><time>2026-05-02T08:00:00.998Z</time></trkpt><trkpt lat="44.77011881023413" lon="9.937978230064871"><ele>379.00000000000006</ele><time>2026-05-02T08:00:03.998Z</time></trkpt><trkpt lat="44.77012637172016" lon="9.938071548487112"><ele>379.0</ele><time>2026-05-02T08:00:05.998Z</time></trkpt><trkpt lat="44.77016517102301" lon="9.938154517430199"><ele>379.0</ele><time>2026-05-02T08:00:07.998Z</time></trkpt><trkpt lat="44.770210214019016" lon="9.938217554459479"><ele>379.0</ele><time>2026-05-02T08:00:09.998Z</time></trkpt><trkpt lat="44.7702800213852" lon="9.938294281724321"><ele>379.0</ele><time>2026-05-02T08:00:12.998Z</time></trkpt><trkpt lat="44.77034345541711" lon="9.938363431892583"><ele>379.00000000000006</ele><time>2026-05-02T08:00:15.998Z</time></trkpt><trkpt lat="44.7704087016722" lon="9.938427078056762"><ele>379.0</ele><time>2026-05-02T08:00:19Z</time></trkpt><trkpt lat="44.77046330861427" lon="9.938479976155872"><ele>380.8333333333333</ele><time>2026-05-02T08:00:22Z</time></trkpt><trkpt lat="44.770522228536876" lon="9.938540395301395"><ele>382.66666666666663</ele><time>2026-05-02T08:00:25Z</time></trkpt><trkpt lat="44.77059354893553" lon="9.938590132289464"><ele>384.5</ele><time>2026-05-02T08:00:28Z</time></trkpt><trkpt lat="44.77065906204886" lon="9.938657973166526"><ele>386.3333333333333</ele><time>2026-05-02T08:00:32Z</time></trkpt><trkpt lat="44.77072247591251" lon="9.93872335984109"><ele>388.1666666666667</ele><time>2026-05-02T08:00:36Z</time></trkpt><trkpt lat="44.77078393870973" lon="9.93875642825841"><ele>390.0</ele><time>2026-05-02T08:00:39Z</time></trkpt><trkpt lat="44.77085977804751" lon="9.938757220753969"><ele>390.0</ele><time>2026-05-02T08:00:42Z</time></trkpt><trkpt lat="44.77093419278379" lon="9.93874543917326"><ele>390.0</ele><time>2026-05-02T08:00:45Z</time></trkpt><trkpt lat="44.77100788356682" lon="9.938728491153313"><ele>390.0</ele><time>2026-05-02T08:00:48Z</time></trkpt><trkpt lat="44.7710772377548" lon="9.93870357917949"><ele>390.0</ele><time>2026-05-02T08:00:51Z</time></trkpt><trkpt lat="44.77114382202486" lon="9.93867886218094"><ele>390.0</ele><time>2026-05-02T08:00:54Z</time></trkpt><trkpt lat="44.77121560164357" lon="9.938652716974637"><ele>390.0</ele><time>2026-05-02T08:00:57Z</time></trkpt><trkpt lat="44.771292628222106" lon="9.938642800819144"><ele>390.0</ele><time>2026-05-02T08:01:00.999Z</time></trkpt><trkpt lat="44.7713609038553" lon="9.938636078004947"><ele>390.1428571428571</ele><time>2026-05-02T08:01:03.999Z</time></trkpt><trkpt lat="44.77143347832553" lon="9.938656516796216"><ele>390.2857142857143</ele><time>2026-05-02T08:01:06.999Z</time></trkpt><trkpt lat="44.771491118940915" lon="9.938702894753467"><ele>390.42857142857144</ele><time>2026-05-02T08:01:09.999Z</time></trkpt><trkpt lat="44.77154966177155" lon="9.938764067680221"><ele>390.57142857142856</ele><time>2026-05-02T08:01:12.999Z</time></trkpt><trkpt lat="44.77159876801952" lon="9.938830702225339"><ele>390.7142857142857</ele><time>2026-05-02T08:01:15.999Z</time></trkpt><trkpt lat="44.771642498131406" lon="9.938906588349658"><ele>390.85714285714283</ele><time>2026-05-02T08:01:18.999Z</time></trkpt><trkpt lat="44.771671784685104" lon="9.93900165148306"><ele>391.0</ele><time>2026-05-02T08:01:21.999Z</time></trkpt><trkpt lat="44.77168898299978" lon="9.939103941927076"><ele>390.99999999999994</ele><time>2026-05-02T08:01:24.999Z</time></trkpt><trkpt lat="44.77170054711239" lon="9.939201696494807"><ele>391.0</ele><time>2026-05-02T08:01:28.999Z</time></trkpt><trkpt lat="44.77169604162378" lon="9.93929871804637"><ele>391.0</ele><time>2026-05-02T08:01:31.999Z</time></trkpt><trkpt lat="44.771678139020366" lon="9.939390347791276"><ele>391.0</ele><time>2026-05-02T08:01:34.999Z</time></trkpt><trkpt lat="44.771647888367866" lon="9.939471351831997"><ele>391.0</ele><time>2026-05-02T08:01:37.999Z</time></trkpt><trkpt lat="44.771592606185884" lon="9.939562897005699"><ele>390.99999999999994</ele><time>2026-05-02T08:01:41.999Z</time></trkpt><trkpt lat="44.771532647297924" lon="9.939635149992775"><ele>391.0</ele><time>2026-05-02T08:01:44.999Z</time></trkpt><trkpt lat="44.77147588639953" lon="9.93967596571636"><ele>391.57142857142856</ele><time>2026-05-02T08:01:48.999Z</time></trkpt><trkpt lat="44.77141353891339" lon="9.939720738020092"><ele>392.1428571428571</ele><time>2026-05-02T08:01:51.998Z</time></trkpt><trkpt lat="44.77135089979478" lon="9.939760211848947"><ele>392.71428571428567</ele><time>2026-05-02T08:01:54.998Z</time></trkpt><trkpt lat="44.77128985833328" lon="9.939789839374038"><ele>393.2857142857143</ele><time>2026-05-02T08:01:57.998Z</time></trkpt><trkpt lat="44.77121260093072" lon="9.939836044014594"><ele>393.8571428571429</ele><time>2026-05-02T08:02:01.998Z</time></trkpt><trkpt lat="44.77113761639876" lon="9.939887426288523"><ele>394.4285714285714</ele><time>2026-05-02T08:02:04.998Z</time></trkpt><trkpt lat="44.7710798227879" lon="9.939934562003485"><ele>395.0</ele><time>2026-05-02T08:02:07.998Z</time></trkpt><trkpt lat="44.77101388475033" lon="9.939992748539195"><ele>395.0</ele><time>2026-05-02T08:02:10.998Z</time></trkpt><trkpt lat="44.77095400223047" lon="9.940043642620866"><ele>395.0</ele><time>2026-05-02T08:02:13.998Z</time></trkpt><trkpt lat="44.77089800400466" lon="9.94010520305363"><ele>395.0</ele><time>2026-05-02T08:02:16.998Z</time></trkpt><trkpt lat="44.77084328372929" lon="9.940155939929614"><ele>395.0</ele><time>2026-05-02T08:02:19.998Z</time></trkpt><trkpt lat="44.77077710458476" lon="9.94021255087978"><ele>395.0</ele><time>2026-05-02T08:02:23Z</time></trkpt><trkpt lat="44.77071779019631" lon="9.940262892865084"><ele>395.0</ele><time>2026-05-02T08:02:26Z</time></trkpt><trkpt lat="44.77064745061466" lon="9.940311878244408"><ele>395.0</ele><time>2026-05-02T08:02:29Z</time></trkpt><trkpt lat="44.77057556980142" lon="9.940338943046315"><ele>394.7142857142857</ele><time>2026-05-02T08:02:33Z</time></trkpt><trkpt lat="44.77051152306938" lon="9.940359946109085"><ele>394.42857142857144</ele><time>2026-05-02T08:02:36Z</time></trkpt><trkpt lat="44.770443569711944" lon="9.940382684077743"><ele>394.14285714285717</ele><time>2026-05-02T08:02:39Z</time></trkpt><trkpt lat="44.77037529417702" lon="9.940419357029574"><ele>393.8571428571429</ele><time>2026-05-02T08:02:42Z</time></trkpt><trkpt lat="44.770310990801235" lon="9.940471323846095"><ele>393.57142857142856</ele><time>2026-05-02T08:02:45Z</time></trkpt><trkpt lat="44.7702592839239" lon="9.940532735691844"><ele>393.28571428571433</ele><time>2026-05-02T08:02:48Z</time></trkpt><trkpt lat="44.77020898739525" lon="9.940603031027491"><ele>393.0</ele><time>2026-05-02T08:02:51Z</time></trkpt><trkpt lat="44.77016767233726" lon="9.940693302232772"><ele>395.00000000000006</ele><time>2026-05-02T08:02:54Z</time></trkpt><trkpt lat="44.77013015157586" lon="9.940788539831276"><ele>397.0</ele><time>2026-05-02T08:02:57Z</time></trkpt><trkpt lat="44.77009557361731" lon="9.9408824229683"><ele>399.0</ele><time>2026-05-02T08:03:00Z</time></trkpt><trkpt lat="44.770053307481284" lon="9.940998586400822"><ele>401.0</ele><time>2026-05-02T08:03:02.999Z</time></trkpt><trkpt lat="44.770018821918356" lon="9.94108062633478"><ele>403.0</ele><time>2026-05-02T08:03:05.999Z</time></trkpt><trkpt lat="44.76998227385933" lon="9.941155776300132"><ele>405.00000000000006</ele><time>2026-05-02T08:03:08.999Z</time></trkpt><trkpt lat="44.769944528856485" lon="9.941233233290058"><ele>407.0</ele><time>2026-05-02T08:03:11.999Z</time></trkpt><trkpt lat="44.7699025804354" lon="9.941312443949933"><ele>407.7142857142857</ele><time>2026-05-02T08:03:14.999Z</time></trkpt><trkpt lat="44.76985315694656" lon="9.941385582924779"><ele>408.42857142857144</ele><time>2026-05-02T08:03:17.999Z</time></trkpt><trkpt lat="44.76979628079724" lon="9.941460322330757"><ele>409.1428571428571</ele><time>2026-05-02T08:03:20.999Z</time></trkpt><trkpt lat="44.76974040654033" lon="9.941532178747314"><ele>409.8571428571429</ele><time>2026-05-02T08:03:23.999Z</time></trkpt><trkpt lat="44.76968670415272" lon="9.941598471967064"><ele>410.57142857142856</ele><time>2026-05-02T08:03:26.999Z</time></trkpt><trkpt lat="44.76962108671864" lon="9.941653188253445"><ele>411.2857142857143</ele><time>2026-05-02T08:03:29.999Z</time></trkpt><trkpt lat="44.769561998801734" lon="9.941686713365144"><ele>412.0</ele><time>2026-05-02T08:03:32.999Z</time></trkpt><trkpt lat="44.76949687377623" lon="9.941728326488569"><ele>411.85714285714283</ele><time>2026-05-02T08:03:35.999Z</time></trkpt><trkpt lat="44.76942680962621" lon="9.941749953666667"><ele>411.7142857142857</ele><time>2026-05-02T08:03:38.999Z</time></trkpt><trkpt lat="44.76935362012794" lon="9.941758387676272"><ele>411.57142857142856</ele><time>2026-05-02T08:03:41.999Z</time></trkpt><trkpt lat="44.76927975325796" lon="9.941753763971304"><ele>411.42857142857144</ele><time>2026-05-02T08:03:44.999Z</time></trkpt><trkpt lat="44.76920679336188" lon="9.941748748674087"><ele>411.2857142857143</ele><time>2026-05-02T08:03:47.999Z</time></trkpt><trkpt lat="44.769129309210406" lon="9.941729494690154"><ele>411.1428571428571</ele><time>2026-05-02T08:03:50.999Z</time></trkpt><trkpt lat="44.769066192889156" lon="9.941708079489064"><ele>411.0</ele><time>2026-05-02T08:03:53.998Z</time></trkpt><trkpt lat="44.76896825789509" lon="9.941660769158123"><ele>411.57142857142856</ele><time>2026-05-02T08:03:57.998Z</time></trkpt><trkpt lat="44.76889805978717" lon="9.941624396894762"><ele>412.1428571428571</ele><time>2026-05-02T08:04:01.998Z</time></trkpt><trkpt lat="44.76882962947771" lon="9.94158381362401"><ele>412.7142857142857</ele><time>2026-05-02T08:04:04.998Z</time></trkpt><trkpt lat="44.76877072107044" lon="9.941534249978464"><ele>413.2857142857143</ele><time>2026-05-02T08:04:07.998Z</time></trkpt><trkpt lat="44.76871595145103" lon="9.941483005596279"><ele>413.8571428571429</ele><time>2026-05-02T08:04:10.998Z</time></trkpt><trkpt lat="44.76866565612124" lon="9.941420391870139"><ele>414.42857142857144</ele><time>2026-05-02T08:04:13.998Z</time></trkpt><trkpt lat="44.768635783635915" lon="9.941333433970438"><ele>415.0</ele><time>2026-05-02T08:04:16.998Z</time></trkpt><trkpt lat="44.76861420489741" lon="9.941231950624877"><ele>415.0</ele><time>2026-05-02T08:04:19.998Z</time></trkpt><trkpt lat="44.76859035256393" lon="9.941125471336733"><ele>415.0</ele><time>2026-05-02T08:04:22.998Z</time></trkpt><trkpt lat="44.76857247533815" lon="9.941037189304346"><ele>415.0</ele><time>2026-05-02T08:04:25.998Z</time></trkpt><trkpt lat="44.76854869527559" lon="9.940943033395278"><ele>415.0</ele><time>2026-05-02T08:04:29Z</time></trkpt><trkpt lat="44.7685117823061" lon="9.940844920031212"><ele>415.0</ele><time>2026-05-02T08:04:32Z</time></trkpt><trkpt lat="44.76847049316954" lon="9.940751729894682"><ele>415.0</ele><time>2026-05-02T08:04:35Z</time></trkpt><trkpt lat="44.768421332385614" lon="9.940677742403762"><ele>415.0</ele><time>2026-05-02T08:04:38Z</time></trkpt><trkpt lat="44.76836226683152" lon="9.940606527602059"><ele>416.42857142857144</ele><time>2026-05-02T08:04:42Z</time></trkpt><trkpt lat="44.768306441164036" lon="9.940551354296291"><ele>417.8571428571429</ele><time>2026-05-02T08:04:45Z</time></trkpt><trkpt lat="44.76823940075338" lon="9.940500725981906"><ele>419.2857142857143</ele><time>2026-05-02T08:04:48Z</time></trkpt><trkpt lat="44.768170488406554" lon="9.940469712402203"><ele>420.7142857142857</ele><time>2026-05-02T08:04:51Z</time></trkpt><trkpt lat="44.76810686278786" lon="9.940434557882387"><ele>422.1428571428571</ele><time>2026-05-02T08:04:54Z</time></trkpt><trkpt lat="44.7680295114589" lon="9.940396722272661"><ele>423.57142857142856</ele><time>2026-05-02T08:04:57Z</time></trkpt><trkpt lat="44.76794900800597" lon="9.940372711091177"><ele>425.0</ele><time>2026-05-02T08:05:00Z</time></trkpt><trkpt lat="44.767864096050786" lon="9.940354234093691"><ele>424.99999999999994</ele><time>2026-05-02T08:05:03Z</time></trkpt><trkpt lat="44.76777965880748" lon="9.94034742461494"><ele>425.0</ele><time>2026-05-02T08:05:06Z</time></trkpt><trkpt lat="44.7677095309082" lon="9.94036498661209"><ele>425.0</ele><time>2026-05-02T08:05:08.999Z</time></trkpt><trkpt lat="44.767628825967144" lon="9.940374166204528"><ele>425.0</ele><time>2026-05-02T08:05:11.999Z</time></trkpt><trkpt lat="44.76756017024048" lon="9.940384099820708"><ele>424.99999999999994</ele><time>2026-05-02T08:05:14.999Z</time></trkpt><trkpt lat="44.76748651510879" lon="9.940389342889608"><ele>425.0</ele><time>2026-05-02T08:05:17.999Z</time></trkpt><trkpt lat="44.76740868801063" lon="9.940401947922297"><ele>425.66666666666663</ele><time>2026-05-02T08:05:20.999Z</time></trkpt><trkpt lat="44.767328232451455" lon="9.940417034220825"><ele>426.3333333333333</ele><time>2026-05-02T08:05:23.999Z</time></trkpt><trkpt lat="44.767247403103035" lon="9.940431053874237"><ele>427.0</ele><time>2026-05-02T08:05:26.999Z</time></trkpt><trkpt lat="44.76717131087333" lon="9.940451306086052"><ele>427.66666666666663</ele><time>2026-05-02T08:05:29.999Z</time></trkpt><trkpt lat="44.76708540840029" lon="9.940462612416239"><ele>428.3333333333333</ele><time>2026-05-02T08:05:32.999Z</time></trkpt><trkpt lat="44.76701259399872" lon="9.94047900226024"><ele>429.0</ele><time>2026-05-02T08:05:35.999Z</time></trkpt><trkpt lat="44.76694583426574" lon="9.940491954227836"><ele>429.0</ele><time>2026-05-02T08:05:38.999Z</time></trkpt><trkpt lat="44.76687092250429" lon="9.94051043834136"><ele>429.0</ele><time>2026-05-02T08:05:41.999Z</time></trkpt><trkpt lat="44.76680120576053" lon="9.940530028227482"><ele>429.0</ele><time>2026-05-02T08:05:44.999Z</time></trkpt><trkpt lat="44.76672782508914" lon="9.940552955263762"><ele>429.0</ele><time>2026-05-02T08:05:47.999Z</time></trkpt><trkpt lat="44.76665686685295" lon="9.94057516350627"><ele>429.0</ele><time>2026-05-02T08:05:50.999Z</time></trkpt><trkpt lat="44.766584160993155" lon="9.940596119741546"><ele>429.0</ele><time>2026-05-02T08:05:53.999Z</time></trkpt><trkpt lat="44.766512294973666" lon="9.940627839099673"><ele>429.0</ele><time>2026-05-02T08:05:56.999Z</time></trkpt><trkpt lat="44.766438012056774" lon="9.94066700271491"><ele>429.42857142857144</ele><time>2026-05-02T08:05:59.998Z</time></trkpt><trkpt lat="44.76637241538405" lon="9.940705944509812"><ele>429.8571428571429</ele><time>2026-05-02T08:06:02.998Z</time></trkpt><trkpt lat="44.76630474725266" lon="9.94073229137684"><ele>430.2857142857143</ele><time>2026-05-02T08:06:05.998Z</time></trkpt><trkpt lat="44.76623405158016" lon="9.940760601085733"><ele>430.7142857142857</ele><time>2026-05-02T08:06:08.998Z</time></trkpt><trkpt lat="44.76615854533952" lon="9.940786071071207"><ele>431.1428571428571</ele><time>2026-05-02T08:06:11.998Z</time></trkpt><trkpt lat="44.76608304727563" lon="9.9408135921411"><ele>431.57142857142856</ele><time>2026-05-02T08:06:14.998Z</time></trkpt><trkpt lat="44.766011634452546" lon="9.940848305506082"><ele>432.0</ele><time>2026-05-02T08:06:17.998Z</time></trkpt><trkpt lat="44.765924623605365" lon="9.940878397530497"><ele>432.0</ele><time>2026-05-02T08:06:20.998Z</time></trkpt><trkpt lat="44.7658618917094" lon="9.940905291629077"><ele>432.0</ele><time>2026-05-02T08:06:23.998Z</time></trkpt><trkpt lat="44.76579807777421" lon="9.940936314857915"><ele>432.0</ele><time>2026-05-02T08:06:26.998Z</time></trkpt><trkpt lat="44.76572692183878" lon="9.940969273425287"><ele>432.0</ele><time>2026-05-02T08:06:29.998Z</time></trkpt><trkpt lat="44.76565579413558" lon="9.941005828100625"><ele>432.0</ele><time>2026-05-02T08:06:32.998Z</time></trkpt><trkpt lat="44.76558869061751" lon="9.941051365586777"><ele>432.0</ele><time>2026-05-02T08:06:36Z</time></trkpt><trkpt lat="44.76551430032619" lon="9.941103636974322"><ele>432.0</ele><time>2026-05-02T08:06:39Z</time></trkpt><trkpt lat="44.76545352236381" lon="9.941144629294207"><ele>432.0</ele><time>2026-05-02T08:06:42Z</time></trkpt><trkpt lat="44.76539192456846" lon="9.941194296705545"><ele>432.0</ele><time>2026-05-02T08:06:45Z</time></trkpt><trkpt lat="44.76533012083343" lon="9.941246985118543"><ele>432.0</ele><time>2026-05-02T08:06:48Z</time></trkpt><trkpt lat="44.76526168834571" lon="9.941289429023398"><ele>432.0</ele><time>2026-05-02T08:06:51Z</time></trkpt><trkpt lat="44.76519366076061" lon="9.94133957471792"><ele>432.0</ele><time>2026-05-02T08:06:54Z</time></trkpt><trkpt lat="44.765126307623134" lon="9.941394878565422"><ele>432.0</ele><time>2026-05-02T08:06:57Z</time></trkpt><trkpt lat="44.765058334547206" lon="9.941446956136405"><ele>433.0</ele><time>2026-05-02T08:07:01Z</time></trkpt><trkpt lat="44.76498544127497" lon="9.941502746518122"><ele>434.0</ele><time>2026-05-02T08:07:04Z</time></trkpt><trkpt lat="44.764926149496276" lon="9.941556069419544"><ele>435.0</ele><time>2026-05-02T08:07:07Z</time></trkpt><trkpt lat="44.76486662186764" lon="9.94160785633035"><ele>436.0</ele><time>2026-05-02T08:07:10Z</time></trkpt><trkpt lat="44.764803412979234" lon="9.941650961222452"><ele>437.0</ele><time>2026-05-02T08:07:12.999Z</time></trkpt><trkpt lat="44.764727531851946" lon="9.941695590799366"><ele>438.0</ele><time>2026-05-02T08:07:16.999Z</time></trkpt><trkpt lat="44.764658692970535" lon="9.941749527854808"><ele>438.0</ele><time>2026-05-02T08:07:20.999Z</time></trkpt><trkpt lat="44.76459617283959" lon="9.941784577955138"><ele>438.0</ele><time>2026-05-02T08:07:23.999Z</time></trkpt><trkpt lat="44.764539766806564" lon="9.941835062124568"><ele>438.0</ele><time>2026-05-02T08:07:26.999Z</time></trkpt><trkpt lat="44.76448200165238" lon="9.941880549434732"><ele>438.0</ele><time>2026-05-02T08:07:29.999Z</time></trkpt><trkpt lat="44.76442436307028" lon="9.941926195141441"><ele>438.0</ele><time>2026-05-02T08:07:32.999Z</time></trkpt><trkpt lat="44.7643665172884" lon="9.941971887111388"><ele>438.0</ele><time>2026-05-02T08:07:35.999Z</time></trkpt><trkpt lat="44.764306732748544" lon="9.942016683751776"><ele>438.0</ele><time>2026-05-02T08:07:38.999Z</time></trkpt><trkpt lat="44.76423646433209" lon="9.942069071779956"><ele>440.42857142857144</ele><time>2026-05-02T08:07:42.999Z</time></trkpt><trkpt lat="44.76416868836418" lon="9.942122069630425"><ele>442.85714285714283</ele><time>2026-05-02T08:07:45.999Z</time></trkpt><trkpt lat="44.76411121212768" lon="9.942176842744136"><ele>445.2857142857143</ele><time>2026-05-02T08:07:48.999Z</time></trkpt><trkpt lat="44.764055877344894" lon="9.942231262540387"><ele>447.7142857142857</ele><time>2026-05-02T08:07:51.999Z</time></trkpt><trkpt lat="44.76400120201207" lon="9.942289445571864"><ele>450.1428571428571</ele><time>2026-05-02T08:07:54.999Z</time></trkpt><trkpt lat="44.763939878189476" lon="9.942348176342737"><ele>452.57142857142856</ele><time>2026-05-02T08:07:57.999Z</time></trkpt><trkpt lat="44.76388096794804" lon="9.942394224815054"><ele>455.0</ele><time>2026-05-02T08:08:00.999Z</time></trkpt><trkpt lat="44.76380138995883" lon="9.942482901318737"><ele>454.99999999999994</ele><time>2026-05-02T08:08:04.998Z</time></trkpt><trkpt lat="44.76374075021406" lon="9.942543992369426"><ele>455.0</ele><time>2026-05-02T08:08:07.998Z</time></trkpt><trkpt lat="44.763672440701235" lon="9.942587072622873"><ele>455.0</ele><time>2026-05-02T08:08:10.998Z</time></trkpt><trkpt lat="44.763594829151536" lon="9.942641523965383"><ele>455.0</ele><time>2026-05-02T08:08:14.998Z</time></trkpt><trkpt lat="44.76352050612873" lon="9.9426766841031"><ele>454.99999999999994</ele><time>2026-05-02T08:08:18.998Z</time></trkpt><trkpt lat="44.76345782008784" lon="9.942704195982898"><ele>455.0</ele><time>2026-05-02T08:08:21.998Z</time></trkpt><trkpt lat="44.76338025118001" lon="9.942738173579693"><ele>456.2857142857143</ele><time>2026-05-02T08:08:25.998Z</time></trkpt><trkpt lat="44.76330422220642" lon="9.942761965868579"><ele>457.57142857142856</ele><time>2026-05-02T08:08:29.998Z</time></trkpt><trkpt lat="44.763234226391134" lon="9.942782123933"><ele>458.8571428571429</ele><time>2026-05-02T08:08:32.998Z</time></trkpt><trkpt lat="44.76317160222561" lon="9.942710113528483"><ele>460.14285714285717</ele><time>2026-05-02T08:08:36.998Z</time></trkpt><trkpt lat="44.76314093725987" lon="9.942617233383544"><ele>461.42857142857144</ele><time>2026-05-02T08:08:40Z</time></trkpt><trkpt lat="44.76316191887628" lon="9.942526175898735"><ele>462.7142857142858</ele><time>2026-05-02T08:08:44Z</time></trkpt><trkpt lat="44.76319322605304" lon="9.942441947951744"><ele>464.00000000000006</ele><time>2026-05-02T08:08:47Z</time></trkpt><trkpt lat="44.76321475078893" lon="9.942358126827656"><ele>464.3333333333333</ele><time>2026-05-02T08:08:50Z</time></trkpt><trkpt lat="44.763246127598755" lon="9.94227640029142"><ele>464.66666666666663</ele><time>2026-05-02T08:08:53Z</time></trkpt><trkpt lat="44.763280678480605" lon="9.942174281810118"><ele>465.0</ele><time>2026-05-02T08:08:57Z</time></trkpt><trkpt lat="44.76332325695847" lon="9.942066994427384"><ele>465.33333333333337</ele><time>2026-05-02T08:09:01Z</time></trkpt><trkpt lat="44.76336746929366" lon="9.941967407763114"><ele>465.6666666666667</ele><time>2026-05-02T08:09:05Z</time></trkpt><trkpt lat="44.76340353517609" lon="9.94189016123383"><ele>466.0</ele><time>2026-05-02T08:09:08Z</time></trkpt><trkpt lat="44.763444779913925" lon="9.94181304785161"><ele>466.0</ele><time>2026-05-02T08:09:11Z</time></trkpt><trkpt lat="44.763479094897676" lon="9.941737937378626"><ele>466.0</ele><time>2026-05-02T08:09:14Z</time></trkpt><trkpt lat="44.763513330727875" lon="9.94166328453046"><ele>466.0</ele><time>2026-05-02T08:09:16.999Z</time></trkpt><trkpt lat="44.76357430344986" lon="9.941568923950019"><ele>466.0</ele><time>2026-05-02T08:09:20.999Z</time></trkpt><trkpt lat="44.76361964354044" lon="9.941488120287218"><ele>466.0</ele><time>2026-05-02T08:09:24.999Z</time></trkpt><trkpt lat="44.76366678098829" lon="9.941406333752866"><ele>466.0</ele><time>2026-05-02T08:09:27.999Z</time></trkpt><trkpt lat="44.76370922786348" lon="9.94132511222906"><ele>466.0</ele><time>2026-05-02T08:09:30.999Z</time></trkpt><trkpt lat="44.76375359823662" lon="9.941236818687532"><ele>465.1666666666667</ele><time>2026-05-02T08:09:33.999Z</time></trkpt><trkpt lat="44.76379052487159" lon="9.941158720319189"><ele>464.33333333333337</ele><time>2026-05-02T08:09:36.999Z</time></trkpt><trkpt lat="44.7638400590764" lon="9.941061540361718"><ele>463.5</ele><time>2026-05-02T08:09:39.999Z</time></trkpt><trkpt lat="44.76387853626617" lon="9.940965473142871"><ele>462.66666666666663</ele><time>2026-05-02T08:09:42.999Z</time></trkpt><trkpt lat="44.76391391016919" lon="9.940865288740474"><ele>461.8333333333333</ele><time>2026-05-02T08:09:45.999Z</time></trkpt><trkpt lat="44.763946298305875" lon="9.940769686237548"><ele>461.0</ele><time>2026-05-02T08:09:48.999Z</time></trkpt><trkpt lat="44.76396595007084" lon="9.940661266921376"><ele>462.66666666666663</ele><time>2026-05-02T08:09:52.999Z</time></trkpt><trkpt lat="44.7639623038805" lon="9.940558559033617"><ele>464.3333333333333</ele><time>2026-05-02T08:09:55.999Z</time></trkpt><trkpt lat="44.76390718875065" lon="9.940458095327315"><ele>466.0</ele><time>2026-05-02T08:09:58.999Z</time></trkpt><trkpt lat="44.76383630462996" lon="9.940460706058735"><ele>467.66666666666663</ele><time>2026-05-02T08:10:01.999Z</time></trkpt><trkpt lat="44.76377587643122" lon="9.940545654273865"><ele>469.3333333333333</ele><time>2026-05-02T08:10:05.999Z</time></trkpt><trkpt lat="44.76373519864894" lon="9.940640077071388"><ele>471.0</ele><time>2026-05-02T08:10:08.998Z</time></trkpt><trkpt lat="44.76368824188828" lon="9.94074095736685"><ele>471.00000000000006</ele><time>2026-05-02T08:10:11.998Z</time></trkpt><trkpt lat="44.76363714854114" lon="9.940814943116004"><ele>471.0</ele><time>2026-05-02T08:10:14.998Z</time></trkpt><trkpt lat="44.76358109397218" lon="9.940869622098015"><ele>471.00000000000006</ele><time>2026-05-02T08:10:17.998Z</time></trkpt><trkpt lat="44.763521242857514" lon="9.940923413099966"><ele>471.00000000000006</ele><time>2026-05-02T08:10:20.998Z</time></trkpt><trkpt lat="44.7634593269133" lon="9.940967676351002"><ele>471.0</ele><time>2026-05-02T08:10:23.998Z</time></trkpt><trkpt lat="44.763389334145145" lon="9.941009178071363"><ele>471.00000000000006</ele><time>2026-05-02T08:10:26.998Z</time></trkpt><trkpt lat="44.76332195754016" lon="9.94105449484039"><ele>471.00000000000006</ele><time>2026-05-02T08:10:29.998Z</time></trkpt><trkpt lat="44.76324621770416" lon="9.941105510246588"><ele>472.1666666666667</ele><time>2026-05-02T08:10:32.998Z</time></trkpt><trkpt lat="44.76317734365198" lon="9.941140353504926"><ele>473.33333333333337</ele><time>2026-05-02T08:10:35.998Z</time></trkpt><trkpt lat="44.763105539893076" lon="9.941175083487302"><ele>474.5</ele><time>2026-05-02T08:10:39.998Z</time></trkpt><trkpt lat="44.76303308243251" lon="9.9411597086078"><ele>475.6666666666667</ele><time>2026-05-02T08:10:42.998Z</time></trkpt><trkpt lat="44.7629471870974" lon="9.941120188366522"><ele>476.83333333333337</ele><time>2026-05-02T08:10:46Z</time></trkpt><trkpt lat="44.762872320764004" lon="9.941077271654745"><ele>478.0</ele><time>2026-05-02T08:10:49Z</time></trkpt><trkpt lat="44.76279839452972" lon="9.941041089254567"><ele>478.00000000000006</ele><time>2026-05-02T08:10:52Z</time></trkpt><trkpt lat="44.762726849942624" lon="9.941034503720688"><ele>478.0</ele><time>2026-05-02T08:10:55Z</time></trkpt><trkpt lat="44.76265660824365" lon="9.941070602347336"><ele>478.00000000000006</ele><time>2026-05-02T08:10:58Z</time></trkpt><trkpt lat="44.762599330228596" lon="9.941110206641618"><ele>478.00000000000006</ele><time>2026-05-02T08:11:00Z</time></trkpt><trkpt lat="44.76253915545637" lon="9.941175602579763"><ele>478.0</ele><time>2026-05-02T08:11:02Z</time></trkpt><trkpt lat="44.76249392245633" lon="9.941239270801038"><ele>478.00000000000006</ele><time>2026-05-02T08:11:04Z</time></trkpt><trkpt lat="44.762437370150586" lon="9.941291619674598"><ele>478.00000000000006</ele><time>2026-05-02T08:11:06Z</time></trkpt><trkpt lat="44.76236796722455" lon="9.941381432696327"><ele>480.1666666666667</ele><time>2026-05-02T08:11:09Z</time></trkpt><trkpt lat="44.76230792096099" lon="9.941467093718932"><ele>482.33333333333337</ele><time>2026-05-02T08:11:12Z</time></trkpt><trkpt lat="44.76223311283633" lon="9.941533403362783"><ele>484.5</ele><time>2026-05-02T08:11:15Z</time></trkpt><trkpt lat="44.762169599090115" lon="9.941587724306862"><ele>486.66666666666663</ele><time>2026-05-02T08:11:18Z</time></trkpt><trkpt lat="44.762109353353694" lon="9.94162988570761"><ele>488.8333333333333</ele><time>2026-05-02T08:11:20.999Z</time></trkpt><trkpt lat="44.762031821285134" lon="9.941667525013068"><ele>491.0</ele><time>2026-05-02T08:11:24.999Z</time></trkpt><trkpt lat="44.76196771605032" lon="9.941670444329507"><ele>490.99999999999994</ele><time>2026-05-02T08:11:27.999Z</time></trkpt><trkpt lat="44.76189776440624" lon="9.941664030277225"><ele>491.0</ele><time>2026-05-02T08:11:30.999Z</time></trkpt><trkpt lat="44.76182334040233" lon="9.941674582274032"><ele>491.0</ele><time>2026-05-02T08:11:33.999Z</time></trkpt><trkpt lat="44.76174612325134" lon="9.941675004758292"><ele>491.0</ele><time>2026-05-02T08:11:36.999Z</time></trkpt><trkpt lat="44.761674834361784" lon="9.941683925525039"><ele>490.99999999999994</ele><time>2026-05-02T08:11:39.999Z</time></trkpt><trkpt lat="44.76159416253611" lon="9.941703952380236"><ele>491.0</ele><time>2026-05-02T08:11:42.999Z</time></trkpt><trkpt lat="44.76152282302214" lon="9.941752669140593"><ele>491.66666666666663</ele><time>2026-05-02T08:11:45.999Z</time></trkpt><trkpt lat="44.76145658554466" lon="9.941794253424755"><ele>492.3333333333333</ele><time>2026-05-02T08:11:48.999Z</time></trkpt><trkpt lat="44.76139655196666" lon="9.941851694130776"><ele>493.0</ele><time>2026-05-02T08:11:51.999Z</time></trkpt><trkpt lat="44.76134018369732" lon="9.941918863508855"><ele>493.66666666666663</ele><time>2026-05-02T08:11:54.999Z</time></trkpt><trkpt lat="44.7612741761244" lon="9.942002817512757"><ele>494.3333333333333</ele><time>2026-05-02T08:11:57.999Z</time></trkpt><trkpt lat="44.76121057345022" lon="9.942087601892851"><ele>495.0</ele><time>2026-05-02T08:12:00.999Z</time></trkpt><trkpt lat="44.76116238708265" lon="9.942171518066269"><ele>495.0</ele><time>2026-05-02T08:12:03.999Z</time></trkpt><trkpt lat="44.76110312039694" lon="9.942273586898278"><ele>495.0</ele><time>2026-05-02T08:12:06.999Z</time></trkpt><trkpt lat="44.761056073315004" lon="9.942362292709797"><ele>495.0</ele><time>2026-05-02T08:12:09.999Z</time></trkpt><trkpt lat="44.76101061380432" lon="9.942448008795276"><ele>495.0</ele><time>2026-05-02T08:12:12.998Z</time></trkpt><trkpt lat="44.760969349421124" lon="9.94253410919401"><ele>495.0</ele><time>2026-05-02T08:12:15.998Z</time></trkpt><trkpt lat="44.7609353525298" lon="9.942627434726905"><ele>495.0</ele><time>2026-05-02T08:12:18.998Z</time></trkpt><trkpt lat="44.760918217425576" lon="9.942725164338151"><ele>497.5</ele><time>2026-05-02T08:12:21.998Z</time></trkpt><trkpt lat="44.76091041332425" lon="9.942837407432673"><ele>500.0</ele><time>2026-05-02T08:12:24.998Z</time></trkpt><trkpt lat="44.76091954167778" lon="9.942950377448337"><ele>502.5</ele><time>2026-05-02T08:12:27.998Z</time></trkpt><trkpt lat="44.76093931406242" lon="9.943060263048434"><ele>505.0</ele><time>2026-05-02T08:12:30.998Z</time></trkpt><trkpt lat="44.76097346727255" lon="9.943186177388684"><ele>507.5</ele><time>2026-05-02T08:12:33.998Z</time></trkpt><trkpt lat="44.76099200754604" lon="9.94327922121394"><ele>510.0</ele><time>2026-05-02T08:12:36.998Z</time></trkpt><trkpt lat="44.760994316305705" lon="9.943382628004906"><ele>510.0</ele><time>2026-05-02T08:12:40.998Z</time></trkpt><trkpt lat="44.76097870906096" lon="9.943475672247574"><ele>510.00000000000006</ele><time>2026-05-02T08:12:43.998Z</time></trkpt><trkpt lat="44.76096068923296" lon="9.943576053046383"><ele>510.0</ele><time>2026-05-02T08:12:46.998Z</time></trkpt><trkpt lat="44.76095563285974" lon="9.943670934918686"><ele>510.0</ele><time>2026-05-02T08:12:48.998Z</time></trkpt><trkpt lat="44.760936191648774" lon="9.943774905109874"><ele>510.00000000000006</ele><time>2026-05-02T08:12:52Z</time></trkpt><trkpt lat="44.7609155209569" lon="9.943885641496864"><ele>510.0</ele><time>2026-05-02T08:12:55Z</time></trkpt><trkpt lat="44.76087869144368" lon="9.94397500633514"><ele>510.0</ele><time>2026-05-02T08:12:58Z</time></trkpt><trkpt lat="44.76081322055764" lon="9.944014574527646"><ele>510.0</ele><time>2026-05-02T08:13:01Z</time></trkpt><trkpt lat="44.760757063420606" lon="9.943970218763386"><ele>510.00000000000006</ele><time>2026-05-02T08:13:04Z</time></trkpt><trkpt lat="44.76072380798833" lon="9.943893264491502"><ele>510.0</ele><time>2026-05-02T08:13:07Z</time></trkpt><trkpt lat="44.760698547015316" lon="9.943811414260963"><ele>510.0</ele><time>2026-05-02T08:13:10Z</time></trkpt><trkpt lat="44.76067462411578" lon="9.943724097113712"><ele>510.00000000000006</ele><time>2026-05-02T08:13:13Z</time></trkpt><trkpt lat="44.76064170681024" lon="9.94364598755103"><ele>510.0</ele><time>2026-05-02T08:13:16Z</time></trkpt><trkpt lat="44.760616061589886" lon="9.943564726289306"><ele>510.0</ele><time>2026-05-02T08:13:19Z</time></trkpt><trkpt lat="44.760613195902366" lon="9.943461826314408"><ele>510.8333333333333</ele><time>2026-05-02T08:13:22Z</time></trkpt><trkpt lat="44.7605912013329" lon="9.943371119244635"><ele>511.66666666666663</ele><time>2026-05-02T08:13:24.999Z</time></trkpt><trkpt lat="44.76056825267528" lon="9.943277509764338"><ele>512.5</ele><time>2026-05-02T08:13:27.999Z</time></trkpt><trkpt lat="44.760537043230485" lon="9.943180337601351"><ele>513.3333333333333</ele><time>2026-05-02T08:13:30.999Z</time></trkpt><trkpt lat="44.76050720173997" lon="9.943077735199804"><ele>514.1666666666666</ele><time>2026-05-02T08:13:33.999Z</time></trkpt><trkpt lat="44.760464797717205" lon="9.942986054556846"><ele>515.0</ele><time>2026-05-02T08:13:36.999Z</time></trkpt><trkpt lat="44.7604226280627" lon="9.942884473799712"><ele>515.0</ele><time>2026-05-02T08:13:39.999Z</time></trkpt><trkpt lat="44.76036563689812" lon="9.94278332310885"><ele>515.0</ele><time>2026-05-02T08:13:42.999Z</time></trkpt><trkpt lat="44.7603230853547" lon="9.942685634910232"><ele>515.0</ele><time>2026-05-02T08:13:45.999Z</time></trkpt><trkpt lat="44.760305595811055" lon="9.942571689191816"><ele>515.0</ele><time>2026-05-02T08:13:48.999Z</time></trkpt><trkpt lat="44.760305444694524" lon="9.942460725110967"><ele>515.0</ele><time>2026-05-02T08:13:51.999Z</time></trkpt><trkpt lat="44.76031194248562" lon="9.94237156938151"><ele>515.0</ele><time>2026-05-02T08:13:53.999Z</time></trkpt><trkpt lat="44.76032662887894" lon="9.94226074152536"><ele>515.0</ele><time>2026-05-02T08:13:56.999Z</time></trkpt><trkpt lat="44.76034091439189" lon="9.942163976685855"><ele>515.0</ele><time>2026-05-02T08:13:58.999Z</time></trkpt><trkpt lat="44.7603605404548" lon="9.942044373742213"><ele>515.0</ele><time>2026-05-02T08:14:01.999Z</time></trkpt><trkpt lat="44.76037583521249" lon="9.941933910441767"><ele>515.0</ele><time>2026-05-02T08:14:04.999Z</time></trkpt><trkpt lat="44.760394465330506" lon="9.941824845270098"><ele>515.0</ele><time>2026-05-02T08:14:07.999Z</time></trkpt><trkpt lat="44.76040491514746" lon="9.941712533574295"><ele>515.0</ele><time>2026-05-02T08:14:10.999Z</time></trkpt><trkpt lat="44.76042334131037" lon="9.941599244066083"><ele>515.0</ele><time>2026-05-02T08:14:13.999Z</time></trkpt><trkpt lat="44.760446403627654" lon="9.941498429129078"><ele>515.0</ele><time>2026-05-02T08:14:16.999Z</time></trkpt><trkpt lat="44.760468263084704" lon="9.941379742716972"><ele>515.0</ele><time>2026-05-02T08:14:19.998Z</time></trkpt><trkpt lat="44.76049229817802" lon="9.941270135503702"><ele>515.0</ele><time>2026-05-02T08:14:23.998Z</time></trkpt><trkpt lat="44.76051694988207" lon="9.941171403262691"><ele>515.0</ele><time>2026-05-02T08:14:26.998Z</time></trkpt><trkpt lat="44.76055039588987" lon="9.94107635411977"><ele>515.0</ele><time>2026-05-02T08:14:29.998Z</time></trkpt><trkpt lat="44.760596828296805" lon="9.94099102235496"><ele>515.0</ele><time>2026-05-02T08:14:32.998Z</time></trkpt><trkpt lat="44.76064176724023" lon="9.940910612819305"><ele>515.0</ele><time>2026-05-02T08:14:35.998Z</time></trkpt><trkpt lat="44.7606911395321" lon="9.940827692460106"><ele>515.0</ele><time>2026-05-02T08:14:38.998Z</time></trkpt><trkpt lat="44.76073999853267" lon="9.940751408597404"><ele>515.0</ele><time>2026-05-02T08:14:41.998Z</time></trkpt><trkpt lat="44.7607880433432" lon="9.940677440271758"><ele>515.0</ele><time>2026-05-02T08:14:44.998Z</time></trkpt><trkpt lat="44.7608365755066" lon="9.940603646346041"><ele>515.0</ele><time>2026-05-02T08:14:47.998Z</time></trkpt><trkpt lat="44.76088487704482" lon="9.940536234243385"><ele>515.0</ele><time>2026-05-02T08:14:50.998Z</time></trkpt><trkpt lat="44.760935663322044" lon="9.940457825796294"><ele>516.5714285714286</ele><time>2026-05-02T08:14:53.998Z</time></trkpt><trkpt lat="44.76097872122784" lon="9.940357447998828"><ele>518.1428571428571</ele><time>2026-05-02T08:14:57Z</time></trkpt><trkpt lat="44.760988176051335" lon="9.940256956733958"><ele>519.7142857142857</ele><time>2026-05-02T08:15:00Z</time></trkpt><trkpt lat="44.76096481475714" lon="9.94016637075182"><ele>521.2857142857142</ele><time>2026-05-02T08:15:03Z</time></trkpt><trkpt lat="44.760908719028265" lon="9.940102890392012"><ele>522.8571428571428</ele><time>2026-05-02T08:15:06Z</time></trkpt><trkpt lat="44.76083471262124" lon="9.94009191504708"><ele>524.4285714285714</ele><time>2026-05-02T08:15:09Z</time></trkpt><trkpt lat="44.760764768722005" lon="9.940109364407911"><ele>526.0</ele><time>2026-05-02T08:15:12Z</time></trkpt><trkpt lat="44.760692710340706" lon="9.940142933095427"><ele>526.0</ele><time>2026-05-02T08:15:15Z</time></trkpt><trkpt lat="44.760611392047345" lon="9.940173525775906"><ele>526.0</ele><time>2026-05-02T08:15:18Z</time></trkpt><trkpt lat="44.760545530634616" lon="9.940204747790402"><ele>526.0</ele><time>2026-05-02T08:15:21Z</time></trkpt><trkpt lat="44.76048321187038" lon="9.940224430283433"><ele>526.0</ele><time>2026-05-02T08:15:24Z</time></trkpt><trkpt lat="44.76042181703797" lon="9.940253248512716"><ele>526.0</ele><time>2026-05-02T08:15:27Z</time></trkpt><trkpt lat="44.7603512628081" lon="9.940276547877351"><ele>526.0</ele><time>2026-05-02T08:15:29.999Z</time></trkpt><trkpt lat="44.760282363069955" lon="9.940302685954885"><ele>526.0</ele><time>2026-05-02T08:15:32.999Z</time></trkpt><trkpt lat="44.76021138209434" lon="9.94034311732867"><ele>528.3333333333334</ele><time>2026-05-02T08:15:35.999Z</time></trkpt><trkpt lat="44.76013961500366" lon="9.94039598235521"><ele>530.6666666666667</ele><time>2026-05-02T08:15:38.999Z</time></trkpt><trkpt lat="44.760075567714985" lon="9.940468798338017"><ele>533.0</ele><time>2026-05-02T08:15:41.999Z</time></trkpt><trkpt lat="44.76001097853414" lon="9.94056163378866"><ele>535.3333333333334</ele><time>2026-05-02T08:15:44.999Z</time></trkpt><trkpt lat="44.75995524752448" lon="9.94062948614769"><ele>537.6666666666666</ele><time>2026-05-02T08:15:47.999Z</time></trkpt><trkpt lat="44.75990285691768" lon="9.94069492238522"><ele>540.0</ele><time>2026-05-02T08:15:50.999Z</time></trkpt><trkpt lat="44.75985987407431" lon="9.940777675259138"><ele>540.0</ele><time>2026-05-02T08:15:53.999Z</time></trkpt><trkpt lat="44.759802802355956" lon="9.940842993483056"><ele>540.0</ele><time>2026-05-02T08:15:56.999Z</time></trkpt><trkpt lat="44.75974514903376" lon="9.940922956293948"><ele>540.0</ele><time>2026-05-02T08:15:59.999Z</time></trkpt><trkpt lat="44.75969202984928" lon="9.94101101522178"><ele>540.0</ele><time>2026-05-02T08:16:02.999Z</time></trkpt><trkpt lat="44.75963640552664" lon="9.941115244310359"><ele>540.0</ele><time>2026-05-02T08:16:05.999Z</time></trkpt><trkpt lat="44.75959727088382" lon="9.941223550104482"><ele>540.0</ele><time>2026-05-02T08:16:08.999Z</time></trkpt><trkpt lat="44.75955842724914" lon="9.94131498104758"><ele>538.8571428571429</ele><time>2026-05-02T08:16:11.999Z</time></trkpt><trkpt lat="44.75951814756527" lon="9.94140202272406"><ele>537.7142857142857</ele><time>2026-05-02T08:16:14.999Z</time></trkpt><trkpt lat="44.75947102968742" lon="9.941488255599536"><ele>536.5714285714286</ele><time>2026-05-02T08:16:17.999Z</time></trkpt><trkpt lat="44.75942656175885" lon="9.94157530911473"><ele>535.4285714285714</ele><time>2026-05-02T08:16:20.998Z</time></trkpt><trkpt lat="44.75938582202711" lon="9.941645722050172"><ele>534.2857142857142</ele><time>2026-05-02T08:16:22.998Z</time></trkpt><trkpt lat="44.75934940104381" lon="9.94172770433614"><ele>533.1428571428571</ele><time>2026-05-02T08:16:25.998Z</time></trkpt><trkpt lat="44.75931198868711" lon="9.941809630973106"><ele>532.0</ele><time>2026-05-02T08:16:28.998Z</time></trkpt><trkpt lat="44.75927949817758" lon="9.94189579219573"><ele>534.6666666666667</ele><time>2026-05-02T08:16:31.998Z</time></trkpt><trkpt lat="44.75924218392953" lon="9.941989915594446"><ele>537.3333333333334</ele><time>2026-05-02T08:16:34.998Z</time></trkpt><trkpt lat="44.759208144918205" lon="9.942087778555283"><ele>540.0</ele><time>2026-05-02T08:16:37.998Z</time></trkpt><trkpt lat="44.759154962896176" lon="9.942186445231513"><ele>542.6666666666666</ele><time>2026-05-02T08:16:40.998Z</time></trkpt><trkpt lat="44.759113130920184" lon="9.942293714617671"><ele>545.3333333333333</ele><time>2026-05-02T08:16:43.998Z</time></trkpt><trkpt lat="44.759094528717945" lon="9.942385003435904"><ele>548.0</ele><time>2026-05-02T08:16:46.998Z</time></trkpt><trkpt lat="44.75908067824768" lon="9.942486262000758"><ele>547.5</ele><time>2026-05-02T08:16:49.998Z</time></trkpt><trkpt lat="44.759070955313156" lon="9.942589308473098"><ele>547.0</ele><time>2026-05-02T08:16:52.998Z</time></trkpt><trkpt lat="44.75906391734414" lon="9.942708049918021"><ele>546.5</ele><time>2026-05-02T08:16:55.998Z</time></trkpt><trkpt lat="44.7590637163239" lon="9.942819771037804"><ele>546.0</ele><time>2026-05-02T08:16:58.998Z</time></trkpt><trkpt lat="44.75906018927227" lon="9.942930151817704"><ele>545.5</ele><time>2026-05-02T08:17:01.998Z</time></trkpt><trkpt lat="44.75901632656252" lon="9.943012233515581"><ele>545.0</ele><time>2026-05-02T08:17:05Z</time></trkpt><trkpt lat="44.75895231998837" lon="9.942987579537153"><ele>545.0</ele><time>2026-05-02T08:17:09Z</time></trkpt><trkpt lat="44.75894599279476" lon="9.9428906378768"><ele>545.0</ele><time>2026-05-02T08:17:12Z</time></trkpt><trkpt lat="44.75893071872262" lon="9.942794570057362"><ele>545.0</ele><time>2026-05-02T08:17:15Z</time></trkpt><trkpt lat="44.758917494154794" lon="9.94270655916712"><ele>545.0</ele><time>2026-05-02T08:17:18Z</time></trkpt><trkpt lat="44.75890506253617" lon="9.942619076126006"><ele>545.0</ele><time>2026-05-02T08:17:20Z</time></trkpt><trkpt lat="44.758896837514975" lon="9.942523704858843"><ele>545.0</ele><time>2026-05-02T08:17:23Z</time></trkpt><trkpt lat="44.75888823835059" lon="9.94241304854196"><ele>545.0</ele><time>2026-05-02T08:17:26Z</time></trkpt><trkpt lat="44.75887721576313" lon="9.942305148589858"><ele>545.4285714285714</ele><time>2026-05-02T08:17:30Z</time></trkpt><trkpt lat="44.75888745803007" lon="9.94221472407471"><ele>545.8571428571429</ele><time>2026-05-02T08:17:32.999Z</time></trkpt><trkpt lat="44.75888795930231" lon="9.94210342747296"><ele>546.2857142857143</ele><time>2026-05-02T08:17:36.999Z</time></trkpt><trkpt lat="44.7588955440169" lon="9.942015289510065"><ele>546.7142857142858</ele><time>2026-05-02T08:17:39.999Z</time></trkpt><trkpt lat="44.75890850830206" lon="9.941911119268623"><ele>547.1428571428571</ele><time>2026-05-02T08:17:42.999Z</time></trkpt><trkpt lat="44.758915781661614" lon="9.941820650681212"><ele>547.5714285714287</ele><time>2026-05-02T08:17:45.999Z</time></trkpt><trkpt lat="44.75893466540815" lon="9.941705081405928"><ele>548.0</ele><time>2026-05-02T08:17:49.999Z</time></trkpt><trkpt lat="44.75895706244182" lon="9.941606475578281"><ele>549.1428571428572</ele><time>2026-05-02T08:17:52.999Z</time></trkpt><trkpt lat="44.75897735897795" lon="9.941502378298956"><ele>550.2857142857143</ele><time>2026-05-02T08:17:56.999Z</time></trkpt><trkpt lat="44.75899188386395" lon="9.941408658272602"><ele>551.4285714285714</ele><time>2026-05-02T08:17:59.999Z</time></trkpt><trkpt lat="44.759009822278195" lon="9.941305712156447"><ele>552.5714285714287</ele><time>2026-05-02T08:18:02.999Z</time></trkpt><trkpt lat="44.759024613514455" lon="9.941201249173485"><ele>553.7142857142858</ele><time>2026-05-02T08:18:05.999Z</time></trkpt><trkpt lat="44.759040815572206" lon="9.9411093362644"><ele>554.8571428571429</ele><time>2026-05-02T08:18:08.999Z</time></trkpt><trkpt lat="44.75905492804981" lon="9.941006711213385"><ele>556.0</ele><time>2026-05-02T08:18:11.999Z</time></trkpt><trkpt lat="44.759058761763015" lon="9.940907710815816"><ele>557.2857142857142</ele><time>2026-05-02T08:18:14.999Z</time></trkpt><trkpt lat="44.759054809721924" lon="9.940809371807745"><ele>558.5714285714286</ele><time>2026-05-02T08:18:17.999Z</time></trkpt><trkpt lat="44.75904379123154" lon="9.940705246948147"><ele>559.8571428571429</ele><time>2026-05-02T08:18:20.999Z</time></trkpt><trkpt lat="44.759022802032746" lon="9.940609816130076"><ele>561.1428571428571</ele><time>2026-05-02T08:18:23.999Z</time></trkpt><trkpt lat="44.75899820908569" lon="9.940523840463669"><ele>562.4285714285714</ele><time>2026-05-02T08:18:26.998Z</time></trkpt><trkpt lat="44.75898313024573" lon="9.94042676132317"><ele>563.7142857142857</ele><time>2026-05-02T08:18:29.998Z</time></trkpt><trkpt lat="44.75899724749321" lon="9.94032595180234"><ele>565.0</ele><time>2026-05-02T08:18:32.998Z</time></trkpt><trkpt lat="44.75902358733043" lon="9.940230798097762"><ele>565.0</ele><time>2026-05-02T08:18:35.998Z</time></trkpt><trkpt lat="44.75905575583405" lon="9.940147926155122"><ele>565.0</ele><time>2026-05-02T08:18:38.998Z</time></trkpt><trkpt lat="44.75908729113987" lon="9.94007031926834"><ele>565.0</ele><time>2026-05-02T08:18:41.998Z</time></trkpt><trkpt lat="44.75912248013849" lon="9.939959200389167"><ele>565.0</ele><time>2026-05-02T08:18:45.998Z</time></trkpt><trkpt lat="44.75914944439397" lon="9.939877722290497"><ele>565.0</ele><time>2026-05-02T08:18:47.998Z</time></trkpt><trkpt lat="44.759162527547666" lon="9.939770886758486"><ele>565.0</ele><time>2026-05-02T08:18:50.998Z</time></trkpt><trkpt lat="44.759163880483264" lon="9.939640395425394"><ele>565.6666666666667</ele><time>2026-05-02T08:18:53.998Z</time></trkpt><trkpt lat="44.75916500602871" lon="9.939528672578177"><ele>566.3333333333334</ele><time>2026-05-02T08:18:56.998Z</time></trkpt><trkpt lat="44.759151264330235" lon="9.93941496115138"><ele>567.0</ele><time>2026-05-02T08:18:59.998Z</time></trkpt><trkpt lat="44.75912773655506" lon="9.939316431983968"><ele>567.6666666666666</ele><time>2026-05-02T08:19:02.998Z</time></trkpt><trkpt lat="44.759093605129344" lon="9.939231700296002"><ele>568.3333333333333</ele><time>2026-05-02T08:19:05.998Z</time></trkpt><trkpt lat="44.75905303500349" lon="9.939127569798465"><ele>569.0</ele><time>2026-05-02T08:19:10Z</time></trkpt><trkpt lat="44.75900609350184" lon="9.939045531126448"><ele>569.0000000000001</ele><time>2026-05-02T08:19:13Z</time></trkpt><trkpt lat="44.75895609949912" lon="9.938978491245312"><ele>569.0</ele><time>2026-05-02T08:19:16Z</time></trkpt><trkpt lat="44.75888573722069" lon="9.938918047654052"><ele>569.0</ele><time>2026-05-02T08:19:19Z</time></trkpt><trkpt lat="44.75882017708776" lon="9.938894534442614"><ele>569.0</ele><time>2026-05-02T08:19:22Z</time></trkpt><trkpt lat="44.75875734553436" lon="9.938881313256251"><ele>569.0</ele><time>2026-05-02T08:19:25Z</time></trkpt><trkpt lat="44.75869440676332" lon="9.938888118418484"><ele>569.0000000000001</ele><time>2026-05-02T08:19:28Z</time></trkpt><trkpt lat="44.75862640136343" lon="9.938875716599293"><ele>569.0</ele><time>2026-05-02T08:19:31Z</time></trkpt><trkpt lat="44.758557013510085" lon="9.938877916155267"><ele>571.2857142857143</ele><time>2026-05-02T08:19:34Z</time></trkpt><trkpt lat="44.75849323235273" lon="9.938875056988387"><ele>573.5714285714286</ele><time>2026-05-02T08:19:36.999Z</time></trkpt><trkpt lat="44.75842671338689" lon="9.938844977903967"><ele>575.8571428571429</ele><time>2026-05-02T08:19:39.999Z</time></trkpt><trkpt lat="44.75836585916374" lon="9.938780335099946"><ele>578.1428571428571</ele><time>2026-05-02T08:19:42.999Z</time></trkpt><trkpt lat="44.75832768626511" lon="9.938681044441234"><ele>580.4285714285714</ele><time>2026-05-02T08:19:45.999Z</time></trkpt><trkpt lat="44.75830044021499" lon="9.938574115306507"><ele>582.7142857142858</ele><time>2026-05-02T08:19:48.999Z</time></trkpt><trkpt lat="44.758289485461276" lon="9.938474362243213"><ele>585.0</ele><time>2026-05-02T08:19:51.999Z</time></trkpt><trkpt lat="44.75828349633406" lon="9.938371588145326"><ele>585.0</ele><time>2026-05-02T08:19:54.999Z</time></trkpt><trkpt lat="44.75826926397086" lon="9.938281382551677"><ele>585.0</ele><time>2026-05-02T08:19:57.999Z</time></trkpt><trkpt lat="44.7582306271075" lon="9.938181017292628"><ele>585.0</ele><time>2026-05-02T08:20:00.999Z</time></trkpt><trkpt lat="44.75818546691186" lon="9.938091169791269"><ele>585.0</ele><time>2026-05-02T08:20:03.999Z</time></trkpt><trkpt lat="44.75813236962266" lon="9.938008284974782"><ele>585.0</ele><time>2026-05-02T08:20:06.999Z</time></trkpt><trkpt lat="44.75807138423832" lon="9.93791891083977"><ele>585.0</ele><time>2026-05-02T08:20:09.999Z</time></trkpt><trkpt lat="44.75803149505228" lon="9.937843832792414"><ele>585.0</ele><time>2026-05-02T08:20:12.999Z</time></trkpt><trkpt lat="44.75800151286508" lon="9.937759215225073"><ele>585.0</ele><time>2026-05-02T08:20:15.999Z</time></trkpt><trkpt lat="44.75797777846291" lon="9.937661262985332"><ele>585.0</ele><time>2026-05-02T08:20:18.999Z</time></trkpt><trkpt lat="44.75795065535206" lon="9.937564333002308"><ele>585.0</ele><time>2026-05-02T08:20:21.999Z</time></trkpt><trkpt lat="44.75794132337144" lon="9.937455992771245"><ele>585.0</ele><time>2026-05-02T08:20:24.999Z</time></trkpt><trkpt lat="44.757939694570645" lon="9.937352866101866"><ele>585.0</ele><time>2026-05-02T08:20:27.999Z</time></trkpt><trkpt lat="44.75794045771353" lon="9.937245790909934"><ele>585.0</ele><time>2026-05-02T08:20:30.998Z</time></trkpt><trkpt lat="44.75794728704307" lon="9.937156119450085"><ele>584.5714285714286</ele><time>2026-05-02T08:20:33.998Z</time></trkpt><trkpt lat="44.757961080433844" lon="9.93703724566091"><ele>584.1428571428571</ele><time>2026-05-02T08:20:37.998Z</time></trkpt><trkpt lat="44.75797488919124" lon="9.936941494383243"><ele>583.7142857142857</ele><time>2026-05-02T08:20:40.998Z</time></trkpt><trkpt lat="44.7580069535343" lon="9.936842459994766"><ele>583.2857142857142</ele><time>2026-05-02T08:20:44.998Z</time></trkpt><trkpt lat="44.75803857279534" lon="9.9367568009555"><ele>582.8571428571428</ele><time>2026-05-02T08:20:47.998Z</time></trkpt><trkpt lat="44.758086617322384" lon="9.936669418882097"><ele>582.4285714285714</ele><time>2026-05-02T08:20:50.998Z</time></trkpt><trkpt lat="44.75813778046245" lon="9.936602350785916"><ele>582.0</ele><time>2026-05-02T08:20:54.998Z</time></trkpt><trkpt lat="44.75819542955704" lon="9.936558467522342"><ele>583.0</ele><time>2026-05-02T08:20:57.998Z</time></trkpt><trkpt lat="44.75826425350483" lon="9.936505066823177"><ele>584.0</ele><time>2026-05-02T08:21:00.998Z</time></trkpt><trkpt lat="44.75832416507461" lon="9.936425389025166"><ele>585.0</ele><time>2026-05-02T08:21:04.998Z</time></trkpt><trkpt lat="44.758352931068885" lon="9.93634511795083"><ele>586.0</ele><time>2026-05-02T08:21:06.998Z</time></trkpt><trkpt lat="44.75834710283767" lon="9.936236243081806"><ele>587.0</ele><time>2026-05-02T08:21:09.998Z</time></trkpt><trkpt lat="44.75830839813736" lon="9.936143238966993"><ele>588.0</ele><time>2026-05-02T08:21:12.998Z</time></trkpt><trkpt lat="44.75825112057459" lon="9.936077002057345"><ele>588.0</ele><time>2026-05-02T08:21:16Z</time></trkpt><trkpt lat="44.758182713832305" lon="9.936039539159603"><ele>588.0</ele><time>2026-05-02T08:21:19Z</time></trkpt><trkpt lat="44.75810746202682" lon="9.936007302406386"><ele>588.0</ele><time>2026-05-02T08:21:23Z</time></trkpt><trkpt lat="44.75803984325927" lon="9.935987904116612"><ele>588.0</ele><time>2026-05-02T08:21:26Z</time></trkpt><trkpt lat="44.75797711149718" lon="9.935976413294393"><ele>588.0</ele><time>2026-05-02T08:21:29Z</time></trkpt><trkpt lat="44.75791178204724" lon="9.935995645093767"><ele>588.0</ele><time>2026-05-02T08:21:33Z</time></trkpt><trkpt lat="44.75784251398564" lon="9.936039519599156"><ele>588.0</ele><time>2026-05-02T08:21:36Z</time></trkpt><trkpt lat="44.75777861679381" lon="9.936121560800576"><ele>588.0</ele><time>2026-05-02T08:21:39Z</time></trkpt><trkpt lat="44.757723369871236" lon="9.936174023313242"><ele>588.0</ele><time>2026-05-02T08:21:41.999Z</time></trkpt><trkpt lat="44.75767894393176" lon="9.936240154805702"><ele>588.0</ele><time>2026-05-02T08:21:44.999Z</time></trkpt><trkpt lat="44.75763609524779" lon="9.936336265798015"><ele>588.0</ele><time>2026-05-02T08:21:48.999Z</time></trkpt><trkpt lat="44.75760514227852" lon="9.936425606490365"><ele>588.0</ele><time>2026-05-02T08:21:51.999Z</time></trkpt><trkpt lat="44.75756596656507" lon="9.936510868141097"><ele>588.0</ele><time>2026-05-02T08:21:54.999Z</time></trkpt><trkpt lat="44.75752671862926" lon="9.936597020185753"><ele>588.0</ele><time>2026-05-02T08:21:57.999Z</time></trkpt><trkpt lat="44.7575019949075" lon="9.936690415524806"><ele>590.7142857142857</ele><time>2026-05-02T08:22:00.999Z</time></trkpt><trkpt lat="44.75746933293048" lon="9.936785031354137"><ele>593.4285714285714</ele><time>2026-05-02T08:22:03.999Z</time></trkpt><trkpt lat="44.75742317561179" lon="9.936865244685237"><ele>596.1428571428571</ele><time>2026-05-02T08:22:05.999Z</time></trkpt><trkpt lat="44.757394658232464" lon="9.936956834058797"><ele>598.8571428571429</ele><time>2026-05-02T08:22:08.999Z</time></trkpt><trkpt lat="44.75736019259049" lon="9.937050783231673"><ele>601.5714285714286</ele><time>2026-05-02T08:22:11.999Z</time></trkpt><trkpt lat="44.75732542912611" lon="9.93713997968135"><ele>604.2857142857142</ele><time>2026-05-02T08:22:14.999Z</time></trkpt><trkpt lat="44.75729374690624" lon="9.937241052049124"><ele>607.0</ele><time>2026-05-02T08:22:17.999Z</time></trkpt><trkpt lat="44.75726167475887" lon="9.937344819429173"><ele>607.0</ele><time>2026-05-02T08:22:20.999Z</time></trkpt><trkpt lat="44.75722244069646" lon="9.937472145812123"><ele>607.0</ele><time>2026-05-02T08:22:23.999Z</time></trkpt><trkpt lat="44.75719585749994" lon="9.937563424911128"><ele>607.0</ele><time>2026-05-02T08:22:26.999Z</time></trkpt><trkpt lat="44.7571819623371" lon="9.93766198655108"><ele>607.0</ele><time>2026-05-02T08:22:29.999Z</time></trkpt><trkpt lat="44.75718093935155" lon="9.937765679152044"><ele>607.0</ele><time>2026-05-02T08:22:32.999Z</time></trkpt><trkpt lat="44.757188128921015" lon="9.937926611734273"><ele>607.0</ele><time>2026-05-02T08:22:35.998Z</time></trkpt><trkpt lat="44.75721933409881" lon="9.938044984418429"><ele>607.6666666666667</ele><time>2026-05-02T08:22:38.998Z</time></trkpt><trkpt lat="44.757267507297264" lon="9.938143779240068"><ele>608.3333333333334</ele><time>2026-05-02T08:22:41.998Z</time></trkpt><trkpt lat="44.75732052901551" lon="9.938236052452593"><ele>609.0</ele><time>2026-05-02T08:22:44.998Z</time></trkpt><trkpt lat="44.757380979513414" lon="9.938309484997452"><ele>609.6666666666666</ele><time>2026-05-02T08:22:47.998Z</time></trkpt><trkpt lat="44.757437647404466" lon="9.938380604971776"><ele>610.3333333333333</ele><time>2026-05-02T08:22:50.998Z</time></trkpt><trkpt lat="44.757495668983246" lon="9.938449953980761"><ele>611.0</ele><time>2026-05-02T08:22:53.998Z</time></trkpt><trkpt lat="44.75754555357434" lon="9.93853436866789"><ele>611.0</ele><time>2026-05-02T08:22:56.998Z</time></trkpt><trkpt lat="44.757576555771095" lon="9.938635719130318"><ele>611.0</ele><time>2026-05-02T08:22:59.998Z</time></trkpt><trkpt lat="44.7575722406141" lon="9.938733923928233"><ele>611.0</ele><time>2026-05-02T08:23:02.998Z</time></trkpt><trkpt lat="44.757556497661746" lon="9.938854928503053"><ele>611.0</ele><time>2026-05-02T08:23:05.998Z</time></trkpt><trkpt lat="44.75751298389334" lon="9.938940375430136"><ele>611.0</ele><time>2026-05-02T08:23:08.998Z</time></trkpt><trkpt lat="44.75746273081619" lon="9.939012971253138"><ele>611.0</ele><time>2026-05-02T08:23:11.998Z</time></trkpt><trkpt lat="44.75739471467415" lon="9.939039636861882"><ele>611.0</ele><time>2026-05-02T08:23:15.998Z</time></trkpt><trkpt lat="44.75732152670767" lon="9.939036678443859"><ele>611.0</ele><time>2026-05-02T08:23:18.998Z</time></trkpt><trkpt lat="44.75725164624927" lon="9.938996526830758"><ele>611.0</ele><time>2026-05-02T08:23:22Z</time></trkpt><trkpt lat="44.75718842429688" lon="9.938934904884931"><ele>611.0</ele><time>2026-05-02T08:23:25Z</time></trkpt><trkpt lat="44.75712365148561" lon="9.938862211138122"><ele>611.0</ele><time>2026-05-02T08:23:28Z</time></trkpt><trkpt lat="44.75707148147099" lon="9.93877107169662"><ele>611.0</ele><time>2026-05-02T08:23:31Z</time></trkpt><trkpt lat="44.75703946676354" lon="9.938668372608989"><ele>611.0</ele><time>2026-05-02T08:23:34Z</time></trkpt><trkpt lat="44.75701691588898" lon="9.938563693007461"><ele>611.0</ele><time>2026-05-02T08:23:37Z</time></trkpt><trkpt lat="44.75699649662093" lon="9.938456877822949"><ele>611.0</ele><time>2026-05-02T08:23:40Z</time></trkpt><trkpt lat="44.756975326061195" lon="9.938331020895982"><ele>611.0</ele><time>2026-05-02T08:23:44Z</time></trkpt><trkpt lat="44.75695873583751" lon="9.93824173849597"><ele>611.0</ele><time>2026-05-02T08:23:46.999Z</time></trkpt><trkpt lat="44.756944518579715" lon="9.938140985301963"><ele>611.0</ele><time>2026-05-02T08:23:49.999Z</time></trkpt><trkpt lat="44.75692761374072" lon="9.938036527580643"><ele>611.3333333333333</ele><time>2026-05-02T08:23:52.999Z</time></trkpt><trkpt lat="44.756912619851775" lon="9.937935317217807"><ele>611.6666666666666</ele><time>2026-05-02T08:23:55.999Z</time></trkpt><trkpt lat="44.756898471880284" lon="9.937828779405507"><ele>612.0</ele><time>2026-05-02T08:23:58.999Z</time></trkpt><trkpt lat="44.75688502045914" lon="9.937724991387558"><ele>612.3333333333334</ele><time>2026-05-02T08:24:01.999Z</time></trkpt><trkpt lat="44.75687165698777" lon="9.937625129547886"><ele>612.6666666666667</ele><time>2026-05-02T08:24:04.999Z</time></trkpt><trkpt lat="44.75684655186193" lon="9.937504403506402"><ele>613.0</ele><time>2026-05-02T08:24:07.999Z</time></trkpt><trkpt lat="44.75684177367192" lon="9.93740237489404"><ele>614.0</ele><time>2026-05-02T08:24:10.999Z</time></trkpt><trkpt lat="44.756831956082884" lon="9.937297807368646"><ele>615.0</ele><time>2026-05-02T08:24:13.999Z</time></trkpt><trkpt lat="44.75683199306667" lon="9.937198680129848"><ele>616.0</ele><time>2026-05-02T08:24:16.999Z</time></trkpt><trkpt lat="44.75683103569779" lon="9.937082024205004"><ele>617.0</ele><time>2026-05-02T08:24:20.999Z</time></trkpt><trkpt lat="44.75683296481625" lon="9.93696937836295"><ele>618.0</ele><time>2026-05-02T08:24:24.999Z</time></trkpt><trkpt lat="44.75678935110802" lon="9.93690543578324"><ele>619.0</ele><time>2026-05-02T08:24:34.999Z</time></trkpt><trkpt lat="44.75676101163516" lon="9.936985321888095"><ele>620.0</ele><time>2026-05-02T08:26:44.998Z</time></trkpt><trkpt lat="44.756756083262694" lon="9.937095538913251"><ele>620.0</ele><time>2026-05-02T08:26:47.998Z</time></trkpt><trkpt lat="44.756755084610404" lon="9.937186088899999"><ele>620.0</ele><time>2026-05-02T08:26:49.998Z</time></trkpt><trkpt lat="44.75675872007369" lon="9.937293964879615"><ele>620.0</ele><time>2026-05-02T08:26:51.998Z</time></trkpt><trkpt lat="44.75675959328286" lon="9.937418109531572"><ele>620.0</ele><time>2026-05-02T08:26:53.998Z</time></trkpt><trkpt lat="44.7567790546098" lon="9.937555239263338"><ele>620.0</ele><time>2026-05-02T08:26:55.998Z</time></trkpt><trkpt lat="44.756807976082236" lon="9.937696065478109"><ele>620.0</ele><time>2026-05-02T08:26:57.998Z</time></trkpt><trkpt lat="44.75682900089898" lon="9.937844982085025"><ele>619.0</ele><time>2026-05-02T08:26:59.998Z</time></trkpt><trkpt lat="44.75684586152808" lon="9.938018337074052"><ele>618.0</ele><time>2026-05-02T08:27:01.998Z</time></trkpt><trkpt lat="44.75685758033559" lon="9.93810852955772"><ele>617.0</ele><time>2026-05-02T08:27:02.998Z</time></trkpt><trkpt lat="44.75687182688826" lon="9.938202815270364"><ele>616.0</ele><time>2026-05-02T08:27:03.998Z</time></trkpt><trkpt lat="44.75690781605085" lon="9.938382770729696"><ele>615.0</ele><time>2026-05-02T08:27:05.998Z</time></trkpt><trkpt lat="44.75692414963491" lon="9.938480280970285"><ele>614.3333333333334</ele><time>2026-05-02T08:27:06.998Z</time></trkpt><trkpt lat="44.75694124429994" lon="9.938586743318426"><ele>613.6666666666666</ele><time>2026-05-02T08:27:07.998Z</time></trkpt><trkpt lat="44.75696457691695" lon="9.938684677704883"><ele>613.0</ele><time>2026-05-02T08:27:08.998Z</time></trkpt><trkpt lat="44.75700021007885" lon="9.938784926439554"><ele>612.3333333333333</ele><time>2026-05-02T08:27:09.998Z</time></trkpt><trkpt lat="44.75704074860018" lon="9.938882364158703"><ele>611.6666666666666</ele><time>2026-05-02T08:27:10.998Z</time></trkpt><trkpt lat="44.757098363905634" lon="9.938963670454827"><ele>611.0</ele><time>2026-05-02T08:27:11.998Z</time></trkpt><trkpt lat="44.757160897318556" lon="9.939027285598169"><ele>611.0</ele><time>2026-05-02T08:27:12.998Z</time></trkpt><trkpt lat="44.757230823705115" lon="9.939066130651522"><ele>611.0</ele><time>2026-05-02T08:27:13.998Z</time></trkpt><trkpt lat="44.75730524417843" lon="9.939087043615112"><ele>611.0</ele><time>2026-05-02T08:27:14.998Z</time></trkpt><trkpt lat="44.75738203448396" lon="9.939089510962312"><ele>611.0</ele><time>2026-05-02T08:27:15.998Z</time></trkpt><trkpt lat="44.75745960886701" lon="9.939063633094431"><ele>611.0</ele><time>2026-05-02T08:27:16.998Z</time></trkpt><trkpt lat="44.75753168701235" lon="9.939020108870306"><ele>611.0</ele><time>2026-05-02T08:27:17.998Z</time></trkpt><trkpt lat="44.75759541009427" lon="9.93893480511962"><ele>611.0</ele><time>2026-05-02T08:27:18.998Z</time></trkpt><trkpt lat="44.75763847092549" lon="9.938812612649683"><ele>611.0</ele><time>2026-05-02T08:27:19.998Z</time></trkpt><trkpt lat="44.75765771885859" lon="9.938692939413455"><ele>611.0</ele><time>2026-05-02T08:27:20.998Z</time></trkpt><trkpt lat="44.75763825225213" lon="9.938558761003916"><ele>611.0</ele><time>2026-05-02T08:27:21.998Z</time></trkpt><trkpt lat="44.75759894830161" lon="9.93844893365905"><ele>611.0</ele><time>2026-05-02T08:27:22.998Z</time></trkpt><trkpt lat="44.75752401705434" lon="9.938366957536038"><ele>611.3333333333333</ele><time>2026-05-02T08:27:23.998Z</time></trkpt><trkpt lat="44.757453034175434" lon="9.938299277024942"><ele>611.6666666666666</ele><time>2026-05-02T08:27:24.998Z</time></trkpt><trkpt lat="44.75738277554998" lon="9.938232748752197"><ele>612.0</ele><time>2026-05-02T08:27:25.998Z</time></trkpt><trkpt lat="44.757318412330676" lon="9.938166762928363"><ele>612.3333333333334</ele><time>2026-05-02T08:27:26.998Z</time></trkpt><trkpt lat="44.75726403621876" lon="9.938088177027725"><ele>612.6666666666667</ele><time>2026-05-02T08:27:27.998Z</time></trkpt><trkpt lat="44.75722285686687" lon="9.937997385401266"><ele>613.0</ele><time>2026-05-02T08:27:28.998Z</time></trkpt><trkpt lat="44.75719567382514" lon="9.93788662644228"><ele>613.0</ele><time>2026-05-02T08:27:29.998Z</time></trkpt><trkpt lat="44.75719381784079" lon="9.937770719382435"><ele>613.0</ele><time>2026-05-02T08:27:30.998Z</time></trkpt><trkpt lat="44.757205123692714" lon="9.937654566855473"><ele>613.0</ele><time>2026-05-02T08:27:31.998Z</time></trkpt><trkpt lat="44.75723426689266" lon="9.937538513841922"><ele>613.0</ele><time>2026-05-02T08:27:33Z</time></trkpt><trkpt lat="44.757271835434715" lon="9.937423991455546"><ele>613.0</ele><time>2026-05-02T08:27:34Z</time></trkpt><trkpt lat="44.75730749504917" lon="9.937308231375555"><ele>613.0</ele><time>2026-05-02T08:27:35Z</time></trkpt><trkpt lat="44.757335225085185" lon="9.937181645668625"><ele>612.8</ele><time>2026-05-02T08:27:36Z</time></trkpt><trkpt lat="44.75737569465718" lon="9.937062890600512"><ele>612.5999999999999</ele><time>2026-05-02T08:27:37Z</time></trkpt><trkpt lat="44.75741559511999" lon="9.93694267607735"><ele>612.4000000000001</ele><time>2026-05-02T08:27:38Z</time></trkpt><trkpt lat="44.757455678331695" lon="9.936819146786101"><ele>612.2</ele><time>2026-05-02T08:27:39Z</time></trkpt><trkpt lat="44.75749657135053" lon="9.936701370415145"><ele>612.0</ele><time>2026-05-02T08:27:40Z</time></trkpt><trkpt lat="44.75754486969644" lon="9.93658620082094"><ele>612.0</ele><time>2026-05-02T08:27:41Z</time></trkpt><trkpt lat="44.757593434145136" lon="9.936465454167088"><ele>612.0</ele><time>2026-05-02T08:27:42Z</time></trkpt><trkpt lat="44.757644478919914" lon="9.936345119615089"><ele>612.0</ele><time>2026-05-02T08:27:43Z</time></trkpt><trkpt lat="44.75770189845603" lon="9.936234437386862"><ele>612.0</ele><time>2026-05-02T08:27:44Z</time></trkpt><trkpt lat="44.75776606701731" lon="9.936130888455498"><ele>612.0</ele><time>2026-05-02T08:27:45Z</time></trkpt><trkpt lat="44.7578422544759" lon="9.936055253079365"><ele>608.0</ele><time>2026-05-02T08:27:46Z</time></trkpt><trkpt lat="44.75792559552007" lon="9.936012403885938"><ele>604.0</ele><time>2026-05-02T08:27:47Z</time></trkpt><trkpt lat="44.758017090268446" lon="9.936003836587336"><ele>600.0</ele><time>2026-05-02T08:27:48Z</time></trkpt><trkpt lat="44.75810662697162" lon="9.936023715003724"><ele>596.0</ele><time>2026-05-02T08:27:49Z</time></trkpt><trkpt lat="44.75819525752203" lon="9.936054350772201"><ele>592.0</ele><time>2026-05-02T08:27:50Z</time></trkpt><trkpt lat="44.758268413282" lon="9.9360954025837"><ele>588.0</ele><time>2026-05-02T08:27:51Z</time></trkpt><trkpt lat="44.75832268111449" lon="9.936166019250766"><ele>588.0</ele><time>2026-05-02T08:27:52Z</time></trkpt><trkpt lat="44.75835134727783" lon="9.936249154497563"><ele>588.0</ele><time>2026-05-02T08:27:52.999Z</time></trkpt><trkpt lat="44.758330031749516" lon="9.936350478533432"><ele>588.0</ele><time>2026-05-02T08:27:53.999Z</time></trkpt><trkpt lat="44.75826477332795" lon="9.936429393531439"><ele>588.0</ele><time>2026-05-02T08:27:54.999Z</time></trkpt><trkpt lat="44.758183519491084" lon="9.936469143575682"><ele>588.0</ele><time>2026-05-02T08:27:55.999Z</time></trkpt><trkpt lat="44.75811214425518" lon="9.93652127966184"><ele>588.0</ele><time>2026-05-02T08:27:56.999Z</time></trkpt><trkpt lat="44.75805248784636" lon="9.936605737220338"><ele>588.0</ele><time>2026-05-02T08:27:57.999Z</time></trkpt><trkpt lat="44.757999848753286" lon="9.93670977573249"><ele>588.0</ele><time>2026-05-02T08:27:58.999Z</time></trkpt><trkpt lat="44.757952288878165" lon="9.93681976458551"><ele>588.0</ele><time>2026-05-02T08:27:59.999Z</time></trkpt><trkpt lat="44.75791663182879" lon="9.936941117370088"><ele>588.0</ele><time>2026-05-02T08:28:00.999Z</time></trkpt><trkpt lat="44.757887183181666" lon="9.937068562705877"><ele>588.0</ele><time>2026-05-02T08:28:01.999Z</time></trkpt><trkpt lat="44.75786871659244" lon="9.937204235219337"><ele>587.4</ele><time>2026-05-02T08:28:02.999Z</time></trkpt><trkpt lat="44.757856239870804" lon="9.937344811803852"><ele>586.8</ele><time>2026-05-02T08:28:03.999Z</time></trkpt><trkpt lat="44.75786363252274" lon="9.937491196826814"><ele>586.2</ele><time>2026-05-02T08:28:04.999Z</time></trkpt><trkpt lat="44.757888357889435" lon="9.93763496620365"><ele>585.6</ele><time>2026-05-02T08:28:05.999Z</time></trkpt><trkpt lat="44.75791915035649" lon="9.937765319033614"><ele>585.0</ele><time>2026-05-02T08:28:06.999Z</time></trkpt><trkpt lat="44.75797353261479" lon="9.937879853080398"><ele>585.0</ele><time>2026-05-02T08:28:07.999Z</time></trkpt><trkpt lat="44.75804422679171" lon="9.937982498254195"><ele>585.0</ele><time>2026-05-02T08:28:08.999Z</time></trkpt><trkpt lat="44.75811545831334" lon="9.938080295647604"><ele>585.0</ele><time>2026-05-02T08:28:09.999Z</time></trkpt><trkpt lat="44.75817177463959" lon="9.938187958917126"><ele>585.0</ele><time>2026-05-02T08:28:10.999Z</time></trkpt><trkpt lat="44.7581981775054" lon="9.938325171459622"><ele>585.0</ele><time>2026-05-02T08:28:11.999Z</time></trkpt><trkpt lat="44.75821403470746" lon="9.938466226579495"><ele>586.4</ele><time>2026-05-02T08:28:12.999Z</time></trkpt><trkpt lat="44.75822898381483" lon="9.938605965392917"><ele>587.8</ele><time>2026-05-02T08:28:13.999Z</time></trkpt><trkpt lat="44.75826566138799" lon="9.938729936755289"><ele>589.2</ele><time>2026-05-02T08:28:14.999Z</time></trkpt><trkpt lat="44.75832997104944" lon="9.938831464924897"><ele>590.6</ele><time>2026-05-02T08:28:15.999Z</time></trkpt><trkpt lat="44.75841983731527" lon="9.938894398655286"><ele>592.0</ele><time>2026-05-02T08:28:16.999Z</time></trkpt><trkpt lat="44.75852084850146" lon="9.938917809556347"><ele>587.4</ele><time>2026-05-02T08:28:17.999Z</time></trkpt><trkpt lat="44.75862094350874" lon="9.938926277106928"><ele>582.8000000000001</ele><time>2026-05-02T08:28:18.999Z</time></trkpt><trkpt lat="44.758724045005344" lon="9.938921965550536"><ele>578.2</ele><time>2026-05-02T08:28:19.999Z</time></trkpt><trkpt lat="44.75881983423241" lon="9.938929548691755"><ele>573.6</ele><time>2026-05-02T08:28:20.999Z</time></trkpt><trkpt lat="44.75891422510418" lon="9.93898052037573"><ele>569.0</ele><time>2026-05-02T08:28:21.999Z</time></trkpt><trkpt lat="44.758992983466904" lon="9.939078553784313"><ele>569.0</ele><time>2026-05-02T08:28:22.999Z</time></trkpt><trkpt lat="44.7590535963944" lon="9.939204432448422"><ele>569.0</ele><time>2026-05-02T08:28:23.999Z</time></trkpt><trkpt lat="44.7590970401809" lon="9.939342958026186"><ele>569.0</ele><time>2026-05-02T08:28:24.999Z</time></trkpt><trkpt lat="44.75913128332893" lon="9.939492520082673"><ele>569.0</ele><time>2026-05-02T08:28:25.999Z</time></trkpt><trkpt lat="44.7591450328017" lon="9.939651144380658"><ele>569.0</ele><time>2026-05-02T08:28:26.999Z</time></trkpt><trkpt lat="44.759132593172986" lon="9.939805633099317"><ele>569.2</ele><time>2026-05-02T08:28:27.999Z</time></trkpt><trkpt lat="44.75908049579796" lon="9.93994811270339"><ele>569.4</ele><time>2026-05-02T08:28:28.999Z</time></trkpt><trkpt lat="44.75900814308114" lon="9.940072859776867"><ele>569.6</ele><time>2026-05-02T08:28:29.999Z</time></trkpt><trkpt lat="44.75894564578202" lon="9.940202208578446"><ele>569.8</ele><time>2026-05-02T08:28:30.999Z</time></trkpt><trkpt lat="44.75892747793909" lon="9.940349202246896"><ele>570.0</ele><time>2026-05-02T08:28:31.999Z</time></trkpt><trkpt lat="44.75894085022805" lon="9.940504899468756"><ele>568.75</ele><time>2026-05-02T08:28:32.999Z</time></trkpt><trkpt lat="44.75897793389224" lon="9.940648195371898"><ele>567.5</ele><time>2026-05-02T08:28:33.999Z</time></trkpt><trkpt lat="44.75900248695757" lon="9.940807061985748"><ele>566.25</ele><time>2026-05-02T08:28:34.999Z</time></trkpt><trkpt lat="44.75899366551073" lon="9.94096826489074"><ele>565.0</ele><time>2026-05-02T08:28:35.999Z</time></trkpt><trkpt lat="44.75896762252439" lon="9.941127627778622"><ele>562.75</ele><time>2026-05-02T08:28:36.999Z</time></trkpt><trkpt lat="44.758945299390035" lon="9.941285351497958"><ele>560.5</ele><time>2026-05-02T08:28:37.999Z</time></trkpt><trkpt lat="44.758919629255054" lon="9.941445290635539"><ele>558.25</ele><time>2026-05-02T08:28:38.999Z</time></trkpt><trkpt lat="44.7588853546482" lon="9.94160715913669"><ele>556.0</ele><time>2026-05-02T08:28:39.999Z</time></trkpt><trkpt lat="44.75884877019488" lon="9.941767722170145"><ele>554.0</ele><time>2026-05-02T08:28:40.999Z</time></trkpt><trkpt lat="44.75882321299844" lon="9.94193579042493"><ele>552.0</ele><time>2026-05-02T08:28:41.999Z</time></trkpt><trkpt lat="44.75880571712082" lon="9.942107988768399"><ele>550.0</ele><time>2026-05-02T08:28:42.999Z</time></trkpt><trkpt lat="44.75880461213632" lon="9.942287100098932"><ele>548.0</ele><time>2026-05-02T08:28:43.999Z</time></trkpt><trkpt lat="44.758812386782985" lon="9.942465868495193"><ele>547.4</ele><time>2026-05-02T08:28:44.999Z</time></trkpt><trkpt lat="44.75883282170131" lon="9.94264421519478"><ele>546.8</ele><time>2026-05-02T08:28:45.998Z</time></trkpt><trkpt lat="44.75886509723546" lon="9.942807422636383"><ele>546.2</ele><time>2026-05-02T08:28:46.998Z</time></trkpt><trkpt lat="44.75889120761366" lon="9.942944423708735"><ele>545.6</ele><time>2026-05-02T08:28:47.998Z</time></trkpt><trkpt lat="44.758914317982196" lon="9.943058472498045"><ele>545.0</ele><time>2026-05-02T08:28:48.998Z</time></trkpt><trkpt lat="44.75895873599193" lon="9.943133857004248"><ele>545.0</ele><time>2026-05-02T08:28:49.998Z</time></trkpt><trkpt lat="44.75902936807727" lon="9.94313217374513"><ele>545.0</ele><time>2026-05-02T08:28:50.998Z</time></trkpt><trkpt lat="44.759090399530905" lon="9.943062188542811"><ele>545.0</ele><time>2026-05-02T08:28:51.998Z</time></trkpt><trkpt lat="44.759133516099816" lon="9.942962652277197"><ele>545.0</ele><time>2026-05-02T08:28:52.998Z</time></trkpt><trkpt lat="44.75912428715803" lon="9.942824111063238"><ele>545.0</ele><time>2026-05-02T08:28:53.998Z</time></trkpt><trkpt lat="44.759116348158386" lon="9.942710649238936"><ele>545.0</ele><time>2026-05-02T08:28:54.998Z</time></trkpt><trkpt lat="44.75911244616636" lon="9.942593216411732"><ele>545.6</ele><time>2026-05-02T08:28:55.998Z</time></trkpt><trkpt lat="44.75911481641135" lon="9.942471852641043"><ele>546.2</ele><time>2026-05-02T08:28:56.998Z</time></trkpt><trkpt lat="44.759127252828584" lon="9.942347656482204"><ele>546.8</ele><time>2026-05-02T08:28:57.998Z</time></trkpt><trkpt lat="44.75915412940139" lon="9.94222073775299"><ele>547.4</ele><time>2026-05-02T08:28:58.998Z</time></trkpt><trkpt lat="44.75919834207276" lon="9.942106313186414"><ele>548.0</ele><time>2026-05-02T08:28:59.998Z</time></trkpt><trkpt lat="44.75925196089723" lon="9.941992266867732"><ele>548.0</ele><time>2026-05-02T08:29:00.998Z</time></trkpt><trkpt lat="44.7593104096552" lon="9.94187377044055"><ele>548.0</ele><time>2026-05-02T08:29:01.998Z</time></trkpt><trkpt lat="44.75936964369385" lon="9.941753681969379"><ele>548.0</ele><time>2026-05-02T08:29:02.998Z</time></trkpt><trkpt lat="44.75942936895156" lon="9.941632597677135"><ele>548.0</ele><time>2026-05-02T08:29:03.998Z</time></trkpt><trkpt lat="44.7594897718105" lon="9.941510139566436"><ele>548.0</ele><time>2026-05-02T08:29:04.998Z</time></trkpt><trkpt lat="44.75955194765539" lon="9.941384087032272"><ele>546.4</ele><time>2026-05-02T08:29:05.998Z</time></trkpt><trkpt lat="44.7596006413231" lon="9.94124637562562"><ele>544.8</ele><time>2026-05-02T08:29:06.998Z</time></trkpt><trkpt lat="44.75966985769397" lon="9.941128283196946"><ele>543.2</ele><time>2026-05-02T08:29:07.998Z</time></trkpt><trkpt lat="44.75973638321786" lon="9.94101487393869"><ele>541.6</ele><time>2026-05-02T08:29:08.998Z</time></trkpt><trkpt lat="44.7598049558208" lon="9.94090638074954"><ele>540.0</ele><time>2026-05-02T08:29:09.998Z</time></trkpt><trkpt lat="44.75987636139457" lon="9.940797287323935"><ele>540.0</ele><time>2026-05-02T08:29:10.998Z</time></trkpt><trkpt lat="44.75994477919863" lon="9.9406889230915"><ele>540.0</ele><time>2026-05-02T08:29:11.998Z</time></trkpt><trkpt lat="44.76001286015492" lon="9.940586381338921"><ele>540.0</ele><time>2026-05-02T08:29:12.998Z</time></trkpt><trkpt lat="44.760078712892664" lon="9.940485644824824"><ele>540.0</ele><time>2026-05-02T08:29:13.998Z</time></trkpt><trkpt lat="44.76015037700713" lon="9.940400129700917"><ele>540.0</ele><time>2026-05-02T08:29:14.998Z</time></trkpt><trkpt lat="44.760239174096746" lon="9.940341216609138"><ele>537.2</ele><time>2026-05-02T08:29:15.998Z</time></trkpt><trkpt lat="44.76033236268868" lon="9.9403018977032"><ele>534.4</ele><time>2026-05-02T08:29:16.998Z</time></trkpt><trkpt lat="44.760425046977964" lon="9.940269332966272"><ele>531.6</ele><time>2026-05-02T08:29:17.998Z</time></trkpt><trkpt lat="44.76052096029468" lon="9.940235605005466"><ele>528.8</ele><time>2026-05-02T08:29:18.998Z</time></trkpt><trkpt lat="44.76060964000265" lon="9.940196602683612"><ele>526.0</ele><time>2026-05-02T08:29:19.998Z</time></trkpt><trkpt lat="44.760695833633996" lon="9.940156726388254"><ele>526.0</ele><time>2026-05-02T08:29:20.998Z</time></trkpt><trkpt lat="44.760779156933786" lon="9.94011947165121"><ele>526.0</ele><time>2026-05-02T08:29:21.998Z</time></trkpt><trkpt lat="44.76085279373102" lon="9.94009245742356"><ele>526.0</ele><time>2026-05-02T08:29:22.998Z</time></trkpt><trkpt lat="44.760961724342046" lon="9.940151547501575"><ele>526.0</ele><time>2026-05-02T08:29:24.998Z</time></trkpt><trkpt lat="44.76097451138834" lon="9.940251314818902"><ele>526.0</ele><time>2026-05-02T08:29:25.998Z</time></trkpt><trkpt lat="44.76093757901634" lon="9.940355611814594"><ele>526.0</ele><time>2026-05-02T08:29:26.998Z</time></trkpt><trkpt lat="44.760872445161674" lon="9.940431415475707"><ele>526.0</ele><time>2026-05-02T08:29:27.998Z</time></trkpt><trkpt lat="44.76081537880742" lon="9.9405165992027"><ele>526.0</ele><time>2026-05-02T08:29:28.998Z</time></trkpt><trkpt lat="44.76075541696935" lon="9.940600988424581"><ele>526.0</ele><time>2026-05-02T08:29:29.998Z</time></trkpt><trkpt lat="44.76069905088204" lon="9.940688914524445"><ele>526.0</ele><time>2026-05-02T08:29:30.998Z</time></trkpt><trkpt lat="44.76064134877837" lon="9.94078026732615"><ele>526.0</ele><time>2026-05-02T08:29:31.998Z</time></trkpt><trkpt lat="44.7605799884616" lon="9.940875842723589"><ele>526.0</ele><time>2026-05-02T08:29:32.998Z</time></trkpt><trkpt lat="44.76052435269368" lon="9.940977155860823"><ele>523.8</ele><time>2026-05-02T08:29:33.998Z</time></trkpt><trkpt lat="44.760475842913884" lon="9.941087383854113"><ele>521.6</ele><time>2026-05-02T08:29:34.998Z</time></trkpt><trkpt lat="44.76043678685274" lon="9.941208435532657"><ele>519.4</ele><time>2026-05-02T08:29:35.998Z</time></trkpt><trkpt lat="44.7604037134861" lon="9.941339079100748"><ele>517.2</ele><time>2026-05-02T08:29:36.998Z</time></trkpt><trkpt lat="44.76037462913149" lon="9.941473359404007"><ele>515.0</ele><time>2026-05-02T08:29:38Z</time></trkpt><trkpt lat="44.76034946358598" lon="9.941608551229036"><ele>514.6</ele><time>2026-05-02T08:29:39Z</time></trkpt><trkpt lat="44.760321175314324" lon="9.941745253880617"><ele>514.2</ele><time>2026-05-02T08:29:40Z</time></trkpt><trkpt lat="44.76029580117" lon="9.941882341660037"><ele>513.8</ele><time>2026-05-02T08:29:41Z</time></trkpt><trkpt lat="44.76027372488799" lon="9.94202529530892"><ele>513.4</ele><time>2026-05-02T08:29:42Z</time></trkpt><trkpt lat="44.76024676748031" lon="9.942168891975497"><ele>513.0</ele><time>2026-05-02T08:29:43Z</time></trkpt><trkpt lat="44.7602258981967" lon="9.942312844261595"><ele>513.0</ele><time>2026-05-02T08:29:44Z</time></trkpt><trkpt lat="44.76021306015903" lon="9.94245640637704"><ele>513.0</ele><time>2026-05-02T08:29:45Z</time></trkpt><trkpt lat="44.76022154148289" lon="9.942600227069033"><ele>513.0</ele><time>2026-05-02T08:29:46Z</time></trkpt><trkpt lat="44.760261342119904" lon="9.942734707155534"><ele>513.0</ele><time>2026-05-02T08:29:47Z</time></trkpt><trkpt lat="44.76032342781158" lon="9.9428527307304"><ele>513.0</ele><time>2026-05-02T08:29:48Z</time></trkpt><trkpt lat="44.76039240675515" lon="9.942963303192329"><ele>513.4</ele><time>2026-05-02T08:29:49Z</time></trkpt><trkpt lat="44.76045232435444" lon="9.943081551369717"><ele>513.8</ele><time>2026-05-02T08:29:50Z</time></trkpt><trkpt lat="44.76050203514097" lon="9.943210730131574"><ele>514.2</ele><time>2026-05-02T08:29:51Z</time></trkpt><trkpt lat="44.76053724388254" lon="9.943350854124267"><ele>514.6</ele><time>2026-05-02T08:29:52Z</time></trkpt><trkpt lat="44.76056520873504" lon="9.943485520864922"><ele>515.0</ele><time>2026-05-02T08:29:53Z</time></trkpt><trkpt lat="44.76058953525943" lon="9.94360194693479"><ele>514.1666666666666</ele><time>2026-05-02T08:29:54Z</time></trkpt><trkpt lat="44.76060966451409" lon="9.943701419526793"><ele>513.3333333333333</ele><time>2026-05-02T08:29:55Z</time></trkpt><trkpt lat="44.760631533583" lon="9.94379967471696"><ele>512.5</ele><time>2026-05-02T08:29:56Z</time></trkpt><trkpt lat="44.76065943553258" lon="9.94389710559755"><ele>511.66666666666663</ele><time>2026-05-02T08:29:56.999Z</time></trkpt><trkpt lat="44.76069247509935" lon="9.94398176411689"><ele>510.8333333333333</ele><time>2026-05-02T08:29:57.999Z</time></trkpt><trkpt lat="44.76073336891054" lon="9.94405093753291"><ele>510.0</ele><time>2026-05-02T08:29:58.999Z</time></trkpt><trkpt lat="44.760835309936496" lon="9.944105926537667"><ele>510.0</ele><time>2026-05-02T08:30:00.999Z</time></trkpt><trkpt lat="44.76094802195426" lon="9.944034710452833"><ele>510.0</ele><time>2026-05-02T08:30:02.999Z</time></trkpt><trkpt lat="44.76098814409909" lon="9.94393902954786"><ele>510.0</ele><time>2026-05-02T08:30:03.999Z</time></trkpt><trkpt lat="44.7610112640406" lon="9.943854172131099"><ele>510.0</ele><time>2026-05-02T08:30:04.999Z</time></trkpt><trkpt lat="44.76103086546066" lon="9.943758465105228"><ele>510.0</ele><time>2026-05-02T08:30:05.999Z</time></trkpt><trkpt lat="44.7610489856537" lon="9.943657769530724"><ele>510.0</ele><time>2026-05-02T08:30:06.999Z</time></trkpt><trkpt lat="44.761061512461126" lon="9.943551269110744"><ele>510.8333333333333</ele><time>2026-05-02T08:30:07.999Z</time></trkpt><trkpt lat="44.761069212555604" lon="9.943443028177342"><ele>511.66666666666663</ele><time>2026-05-02T08:30:08.999Z</time></trkpt><trkpt lat="44.76106412728635" lon="9.943323140915487"><ele>512.5</ele><time>2026-05-02T08:30:09.999Z</time></trkpt><trkpt lat="44.761040343808936" lon="9.943201861314881"><ele>513.3333333333333</ele><time>2026-05-02T08:30:10.999Z</time></trkpt><trkpt lat="44.76100836450827" lon="9.943090397868259"><ele>514.1666666666666</ele><time>2026-05-02T08:30:11.999Z</time></trkpt><trkpt lat="44.760978447193" lon="9.942979445246369"><ele>515.0</ele><time>2026-05-02T08:30:12.999Z</time></trkpt><trkpt lat="44.76096175323868" lon="9.942864757794094"><ele>515.0</ele><time>2026-05-02T08:30:13.999Z</time></trkpt><trkpt lat="44.760963754537116" lon="9.94274657014464"><ele>515.0</ele><time>2026-05-02T08:30:14.999Z</time></trkpt><trkpt lat="44.76098546465842" lon="9.94263176180473"><ele>515.0</ele><time>2026-05-02T08:30:15.999Z</time></trkpt><trkpt lat="44.76103144950037" lon="9.942512667805945"><ele>515.0</ele><time>2026-05-02T08:30:16.999Z</time></trkpt><trkpt lat="44.76108795465726" lon="9.942396344452659"><ele>515.0</ele><time>2026-05-02T08:30:17.999Z</time></trkpt><trkpt lat="44.76114606799758" lon="9.942281881556747"><ele>511.0</ele><time>2026-05-02T08:30:18.999Z</time></trkpt><trkpt lat="44.761206021991576" lon="9.94216379651289"><ele>507.0</ele><time>2026-05-02T08:30:19.999Z</time></trkpt><trkpt lat="44.76126905010938" lon="9.942047560851261"><ele>503.0</ele><time>2026-05-02T08:30:20.999Z</time></trkpt><trkpt lat="44.76133595455119" lon="9.941935195078159"><ele>499.0</ele><time>2026-05-02T08:30:21.999Z</time></trkpt><trkpt lat="44.761416213272874" lon="9.941837531946575"><ele>495.0</ele><time>2026-05-02T08:30:22.999Z</time></trkpt><trkpt lat="44.76150203129091" lon="9.94174045544661"><ele>494.0</ele><time>2026-05-02T08:30:23.999Z</time></trkpt><trkpt lat="44.761609488051384" lon="9.94168887387314"><ele>493.0</ele><time>2026-05-02T08:30:24.999Z</time></trkpt><trkpt lat="44.761722920093426" lon="9.94165941798104"><ele>492.0</ele><time>2026-05-02T08:30:25.999Z</time></trkpt><trkpt lat="44.761836339557455" lon="9.941667303034182"><ele>491.0</ele><time>2026-05-02T08:30:26.999Z</time></trkpt><trkpt lat="44.761947829735284" lon="9.941689961478358"><ele>491.0</ele><time>2026-05-02T08:30:27.999Z</time></trkpt><trkpt lat="44.76205562920535" lon="9.941686777818475"><ele>491.0</ele><time>2026-05-02T08:30:28.999Z</time></trkpt><trkpt lat="44.762156990864234" lon="9.941628129832544"><ele>491.0</ele><time>2026-05-02T08:30:29.999Z</time></trkpt><trkpt lat="44.76225947397977" lon="9.941561360142199"><ele>491.0</ele><time>2026-05-02T08:30:30.999Z</time></trkpt><trkpt lat="44.76234004249396" lon="9.941435741215074"><ele>491.0</ele><time>2026-05-02T08:30:31.999Z</time></trkpt><trkpt lat="44.76241153628716" lon="9.941311907896694"><ele>491.0</ele><time>2026-05-02T08:30:32.999Z</time></trkpt><trkpt lat="44.76247774803199" lon="9.941196129561872"><ele>491.0</ele><time>2026-05-02T08:30:33.999Z</time></trkpt><trkpt lat="44.762544888700276" lon="9.94110181714425"><ele>491.0</ele><time>2026-05-02T08:30:34.999Z</time></trkpt><trkpt lat="44.762621346958134" lon="9.94102715783037"><ele>491.0</ele><time>2026-05-02T08:30:35.999Z</time></trkpt><trkpt lat="44.76272607887025" lon="9.941040479536035"><ele>488.4</ele><time>2026-05-02T08:30:36.999Z</time></trkpt><trkpt lat="44.762823535761484" lon="9.94109599078671"><ele>485.8</ele><time>2026-05-02T08:30:37.999Z</time></trkpt><trkpt lat="44.7629135556154" lon="9.941163896315059"><ele>483.19999999999993</ele><time>2026-05-02T08:30:38.999Z</time></trkpt><trkpt lat="44.76301123683832" lon="9.941200474594016"><ele>480.59999999999997</ele><time>2026-05-02T08:30:39.999Z</time></trkpt><trkpt lat="44.76311506832074" lon="9.941209517432991"><ele>478.0</ele><time>2026-05-02T08:30:40.999Z</time></trkpt><trkpt lat="44.76321988269536" lon="9.941168891898199"><ele>478.0</ele><time>2026-05-02T08:30:41.999Z</time></trkpt><trkpt lat="44.76331838197171" lon="9.941102239016185"><ele>477.99999999999994</ele><time>2026-05-02T08:30:42.999Z</time></trkpt><trkpt lat="44.763416516722714" lon="9.941037133411294"><ele>477.99999999999994</ele><time>2026-05-02T08:30:43.999Z</time></trkpt><trkpt lat="44.76351575827699" lon="9.940968870643706"><ele>478.0</ele><time>2026-05-02T08:30:44.999Z</time></trkpt><trkpt lat="44.76360531270046" lon="9.94088951486043"><ele>478.0</ele><time>2026-05-02T08:30:45.999Z</time></trkpt><trkpt lat="44.76369528961187" lon="9.940808267535866"><ele>476.83333333333337</ele><time>2026-05-02T08:30:46.999Z</time></trkpt><trkpt lat="44.76375725439934" lon="9.940696404037881"><ele>475.6666666666667</ele><time>2026-05-02T08:30:47.999Z</time></trkpt><trkpt lat="44.76380107165285" lon="9.940592267412201"><ele>474.5</ele><time>2026-05-02T08:30:48.999Z</time></trkpt><trkpt lat="44.76383582387155" lon="9.94051218119958"><ele>473.33333333333337</ele><time>2026-05-02T08:30:49.998Z</time></trkpt><trkpt lat="44.76391234437181" lon="9.940476339481005"><ele>472.1666666666667</ele><time>2026-05-02T08:30:51.998Z</time></trkpt><trkpt lat="44.76394091204316" lon="9.940565743352536"><ele>471.0</ele><time>2026-05-02T08:30:52.998Z</time></trkpt><trkpt lat="44.76392213121502" lon="9.940670183236568"><ele>471.0</ele><time>2026-05-02T08:30:53.998Z</time></trkpt><trkpt lat="44.76388878181253" lon="9.940764174448388"><ele>471.0</ele><time>2026-05-02T08:30:54.998Z</time></trkpt><trkpt lat="44.76385229566223" lon="9.94085243481869"><ele>471.0</ele><time>2026-05-02T08:30:55.998Z</time></trkpt><trkpt lat="44.7638119510346" lon="9.940949286371339"><ele>471.0</ele><time>2026-05-02T08:30:56.998Z</time></trkpt><trkpt lat="44.763763120404086" lon="9.941044556064918"><ele>471.0</ele><time>2026-05-02T08:30:57.998Z</time></trkpt><trkpt lat="44.76370449035467" lon="9.941139833559669"><ele>471.0</ele><time>2026-05-02T08:30:58.998Z</time></trkpt><trkpt lat="44.76364808924047" lon="9.941243231977863"><ele>470.0</ele><time>2026-05-02T08:30:59.998Z</time></trkpt><trkpt lat="44.76358836494577" lon="9.941352055645478"><ele>469.0</ele><time>2026-05-02T08:31:00.998Z</time></trkpt><trkpt lat="44.76352511876874" lon="9.94146252293011"><ele>468.0</ele><time>2026-05-02T08:31:01.998Z</time></trkpt><trkpt lat="44.763463052523036" lon="9.941580204457834"><ele>467.0</ele><time>2026-05-02T08:31:02.998Z</time></trkpt><trkpt lat="44.76340299535157" lon="9.94170620141449"><ele>466.0</ele><time>2026-05-02T08:31:03.998Z</time></trkpt><trkpt lat="44.76334105886937" lon="9.941836306061232"><ele>466.0</ele><time>2026-05-02T08:31:04.998Z</time></trkpt><trkpt lat="44.76327444528445" lon="9.941968831192897"><ele>466.0</ele><time>2026-05-02T08:31:05.998Z</time></trkpt><trkpt lat="44.76320811329611" lon="9.942100071590737"><ele>466.0</ele><time>2026-05-02T08:31:06.998Z</time></trkpt><trkpt lat="44.7631503293523" lon="9.942231701398011"><ele>466.0</ele><time>2026-05-02T08:31:07.998Z</time></trkpt><trkpt lat="44.763104132271714" lon="9.942357375797158"><ele>466.0</ele><time>2026-05-02T08:31:08.998Z</time></trkpt><trkpt lat="44.763059386405374" lon="9.942474440959773"><ele>465.6</ele><time>2026-05-02T08:31:09.998Z</time></trkpt><trkpt lat="44.76304303166744" lon="9.942592113276381"><ele>465.20000000000005</ele><time>2026-05-02T08:31:10.998Z</time></trkpt><trkpt lat="44.76306913667609" lon="9.942705087886727"><ele>464.79999999999995</ele><time>2026-05-02T08:31:11.998Z</time></trkpt><trkpt lat="44.763143147917944" lon="9.942779939411244"><ele>464.4</ele><time>2026-05-02T08:31:12.998Z</time></trkpt><trkpt lat="44.76323943361084" lon="9.942796136597709"><ele>464.0</ele><time>2026-05-02T08:31:13.998Z</time></trkpt><trkpt lat="44.76333439562218" lon="9.942773463849392"><ele>464.0</ele><time>2026-05-02T08:31:14.998Z</time></trkpt><trkpt lat="44.76343039334331" lon="9.94273347927684"><ele>464.0</ele><time>2026-05-02T08:31:15.998Z</time></trkpt><trkpt lat="44.763527041297856" lon="9.942688256778725"><ele>464.0</ele><time>2026-05-02T08:31:16.998Z</time></trkpt><trkpt lat="44.76362726874703" lon="9.942632019608325"><ele>464.0</ele><time>2026-05-02T08:31:17.998Z</time></trkpt><trkpt lat="44.76372609027032" lon="9.942559981874043"><ele>464.0</ele><time>2026-05-02T08:31:18.998Z</time></trkpt><trkpt lat="44.76382985715893" lon="9.942485421520287"><ele>461.75</ele><time>2026-05-02T08:31:19.998Z</time></trkpt><trkpt lat="44.7639227963253" lon="9.942380737474608"><ele>459.5</ele><time>2026-05-02T08:31:20.998Z</time></trkpt><trkpt lat="44.764016963599104" lon="9.942278543501091"><ele>457.25</ele><time>2026-05-02T08:31:21.998Z</time></trkpt><trkpt lat="44.7641089777889" lon="9.942166683915161"><ele>455.0</ele><time>2026-05-02T08:31:22.998Z</time></trkpt><trkpt lat="44.76421975051728" lon="9.942080014697568"><ele>455.0</ele><time>2026-05-02T08:31:23.998Z</time></trkpt><trkpt lat="44.76433513572007" lon="9.941994377328587"><ele>455.0</ele><time>2026-05-02T08:31:24.998Z</time></trkpt><trkpt lat="44.7644504646568" lon="9.941901683720834"><ele>455.0</ele><time>2026-05-02T08:31:25.998Z</time></trkpt><trkpt lat="44.76456977305826" lon="9.941808963956003"><ele>455.0</ele><time>2026-05-02T08:31:26.998Z</time></trkpt><trkpt lat="44.76469036869495" lon="9.941718837502988"><ele>452.25</ele><time>2026-05-02T08:31:27.998Z</time></trkpt><trkpt lat="44.76481349456312" lon="9.9416310254544"><ele>449.5</ele><time>2026-05-02T08:31:28.998Z</time></trkpt><trkpt lat="44.76493372961862" lon="9.94153608877045"><ele>446.75</ele><time>2026-05-02T08:31:29.998Z</time></trkpt><trkpt lat="44.765056256374045" lon="9.941443347169084"><ele>444.0</ele><time>2026-05-02T08:31:30.998Z</time></trkpt><trkpt lat="44.76518376393378" lon="9.941362398892508"><ele>441.0</ele><time>2026-05-02T08:31:31.998Z</time></trkpt><trkpt lat="44.76530204166579" lon="9.941256944451714"><ele>438.0</ele><time>2026-05-02T08:31:32.998Z</time></trkpt><trkpt lat="44.76542654433486" lon="9.941162436386602"><ele>435.0</ele><time>2026-05-02T08:31:33.998Z</time></trkpt><trkpt lat="44.7655502642842" lon="9.941073245020668"><ele>432.0</ele><time>2026-05-02T08:31:34.998Z</time></trkpt><trkpt lat="44.765674229553056" lon="9.940992213139134"><ele>432.0</ele><time>2026-05-02T08:31:35.998Z</time></trkpt><trkpt lat="44.76580175380406" lon="9.940927594047038"><ele>432.0</ele><time>2026-05-02T08:31:36.998Z</time></trkpt><trkpt lat="44.765934434829866" lon="9.94088107047944"><ele>432.0</ele><time>2026-05-02T08:31:37.998Z</time></trkpt><trkpt lat="44.76606353797871" lon="9.940823699466605"><ele>432.0</ele><time>2026-05-02T08:31:38.998Z</time></trkpt><trkpt lat="44.76619261347633" lon="9.940762275303628"><ele>432.0</ele><time>2026-05-02T08:31:39.998Z</time></trkpt><trkpt lat="44.766320761637004" lon="9.940704525990036"><ele>432.0</ele><time>2026-05-02T08:31:40.998Z</time></trkpt><trkpt lat="44.76644938710861" lon="9.940645730775481"><ele>432.0</ele><time>2026-05-02T08:31:41.997Z</time></trkpt><trkpt lat="44.76658227378053" lon="9.940591352828255"><ele>432.0</ele><time>2026-05-02T08:31:43Z</time></trkpt><trkpt lat="44.766716595792836" lon="9.94054892056454"><ele>432.0</ele><time>2026-05-02T08:31:44Z</time></trkpt><trkpt lat="44.76685319932652" lon="9.940512545609767"><ele>432.0</ele><time>2026-05-02T08:31:45Z</time></trkpt><trkpt lat="44.76699135449807" lon="9.940481992645044"><ele>432.0</ele><time>2026-05-02T08:31:46Z</time></trkpt><trkpt lat="44.76712670977262" lon="9.940455065447212"><ele>432.0</ele><time>2026-05-02T08:31:47Z</time></trkpt><trkpt lat="44.767263256526256" lon="9.940427608615677"><ele>431.25</ele><time>2026-05-02T08:31:48Z</time></trkpt><trkpt lat="44.767399966992215" lon="9.940396377176086"><ele>430.5</ele><time>2026-05-02T08:31:49Z</time></trkpt><trkpt lat="44.767534383712" lon="9.94036261893614"><ele>429.75</ele><time>2026-05-02T08:31:50Z</time></trkpt><trkpt lat="44.7676656176886" lon="9.9403377013888"><ele>429.0</ele><time>2026-05-02T08:31:51Z</time></trkpt><trkpt lat="44.76779785926189" lon="9.940333143784699"><ele>428.0</ele><time>2026-05-02T08:31:52Z</time></trkpt><trkpt lat="44.767928273200006" lon="9.940363835067643"><ele>427.0</ele><time>2026-05-02T08:31:53Z</time></trkpt><trkpt lat="44.76805522047361" lon="9.940420561883581"><ele>426.0</ele><time>2026-05-02T08:31:54Z</time></trkpt><trkpt lat="44.768172885097925" lon="9.940490443525482"><ele>425.0</ele><time>2026-05-02T08:31:55Z</time></trkpt><trkpt lat="44.76827797994988" lon="9.9405728684064"><ele>425.0</ele><time>2026-05-02T08:31:56Z</time></trkpt><trkpt lat="44.76836913369636" lon="9.940684361168335"><ele>425.0</ele><time>2026-05-02T08:31:57Z</time></trkpt><trkpt lat="44.76844731293276" lon="9.940824723586257"><ele>425.0</ele><time>2026-05-02T08:31:58Z</time></trkpt><trkpt lat="44.76850383638389" lon="9.940981096300602"><ele>425.0</ele><time>2026-05-02T08:31:59Z</time></trkpt><trkpt lat="44.768527522289055" lon="9.94115975881733"><ele>422.5</ele><time>2026-05-02T08:31:59.999Z</time></trkpt><trkpt lat="44.76856824721871" lon="9.941327353704441"><ele>420.0</ele><time>2026-05-02T08:32:00.999Z</time></trkpt><trkpt lat="44.76863948886072" lon="9.941461389928616"><ele>417.5</ele><time>2026-05-02T08:32:01.999Z</time></trkpt><trkpt lat="44.768736656588445" lon="9.941562684625755"><ele>415.0</ele><time>2026-05-02T08:32:02.999Z</time></trkpt><trkpt lat="44.768847350882304" lon="9.941636247908933"><ele>415.0</ele><time>2026-05-02T08:32:03.999Z</time></trkpt><trkpt lat="44.76895128325575" lon="9.941698022395256"><ele>415.0</ele><time>2026-05-02T08:32:04.999Z</time></trkpt><trkpt lat="44.76905591612246" lon="9.941743704650277"><ele>415.0</ele><time>2026-05-02T08:32:05.999Z</time></trkpt><trkpt lat="44.7691631354263" lon="9.941775469828054"><ele>415.0</ele><time>2026-05-02T08:32:06.999Z</time></trkpt><trkpt lat="44.76927113548165" lon="9.94179277860478"><ele>415.0</ele><time>2026-05-02T08:32:07.999Z</time></trkpt><trkpt lat="44.769380727429855" lon="9.941790123159658"><ele>414.25</ele><time>2026-05-02T08:32:08.999Z</time></trkpt><trkpt lat="44.769491635632455" lon="9.941757996224943"><ele>413.5</ele><time>2026-05-02T08:32:09.999Z</time></trkpt><trkpt lat="44.76959655199948" lon="9.941696341070083"><ele>412.75</ele><time>2026-05-02T08:32:10.999Z</time></trkpt><trkpt lat="44.76970406322985" lon="9.941635299513088"><ele>412.0</ele><time>2026-05-02T08:32:11.999Z</time></trkpt><trkpt lat="44.76980225804211" lon="9.941539717167105"><ele>412.0</ele><time>2026-05-02T08:32:12.999Z</time></trkpt><trkpt lat="44.76989101381147" lon="9.941418144821299"><ele>412.0</ele><time>2026-05-02T08:32:13.999Z</time></trkpt><trkpt lat="44.76996404452508" lon="9.941275014976213"><ele>412.0</ele><time>2026-05-02T08:32:14.999Z</time></trkpt><trkpt lat="44.77002648025517" lon="9.941119338941526"><ele>412.0</ele><time>2026-05-02T08:32:15.999Z</time></trkpt><trkpt lat="44.77007865086048" lon="9.940973009133948"><ele>411.0</ele><time>2026-05-02T08:32:16.999Z</time></trkpt><trkpt lat="44.77013060037751" lon="9.940828589581184"><ele>410.0</ele><time>2026-05-02T08:32:17.999Z</time></trkpt><trkpt lat="44.77018446057217" lon="9.940689515451425"><ele>409.0</ele><time>2026-05-02T08:32:18.999Z</time></trkpt><trkpt lat="44.77023831685838" lon="9.940571158403955"><ele>408.0</ele><time>2026-05-02T08:32:19.999Z</time></trkpt><trkpt lat="44.77030867131599" lon="9.94047731146845"><ele>407.0</ele><time>2026-05-02T08:32:20.999Z</time></trkpt><trkpt lat="44.7703974011834" lon="9.940417178684623"><ele>403.5</ele><time>2026-05-02T08:32:21.999Z</time></trkpt><trkpt lat="44.77049754782951" lon="9.940378926191686"><ele>400.0</ele><time>2026-05-02T08:32:22.999Z</time></trkpt><trkpt lat="44.77060732658158" lon="9.940337525525567"><ele>396.5</ele><time>2026-05-02T08:32:23.999Z</time></trkpt><trkpt lat="44.77071948335826" lon="9.940277266279676"><ele>393.0</ele><time>2026-05-02T08:32:24.999Z</time></trkpt><trkpt lat="44.770826291065234" lon="9.940196653850839"><ele>393.0</ele><time>2026-05-02T08:32:25.999Z</time></trkpt><trkpt lat="44.770928560615395" lon="9.940113012237303"><ele>393.0</ele><time>2026-05-02T08:32:26.999Z</time></trkpt><trkpt lat="44.77103043080945" lon="9.94003158425551"><ele>393.0</ele><time>2026-05-02T08:32:27.999Z</time></trkpt><trkpt lat="44.7711315214122" lon="9.939955327332932"><ele>393.0</ele><time>2026-05-02T08:32:28.999Z</time></trkpt><trkpt lat="44.7712260646061" lon="9.939865496389064"><ele>390.0</ele><time>2026-05-02T08:32:29.999Z</time></trkpt><trkpt lat="44.77132738350198" lon="9.939808438054943"><ele>387.0</ele><time>2026-05-02T08:32:30.999Z</time></trkpt><trkpt lat="44.77142649026056" lon="9.93975578950719"><ele>384.0</ele><time>2026-05-02T08:32:31.999Z</time></trkpt><trkpt lat="44.77151944853621" lon="9.939708507992872"><ele>381.0</ele><time>2026-05-02T08:32:32.999Z</time></trkpt><trkpt lat="44.77161388671021" lon="9.939664710873245"><ele>378.0</ele><time>2026-05-02T08:32:33.999Z</time></trkpt><trkpt lat="44.771695878063646" lon="9.93955904826074"><ele>378.0</ele><time>2026-05-02T08:32:34.999Z</time></trkpt><trkpt lat="44.77175489214256" lon="9.93942059446695"><ele>378.0</ele><time>2026-05-02T08:32:35.999Z</time></trkpt><trkpt lat="44.77178840230106" lon="9.93926336305489"><ele>378.0</ele><time>2026-05-02T08:32:36.999Z</time></trkpt><trkpt lat="44.77178911885409" lon="9.939098847454387"><ele>378.0</ele><time>2026-05-02T08:32:37.999Z</time></trkpt><trkpt lat="44.77176320062584" lon="9.938946082346643"><ele>380.59999999999997</ele><time>2026-05-02T08:32:38.999Z</time></trkpt><trkpt lat="44.7717149302318" lon="9.938812452303361"><ele>383.2</ele><time>2026-05-02T08:32:39.999Z</time></trkpt><trkpt lat="44.771649889305216" lon="9.938697384299648"><ele>385.8</ele><time>2026-05-02T08:32:40.999Z</time></trkpt><trkpt lat="44.77156213031551" lon="9.938604271379026"><ele>388.4</ele><time>2026-05-02T08:32:41.999Z</time></trkpt><trkpt lat="44.771467968203766" lon="9.938537717368732"><ele>391.0</ele><time>2026-05-02T08:32:42.999Z</time></trkpt><trkpt lat="44.77136397061663" lon="9.938547770524533"><ele>391.0</ele><time>2026-05-02T08:32:43.999Z</time></trkpt><trkpt lat="44.77126616269248" lon="9.938561968677178"><ele>391.0</ele><time>2026-05-02T08:32:44.999Z</time></trkpt><trkpt lat="44.77116754077581" lon="9.938598596776897"><ele>391.0</ele><time>2026-05-02T08:32:45.999Z</time></trkpt><trkpt lat="44.771067670403646" lon="9.938637580978549"><ele>391.0</ele><time>2026-05-02T08:32:46.999Z</time></trkpt><trkpt lat="44.77096513546961" lon="9.938672259347861"><ele>391.0</ele><time>2026-05-02T08:32:47.999Z</time></trkpt><trkpt lat="44.77086678756978" lon="9.938691249609645"><ele>390.8</ele><time>2026-05-02T08:32:48.999Z</time></trkpt><trkpt lat="44.77078164027871" lon="9.938651553003611"><ele>390.6</ele><time>2026-05-02T08:32:49.999Z</time></trkpt><trkpt lat="44.77070356708718" lon="9.938606783519477"><ele>390.4</ele><time>2026-05-02T08:32:50.999Z</time></trkpt><trkpt lat="44.770632844107055" lon="9.938528573317205"><ele>390.2</ele><time>2026-05-02T08:32:51.999Z</time></trkpt><trkpt lat="44.77054911360002" lon="9.938448702253414"><ele>390.0</ele><time>2026-05-02T08:32:52.998Z</time></trkpt><trkpt lat="44.77046162914705" lon="9.938366808351782"><ele>387.8</ele><time>2026-05-02T08:32:53.998Z</time></trkpt><trkpt lat="44.7703755109014" lon="9.938286193347027"><ele>385.6</ele><time>2026-05-02T08:32:54.998Z</time></trkpt><trkpt lat="44.7702866890153" lon="9.93820144772402"><ele>383.4</ele><time>2026-05-02T08:32:55.998Z</time></trkpt><trkpt lat="44.77020253176716" lon="9.938109394442876"><ele>381.2</ele><time>2026-05-02T08:32:56.998Z</time></trkpt><trkpt lat="44.77014727096672" lon="9.937999061022905"><ele>379.0</ele><time>2026-05-02T08:32:57.998Z</time></trkpt><trkpt lat="44.770104224518704" lon="9.937890052050342"><ele>379.0</ele><time>2026-05-02T08:32:58.998Z</time></trkpt><trkpt lat="44.77013162359402" lon="9.937761139429472"><ele>379.0</ele><time>2026-05-02T08:32:59.998Z</time></trkpt><trkpt lat="44.77018980608089" lon="9.937654626502717"><ele>379.0</ele><time>2026-05-02T08:33:00.998Z</time></trkpt><trkpt lat="44.77027255439957" lon="9.937594119800217"><ele>379.0</ele><time>2026-05-02T08:33:01.998Z</time></trkpt><trkpt lat="44.77036588875658" lon="9.937594059083658"><ele>379.0</ele><time>2026-05-02T08:33:02.998Z</time></trkpt><trkpt lat="44.77045224250821" lon="9.937641035314524"><ele>379.0</ele><time>2026-05-02T08:33:03.998Z</time></trkpt><trkpt lat="44.77052030379418" lon="9.937737260049898"><ele>379.0</ele><time>2026-05-02T08:33:04.998Z</time></trkpt><trkpt lat="44.77056160596636" lon="9.937855408543047"><ele>379.0</ele><time>2026-05-02T08:33:05.998Z</time></trkpt><trkpt lat="44.770606573468164" lon="9.937972491831495"><ele>379.0</ele><time>2026-05-02T08:33:06.998Z</time></trkpt><trkpt lat="44.77069687174314" lon="9.938042440836384"><ele>379.0</ele><time>2026-05-02T08:33:07.998Z</time></trkpt><trkpt lat="44.77080244644644" lon="9.938061122540148"><ele>379.0</ele><time>2026-05-02T08:33:08.998Z</time></trkpt><trkpt lat="44.77090746118567" lon="9.93803134342321"><ele>379.0</ele><time>2026-05-02T08:33:09.998Z</time></trkpt><trkpt lat="44.770993748823955" lon="9.937936696761485"><ele>379.0</ele><time>2026-05-02T08:33:10.998Z</time></trkpt><trkpt lat="44.77106468293169" lon="9.937839958441497"><ele>379.0</ele><time>2026-05-02T08:33:11.998Z</time></trkpt><trkpt lat="44.77113494832094" lon="9.93774726694003"><ele>379.0</ele><time>2026-05-02T08:33:12.998Z</time></trkpt><trkpt lat="44.771207572665" lon="9.93767119497535"><ele>378.8333333333333</ele><time>2026-05-02T08:33:13.998Z</time></trkpt><trkpt lat="44.771284905612546" lon="9.93760183490978"><ele>378.66666666666663</ele><time>2026-05-02T08:33:14.998Z</time></trkpt><trkpt lat="44.771385454058645" lon="9.937615850384052"><ele>378.5</ele><time>2026-05-02T08:33:15.998Z</time></trkpt><trkpt lat="44.77147862465999" lon="9.937654006421381"><ele>378.3333333333333</ele><time>2026-05-02T08:33:16.998Z</time></trkpt><trkpt lat="44.77155533501635" lon="9.937695563392323"><ele>378.1666666666667</ele><time>2026-05-02T08:33:17.998Z</time></trkpt><trkpt lat="44.77162400740269" lon="9.937702972441402"><ele>378.0</ele><time>2026-05-02T08:33:18.998Z</time></trkpt><trkpt lat="44.77172129157229" lon="9.937580823171958"><ele>375.0</ele><time>2026-05-02T08:33:20.998Z</time></trkpt><trkpt lat="44.77166733480502" lon="9.93745540075606"><ele>372.0</ele><time>2026-05-02T08:33:21.998Z</time></trkpt><trkpt lat="44.77157721516512" lon="9.937431159616319"><ele>369.0</ele><time>2026-05-02T08:33:22.998Z</time></trkpt><trkpt lat="44.77150669972572" lon="9.937408490905804"><ele>366.0</ele><time>2026-05-02T08:33:23.998Z</time></trkpt><trkpt lat="44.77143843559042" lon="9.937402367776562"><ele>363.0</ele><time>2026-05-02T08:33:24.998Z</time></trkpt><trkpt lat="44.771366452274805" lon="9.937388541428273"><ele>360.0</ele><time>2026-05-02T08:33:25.998Z</time></trkpt><trkpt lat="44.77129797856576" lon="9.937371112705808"><ele>360.0</ele><time>2026-05-02T08:33:26.998Z</time></trkpt><trkpt lat="44.77122471230309" lon="9.937346467104824"><ele>360.0</ele><time>2026-05-02T08:33:27.998Z</time></trkpt><trkpt lat="44.77115557610238" lon="9.937326989151805"><ele>360.0</ele><time>2026-05-02T08:33:28.998Z</time></trkpt><trkpt lat="44.771108711314554" lon="9.937195418563455"><ele>360.0</ele><time>2026-05-02T08:33:30.998Z</time></trkpt><trkpt lat="44.77120223963822" lon="9.937111917141774"><ele>360.0</ele><time>2026-05-02T08:33:32.998Z</time></trkpt><trkpt lat="44.77127552096395" lon="9.937111997121098"><ele>360.0</ele><time>2026-05-02T08:33:33.998Z</time></trkpt><trkpt lat="44.77135732800449" lon="9.937139480606453"><ele>360.0</ele><time>2026-05-02T08:33:34.998Z</time></trkpt><trkpt lat="44.77143696150771" lon="9.937166633400654"><ele>360.0</ele><time>2026-05-02T08:33:35.998Z</time></trkpt><trkpt lat="44.77152225616157" lon="9.93719672587636"><ele>360.0</ele><time>2026-05-02T08:33:36.998Z</time></trkpt><trkpt lat="44.771612493779045" lon="9.93722290469636"><ele>360.0</ele><time>2026-05-02T08:33:37.998Z</time></trkpt><trkpt lat="44.77170722390671" lon="9.937250785359737"><ele>360.0</ele><time>2026-05-02T08:33:38.998Z</time></trkpt><trkpt lat="44.77180404203679" lon="9.93728413295729"><ele>358.2</ele><time>2026-05-02T08:33:39.998Z</time></trkpt><trkpt lat="44.77190477526132" lon="9.937314048554121"><ele>356.4</ele><time>2026-05-02T08:33:40.998Z</time></trkpt><trkpt lat="44.77200836226847" lon="9.937345244881936"><ele>354.6</ele><time>2026-05-02T08:33:41.998Z</time></trkpt><trkpt lat="44.77211207501604" lon="9.937383033545217"><ele>352.8</ele><time>2026-05-02T08:33:42.998Z</time></trkpt><trkpt lat="44.77221418844546" lon="9.937428547120371"><ele>351.0</ele><time>2026-05-02T08:33:43.998Z</time></trkpt><trkpt lat="44.77231362040151" lon="9.937475985807314"><ele>351.0</ele><time>2026-05-02T08:33:44.998Z</time></trkpt><trkpt lat="44.77241143294185" lon="9.93752491081455"><ele>351.0</ele><time>2026-05-02T08:33:45.997Z</time></trkpt><trkpt lat="44.77250845110541" lon="9.937573633678825"><ele>351.0</ele><time>2026-05-02T08:33:46.997Z</time></trkpt><trkpt lat="44.77259586811576" lon="9.937624040619026"><ele>351.0</ele><time>2026-05-02T08:33:48Z</time></trkpt><trkpt lat="44.772677708798305" lon="9.937668658192182"><ele>351.0</ele><time>2026-05-02T08:33:49Z</time></trkpt><trkpt lat="44.77274747448284" lon="9.937693956786593"><ele>351.0</ele><time>2026-05-02T08:33:50Z</time></trkpt><trkpt lat="44.77285190764461" lon="9.937629537919758"><ele>351.0</ele><time>2026-05-02T08:33:52Z</time></trkpt><trkpt lat="44.77285155592365" lon="9.937425230756332"><ele>351.0</ele><time>2026-05-02T08:33:54Z</time></trkpt><trkpt lat="44.772764445088555" lon="9.937344464864553"><ele>351.0</ele><time>2026-05-02T08:33:55Z</time></trkpt><trkpt lat="44.7727034261656" lon="9.937292736687557"><ele>351.0</ele><time>2026-05-02T08:33:56Z</time></trkpt><trkpt lat="44.77264191033747" lon="9.937239994178467"><ele>351.0</ele><time>2026-05-02T08:33:57Z</time></trkpt><trkpt lat="44.772582615074064" lon="9.937182916541257"><ele>351.0</ele><time>2026-05-02T08:33:58Z</time></trkpt><trkpt lat="44.772546824556926" lon="9.93707703016055"><ele>351.0</ele><time>2026-05-02T08:34:00Z</time></trkpt><trkpt lat="44.772601518387155" lon="9.936979180715314"><ele>351.0</ele><time>2026-05-02T08:34:02Z</time></trkpt><trkpt lat="44.77267363974799" lon="9.936996775246342"><ele>351.0</ele><time>2026-05-02T08:34:02.999Z</time></trkpt><trkpt lat="44.77273628003669" lon="9.937041305359894"><ele>351.0</ele><time>2026-05-02T08:34:03.999Z</time></trkpt><trkpt lat="44.77279896859775" lon="9.937090618946666"><ele>348.0</ele><time>2026-05-02T08:34:04.999Z</time></trkpt><trkpt lat="44.772860410299145" lon="9.937129352897271"><ele>345.0</ele><time>2026-05-02T08:34:05.999Z</time></trkpt><trkpt lat="44.772974907702135" lon="9.937195128339448"><ele>342.0</ele><time>2026-05-02T08:34:07.999Z</time></trkpt><trkpt lat="44.77306617447546" lon="9.937257906233157"><ele>339.0</ele><time>2026-05-02T08:34:09.999Z</time></trkpt><trkpt lat="44.7731365821832" lon="9.937300937559677"><ele>336.0</ele><time>2026-05-02T08:34:11.999Z</time></trkpt><trkpt lat="44.773186525264705" lon="9.937397066814047"><ele>336.0</ele><time>2026-05-02T08:35:05.998Z</time></trkpt><trkpt lat="44.77323614777232" lon="9.93745313114318"><ele>336.0</ele><time>2026-05-02T08:35:20.998Z</time></trkpt><trkpt lat="44.77320126592024" lon="9.937368344656603"><ele>336.0</ele><time>2026-05-02T08:51:20Z</time></trkpt><trkpt lat="44.77329025278428" lon="9.937341528920973"><ele>336.0</ele><time>2026-05-02T08:51:35.999Z</time></trkpt><trkpt lat="44.77335710221724" lon="9.937387294595503"><ele>336.0</ele><time>2026-05-02T08:51:38.999Z</time></trkpt><trkpt lat="44.773422112610945" lon="9.937419540968246"><ele>336.0</ele><time>2026-05-02T08:51:40.999Z</time></trkpt><trkpt lat="44.7734924359354" lon="9.937461632015083"><ele>336.0</ele><time>2026-05-02T08:51:42.999Z</time></trkpt><trkpt lat="44.77356334240523" lon="9.937508267381252"><ele>335.8333333333333</ele><time>2026-05-02T08:51:44.999Z</time></trkpt><trkpt lat="44.77363322506124" lon="9.937551933238327"><ele>335.6666666666667</ele><time>2026-05-02T08:51:46.999Z</time></trkpt><trkpt lat="44.773702230141204" lon="9.937602250150519"><ele>335.5</ele><time>2026-05-02T08:51:48.999Z</time></trkpt><trkpt lat="44.773753570542475" lon="9.937662142000262"><ele>335.33333333333337</ele><time>2026-05-02T08:51:50.999Z</time></trkpt><trkpt lat="44.7738132377002" lon="9.93761056253836"><ele>335.1666666666667</ele><time>2026-05-02T08:51:54.999Z</time></trkpt><trkpt lat="44.77374231207396" lon="9.937556786574842"><ele>335.0</ele><time>2026-05-02T08:51:57.999Z</time></trkpt><trkpt lat="44.77365899550813" lon="9.93749405544445"><ele>334.99999999999994</ele><time>2026-05-02T08:52:00.999Z</time></trkpt><trkpt lat="44.77359755893166" lon="9.937463989606082"><ele>335.0</ele><time>2026-05-02T08:52:02.999Z</time></trkpt><trkpt lat="44.77353129760564" lon="9.937424847243241"><ele>335.0</ele><time>2026-05-02T08:52:04.999Z</time></trkpt><trkpt lat="44.77345865827112" lon="9.93738576910788"><ele>335.0</ele><time>2026-05-02T08:52:06.999Z</time></trkpt><trkpt lat="44.77339051432571" lon="9.937344100140836"><ele>335.0</ele><time>2026-05-02T08:52:08.999Z</time></trkpt><trkpt lat="44.77332847116761" lon="9.937303646927582"><ele>334.99999999999994</ele><time>2026-05-02T08:52:10.999Z</time></trkpt><trkpt lat="44.77326899122612" lon="9.937265965728084"><ele>335.0</ele><time>2026-05-02T08:52:12.999Z</time></trkpt><trkpt lat="44.77318520093804" lon="9.937236493845512"><ele>335.1666666666667</ele><time>2026-05-02T08:52:15.999Z</time></trkpt><trkpt lat="44.77310344372083" lon="9.937183191911487"><ele>335.33333333333337</ele><time>2026-05-02T08:52:18.999Z</time></trkpt><trkpt lat="44.77302221841394" lon="9.937128977519691"><ele>335.5</ele><time>2026-05-02T08:52:21.999Z</time></trkpt><trkpt lat="44.772942280757924" lon="9.937078711381726"><ele>335.6666666666667</ele><time>2026-05-02T08:52:24.998Z</time></trkpt><trkpt lat="44.772864348207094" lon="9.937039619329367"><ele>335.8333333333333</ele><time>2026-05-02T08:52:27.998Z</time></trkpt><trkpt lat="44.77280173115342" lon="9.936996783727524"><ele>336.0</ele><time>2026-05-02T08:52:30.998Z</time></trkpt><trkpt lat="44.77272534840139" lon="9.93697008451055"><ele>336.0</ele><time>2026-05-02T08:52:35.998Z</time></trkpt><trkpt lat="44.7726443022648" lon="9.936957346146029"><ele>336.0</ele><time>2026-05-02T08:52:40Z</time></trkpt><trkpt lat="44.77258593802004" lon="9.936997012640752"><ele>336.0</ele><time>2026-05-02T08:52:43Z</time></trkpt><trkpt lat="44.77256589057528" lon="9.937089448427294"><ele>336.0</ele><time>2026-05-02T08:52:46Z</time></trkpt><trkpt lat="44.772601451901416" lon="9.937194412145272"><ele>336.0</ele><time>2026-05-02T08:52:50Z</time></trkpt><trkpt lat="44.77265245018171" lon="9.937286878013396"><ele>336.0</ele><time>2026-05-02T08:52:54Z</time></trkpt><trkpt lat="44.77270984614282" lon="9.937338794757126"><ele>336.0</ele><time>2026-05-02T08:52:57Z</time></trkpt><trkpt lat="44.772787433254855" lon="9.937406816779356"><ele>336.0</ele><time>2026-05-02T08:53:00Z</time></trkpt><trkpt lat="44.772834029831685" lon="9.937490301544088"><ele>336.0</ele><time>2026-05-02T08:53:03Z</time></trkpt><trkpt lat="44.772804162085684" lon="9.937578987451044"><ele>336.0</ele><time>2026-05-02T08:53:07Z</time></trkpt><trkpt lat="44.7727355457582" lon="9.937608717008455"><ele>336.0</ele><time>2026-05-02T08:53:11Z</time></trkpt><trkpt lat="44.77265921213677" lon="9.937573618641332"><ele>336.0</ele><time>2026-05-02T08:53:15Z</time></trkpt><trkpt lat="44.7725916038734" lon="9.937557721986089"><ele>336.0</ele><time>2026-05-02T08:53:19Z</time></trkpt><trkpt lat="44.77251876024852" lon="9.937524322586292"><ele>336.0</ele><time>2026-05-02T08:53:22Z</time></trkpt><trkpt lat="44.77245081936054" lon="9.937490374646273"><ele>338.14285714285717</ele><time>2026-05-02T08:53:25Z</time></trkpt><trkpt lat="44.77238904666657" lon="9.937464353992612"><ele>340.2857142857143</ele><time>2026-05-02T08:53:28Z</time></trkpt><trkpt lat="44.77230741447309" lon="9.937422453628605"><ele>342.42857142857144</ele><time>2026-05-02T08:53:32Z</time></trkpt><trkpt lat="44.77224275114821" lon="9.937397136335228"><ele>344.57142857142856</ele><time>2026-05-02T08:53:34.999Z</time></trkpt><trkpt lat="44.772179826798265" lon="9.937376835129095"><ele>346.7142857142857</ele><time>2026-05-02T08:53:37.999Z</time></trkpt><trkpt lat="44.77211985383722" lon="9.937347312996957"><ele>348.8571428571429</ele><time>2026-05-02T08:53:40.999Z</time></trkpt><trkpt lat="44.77205802507311" lon="9.937330086221555"><ele>351.0</ele><time>2026-05-02T08:53:43.999Z</time></trkpt><trkpt lat="44.771997194438114" lon="9.937302379886612"><ele>351.00000000000006</ele><time>2026-05-02T08:53:46.999Z</time></trkpt><trkpt lat="44.77192301215496" lon="9.937268567193186"><ele>351.0</ele><time>2026-05-02T08:53:50.999Z</time></trkpt><trkpt lat="44.77185301132185" lon="9.937244830375596"><ele>351.0</ele><time>2026-05-02T08:53:53.999Z</time></trkpt><trkpt lat="44.7717803785532" lon="9.93722490922399"><ele>351.0</ele><time>2026-05-02T08:53:57.999Z</time></trkpt><trkpt lat="44.7717173042949" lon="9.937210965937934"><ele>351.0</ele><time>2026-05-02T08:54:00.999Z</time></trkpt><trkpt lat="44.771650462437385" lon="9.937191209161513"><ele>351.00000000000006</ele><time>2026-05-02T08:54:03.999Z</time></trkpt><trkpt lat="44.771577483010326" lon="9.937168873294462"><ele>351.0</ele><time>2026-05-02T08:54:07.999Z</time></trkpt><trkpt lat="44.77151008555878" lon="9.937145935051971"><ele>352.5</ele><time>2026-05-02T08:54:10.999Z</time></trkpt><trkpt lat="44.771433250130315" lon="9.937129029234471"><ele>354.0</ele><time>2026-05-02T08:54:13.999Z</time></trkpt><trkpt lat="44.77135554543465" lon="9.937103891390997"><ele>355.5</ele><time>2026-05-02T08:54:17.999Z</time></trkpt><trkpt lat="44.771286336352446" lon="9.937089047872028"><ele>357.0</ele><time>2026-05-02T08:54:20.999Z</time></trkpt><trkpt lat="44.77120606382233" lon="9.937091400515705"><ele>358.5</ele><time>2026-05-02T08:54:23.999Z</time></trkpt><trkpt lat="44.77113770993381" lon="9.937132958640452"><ele>360.0</ele><time>2026-05-02T08:54:27.998Z</time></trkpt><trkpt lat="44.771102038452284" lon="9.937223573658724"><ele>360.0</ele><time>2026-05-02T08:54:30.998Z</time></trkpt><trkpt lat="44.771128496939355" lon="9.93732844233142"><ele>360.0</ele><time>2026-05-02T08:54:33.998Z</time></trkpt><trkpt lat="44.77119613724293" lon="9.93738246671385"><ele>360.0</ele><time>2026-05-02T08:54:37.998Z</time></trkpt><trkpt lat="44.77126298066772" lon="9.937408240698277"><ele>360.0</ele><time>2026-05-02T08:54:40.998Z</time></trkpt><trkpt lat="44.77133495680965" lon="9.937423732610869"><ele>360.0</ele><time>2026-05-02T08:54:43.998Z</time></trkpt><trkpt lat="44.77141267023792" lon="9.937446459509966"><ele>360.0</ele><time>2026-05-02T08:54:47Z</time></trkpt><trkpt lat="44.77147830800594" lon="9.937473451587174"><ele>360.0</ele><time>2026-05-02T08:54:50Z</time></trkpt><trkpt lat="44.77155127564422" lon="9.937503233153382"><ele>360.0</ele><time>2026-05-02T08:54:53Z</time></trkpt><trkpt lat="44.771609284402615" lon="9.937538763842431"><ele>360.0</ele><time>2026-05-02T08:54:55Z</time></trkpt><trkpt lat="44.77163393798868" lon="9.937631394666537"><ele>360.0</ele><time>2026-05-02T08:54:58Z</time></trkpt><trkpt lat="44.77156857558988" lon="9.93765348143371"><ele>360.0</ele><time>2026-05-02T08:55:02Z</time></trkpt><trkpt lat="44.771506843960466" lon="9.937623680974843"><ele>360.0</ele><time>2026-05-02T08:55:05Z</time></trkpt><trkpt lat="44.771433667532186" lon="9.937593478601606"><ele>360.0</ele><time>2026-05-02T08:55:08Z</time></trkpt><trkpt lat="44.77136500175622" lon="9.937586198754497"><ele>360.0</ele><time>2026-05-02T08:55:12Z</time></trkpt><trkpt lat="44.77129087523878" lon="9.937595252166894"><ele>363.0</ele><time>2026-05-02T08:55:15Z</time></trkpt><trkpt lat="44.7712198251395" lon="9.93762987335774"><ele>366.0</ele><time>2026-05-02T08:55:18Z</time></trkpt><trkpt lat="44.77114729189239" lon="9.937698491446117"><ele>369.0</ele><time>2026-05-02T08:55:21Z</time></trkpt><trkpt lat="44.771095155341605" lon="9.93775953107207"><ele>372.0</ele><time>2026-05-02T08:55:24Z</time></trkpt><trkpt lat="44.77104009000787" lon="9.937830084883673"><ele>375.0</ele><time>2026-05-02T08:55:27Z</time></trkpt><trkpt lat="44.77098628684482" lon="9.937894593689531"><ele>378.0</ele><time>2026-05-02T08:55:30Z</time></trkpt><trkpt lat="44.77092787369057" lon="9.937960593877117"><ele>378.14285714285717</ele><time>2026-05-02T08:55:33Z</time></trkpt><trkpt lat="44.770869951233585" lon="9.93800111354594"><ele>378.2857142857143</ele><time>2026-05-02T08:55:35Z</time></trkpt><trkpt lat="44.770792621584775" lon="9.938013153798334"><ele>378.42857142857144</ele><time>2026-05-02T08:55:38Z</time></trkpt><trkpt lat="44.77072467515946" lon="9.937992002178266"><ele>378.57142857142856</ele><time>2026-05-02T08:55:40Z</time></trkpt><trkpt lat="44.77067123366886" lon="9.937927864909607"><ele>378.7142857142857</ele><time>2026-05-02T08:55:42.999Z</time></trkpt><trkpt lat="44.77062754758758" lon="9.937839416992022"><ele>378.8571428571429</ele><time>2026-05-02T08:55:46.999Z</time></trkpt><trkpt lat="44.770580971497985" lon="9.937735961447151"><ele>379.0</ele><time>2026-05-02T08:55:50.999Z</time></trkpt><trkpt lat="44.77052994385162" lon="9.937682858269458"><ele>379.00000000000006</ele><time>2026-05-02T08:55:53.999Z</time></trkpt><trkpt lat="44.770464879410575" lon="9.937647603084839"><ele>379.0</ele><time>2026-05-02T08:55:55.999Z</time></trkpt><trkpt lat="44.77039822799936" lon="9.937636472790015"><ele>379.0</ele><time>2026-05-02T08:55:57.999Z</time></trkpt><trkpt lat="44.77033401073779" lon="9.937633309433348"><ele>379.0</ele><time>2026-05-02T08:55:59.999Z</time></trkpt><trkpt lat="44.77026571306209" lon="9.937656174107042"><ele>379.0</ele><time>2026-05-02T08:56:01.999Z</time></trkpt><trkpt lat="44.77020672271152" lon="9.937708033337628"><ele>379.00000000000006</ele><time>2026-05-02T08:56:03.999Z</time></trkpt><trkpt lat="44.770150432734894" lon="9.93778741490522"><ele>379.0</ele><time>2026-05-02T08:56:05.999Z</time></trkpt><trkpt lat="44.77012288411357" lon="9.93795229483797"><ele>379.0</ele><time>2026-05-02T08:56:09.999Z</time></trkpt><trkpt lat="44.77013096488485" lon="9.93804144156009"><ele>379.0</ele><time>2026-05-02T08:56:11.999Z</time></trkpt><trkpt lat="44.7701625940463" lon="9.938125863282064"><ele>379.0</ele><time>2026-05-02T08:56:13.999Z</time></trkpt><trkpt lat="44.77022009218693" lon="9.938221204954539"><ele>379.0</ele><time>2026-05-02T08:56:16.999Z</time></trkpt><trkpt lat="44.77028973805477" lon="9.93829423286524"><ele>379.0</ele><time>2026-05-02T08:56:19.999Z</time></trkpt><trkpt lat="44.770353291476276" lon="9.93835693302146"><ele>379.0</ele><time>2026-05-02T08:56:22.999Z</time></trkpt><trkpt lat="44.77041602767208" lon="9.93841631034899"><ele>380.8333333333333</ele><time>2026-05-02T08:56:25.999Z</time></trkpt><trkpt lat="44.7704706285915" lon="9.93847365380915"><ele>382.66666666666663</ele><time>2026-05-02T08:56:28.999Z</time></trkpt><trkpt lat="44.77053474580855" lon="9.938535555608787"><ele>384.5</ele><time>2026-05-02T08:56:31.999Z</time></trkpt><trkpt lat="44.77058886553377" lon="9.93858637320026"><ele>386.3333333333333</ele><time>2026-05-02T08:56:34.999Z</time></trkpt><trkpt lat="44.77065631360066" lon="9.938644463597877"><ele>388.1666666666667</ele><time>2026-05-02T08:56:38.998Z</time></trkpt><trkpt lat="44.770737889853834" lon="9.938695919724445"><ele>390.0</ele><time>2026-05-02T08:56:42.998Z</time></trkpt><trkpt lat="44.77080836504208" lon="9.938712699380098"><ele>390.0</ele><time>2026-05-02T08:56:45.998Z</time></trkpt><trkpt lat="44.770876885911704" lon="9.938724454158011"><ele>390.0</ele><time>2026-05-02T08:56:48.998Z</time></trkpt><trkpt lat="44.770953863828865" lon="9.938720004175917"><ele>390.0</ele><time>2026-05-02T08:56:52Z</time></trkpt><trkpt lat="44.77102721659561" lon="9.938701919088986"><ele>390.0</ele><time>2026-05-02T08:56:55Z</time></trkpt><trkpt lat="44.77109990041483" lon="9.938670968758336"><ele>390.0</ele><time>2026-05-02T08:56:58Z</time></trkpt><trkpt lat="44.7711789176602" lon="9.938642536885043"><ele>390.0</ele><time>2026-05-02T08:57:01Z</time></trkpt><trkpt lat="44.77124761162625" lon="9.938622653373505"><ele>390.0</ele><time>2026-05-02T08:57:04Z</time></trkpt><trkpt lat="44.7713102015905" lon="9.938606302405713"><ele>390.1428571428571</ele><time>2026-05-02T08:57:07Z</time></trkpt><trkpt lat="44.77137855213083" lon="9.938612055372948"><ele>390.2857142857143</ele><time>2026-05-02T08:57:10Z</time></trkpt><trkpt lat="44.771453283586915" lon="9.938640858817074"><ele>390.42857142857144</ele><time>2026-05-02T08:57:13Z</time></trkpt><trkpt lat="44.77152526967777" lon="9.938694221112698"><ele>390.57142857142856</ele><time>2026-05-02T08:57:16Z</time></trkpt><trkpt lat="44.7715786150155" lon="9.93876139598304"><ele>390.7142857142857</ele><time>2026-05-02T08:57:19Z</time></trkpt><trkpt lat="44.77162884356213" lon="9.938849350962318"><ele>390.85714285714283</ele><time>2026-05-02T08:57:22Z</time></trkpt><trkpt lat="44.77166847393625" lon="9.938918954720856"><ele>391.0</ele><time>2026-05-02T08:57:25Z</time></trkpt><trkpt lat="44.77169477804059" lon="9.93900331093952"><ele>390.99999999999994</ele><time>2026-05-02T08:57:28Z</time></trkpt><trkpt lat="44.77172265768282" lon="9.939084351529427"><ele>391.0</ele><time>2026-05-02T08:57:31Z</time></trkpt><trkpt lat="44.771731687953135" lon="9.939181714054815"><ele>391.0</ele><time>2026-05-02T08:57:34Z</time></trkpt><trkpt lat="44.771726113773596" lon="9.93928089312456"><ele>391.0</ele><time>2026-05-02T08:57:37Z</time></trkpt><trkpt lat="44.77170249371378" lon="9.939376622302357"><ele>391.0</ele><time>2026-05-02T08:57:40Z</time></trkpt><trkpt lat="44.771672390608884" lon="9.93947085247151"><ele>390.99999999999994</ele><time>2026-05-02T08:57:43Z</time></trkpt><trkpt lat="44.771621041481545" lon="9.939557669800664"><ele>391.0</ele><time>2026-05-02T08:57:46.999Z</time></trkpt><trkpt lat="44.7715666904606" lon="9.939615367915621"><ele>389.1428571428571</ele><time>2026-05-02T08:57:49.999Z</time></trkpt><trkpt lat="44.771500352759794" lon="9.939660561352484"><ele>387.2857142857143</ele><time>2026-05-02T08:57:52.999Z</time></trkpt><trkpt lat="44.77142804779285" lon="9.939704004134759"><ele>385.42857142857144</ele><time>2026-05-02T08:57:56.999Z</time></trkpt><trkpt lat="44.77136561042123" lon="9.939736200039462"><ele>383.57142857142856</ele><time>2026-05-02T08:57:59.999Z</time></trkpt><trkpt lat="44.77130704718597" lon="9.939775586101488"><ele>381.7142857142857</ele><time>2026-05-02T08:58:02.999Z</time></trkpt><trkpt lat="44.771246659476255" lon="9.939824112148278"><ele>379.85714285714283</ele><time>2026-05-02T08:58:05.999Z</time></trkpt><trkpt lat="44.77118297679674" lon="9.939853828736878"><ele>378.0</ele><time>2026-05-02T08:58:08.999Z</time></trkpt><trkpt lat="44.77109338721334" lon="9.939915806164139"><ele>378.0</ele><time>2026-05-02T08:58:11.999Z</time></trkpt><trkpt lat="44.771026951093916" lon="9.939962172701923"><ele>378.0</ele><time>2026-05-02T08:58:14.999Z</time></trkpt><trkpt lat="44.77096667829725" lon="9.940027354764805"><ele>378.0</ele><time>2026-05-02T08:58:17.999Z</time></trkpt><trkpt lat="44.77089522136146" lon="9.940081602336035"><ele>378.0</ele><time>2026-05-02T08:58:20.999Z</time></trkpt><trkpt lat="44.770828497883485" lon="9.940134705417444"><ele>378.0</ele><time>2026-05-02T08:58:23.999Z</time></trkpt><trkpt lat="44.77076843227472" lon="9.940190239122343"><ele>378.0</ele><time>2026-05-02T08:58:26.999Z</time></trkpt><trkpt lat="44.770700138894114" lon="9.94023264540277"><ele>380.14285714285717</ele><time>2026-05-02T08:58:29.999Z</time></trkpt><trkpt lat="44.77063575017454" lon="9.940273849198396"><ele>382.2857142857143</ele><time>2026-05-02T08:58:32.999Z</time></trkpt><trkpt lat="44.77056989187739" lon="9.940303841415393"><ele>384.42857142857144</ele><time>2026-05-02T08:58:35.999Z</time></trkpt><trkpt lat="44.77050248280511" lon="9.940334397009153"><ele>386.57142857142856</ele><time>2026-05-02T08:58:38.998Z</time></trkpt><trkpt lat="44.77043396833374" lon="9.940370037400417"><ele>388.7142857142857</ele><time>2026-05-02T08:58:42.998Z</time></trkpt><trkpt lat="44.77035600601355" lon="9.94041696351234"><ele>390.8571428571429</ele><time>2026-05-02T08:58:45.998Z</time></trkpt><trkpt lat="44.77029637537755" lon="9.94047261474153"><ele>393.0</ele><time>2026-05-02T08:58:48.998Z</time></trkpt><trkpt lat="44.77023931435152" lon="9.940553480559306"><ele>393.0</ele><time>2026-05-02T08:58:52.998Z</time></trkpt><trkpt lat="44.77019670634334" lon="9.940622405228739"><ele>393.0</ele><time>2026-05-02T08:58:55.998Z</time></trkpt><trkpt lat="44.770144725352644" lon="9.940718334413512"><ele>393.0</ele><time>2026-05-02T08:58:59Z</time></trkpt><trkpt lat="44.77009777178618" lon="9.940813012772255"><ele>393.0</ele><time>2026-05-02T08:59:02Z</time></trkpt><trkpt lat="44.770065523372885" lon="9.940893443825885"><ele>393.0</ele><time>2026-05-02T08:59:05Z</time></trkpt><trkpt lat="44.77002946723482" lon="9.940974447265454"><ele>393.0</ele><time>2026-05-02T08:59:07Z</time></trkpt><trkpt lat="44.76998755971742" lon="9.941079535234339"><ele>395.7142857142857</ele><time>2026-05-02T08:59:11Z</time></trkpt><trkpt lat="44.769958472211" lon="9.941158688943387"><ele>398.42857142857144</ele><time>2026-05-02T08:59:14Z</time></trkpt><trkpt lat="44.76992059303616" lon="9.941236556814367"><ele>401.1428571428571</ele><time>2026-05-02T08:59:17Z</time></trkpt><trkpt lat="44.769874845221366" lon="9.941321456514508"><ele>403.8571428571429</ele><time>2026-05-02T08:59:20Z</time></trkpt><trkpt lat="44.76982010239785" lon="9.941414714384129"><ele>406.57142857142856</ele><time>2026-05-02T08:59:23Z</time></trkpt><trkpt lat="44.769770707109025" lon="9.941487449182285"><ele>409.2857142857143</ele><time>2026-05-02T08:59:26Z</time></trkpt><trkpt lat="44.769714218634306" lon="9.941551061849852"><ele>412.0</ele><time>2026-05-02T08:59:29Z</time></trkpt><trkpt lat="44.76965841604204" lon="9.941606278001254"><ele>412.00000000000006</ele><time>2026-05-02T08:59:32Z</time></trkpt><trkpt lat="44.769596020046876" lon="9.941653643381922"><ele>412.0</ele><time>2026-05-02T08:59:35Z</time></trkpt><trkpt lat="44.76952200222214" lon="9.941689251342385"><ele>412.0</ele><time>2026-05-02T08:59:38Z</time></trkpt><trkpt lat="44.76944890751636" lon="9.941718047219442"><ele>412.0</ele><time>2026-05-02T08:59:41Z</time></trkpt><trkpt lat="44.76937490201639" lon="9.941730140712796"><ele>412.00000000000006</ele><time>2026-05-02T08:59:44Z</time></trkpt><trkpt lat="44.76930248117032" lon="9.9417316199307"><ele>412.0</ele><time>2026-05-02T08:59:47Z</time></trkpt><trkpt lat="44.76921907806108" lon="9.941722138872622"><ele>412.4285714285714</ele><time>2026-05-02T08:59:49.999Z</time></trkpt><trkpt lat="44.76915042182929" lon="9.941705088069819"><ele>412.85714285714283</ele><time>2026-05-02T08:59:52.999Z</time></trkpt><trkpt lat="44.76908507707346" lon="9.94168860785343"><ele>413.2857142857143</ele><time>2026-05-02T08:59:55.999Z</time></trkpt><trkpt lat="44.76901795835491" lon="9.94166250606236"><ele>413.71428571428567</ele><time>2026-05-02T08:59:58.999Z</time></trkpt><trkpt lat="44.76895133553775" lon="9.941631966624172"><ele>414.14285714285717</ele><time>2026-05-02T09:00:01.999Z</time></trkpt><trkpt lat="44.76888554907267" lon="9.941596948611199"><ele>414.57142857142856</ele><time>2026-05-02T09:00:04.999Z</time></trkpt><trkpt lat="44.768823741286774" lon="9.941553998259904"><ele>415.0</ele><time>2026-05-02T09:00:07.999Z</time></trkpt><trkpt lat="44.76875831588972" lon="9.941499184869553"><ele>415.00000000000006</ele><time>2026-05-02T09:00:10.999Z</time></trkpt><trkpt lat="44.76869311198995" lon="9.941426198741754"><ele>415.0</ele><time>2026-05-02T09:00:13.999Z</time></trkpt><trkpt lat="44.76864642394607" lon="9.941341883355237"><ele>415.0</ele><time>2026-05-02T09:00:16.999Z</time></trkpt><trkpt lat="44.76861848654209" lon="9.941240597566035"><ele>415.0</ele><time>2026-05-02T09:00:19.999Z</time></trkpt><trkpt lat="44.768594458151554" lon="9.941137661950526"><ele>415.00000000000006</ele><time>2026-05-02T09:00:22.999Z</time></trkpt><trkpt lat="44.76856806010544" lon="9.941032889505337"><ele>415.0</ele><time>2026-05-02T09:00:25.999Z</time></trkpt><trkpt lat="44.768542299205706" lon="9.9409148951499"><ele>416.42857142857144</ele><time>2026-05-02T09:00:29.999Z</time></trkpt><trkpt lat="44.768510714428935" lon="9.940817271336144"><ele>417.8571428571429</ele><time>2026-05-02T09:00:32.999Z</time></trkpt><trkpt lat="44.768471870029884" lon="9.940727133412818"><ele>419.2857142857143</ele><time>2026-05-02T09:00:35.999Z</time></trkpt><trkpt lat="44.76842853175847" lon="9.94065952814408"><ele>420.7142857142857</ele><time>2026-05-02T09:00:38.999Z</time></trkpt><trkpt lat="44.768371533162735" lon="9.940590465472592"><ele>422.1428571428571</ele><time>2026-05-02T09:00:41.999Z</time></trkpt><trkpt lat="44.76830849884683" lon="9.940538226053132"><ele>423.57142857142856</ele><time>2026-05-02T09:00:44.998Z</time></trkpt><trkpt lat="44.768243773450386" lon="9.94049242811716"><ele>425.0</ele><time>2026-05-02T09:00:47.998Z</time></trkpt><trkpt lat="44.76817115119015" lon="9.940448670955066"><ele>424.99999999999994</ele><time>2026-05-02T09:00:50.998Z</time></trkpt><trkpt lat="44.768097681133945" lon="9.940410565658217"><ele>425.0</ele><time>2026-05-02T09:00:53.998Z</time></trkpt><trkpt lat="44.76802029684648" lon="9.940375861952713"><ele>425.0</ele><time>2026-05-02T09:00:56.998Z</time></trkpt><trkpt lat="44.767937827198494" lon="9.940349302372582"><ele>425.0</ele><time>2026-05-02T09:00:59.998Z</time></trkpt><trkpt lat="44.76785101601155" lon="9.94033749265076"><ele>424.99999999999994</ele><time>2026-05-02T09:01:02.998Z</time></trkpt><trkpt lat="44.767776479556815" lon="9.940336769915028"><ele>425.0</ele><time>2026-05-02T09:01:06Z</time></trkpt><trkpt lat="44.767708740873225" lon="9.940336303866829"><ele>425.57142857142856</ele><time>2026-05-02T09:01:08Z</time></trkpt><trkpt lat="44.76763327348359" lon="9.94034481682932"><ele>426.1428571428571</ele><time>2026-05-02T09:01:11Z</time></trkpt><trkpt lat="44.76756395942984" lon="9.940360338189228"><ele>426.7142857142857</ele><time>2026-05-02T09:01:14Z</time></trkpt><trkpt lat="44.767498300856246" lon="9.940371797528885"><ele>427.2857142857143</ele><time>2026-05-02T09:01:17Z</time></trkpt><trkpt lat="44.767423964814284" lon="9.940387360393261"><ele>427.8571428571429</ele><time>2026-05-02T09:01:20Z</time></trkpt><trkpt lat="44.767344064294264" lon="9.940395230930298"><ele>428.42857142857144</ele><time>2026-05-02T09:01:23Z</time></trkpt><trkpt lat="44.76726607860829" lon="9.940412133360228"><ele>429.0</ele><time>2026-05-02T09:01:26Z</time></trkpt><trkpt lat="44.76718002763309" lon="9.940431286649002"><ele>429.0</ele><time>2026-05-02T09:01:29Z</time></trkpt><trkpt lat="44.76708832171587" lon="9.940444404916803"><ele>429.0</ele><time>2026-05-02T09:01:32Z</time></trkpt><trkpt lat="44.76701437339634" lon="9.9404657635394"><ele>429.0</ele><time>2026-05-02T09:01:35Z</time></trkpt><trkpt lat="44.76693975053818" lon="9.940478801386515"><ele>429.0</ele><time>2026-05-02T09:01:38Z</time></trkpt><trkpt lat="44.76686269645811" lon="9.940498174536785"><ele>429.0</ele><time>2026-05-02T09:01:41Z</time></trkpt><trkpt lat="44.76678579203886" lon="9.940521169825043"><ele>429.0</ele><time>2026-05-02T09:01:44Z</time></trkpt><trkpt lat="44.766712045321896" lon="9.94054553706689"><ele>429.5</ele><time>2026-05-02T09:01:47Z</time></trkpt><trkpt lat="44.76663873610825" lon="9.940574172329416"><ele>430.0</ele><time>2026-05-02T09:01:50Z</time></trkpt><trkpt lat="44.7665649503577" lon="9.940605155771037"><ele>430.5</ele><time>2026-05-02T09:01:53Z</time></trkpt><trkpt lat="44.76649208942741" lon="9.940642558813389"><ele>431.0</ele><time>2026-05-02T09:01:55.999Z</time></trkpt><trkpt lat="44.76642195177396" lon="9.940678413650273"><ele>431.5</ele><time>2026-05-02T09:01:58.999Z</time></trkpt><trkpt lat="44.76635039454417" lon="9.940713404718363"><ele>432.0</ele><time>2026-05-02T09:02:01.999Z</time></trkpt><trkpt lat="44.76627798967158" lon="9.940741775470284"><ele>432.0</ele><time>2026-05-02T09:02:04.999Z</time></trkpt><trkpt lat="44.76620611056245" lon="9.94077113044461"><ele>432.0</ele><time>2026-05-02T09:02:07.999Z</time></trkpt><trkpt lat="44.76613218057389" lon="9.940792816584178"><ele>432.0</ele><time>2026-05-02T09:02:10.999Z</time></trkpt><trkpt lat="44.76605742956162" lon="9.94082090997186"><ele>432.0</ele><time>2026-05-02T09:02:13.999Z</time></trkpt><trkpt lat="44.7659818487353" lon="9.940849403381591"><ele>432.0</ele><time>2026-05-02T09:02:16.999Z</time></trkpt><trkpt lat="44.76590776767396" lon="9.940879184910111"><ele>432.0</ele><time>2026-05-02T09:02:19.999Z</time></trkpt><trkpt lat="44.76583525498494" lon="9.940911624289107"><ele>432.0</ele><time>2026-05-02T09:02:22.999Z</time></trkpt><trkpt lat="44.76574632900789" lon="9.940952511342914"><ele>432.0</ele><time>2026-05-02T09:02:25.999Z</time></trkpt><trkpt lat="44.76568119777365" lon="9.940982724934804"><ele>432.0</ele><time>2026-05-02T09:02:28.999Z</time></trkpt><trkpt lat="44.76561451673366" lon="9.94102433882171"><ele>432.0</ele><time>2026-05-02T09:02:31.999Z</time></trkpt><trkpt lat="44.76555103227085" lon="9.941066219472615"><ele>432.0</ele><time>2026-05-02T09:02:34.999Z</time></trkpt><trkpt lat="44.765482732376" lon="9.941114725430706"><ele>432.0</ele><time>2026-05-02T09:02:37.999Z</time></trkpt><trkpt lat="44.76541061372545" lon="9.94116170752836"><ele>432.0</ele><time>2026-05-02T09:02:40.999Z</time></trkpt><trkpt lat="44.76533615464532" lon="9.941214211865503"><ele>432.0</ele><time>2026-05-02T09:02:43.999Z</time></trkpt><trkpt lat="44.76527487054039" lon="9.941259144850456"><ele>432.0</ele><time>2026-05-02T09:02:46.999Z</time></trkpt><trkpt lat="44.76521410342476" lon="9.94130060732658"><ele>432.0</ele><time>2026-05-02T09:02:49.998Z</time></trkpt><trkpt lat="44.765147102234955" lon="9.941348143832212"><ele>432.0</ele><time>2026-05-02T09:02:52.998Z</time></trkpt><trkpt lat="44.76507928169201" lon="9.941399760282636"><ele>432.0</ele><time>2026-05-02T09:02:55.998Z</time></trkpt><trkpt lat="44.76501517820172" lon="9.941448479863444"><ele>432.0</ele><time>2026-05-02T09:02:58.998Z</time></trkpt><trkpt lat="44.76494507094518" lon="9.941501283430068"><ele>432.85714285714283</ele><time>2026-05-02T09:03:01.998Z</time></trkpt><trkpt lat="44.76487497676514" lon="9.94155184900736"><ele>433.71428571428567</ele><time>2026-05-02T09:03:04.998Z</time></trkpt><trkpt lat="44.76481805923147" lon="9.941599644328335"><ele>434.57142857142856</ele><time>2026-05-02T09:03:07.998Z</time></trkpt><trkpt lat="44.764758708182946" lon="9.941640831924195"><ele>435.42857142857144</ele><time>2026-05-02T09:03:11Z</time></trkpt><trkpt lat="44.76469666539148" lon="9.941684132363978"><ele>436.2857142857143</ele><time>2026-05-02T09:03:14Z</time></trkpt><trkpt lat="44.764633200527406" lon="9.941732604954728"><ele>437.14285714285717</ele><time>2026-05-02T09:03:17Z</time></trkpt><trkpt lat="44.76456596027479" lon="9.941787385032894"><ele>438.0</ele><time>2026-05-02T09:03:20Z</time></trkpt><trkpt lat="44.76450206915442" lon="9.94184002587072"><ele>438.0</ele><time>2026-05-02T09:03:23Z</time></trkpt><trkpt lat="44.76443204833038" lon="9.941897974926267"><ele>438.0</ele><time>2026-05-02T09:03:26Z</time></trkpt><trkpt lat="44.76437631303493" lon="9.94193958815919"><ele>438.0</ele><time>2026-05-02T09:03:29Z</time></trkpt><trkpt lat="44.764316469749886" lon="9.9419857337123"><ele>438.0</ele><time>2026-05-02T09:03:32Z</time></trkpt><trkpt lat="44.7642527545308" lon="9.9420325839747"><ele>438.0</ele><time>2026-05-02T09:03:35Z</time></trkpt><trkpt lat="44.76418055132752" lon="9.942089112039357"><ele>438.0</ele><time>2026-05-02T09:03:38Z</time></trkpt><trkpt lat="44.76411678391437" lon="9.942152413091918"><ele>438.0</ele><time>2026-05-02T09:03:42Z</time></trkpt><trkpt lat="44.764055123057524" lon="9.942204303027257"><ele>440.0</ele><time>2026-05-02T09:03:45Z</time></trkpt><trkpt lat="44.76399077118186" lon="9.942255353779686"><ele>442.0</ele><time>2026-05-02T09:03:48Z</time></trkpt><trkpt lat="44.76393730217446" lon="9.942309987420762"><ele>444.0</ele><time>2026-05-02T09:03:51Z</time></trkpt><trkpt lat="44.76388008911871" lon="9.942352521470683"><ele>446.0</ele><time>2026-05-02T09:03:54Z</time></trkpt><trkpt lat="44.76382166427657" lon="9.942404780549518"><ele>448.0</ele><time>2026-05-02T09:03:57Z</time></trkpt><trkpt lat="44.76376121975343" lon="9.942463498895979"><ele>450.0</ele><time>2026-05-02T09:03:59.999Z</time></trkpt><trkpt lat="44.76370161134923" lon="9.942510808676746"><ele>452.0</ele><time>2026-05-02T09:04:02.999Z</time></trkpt><trkpt lat="44.763640749613955" lon="9.942551486690995"><ele>451.99999999999994</ele><time>2026-05-02T09:04:05.999Z</time></trkpt><trkpt lat="44.76356716738506" lon="9.942603103309686"><ele>452.0</ele><time>2026-05-02T09:04:09.999Z</time></trkpt><trkpt lat="44.7634928144219" lon="9.94263951897876"><ele>452.0</ele><time>2026-05-02T09:04:13.999Z</time></trkpt><trkpt lat="44.76341953520165" lon="9.942671858054256"><ele>452.0</ele><time>2026-05-02T09:04:17.999Z</time></trkpt><trkpt lat="44.76334541470934" lon="9.942708551627327"><ele>451.99999999999994</ele><time>2026-05-02T09:04:21.999Z</time></trkpt><trkpt lat="44.76327517286283" lon="9.94273840541796"><ele>452.0</ele><time>2026-05-02T09:04:25.999Z</time></trkpt><trkpt lat="44.76320649529669" lon="9.942707094843241"><ele>453.99999999999994</ele><time>2026-05-02T09:04:29.999Z</time></trkpt><trkpt lat="44.76316132540647" lon="9.942615896752942"><ele>456.0</ele><time>2026-05-02T09:04:33.999Z</time></trkpt><trkpt lat="44.76316678143714" lon="9.942501101124183"><ele>458.0</ele><time>2026-05-02T09:04:37.999Z</time></trkpt><trkpt lat="44.76319947336216" lon="9.942399178863454"><ele>460.0</ele><time>2026-05-02T09:04:41.999Z</time></trkpt><trkpt lat="44.7632355697978" lon="9.942294919842649"><ele>461.99999999999994</ele><time>2026-05-02T09:04:45.999Z</time></trkpt><trkpt lat="44.76326748552711" lon="9.942201855992632"><ele>464.0</ele><time>2026-05-02T09:04:48.999Z</time></trkpt><trkpt lat="44.76329733264241" lon="9.942110202155394"><ele>464.28571428571433</ele><time>2026-05-02T09:04:52.998Z</time></trkpt><trkpt lat="44.763332783595736" lon="9.942032314691936"><ele>464.57142857142856</ele><time>2026-05-02T09:04:55.998Z</time></trkpt><trkpt lat="44.763369450062356" lon="9.941941988417712"><ele>464.8571428571429</ele><time>2026-05-02T09:04:58.998Z</time></trkpt><trkpt lat="44.76341437078801" lon="9.941858934039296"><ele>465.14285714285717</ele><time>2026-05-02T09:05:02.998Z</time></trkpt><trkpt lat="44.76345570926826" lon="9.941776708740736"><ele>465.42857142857144</ele><time>2026-05-02T09:05:05.998Z</time></trkpt><trkpt lat="44.76349975479872" lon="9.941687519315082"><ele>465.7142857142857</ele><time>2026-05-02T09:05:08.998Z</time></trkpt><trkpt lat="44.76354081576288" lon="9.941597226683033"><ele>466.0</ele><time>2026-05-02T09:05:12.998Z</time></trkpt><trkpt lat="44.76358557533066" lon="9.941519913479585"><ele>465.28571428571433</ele><time>2026-05-02T09:05:16Z</time></trkpt><trkpt lat="44.76362716122807" lon="9.941432869562663"><ele>464.57142857142856</ele><time>2026-05-02T09:05:19Z</time></trkpt><trkpt lat="44.76367466046092" lon="9.941347613561224"><ele>463.8571428571429</ele><time>2026-05-02T09:05:23Z</time></trkpt><trkpt lat="44.763722127228824" lon="9.941273891800197"><ele>463.14285714285717</ele><time>2026-05-02T09:05:26Z</time></trkpt><trkpt lat="44.7637659601442" lon="9.941197815394467"><ele>462.42857142857144</ele><time>2026-05-02T09:05:29Z</time></trkpt><trkpt lat="44.76381035935969" lon="9.941107314423377"><ele>461.7142857142857</ele><time>2026-05-02T09:05:32Z</time></trkpt><trkpt lat="44.763854300279355" lon="9.94102546949233"><ele>461.0</ele><time>2026-05-02T09:05:36Z</time></trkpt><trkpt lat="44.7638927444635" lon="9.940940292452929"><ele>462.42857142857144</ele><time>2026-05-02T09:05:39Z</time></trkpt><trkpt lat="44.76392431133991" lon="9.940857130662948"><ele>463.8571428571429</ele><time>2026-05-02T09:05:41Z</time></trkpt><trkpt lat="44.76395452979168" lon="9.940755505707987"><ele>465.28571428571433</ele><time>2026-05-02T09:05:44Z</time></trkpt><trkpt lat="44.76397513639366" lon="9.940655373649188"><ele>466.7142857142858</ele><time>2026-05-02T09:05:47Z</time></trkpt><trkpt lat="44.76398059979011" lon="9.940553733046986"><ele>468.14285714285717</ele><time>2026-05-02T09:05:50Z</time></trkpt><trkpt lat="44.763950677220045" lon="9.940459519934134"><ele>469.57142857142867</ele><time>2026-05-02T09:05:53Z</time></trkpt><trkpt lat="44.76387505881345" lon="9.940414745447288"><ele>471.00000000000006</ele><time>2026-05-02T09:05:56Z</time></trkpt><trkpt lat="44.7637995184197" lon="9.94047414706603"><ele>471.00000000000006</ele><time>2026-05-02T09:05:59Z</time></trkpt><trkpt lat="44.76375622529869" lon="9.940563934165533"><ele>471.0</ele><time>2026-05-02T09:06:02Z</time></trkpt><trkpt lat="44.76370755671751" lon="9.940662666621227"><ele>471.00000000000006</ele><time>2026-05-02T09:06:05.999Z</time></trkpt><trkpt lat="44.76366893846684" lon="9.940738208490675"><ele>471.00000000000006</ele><time>2026-05-02T09:06:08.999Z</time></trkpt><trkpt lat="44.76361756220506" lon="9.94080342977277"><ele>471.0</ele><time>2026-05-02T09:06:11.999Z</time></trkpt><trkpt lat="44.76356060301163" lon="9.940866028032701"><ele>471.00000000000006</ele><time>2026-05-02T09:06:14.999Z</time></trkpt><trkpt lat="44.76349839793352" lon="9.940916883024446"><ele>471.00000000000006</ele><time>2026-05-02T09:06:17.999Z</time></trkpt><trkpt lat="44.76342277419789" lon="9.94096730659247"><ele>472.1666666666667</ele><time>2026-05-02T09:06:20.999Z</time></trkpt><trkpt lat="44.763356201752515" lon="9.941013297431883"><ele>473.33333333333337</ele><time>2026-05-02T09:06:24.999Z</time></trkpt><trkpt lat="44.76329125538699" lon="9.941057074732676"><ele>474.5</ele><time>2026-05-02T09:06:27.999Z</time></trkpt><trkpt lat="44.76320763238999" lon="9.941106451830734"><ele>475.6666666666667</ele><time>2026-05-02T09:06:30.999Z</time></trkpt><trkpt lat="44.76313424252355" lon="9.941133468858286"><ele>476.83333333333337</ele><time>2026-05-02T09:06:34.999Z</time></trkpt><trkpt lat="44.76306856546977" lon="9.941133239657804"><ele>478.0</ele><time>2026-05-02T09:06:37.999Z</time></trkpt><trkpt lat="44.762997715260994" lon="9.941112691783585"><ele>478.00000000000006</ele><time>2026-05-02T09:06:40.999Z</time></trkpt><trkpt lat="44.76292567853732" lon="9.941080010583788"><ele>478.0</ele><time>2026-05-02T09:06:43.999Z</time></trkpt><trkpt lat="44.762848496767184" lon="9.941035158372198"><ele>478.0</ele><time>2026-05-02T09:06:46.999Z</time></trkpt><trkpt lat="44.76277492852366" lon="9.94100057498015"><ele>478.0</ele><time>2026-05-02T09:06:49.999Z</time></trkpt><trkpt lat="44.76269787369137" lon="9.940985228886621"><ele>478.00000000000006</ele><time>2026-05-02T09:06:52.999Z</time></trkpt><trkpt lat="44.76260906689162" lon="9.941006893206055"><ele>478.0</ele><time>2026-05-02T09:06:55.998Z</time></trkpt><trkpt lat="44.76254449741506" lon="9.941061181988243"><ele>480.1666666666667</ele><time>2026-05-02T09:06:58.998Z</time></trkpt><trkpt lat="44.76249034832946" lon="9.941127142898003"><ele>482.33333333333337</ele><time>2026-05-02T09:07:01.998Z</time></trkpt><trkpt lat="44.762436160463096" lon="9.94120472479908"><ele>484.5</ele><time>2026-05-02T09:07:04.998Z</time></trkpt><trkpt lat="44.76238613142163" lon="9.94128346565461"><ele>486.66666666666663</ele><time>2026-05-02T09:07:07.998Z</time></trkpt><trkpt lat="44.762332356571555" lon="9.941364105793523"><ele>488.8333333333333</ele><time>2026-05-02T09:07:10.998Z</time></trkpt><trkpt lat="44.762278025923095" lon="9.941448651484919"><ele>491.0</ele><time>2026-05-02T09:07:13.998Z</time></trkpt><trkpt lat="44.762226324268426" lon="9.941509271560545"><ele>491.0</ele><time>2026-05-02T09:07:16.998Z</time></trkpt><trkpt lat="44.762167486983536" lon="9.941559993124761"><ele>490.99999999999994</ele><time>2026-05-02T09:07:19.998Z</time></trkpt><trkpt lat="44.762100056829716" lon="9.941592406978273"><ele>491.0</ele><time>2026-05-02T09:07:23Z</time></trkpt><trkpt lat="44.76203047356767" lon="9.941611966936051"><ele>491.0</ele><time>2026-05-02T09:07:26Z</time></trkpt><trkpt lat="44.761954218210406" lon="9.941614108948345"><ele>490.99999999999994</ele><time>2026-05-02T09:07:29Z</time></trkpt><trkpt lat="44.76188518947649" lon="9.941610471659107"><ele>491.0</ele><time>2026-05-02T09:07:32Z</time></trkpt><trkpt lat="44.76180580578681" lon="9.941608507907441"><ele>491.0</ele><time>2026-05-02T09:07:35Z</time></trkpt><trkpt lat="44.7617272461549" lon="9.94161983890678"><ele>491.57142857142856</ele><time>2026-05-02T09:07:38Z</time></trkpt><trkpt lat="44.7616617930824" lon="9.941643050633038"><ele>492.1428571428571</ele><time>2026-05-02T09:07:41Z</time></trkpt><trkpt lat="44.76159729440787" lon="9.941669785409575"><ele>492.71428571428567</ele><time>2026-05-02T09:07:43Z</time></trkpt><trkpt lat="44.76153488121442" lon="9.94171171966152"><ele>493.2857142857142</ele><time>2026-05-02T09:07:46Z</time></trkpt><trkpt lat="44.76147456181151" lon="9.941763157540226"><ele>493.85714285714283</ele><time>2026-05-02T09:07:49Z</time></trkpt><trkpt lat="44.76141187821602" lon="9.941818508106754"><ele>494.42857142857133</ele><time>2026-05-02T09:07:52Z</time></trkpt><trkpt lat="44.76135238244913" lon="9.941880312326735"><ele>494.99999999999994</ele><time>2026-05-02T09:07:55Z</time></trkpt><trkpt lat="44.761293221163385" lon="9.941957401112862"><ele>495.0</ele><time>2026-05-02T09:07:58Z</time></trkpt><trkpt lat="44.76123916216091" lon="9.942038026737903"><ele>495.0</ele><time>2026-05-02T09:08:01Z</time></trkpt><trkpt lat="44.76119277529586" lon="9.942119567793279"><ele>495.0</ele><time>2026-05-02T09:08:04Z</time></trkpt><trkpt lat="44.76114498078003" lon="9.942202154774778"><ele>495.0</ele><time>2026-05-02T09:08:06.999Z</time></trkpt><trkpt lat="44.761097989111015" lon="9.942284638037744"><ele>495.0</ele><time>2026-05-02T09:08:09.999Z</time></trkpt><trkpt lat="44.7610491649602" lon="9.942380983148421"><ele>495.0</ele><time>2026-05-02T09:08:12.999Z</time></trkpt><trkpt lat="44.761015055823826" lon="9.942456221344932"><ele>498.0</ele><time>2026-05-02T09:08:15.999Z</time></trkpt><trkpt lat="44.760972349040514" lon="9.942538941297892"><ele>501.0</ele><time>2026-05-02T09:08:18.999Z</time></trkpt><trkpt lat="44.76093442084913" lon="9.942626947473173"><ele>504.0</ele><time>2026-05-02T09:08:21.999Z</time></trkpt><trkpt lat="44.76091677636454" lon="9.942733324948188"><ele>507.0</ele><time>2026-05-02T09:08:24.999Z</time></trkpt><trkpt lat="44.76091836893556" lon="9.942831358490341"><ele>510.0</ele><time>2026-05-02T09:08:26.999Z</time></trkpt><trkpt lat="44.76093030311406" lon="9.942953075355835"><ele>513.0</ele><time>2026-05-02T09:08:29.999Z</time></trkpt><trkpt lat="44.760956666138796" lon="9.943054927487466"><ele>513.3333333333334</ele><time>2026-05-02T09:08:32.999Z</time></trkpt><trkpt lat="44.76098221717407" lon="9.943156988565601"><ele>513.6666666666666</ele><time>2026-05-02T09:08:35.999Z</time></trkpt><trkpt lat="44.76101047441806" lon="9.943278205827017"><ele>514.0</ele><time>2026-05-02T09:08:38.999Z</time></trkpt><trkpt lat="44.76102104785184" lon="9.943384405773333"><ele>514.3333333333333</ele><time>2026-05-02T09:08:41.999Z</time></trkpt><trkpt lat="44.76101693019021" lon="9.943479026046091"><ele>514.6666666666666</ele><time>2026-05-02T09:08:44.999Z</time></trkpt><trkpt lat="44.76100184148991" lon="9.943573069197383"><ele>515.0</ele><time>2026-05-02T09:08:47.999Z</time></trkpt><trkpt lat="44.760982205695676" lon="9.943684831659082"><ele>514.2857142857143</ele><time>2026-05-02T09:08:50.999Z</time></trkpt><trkpt lat="44.760966189460724" lon="9.943772432146007"><ele>513.5714285714286</ele><time>2026-05-02T09:08:53.999Z</time></trkpt><trkpt lat="44.76094544409257" lon="9.94386897098639"><ele>512.8571428571429</ele><time>2026-05-02T09:08:56.999Z</time></trkpt><trkpt lat="44.76091603205546" lon="9.9439508214642"><ele>512.1428571428571</ele><time>2026-05-02T09:08:58.998Z</time></trkpt><trkpt lat="44.760856154071874" lon="9.943998195664475"><ele>511.42857142857144</ele><time>2026-05-02T09:09:01.998Z</time></trkpt><trkpt lat="44.76078445019391" lon="9.943975190472043"><ele>510.7142857142857</ele><time>2026-05-02T09:09:04.998Z</time></trkpt><trkpt lat="44.76074413453142" lon="9.943904444584696"><ele>510.0</ele><time>2026-05-02T09:09:07.998Z</time></trkpt><trkpt lat="44.76071393062158" lon="9.943816010460354"><ele>510.0</ele><time>2026-05-02T09:09:10.998Z</time></trkpt><trkpt lat="44.76068659484642" lon="9.943726375348763"><ele>510.00000000000006</ele><time>2026-05-02T09:09:13.998Z</time></trkpt><trkpt lat="44.76066220722776" lon="9.94363312469045"><ele>510.0</ele><time>2026-05-02T09:09:16.998Z</time></trkpt><trkpt lat="44.76063434163895" lon="9.943547562664923"><ele>510.0</ele><time>2026-05-02T09:09:19.998Z</time></trkpt><trkpt lat="44.760620334505525" lon="9.94344601519473"><ele>510.00000000000006</ele><time>2026-05-02T09:09:22.998Z</time></trkpt><trkpt lat="44.760599966157564" lon="9.943345237805703"><ele>510.0</ele><time>2026-05-02T09:09:25.998Z</time></trkpt><trkpt lat="44.760576821767046" lon="9.943236395342424"><ele>510.0</ele><time>2026-05-02T09:09:29Z</time></trkpt><trkpt lat="44.760547363625385" lon="9.943141607063588"><ele>510.42857142857144</ele><time>2026-05-02T09:09:32Z</time></trkpt><trkpt lat="44.76051530022659" lon="9.943060224237698"><ele>510.8571428571429</ele><time>2026-05-02T09:09:35Z</time></trkpt><trkpt lat="44.760474125821055" lon="9.94297227206071"><ele>511.28571428571433</ele><time>2026-05-02T09:09:38Z</time></trkpt><trkpt lat="44.760430562910365" lon="9.942898035678413"><ele>511.7142857142858</ele><time>2026-05-02T09:09:40Z</time></trkpt><trkpt lat="44.760385613653646" lon="9.942810273099703"><ele>512.1428571428571</ele><time>2026-05-02T09:09:43Z</time></trkpt><trkpt lat="44.760338618078386" lon="9.942720370259565"><ele>512.5714285714287</ele><time>2026-05-02T09:09:46Z</time></trkpt><trkpt lat="44.760304205403315" lon="9.942630759041334"><ele>513.0</ele><time>2026-05-02T09:09:49Z</time></trkpt><trkpt lat="44.76029190684551" lon="9.942538152813992"><ele>513.0</ele><time>2026-05-02T09:09:51Z</time></trkpt><trkpt lat="44.76029393324884" lon="9.942440843873039"><ele>513.0</ele><time>2026-05-02T09:09:54Z</time></trkpt><trkpt lat="44.76030744039626" lon="9.94231636769601"><ele>513.0</ele><time>2026-05-02T09:09:57Z</time></trkpt><trkpt lat="44.760323165394276" lon="9.942206219952332"><ele>513.0</ele><time>2026-05-02T09:10:00Z</time></trkpt><trkpt lat="44.76034117393465" lon="9.942082955661926"><ele>513.0</ele><time>2026-05-02T09:10:03Z</time></trkpt><trkpt lat="44.76035705361046" lon="9.941986513802302"><ele>513.0</ele><time>2026-05-02T09:10:06Z</time></trkpt><trkpt lat="44.76037784912713" lon="9.941875447844401"><ele>513.0000000000001</ele><time>2026-05-02T09:10:08.999Z</time></trkpt><trkpt lat="44.76040059925563" lon="9.941777418888016"><ele>513.0</ele><time>2026-05-02T09:10:11.999Z</time></trkpt><trkpt lat="44.76041957577545" lon="9.941672257866664"><ele>513.0</ele><time>2026-05-02T09:10:14.999Z</time></trkpt><trkpt lat="44.76043568833386" lon="9.941582044121224"><ele>513.0</ele><time>2026-05-02T09:10:17.999Z</time></trkpt><trkpt lat="44.760458593796955" lon="9.941479976522665"><ele>513.0</ele><time>2026-05-02T09:10:20.999Z</time></trkpt><trkpt lat="44.7604810211358" lon="9.941376164749045"><ele>513.0000000000001</ele><time>2026-05-02T09:10:23.999Z</time></trkpt><trkpt lat="44.760505574551004" lon="9.941274771744036"><ele>513.0</ele><time>2026-05-02T09:10:26.999Z</time></trkpt><trkpt lat="44.76053413070371" lon="9.941175940675388"><ele>513.3333333333334</ele><time>2026-05-02T09:10:29.999Z</time></trkpt><trkpt lat="44.760569607025225" lon="9.941078155881415"><ele>513.6666666666666</ele><time>2026-05-02T09:10:32.999Z</time></trkpt><trkpt lat="44.76061541369521" lon="9.940980061005732"><ele>514.0</ele><time>2026-05-02T09:10:35.999Z</time></trkpt><trkpt lat="44.7606649088723" lon="9.940900394942927"><ele>514.3333333333333</ele><time>2026-05-02T09:10:39.999Z</time></trkpt><trkpt lat="44.76071805584227" lon="9.940823153419268"><ele>514.6666666666666</ele><time>2026-05-02T09:10:42.999Z</time></trkpt><trkpt lat="44.76077953806607" lon="9.940733172607162"><ele>515.0</ele><time>2026-05-02T09:10:45.999Z</time></trkpt><trkpt lat="44.76083451807172" lon="9.94064666439998"><ele>516.5714285714286</ele><time>2026-05-02T09:10:48.999Z</time></trkpt><trkpt lat="44.76088319131225" lon="9.940568849602577"><ele>518.1428571428571</ele><time>2026-05-02T09:10:51.999Z</time></trkpt><trkpt lat="44.760937410843454" lon="9.94049400848218"><ele>519.7142857142857</ele><time>2026-05-02T09:10:54.999Z</time></trkpt><trkpt lat="44.760978228177606" lon="9.940416975579776"><ele>521.2857142857142</ele><time>2026-05-02T09:10:57.999Z</time></trkpt><trkpt lat="44.76101224449494" lon="9.940320700678734"><ele>522.8571428571428</ele><time>2026-05-02T09:11:00.998Z</time></trkpt><trkpt lat="44.7610143656436" lon="9.94022567694109"><ele>524.4285714285714</ele><time>2026-05-02T09:11:03.998Z</time></trkpt><trkpt lat="44.76098494668433" lon="9.940141466089896"><ele>526.0</ele><time>2026-05-02T09:11:06.998Z</time></trkpt><trkpt lat="44.76093044103983" lon="9.940083072794389"><ele>526.0</ele><time>2026-05-02T09:11:09.998Z</time></trkpt><trkpt lat="44.76085820212266" lon="9.940072311582776"><ele>526.0</ele><time>2026-05-02T09:11:12.998Z</time></trkpt><trkpt lat="44.760786187501495" lon="9.940098046329027"><ele>526.0</ele><time>2026-05-02T09:11:15.998Z</time></trkpt><trkpt lat="44.76071592677562" lon="9.940129150611478"><ele>526.0</ele><time>2026-05-02T09:11:18.998Z</time></trkpt><trkpt lat="44.76064925370934" lon="9.940157282491258"><ele>526.0</ele><time>2026-05-02T09:11:21.998Z</time></trkpt><trkpt lat="44.76058234495284" lon="9.940182578478643"><ele>526.0</ele><time>2026-05-02T09:11:24.998Z</time></trkpt><trkpt lat="44.760514780191286" lon="9.940203909168641"><ele>526.0</ele><time>2026-05-02T09:11:27.998Z</time></trkpt><trkpt lat="44.76044523370335" lon="9.940226726047142"><ele>526.0</ele><time>2026-05-02T09:11:30.998Z</time></trkpt><trkpt lat="44.76036940104828" lon="9.940247184094039"><ele>526.0</ele><time>2026-05-02T09:11:34Z</time></trkpt><trkpt lat="44.76028877478967" lon="9.940277043361291"><ele>526.0</ele><time>2026-05-02T09:11:37Z</time></trkpt><trkpt lat="44.76022259760985" lon="9.940312415694738"><ele>526.0</ele><time>2026-05-02T09:11:40Z</time></trkpt><trkpt lat="44.760164535694564" lon="9.940350132634865"><ele>526.0</ele><time>2026-05-02T09:11:42Z</time></trkpt><trkpt lat="44.760108191673936" lon="9.940405535572621"><ele>526.0</ele><time>2026-05-02T09:11:45Z</time></trkpt><trkpt lat="44.760056025494315" lon="9.940473103605205"><ele>526.0</ele><time>2026-05-02T09:11:48Z</time></trkpt><trkpt lat="44.7600041868405" lon="9.94055064081824"><ele>527.0</ele><time>2026-05-02T09:11:51Z</time></trkpt><trkpt lat="44.75995212540739" lon="9.940630642233296"><ele>528.0</ele><time>2026-05-02T09:11:54Z</time></trkpt><trkpt lat="44.7599067985333" lon="9.940694840281958"><ele>529.0</ele><time>2026-05-02T09:11:56Z</time></trkpt><trkpt lat="44.75985441183827" lon="9.940779126830359"><ele>530.0</ele><time>2026-05-02T09:12:00Z</time></trkpt><trkpt lat="44.759808217746674" lon="9.94084724581484"><ele>531.0</ele><time>2026-05-02T09:12:03Z</time></trkpt><trkpt lat="44.75974958264112" lon="9.940927002487753"><ele>532.0</ele><time>2026-05-02T09:12:06Z</time></trkpt><trkpt lat="44.759692585290274" lon="9.941017825761918"><ele>532.0</ele><time>2026-05-02T09:12:09Z</time></trkpt><trkpt lat="44.75963984273097" lon="9.94111190117101"><ele>532.0</ele><time>2026-05-02T09:12:12Z</time></trkpt><trkpt lat="44.7595926700135" lon="9.941204397454166"><ele>532.0</ele><time>2026-05-02T09:12:14.999Z</time></trkpt><trkpt lat="44.75955253581541" lon="9.941293546756116"><ele>532.0</ele><time>2026-05-02T09:12:17.999Z</time></trkpt><trkpt lat="44.759508228726034" lon="9.941379099227296"><ele>532.0</ele><time>2026-05-02T09:12:20.999Z</time></trkpt><trkpt lat="44.75946956277019" lon="9.94146977697283"><ele>532.0</ele><time>2026-05-02T09:12:23.999Z</time></trkpt><trkpt lat="44.759431302485396" lon="9.941567153753248"><ele>532.0</ele><time>2026-05-02T09:12:26.999Z</time></trkpt><trkpt lat="44.759389241334226" lon="9.94165556967005"><ele>532.0</ele><time>2026-05-02T09:12:29.999Z</time></trkpt><trkpt lat="44.75932404712471" lon="9.941753327689732"><ele>532.0</ele><time>2026-05-02T09:12:32.999Z</time></trkpt><trkpt lat="44.75927835520731" lon="9.941841742846638"><ele>532.0</ele><time>2026-05-02T09:12:35.999Z</time></trkpt><trkpt lat="44.75925281049128" lon="9.941927692296801"><ele>532.0</ele><time>2026-05-02T09:12:38.999Z</time></trkpt><trkpt lat="44.75920871285007" lon="9.942010631063496"><ele>532.0</ele><time>2026-05-02T09:12:41.999Z</time></trkpt><trkpt lat="44.759171109082466" lon="9.942095233291004"><ele>533.8571428571429</ele><time>2026-05-02T09:12:44.999Z</time></trkpt><trkpt lat="44.759135854715524" lon="9.942188271151547"><ele>535.7142857142858</ele><time>2026-05-02T09:12:47.999Z</time></trkpt><trkpt lat="44.75910216687539" lon="9.94228811868496"><ele>537.5714285714286</ele><time>2026-05-02T09:12:50.999Z</time></trkpt><trkpt lat="44.759085499361014" lon="9.942384475505134"><ele>539.4285714285714</ele><time>2026-05-02T09:12:53.999Z</time></trkpt><trkpt lat="44.759087505235044" lon="9.942473562684608"><ele>541.2857142857143</ele><time>2026-05-02T09:12:56.999Z</time></trkpt><trkpt lat="44.75907991299173" lon="9.942568959907803"><ele>543.1428571428571</ele><time>2026-05-02T09:12:59.999Z</time></trkpt><trkpt lat="44.759067258749845" lon="9.94268159574471"><ele>545.0</ele><time>2026-05-02T09:13:02.999Z</time></trkpt><trkpt lat="44.75906159070424" lon="9.94279304659342"><ele>545.0</ele><time>2026-05-02T09:13:05.998Z</time></trkpt><trkpt lat="44.75905957499173" lon="9.942901614193714"><ele>545.0</ele><time>2026-05-02T09:13:08.998Z</time></trkpt><trkpt lat="44.75901795699174" lon="9.942983257292822"><ele>545.0</ele><time>2026-05-02T09:13:11.998Z</time></trkpt><trkpt lat="44.758950604768856" lon="9.942959855848807"><ele>545.0</ele><time>2026-05-02T09:13:14.998Z</time></trkpt><trkpt lat="44.758933790717926" lon="9.94287271810973"><ele>545.0</ele><time>2026-05-02T09:13:17.998Z</time></trkpt><trkpt lat="44.75891332180722" lon="9.942759983264102"><ele>545.0</ele><time>2026-05-02T09:13:21.998Z</time></trkpt><trkpt lat="44.758898860885466" lon="9.942670032567543"><ele>545.0</ele><time>2026-05-02T09:13:24.998Z</time></trkpt><trkpt lat="44.75888692929098" lon="9.942551030947167"><ele>545.4285714285714</ele><time>2026-05-02T09:13:28.998Z</time></trkpt><trkpt lat="44.758872834846024" lon="9.94246087762333"><ele>545.8571428571429</ele><time>2026-05-02T09:13:32.998Z</time></trkpt><trkpt lat="44.758866927664734" lon="9.942371054996945"><ele>546.2857142857143</ele><time>2026-05-02T09:13:35.998Z</time></trkpt><trkpt lat="44.758865011777445" lon="9.942277221148014"><ele>546.7142857142858</ele><time>2026-05-02T09:13:38.998Z</time></trkpt><trkpt lat="44.75886502277394" lon="9.942178501451735"><ele>547.1428571428571</ele><time>2026-05-02T09:13:42Z</time></trkpt><trkpt lat="44.75887156242661" lon="9.942071932870675"><ele>547.5714285714287</ele><time>2026-05-02T09:13:46Z</time></trkpt><trkpt lat="44.75888014788265" lon="9.941981985633126"><ele>548.0</ele><time>2026-05-02T09:13:49Z</time></trkpt><trkpt lat="44.75889768465516" lon="9.9418732688837"><ele>548.0000000000001</ele><time>2026-05-02T09:13:52Z</time></trkpt><trkpt lat="44.75891645212841" lon="9.941777598163585"><ele>548.0</ele><time>2026-05-02T09:13:56Z</time></trkpt><trkpt lat="44.75893625078485" lon="9.941688017793702"><ele>548.0</ele><time>2026-05-02T09:13:59Z</time></trkpt><trkpt lat="44.75896007453032" lon="9.941577668048536"><ele>548.0</ele><time>2026-05-02T09:14:02Z</time></trkpt><trkpt lat="44.75898267414953" lon="9.941483539331678"><ele>548.0</ele><time>2026-05-02T09:14:06Z</time></trkpt><trkpt lat="44.75900079017842" lon="9.941391427402232"><ele>548.0000000000001</ele><time>2026-05-02T09:14:09Z</time></trkpt><trkpt lat="44.759020164836315" lon="9.94129152235712"><ele>548.0</ele><time>2026-05-02T09:14:12Z</time></trkpt><trkpt lat="44.759038684681876" lon="9.941191374843868"><ele>549.3333333333333</ele><time>2026-05-02T09:14:15Z</time></trkpt><trkpt lat="44.75906218052451" lon="9.941078301519035"><ele>550.6666666666666</ele><time>2026-05-02T09:14:18.999Z</time></trkpt><trkpt lat="44.75907170858186" lon="9.940973782413002"><ele>552.0</ele><time>2026-05-02T09:14:21.999Z</time></trkpt><trkpt lat="44.75907886144184" lon="9.940860621642502"><ele>553.3333333333334</ele><time>2026-05-02T09:14:24.999Z</time></trkpt><trkpt lat="44.75906913537169" lon="9.940752576912072"><ele>554.6666666666667</ele><time>2026-05-02T09:14:28.999Z</time></trkpt><trkpt lat="44.75905096680369" lon="9.940651065586755"><ele>556.0</ele><time>2026-05-02T09:14:31.999Z</time></trkpt><trkpt lat="44.75902503075816" lon="9.940555292678823"><ele>557.5</ele><time>2026-05-02T09:14:34.999Z</time></trkpt><trkpt lat="44.75899577339446" lon="9.940439266920587"><ele>559.0</ele><time>2026-05-02T09:14:37.999Z</time></trkpt><trkpt lat="44.75899535549126" lon="9.940328875407586"><ele>560.5</ele><time>2026-05-02T09:14:41.999Z</time></trkpt><trkpt lat="44.75901151733195" lon="9.940230502809909"><ele>562.0</ele><time>2026-05-02T09:14:44.999Z</time></trkpt><trkpt lat="44.75904337014079" lon="9.940138190213867"><ele>563.5</ele><time>2026-05-02T09:14:47.999Z</time></trkpt><trkpt lat="44.75909230468189" lon="9.940044900530069"><ele>565.0</ele><time>2026-05-02T09:14:50.999Z</time></trkpt><trkpt lat="44.75912754427926" lon="9.939968723705418"><ele>565.8333333333334</ele><time>2026-05-02T09:14:53.999Z</time></trkpt><trkpt lat="44.75915873093339" lon="9.939885927929481"><ele>566.6666666666667</ele><time>2026-05-02T09:14:56.999Z</time></trkpt><trkpt lat="44.75917693512398" lon="9.93979227640232"><ele>567.5</ele><time>2026-05-02T09:14:59.999Z</time></trkpt><trkpt lat="44.75918830532208" lon="9.939686295574983"><ele>568.3333333333334</ele><time>2026-05-02T09:15:02.999Z</time></trkpt><trkpt lat="44.75918762489039" lon="9.939580045821293"><ele>569.1666666666666</ele><time>2026-05-02T09:15:05.999Z</time></trkpt><trkpt lat="44.7591750130461" lon="9.939474669273059"><ele>570.0</ele><time>2026-05-02T09:15:08.998Z</time></trkpt><trkpt lat="44.75914691246949" lon="9.939357167949336"><ele>570.0</ele><time>2026-05-02T09:15:11.998Z</time></trkpt><trkpt lat="44.75912307215205" lon="9.939275084789067"><ele>570.0</ele><time>2026-05-02T09:15:14.998Z</time></trkpt><trkpt lat="44.75909406507323" lon="9.939179656185852"><ele>570.0</ele><time>2026-05-02T09:15:17.998Z</time></trkpt><trkpt lat="44.75906000230023" lon="9.93909678440856"><ele>570.0</ele><time>2026-05-02T09:15:20.998Z</time></trkpt><trkpt lat="44.75901322483689" lon="9.939018897899949"><ele>570.0</ele><time>2026-05-02T09:15:23.998Z</time></trkpt><trkpt lat="44.75895598200207" lon="9.938952809232076"><ele>570.0</ele><time>2026-05-02T09:15:26.998Z</time></trkpt><trkpt lat="44.75889235302315" lon="9.938902621391652"><ele>570.0</ele><time>2026-05-02T09:15:29.998Z</time></trkpt><trkpt lat="44.75882117433704" lon="9.938873407602353"><ele>569.8333333333334</ele><time>2026-05-02T09:15:32.998Z</time></trkpt><trkpt lat="44.758745141219215" lon="9.938856770183135"><ele>569.6666666666666</ele><time>2026-05-02T09:15:35.998Z</time></trkpt><trkpt lat="44.75867445994901" lon="9.938856576449142"><ele>569.5</ele><time>2026-05-02T09:15:38.998Z</time></trkpt><trkpt lat="44.75860651553581" lon="9.938859482718252"><ele>569.3333333333333</ele><time>2026-05-02T09:15:41.998Z</time></trkpt><trkpt lat="44.758524568678524" lon="9.938849524342016"><ele>569.1666666666666</ele><time>2026-05-02T09:15:46Z</time></trkpt><trkpt lat="44.758448430929135" lon="9.938830250564543"><ele>569.0</ele><time>2026-05-02T09:15:49Z</time></trkpt><trkpt lat="44.75838678849123" lon="9.938760385846944"><ele>571.6666666666666</ele><time>2026-05-02T09:15:53Z</time></trkpt><trkpt lat="44.758337207898045" lon="9.938661028748973"><ele>574.3333333333333</ele><time>2026-05-02T09:15:56Z</time></trkpt><trkpt lat="44.75831230841739" lon="9.938560759727151"><ele>577.0</ele><time>2026-05-02T09:15:59Z</time></trkpt><trkpt lat="44.75829529307416" lon="9.93846257625957"><ele>579.6666666666666</ele><time>2026-05-02T09:16:02Z</time></trkpt><trkpt lat="44.758280382142054" lon="9.938360357146102"><ele>582.3333333333334</ele><time>2026-05-02T09:16:05Z</time></trkpt><trkpt lat="44.75826245538503" lon="9.938258414246999"><ele>585.0</ele><time>2026-05-02T09:16:08Z</time></trkpt><trkpt lat="44.75823513111781" lon="9.9381673118721"><ele>585.0</ele><time>2026-05-02T09:16:11Z</time></trkpt><trkpt lat="44.75818870371842" lon="9.938063938167382"><ele>585.0</ele><time>2026-05-02T09:16:15Z</time></trkpt><trkpt lat="44.75813232234766" lon="9.937989879460096"><ele>585.0</ele><time>2026-05-02T09:16:18Z</time></trkpt><trkpt lat="44.758083973860394" lon="9.937926477932976"><ele>585.0</ele><time>2026-05-02T09:16:20.999Z</time></trkpt><trkpt lat="44.758044735362645" lon="9.937855316599485"><ele>585.0</ele><time>2026-05-02T09:16:23.999Z</time></trkpt><trkpt lat="44.758011509015404" lon="9.93777450029406"><ele>585.0</ele><time>2026-05-02T09:16:26.999Z</time></trkpt><trkpt lat="44.75798207364241" lon="9.937687014186206"><ele>585.0</ele><time>2026-05-02T09:16:29.999Z</time></trkpt><trkpt lat="44.7579615355817" lon="9.937594803770978"><ele>584.5714285714286</ele><time>2026-05-02T09:16:32.999Z</time></trkpt><trkpt lat="44.7579468710531" lon="9.937502801437892"><ele>584.1428571428571</ele><time>2026-05-02T09:16:35.999Z</time></trkpt><trkpt lat="44.757942714674535" lon="9.93740952754156"><ele>583.7142857142857</ele><time>2026-05-02T09:16:38.999Z</time></trkpt><trkpt lat="44.75794055713633" lon="9.937315238301974"><ele>583.2857142857142</ele><time>2026-05-02T09:16:41.999Z</time></trkpt><trkpt lat="44.75794623687761" lon="9.937218042418996"><ele>582.8571428571428</ele><time>2026-05-02T09:16:44.999Z</time></trkpt><trkpt lat="44.757958581031396" lon="9.93711666832051"><ele>582.4285714285714</ele><time>2026-05-02T09:16:47.999Z</time></trkpt><trkpt lat="44.75797422707026" lon="9.937005279751085"><ele>582.0</ele><time>2026-05-02T09:16:50.999Z</time></trkpt><trkpt lat="44.758000120304466" lon="9.936920707103948"><ele>582.0</ele><time>2026-05-02T09:16:53.999Z</time></trkpt><trkpt lat="44.758031621855345" lon="9.936836412669615"><ele>582.0</ele><time>2026-05-02T09:16:56.999Z</time></trkpt><trkpt lat="44.75806505180671" lon="9.936754807345674"><ele>582.0</ele><time>2026-05-02T09:16:59.999Z</time></trkpt><trkpt lat="44.758104147417725" lon="9.936671038297234"><ele>582.0</ele><time>2026-05-02T09:17:02.999Z</time></trkpt><trkpt lat="44.7581483179269" lon="9.93660217382681"><ele>582.0</ele><time>2026-05-02T09:17:05.999Z</time></trkpt><trkpt lat="44.75820134151071" lon="9.9365464939018"><ele>582.0</ele><time>2026-05-02T09:17:08.999Z</time></trkpt><trkpt lat="44.75825840159677" lon="9.936500383382082"><ele>582.0</ele><time>2026-05-02T09:17:11.998Z</time></trkpt><trkpt lat="44.75831458936628" lon="9.936443978108292"><ele>582.8571428571429</ele><time>2026-05-02T09:17:14.998Z</time></trkpt><trkpt lat="44.75835473097846" lon="9.936363460330355"><ele>583.7142857142857</ele><time>2026-05-02T09:17:17.998Z</time></trkpt><trkpt lat="44.758367323443565" lon="9.936257779909436"><ele>584.5714285714286</ele><time>2026-05-02T09:17:20.998Z</time></trkpt><trkpt lat="44.75834767746074" lon="9.93616999743954"><ele>585.4285714285714</ele><time>2026-05-02T09:17:23.998Z</time></trkpt><trkpt lat="44.758303021185895" lon="9.936107464536644"><ele>586.2857142857142</ele><time>2026-05-02T09:17:26.998Z</time></trkpt><trkpt lat="44.75824227337586" lon="9.936064930630906"><ele>587.1428571428571</ele><time>2026-05-02T09:17:29.998Z</time></trkpt><trkpt lat="44.758175223939595" lon="9.936036181845987"><ele>588.0</ele><time>2026-05-02T09:17:32.998Z</time></trkpt><trkpt lat="44.758098596539405" lon="9.9360109490793"><ele>588.0</ele><time>2026-05-02T09:17:35.998Z</time></trkpt><trkpt lat="44.75802821505792" lon="9.935989325287865"><ele>588.0</ele><time>2026-05-02T09:17:39.998Z</time></trkpt><trkpt lat="44.75796040840296" lon="9.935983638993466"><ele>588.0</ele><time>2026-05-02T09:17:42.998Z</time></trkpt><trkpt lat="44.757894113821614" lon="9.935997064656735"><ele>588.0</ele><time>2026-05-02T09:17:45.998Z</time></trkpt><trkpt lat="44.75783364478963" lon="9.936024987613724"><ele>588.0</ele><time>2026-05-02T09:17:48.998Z</time></trkpt><trkpt lat="44.757763089927835" lon="9.936084473316035"><ele>588.0</ele><time>2026-05-02T09:17:52Z</time></trkpt><trkpt lat="44.75771447745046" lon="9.936144004207405"><ele>588.0</ele><time>2026-05-02T09:17:55Z</time></trkpt><trkpt lat="44.757659590886135" lon="9.936234968037573"><ele>591.1666666666666</ele><time>2026-05-02T09:17:59Z</time></trkpt><trkpt lat="44.75761502630671" lon="9.936317503471697"><ele>594.3333333333334</ele><time>2026-05-02T09:18:02Z</time></trkpt><trkpt lat="44.757567616405794" lon="9.936422413369737"><ele>597.5</ele><time>2026-05-02T09:18:05Z</time></trkpt><trkpt lat="44.757529593517255" lon="9.936514861629572"><ele>600.6666666666667</ele><time>2026-05-02T09:18:09Z</time></trkpt><trkpt lat="44.75749498000478" lon="9.93660833708727"><ele>603.8333333333334</ele><time>2026-05-02T09:18:12Z</time></trkpt><trkpt lat="44.757461809583674" lon="9.93670599704968"><ele>607.0</ele><time>2026-05-02T09:18:15Z</time></trkpt><trkpt lat="44.75742732513415" lon="9.936812675568676"><ele>607.0</ele><time>2026-05-02T09:18:18Z</time></trkpt><trkpt lat="44.7573923673982" lon="9.936914131916488"><ele>607.0</ele><time>2026-05-02T09:18:21Z</time></trkpt><trkpt lat="44.75736439843123" lon="9.937012820708198"><ele>607.0</ele><time>2026-05-02T09:18:23.999Z</time></trkpt><trkpt lat="44.75733364351462" lon="9.937106689027297"><ele>607.0</ele><time>2026-05-02T09:18:26.999Z</time></trkpt><trkpt lat="44.75730638846529" lon="9.937196868840406"><ele>607.0</ele><time>2026-05-02T09:18:29.999Z</time></trkpt><trkpt lat="44.757272312147336" lon="9.937297382586413"><ele>607.0</ele><time>2026-05-02T09:18:32.999Z</time></trkpt><trkpt lat="44.75723638738513" lon="9.937401617893917"><ele>607.0</ele><time>2026-05-02T09:18:35.999Z</time></trkpt><trkpt lat="44.757194347003725" lon="9.937545983443055"><ele>607.0</ele><time>2026-05-02T09:18:38.999Z</time></trkpt><trkpt lat="44.75717487417095" lon="9.937667463884905"><ele>607.0</ele><time>2026-05-02T09:18:41.999Z</time></trkpt><trkpt lat="44.757167267925645" lon="9.937759545765719"><ele>607.0</ele><time>2026-05-02T09:18:44.999Z</time></trkpt><trkpt lat="44.757169234677185" lon="9.937863621159924"><ele>607.0</ele><time>2026-05-02T09:18:47.999Z</time></trkpt><trkpt lat="44.75717890724129" lon="9.937986581485111"><ele>607.0</ele><time>2026-05-02T09:18:50.999Z</time></trkpt><trkpt lat="44.75722653799347" lon="9.938092852362562"><ele>607.5714285714286</ele><time>2026-05-02T09:18:53.999Z</time></trkpt><trkpt lat="44.757281329286634" lon="9.938190395424385"><ele>608.1428571428571</ele><time>2026-05-02T09:18:56.999Z</time></trkpt><trkpt lat="44.757347419298924" lon="9.93827631059974"><ele>608.7142857142858</ele><time>2026-05-02T09:18:59.999Z</time></trkpt><trkpt lat="44.75739972996968" lon="9.938329737964267"><ele>609.2857142857142</ele><time>2026-05-02T09:19:01.999Z</time></trkpt><trkpt lat="44.757451255075125" lon="9.938387647880251"><ele>609.8571428571429</ele><time>2026-05-02T09:19:03.999Z</time></trkpt><trkpt lat="44.75750348270695" lon="9.938443316104003"><ele>610.4285714285714</ele><time>2026-05-02T09:19:05.999Z</time></trkpt><trkpt lat="44.75754661722569" lon="9.938509283123535"><ele>611.0</ele><time>2026-05-02T09:19:07.999Z</time></trkpt><trkpt lat="44.75758500024407" lon="9.938628458972387"><ele>611.0</ele><time>2026-05-02T09:19:10.999Z</time></trkpt><trkpt lat="44.757592930103606" lon="9.938741858984073"><ele>611.0</ele><time>2026-05-02T09:19:13.999Z</time></trkpt><trkpt lat="44.75757389123136" lon="9.938848153216822"><ele>611.0</ele><time>2026-05-02T09:19:16.998Z</time></trkpt><trkpt lat="44.75753857295713" lon="9.938924969818094"><ele>611.0</ele><time>2026-05-02T09:19:19.998Z</time></trkpt><trkpt lat="44.757483521180895" lon="9.938989919523413"><ele>611.0</ele><time>2026-05-02T09:19:22.998Z</time></trkpt><trkpt lat="44.75741471423235" lon="9.939029679889533"><ele>611.0</ele><time>2026-05-02T09:19:25.998Z</time></trkpt><trkpt lat="44.75733440192941" lon="9.939033504594605"><ele>611.0000000000001</ele><time>2026-05-02T09:19:28.998Z</time></trkpt><trkpt lat="44.757262613372745" lon="9.939004922782512"><ele>611.0</ele><time>2026-05-02T09:19:31.998Z</time></trkpt><trkpt lat="44.75720534927733" lon="9.9389603637638"><ele>611.0</ele><time>2026-05-02T09:19:34.998Z</time></trkpt><trkpt lat="44.757150185544596" lon="9.938906453816923"><ele>611.0</ele><time>2026-05-02T09:19:37.998Z</time></trkpt><trkpt lat="44.75710109633015" lon="9.938833871093664"><ele>611.0</ele><time>2026-05-02T09:19:40.998Z</time></trkpt><trkpt lat="44.75706373969421" lon="9.93874372476736"><ele>611.0000000000001</ele><time>2026-05-02T09:19:43.998Z</time></trkpt><trkpt lat="44.75703513201764" lon="9.93863205586549"><ele>611.0</ele><time>2026-05-02T09:19:46.998Z</time></trkpt><trkpt lat="44.75701638896269" lon="9.938526191028703"><ele>611.0</ele><time>2026-05-02T09:19:49.998Z</time></trkpt><trkpt lat="44.757000712725386" lon="9.938419741422091"><ele>611.0</ele><time>2026-05-02T09:19:52.998Z</time></trkpt><trkpt lat="44.756983734784896" lon="9.938314555231228"><ele>611.0</ele><time>2026-05-02T09:19:55.998Z</time></trkpt><trkpt lat="44.75696460502126" lon="9.938203727256516"><ele>611.0</ele><time>2026-05-02T09:19:59Z</time></trkpt><trkpt lat="44.75694688135288" lon="9.938098801188325"><ele>611.0</ele><time>2026-05-02T09:20:02Z</time></trkpt><trkpt lat="44.756933618217545" lon="9.938005271757724"><ele>611.0</ele><time>2026-05-02T09:20:04Z</time></trkpt><trkpt lat="44.756919402057" lon="9.937907008904382"><ele>611.3333333333333</ele><time>2026-05-02T09:20:07Z</time></trkpt><trkpt lat="44.756905284444855" lon="9.937803347389547"><ele>611.6666666666666</ele><time>2026-05-02T09:20:10Z</time></trkpt><trkpt lat="44.7568831733794" lon="9.937697661991663"><ele>612.0</ele><time>2026-05-02T09:20:13Z</time></trkpt><trkpt lat="44.756865313435995" lon="9.937589317836949"><ele>612.3333333333334</ele><time>2026-05-02T09:20:16Z</time></trkpt><trkpt lat="44.75684855614499" lon="9.93748114113571"><ele>612.6666666666667</ele><time>2026-05-02T09:20:19Z</time></trkpt><trkpt lat="44.75683567098122" lon="9.937372861751296"><ele>613.0</ele><time>2026-05-02T09:20:22Z</time></trkpt><trkpt lat="44.75683210242177" lon="9.937264543252605"><ele>614.0</ele><time>2026-05-02T09:20:25Z</time></trkpt><trkpt lat="44.75683068087658" lon="9.937159068108286"><ele>615.0</ele><time>2026-05-02T09:20:27.999Z</time></trkpt><trkpt lat="44.756841552809256" lon="9.937051957253827"><ele>616.0</ele><time>2026-05-02T09:20:30.999Z</time></trkpt><trkpt lat="44.75685046364781" lon="9.936952149816957"><ele>617.0</ele><time>2026-05-02T09:20:33.999Z</time></trkpt><trkpt lat="44.756823004564374" lon="9.936858536685458"><ele>618.0</ele><time>2026-05-02T09:20:37.999Z</time></trkpt><trkpt lat="44.75679864317566" lon="9.936954513639002"><ele>619.0</ele><time>2026-05-02T09:20:40.999Z</time></trkpt><trkpt lat="44.756756931225226" lon="9.937026213182534"><ele>620.0</ele><time>2026-05-02T09:21:44.998Z</time></trkpt><trkpt lat="44.756762160029474" lon="9.937122253006743"><ele>620.0</ele><time>2026-05-02T09:21:47.998Z</time></trkpt><trkpt lat="44.7567586839865" lon="9.937250994419914"><ele>620.0</ele><time>2026-05-02T09:21:50.998Z</time></trkpt><trkpt lat="44.75676115082873" lon="9.93736086214639"><ele>620.0</ele><time>2026-05-02T09:21:52.998Z</time></trkpt><trkpt lat="44.75677670161308" lon="9.937487103810968"><ele>620.0</ele><time>2026-05-02T09:21:54.998Z</time></trkpt><trkpt lat="44.75680284638301" lon="9.93762543067313"><ele>620.0</ele><time>2026-05-02T09:21:56.998Z</time></trkpt><trkpt lat="44.75682788043497" lon="9.93777419365525"><ele>619.1666666666666</ele><time>2026-05-02T09:21:58.998Z</time></trkpt><trkpt lat="44.75685303748703" lon="9.937933174897488"><ele>618.3333333333333</ele><time>2026-05-02T09:22:00.998Z</time></trkpt><trkpt lat="44.75688124397185" lon="9.93810335336653"><ele>617.5</ele><time>2026-05-02T09:22:03Z</time></trkpt><trkpt lat="44.75689483438202" lon="9.938194147231172"><ele>616.6666666666666</ele><time>2026-05-02T09:22:04Z</time></trkpt><trkpt lat="44.756914461474516" lon="9.93828610960746"><ele>615.8333333333334</ele><time>2026-05-02T09:22:05Z</time></trkpt><trkpt lat="44.75693325604034" lon="9.93837952034671"><ele>615.0</ele><time>2026-05-02T09:22:06Z</time></trkpt><trkpt lat="44.756948359967495" lon="9.938472796276722"><ele>614.4285714285714</ele><time>2026-05-02T09:22:07Z</time></trkpt><trkpt lat="44.75696596186574" lon="9.938562730184273"><ele>613.8571428571429</ele><time>2026-05-02T09:22:08Z</time></trkpt><trkpt lat="44.75698713026365" lon="9.93864977894644"><ele>613.2857142857143</ele><time>2026-05-02T09:22:09Z</time></trkpt><trkpt lat="44.75700750865807" lon="9.938739203632222"><ele>612.7142857142858</ele><time>2026-05-02T09:22:10Z</time></trkpt><trkpt lat="44.75704122487118" lon="9.93882831344144"><ele>612.1428571428571</ele><time>2026-05-02T09:22:11Z</time></trkpt><trkpt lat="44.757088739662706" lon="9.93890900205465"><ele>611.5714285714287</ele><time>2026-05-02T09:22:12Z</time></trkpt><trkpt lat="44.75714687802625" lon="9.93897901996778"><ele>611.0</ele><time>2026-05-02T09:22:13Z</time></trkpt><trkpt lat="44.75721489216214" lon="9.939033595683956"><ele>611.0</ele><time>2026-05-02T09:22:14Z</time></trkpt><trkpt lat="44.75728979672601" lon="9.939060511443163"><ele>611.0</ele><time>2026-05-02T09:22:15Z</time></trkpt><trkpt lat="44.75736834750404" lon="9.939083229937971"><ele>611.0</ele><time>2026-05-02T09:22:16Z</time></trkpt><trkpt lat="44.75744797030919" lon="9.939058011493211"><ele>611.0</ele><time>2026-05-02T09:22:17Z</time></trkpt><trkpt lat="44.75752654267697" lon="9.939026406124416"><ele>611.0</ele><time>2026-05-02T09:22:18Z</time></trkpt><trkpt lat="44.75759320838562" lon="9.938946044589487"><ele>611.0</ele><time>2026-05-02T09:22:19Z</time></trkpt><trkpt lat="44.7576364757987" lon="9.938825569781645"><ele>611.0</ele><time>2026-05-02T09:22:20Z</time></trkpt><trkpt lat="44.75765693192445" lon="9.938698661109802"><ele>611.0</ele><time>2026-05-02T09:22:21Z</time></trkpt><trkpt lat="44.75763960883047" lon="9.938566734007908"><ele>611.0</ele><time>2026-05-02T09:22:22Z</time></trkpt><trkpt lat="44.7576001321187" lon="9.93845225102069"><ele>611.0</ele><time>2026-05-02T09:22:23Z</time></trkpt><trkpt lat="44.75751632093034" lon="9.938383449204334"><ele>611.0</ele><time>2026-05-02T09:22:24Z</time></trkpt><trkpt lat="44.757443881651255" lon="9.938314886591584"><ele>611.4</ele><time>2026-05-02T09:22:25Z</time></trkpt><trkpt lat="44.75736995958853" lon="9.938246891576812"><ele>611.8</ele><time>2026-05-02T09:22:26Z</time></trkpt><trkpt lat="44.757298491300624" lon="9.938169284024843"><ele>612.1999999999999</ele><time>2026-05-02T09:22:27Z</time></trkpt><trkpt lat="44.75723735948898" lon="9.938072613701712"><ele>612.6</ele><time>2026-05-02T09:22:28Z</time></trkpt><trkpt lat="44.7571944621255" lon="9.937962240672952"><ele>613.0</ele><time>2026-05-02T09:22:29Z</time></trkpt><trkpt lat="44.75719411756677" lon="9.93783417317975"><ele>613.0</ele><time>2026-05-02T09:22:30Z</time></trkpt><trkpt lat="44.75719424600401" lon="9.937711535220926"><ele>613.0</ele><time>2026-05-02T09:22:31Z</time></trkpt><trkpt lat="44.75721844673059" lon="9.937594048701731"><ele>613.0</ele><time>2026-05-02T09:22:32Z</time></trkpt><trkpt lat="44.75724183771051" lon="9.937463728598939"><ele>613.0</ele><time>2026-05-02T09:22:32.999Z</time></trkpt><trkpt lat="44.757283956528575" lon="9.93734352371434"><ele>613.0</ele><time>2026-05-02T09:22:33.999Z</time></trkpt><trkpt lat="44.75732509952649" lon="9.937222665141725"><ele>612.8</ele><time>2026-05-02T09:22:34.999Z</time></trkpt><trkpt lat="44.757366599358555" lon="9.937097739486283"><ele>612.5999999999999</ele><time>2026-05-02T09:22:35.999Z</time></trkpt><trkpt lat="44.757410582309426" lon="9.936972797445558"><ele>612.4000000000001</ele><time>2026-05-02T09:22:36.999Z</time></trkpt><trkpt lat="44.75745371759692" lon="9.936846455630794"><ele>612.2</ele><time>2026-05-02T09:22:37.999Z</time></trkpt><trkpt lat="44.75749603380669" lon="9.936721771829184"><ele>612.0</ele><time>2026-05-02T09:22:38.999Z</time></trkpt><trkpt lat="44.75754151544107" lon="9.936603993784452"><ele>612.0</ele><time>2026-05-02T09:22:39.999Z</time></trkpt><trkpt lat="44.757588196099164" lon="9.936481905276533"><ele>612.0</ele><time>2026-05-02T09:22:40.999Z</time></trkpt><trkpt lat="44.75763933987125" lon="9.93636215256064"><ele>612.0</ele><time>2026-05-02T09:22:41.999Z</time></trkpt><trkpt lat="44.75769003622003" lon="9.936253032592651"><ele>612.0</ele><time>2026-05-02T09:22:42.999Z</time></trkpt><trkpt lat="44.75775157214574" lon="9.93614850523234"><ele>612.0</ele><time>2026-05-02T09:22:43.999Z</time></trkpt><trkpt lat="44.75782260698914" lon="9.936069773701728"><ele>608.0</ele><time>2026-05-02T09:22:44.999Z</time></trkpt><trkpt lat="44.75789842579683" lon="9.936017540484638"><ele>604.0</ele><time>2026-05-02T09:22:45.999Z</time></trkpt><trkpt lat="44.75797597255638" lon="9.935995424658381"><ele>600.0</ele><time>2026-05-02T09:22:46.999Z</time></trkpt><trkpt lat="44.7580568466791" lon="9.936010906521354"><ele>596.0</ele><time>2026-05-02T09:22:47.999Z</time></trkpt><trkpt lat="44.75813760346629" lon="9.936035399704295"><ele>592.0</ele><time>2026-05-02T09:22:48.999Z</time></trkpt><trkpt lat="44.75821411384955" lon="9.93604817918457"><ele>588.0</ele><time>2026-05-02T09:22:49.999Z</time></trkpt><trkpt lat="44.75828453269952" lon="9.93607446434075"><ele>588.0</ele><time>2026-05-02T09:22:50.999Z</time></trkpt><trkpt lat="44.75833412819511" lon="9.936134767256645"><ele>588.0</ele><time>2026-05-02T09:22:51.999Z</time></trkpt><trkpt lat="44.75835012324708" lon="9.936235862228882"><ele>588.0</ele><time>2026-05-02T09:22:52.999Z</time></trkpt><trkpt lat="44.758325252539926" lon="9.936335965769599"><ele>588.0</ele><time>2026-05-02T09:22:53.999Z</time></trkpt><trkpt lat="44.75825763053739" lon="9.936409101485904"><ele>588.0</ele><time>2026-05-02T09:22:54.999Z</time></trkpt><trkpt lat="44.75817660804479" lon="9.936460912607512"><ele>588.0</ele><time>2026-05-02T09:22:55.999Z</time></trkpt><trkpt lat="44.75809894362832" lon="9.936517455916507"><ele>588.0</ele><time>2026-05-02T09:22:56.999Z</time></trkpt><trkpt lat="44.75803869042701" lon="9.936612687306612"><ele>588.0</ele><time>2026-05-02T09:22:57.999Z</time></trkpt><trkpt lat="44.75799276288335" lon="9.936720043736255"><ele>588.0</ele><time>2026-05-02T09:22:58.999Z</time></trkpt><trkpt lat="44.75794667303871" lon="9.936837730669753"><ele>588.0</ele><time>2026-05-02T09:22:59.999Z</time></trkpt><trkpt lat="44.757914399781676" lon="9.936964680065078"><ele>588.0</ele><time>2026-05-02T09:23:00.999Z</time></trkpt><trkpt lat="44.75788980596418" lon="9.937096819297773"><ele>587.4</ele><time>2026-05-02T09:23:01.999Z</time></trkpt><trkpt lat="44.757872167099066" lon="9.937237082173338"><ele>586.8</ele><time>2026-05-02T09:23:02.999Z</time></trkpt><trkpt lat="44.75786643800593" lon="9.937381936524655"><ele>586.2</ele><time>2026-05-02T09:23:03.999Z</time></trkpt><trkpt lat="44.757876627289214" lon="9.937522628861434"><ele>585.6</ele><time>2026-05-02T09:23:04.999Z</time></trkpt><trkpt lat="44.75790119606745" lon="9.93765757912141"><ele>585.0</ele><time>2026-05-02T09:23:05.999Z</time></trkpt><trkpt lat="44.75794368811382" lon="9.93778809901516"><ele>585.0</ele><time>2026-05-02T09:23:06.999Z</time></trkpt><trkpt lat="44.758004205764884" lon="9.937907544655744"><ele>585.0</ele><time>2026-05-02T09:23:07.999Z</time></trkpt><trkpt lat="44.758077636533216" lon="9.938010530344938"><ele>585.0</ele><time>2026-05-02T09:23:08.999Z</time></trkpt><trkpt lat="44.75814662323336" lon="9.93811353122394"><ele>585.0</ele><time>2026-05-02T09:23:09.999Z</time></trkpt><trkpt lat="44.75818996647896" lon="9.938234745538637"><ele>585.0</ele><time>2026-05-02T09:23:10.999Z</time></trkpt><trkpt lat="44.75821012641624" lon="9.938374121484346"><ele>586.4</ele><time>2026-05-02T09:23:11.999Z</time></trkpt><trkpt lat="44.7582253104733" lon="9.938506248633095"><ele>587.8</ele><time>2026-05-02T09:23:12.999Z</time></trkpt><trkpt lat="44.758242893023386" lon="9.938636509926448"><ele>589.2</ele><time>2026-05-02T09:23:13.999Z</time></trkpt><trkpt lat="44.758287308480156" lon="9.938748897265299"><ele>590.6</ele><time>2026-05-02T09:23:14.999Z</time></trkpt><trkpt lat="44.758354744557124" lon="9.938836247766138"><ele>592.0</ele><time>2026-05-02T09:23:15.999Z</time></trkpt><trkpt lat="44.758441537068265" lon="9.938890534548399"><ele>587.4</ele><time>2026-05-02T09:23:16.999Z</time></trkpt><trkpt lat="44.75853531223762" lon="9.938908028228683"><ele>582.8000000000001</ele><time>2026-05-02T09:23:17.999Z</time></trkpt><trkpt lat="44.758631687834104" lon="9.938904796009227"><ele>578.2</ele><time>2026-05-02T09:23:18.999Z</time></trkpt><trkpt lat="44.75873225872452" lon="9.938903721536864"><ele>573.6</ele><time>2026-05-02T09:23:19.999Z</time></trkpt><trkpt lat="44.75882886328639" lon="9.938911516371908"><ele>569.0</ele><time>2026-05-02T09:23:20.999Z</time></trkpt><trkpt lat="44.7589177149835" lon="9.938960588713982"><ele>569.0</ele><time>2026-05-02T09:23:21.999Z</time></trkpt><trkpt lat="44.75899143720283" lon="9.939055034998734"><ele>569.0</ele><time>2026-05-02T09:23:22.999Z</time></trkpt><trkpt lat="44.75905512488696" lon="9.939166438129938"><ele>569.0</ele><time>2026-05-02T09:23:23.999Z</time></trkpt><trkpt lat="44.75910353909953" lon="9.93929793710678"><ele>569.0</ele><time>2026-05-02T09:23:24.999Z</time></trkpt><trkpt lat="44.75913526434323" lon="9.939442664654944"><ele>569.0</ele><time>2026-05-02T09:23:25.998Z</time></trkpt><trkpt lat="44.7591492373174" lon="9.939590449800503"><ele>569.2</ele><time>2026-05-02T09:23:26.998Z</time></trkpt><trkpt lat="44.75914325858511" lon="9.939737570227955"><ele>569.4</ele><time>2026-05-02T09:23:27.998Z</time></trkpt><trkpt lat="44.75910524519128" lon="9.939876299782673"><ele>569.6</ele><time>2026-05-02T09:23:28.998Z</time></trkpt><trkpt lat="44.759042428094446" lon="9.940001341455728"><ele>569.8</ele><time>2026-05-02T09:23:29.998Z</time></trkpt><trkpt lat="44.758977556881085" lon="9.94011626163141"><ele>570.0</ele><time>2026-05-02T09:23:30.998Z</time></trkpt><trkpt lat="44.758939140118336" lon="9.940246904781421"><ele>569.0</ele><time>2026-05-02T09:23:31.998Z</time></trkpt><trkpt lat="44.75893722274081" lon="9.940387097175375"><ele>568.0</ele><time>2026-05-02T09:23:32.998Z</time></trkpt><trkpt lat="44.7589648366712" lon="9.940526381330878"><ele>567.0</ele><time>2026-05-02T09:23:33.998Z</time></trkpt><trkpt lat="44.75900721099293" lon="9.94065764798608"><ele>566.0</ele><time>2026-05-02T09:23:34.998Z</time></trkpt><trkpt lat="44.75902441990996" lon="9.940799077429084"><ele>565.0</ele><time>2026-05-02T09:23:35.998Z</time></trkpt><trkpt lat="44.75901257483244" lon="9.940944908434902"><ele>563.2</ele><time>2026-05-02T09:23:36.998Z</time></trkpt><trkpt lat="44.75898717946413" lon="9.941090296300416"><ele>561.4</ele><time>2026-05-02T09:23:37.998Z</time></trkpt><trkpt lat="44.75896119557788" lon="9.941237181769019"><ele>559.6</ele><time>2026-05-02T09:23:38.998Z</time></trkpt><trkpt lat="44.758935108128874" lon="9.941388200338908"><ele>557.8</ele><time>2026-05-02T09:23:39.998Z</time></trkpt><trkpt lat="44.75890563902914" lon="9.941537714627293"><ele>556.0</ele><time>2026-05-02T09:23:40.998Z</time></trkpt><trkpt lat="44.75887088986667" lon="9.941690254691144"><ele>554.4</ele><time>2026-05-02T09:23:41.998Z</time></trkpt><trkpt lat="44.758843254224274" lon="9.941844195030328"><ele>552.8</ele><time>2026-05-02T09:23:42.998Z</time></trkpt><trkpt lat="44.75882711459669" lon="9.94200295484681"><ele>551.1999999999999</ele><time>2026-05-02T09:23:43.998Z</time></trkpt><trkpt lat="44.75881896109943" lon="9.94215519708631"><ele>549.6</ele><time>2026-05-02T09:23:44.998Z</time></trkpt><trkpt lat="44.75882287944661" lon="9.942312421317837"><ele>548.0</ele><time>2026-05-02T09:23:45.998Z</time></trkpt><trkpt lat="44.75884053397801" lon="9.942471977471747"><ele>547.4</ele><time>2026-05-02T09:23:46.998Z</time></trkpt><trkpt lat="44.75886575718149" lon="9.942629666538593"><ele>546.8</ele><time>2026-05-02T09:23:47.998Z</time></trkpt><trkpt lat="44.758895867963524" lon="9.942774473982901"><ele>546.2</ele><time>2026-05-02T09:23:48.998Z</time></trkpt><trkpt lat="44.75892210367961" lon="9.94290626129318"><ele>545.6</ele><time>2026-05-02T09:23:49.998Z</time></trkpt><trkpt lat="44.758940254593384" lon="9.943014485774933"><ele>545.0</ele><time>2026-05-02T09:23:50.998Z</time></trkpt><trkpt lat="44.758980648166414" lon="9.943088743463878"><ele>545.0</ele><time>2026-05-02T09:23:51.998Z</time></trkpt><trkpt lat="44.75909975342442" lon="9.943050534261856"><ele>545.0</ele><time>2026-05-02T09:23:53.998Z</time></trkpt><trkpt lat="44.759124704010496" lon="9.942933303286827"><ele>545.0</ele><time>2026-05-02T09:23:54.998Z</time></trkpt><trkpt lat="44.75910801430012" lon="9.942816354301227"><ele>545.0</ele><time>2026-05-02T09:23:55.998Z</time></trkpt><trkpt lat="44.75911638313313" lon="9.942711405892078"><ele>545.0</ele><time>2026-05-02T09:23:56.998Z</time></trkpt><trkpt lat="44.759112446159556" lon="9.94259981984051"><ele>545.0</ele><time>2026-05-02T09:23:57.998Z</time></trkpt><trkpt lat="44.75910368825796" lon="9.942480087124217"><ele>545.6</ele><time>2026-05-02T09:23:58.998Z</time></trkpt><trkpt lat="44.75911528631256" lon="9.94235780343887"><ele>546.2</ele><time>2026-05-02T09:23:59.998Z</time></trkpt><trkpt lat="44.75913955651846" lon="9.942234429967353"><ele>546.8</ele><time>2026-05-02T09:24:00.998Z</time></trkpt><trkpt lat="44.759180941189136" lon="9.942117590443823"><ele>547.4</ele><time>2026-05-02T09:24:01.998Z</time></trkpt><trkpt lat="44.75923684826112" lon="9.9420052083118"><ele>548.0</ele><time>2026-05-02T09:24:02.998Z</time></trkpt><trkpt lat="44.75929624081107" lon="9.941898288274553"><ele>548.0</ele><time>2026-05-02T09:24:03.998Z</time></trkpt><trkpt lat="44.75935479684724" lon="9.94178473629018"><ele>548.0</ele><time>2026-05-02T09:24:04.998Z</time></trkpt><trkpt lat="44.75941197735313" lon="9.941666182937897"><ele>548.0</ele><time>2026-05-02T09:24:05.998Z</time></trkpt><trkpt lat="44.759468819316496" lon="9.941544081974948"><ele>548.0</ele><time>2026-05-02T09:24:06.998Z</time></trkpt><trkpt lat="44.759530196273765" lon="9.941422700345935"><ele>548.0</ele><time>2026-05-02T09:24:07.998Z</time></trkpt><trkpt lat="44.7595954074222" lon="9.941299083003184"><ele>546.4</ele><time>2026-05-02T09:24:09Z</time></trkpt><trkpt lat="44.75965948208602" lon="9.941172948130683"><ele>544.8</ele><time>2026-05-02T09:24:10Z</time></trkpt><trkpt lat="44.759731261534014" lon="9.941050050828082"><ele>543.2</ele><time>2026-05-02T09:24:11Z</time></trkpt><trkpt lat="44.75980378847359" lon="9.940931108561808"><ele>541.6</ele><time>2026-05-02T09:24:12Z</time></trkpt><trkpt lat="44.759879243397215" lon="9.940812226967823"><ele>540.0</ele><time>2026-05-02T09:24:13Z</time></trkpt><trkpt lat="44.75995250550668" lon="9.940694943933716"><ele>540.0</ele><time>2026-05-02T09:24:14Z</time></trkpt><trkpt lat="44.760025630660884" lon="9.940583627164255"><ele>540.0</ele><time>2026-05-02T09:24:15Z</time></trkpt><trkpt lat="44.760096700904136" lon="9.940473670839802"><ele>540.0</ele><time>2026-05-02T09:24:16Z</time></trkpt><trkpt lat="44.76017799334196" lon="9.940376360448633"><ele>540.0</ele><time>2026-05-02T09:24:17Z</time></trkpt><trkpt lat="44.76027871177174" lon="9.940317916724895"><ele>540.0</ele><time>2026-05-02T09:24:18Z</time></trkpt><trkpt lat="44.76038546301975" lon="9.940285620654649"><ele>537.2</ele><time>2026-05-02T09:24:19Z</time></trkpt><trkpt lat="44.76049018315318" lon="9.940257099485908"><ele>534.4</ele><time>2026-05-02T09:24:20Z</time></trkpt><trkpt lat="44.76059616914776" lon="9.940219172412398"><ele>531.6</ele><time>2026-05-02T09:24:21Z</time></trkpt><trkpt lat="44.76069747533877" lon="9.940163768932338"><ele>528.8</ele><time>2026-05-02T09:24:22Z</time></trkpt><trkpt lat="44.76078902398955" lon="9.940113912843472"><ele>526.0</ele><time>2026-05-02T09:24:23Z</time></trkpt><trkpt lat="44.76086726691346" lon="9.940080342043647"><ele>526.0</ele><time>2026-05-02T09:24:24Z</time></trkpt><trkpt lat="44.760936757329425" lon="9.940089218204054"><ele>526.0</ele><time>2026-05-02T09:24:25Z</time></trkpt><trkpt lat="44.760989535011745" lon="9.9401505419606"><ele>526.0</ele><time>2026-05-02T09:24:26Z</time></trkpt><trkpt lat="44.76100204276308" lon="9.94025368890272"><ele>526.0</ele><time>2026-05-02T09:24:27Z</time></trkpt><trkpt lat="44.760960969882404" lon="9.940362295497376"><ele>526.0</ele><time>2026-05-02T09:24:28Z</time></trkpt><trkpt lat="44.760896671392175" lon="9.940440964518142"><ele>526.0</ele><time>2026-05-02T09:24:29Z</time></trkpt><trkpt lat="44.76083565483399" lon="9.940518786384462"><ele>526.0</ele><time>2026-05-02T09:24:30Z</time></trkpt><trkpt lat="44.76077917522189" lon="9.940606062915023"><ele>526.0</ele><time>2026-05-02T09:24:31Z</time></trkpt><trkpt lat="44.76072013199347" lon="9.940700575457647"><ele>526.0</ele><time>2026-05-02T09:24:32Z</time></trkpt><trkpt lat="44.76065872705255" lon="9.940795110144721"><ele>526.0</ele><time>2026-05-02T09:24:33Z</time></trkpt><trkpt lat="44.76059681718838" lon="9.940893182812308"><ele>526.0</ele><time>2026-05-02T09:24:34Z</time></trkpt><trkpt lat="44.760538773253145" lon="9.941001280204821"><ele>523.8</ele><time>2026-05-02T09:24:35Z</time></trkpt><trkpt lat="44.76049185278229" lon="9.94112243070869"><ele>521.6</ele><time>2026-05-02T09:24:36Z</time></trkpt><trkpt lat="44.760450224628684" lon="9.941252851142034"><ele>519.4</ele><time>2026-05-02T09:24:37Z</time></trkpt><trkpt lat="44.760418682739136" lon="9.941387993202236"><ele>517.2</ele><time>2026-05-02T09:24:37.999Z</time></trkpt><trkpt lat="44.760388750036256" lon="9.941527597764097"><ele>515.0</ele><time>2026-05-02T09:24:38.999Z</time></trkpt><trkpt lat="44.760359728298944" lon="9.941668749785705"><ele>514.6</ele><time>2026-05-02T09:24:39.999Z</time></trkpt><trkpt lat="44.76033122627889" lon="9.94181067240483"><ele>514.2</ele><time>2026-05-02T09:24:40.999Z</time></trkpt><trkpt lat="44.760303211892946" lon="9.941955911378288"><ele>513.8</ele><time>2026-05-02T09:24:41.999Z</time></trkpt><trkpt lat="44.76027804944936" lon="9.942104284153663"><ele>513.4</ele><time>2026-05-02T09:24:42.999Z</time></trkpt><trkpt lat="44.760255536039764" lon="9.94225487309542"><ele>513.0</ele><time>2026-05-02T09:24:43.999Z</time></trkpt><trkpt lat="44.760237727100815" lon="9.942399173696458"><ele>513.0</ele><time>2026-05-02T09:24:44.999Z</time></trkpt><trkpt lat="44.76023677797839" lon="9.942537596080207"><ele>513.0</ele><time>2026-05-02T09:24:45.999Z</time></trkpt><trkpt lat="44.760266514755706" lon="9.942670910867236"><ele>513.0</ele><time>2026-05-02T09:24:46.999Z</time></trkpt><trkpt lat="44.76032111882794" lon="9.94279049956847"><ele>513.0</ele><time>2026-05-02T09:24:47.999Z</time></trkpt><trkpt lat="44.76038631189728" lon="9.942900469372185"><ele>513.0</ele><time>2026-05-02T09:24:48.999Z</time></trkpt><trkpt lat="44.760450571368125" lon="9.943011907843337"><ele>513.4</ele><time>2026-05-02T09:24:49.999Z</time></trkpt><trkpt lat="44.76050053976506" lon="9.943132111107467"><ele>513.8</ele><time>2026-05-02T09:24:50.999Z</time></trkpt><trkpt lat="44.760535021460875" lon="9.943262996013468"><ele>514.2</ele><time>2026-05-02T09:24:51.999Z</time></trkpt><trkpt lat="44.760565636120674" lon="9.943403352359493"><ele>514.6</ele><time>2026-05-02T09:24:52.999Z</time></trkpt><trkpt lat="44.760595774583486" lon="9.943544204619199"><ele>515.0</ele><time>2026-05-02T09:24:53.999Z</time></trkpt><trkpt lat="44.76062829263552" lon="9.943681657890387"><ele>514.1666666666666</ele><time>2026-05-02T09:24:54.999Z</time></trkpt><trkpt lat="44.76066086734076" lon="9.943817449359393"><ele>513.3333333333333</ele><time>2026-05-02T09:24:55.999Z</time></trkpt><trkpt lat="44.76070208617113" lon="9.943944387504152"><ele>512.5</ele><time>2026-05-02T09:24:56.999Z</time></trkpt><trkpt lat="44.760764509210205" lon="9.944041270794965"><ele>511.66666666666663</ele><time>2026-05-02T09:24:57.999Z</time></trkpt><trkpt lat="44.76083093754039" lon="9.944084914852642"><ele>510.8333333333333</ele><time>2026-05-02T09:24:58.999Z</time></trkpt><trkpt lat="44.760899232874834" lon="9.944069424892966"><ele>510.0</ele><time>2026-05-02T09:24:59.999Z</time></trkpt><trkpt lat="44.76097226999537" lon="9.94400436454085"><ele>510.0</ele><time>2026-05-02T09:25:00.999Z</time></trkpt><trkpt lat="44.7610050544939" lon="9.943884642019958"><ele>510.0</ele><time>2026-05-02T09:25:01.999Z</time></trkpt><trkpt lat="44.76102827715761" lon="9.94377138945217"><ele>510.0</ele><time>2026-05-02T09:25:02.999Z</time></trkpt><trkpt lat="44.761048626752704" lon="9.943659949120526"><ele>510.0</ele><time>2026-05-02T09:25:03.999Z</time></trkpt><trkpt lat="44.76106224110418" lon="9.943543982931226"><ele>510.0</ele><time>2026-05-02T09:25:04.999Z</time></trkpt><trkpt lat="44.761069987682724" lon="9.943431537000391"><ele>510.0</ele><time>2026-05-02T09:25:05.999Z</time></trkpt><trkpt lat="44.76106254244979" lon="9.943306336561779"><ele>511.0</ele><time>2026-05-02T09:25:06.999Z</time></trkpt><trkpt lat="44.761020706536584" lon="9.943190889185217"><ele>512.0</ele><time>2026-05-02T09:25:07.999Z</time></trkpt><trkpt lat="44.760987080915996" lon="9.943074912440116"><ele>513.0</ele><time>2026-05-02T09:25:08.999Z</time></trkpt><trkpt lat="44.76095715273348" lon="9.942956672331755"><ele>514.0</ele><time>2026-05-02T09:25:09.999Z</time></trkpt><trkpt lat="44.760950057746435" lon="9.942823689781855"><ele>515.0</ele><time>2026-05-02T09:25:10.999Z</time></trkpt><trkpt lat="44.760965362928005" lon="9.942690926303285"><ele>515.0</ele><time>2026-05-02T09:25:11.999Z</time></trkpt><trkpt lat="44.761003146953875" lon="9.942569550950504"><ele>515.0</ele><time>2026-05-02T09:25:12.999Z</time></trkpt><trkpt lat="44.76106098251577" lon="9.942452217283474"><ele>515.0</ele><time>2026-05-02T09:25:13.999Z</time></trkpt><trkpt lat="44.76111924888629" lon="9.942336574314727"><ele>515.0</ele><time>2026-05-02T09:25:14.999Z</time></trkpt><trkpt lat="44.761181370094675" lon="9.942222793188687"><ele>515.0</ele><time>2026-05-02T09:25:15.999Z</time></trkpt><trkpt lat="44.76124145360307" lon="9.942108370095369"><ele>512.4</ele><time>2026-05-02T09:25:16.999Z</time></trkpt><trkpt lat="44.76130216289945" lon="9.941996180366157"><ele>509.8</ele><time>2026-05-02T09:25:17.999Z</time></trkpt><trkpt lat="44.76137412025432" lon="9.94189254747845"><ele>507.20000000000005</ele><time>2026-05-02T09:25:18.999Z</time></trkpt><trkpt lat="44.761457780291956" lon="9.941804883744894"><ele>504.6</ele><time>2026-05-02T09:25:19.999Z</time></trkpt><trkpt lat="44.7615522122085" lon="9.941735578206263"><ele>502.0</ele><time>2026-05-02T09:25:20.999Z</time></trkpt><trkpt lat="44.76165151890539" lon="9.941690046283894"><ele>502.0</ele><time>2026-05-02T09:25:21.999Z</time></trkpt><trkpt lat="44.76175486298058" lon="9.94167322785096"><ele>502.00000000000006</ele><time>2026-05-02T09:25:22.999Z</time></trkpt><trkpt lat="44.76185894084141" lon="9.941676917584015"><ele>502.00000000000006</ele><time>2026-05-02T09:25:23.999Z</time></trkpt><trkpt lat="44.76196497021487" lon="9.941694245036212"><ele>502.0</ele><time>2026-05-02T09:25:24.999Z</time></trkpt><trkpt lat="44.762071909037026" lon="9.941693084012527"><ele>502.0</ele><time>2026-05-02T09:25:25.999Z</time></trkpt><trkpt lat="44.762173309022685" lon="9.941647270064925"><ele>499.8</ele><time>2026-05-02T09:25:26.999Z</time></trkpt><trkpt lat="44.76226108025343" lon="9.941555760511482"><ele>497.6</ele><time>2026-05-02T09:25:27.999Z</time></trkpt><trkpt lat="44.76233622620122" lon="9.941433618173377"><ele>495.40000000000003</ele><time>2026-05-02T09:25:28.999Z</time></trkpt><trkpt lat="44.762406677804755" lon="9.941308861033797"><ele>493.20000000000005</ele><time>2026-05-02T09:25:29.999Z</time></trkpt><trkpt lat="44.762472313641666" lon="9.941191416814595"><ele>491.0</ele><time>2026-05-02T09:25:30.999Z</time></trkpt><trkpt lat="44.762538652851845" lon="9.941090850317998"><ele>491.0</ele><time>2026-05-02T09:25:31.998Z</time></trkpt><trkpt lat="44.762627564057496" lon="9.941037241550863"><ele>491.0</ele><time>2026-05-02T09:25:32.998Z</time></trkpt><trkpt lat="44.7627294990983" lon="9.941034478127543"><ele>491.0</ele><time>2026-05-02T09:25:33.998Z</time></trkpt><trkpt lat="44.76282246948497" lon="9.94108024296615"><ele>491.0</ele><time>2026-05-02T09:25:34.998Z</time></trkpt><trkpt lat="44.762911615713364" lon="9.941150185840025"><ele>491.0</ele><time>2026-05-02T09:25:35.998Z</time></trkpt><trkpt lat="44.76299787715049" lon="9.94119516948012"><ele>488.4</ele><time>2026-05-02T09:25:36.998Z</time></trkpt><trkpt lat="44.76309312115544" lon="9.941203252727055"><ele>485.8</ele><time>2026-05-02T09:25:37.998Z</time></trkpt><trkpt lat="44.76319090308471" lon="9.941182681306735"><ele>483.19999999999993</ele><time>2026-05-02T09:25:38.998Z</time></trkpt><trkpt lat="44.763285372429685" lon="9.94113713455304"><ele>480.59999999999997</ele><time>2026-05-02T09:25:39.998Z</time></trkpt><trkpt lat="44.763381338485296" lon="9.941078714170384"><ele>478.0</ele><time>2026-05-02T09:25:40.998Z</time></trkpt><trkpt lat="44.76347426734515" lon="9.941015512920739"><ele>476.59999999999997</ele><time>2026-05-02T09:25:41.998Z</time></trkpt><trkpt lat="44.76356719280624" lon="9.940947347555973"><ele>475.19999999999993</ele><time>2026-05-02T09:25:42.998Z</time></trkpt><trkpt lat="44.76365506393457" lon="9.94086373923842"><ele>473.8</ele><time>2026-05-02T09:25:43.998Z</time></trkpt><trkpt lat="44.76372204830806" lon="9.940746994946348"><ele>472.4</ele><time>2026-05-02T09:25:44.998Z</time></trkpt><trkpt lat="44.76377502936069" lon="9.94062607547914"><ele>471.0</ele><time>2026-05-02T09:25:45.998Z</time></trkpt><trkpt lat="44.76381429050575" lon="9.940528888159294"><ele>471.0</ele><time>2026-05-02T09:25:46.998Z</time></trkpt><trkpt lat="44.76391698931457" lon="9.940476512644526"><ele>471.0</ele><time>2026-05-02T09:25:48.998Z</time></trkpt><trkpt lat="44.763961253835866" lon="9.940559527322128"><ele>471.0</ele><time>2026-05-02T09:25:49.998Z</time></trkpt><trkpt lat="44.76394637870953" lon="9.940675945651487"><ele>471.0</ele><time>2026-05-02T09:25:50.998Z</time></trkpt><trkpt lat="44.76390388519578" lon="9.940769631472124"><ele>471.0</ele><time>2026-05-02T09:25:51.998Z</time></trkpt><trkpt lat="44.7638656788367" lon="9.940862041047534"><ele>471.0</ele><time>2026-05-02T09:25:52.998Z</time></trkpt><trkpt lat="44.76382371220675" lon="9.940958692648515"><ele>469.0</ele><time>2026-05-02T09:25:53.998Z</time></trkpt><trkpt lat="44.763774402753185" lon="9.941055413683907"><ele>467.0</ele><time>2026-05-02T09:25:54.998Z</time></trkpt><trkpt lat="44.76371847039665" lon="9.9411525617812"><ele>465.0</ele><time>2026-05-02T09:25:55.998Z</time></trkpt><trkpt lat="44.76366233881867" lon="9.94125743328861"><ele>463.0</ele><time>2026-05-02T09:25:56.998Z</time></trkpt><trkpt lat="44.763606078250795" lon="9.941368608026679"><ele>461.0</ele><time>2026-05-02T09:25:57.998Z</time></trkpt><trkpt lat="44.763544976500015" lon="9.941480643599927"><ele>462.0</ele><time>2026-05-02T09:25:58.998Z</time></trkpt><trkpt lat="44.76348082688204" lon="9.941595910750392"><ele>463.0</ele><time>2026-05-02T09:25:59.998Z</time></trkpt><trkpt lat="44.76341979596593" lon="9.941719332396772"><ele>464.0</ele><time>2026-05-02T09:26:00.998Z</time></trkpt><trkpt lat="44.76335681395611" lon="9.941845839819633"><ele>465.0</ele><time>2026-05-02T09:26:01.998Z</time></trkpt><trkpt lat="44.76329200330124" lon="9.941976092377734"><ele>466.0</ele><time>2026-05-02T09:26:02.998Z</time></trkpt><trkpt lat="44.76322744184333" lon="9.942110590182567"><ele>466.0</ele><time>2026-05-02T09:26:03.998Z</time></trkpt><trkpt lat="44.76316684122331" lon="9.94225187803976"><ele>466.0</ele><time>2026-05-02T09:26:04.998Z</time></trkpt><trkpt lat="44.76311389913066" lon="9.942381146819349"><ele>466.0</ele><time>2026-05-02T09:26:05.998Z</time></trkpt><trkpt lat="44.76307434881727" lon="9.942500637394822"><ele>466.0</ele><time>2026-05-02T09:26:06.998Z</time></trkpt><trkpt lat="44.763062288169856" lon="9.942616840741444"><ele>466.0</ele><time>2026-05-02T09:26:07.998Z</time></trkpt><trkpt lat="44.76309238343696" lon="9.942723986601985"><ele>465.6</ele><time>2026-05-02T09:26:08.998Z</time></trkpt><trkpt lat="44.76316315329894" lon="9.942798125442375"><ele>465.20000000000005</ele><time>2026-05-02T09:26:09.998Z</time></trkpt><trkpt lat="44.763249592108494" lon="9.942815333221846"><ele>464.79999999999995</ele><time>2026-05-02T09:26:10.998Z</time></trkpt><trkpt lat="44.763340334801015" lon="9.942784172149196"><ele>464.4</ele><time>2026-05-02T09:26:11.998Z</time></trkpt><trkpt lat="44.76342958134936" lon="9.942746585183944"><ele>464.0</ele><time>2026-05-02T09:26:12.998Z</time></trkpt><trkpt lat="44.76351953838015" lon="9.942699583939458"><ele>462.2</ele><time>2026-05-02T09:26:13.998Z</time></trkpt><trkpt lat="44.76361367505574" lon="9.942644524182366"><ele>460.4</ele><time>2026-05-02T09:26:15Z</time></trkpt><trkpt lat="44.763706242092255" lon="9.942580133166723"><ele>458.6</ele><time>2026-05-02T09:26:16Z</time></trkpt><trkpt lat="44.763801106123445" lon="9.94250708121402"><ele>456.8</ele><time>2026-05-02T09:26:17Z</time></trkpt><trkpt lat="44.763892035448784" lon="9.942410986032941"><ele>455.0</ele><time>2026-05-02T09:26:18Z</time></trkpt><trkpt lat="44.76398143557202" lon="9.94230865351604"><ele>455.0</ele><time>2026-05-02T09:26:19Z</time></trkpt><trkpt lat="44.76407681640222" lon="9.942214042678508"><ele>455.0</ele><time>2026-05-02T09:26:20Z</time></trkpt><trkpt lat="44.76418314994993" lon="9.942129776655674"><ele>455.0</ele><time>2026-05-02T09:26:21Z</time></trkpt><trkpt lat="44.76429397928721" lon="9.942044749689567"><ele>455.0</ele><time>2026-05-02T09:26:22Z</time></trkpt><trkpt lat="44.76440560626048" lon="9.941957067010122"><ele>452.25</ele><time>2026-05-02T09:26:23Z</time></trkpt><trkpt lat="44.76451686168661" lon="9.941869213556663"><ele>449.5</ele><time>2026-05-02T09:26:24Z</time></trkpt><trkpt lat="44.7646316267807" lon="9.94177594310925"><ele>446.75</ele><time>2026-05-02T09:26:25Z</time></trkpt><trkpt lat="44.764746666112345" lon="9.941688556345088"><ele>444.0</ele><time>2026-05-02T09:26:26Z</time></trkpt><trkpt lat="44.76486289714322" lon="9.941606049255208"><ele>444.0</ele><time>2026-05-02T09:26:27Z</time></trkpt><trkpt lat="44.7649762201168" lon="9.941517715553502"><ele>444.0</ele><time>2026-05-02T09:26:28Z</time></trkpt><trkpt lat="44.7650921893743" lon="9.941426699887636"><ele>444.0</ele><time>2026-05-02T09:26:29Z</time></trkpt><trkpt lat="44.76520802940211" lon="9.941332352117394"><ele>444.0</ele><time>2026-05-02T09:26:30Z</time></trkpt><trkpt lat="44.76532716071824" lon="9.941243186058921"><ele>441.0</ele><time>2026-05-02T09:26:31Z</time></trkpt><trkpt lat="44.76544338364483" lon="9.941151858893079"><ele>438.0</ele><time>2026-05-02T09:26:32Z</time></trkpt><trkpt lat="44.76556477591333" lon="9.941063886147763"><ele>435.0</ele><time>2026-05-02T09:26:33Z</time></trkpt><trkpt lat="44.76568467473141" lon="9.940984377308485"><ele>432.0</ele><time>2026-05-02T09:26:34Z</time></trkpt><trkpt lat="44.76581231406536" lon="9.940924227721966"><ele>432.0</ele><time>2026-05-02T09:26:35Z</time></trkpt><trkpt lat="44.765939820156284" lon="9.940875811977966"><ele>432.0</ele><time>2026-05-02T09:26:36Z</time></trkpt><trkpt lat="44.76606658197671" lon="9.94082323742716"><ele>432.0</ele><time>2026-05-02T09:26:37Z</time></trkpt><trkpt lat="44.76619346097478" lon="9.940768964694124"><ele>432.0</ele><time>2026-05-02T09:26:38Z</time></trkpt><trkpt lat="44.76632035397922" lon="9.94071649404729"><ele>432.0</ele><time>2026-05-02T09:26:39Z</time></trkpt><trkpt lat="44.76644414152069" lon="9.940655521515184"><ele>432.0</ele><time>2026-05-02T09:26:40Z</time></trkpt><trkpt lat="44.766567696503145" lon="9.940599391384179"><ele>432.0</ele><time>2026-05-02T09:26:40.999Z</time></trkpt><trkpt lat="44.76669652934674" lon="9.940561298202308"><ele>432.0</ele><time>2026-05-02T09:26:41.999Z</time></trkpt><trkpt lat="44.76682693642859" lon="9.940532941099404"><ele>431.25</ele><time>2026-05-02T09:26:42.999Z</time></trkpt><trkpt lat="44.76695906576689" lon="9.94050408292537"><ele>430.5</ele><time>2026-05-02T09:26:43.999Z</time></trkpt><trkpt lat="44.76709066446953" lon="9.940471320797394"><ele>429.75</ele><time>2026-05-02T09:26:44.999Z</time></trkpt><trkpt lat="44.76722322229927" lon="9.94044323352242"><ele>429.0</ele><time>2026-05-02T09:26:45.999Z</time></trkpt><trkpt lat="44.76735593889463" lon="9.940412841963223"><ele>429.0</ele><time>2026-05-02T09:26:46.999Z</time></trkpt><trkpt lat="44.767488147351976" lon="9.940381255740428"><ele>429.0</ele><time>2026-05-02T09:26:47.999Z</time></trkpt><trkpt lat="44.767621172033" lon="9.940355030297999"><ele>429.0</ele><time>2026-05-02T09:26:48.999Z</time></trkpt><trkpt lat="44.76775314620005" lon="9.940342860873017"><ele>429.0</ele><time>2026-05-02T09:26:49.999Z</time></trkpt><trkpt lat="44.76788577220407" lon="9.940360844015654"><ele>428.0</ele><time>2026-05-02T09:26:50.999Z</time></trkpt><trkpt lat="44.768013263707495" lon="9.940404981713572"><ele>427.0</ele><time>2026-05-02T09:26:51.999Z</time></trkpt><trkpt lat="44.768134109501304" lon="9.940465332426042"><ele>426.0</ele><time>2026-05-02T09:26:52.999Z</time></trkpt><trkpt lat="44.768242416471075" lon="9.940541768363131"><ele>425.0</ele><time>2026-05-02T09:26:53.999Z</time></trkpt><trkpt lat="44.76834099224573" lon="9.94063744149804"><ele>425.0</ele><time>2026-05-02T09:26:54.999Z</time></trkpt><trkpt lat="44.76842596987669" lon="9.940761543491343"><ele>425.0</ele><time>2026-05-02T09:26:55.999Z</time></trkpt><trkpt lat="44.76848601208393" lon="9.940908933307897"><ele>425.0</ele><time>2026-05-02T09:26:56.999Z</time></trkpt><trkpt lat="44.768520955564284" lon="9.941072067001086"><ele>425.0</ele><time>2026-05-02T09:26:57.999Z</time></trkpt><trkpt lat="44.768551684110264" lon="9.941230181060307"><ele>422.5</ele><time>2026-05-02T09:26:58.999Z</time></trkpt><trkpt lat="44.76860274826742" lon="9.941377893668047"><ele>420.0</ele><time>2026-05-02T09:26:59.999Z</time></trkpt><trkpt lat="44.768685568469685" lon="9.941502094176313"><ele>417.5</ele><time>2026-05-02T09:27:00.999Z</time></trkpt><trkpt lat="44.76879410467258" lon="9.941582934118964"><ele>415.0</ele><time>2026-05-02T09:27:01.999Z</time></trkpt><trkpt lat="44.768903651674336" lon="9.941652002858055"><ele>415.0</ele><time>2026-05-02T09:27:02.999Z</time></trkpt><trkpt lat="44.76901874287401" lon="9.941711260400329"><ele>415.0</ele><time>2026-05-02T09:27:03.999Z</time></trkpt><trkpt lat="44.769138545130126" lon="9.941757832463743"><ele>415.0</ele><time>2026-05-02T09:27:04.999Z</time></trkpt><trkpt lat="44.769263218558855" lon="9.941780216771766"><ele>415.0</ele><time>2026-05-02T09:27:05.999Z</time></trkpt><trkpt lat="44.76938841897035" lon="9.941783306361458"><ele>414.25</ele><time>2026-05-02T09:27:06.999Z</time></trkpt><trkpt lat="44.769510987068216" lon="9.941746170063638"><ele>413.5</ele><time>2026-05-02T09:27:07.999Z</time></trkpt><trkpt lat="44.76963270625762" lon="9.941698380743189"><ele>412.75</ele><time>2026-05-02T09:27:08.999Z</time></trkpt><trkpt lat="44.76973983758232" lon="9.941602695609882"><ele>412.0</ele><time>2026-05-02T09:27:09.999Z</time></trkpt><trkpt lat="44.76984026245059" lon="9.941488642704368"><ele>412.0</ele><time>2026-05-02T09:27:10.999Z</time></trkpt><trkpt lat="44.76992625021891" lon="9.941354136905787"><ele>412.0</ele><time>2026-05-02T09:27:11.999Z</time></trkpt><trkpt lat="44.769996757989794" lon="9.941200980080515"><ele>412.0</ele><time>2026-05-02T09:27:12.999Z</time></trkpt><trkpt lat="44.77005513035064" lon="9.941038980217312"><ele>412.0</ele><time>2026-05-02T09:27:13.999Z</time></trkpt><trkpt lat="44.770111678491745" lon="9.940880372153076"><ele>410.75</ele><time>2026-05-02T09:27:14.999Z</time></trkpt><trkpt lat="44.770168932271915" lon="9.940727512122924"><ele>409.5</ele><time>2026-05-02T09:27:15.999Z</time></trkpt><trkpt lat="44.770226776524304" lon="9.940590052536107"><ele>408.25</ele><time>2026-05-02T09:27:16.999Z</time></trkpt><trkpt lat="44.77029018259314" lon="9.940466051144352"><ele>407.0</ele><time>2026-05-02T09:27:17.999Z</time></trkpt><trkpt lat="44.77039250608318" lon="9.94039487355715"><ele>403.5</ele><time>2026-05-02T09:27:18.999Z</time></trkpt><trkpt lat="44.7705048565821" lon="9.94035420325053"><ele>400.0</ele><time>2026-05-02T09:27:19.999Z</time></trkpt><trkpt lat="44.77062089325762" lon="9.940320954058564"><ele>396.5</ele><time>2026-05-02T09:27:20.999Z</time></trkpt><trkpt lat="44.77073068139974" lon="9.940260951611414"><ele>393.0</ele><time>2026-05-02T09:27:21.999Z</time></trkpt><trkpt lat="44.77083595512423" lon="9.940175528667266"><ele>393.0</ele><time>2026-05-02T09:27:22.999Z</time></trkpt><trkpt lat="44.77093634447467" lon="9.940084915256016"><ele>393.0</ele><time>2026-05-02T09:27:23.999Z</time></trkpt><trkpt lat="44.77104285586022" lon="9.940008683870667"><ele>393.0</ele><time>2026-05-02T09:27:24.999Z</time></trkpt><trkpt lat="44.7711495984421" lon="9.939935578883222"><ele>393.0</ele><time>2026-05-02T09:27:25.999Z</time></trkpt><trkpt lat="44.771252628163886" lon="9.939868762720325"><ele>390.0</ele><time>2026-05-02T09:27:26.999Z</time></trkpt><trkpt lat="44.771354912081065" lon="9.939812398612155"><ele>387.0</ele><time>2026-05-02T09:27:27.999Z</time></trkpt><trkpt lat="44.771456293918256" lon="9.93976492185358"><ele>384.0</ele><time>2026-05-02T09:27:28.999Z</time></trkpt><trkpt lat="44.771548920095405" lon="9.939708823665478"><ele>381.0</ele><time>2026-05-02T09:27:29.999Z</time></trkpt><trkpt lat="44.771629668429064" lon="9.939648162232064"><ele>378.0</ele><time>2026-05-02T09:27:30.999Z</time></trkpt><trkpt lat="44.77169596741734" lon="9.939538384373833"><ele>378.0</ele><time>2026-05-02T09:27:31.999Z</time></trkpt><trkpt lat="44.77175713469957" lon="9.939410884260557"><ele>378.0</ele><time>2026-05-02T09:27:32.999Z</time></trkpt><trkpt lat="44.771789055901436" lon="9.93925944147754"><ele>378.0</ele><time>2026-05-02T09:27:33.998Z</time></trkpt><trkpt lat="44.77177796216643" lon="9.939103054789783"><ele>378.0</ele><time>2026-05-02T09:27:34.998Z</time></trkpt><trkpt lat="44.77175845941176" lon="9.938958262390212"><ele>378.0</ele><time>2026-05-02T09:27:35.998Z</time></trkpt><trkpt lat="44.77171729866104" lon="9.938834856336102"><ele>380.59999999999997</ele><time>2026-05-02T09:27:36.998Z</time></trkpt><trkpt lat="44.77165394798649" lon="9.938726072018529"><ele>383.2</ele><time>2026-05-02T09:27:37.998Z</time></trkpt><trkpt lat="44.771573630852124" lon="9.93863834616718"><ele>385.8</ele><time>2026-05-02T09:27:38.998Z</time></trkpt><trkpt lat="44.771483304406104" lon="9.938570454136979"><ele>388.4</ele><time>2026-05-02T09:27:39.998Z</time></trkpt><trkpt lat="44.77138238676808" lon="9.938543197141618"><ele>391.0</ele><time>2026-05-02T09:27:40.998Z</time></trkpt><trkpt lat="44.77127730405722" lon="9.938562186123015"><ele>391.0</ele><time>2026-05-02T09:27:41.998Z</time></trkpt><trkpt lat="44.77117313800051" lon="9.938610345165142"><ele>391.0</ele><time>2026-05-02T09:27:42.998Z</time></trkpt><trkpt lat="44.77106776371861" lon="9.938651770778968"><ele>391.0</ele><time>2026-05-02T09:27:43.998Z</time></trkpt><trkpt lat="44.770960447148504" lon="9.93868675400712"><ele>391.0</ele><time>2026-05-02T09:27:44.998Z</time></trkpt><trkpt lat="44.77085803135637" lon="9.938670777983429"><ele>391.0</ele><time>2026-05-02T09:27:45.998Z</time></trkpt><trkpt lat="44.770772345577086" lon="9.938643081806092"><ele>390.8</ele><time>2026-05-02T09:27:46.998Z</time></trkpt><trkpt lat="44.77068534900115" lon="9.93858418000829"><ele>390.6</ele><time>2026-05-02T09:27:47.998Z</time></trkpt><trkpt lat="44.77060086663317" lon="9.938497148090798"><ele>390.4</ele><time>2026-05-02T09:27:48.998Z</time></trkpt><trkpt lat="44.770504680425795" lon="9.938424044931251"><ele>390.2</ele><time>2026-05-02T09:27:49.998Z</time></trkpt><trkpt lat="44.770415585638105" lon="9.938338878208766"><ele>390.0</ele><time>2026-05-02T09:27:50.998Z</time></trkpt><trkpt lat="44.77032660678025" lon="9.938246535713889"><ele>387.8</ele><time>2026-05-02T09:27:51.998Z</time></trkpt><trkpt lat="44.77023491195529" lon="9.938174516720695"><ele>385.6</ele><time>2026-05-02T09:27:52.998Z</time></trkpt><trkpt lat="44.770168576220655" lon="9.938068099893231"><ele>383.4</ele><time>2026-05-02T09:27:53.998Z</time></trkpt><trkpt lat="44.77013311848731" lon="9.937942326418558"><ele>381.2</ele><time>2026-05-02T09:27:54.998Z</time></trkpt><trkpt lat="44.77014320479519" lon="9.937809849693032"><ele>379.0</ele><time>2026-05-02T09:27:55.998Z</time></trkpt><trkpt lat="44.7701927774068" lon="9.937697208171544"><ele>379.0</ele><time>2026-05-02T09:27:56.998Z</time></trkpt><trkpt lat="44.77027401222009" lon="9.937623377417435"><ele>379.0</ele><time>2026-05-02T09:27:57.998Z</time></trkpt><trkpt lat="44.77036568836357" lon="9.937607258860911"><ele>379.0</ele><time>2026-05-02T09:27:58.998Z</time></trkpt><trkpt lat="44.7704537312511" lon="9.937635430997062"><ele>379.0</ele><time>2026-05-02T09:27:59.998Z</time></trkpt><trkpt lat="44.77052065380917" lon="9.93771998337054"><ele>379.0</ele><time>2026-05-02T09:28:00.998Z</time></trkpt><trkpt lat="44.77055934770877" lon="9.937833868172028"><ele>379.0</ele><time>2026-05-02T09:28:01.998Z</time></trkpt><trkpt lat="44.7706046662952" lon="9.937946608524374"><ele>379.0</ele><time>2026-05-02T09:28:02.998Z</time></trkpt><trkpt lat="44.77067034591446" lon="9.938039133950863"><ele>379.0</ele><time>2026-05-02T09:28:03.998Z</time></trkpt><trkpt lat="44.770761160689275" lon="9.93809553684952"><ele>379.0</ele><time>2026-05-02T09:28:04.998Z</time></trkpt><trkpt lat="44.77086085752112" lon="9.938089696844868"><ele>379.0</ele><time>2026-05-02T09:28:05.998Z</time></trkpt><trkpt lat="44.77095135573103" lon="9.938028787883557"><ele>379.0</ele><time>2026-05-02T09:28:06.998Z</time></trkpt><trkpt lat="44.77102039144647" lon="9.937928624875378"><ele>379.0</ele><time>2026-05-02T09:28:07.998Z</time></trkpt><trkpt lat="44.77108264190773" lon="9.937824743629182"><ele>379.0</ele><time>2026-05-02T09:28:08.998Z</time></trkpt><trkpt lat="44.7711564905968" lon="9.937737373738221"><ele>379.0</ele><time>2026-05-02T09:28:09.998Z</time></trkpt><trkpt lat="44.771238339634195" lon="9.937671567594977"><ele>379.0</ele><time>2026-05-02T09:28:10.998Z</time></trkpt><trkpt lat="44.77133494129684" lon="9.937648047403218"><ele>378.79999999999995</ele><time>2026-05-02T09:28:11.998Z</time></trkpt><trkpt lat="44.77143007637209" lon="9.937660221551068"><ele>378.59999999999997</ele><time>2026-05-02T09:28:12.998Z</time></trkpt><trkpt lat="44.7715195419736" lon="9.937696654171779"><ele>378.4</ele><time>2026-05-02T09:28:13.998Z</time></trkpt><trkpt lat="44.77159496231055" lon="9.93773250912755"><ele>378.2</ele><time>2026-05-02T09:28:14.998Z</time></trkpt><trkpt lat="44.77166133229365" lon="9.937727607274134"><ele>378.0</ele><time>2026-05-02T09:28:15.998Z</time></trkpt><trkpt lat="44.771720355477335" lon="9.937568636282807"><ele>375.0</ele><time>2026-05-02T09:28:17.998Z</time></trkpt><trkpt lat="44.77165476668732" lon="9.937460196295454"><ele>372.0</ele><time>2026-05-02T09:28:18.998Z</time></trkpt><trkpt lat="44.771568011802984" lon="9.937427307234179"><ele>369.0</ele><time>2026-05-02T09:28:19.998Z</time></trkpt><trkpt lat="44.77149870091399" lon="9.937407748532014"><ele>366.0</ele><time>2026-05-02T09:28:21Z</time></trkpt><trkpt lat="44.7714335744528" lon="9.93739173274475"><ele>363.0</ele><time>2026-05-02T09:28:22Z</time></trkpt><trkpt lat="44.7713651191605" lon="9.937373168049202"><ele>360.0</ele><time>2026-05-02T09:28:23Z</time></trkpt><trkpt lat="44.7712930943207" lon="9.937353644310152"><ele>360.0</ele><time>2026-05-02T09:28:24Z</time></trkpt><trkpt lat="44.77122360397708" lon="9.937334076286852"><ele>360.0</ele><time>2026-05-02T09:28:25Z</time></trkpt><trkpt lat="44.771159982553264" lon="9.937307710344976"><ele>360.0</ele><time>2026-05-02T09:28:26Z</time></trkpt><trkpt lat="44.771110894970256" lon="9.937198069144408"><ele>360.0</ele><time>2026-05-02T09:28:28Z</time></trkpt><trkpt lat="44.7711597196" lon="9.937126629122925"><ele>360.0</ele><time>2026-05-02T09:28:29Z</time></trkpt><trkpt lat="44.77124471518616" lon="9.93712529204274"><ele>360.0</ele><time>2026-05-02T09:28:30Z</time></trkpt><trkpt lat="44.771320563463014" lon="9.937152249229111"><ele>360.0</ele><time>2026-05-02T09:28:31Z</time></trkpt><trkpt lat="44.771398180223514" lon="9.937186754652991"><ele>360.0</ele><time>2026-05-02T09:28:32Z</time></trkpt><trkpt lat="44.77147764079467" lon="9.937217360704055"><ele>360.0</ele><time>2026-05-02T09:28:33Z</time></trkpt><trkpt lat="44.77156469323268" lon="9.937246964229066"><ele>360.0</ele><time>2026-05-02T09:28:34Z</time></trkpt><trkpt lat="44.771656235856554" lon="9.937273010564677"><ele>360.0</ele><time>2026-05-02T09:28:35Z</time></trkpt><trkpt lat="44.77175070943694" lon="9.937302331951544"><ele>360.0</ele><time>2026-05-02T09:28:36Z</time></trkpt><trkpt lat="44.77184996585304" lon="9.937336692824116"><ele>358.2</ele><time>2026-05-02T09:28:37Z</time></trkpt><trkpt lat="44.77195163411264" lon="9.937366688581442"><ele>356.4</ele><time>2026-05-02T09:28:38Z</time></trkpt><trkpt lat="44.77205798542406" lon="9.937395545336347"><ele>354.6</ele><time>2026-05-02T09:28:39Z</time></trkpt><trkpt lat="44.77216677399864" lon="9.93742438304761"><ele>352.8</ele><time>2026-05-02T09:28:40Z</time></trkpt><trkpt lat="44.77227144522543" lon="9.93746647656219"><ele>351.0</ele><time>2026-05-02T09:28:41Z</time></trkpt><trkpt lat="44.772372429290954" lon="9.937518298094222"><ele>348.20000000000005</ele><time>2026-05-02T09:28:42Z</time></trkpt><trkpt lat="44.77247370569008" lon="9.937561724183157"><ele>345.40000000000003</ele><time>2026-05-02T09:28:43Z</time></trkpt><trkpt lat="44.77257008696696" lon="9.937605228587028"><ele>342.6</ele><time>2026-05-02T09:28:44Z</time></trkpt><trkpt lat="44.77265751358211" lon="9.937650089500304"><ele>339.8</ele><time>2026-05-02T09:28:44.999Z</time></trkpt><trkpt lat="44.772734120051844" lon="9.937685212643428"><ele>337.0</ele><time>2026-05-02T09:28:45.999Z</time></trkpt><trkpt lat="44.772804467935735" lon="9.937685411391275"><ele>337.00000000000006</ele><time>2026-05-02T09:28:46.999Z</time></trkpt><trkpt lat="44.772856698308196" lon="9.937633175400375"><ele>337.0</ele><time>2026-05-02T09:28:47.999Z</time></trkpt><trkpt lat="44.772873298304326" lon="9.937546509049294"><ele>337.0</ele><time>2026-05-02T09:28:48.999Z</time></trkpt><trkpt lat="44.77286864265228" lon="9.937449580943497"><ele>337.0</ele><time>2026-05-02T09:28:49.999Z</time></trkpt><trkpt lat="44.772796857612036" lon="9.937370894888769"><ele>337.0</ele><time>2026-05-02T09:28:50.999Z</time></trkpt><trkpt lat="44.77273465724843" lon="9.937319212551538"><ele>337.00000000000006</ele><time>2026-05-02T09:28:51.999Z</time></trkpt><trkpt lat="44.772674571488224" lon="9.937268275495825"><ele>337.0</ele><time>2026-05-02T09:28:52.999Z</time></trkpt><trkpt lat="44.772616293725406" lon="9.937216393345846"><ele>336.8</ele><time>2026-05-02T09:28:53.999Z</time></trkpt><trkpt lat="44.77254933129108" lon="9.937099846584578"><ele>336.6</ele><time>2026-05-02T09:28:55.999Z</time></trkpt><trkpt lat="44.772618373513026" lon="9.936977238658926"><ele>336.40000000000003</ele><time>2026-05-02T09:28:57.999Z</time></trkpt><trkpt lat="44.77270023425899" lon="9.936991134399378"><ele>336.20000000000005</ele><time>2026-05-02T09:28:58.999Z</time></trkpt><trkpt lat="44.772771963721084" lon="9.9370399755366"><ele>336.0</ele><time>2026-05-02T09:28:59.999Z</time></trkpt><trkpt lat="44.772843764761404" lon="9.9370879804276"><ele>336.0</ele><time>2026-05-02T09:29:00.999Z</time></trkpt><trkpt lat="44.772918793811726" lon="9.937141138943264"><ele>336.0</ele><time>2026-05-02T09:29:01.999Z</time></trkpt><trkpt lat="44.77299733623248" lon="9.937196853010402"><ele>336.0</ele><time>2026-05-02T09:29:02.999Z</time></trkpt><trkpt lat="44.773073492087235" lon="9.937246506472764"><ele>336.0</ele><time>2026-05-02T09:29:03.999Z</time></trkpt><trkpt lat="44.773152339433004" lon="9.937294736339405"><ele>336.0</ele><time>2026-05-02T09:29:04.999Z</time></trkpt><trkpt lat="44.77323514545656" lon="9.937343027273664"><ele>336.0</ele><time>2026-05-02T09:29:05.999Z</time></trkpt><trkpt lat="44.77331568433495" lon="9.937393705464615"><ele>336.0</ele><time>2026-05-02T09:29:06.999Z</time></trkpt><trkpt lat="44.773393234707015" lon="9.937441844861398"><ele>336.0</ele><time>2026-05-02T09:29:07.999Z</time></trkpt><trkpt lat="44.77347024894816" lon="9.9374851705936"><ele>336.0</ele><time>2026-05-02T09:29:08.999Z</time></trkpt><trkpt lat="44.77354405478529" lon="9.93752793550907"><ele>336.0</ele><time>2026-05-02T09:29:09.999Z</time></trkpt><trkpt lat="44.77361290210587" lon="9.937572320860111"><ele>336.0</ele><time>2026-05-02T09:29:10.999Z</time></trkpt><trkpt lat="44.773669544819604" lon="9.937612224654897"><ele>336.0</ele><time>2026-05-02T09:29:11.999Z</time></trkpt><trkpt lat="44.7737466809614" lon="9.93766838151761"><ele>336.0</ele><time>2026-05-02T09:29:13.999Z</time></trkpt><trkpt lat="44.773811907721296" lon="9.937724943139964"><ele>336.0</ele><time>2026-05-02T09:29:16.999Z</time></trkpt><trkpt lat="44.773840126454374" lon="9.937631413171989"><ele>336.0</ele><time>2026-05-02T09:29:18.999Z</time></trkpt><trkpt lat="44.7737780211315" lon="9.937661207194834"><ele>336.0</ele><time>2026-05-02T09:29:21.999Z</time></trkpt><trkpt lat="44.773718058686015" lon="9.937571612972954"><ele>336.0</ele><time>2026-05-02T09:29:22.999Z</time></trkpt><trkpt lat="44.77365864527653" lon="9.93752396845587"><ele>336.0</ele><time>2026-05-02T09:29:24.999Z</time></trkpt><trkpt lat="44.773593256411644" lon="9.93748156272815"><ele>336.0</ele><time>2026-05-02T09:29:26.999Z</time></trkpt><trkpt lat="44.773521754002736" lon="9.937438785688013"><ele>336.0</ele><time>2026-05-02T09:29:28.999Z</time></trkpt><trkpt lat="44.77345161923345" lon="9.937394708532086"><ele>336.0</ele><time>2026-05-02T09:29:30.999Z</time></trkpt><trkpt lat="44.773387780453305" lon="9.937345903933068"><ele>336.0</ele><time>2026-05-02T09:29:32.999Z</time></trkpt><trkpt lat="44.773326540466826" lon="9.937314409051423"><ele>336.0</ele><time>2026-05-02T09:29:34.999Z</time></trkpt><trkpt lat="44.77324715716583" lon="9.937268420134691"><ele>336.0</ele><time>2026-05-02T09:29:37.999Z</time></trkpt><trkpt lat="44.7731751769815" lon="9.937232927303363"><ele>336.0</ele><time>2026-05-02T09:29:40.998Z</time></trkpt><trkpt lat="44.77310755694664" lon="9.937189955068012"><ele>336.0</ele><time>2026-05-02T09:29:43.998Z</time></trkpt><trkpt lat="44.77304309503104" lon="9.937147009367639"><ele>336.0</ele><time>2026-05-02T09:29:46.998Z</time></trkpt><trkpt lat="44.77297515012413" lon="9.937102352515296"><ele>336.0</ele><time>2026-05-02T09:29:49.998Z</time></trkpt><trkpt lat="44.772908309608006" lon="9.9370638047828"><ele>336.0</ele><time>2026-05-02T09:29:52.998Z</time></trkpt><trkpt lat="44.77283081502891" lon="9.937005366698687"><ele>336.0</ele><time>2026-05-02T09:29:56.998Z</time></trkpt><trkpt lat="44.77276274634235" lon="9.936956594216976"><ele>336.0</ele><time>2026-05-02T09:30:00.998Z</time></trkpt><trkpt lat="44.77270386532106" lon="9.936920772939674"><ele>336.0</ele><time>2026-05-02T09:30:03.998Z</time></trkpt><trkpt lat="44.772637756025716" lon="9.936914617928398"><ele>336.0</ele><time>2026-05-02T09:30:06.998Z</time></trkpt><trkpt lat="44.77257658673816" lon="9.936941252952133"><ele>336.0</ele><time>2026-05-02T09:30:09.998Z</time></trkpt><trkpt lat="44.772535621663586" lon="9.937022982813803"><ele>336.0</ele><time>2026-05-02T09:30:12.998Z</time></trkpt><trkpt lat="44.77252863520443" lon="9.937120665339808"><ele>336.0</ele><time>2026-05-02T09:30:15.998Z</time></trkpt><trkpt lat="44.77256218232612" lon="9.937210310637077"><ele>336.0</ele><time>2026-05-02T09:30:18.998Z</time></trkpt><trkpt lat="44.77261515737246" lon="9.937277653846225"><ele>336.0</ele><time>2026-05-02T09:30:21.998Z</time></trkpt><trkpt lat="44.77266760481398" lon="9.937331864688202"><ele>336.0</ele><time>2026-05-02T09:30:24.998Z</time></trkpt><trkpt lat="44.77272528597121" lon="9.937385048464863"><ele>336.0</ele><time>2026-05-02T09:30:28Z</time></trkpt><trkpt lat="44.772787184588424" lon="9.937446618218761"><ele>336.0</ele><time>2026-05-02T09:30:31Z</time></trkpt><trkpt lat="44.7728203120558" lon="9.937539944772007"><ele>336.0</ele><time>2026-05-02T09:30:34Z</time></trkpt><trkpt lat="44.772774728000265" lon="9.937605375763225"><ele>336.0</ele><time>2026-05-02T09:30:37Z</time></trkpt><trkpt lat="44.772709644924966" lon="9.937586502313273"><ele>336.0</ele><time>2026-05-02T09:30:40Z</time></trkpt><trkpt lat="44.772647700343526" lon="9.937561963511829"><ele>336.0</ele><time>2026-05-02T09:30:43Z</time></trkpt><trkpt lat="44.77256973006361" lon="9.937529841728955"><ele>336.0</ele><time>2026-05-02T09:30:47Z</time></trkpt><trkpt lat="44.77250434094288" lon="9.937498601276102"><ele>338.5</ele><time>2026-05-02T09:30:50Z</time></trkpt><trkpt lat="44.772437575706505" lon="9.937466130651412"><ele>341.0</ele><time>2026-05-02T09:30:52.999Z</time></trkpt><trkpt lat="44.772362825168216" lon="9.93743010081775"><ele>343.5</ele><time>2026-05-02T09:30:55.999Z</time></trkpt><trkpt lat="44.7722852428209" lon="9.937397309885544"><ele>346.0</ele><time>2026-05-02T09:30:59.999Z</time></trkpt><trkpt lat="44.77220562764572" lon="9.937373052747589"><ele>348.5</ele><time>2026-05-02T09:31:02.999Z</time></trkpt><trkpt lat="44.77213277564052" lon="9.93735034580443"><ele>351.0</ele><time>2026-05-02T09:31:06.999Z</time></trkpt><trkpt lat="44.772066613476376" lon="9.937327318603941"><ele>351.00000000000006</ele><time>2026-05-02T09:31:09.999Z</time></trkpt><trkpt lat="44.772003452188144" lon="9.93730244235888"><ele>351.0</ele><time>2026-05-02T09:31:12.999Z</time></trkpt><trkpt lat="44.771930749181976" lon="9.937278757970692"><ele>351.0</ele><time>2026-05-02T09:31:15.999Z</time></trkpt><trkpt lat="44.771857410930984" lon="9.937263677799258"><ele>351.0</ele><time>2026-05-02T09:31:19.999Z</time></trkpt><trkpt lat="44.771793373171164" lon="9.937242296094427"><ele>351.0</ele><time>2026-05-02T09:31:22.999Z</time></trkpt><trkpt lat="44.77172735881241" lon="9.937220275695541"><ele>351.00000000000006</ele><time>2026-05-02T09:31:25.999Z</time></trkpt><trkpt lat="44.77165317385655" lon="9.93720040509719"><ele>351.0</ele><time>2026-05-02T09:31:28.999Z</time></trkpt><trkpt lat="44.771577285579326" lon="9.937178267609816"><ele>352.28571428571433</ele><time>2026-05-02T09:31:32.999Z</time></trkpt><trkpt lat="44.77150992767172" lon="9.937162137157653"><ele>353.57142857142856</ele><time>2026-05-02T09:31:35.999Z</time></trkpt><trkpt lat="44.7714450391713" lon="9.937140913807585"><ele>354.8571428571429</ele><time>2026-05-02T09:31:38.999Z</time></trkpt><trkpt lat="44.77137721118763" lon="9.937122703215643"><ele>356.14285714285717</ele><time>2026-05-02T09:31:41.999Z</time></trkpt><trkpt lat="44.771304266643305" lon="9.9371003709809"><ele>357.42857142857144</ele><time>2026-05-02T09:31:44.998Z</time></trkpt><trkpt lat="44.77122572862013" lon="9.937097651767699"><ele>358.7142857142857</ele><time>2026-05-02T09:31:48.998Z</time></trkpt><trkpt lat="44.771159023101454" lon="9.937120529743336"><ele>360.0</ele><time>2026-05-02T09:31:51.998Z</time></trkpt><trkpt lat="44.77110818745098" lon="9.937188356968747"><ele>360.0</ele><time>2026-05-02T09:31:54.998Z</time></trkpt><trkpt lat="44.77111391284039" lon="9.93729290873824"><ele>360.0</ele><time>2026-05-02T09:31:58.998Z</time></trkpt><trkpt lat="44.77116427221269" lon="9.937356822242865"><ele>360.0</ele><time>2026-05-02T09:32:01.998Z</time></trkpt><trkpt lat="44.7712316242396" lon="9.937395508457957"><ele>360.0</ele><time>2026-05-02T09:32:04.998Z</time></trkpt><trkpt lat="44.77130704110222" lon="9.937418844035603"><ele>360.0</ele><time>2026-05-02T09:32:07.998Z</time></trkpt><trkpt lat="44.771376863265665" lon="9.937442150383196"><ele>360.0</ele><time>2026-05-02T09:32:10.998Z</time></trkpt><trkpt lat="44.77145732554746" lon="9.937472042096484"><ele>360.0</ele><time>2026-05-02T09:32:14.998Z</time></trkpt><trkpt lat="44.771541575052005" lon="9.937503032796233"><ele>360.0</ele><time>2026-05-02T09:32:17.998Z</time></trkpt><trkpt lat="44.77161001777996" lon="9.937537027258735"><ele>360.0</ele><time>2026-05-02T09:32:20.998Z</time></trkpt><trkpt lat="44.771647552832" lon="9.937611445406363"><ele>360.0</ele><time>2026-05-02T09:32:23.998Z</time></trkpt><trkpt lat="44.771590305736254" lon="9.93766575274028"><ele>360.0</ele><time>2026-05-02T09:32:27.998Z</time></trkpt><trkpt lat="44.77151445124871" lon="9.937625933280783"><ele>360.0</ele><time>2026-05-02T09:32:30.998Z</time></trkpt><trkpt lat="44.77143908887078" lon="9.937597389891785"><ele>360.0</ele><time>2026-05-02T09:32:35Z</time></trkpt><trkpt lat="44.771368597640254" lon="9.937584879390513"><ele>360.0</ele><time>2026-05-02T09:32:38Z</time></trkpt><trkpt lat="44.77130015303201" lon="9.937592166391736"><ele>363.0</ele><time>2026-05-02T09:32:41Z</time></trkpt><trkpt lat="44.7712192455774" lon="9.937627936781018"><ele>366.0</ele><time>2026-05-02T09:32:44Z</time></trkpt><trkpt lat="44.77115282434568" lon="9.937684999869353"><ele>369.0</ele><time>2026-05-02T09:32:48Z</time></trkpt><trkpt lat="44.771096057902376" lon="9.937750463553277"><ele>372.0</ele><time>2026-05-02T09:32:51Z</time></trkpt><trkpt lat="44.77104408340043" lon="9.937818158899562"><ele>375.0</ele><time>2026-05-02T09:32:54Z</time></trkpt><trkpt lat="44.77098288845693" lon="9.937903427493831"><ele>378.0</ele><time>2026-05-02T09:32:56.999Z</time></trkpt><trkpt lat="44.77092180277645" lon="9.937965227629013"><ele>378.14285714285717</ele><time>2026-05-02T09:32:59.999Z</time></trkpt><trkpt lat="44.77084926723758" lon="9.938014238151288"><ele>378.2857142857143</ele><time>2026-05-02T09:33:02.999Z</time></trkpt><trkpt lat="44.770773573662616" lon="9.938022096679713"><ele>378.42857142857144</ele><time>2026-05-02T09:33:04.999Z</time></trkpt><trkpt lat="44.77070174981122" lon="9.93797617940546"><ele>378.57142857142856</ele><time>2026-05-02T09:33:07.999Z</time></trkpt><trkpt lat="44.770649428135485" lon="9.93789833311275"><ele>378.7142857142857</ele><time>2026-05-02T09:33:10.999Z</time></trkpt><trkpt lat="44.77061293664129" lon="9.937821831620083"><ele>378.8571428571429</ele><time>2026-05-02T09:33:13.999Z</time></trkpt><trkpt lat="44.7705747761812" lon="9.937749984339456"><ele>379.0</ele><time>2026-05-02T09:33:16.999Z</time></trkpt><trkpt lat="44.77052679090577" lon="9.937669664091436"><ele>379.0</ele><time>2026-05-02T09:33:19.999Z</time></trkpt><trkpt lat="44.77045477354467" lon="9.937623288145247"><ele>379.0</ele><time>2026-05-02T09:33:22.999Z</time></trkpt><trkpt lat="44.7703680731759" lon="9.937606073845847"><ele>379.0</ele><time>2026-05-02T09:33:25.999Z</time></trkpt><trkpt lat="44.77027606634686" lon="9.937627904978912"><ele>379.0</ele><time>2026-05-02T09:33:28.999Z</time></trkpt><trkpt lat="44.77019948614055" lon="9.937699288906591"><ele>379.0</ele><time>2026-05-02T09:33:31.999Z</time></trkpt><trkpt lat="44.77015523844811" lon="9.93780574461735"><ele>379.0</ele><time>2026-05-02T09:33:34.999Z</time></trkpt><trkpt lat="44.770135625399575" lon="9.937916430864098"><ele>379.00000000000006</ele><time>2026-05-02T09:33:37.999Z</time></trkpt><trkpt lat="44.7701507874857" lon="9.938036912706142"><ele>379.0</ele><time>2026-05-02T09:33:40.999Z</time></trkpt><trkpt lat="44.77018256952956" lon="9.938116735237205"><ele>379.0</ele><time>2026-05-02T09:33:42.999Z</time></trkpt><trkpt lat="44.770225526472736" lon="9.938184701940243"><ele>379.0</ele><time>2026-05-02T09:33:44.999Z</time></trkpt><trkpt lat="44.770294933168316" lon="9.938264395230592"><ele>379.0</ele><time>2026-05-02T09:33:47.999Z</time></trkpt><trkpt lat="44.770344760538954" lon="9.938319944265956"><ele>379.00000000000006</ele><time>2026-05-02T09:33:49.998Z</time></trkpt><trkpt lat="44.770404867623235" lon="9.938381057707545"><ele>379.0</ele><time>2026-05-02T09:33:52.998Z</time></trkpt><trkpt lat="44.77047469898406" lon="9.938450555834875"><ele>380.5714285714286</ele><time>2026-05-02T09:33:56.998Z</time></trkpt><trkpt lat="44.77053395787309" lon="9.938517477764458"><ele>382.14285714285717</ele><time>2026-05-02T09:33:59.998Z</time></trkpt><trkpt lat="44.770588530086464" lon="9.93856479144478"><ele>383.7142857142857</ele><time>2026-05-02T09:34:02.998Z</time></trkpt><trkpt lat="44.77064469502209" lon="9.938614679606372"><ele>385.28571428571433</ele><time>2026-05-02T09:34:05.998Z</time></trkpt><trkpt lat="44.77069876884104" lon="9.938674547693699"><ele>386.85714285714283</ele><time>2026-05-02T09:34:08.998Z</time></trkpt><trkpt lat="44.77077388730087" lon="9.938717629988702"><ele>388.42857142857144</ele><time>2026-05-02T09:34:12.998Z</time></trkpt><trkpt lat="44.770837049910575" lon="9.938740058516586"><ele>390.0</ele><time>2026-05-02T09:34:15.998Z</time></trkpt><trkpt lat="44.77091297009359" lon="9.93874116467116"><ele>390.0</ele><time>2026-05-02T09:34:18.998Z</time></trkpt><trkpt lat="44.77099399324796" lon="9.938726412595303"><ele>390.0</ele><time>2026-05-02T09:34:21.998Z</time></trkpt><trkpt lat="44.7710676575285" lon="9.938705675653928"><ele>390.0</ele><time>2026-05-02T09:34:24.998Z</time></trkpt><trkpt lat="44.77113570591674" lon="9.938678763196318"><ele>390.0</ele><time>2026-05-02T09:34:27.998Z</time></trkpt><trkpt lat="44.77122005706632" lon="9.938654671511335"><ele>390.0</ele><time>2026-05-02T09:34:31.998Z</time></trkpt><trkpt lat="44.771288495030184" lon="9.938632475803626"><ele>390.0</ele><time>2026-05-02T09:34:34.998Z</time></trkpt><trkpt lat="44.771362617567554" lon="9.93861657720674"><ele>390.1428571428571</ele><time>2026-05-02T09:34:37.998Z</time></trkpt><trkpt lat="44.771435133567955" lon="9.938624665544651"><ele>390.2857142857143</ele><time>2026-05-02T09:34:41Z</time></trkpt><trkpt lat="44.77150389947018" lon="9.938670085918952"><ele>390.42857142857144</ele><time>2026-05-02T09:34:44Z</time></trkpt><trkpt lat="44.77156259290298" lon="9.938728953565784"><ele>390.57142857142856</ele><time>2026-05-02T09:34:47Z</time></trkpt><trkpt lat="44.77161601977692" lon="9.938795912151994"><ele>390.7142857142857</ele><time>2026-05-02T09:34:50Z</time></trkpt><trkpt lat="44.77165752362828" lon="9.938862685880085"><ele>390.85714285714283</ele><time>2026-05-02T09:34:52Z</time></trkpt><trkpt lat="44.7716986953894" lon="9.938959688023505"><ele>391.0</ele><time>2026-05-02T09:34:56Z</time></trkpt><trkpt lat="44.771724987518944" lon="9.939062510080182"><ele>390.99999999999994</ele><time>2026-05-02T09:34:59Z</time></trkpt><trkpt lat="44.77173985863887" lon="9.939162840121726"><ele>391.0</ele><time>2026-05-02T09:35:01.999Z</time></trkpt><trkpt lat="44.771741384079235" lon="9.939253879295352"><ele>391.0</ele><time>2026-05-02T09:35:04.999Z</time></trkpt><trkpt lat="44.771729508279726" lon="9.939342730074731"><ele>391.0</ele><time>2026-05-02T09:35:07.999Z</time></trkpt><trkpt lat="44.77170341414827" lon="9.93943278044001"><ele>391.0</ele><time>2026-05-02T09:35:10.999Z</time></trkpt><trkpt lat="44.77165611115763" lon="9.939525967113667"><ele>390.99999999999994</ele><time>2026-05-02T09:35:13.999Z</time></trkpt><trkpt lat="44.771597104856404" lon="9.939597505968889"><ele>391.0</ele><time>2026-05-02T09:35:17.999Z</time></trkpt><trkpt lat="44.77153265787497" lon="9.939642561802552"><ele>389.1428571428571</ele><time>2026-05-02T09:35:20.999Z</time></trkpt><trkpt lat="44.77146652638907" lon="9.939683604900493"><ele>387.2857142857143</ele><time>2026-05-02T09:35:23.999Z</time></trkpt><trkpt lat="44.77139907333761" lon="9.939728263546154"><ele>385.42857142857144</ele><time>2026-05-02T09:35:26.999Z</time></trkpt><trkpt lat="44.77132702041662" lon="9.939768811891048"><ele>383.57142857142856</ele><time>2026-05-02T09:35:30.999Z</time></trkpt><trkpt lat="44.77126037911883" lon="9.939800989662915"><ele>381.7142857142857</ele><time>2026-05-02T09:35:33.999Z</time></trkpt><trkpt lat="44.77119325168664" lon="9.939845686447754"><ele>379.85714285714283</ele><time>2026-05-02T09:35:36.999Z</time></trkpt><trkpt lat="44.7711296689737" lon="9.939896405973148"><ele>378.0</ele><time>2026-05-02T09:35:39.999Z</time></trkpt><trkpt lat="44.77105672524804" lon="9.939938473777591"><ele>380.14285714285717</ele><time>2026-05-02T09:35:43.999Z</time></trkpt><trkpt lat="44.77099526088247" lon="9.939997773547297"><ele>382.2857142857143</ele><time>2026-05-02T09:35:46.999Z</time></trkpt><trkpt lat="44.77093416060261" lon="9.940048965152277"><ele>384.42857142857144</ele><time>2026-05-02T09:35:49.999Z</time></trkpt><trkpt lat="44.770862926953875" lon="9.940103847949706"><ele>386.57142857142856</ele><time>2026-05-02T09:35:52.998Z</time></trkpt><trkpt lat="44.77079578307399" lon="9.940158827475724"><ele>388.7142857142857</ele><time>2026-05-02T09:35:56.998Z</time></trkpt><trkpt lat="44.770730163547" lon="9.940195567933879"><ele>390.8571428571429</ele><time>2026-05-02T09:35:59.998Z</time></trkpt><trkpt lat="44.77066777937953" lon="9.940231840985115"><ele>393.0</ele><time>2026-05-02T09:36:02.998Z</time></trkpt><trkpt lat="44.77060457534806" lon="9.940262094748094"><ele>393.0</ele><time>2026-05-02T09:36:05.998Z</time></trkpt><trkpt lat="44.77052880613347" lon="9.940291819985084"><ele>393.0</ele><time>2026-05-02T09:36:08.998Z</time></trkpt><trkpt lat="44.77045676407112" lon="9.94031954378518"><ele>393.0</ele><time>2026-05-02T09:36:12.998Z</time></trkpt><trkpt lat="44.770382288095426" lon="9.94034807193973"><ele>393.0</ele><time>2026-05-02T09:36:15.998Z</time></trkpt><trkpt lat="44.77031276425411" lon="9.940391914042456"><ele>393.0</ele><time>2026-05-02T09:36:18.998Z</time></trkpt><trkpt lat="44.77024937266302" lon="9.940465048238348"><ele>393.0</ele><time>2026-05-02T09:36:21.998Z</time></trkpt><trkpt lat="44.77020151273918" lon="9.940547747150367"><ele>395.00000000000006</ele><time>2026-05-02T09:36:24.998Z</time></trkpt><trkpt lat="44.77015866269204" lon="9.940631473270988"><ele>397.0</ele><time>2026-05-02T09:36:27.998Z</time></trkpt><trkpt lat="44.770120712894304" lon="9.940714829073249"><ele>399.0</ele><time>2026-05-02T09:36:30.998Z</time></trkpt><trkpt lat="44.77009140501801" lon="9.940798502807862"><ele>401.0</ele><time>2026-05-02T09:36:32.998Z</time></trkpt><trkpt lat="44.77005494584674" lon="9.94089389266553"><ele>403.0</ele><time>2026-05-02T09:36:36.998Z</time></trkpt><trkpt lat="44.77002296819118" lon="9.940982122878411"><ele>405.00000000000006</ele><time>2026-05-02T09:36:39.998Z</time></trkpt><trkpt lat="44.769987517294226" lon="9.941072871223701"><ele>407.0</ele><time>2026-05-02T09:36:42.998Z</time></trkpt><trkpt lat="44.769952903818854" lon="9.941164690743806"><ele>407.8333333333333</ele><time>2026-05-02T09:36:46Z</time></trkpt><trkpt lat="44.76990725347115" lon="9.941268378693515"><ele>408.66666666666663</ele><time>2026-05-02T09:36:50Z</time></trkpt><trkpt lat="44.76986016966288" lon="9.94134764654753"><ele>409.5</ele><time>2026-05-02T09:36:53Z</time></trkpt><trkpt lat="44.769807529084915" lon="9.941431344212926"><ele>410.33333333333337</ele><time>2026-05-02T09:36:56Z</time></trkpt><trkpt lat="44.7697517332001" lon="9.94150285571459"><ele>411.1666666666667</ele><time>2026-05-02T09:36:59Z</time></trkpt><trkpt lat="44.76969726906978" lon="9.941560669642975"><ele>412.0</ele><time>2026-05-02T09:37:02Z</time></trkpt><trkpt lat="44.76963938110129" lon="9.941610858014862"><ele>412.00000000000006</ele><time>2026-05-02T09:37:04.999Z</time></trkpt><trkpt lat="44.76957835450413" lon="9.941657439709612"><ele>412.0</ele><time>2026-05-02T09:37:07.999Z</time></trkpt><trkpt lat="44.76950940695426" lon="9.941698946043058"><ele>412.0</ele><time>2026-05-02T09:37:10.999Z</time></trkpt><trkpt lat="44.76944156493368" lon="9.94172681079693"><ele>412.0</ele><time>2026-05-02T09:37:13.999Z</time></trkpt><trkpt lat="44.76935471563322" lon="9.941740748512558"><ele>412.00000000000006</ele><time>2026-05-02T09:37:16.999Z</time></trkpt><trkpt lat="44.76927711552875" lon="9.941740265177609"><ele>412.0</ele><time>2026-05-02T09:37:20.999Z</time></trkpt><trkpt lat="44.769207341248055" lon="9.9417315491143"><ele>412.4285714285714</ele><time>2026-05-02T09:37:23.999Z</time></trkpt><trkpt lat="44.76913693264069" lon="9.94171005103159"><ele>412.85714285714283</ele><time>2026-05-02T09:37:26.999Z</time></trkpt><trkpt lat="44.76905249298222" lon="9.941681360727507"><ele>413.2857142857143</ele><time>2026-05-02T09:37:29.999Z</time></trkpt><trkpt lat="44.76898971309683" lon="9.941655916408209"><ele>413.71428571428567</ele><time>2026-05-02T09:37:32.999Z</time></trkpt><trkpt lat="44.768922664926734" lon="9.941620164053056"><ele>414.14285714285717</ele><time>2026-05-02T09:37:35.999Z</time></trkpt><trkpt lat="44.76885024765661" lon="9.941580890113764"><ele>414.57142857142856</ele><time>2026-05-02T09:37:39.999Z</time></trkpt><trkpt lat="44.768786616363485" lon="9.941538854673208"><ele>415.0</ele><time>2026-05-02T09:37:42.999Z</time></trkpt><trkpt lat="44.76872507041223" lon="9.9414778552878"><ele>415.0</ele><time>2026-05-02T09:37:45.999Z</time></trkpt><trkpt lat="44.768678540503814" lon="9.941403053992788"><ele>415.0</ele><time>2026-05-02T09:37:48.999Z</time></trkpt><trkpt lat="44.76864269497165" lon="9.941314203519283"><ele>415.0</ele><time>2026-05-02T09:37:51.999Z</time></trkpt><trkpt lat="44.76861867832471" lon="9.941225679067085"><ele>415.0</ele><time>2026-05-02T09:37:53.999Z</time></trkpt><trkpt lat="44.768594854009876" lon="9.941131635132368"><ele>415.0</ele><time>2026-05-02T09:37:56.998Z</time></trkpt><trkpt lat="44.76856864282792" lon="9.941026190470069"><ele>415.0</ele><time>2026-05-02T09:38:00.998Z</time></trkpt><trkpt lat="44.768546179750636" lon="9.940927418717864"><ele>415.0</ele><time>2026-05-02T09:38:03.998Z</time></trkpt><trkpt lat="44.76851272374683" lon="9.940828959690464"><ele>416.42857142857144</ele><time>2026-05-02T09:38:06.998Z</time></trkpt><trkpt lat="44.76847247550457" lon="9.940740290653647"><ele>417.8571428571429</ele><time>2026-05-02T09:38:09.998Z</time></trkpt><trkpt lat="44.76842174766394" lon="9.94066751356603"><ele>419.2857142857143</ele><time>2026-05-02T09:38:12.998Z</time></trkpt><trkpt lat="44.76836676343442" lon="9.940601538408702"><ele>420.7142857142857</ele><time>2026-05-02T09:38:15.998Z</time></trkpt><trkpt lat="44.76830484955369" lon="9.940550163163541"><ele>422.1428571428571</ele><time>2026-05-02T09:38:18.998Z</time></trkpt><trkpt lat="44.76824625079015" lon="9.940497189334563"><ele>423.57142857142856</ele><time>2026-05-02T09:38:21.998Z</time></trkpt><trkpt lat="44.76818366814334" lon="9.940447715694779"><ele>425.0</ele><time>2026-05-02T09:38:24.998Z</time></trkpt><trkpt lat="44.768106715020195" lon="9.94040537419352"><ele>424.99999999999994</ele><time>2026-05-02T09:38:27.998Z</time></trkpt><trkpt lat="44.768027466277445" lon="9.940368334625568"><ele>425.0</ele><time>2026-05-02T09:38:30.998Z</time></trkpt><trkpt lat="44.767950722940675" lon="9.94034687755304"><ele>425.0</ele><time>2026-05-02T09:38:33.998Z</time></trkpt><trkpt lat="44.76787433699369" lon="9.94033278310777"><ele>425.0</ele><time>2026-05-02T09:38:36.998Z</time></trkpt><trkpt lat="44.767793482385166" lon="9.940327449374168"><ele>424.99999999999994</ele><time>2026-05-02T09:38:39.998Z</time></trkpt><trkpt lat="44.76771554577612" lon="9.940333250452575"><ele>425.0</ele><time>2026-05-02T09:38:42.998Z</time></trkpt><trkpt lat="44.76762665698753" lon="9.940346536811472"><ele>425.57142857142856</ele><time>2026-05-02T09:38:45.998Z</time></trkpt><trkpt lat="44.767557852315754" lon="9.94035572137923"><ele>426.1428571428571</ele><time>2026-05-02T09:38:49Z</time></trkpt><trkpt lat="44.76748588922855" lon="9.940374322924086"><ele>426.7142857142857</ele><time>2026-05-02T09:38:52Z</time></trkpt><trkpt lat="44.76741136039042" lon="9.940381532476405"><ele>427.2857142857143</ele><time>2026-05-02T09:38:55Z</time></trkpt><trkpt lat="44.76734850841168" lon="9.94039059880422"><ele>427.8571428571429</ele><time>2026-05-02T09:38:57Z</time></trkpt><trkpt lat="44.767274180652045" lon="9.940399320418289"><ele>428.42857142857144</ele><time>2026-05-02T09:39:00Z</time></trkpt><trkpt lat="44.76720156719402" lon="9.94041231562467"><ele>429.0</ele><time>2026-05-02T09:39:03Z</time></trkpt><trkpt lat="44.767129010335495" lon="9.940425453283334"><ele>429.0</ele><time>2026-05-02T09:39:05.999Z</time></trkpt><trkpt lat="44.767050025328786" lon="9.940443270359633"><ele>429.0</ele><time>2026-05-02T09:39:08.999Z</time></trkpt><trkpt lat="44.76697060060126" lon="9.94045495138366"><ele>429.0</ele><time>2026-05-02T09:39:11.999Z</time></trkpt><trkpt lat="44.766896631621755" lon="9.940480261529746"><ele>429.0</ele><time>2026-05-02T09:39:14.999Z</time></trkpt><trkpt lat="44.766819307264505" lon="9.940499393634816"><ele>429.0</ele><time>2026-05-02T09:39:17.999Z</time></trkpt><trkpt lat="44.76674491744943" lon="9.94052845832929"><ele>429.0</ele><time>2026-05-02T09:39:20.999Z</time></trkpt><trkpt lat="44.76667322320815" lon="9.940549424018892"><ele>429.42857142857144</ele><time>2026-05-02T09:39:23.999Z</time></trkpt><trkpt lat="44.76660515353725" lon="9.940575194644865"><ele>429.8571428571429</ele><time>2026-05-02T09:39:26.999Z</time></trkpt><trkpt lat="44.76653692293666" lon="9.940606320744177"><ele>430.2857142857143</ele><time>2026-05-02T09:39:29.999Z</time></trkpt><trkpt lat="44.766465771417536" lon="9.94063501171657"><ele>430.7142857142857</ele><time>2026-05-02T09:39:32.999Z</time></trkpt><trkpt lat="44.76640341227846" lon="9.940660151246675"><ele>431.1428571428571</ele><time>2026-05-02T09:39:35.999Z</time></trkpt><trkpt lat="44.76633365697629" lon="9.940691154439998"><ele>431.57142857142856</ele><time>2026-05-02T09:39:38.999Z</time></trkpt><trkpt lat="44.766251324439224" lon="9.94072758395416"><ele>432.0</ele><time>2026-05-02T09:39:41.999Z</time></trkpt><trkpt lat="44.766178714659034" lon="9.940761354548812"><ele>432.0</ele><time>2026-05-02T09:39:45.999Z</time></trkpt><trkpt lat="44.76611045842406" lon="9.940784899446381"><ele>432.0</ele><time>2026-05-02T09:39:48.999Z</time></trkpt><trkpt lat="44.76604338029741" lon="9.940813802832901"><ele>432.0</ele><time>2026-05-02T09:39:51.999Z</time></trkpt><trkpt lat="44.7659726642688" lon="9.940840133377133"><ele>432.0</ele><time>2026-05-02T09:39:54.999Z</time></trkpt><trkpt lat="44.76589815574446" lon="9.940869112599968"><ele>432.0</ele><time>2026-05-02T09:39:57.998Z</time></trkpt><trkpt lat="44.765816282992915" lon="9.940902276407735"><ele>432.0</ele><time>2026-05-02T09:40:01.998Z</time></trkpt><trkpt lat="44.7657441866799" lon="9.940939124849365"><ele>432.0</ele><time>2026-05-02T09:40:04.998Z</time></trkpt><trkpt lat="44.765662708805635" lon="9.94098194246102"><ele>432.0</ele><time>2026-05-02T09:40:07.998Z</time></trkpt><trkpt lat="44.76560288376465" lon="9.941022644574602"><ele>432.0</ele><time>2026-05-02T09:40:10.998Z</time></trkpt><trkpt lat="44.76554043432502" lon="9.941063219378183"><ele>432.0</ele><time>2026-05-02T09:40:13.998Z</time></trkpt><trkpt lat="44.76546271889159" lon="9.941119868264616"><ele>432.0</ele><time>2026-05-02T09:40:17.998Z</time></trkpt><trkpt lat="44.765398347288176" lon="9.941171966716364"><ele>432.0</ele><time>2026-05-02T09:40:20.998Z</time></trkpt><trkpt lat="44.76532644583906" lon="9.941223376793316"><ele>432.0</ele><time>2026-05-02T09:40:23.998Z</time></trkpt><trkpt lat="44.765256451958976" lon="9.94127907213145"><ele>432.0</ele><time>2026-05-02T09:40:27.998Z</time></trkpt><trkpt lat="44.765193852824076" lon="9.941324001410988"><ele>432.0</ele><time>2026-05-02T09:40:30.998Z</time></trkpt><trkpt lat="44.76512767584003" lon="9.941371336474337"><ele>432.0</ele><time>2026-05-02T09:40:33.998Z</time></trkpt><trkpt lat="44.765060981710484" lon="9.941418687477313"><ele>432.0</ele><time>2026-05-02T09:40:36.998Z</time></trkpt><trkpt lat="44.76500443048909" lon="9.941458503200666"><ele>432.0</ele><time>2026-05-02T09:40:39.998Z</time></trkpt><trkpt lat="44.76492943642704" lon="9.941517592296597"><ele>432.0</ele><time>2026-05-02T09:40:43.998Z</time></trkpt><trkpt lat="44.76486133257358" lon="9.941563161375605"><ele>432.85714285714283</ele><time>2026-05-02T09:40:46.998Z</time></trkpt><trkpt lat="44.76480516455554" lon="9.94160898159671"><ele>433.71428571428567</ele><time>2026-05-02T09:40:49.998Z</time></trkpt><trkpt lat="44.76473587045573" lon="9.941667313569178"><ele>434.57142857142856</ele><time>2026-05-02T09:40:54Z</time></trkpt><trkpt lat="44.76467829369845" lon="9.941706613431524"><ele>435.42857142857144</ele><time>2026-05-02T09:40:57Z</time></trkpt><trkpt lat="44.76461753575543" lon="9.941750934209546"><ele>436.2857142857143</ele><time>2026-05-02T09:41:00Z</time></trkpt><trkpt lat="44.76455362388739" lon="9.941802244587182"><ele>437.14285714285717</ele><time>2026-05-02T09:41:03Z</time></trkpt><trkpt lat="44.764483982573196" lon="9.941851630785525"><ele>438.0</ele><time>2026-05-02T09:41:07Z</time></trkpt><trkpt lat="44.7644246349666" lon="9.941903323302398"><ele>440.42857142857144</ele><time>2026-05-02T09:41:09.999Z</time></trkpt><trkpt lat="44.76435762996418" lon="9.941950499588504"><ele>442.85714285714283</ele><time>2026-05-02T09:41:12.999Z</time></trkpt><trkpt lat="44.76430047320225" lon="9.941988935204092"><ele>445.2857142857143</ele><time>2026-05-02T09:41:15.999Z</time></trkpt><trkpt lat="44.76422965168501" lon="9.942045155462738"><ele>447.7142857142857</ele><time>2026-05-02T09:41:19.999Z</time></trkpt><trkpt lat="44.76417360446757" lon="9.942091868634238"><ele>450.1428571428571</ele><time>2026-05-02T09:41:22.999Z</time></trkpt><trkpt lat="44.76411174436925" lon="9.942146695122018"><ele>452.57142857142856</ele><time>2026-05-02T09:41:25.999Z</time></trkpt><trkpt lat="44.764047422552075" lon="9.942197854488333"><ele>455.0</ele><time>2026-05-02T09:41:29.999Z</time></trkpt><trkpt lat="44.763992193786926" lon="9.94225418787011"><ele>454.99999999999994</ele><time>2026-05-02T09:41:32.999Z</time></trkpt><trkpt lat="44.763917138007606" lon="9.942318811906057"><ele>455.0</ele><time>2026-05-02T09:41:36.999Z</time></trkpt><trkpt lat="44.7638598705034" lon="9.942378799715383"><ele>455.0</ele><time>2026-05-02T09:41:39.999Z</time></trkpt><trkpt lat="44.76380030446582" lon="9.94244288248901"><ele>455.0</ele><time>2026-05-02T09:41:43.999Z</time></trkpt><trkpt lat="44.76374008447422" lon="9.942492894124028"><ele>454.99999999999994</ele><time>2026-05-02T09:41:46.999Z</time></trkpt><trkpt lat="44.763672746322584" lon="9.942551216291035"><ele>455.0</ele><time>2026-05-02T09:41:49.999Z</time></trkpt><trkpt lat="44.7636114105109" lon="9.942599674802333"><ele>454.57142857142856</ele><time>2026-05-02T09:41:53.999Z</time></trkpt><trkpt lat="44.76354738778149" lon="9.942639554873802"><ele>454.1428571428571</ele><time>2026-05-02T09:41:56.999Z</time></trkpt><trkpt lat="44.7634855159628" lon="9.942671009703457"><ele>453.7142857142857</ele><time>2026-05-02T09:41:59.999Z</time></trkpt><trkpt lat="44.763406288978096" lon="9.94269704591554"><ele>453.2857142857143</ele><time>2026-05-02T09:42:03.998Z</time></trkpt><trkpt lat="44.76334140095872" lon="9.942713381389007"><ele>452.85714285714283</ele><time>2026-05-02T09:42:06.998Z</time></trkpt><trkpt lat="44.76326553102344" lon="9.942735555860915"><ele>452.42857142857144</ele><time>2026-05-02T09:42:10.998Z</time></trkpt><trkpt lat="44.763202691659025" lon="9.942722295244504"><ele>452.0</ele><time>2026-05-02T09:42:13.998Z</time></trkpt><trkpt lat="44.76314444791505" lon="9.94266007150524"><ele>453.7142857142857</ele><time>2026-05-02T09:42:17.998Z</time></trkpt><trkpt lat="44.76314760619654" lon="9.942555792519926"><ele>455.42857142857144</ele><time>2026-05-02T09:42:21.999Z</time></trkpt><trkpt lat="44.76317941231935" lon="9.94245100933989"><ele>457.14285714285717</ele><time>2026-05-02T09:42:25.999Z</time></trkpt><trkpt lat="44.76321110610555" lon="9.942369676603121"><ele>458.8571428571429</ele><time>2026-05-02T09:42:28.999Z</time></trkpt><trkpt lat="44.763240161918255" lon="9.942289321877444"><ele>460.57142857142856</ele><time>2026-05-02T09:42:31.999Z</time></trkpt><trkpt lat="44.76327735962298" lon="9.942192772433796"><ele>462.28571428571433</ele><time>2026-05-02T09:42:35.999Z</time></trkpt><trkpt lat="44.76330940714891" lon="9.942110592050499"><ele>464.00000000000006</ele><time>2026-05-02T09:42:38.999Z</time></trkpt><trkpt lat="44.76334807373803" lon="9.942024369549156"><ele>464.3333333333333</ele><time>2026-05-02T09:42:41.999Z</time></trkpt><trkpt lat="44.763391423768404" lon="9.941928324432872"><ele>464.66666666666663</ele><time>2026-05-02T09:42:45.999Z</time></trkpt><trkpt lat="44.76342922682987" lon="9.941848521400448"><ele>465.0</ele><time>2026-05-02T09:42:48.999Z</time></trkpt><trkpt lat="44.763478604550876" lon="9.941756069367118"><ele>465.33333333333337</ele><time>2026-05-02T09:42:52.999Z</time></trkpt><trkpt lat="44.76352136407932" lon="9.94167178469714"><ele>465.6666666666667</ele><time>2026-05-02T09:42:55.998Z</time></trkpt><trkpt lat="44.763566618117565" lon="9.941592806584207"><ele>466.0</ele><time>2026-05-02T09:42:58.998Z</time></trkpt><trkpt lat="44.76361950393159" lon="9.941499393786563"><ele>465.28571428571433</ele><time>2026-05-02T09:43:03Z</time></trkpt><trkpt lat="44.763657031451444" lon="9.941423518199223"><ele>464.57142857142856</ele><time>2026-05-02T09:43:06Z</time></trkpt><trkpt lat="44.76370184967976" lon="9.941337008365698"><ele>463.8571428571429</ele><time>2026-05-02T09:43:09Z</time></trkpt><trkpt lat="44.7637409353952" lon="9.941256967737358"><ele>463.14285714285717</ele><time>2026-05-02T09:43:12Z</time></trkpt><trkpt lat="44.76378832657964" lon="9.941167406223032"><ele>462.42857142857144</ele><time>2026-05-02T09:43:16Z</time></trkpt><trkpt lat="44.76383057171473" lon="9.941090052251486"><ele>461.7142857142857</ele><time>2026-05-02T09:43:19Z</time></trkpt><trkpt lat="44.76387265588682" lon="9.941012758184815"><ele>461.0</ele><time>2026-05-02T09:43:22Z</time></trkpt><trkpt lat="44.763914925539375" lon="9.940908644862919"><ele>462.42857142857144</ele><time>2026-05-02T09:43:25Z</time></trkpt><trkpt lat="44.76394389858244" lon="9.94081153381058"><ele>463.8571428571429</ele><time>2026-05-02T09:43:29Z</time></trkpt><trkpt lat="44.76397030932403" lon="9.94071680078392"><ele>465.28571428571433</ele><time>2026-05-02T09:43:32Z</time></trkpt><trkpt lat="44.76398324114934" lon="9.940620942265264"><ele>466.7142857142858</ele><time>2026-05-02T09:43:35Z</time></trkpt><trkpt lat="44.7639730493174" lon="9.940520235190519"><ele>468.14285714285717</ele><time>2026-05-02T09:43:38Z</time></trkpt><trkpt lat="44.76391082007665" lon="9.940451627316206"><ele>469.57142857142867</ele><time>2026-05-02T09:43:41Z</time></trkpt><trkpt lat="44.76384754065425" lon="9.940490414987453"><ele>471.00000000000006</ele><time>2026-05-02T09:43:44Z</time></trkpt><trkpt lat="44.76380048270214" lon="9.940552775544859"><ele>471.0</ele><time>2026-05-02T09:43:47Z</time></trkpt><trkpt lat="44.76375619253841" lon="9.94063096755072"><ele>471.0</ele><time>2026-05-02T09:43:50Z</time></trkpt><trkpt lat="44.763716591087395" lon="9.940719108292583"><ele>471.0</ele><time>2026-05-02T09:43:53Z</time></trkpt><trkpt lat="44.76366949637655" lon="9.940796537131869"><ele>471.0</ele><time>2026-05-02T09:43:56Z</time></trkpt><trkpt lat="44.76359994096877" lon="9.940879145056325"><ele>471.0</ele><time>2026-05-02T09:43:59Z</time></trkpt><trkpt lat="44.763544534428945" lon="9.94092443927778"><ele>471.0</ele><time>2026-05-02T09:44:02Z</time></trkpt><trkpt lat="44.76347039347019" lon="9.940974165914815"><ele>472.00000000000006</ele><time>2026-05-02T09:44:05.999Z</time></trkpt><trkpt lat="44.763401992591604" lon="9.941012749078785"><ele>473.0</ele><time>2026-05-02T09:44:08.999Z</time></trkpt><trkpt lat="44.76333407385298" lon="9.94105508724179"><ele>474.00000000000006</ele><time>2026-05-02T09:44:11.999Z</time></trkpt><trkpt lat="44.76326212364224" lon="9.941096880016437"><ele>475.00000000000006</ele><time>2026-05-02T09:44:14.999Z</time></trkpt><trkpt lat="44.763190248810226" lon="9.941131518951934"><ele>476.0</ele><time>2026-05-02T09:44:17.999Z</time></trkpt><trkpt lat="44.763122957163596" lon="9.941150832005418"><ele>477.00000000000006</ele><time>2026-05-02T09:44:20.999Z</time></trkpt><trkpt lat="44.76305094081281" lon="9.941149937038713"><ele>478.00000000000006</ele><time>2026-05-02T09:44:23.999Z</time></trkpt><trkpt lat="44.762978447067" lon="9.941120773648588"><ele>478.00000000000006</ele><time>2026-05-02T09:44:26.999Z</time></trkpt><trkpt lat="44.76290660117635" lon="9.941090822519767"><ele>478.0</ele><time>2026-05-02T09:44:29.999Z</time></trkpt><trkpt lat="44.762830895692304" lon="9.941041159109021"><ele>478.0</ele><time>2026-05-02T09:44:32.999Z</time></trkpt><trkpt lat="44.762742746704554" lon="9.940993690325772"><ele>478.0</ele><time>2026-05-02T09:44:35.999Z</time></trkpt><trkpt lat="44.76266946956625" lon="9.94100137571843"><ele>478.00000000000006</ele><time>2026-05-02T09:44:38.999Z</time></trkpt><trkpt lat="44.76259187892968" lon="9.94102939717236"><ele>478.0</ele><time>2026-05-02T09:44:41.999Z</time></trkpt><trkpt lat="44.76253493963312" lon="9.941075069792939"><ele>480.1666666666667</ele><time>2026-05-02T09:44:43.999Z</time></trkpt><trkpt lat="44.76247753596133" lon="9.941148384553063"><ele>482.33333333333337</ele><time>2026-05-02T09:44:46.999Z</time></trkpt><trkpt lat="44.76242382032823" lon="9.941246011772279"><ele>484.5</ele><time>2026-05-02T09:44:49.999Z</time></trkpt><trkpt lat="44.76236977766632" lon="9.941334841254374"><ele>486.66666666666663</ele><time>2026-05-02T09:44:52.999Z</time></trkpt><trkpt lat="44.76232558565935" lon="9.941404114454453"><ele>488.8333333333333</ele><time>2026-05-02T09:44:55.999Z</time></trkpt><trkpt lat="44.76228425337383" lon="9.941480483620293"><ele>491.0</ele><time>2026-05-02T09:44:58.998Z</time></trkpt><trkpt lat="44.76223508350592" lon="9.941545206268817"><ele>490.99999999999994</ele><time>2026-05-02T09:45:01.998Z</time></trkpt><trkpt lat="44.762161667206456" lon="9.941593704441956"><ele>491.0</ele><time>2026-05-02T09:45:04.998Z</time></trkpt><trkpt lat="44.76209030190514" lon="9.941617430077798"><ele>491.0</ele><time>2026-05-02T09:45:08Z</time></trkpt><trkpt lat="44.76200848916514" lon="9.941632625517093"><ele>491.0</ele><time>2026-05-02T09:45:11Z</time></trkpt><trkpt lat="44.761936548161714" lon="9.941625067011643"><ele>490.99999999999994</ele><time>2026-05-02T09:45:14Z</time></trkpt><trkpt lat="44.76186119752689" lon="9.941616306824846"><ele>491.0</ele><time>2026-05-02T09:45:17Z</time></trkpt><trkpt lat="44.76178482001762" lon="9.941605823606508"><ele>491.66666666666663</ele><time>2026-05-02T09:45:20Z</time></trkpt><trkpt lat="44.76170618257932" lon="9.941603123838453"><ele>492.3333333333333</ele><time>2026-05-02T09:45:23Z</time></trkpt><trkpt lat="44.76162061701847" lon="9.941629082284912"><ele>493.0</ele><time>2026-05-02T09:45:26Z</time></trkpt><trkpt lat="44.761548797627555" lon="9.941663666403857"><ele>493.66666666666663</ele><time>2026-05-02T09:45:29Z</time></trkpt><trkpt lat="44.761489014060395" lon="9.94171096134827"><ele>494.3333333333333</ele><time>2026-05-02T09:45:32Z</time></trkpt><trkpt lat="44.76142806639885" lon="9.941762474719477"><ele>495.0</ele><time>2026-05-02T09:45:35Z</time></trkpt><trkpt lat="44.761362119244296" lon="9.941838028470121"><ele>494.99999999999994</ele><time>2026-05-02T09:45:39Z</time></trkpt><trkpt lat="44.76130711017724" lon="9.941909530355593"><ele>495.0</ele><time>2026-05-02T09:45:42Z</time></trkpt><trkpt lat="44.761259733870446" lon="9.941977089651694"><ele>494.99999999999994</ele><time>2026-05-02T09:45:45Z</time></trkpt><trkpt lat="44.761214964633936" lon="9.94205520038557"><ele>494.99999999999994</ele><time>2026-05-02T09:45:48Z</time></trkpt><trkpt lat="44.76117444496006" lon="9.942136898719111"><ele>495.0</ele><time>2026-05-02T09:45:51Z</time></trkpt><trkpt lat="44.76113176963038" lon="9.942216017957906"><ele>494.99999999999994</ele><time>2026-05-02T09:45:54Z</time></trkpt><trkpt lat="44.761082664804135" lon="9.942317681287394"><ele>494.99999999999994</ele><time>2026-05-02T09:45:57Z</time></trkpt><trkpt lat="44.761047078736034" lon="9.942392046855353"><ele>497.5714285714285</ele><time>2026-05-02T09:46:00Z</time></trkpt><trkpt lat="44.761014604611525" lon="9.942472155541973"><ele>500.1428571428571</ele><time>2026-05-02T09:46:03Z</time></trkpt><trkpt lat="44.76098077417271" lon="9.942561565580705"><ele>502.7142857142857</ele><time>2026-05-02T09:46:06Z</time></trkpt><trkpt lat="44.76095223577345" lon="9.942651167833121"><ele>505.2857142857143</ele><time>2026-05-02T09:46:09Z</time></trkpt><trkpt lat="44.7609348747727" lon="9.942746885234026"><ele>507.8571428571429</ele><time>2026-05-02T09:46:11.999Z</time></trkpt><trkpt lat="44.76092958072446" lon="9.942854777659845"><ele>510.4285714285715</ele><time>2026-05-02T09:46:14.999Z</time></trkpt><trkpt lat="44.760941806436556" lon="9.942961844288527"><ele>513.0</ele><time>2026-05-02T09:46:17.999Z</time></trkpt><trkpt lat="44.760961752974566" lon="9.943050022274985"><ele>513.3333333333334</ele><time>2026-05-02T09:46:20.999Z</time></trkpt><trkpt lat="44.76098681461179" lon="9.943148486768452"><ele>513.6666666666666</ele><time>2026-05-02T09:46:23.999Z</time></trkpt><trkpt lat="44.76101048556261" lon="9.943238804492342"><ele>514.0</ele><time>2026-05-02T09:46:26.999Z</time></trkpt><trkpt lat="44.76102775573741" lon="9.943339888607772"><ele>514.3333333333333</ele><time>2026-05-02T09:46:29.999Z</time></trkpt><trkpt lat="44.76102634212389" lon="9.943442889754417"><ele>514.6666666666666</ele><time>2026-05-02T09:46:32.999Z</time></trkpt><trkpt lat="44.76100815633986" lon="9.943546910422814"><ele>515.0</ele><time>2026-05-02T09:46:35.999Z</time></trkpt><trkpt lat="44.76099541744125" lon="9.943665932489257"><ele>514.2857142857143</ele><time>2026-05-02T09:46:38.999Z</time></trkpt><trkpt lat="44.76097924525175" lon="9.943755236886956"><ele>513.5714285714286</ele><time>2026-05-02T09:46:41.999Z</time></trkpt><trkpt lat="44.76095684009385" lon="9.943854847930183"><ele>512.8571428571429</ele><time>2026-05-02T09:46:44.999Z</time></trkpt><trkpt lat="44.76092376815174" lon="9.943945328112886"><ele>512.1428571428571</ele><time>2026-05-02T09:46:47.999Z</time></trkpt><trkpt lat="44.7608662554169" lon="9.944003339143999"><ele>511.42857142857144</ele><time>2026-05-02T09:46:50.999Z</time></trkpt><trkpt lat="44.76079968803277" lon="9.94398602838636"><ele>510.7142857142857</ele><time>2026-05-02T09:46:53.999Z</time></trkpt><trkpt lat="44.76075233500184" lon="9.943916082329709"><ele>510.0</ele><time>2026-05-02T09:46:56.999Z</time></trkpt><trkpt lat="44.76071529900741" lon="9.94381375351625"><ele>510.0</ele><time>2026-05-02T09:46:59.999Z</time></trkpt><trkpt lat="44.76068564886791" lon="9.943708973283062"><ele>510.00000000000006</ele><time>2026-05-02T09:47:03.998Z</time></trkpt><trkpt lat="44.760662316156726" lon="9.943616426611205"><ele>510.0</ele><time>2026-05-02T09:47:06.998Z</time></trkpt><trkpt lat="44.76064156520969" lon="9.943507699475001"><ele>510.0</ele><time>2026-05-02T09:47:09.998Z</time></trkpt><trkpt lat="44.76063066104087" lon="9.94341854838074"><ele>510.00000000000006</ele><time>2026-05-02T09:47:13Z</time></trkpt><trkpt lat="44.760604421563826" lon="9.943318549355666"><ele>510.0</ele><time>2026-05-02T09:47:16Z</time></trkpt><trkpt lat="44.760574802895704" lon="9.943219148713588"><ele>510.0</ele><time>2026-05-02T09:47:19Z</time></trkpt><trkpt lat="44.76053968349777" lon="9.943126448235121"><ele>510.8333333333333</ele><time>2026-05-02T09:47:22Z</time></trkpt><trkpt lat="44.7605015732724" lon="9.94303733957513"><ele>511.66666666666663</ele><time>2026-05-02T09:47:25Z</time></trkpt><trkpt lat="44.760459840235164" lon="9.942958863150706"><ele>512.5</ele><time>2026-05-02T09:47:28Z</time></trkpt><trkpt lat="44.76041174474731" lon="9.942870573484313"><ele>513.3333333333333</ele><time>2026-05-02T09:47:31Z</time></trkpt><trkpt lat="44.76035947321559" lon="9.942773778875768"><ele>514.1666666666666</ele><time>2026-05-02T09:47:34Z</time></trkpt><trkpt lat="44.76032205461988" lon="9.942692542269684"><ele>515.0</ele><time>2026-05-02T09:47:37Z</time></trkpt><trkpt lat="44.76029955870422" lon="9.942593799335162"><ele>514.7142857142858</ele><time>2026-05-02T09:47:40Z</time></trkpt><trkpt lat="44.76029476641335" lon="9.942500647087305"><ele>514.4285714285714</ele><time>2026-05-02T09:47:42Z</time></trkpt><trkpt lat="44.76030531416958" lon="9.94239855012248"><ele>514.1428571428571</ele><time>2026-05-02T09:47:45Z</time></trkpt><trkpt lat="44.76031769830326" lon="9.942305315967857"><ele>513.8571428571429</ele><time>2026-05-02T09:47:47Z</time></trkpt><trkpt lat="44.76033408913058" lon="9.94220262348228"><ele>513.5714285714286</ele><time>2026-05-02T09:47:50Z</time></trkpt><trkpt lat="44.76034829062313" lon="9.942107421393565"><ele>513.2857142857143</ele><time>2026-05-02T09:47:53Z</time></trkpt><trkpt lat="44.760366269703866" lon="9.942010715883843"><ele>513.0</ele><time>2026-05-02T09:47:56Z</time></trkpt><trkpt lat="44.76038507696436" lon="9.941911610570667"><ele>513.0</ele><time>2026-05-02T09:47:59Z</time></trkpt><trkpt lat="44.76040704438247" lon="9.941808458287216"><ele>513.0</ele><time>2026-05-02T09:48:02Z</time></trkpt><trkpt lat="44.76042711034139" lon="9.941704107148613"><ele>513.0</ele><time>2026-05-02T09:48:05Z</time></trkpt><trkpt lat="44.76044553392162" lon="9.941600704831687"><ele>513.0</ele><time>2026-05-02T09:48:08Z</time></trkpt><trkpt lat="44.76046880398899" lon="9.941479290645585"><ele>513.0</ele><time>2026-05-02T09:48:11Z</time></trkpt><trkpt lat="44.760484163023385" lon="9.941382067884215"><ele>513.0</ele><time>2026-05-02T09:48:13.999Z</time></trkpt><trkpt lat="44.76050695973786" lon="9.941295936630553"><ele>513.2857142857143</ele><time>2026-05-02T09:48:16.999Z</time></trkpt><trkpt lat="44.76052802854565" lon="9.941199591354488"><ele>513.5714285714286</ele><time>2026-05-02T09:48:19.999Z</time></trkpt><trkpt lat="44.760556190936924" lon="9.941103001123077"><ele>513.8571428571429</ele><time>2026-05-02T09:48:22.999Z</time></trkpt><trkpt lat="44.760590365111085" lon="9.941024341116899"><ele>514.1428571428571</ele><time>2026-05-02T09:48:24.999Z</time></trkpt><trkpt lat="44.76063841149402" lon="9.940937995944957"><ele>514.4285714285714</ele><time>2026-05-02T09:48:27.999Z</time></trkpt><trkpt lat="44.76068288354643" lon="9.940853865507473"><ele>514.7142857142858</ele><time>2026-05-02T09:48:30.999Z</time></trkpt><trkpt lat="44.7607313353201" lon="9.940774311972303"><ele>515.0</ele><time>2026-05-02T09:48:33.999Z</time></trkpt><trkpt lat="44.76078464765032" lon="9.940702537552282"><ele>516.8333333333333</ele><time>2026-05-02T09:48:36.999Z</time></trkpt><trkpt lat="44.76084089079291" lon="9.940612181011069"><ele>518.6666666666666</ele><time>2026-05-02T09:48:40.999Z</time></trkpt><trkpt lat="44.76088957477206" lon="9.940539597215368"><ele>520.5</ele><time>2026-05-02T09:48:43.999Z</time></trkpt><trkpt lat="44.76094618388311" lon="9.940447473793933"><ele>522.3333333333334</ele><time>2026-05-02T09:48:46.999Z</time></trkpt><trkpt lat="44.760995937402015" lon="9.940363060327089"><ele>524.1666666666667</ele><time>2026-05-02T09:48:50.999Z</time></trkpt><trkpt lat="44.76102215390703" lon="9.94026674408684"><ele>526.0</ele><time>2026-05-02T09:48:53.999Z</time></trkpt><trkpt lat="44.76101283532685" lon="9.940166827934586"><ele>526.0</ele><time>2026-05-02T09:48:56.999Z</time></trkpt><trkpt lat="44.760962269242675" lon="9.940083498801767"><ele>526.0</ele><time>2026-05-02T09:48:59.999Z</time></trkpt><trkpt lat="44.760880368472655" lon="9.940054042144821"><ele>526.0</ele><time>2026-05-02T09:49:02.999Z</time></trkpt><trkpt lat="44.760815934850804" lon="9.94006887993288"><ele>526.0</ele><time>2026-05-02T09:49:05.999Z</time></trkpt><trkpt lat="44.76075396322098" lon="9.940099044112445"><ele>526.0</ele><time>2026-05-02T09:49:08.998Z</time></trkpt><trkpt lat="44.760685556465894" lon="9.940123458257746"><ele>526.0</ele><time>2026-05-02T09:49:11.998Z</time></trkpt><trkpt lat="44.76061949670928" lon="9.940149830462985"><ele>526.0</ele><time>2026-05-02T09:49:14.998Z</time></trkpt><trkpt lat="44.76054831206214" lon="9.940174828684635"><ele>526.0</ele><time>2026-05-02T09:49:18Z</time></trkpt><trkpt lat="44.76046621585857" lon="9.940206509863067"><ele>526.0</ele><time>2026-05-02T09:49:21Z</time></trkpt><trkpt lat="44.76038693333351" lon="9.940232624870456"><ele>526.0</ele><time>2026-05-02T09:49:25Z</time></trkpt><trkpt lat="44.76031508165337" lon="9.940255134565842"><ele>526.0</ele><time>2026-05-02T09:49:28Z</time></trkpt><trkpt lat="44.76024319908157" lon="9.940284424610821"><ele>526.0</ele><time>2026-05-02T09:49:31Z</time></trkpt><trkpt lat="44.76017514460748" lon="9.940332911831142"><ele>526.0</ele><time>2026-05-02T09:49:34Z</time></trkpt><trkpt lat="44.76009999344439" lon="9.940403087568232"><ele>528.3333333333334</ele><time>2026-05-02T09:49:37Z</time></trkpt><trkpt lat="44.760050711491466" lon="9.940473337468726"><ele>530.6666666666667</ele><time>2026-05-02T09:49:40Z</time></trkpt><trkpt lat="44.76000173789213" lon="9.940542816943607"><ele>533.0</ele><time>2026-05-02T09:49:43Z</time></trkpt><trkpt lat="44.75995283791239" lon="9.940624065205482"><ele>535.3333333333334</ele><time>2026-05-02T09:49:46Z</time></trkpt><trkpt lat="44.75990149800669" lon="9.94070289416864"><ele>537.6666666666666</ele><time>2026-05-02T09:49:49Z</time></trkpt><trkpt lat="44.75984915453808" lon="9.940781538698763"><ele>540.0</ele><time>2026-05-02T09:49:52Z</time></trkpt><trkpt lat="44.75978700299652" lon="9.940874725708397"><ele>538.8571428571429</ele><time>2026-05-02T09:49:55Z</time></trkpt><trkpt lat="44.75972921050684" lon="9.940945841538987"><ele>537.7142857142857</ele><time>2026-05-02T09:49:58Z</time></trkpt><trkpt lat="44.75967581406173" lon="9.941025182264731"><ele>536.5714285714286</ele><time>2026-05-02T09:50:01Z</time></trkpt><trkpt lat="44.759635929521394" lon="9.941107796100912"><ele>535.4285714285714</ele><time>2026-05-02T09:50:04Z</time></trkpt><trkpt lat="44.75959786213172" lon="9.941190535272563"><ele>534.2857142857142</ele><time>2026-05-02T09:50:07Z</time></trkpt><trkpt lat="44.759553337736456" lon="9.941272989382194"><ele>533.1428571428571</ele><time>2026-05-02T09:50:10Z</time></trkpt><trkpt lat="44.75950864945402" lon="9.941365176494571"><ele>532.0</ele><time>2026-05-02T09:50:13Z</time></trkpt><trkpt lat="44.75947337515963" lon="9.941449756933396"><ele>532.0</ele><time>2026-05-02T09:50:16Z</time></trkpt><trkpt lat="44.75943228865552" lon="9.941534866780374"><ele>532.0</ele><time>2026-05-02T09:50:18.999Z</time></trkpt><trkpt lat="44.75939128140197" lon="9.941624349828924"><ele>532.0</ele><time>2026-05-02T09:50:21.999Z</time></trkpt><trkpt lat="44.759347591713414" lon="9.941714481213802"><ele>532.0</ele><time>2026-05-02T09:50:24.999Z</time></trkpt><trkpt lat="44.75930909505558" lon="9.941788086012664"><ele>532.0</ele><time>2026-05-02T09:50:27.999Z</time></trkpt><trkpt lat="44.7592640420955" lon="9.941872513278444"><ele>532.0</ele><time>2026-05-02T09:50:30.999Z</time></trkpt><trkpt lat="44.759231146599745" lon="9.94196644445857"><ele>532.0</ele><time>2026-05-02T09:50:33.999Z</time></trkpt><trkpt lat="44.759181652445065" lon="9.942065530571204"><ele>533.8571428571429</ele><time>2026-05-02T09:50:36.999Z</time></trkpt><trkpt lat="44.759140980270615" lon="9.942161381938002"><ele>535.7142857142858</ele><time>2026-05-02T09:50:39.999Z</time></trkpt><trkpt lat="44.75911758497804" lon="9.942258901142068"><ele>537.5714285714286</ele><time>2026-05-02T09:50:42.999Z</time></trkpt><trkpt lat="44.75910032333599" lon="9.942355123312227"><ele>539.4285714285714</ele><time>2026-05-02T09:50:45.999Z</time></trkpt><trkpt lat="44.759087157387896" lon="9.942447727059745"><ele>541.2857142857143</ele><time>2026-05-02T09:50:48.999Z</time></trkpt><trkpt lat="44.75908112489343" lon="9.942543399020202"><ele>543.1428571428571</ele><time>2026-05-02T09:50:51.999Z</time></trkpt><trkpt lat="44.759076233024274" lon="9.942640758786267"><ele>545.0</ele><time>2026-05-02T09:50:54.999Z</time></trkpt><trkpt lat="44.759078924893004" lon="9.942746278701899"><ele>545.0</ele><time>2026-05-02T09:50:57.999Z</time></trkpt><trkpt lat="44.7590803977561" lon="9.942853941649528"><ele>545.0</ele><time>2026-05-02T09:51:00.999Z</time></trkpt><trkpt lat="44.75906618092183" lon="9.942950608086353"><ele>545.0</ele><time>2026-05-02T09:51:03.999Z</time></trkpt><trkpt lat="44.75900835004486" lon="9.94298761677756"><ele>545.0</ele><time>2026-05-02T09:51:06.999Z</time></trkpt><trkpt lat="44.75895960640378" lon="9.942917013146412"><ele>545.0</ele><time>2026-05-02T09:51:10.999Z</time></trkpt><trkpt lat="44.7589420124664" lon="9.94283057058209"><ele>545.0</ele><time>2026-05-02T09:51:13.998Z</time></trkpt><trkpt lat="44.758926876671886" lon="9.942729969563953"><ele>545.0</ele><time>2026-05-02T09:51:16.998Z</time></trkpt><trkpt lat="44.75891137337041" lon="9.942631094500396"><ele>545.4285714285714</ele><time>2026-05-02T09:51:20.998Z</time></trkpt><trkpt lat="44.75889960938577" lon="9.94254046374854"><ele>545.8571428571429</ele><time>2026-05-02T09:51:24Z</time></trkpt><trkpt lat="44.75889492907104" lon="9.942449331830458"><ele>546.2857142857143</ele><time>2026-05-02T09:51:27Z</time></trkpt><trkpt lat="44.75888381446436" lon="9.942350454113894"><ele>546.7142857142858</ele><time>2026-05-02T09:51:30Z</time></trkpt><trkpt lat="44.75887878862259" lon="9.942254641826406"><ele>547.1428571428571</ele><time>2026-05-02T09:51:34Z</time></trkpt><trkpt lat="44.758880454015014" lon="9.942164424517518"><ele>547.5714285714287</ele><time>2026-05-02T09:51:37Z</time></trkpt><trkpt lat="44.75889274474425" lon="9.942053596022303"><ele>548.0</ele><time>2026-05-02T09:51:40Z</time></trkpt><trkpt lat="44.75890339880922" lon="9.941950689302148"><ele>548.0</ele><time>2026-05-02T09:51:44Z</time></trkpt><trkpt lat="44.75891775602451" lon="9.941836758204797"><ele>548.0</ele><time>2026-05-02T09:51:47Z</time></trkpt><trkpt lat="44.75893320387409" lon="9.941739185334791"><ele>548.0</ele><time>2026-05-02T09:51:51Z</time></trkpt><trkpt lat="44.758948839695876" lon="9.941642032115938"><ele>548.0</ele><time>2026-05-02T09:51:54Z</time></trkpt><trkpt lat="44.75896554703641" lon="9.941539102042299"><ele>548.0</ele><time>2026-05-02T09:51:57Z</time></trkpt><trkpt lat="44.75898962885387" lon="9.941431051734263"><ele>548.0</ele><time>2026-05-02T09:52:01Z</time></trkpt><trkpt lat="44.759003995413416" lon="9.941331703662708"><ele>549.1428571428572</ele><time>2026-05-02T09:52:04Z</time></trkpt><trkpt lat="44.75902175251488" lon="9.941235016410046"><ele>550.2857142857143</ele><time>2026-05-02T09:52:07Z</time></trkpt><trkpt lat="44.75903692431446" lon="9.941123726248163"><ele>551.4285714285714</ele><time>2026-05-02T09:52:10Z</time></trkpt><trkpt lat="44.75904867137994" lon="9.941030567184427"><ele>552.5714285714287</ele><time>2026-05-02T09:52:13Z</time></trkpt><trkpt lat="44.75905595622229" lon="9.940940270442551"><ele>553.7142857142858</ele><time>2026-05-02T09:52:16Z</time></trkpt><trkpt lat="44.7590598121129" lon="9.9408453128997"><ele>554.8571428571429</ele><time>2026-05-02T09:52:19Z</time></trkpt><trkpt lat="44.75905438905926" lon="9.940745793234719"><ele>556.0</ele><time>2026-05-02T09:52:22Z</time></trkpt><trkpt lat="44.75904053299696" lon="9.940649361114831"><ele>557.2857142857142</ele><time>2026-05-02T09:52:24.999Z</time></trkpt><trkpt lat="44.75901252577737" lon="9.940539059870552"><ele>558.5714285714286</ele><time>2026-05-02T09:52:27.999Z</time></trkpt><trkpt lat="44.75899429231259" lon="9.940446658827904"><ele>559.8571428571429</ele><time>2026-05-02T09:52:30.999Z</time></trkpt><trkpt lat="44.758988219407435" lon="9.940350471793185"><ele>561.1428571428571</ele><time>2026-05-02T09:52:33.999Z</time></trkpt><trkpt lat="44.758999741667836" lon="9.940254910468331"><ele>562.4285714285714</ele><time>2026-05-02T09:52:36.999Z</time></trkpt><trkpt lat="44.759031180304504" lon="9.940163648250312"><ele>563.7142857142857</ele><time>2026-05-02T09:52:39.999Z</time></trkpt><trkpt lat="44.75907091434712" lon="9.940076735969518"><ele>565.0</ele><time>2026-05-02T09:52:42.999Z</time></trkpt><trkpt lat="44.75911368641285" lon="9.939989357682531"><ele>565.8333333333334</ele><time>2026-05-02T09:52:45.999Z</time></trkpt><trkpt lat="44.75915549581286" lon="9.939885462571334"><ele>566.6666666666667</ele><time>2026-05-02T09:52:48.999Z</time></trkpt><trkpt lat="44.759169803123605" lon="9.939797168836776"><ele>567.5</ele><time>2026-05-02T09:52:51.999Z</time></trkpt><trkpt lat="44.75917724025493" lon="9.939693133970952"><ele>568.3333333333334</ele><time>2026-05-02T09:52:54.999Z</time></trkpt><trkpt lat="44.75917980434377" lon="9.93958862432936"><ele>569.1666666666666</ele><time>2026-05-02T09:52:57.999Z</time></trkpt><trkpt lat="44.75917293825605" lon="9.939480933808452"><ele>570.0</ele><time>2026-05-02T09:53:00.999Z</time></trkpt><trkpt lat="44.7591515834444" lon="9.939377123881947"><ele>570.0</ele><time>2026-05-02T09:53:03.999Z</time></trkpt><trkpt lat="44.75912601645802" lon="9.939273895727979"><ele>570.0</ele><time>2026-05-02T09:53:06.999Z</time></trkpt><trkpt lat="44.75909877926696" lon="9.939193055459027"><ele>570.0</ele><time>2026-05-02T09:53:09.999Z</time></trkpt><trkpt lat="44.75906504246966" lon="9.939107072949817"><ele>570.0</ele><time>2026-05-02T09:53:12.999Z</time></trkpt><trkpt lat="44.75901915180033" lon="9.93902832837537"><ele>570.0</ele><time>2026-05-02T09:53:15.998Z</time></trkpt><trkpt lat="44.758964513780974" lon="9.93895755841806"><ele>570.0</ele><time>2026-05-02T09:53:18.998Z</time></trkpt><trkpt lat="44.75889928227794" lon="9.938921206651532"><ele>570.0</ele><time>2026-05-02T09:53:21.998Z</time></trkpt><trkpt lat="44.75881680490275" lon="9.938885500225046"><ele>569.8571428571429</ele><time>2026-05-02T09:53:24.998Z</time></trkpt><trkpt lat="44.75874926589283" lon="9.938876960706487"><ele>569.7142857142858</ele><time>2026-05-02T09:53:27.998Z</time></trkpt><trkpt lat="44.75867918360057" lon="9.938873832734542"><ele>569.5714285714287</ele><time>2026-05-02T09:53:31Z</time></trkpt><trkpt lat="44.75861099277788" lon="9.938869715264728"><ele>569.4285714285714</ele><time>2026-05-02T09:53:34Z</time></trkpt><trkpt lat="44.75853971650459" lon="9.938862711303091"><ele>569.2857142857143</ele><time>2026-05-02T09:53:37Z</time></trkpt><trkpt lat="44.758471273879984" lon="9.938844080449186"><ele>569.1428571428572</ele><time>2026-05-02T09:53:40Z</time></trkpt><trkpt lat="44.75840522312157" lon="9.93880198635099"><ele>569.0</ele><time>2026-05-02T09:53:43Z</time></trkpt><trkpt lat="44.75834739060715" lon="9.938721141492785"><ele>571.6666666666666</ele><time>2026-05-02T09:53:46Z</time></trkpt><trkpt lat="44.75830970078497" lon="9.938618898137728"><ele>574.3333333333333</ele><time>2026-05-02T09:53:49Z</time></trkpt><trkpt lat="44.758273853582395" lon="9.938513746929486"><ele>577.0</ele><time>2026-05-02T09:53:52Z</time></trkpt><trkpt lat="44.75826928917424" lon="9.938399262737025"><ele>579.6666666666666</ele><time>2026-05-02T09:53:55Z</time></trkpt><trkpt lat="44.75824990267527" lon="9.93828184595855"><ele>582.3333333333334</ele><time>2026-05-02T09:53:58Z</time></trkpt><trkpt lat="44.758230995342664" lon="9.93818171089489"><ele>585.0</ele><time>2026-05-02T09:54:01Z</time></trkpt><trkpt lat="44.758189828371236" lon="9.938077533829812"><ele>585.0</ele><time>2026-05-02T09:54:05Z</time></trkpt><trkpt lat="44.75814386090658" lon="9.938003928420525"><ele>585.0</ele><time>2026-05-02T09:54:08Z</time></trkpt><trkpt lat="44.758096209238964" lon="9.937937148553175"><ele>585.0</ele><time>2026-05-02T09:54:11Z</time></trkpt><trkpt lat="44.75804934327469" lon="9.937860838931055"><ele>585.0</ele><time>2026-05-02T09:54:14Z</time></trkpt><trkpt lat="44.75800891066995" lon="9.937775800571297"><ele>585.0</ele><time>2026-05-02T09:54:17Z</time></trkpt><trkpt lat="44.75798155105914" lon="9.93768075558926"><ele>585.0</ele><time>2026-05-02T09:54:20Z</time></trkpt><trkpt lat="44.7579529815677" lon="9.937564796166766"><ele>585.0</ele><time>2026-05-02T09:54:22.999Z</time></trkpt><trkpt lat="44.75794567669098" lon="9.937466530834207"><ele>584.5714285714286</ele><time>2026-05-02T09:54:25.999Z</time></trkpt><trkpt lat="44.75793768438883" lon="9.937359749034353"><ele>584.1428571428571</ele><time>2026-05-02T09:54:28.999Z</time></trkpt><trkpt lat="44.75793716143896" lon="9.937271058088308"><ele>583.7142857142857</ele><time>2026-05-02T09:54:31.999Z</time></trkpt><trkpt lat="44.757945638866275" lon="9.93717251434087"><ele>583.2857142857142</ele><time>2026-05-02T09:54:34.999Z</time></trkpt><trkpt lat="44.75795714515891" lon="9.937066394806019"><ele>582.8571428571428</ele><time>2026-05-02T09:54:37.999Z</time></trkpt><trkpt lat="44.75797739228782" lon="9.936962231609355"><ele>582.4285714285714</ele><time>2026-05-02T09:54:40.999Z</time></trkpt><trkpt lat="44.75800746612653" lon="9.9368589948129"><ele>582.0</ele><time>2026-05-02T09:54:43.999Z</time></trkpt><trkpt lat="44.75804585573241" lon="9.936764233006764"><ele>582.8571428571429</ele><time>2026-05-02T09:54:46.999Z</time></trkpt><trkpt lat="44.75808247205345" lon="9.93668465939878"><ele>583.7142857142857</ele><time>2026-05-02T09:54:49.999Z</time></trkpt><trkpt lat="44.75812530000157" lon="9.936617112773785"><ele>584.5714285714286</ele><time>2026-05-02T09:54:51.999Z</time></trkpt><trkpt lat="44.75818950882129" lon="9.936539825841708"><ele>585.4285714285714</ele><time>2026-05-02T09:54:55.999Z</time></trkpt><trkpt lat="44.758253013313826" lon="9.936483451616077"><ele>586.2857142857142</ele><time>2026-05-02T09:54:58.999Z</time></trkpt><trkpt lat="44.758318583466796" lon="9.936428415513701"><ele>587.1428571428571</ele><time>2026-05-02T09:55:01.999Z</time></trkpt><trkpt lat="44.75837401190746" lon="9.936344204383044"><ele>588.0</ele><time>2026-05-02T09:55:04.999Z</time></trkpt><trkpt lat="44.75838255890237" lon="9.936251046910654"><ele>588.0</ele><time>2026-05-02T09:55:07.999Z</time></trkpt><trkpt lat="44.75835898411352" lon="9.936160300119397"><ele>588.0</ele><time>2026-05-02T09:55:10.999Z</time></trkpt><trkpt lat="44.75831427689535" lon="9.936088051102036"><ele>588.0</ele><time>2026-05-02T09:55:13.999Z</time></trkpt><trkpt lat="44.758248414406495" lon="9.936045806341095"><ele>588.0</ele><time>2026-05-02T09:55:16.998Z</time></trkpt><trkpt lat="44.75816873585883" lon="9.936020459825759"><ele>588.0</ele><time>2026-05-02T09:55:19.998Z</time></trkpt><trkpt lat="44.75810099101482" lon="9.935988999709467"><ele>588.0</ele><time>2026-05-02T09:55:22.998Z</time></trkpt><trkpt lat="44.75802363658039" lon="9.935975246430338"><ele>588.0</ele><time>2026-05-02T09:55:25.998Z</time></trkpt><trkpt lat="44.75795136920955" lon="9.935972317882799"><ele>588.0</ele><time>2026-05-02T09:55:28.998Z</time></trkpt><trkpt lat="44.75787858735036" lon="9.935992002795928"><ele>588.0</ele><time>2026-05-02T09:55:31.998Z</time></trkpt><trkpt lat="44.75781339559293" lon="9.936031798711287"><ele>588.0</ele><time>2026-05-02T09:55:35Z</time></trkpt><trkpt lat="44.75776011349499" lon="9.936091653258297"><ele>588.0</ele><time>2026-05-02T09:55:38Z</time></trkpt><trkpt lat="44.75771234793292" lon="9.936150117363109"><ele>588.0</ele><time>2026-05-02T09:55:41Z</time></trkpt><trkpt lat="44.75766707702688" lon="9.936224119282707"><ele>588.0</ele><time>2026-05-02T09:55:44Z</time></trkpt><trkpt lat="44.757617233358154" lon="9.936310159562339"><ele>588.0</ele><time>2026-05-02T09:55:47Z</time></trkpt><trkpt lat="44.75758045968978" lon="9.936383447247607"><ele>591.1666666666666</ele><time>2026-05-02T09:55:49Z</time></trkpt><trkpt lat="44.75753891587762" lon="9.936479868768973"><ele>594.3333333333334</ele><time>2026-05-02T09:55:53Z</time></trkpt><trkpt lat="44.757507707327335" lon="9.936568622694294"><ele>597.5</ele><time>2026-05-02T09:55:56Z</time></trkpt><trkpt lat="44.75747470720782" lon="9.93667128779636"><ele>600.6666666666667</ele><time>2026-05-02T09:55:59Z</time></trkpt><trkpt lat="44.75744211621773" lon="9.936776887822141"><ele>603.8333333333334</ele><time>2026-05-02T09:56:02Z</time></trkpt><trkpt lat="44.75740457921533" lon="9.936883121273109"><ele>607.0</ele><time>2026-05-02T09:56:05Z</time></trkpt><trkpt lat="44.757369434901186" lon="9.936971719972028"><ele>607.0</ele><time>2026-05-02T09:56:08Z</time></trkpt><trkpt lat="44.75733982022573" lon="9.937062164869683"><ele>607.0</ele><time>2026-05-02T09:56:11Z</time></trkpt><trkpt lat="44.75731073919028" lon="9.93715995525101"><ele>607.0</ele><time>2026-05-02T09:56:14Z</time></trkpt><trkpt lat="44.75727529951671" lon="9.937260384741"><ele>607.0</ele><time>2026-05-02T09:56:17Z</time></trkpt><trkpt lat="44.75724001745277" lon="9.937362139274468"><ele>607.0</ele><time>2026-05-02T09:56:20Z</time></trkpt><trkpt lat="44.757202304407066" lon="9.937475155955687"><ele>607.0</ele><time>2026-05-02T09:56:23Z</time></trkpt><trkpt lat="44.75717691119451" lon="9.937571435693956"><ele>608.0</ele><time>2026-05-02T09:56:26Z</time></trkpt><trkpt lat="44.757155090900554" lon="9.93768256621371"><ele>609.0</ele><time>2026-05-02T09:56:29Z</time></trkpt><trkpt lat="44.757152669420066" lon="9.937778816849784"><ele>610.0</ele><time>2026-05-02T09:56:30.999Z</time></trkpt><trkpt lat="44.75716585133886" lon="9.93787930582311"><ele>611.0</ele><time>2026-05-02T09:56:33.999Z</time></trkpt><trkpt lat="44.757181253516386" lon="9.937974382555435"><ele>612.0</ele><time>2026-05-02T09:56:35.999Z</time></trkpt><trkpt lat="44.757217469785985" lon="9.938079749964638"><ele>613.0</ele><time>2026-05-02T09:56:38.999Z</time></trkpt><trkpt lat="44.75727246298213" lon="9.938168421216151"><ele>613.0</ele><time>2026-05-02T09:56:41.999Z</time></trkpt><trkpt lat="44.75732259062097" lon="9.938233940226146"><ele>613.0</ele><time>2026-05-02T09:56:43.999Z</time></trkpt><trkpt lat="44.75739203083695" lon="9.938308982945655"><ele>613.0</ele><time>2026-05-02T09:56:46.999Z</time></trkpt><trkpt lat="44.757452593427445" lon="9.938374643397564"><ele>613.0</ele><time>2026-05-02T09:56:48.999Z</time></trkpt><trkpt lat="44.75751637545734" lon="9.938455688552464"><ele>613.0</ele><time>2026-05-02T09:56:51.999Z</time></trkpt><trkpt lat="44.75755920109413" lon="9.938552929440847"><ele>613.0</ele><time>2026-05-02T09:56:54.999Z</time></trkpt><trkpt lat="44.757577100026694" lon="9.9386649339425"><ele>612.7142857142858</ele><time>2026-05-02T09:56:57.999Z</time></trkpt><trkpt lat="44.75757376791964" lon="9.938757653310455"><ele>612.4285714285714</ele><time>2026-05-02T09:56:59.999Z</time></trkpt><trkpt lat="44.75754969056442" lon="9.93885108127462"><ele>612.1428571428571</ele><time>2026-05-02T09:57:02.999Z</time></trkpt><trkpt lat="44.75751324342786" lon="9.938929325046752"><ele>611.8571428571429</ele><time>2026-05-02T09:57:05.999Z</time></trkpt><trkpt lat="44.75745269715741" lon="9.93898201870352"><ele>611.5714285714286</ele><time>2026-05-02T09:57:08.999Z</time></trkpt><trkpt lat="44.75737054599125" lon="9.939000907802145"><ele>611.2857142857143</ele><time>2026-05-02T09:57:11.999Z</time></trkpt><trkpt lat="44.75730322499109" lon="9.93899150059577"><ele>611.0</ele><time>2026-05-02T09:57:14.999Z</time></trkpt><trkpt lat="44.7572381525832" lon="9.93895090027664"><ele>611.0</ele><time>2026-05-02T09:57:17.999Z</time></trkpt><trkpt lat="44.75716903886695" lon="9.938892272176354"><ele>611.0</ele><time>2026-05-02T09:57:20.999Z</time></trkpt><trkpt lat="44.75710531483388" lon="9.9388255588011"><ele>611.0</ele><time>2026-05-02T09:57:23.999Z</time></trkpt><trkpt lat="44.75706624444814" lon="9.938729736806605"><ele>611.0</ele><time>2026-05-02T09:57:26.998Z</time></trkpt><trkpt lat="44.75703248675512" lon="9.938617883955967"><ele>611.0</ele><time>2026-05-02T09:57:29.998Z</time></trkpt><trkpt lat="44.75701474191399" lon="9.938500970927764"><ele>611.0</ele><time>2026-05-02T09:57:32.998Z</time></trkpt><trkpt lat="44.75699762386104" lon="9.938390715106088"><ele>611.3333333333333</ele><time>2026-05-02T09:57:35.998Z</time></trkpt><trkpt lat="44.756986179083604" lon="9.938276562791344"><ele>611.6666666666666</ele><time>2026-05-02T09:57:38.998Z</time></trkpt><trkpt lat="44.756971754738714" lon="9.9381556365342"><ele>612.0</ele><time>2026-05-02T09:57:42Z</time></trkpt><trkpt lat="44.75695312237757" lon="9.938036052453619"><ele>612.3333333333334</ele><time>2026-05-02T09:57:45Z</time></trkpt><trkpt lat="44.75693445010727" lon="9.937917806548136"><ele>612.6666666666667</ele><time>2026-05-02T09:57:48Z</time></trkpt><trkpt lat="44.75691152655951" lon="9.937803071726137"><ele>613.0</ele><time>2026-05-02T09:57:51Z</time></trkpt><trkpt lat="44.75689384552609" lon="9.93771036762178"><ele>613.0</ele><time>2026-05-02T09:57:54Z</time></trkpt><trkpt lat="44.756877840829816" lon="9.937624291023694"><ele>613.0</ele><time>2026-05-02T09:57:56Z</time></trkpt><trkpt lat="44.75686021900235" lon="9.937520380102482"><ele>613.0</ele><time>2026-05-02T09:57:59Z</time></trkpt><trkpt lat="44.75684442996088" lon="9.937430588274383"><ele>613.0</ele><time>2026-05-02T09:58:01Z</time></trkpt><trkpt lat="44.75683743458819" lon="9.937316593575327"><ele>613.0</ele><time>2026-05-02T09:58:04Z</time></trkpt><trkpt lat="44.756835749161766" lon="9.93719783276161"><ele>613.0</ele><time>2026-05-02T09:58:07Z</time></trkpt><trkpt lat="44.75684096209721" lon="9.937101003545767"><ele>613.0</ele><time>2026-05-02T09:58:10Z</time></trkpt><trkpt lat="44.75684803706177" lon="9.937011066589307"><ele>614.1666666666667</ele><time>2026-05-02T09:58:13Z</time></trkpt><trkpt lat="44.7568476375599" lon="9.936906434303719"><ele>615.3333333333334</ele><time>2026-05-02T09:58:18Z</time></trkpt><trkpt lat="44.75679169409983" lon="9.936969008650168"><ele>616.5</ele><time>2026-05-02T09:58:22Z</time></trkpt><trkpt lat="44.756781589906446" lon="9.937059949730356"><ele>617.6666666666666</ele><time>2026-05-02T10:00:42.999Z</time></trkpt><trkpt lat="44.756776369121226" lon="9.937180091823318"><ele>618.8333333333333</ele><time>2026-05-02T10:00:45.999Z</time></trkpt><trkpt lat="44.75677821831466" lon="9.937283102721493"><ele>620.0</ele><time>2026-05-02T10:00:47.999Z</time></trkpt><trkpt lat="44.75678969381396" lon="9.937399788554702"><ele>620.0</ele><time>2026-05-02T10:00:49.999Z</time></trkpt><trkpt lat="44.756804521318045" lon="9.937528489887052"><ele>620.0</ele><time>2026-05-02T10:00:51.999Z</time></trkpt><trkpt lat="44.75682131593517" lon="9.937667976486884"><ele>620.0</ele><time>2026-05-02T10:00:53.999Z</time></trkpt><trkpt lat="44.75684394739673" lon="9.937817750134272"><ele>620.0</ele><time>2026-05-02T10:00:55.999Z</time></trkpt><trkpt lat="44.756875315290216" lon="9.937984624998114"><ele>620.0</ele><time>2026-05-02T10:00:57.999Z</time></trkpt><trkpt lat="44.756892347695185" lon="9.938070147733923"><ele>619.0</ele><time>2026-05-02T10:00:58.999Z</time></trkpt><trkpt lat="44.75690738353477" lon="9.938160031301377"><ele>618.0</ele><time>2026-05-02T10:00:59.999Z</time></trkpt><trkpt lat="44.756920919541" lon="9.938251958231138"><ele>617.0</ele><time>2026-05-02T10:01:00.999Z</time></trkpt><trkpt lat="44.756935932586345" lon="9.938345769065378"><ele>616.0</ele><time>2026-05-02T10:01:01.999Z</time></trkpt><trkpt lat="44.756957542428516" lon="9.938439758562845"><ele>615.0</ele><time>2026-05-02T10:01:02.999Z</time></trkpt><trkpt lat="44.75697754085653" lon="9.938534949785161"><ele>614.0</ele><time>2026-05-02T10:01:03.999Z</time></trkpt><trkpt lat="44.75699866540246" lon="9.938633603305485"><ele>613.0</ele><time>2026-05-02T10:01:04.999Z</time></trkpt><trkpt lat="44.75702203096376" lon="9.938733992392406"><ele>612.6666666666667</ele><time>2026-05-02T10:01:05.999Z</time></trkpt><trkpt lat="44.757053700733216" lon="9.938831472664873"><ele>612.3333333333334</ele><time>2026-05-02T10:01:06.999Z</time></trkpt><trkpt lat="44.75710255453012" lon="9.938921829992738"><ele>612.0</ele><time>2026-05-02T10:01:07.999Z</time></trkpt><trkpt lat="44.7571671853467" lon="9.93899407460276"><ele>611.6666666666666</ele><time>2026-05-02T10:01:08.999Z</time></trkpt><trkpt lat="44.75723916913362" lon="9.939049373171938"><ele>611.3333333333333</ele><time>2026-05-02T10:01:09.999Z</time></trkpt><trkpt lat="44.757316404574226" lon="9.939082774904097"><ele>611.0</ele><time>2026-05-02T10:01:10.999Z</time></trkpt><trkpt lat="44.7573981459929" lon="9.939104424268615"><ele>611.0</ele><time>2026-05-02T10:01:11.999Z</time></trkpt><trkpt lat="44.757481434814345" lon="9.939082913938988"><ele>611.0</ele><time>2026-05-02T10:01:12.999Z</time></trkpt><trkpt lat="44.757549096128876" lon="9.939023116922643"><ele>611.0</ele><time>2026-05-02T10:01:13.999Z</time></trkpt><trkpt lat="44.757601198559954" lon="9.938927133144787"><ele>611.0</ele><time>2026-05-02T10:01:14.999Z</time></trkpt><trkpt lat="44.75763977826908" lon="9.938816918317643"><ele>611.0</ele><time>2026-05-02T10:01:15.999Z</time></trkpt><trkpt lat="44.757654239843724" lon="9.93869667653502"><ele>611.0</ele><time>2026-05-02T10:01:16.999Z</time></trkpt><trkpt lat="44.75764012924284" lon="9.938578482646719"><ele>611.0</ele><time>2026-05-02T10:01:17.999Z</time></trkpt><trkpt lat="44.75759426670321" lon="9.938471444190494"><ele>611.0</ele><time>2026-05-02T10:01:18.999Z</time></trkpt><trkpt lat="44.75752916910192" lon="9.938383408538503"><ele>611.0</ele><time>2026-05-02T10:01:19.999Z</time></trkpt><trkpt lat="44.75745846807221" lon="9.93831098818125"><ele>611.0</ele><time>2026-05-02T10:01:20.999Z</time></trkpt><trkpt lat="44.75738192398901" lon="9.938247754929922"><ele>611.0</ele><time>2026-05-02T10:01:21.999Z</time></trkpt><trkpt lat="44.75730902362818" lon="9.938174168363668"><ele>611.0</ele><time>2026-05-02T10:01:22.999Z</time></trkpt><trkpt lat="44.75724808126419" lon="9.938081669116832"><ele>611.4</ele><time>2026-05-02T10:01:23.999Z</time></trkpt><trkpt lat="44.757210165966065" lon="9.937969878972783"><ele>611.8</ele><time>2026-05-02T10:01:24.999Z</time></trkpt><trkpt lat="44.75719228341311" lon="9.93784756922113"><ele>612.1999999999999</ele><time>2026-05-02T10:01:25.999Z</time></trkpt><trkpt lat="44.75719760191907" lon="9.937720449833158"><ele>612.6</ele><time>2026-05-02T10:01:26.999Z</time></trkpt><trkpt lat="44.7572193321293" lon="9.937594028901133"><ele>613.0</ele><time>2026-05-02T10:01:27.999Z</time></trkpt><trkpt lat="44.757256910780306" lon="9.937474437299745"><ele>612.0</ele><time>2026-05-02T10:01:28.999Z</time></trkpt><trkpt lat="44.75729899280519" lon="9.937357355867984"><ele>611.0</ele><time>2026-05-02T10:01:29.999Z</time></trkpt><trkpt lat="44.75733726927438" lon="9.937245213773986"><ele>610.0</ele><time>2026-05-02T10:01:30.998Z</time></trkpt><trkpt lat="44.75737248625731" lon="9.937132941991056"><ele>609.0</ele><time>2026-05-02T10:01:31.998Z</time></trkpt><trkpt lat="44.75741032528192" lon="9.937021554866169"><ele>608.0</ele><time>2026-05-02T10:01:32.998Z</time></trkpt><trkpt lat="44.75744871290341" lon="9.93691325548847"><ele>607.0</ele><time>2026-05-02T10:01:33.998Z</time></trkpt><trkpt lat="44.75748472126584" lon="9.936807401076786"><ele>607.8333333333334</ele><time>2026-05-02T10:01:34.998Z</time></trkpt><trkpt lat="44.757517510174466" lon="9.936707512596046"><ele>608.6666666666667</ele><time>2026-05-02T10:01:35.998Z</time></trkpt><trkpt lat="44.75755299596258" lon="9.936611134468562"><ele>609.5</ele><time>2026-05-02T10:01:36.998Z</time></trkpt><trkpt lat="44.757590511731706" lon="9.936512094794045"><ele>610.3333333333334</ele><time>2026-05-02T10:01:37.998Z</time></trkpt><trkpt lat="44.7576262769546" lon="9.936412159536905"><ele>611.1666666666666</ele><time>2026-05-02T10:01:38.998Z</time></trkpt><trkpt lat="44.757667490696775" lon="9.936319021951613"><ele>612.0</ele><time>2026-05-02T10:01:39.998Z</time></trkpt><trkpt lat="44.75771689850945" lon="9.936227354643119"><ele>608.0</ele><time>2026-05-02T10:01:40.998Z</time></trkpt><trkpt lat="44.75777523475572" lon="9.93614469074774"><ele>604.0</ele><time>2026-05-02T10:01:41.998Z</time></trkpt><trkpt lat="44.75783828279934" lon="9.936075689651698"><ele>600.0</ele><time>2026-05-02T10:01:42.998Z</time></trkpt><trkpt lat="44.7579047588502" lon="9.936028281633718"><ele>596.0</ele><time>2026-05-02T10:01:43.998Z</time></trkpt><trkpt lat="44.757977307207256" lon="9.936008898969044"><ele>592.0</ele><time>2026-05-02T10:01:44.998Z</time></trkpt><trkpt lat="44.75805791266333" lon="9.936015595435233"><ele>588.0</ele><time>2026-05-02T10:01:45.998Z</time></trkpt><trkpt lat="44.75813912514278" lon="9.936039731452922"><ele>588.0</ele><time>2026-05-02T10:01:46.998Z</time></trkpt><trkpt lat="44.75821291127533" lon="9.936066687145509"><ele>588.0</ele><time>2026-05-02T10:01:47.998Z</time></trkpt><trkpt lat="44.75827957755056" lon="9.936106997342543"><ele>588.0</ele><time>2026-05-02T10:01:48.998Z</time></trkpt><trkpt lat="44.75833301312654" lon="9.936166448957643"><ele>588.0</ele><time>2026-05-02T10:01:49.998Z</time></trkpt><trkpt lat="44.75835598489222" lon="9.936253683268461"><ele>588.0</ele><time>2026-05-02T10:01:51Z</time></trkpt><trkpt lat="44.75833081273629" lon="9.9363601446729"><ele>588.0</ele><time>2026-05-02T10:01:52Z</time></trkpt><trkpt lat="44.75826191349422" lon="9.936427033832285"><ele>588.0</ele><time>2026-05-02T10:01:53Z</time></trkpt><trkpt lat="44.75817953366555" lon="9.936467388126006"><ele>588.0</ele><time>2026-05-02T10:01:54Z</time></trkpt><trkpt lat="44.75810966152874" lon="9.936535173391633"><ele>588.0</ele><time>2026-05-02T10:01:55Z</time></trkpt><trkpt lat="44.75805042501308" lon="9.936628514550089"><ele>588.0</ele><time>2026-05-02T10:01:56Z</time></trkpt><trkpt lat="44.758002226377485" lon="9.93673893290457"><ele>588.0</ele><time>2026-05-02T10:01:57Z</time></trkpt><trkpt lat="44.75795791837825" lon="9.93685228344802"><ele>588.0</ele><time>2026-05-02T10:01:58Z</time></trkpt><trkpt lat="44.757921255087346" lon="9.936974969989503"><ele>587.4</ele><time>2026-05-02T10:01:59Z</time></trkpt><trkpt lat="44.757900198472534" lon="9.937107810498528"><ele>586.8</ele><time>2026-05-02T10:02:00Z</time></trkpt><trkpt lat="44.75788664980624" lon="9.937247173416644"><ele>586.2</ele><time>2026-05-02T10:02:01Z</time></trkpt><trkpt lat="44.75788171597318" lon="9.93739043480437"><ele>585.6</ele><time>2026-05-02T10:02:02Z</time></trkpt><trkpt lat="44.75789064468621" lon="9.937535215114645"><ele>585.0</ele><time>2026-05-02T10:02:03Z</time></trkpt><trkpt lat="44.757914410649995" lon="9.937677685307998"><ele>585.0</ele><time>2026-05-02T10:02:04Z</time></trkpt><trkpt lat="44.757958762899236" lon="9.937807691907055"><ele>585.0</ele><time>2026-05-02T10:02:05Z</time></trkpt><trkpt lat="44.75802256206357" lon="9.937922004584095"><ele>585.0</ele><time>2026-05-02T10:02:06Z</time></trkpt><trkpt lat="44.75809948440645" lon="9.938023172041886"><ele>585.0</ele><time>2026-05-02T10:02:07Z</time></trkpt><trkpt lat="44.75816856069147" lon="9.938128229356826"><ele>585.0</ele><time>2026-05-02T10:02:08Z</time></trkpt><trkpt lat="44.75820811142562" lon="9.938257892562476"><ele>586.4</ele><time>2026-05-02T10:02:09Z</time></trkpt><trkpt lat="44.758224566127396" lon="9.938397868992512"><ele>587.8</ele><time>2026-05-02T10:02:10Z</time></trkpt><trkpt lat="44.75824005216784" lon="9.938536012512209"><ele>589.2</ele><time>2026-05-02T10:02:11Z</time></trkpt><trkpt lat="44.75826595832499" lon="9.938664858883593"><ele>590.6</ele><time>2026-05-02T10:02:12Z</time></trkpt><trkpt lat="44.75831500113206" lon="9.938769894743361"><ele>592.0</ele><time>2026-05-02T10:02:13Z</time></trkpt><trkpt lat="44.75838403571905" lon="9.938848846625675"><ele>592.0</ele><time>2026-05-02T10:02:14Z</time></trkpt><trkpt lat="44.758468366048675" lon="9.938894829602537"><ele>592.0</ele><time>2026-05-02T10:02:15Z</time></trkpt><trkpt lat="44.75856069558554" lon="9.938904175667503"><ele>592.0</ele><time>2026-05-02T10:02:16Z</time></trkpt><trkpt lat="44.75865701078834" lon="9.93890069925315"><ele>592.0</ele><time>2026-05-02T10:02:17Z</time></trkpt><trkpt lat="44.758753951459056" lon="9.938902273878943"><ele>592.0</ele><time>2026-05-02T10:02:18Z</time></trkpt><trkpt lat="44.75885029920786" lon="9.938918308440645"><ele>587.6</ele><time>2026-05-02T10:02:19Z</time></trkpt><trkpt lat="44.75893600035467" lon="9.938976640621389"><ele>583.2</ele><time>2026-05-02T10:02:20Z</time></trkpt><trkpt lat="44.75900885840855" lon="9.939063581568035"><ele>578.8</ele><time>2026-05-02T10:02:21Z</time></trkpt><trkpt lat="44.75906643497241" lon="9.939180780337654"><ele>574.4</ele><time>2026-05-02T10:02:22Z</time></trkpt><trkpt lat="44.75910964598154" lon="9.939311602944093"><ele>570.0</ele><time>2026-05-02T10:02:23Z</time></trkpt><trkpt lat="44.75914093128876" lon="9.93945123597364"><ele>570.0</ele><time>2026-05-02T10:02:24Z</time></trkpt><trkpt lat="44.759157440480756" lon="9.93958535725225"><ele>570.0</ele><time>2026-05-02T10:02:25Z</time></trkpt><trkpt lat="44.75915609308932" lon="9.939727776598037"><ele>570.0</ele><time>2026-05-02T10:02:26Z</time></trkpt><trkpt lat="44.759125558709094" lon="9.939863954690116"><ele>570.0</ele><time>2026-05-02T10:02:27Z</time></trkpt><trkpt lat="44.75906553581905" lon="9.939984666813793"><ele>570.0</ele><time>2026-05-02T10:02:28Z</time></trkpt><trkpt lat="44.75900016055913" lon="9.940100999340467"><ele>569.0</ele><time>2026-05-02T10:02:29Z</time></trkpt><trkpt lat="44.758956342049906" lon="9.940229340770962"><ele>568.0</ele><time>2026-05-02T10:02:30Z</time></trkpt><trkpt lat="44.75895026446937" lon="9.940368345805133"><ele>567.0</ele><time>2026-05-02T10:02:31Z</time></trkpt><trkpt lat="44.75897327677202" lon="9.940508077107062"><ele>566.0</ele><time>2026-05-02T10:02:32Z</time></trkpt><trkpt lat="44.75900842088711" lon="9.940642726084523"><ele>565.0</ele><time>2026-05-02T10:02:33Z</time></trkpt><trkpt lat="44.75903185948142" lon="9.940784350672818"><ele>563.2</ele><time>2026-05-02T10:02:34Z</time></trkpt><trkpt lat="44.759021883891776" lon="9.940933404225232"><ele>561.4</ele><time>2026-05-02T10:02:35Z</time></trkpt><trkpt lat="44.75899239113838" lon="9.941082014803609"><ele>559.6</ele><time>2026-05-02T10:02:36Z</time></trkpt><trkpt lat="44.75896688159" lon="9.941233651675875"><ele>557.8</ele><time>2026-05-02T10:02:37Z</time></trkpt><trkpt lat="44.758943950272155" lon="9.941387829272996"><ele>556.0</ele><time>2026-05-02T10:02:38Z</time></trkpt><trkpt lat="44.75891378680723" lon="9.941543877117322"><ele>556.0</ele><time>2026-05-02T10:02:39Z</time></trkpt><trkpt lat="44.758878104463165" lon="9.941699295696488"><ele>556.0</ele><time>2026-05-02T10:02:40Z</time></trkpt><trkpt lat="44.75884592903226" lon="9.941859238805717"><ele>556.0</ele><time>2026-05-02T10:02:41Z</time></trkpt><trkpt lat="44.75882797828971" lon="9.942026835712594"><ele>556.0</ele><time>2026-05-02T10:02:42Z</time></trkpt><trkpt lat="44.7588259155861" lon="9.94219363839452"><ele>554.4</ele><time>2026-05-02T10:02:42.999Z</time></trkpt><trkpt lat="44.75883564321603" lon="9.94236101665335"><ele>552.8</ele><time>2026-05-02T10:02:43.999Z</time></trkpt><trkpt lat="44.75885452849619" lon="9.942523794342353"><ele>551.1999999999999</ele><time>2026-05-02T10:02:44.999Z</time></trkpt><trkpt lat="44.75888103822954" lon="9.942672859657474"><ele>549.6</ele><time>2026-05-02T10:02:45.999Z</time></trkpt><trkpt lat="44.75890816884073" lon="9.942810767077749"><ele>548.0</ele><time>2026-05-02T10:02:46.999Z</time></trkpt><trkpt lat="44.75892374331057" lon="9.942933065229031"><ele>547.5</ele><time>2026-05-02T10:02:47.999Z</time></trkpt><trkpt lat="44.75895005933332" lon="9.943028411573733"><ele>547.0</ele><time>2026-05-02T10:02:48.999Z</time></trkpt><trkpt lat="44.759004586956955" lon="9.943086180142938"><ele>546.5</ele><time>2026-05-02T10:02:49.999Z</time></trkpt><trkpt lat="44.759070756192436" lon="9.943104631447866"><ele>546.0</ele><time>2026-05-02T10:02:50.999Z</time></trkpt><trkpt lat="44.75912104874899" lon="9.943002323365805"><ele>545.5</ele><time>2026-05-02T10:02:51.999Z</time></trkpt><trkpt lat="44.75913472109923" lon="9.94289528306789"><ele>545.0</ele><time>2026-05-02T10:02:52.999Z</time></trkpt><trkpt lat="44.75911595832232" lon="9.942785130655391"><ele>545.0</ele><time>2026-05-02T10:02:53.999Z</time></trkpt><trkpt lat="44.75910853541601" lon="9.942678075565203"><ele>545.0</ele><time>2026-05-02T10:02:54.999Z</time></trkpt><trkpt lat="44.75910659434768" lon="9.942563831028064"><ele>545.0</ele><time>2026-05-02T10:02:55.999Z</time></trkpt><trkpt lat="44.75911481873272" lon="9.94244593743199"><ele>545.0</ele><time>2026-05-02T10:02:56.999Z</time></trkpt><trkpt lat="44.75913066734587" lon="9.942324663074528"><ele>545.0</ele><time>2026-05-02T10:02:57.999Z</time></trkpt><trkpt lat="44.75915828431928" lon="9.942203991185247"><ele>545.0</ele><time>2026-05-02T10:02:58.999Z</time></trkpt><trkpt lat="44.75920130668943" lon="9.942088505863941"><ele>545.6</ele><time>2026-05-02T10:02:59.999Z</time></trkpt><trkpt lat="44.759253474305794" lon="9.941978995391905"><ele>546.2</ele><time>2026-05-02T10:03:00.999Z</time></trkpt><trkpt lat="44.75930785229196" lon="9.94186934960615"><ele>546.8</ele><time>2026-05-02T10:03:01.999Z</time></trkpt><trkpt lat="44.75936259805139" lon="9.941755415938086"><ele>547.4</ele><time>2026-05-02T10:03:02.999Z</time></trkpt><trkpt lat="44.75942025989955" lon="9.941641126775135"><ele>548.0</ele><time>2026-05-02T10:03:03.999Z</time></trkpt><trkpt lat="44.75947879921365" lon="9.941522620984813"><ele>544.8</ele><time>2026-05-02T10:03:04.999Z</time></trkpt><trkpt lat="44.75953550015788" lon="9.941401352938739"><ele>541.5999999999999</ele><time>2026-05-02T10:03:05.999Z</time></trkpt><trkpt lat="44.75959801513822" lon="9.941279891626033"><ele>538.4000000000001</ele><time>2026-05-02T10:03:06.999Z</time></trkpt><trkpt lat="44.75966307140129" lon="9.941157760978806"><ele>535.2</ele><time>2026-05-02T10:03:07.999Z</time></trkpt><trkpt lat="44.75972955809762" lon="9.941037879168631"><ele>532.0</ele><time>2026-05-02T10:03:08.999Z</time></trkpt><trkpt lat="44.75980017625391" lon="9.940920612937987"><ele>533.6</ele><time>2026-05-02T10:03:09.999Z</time></trkpt><trkpt lat="44.75987281715617" lon="9.940808864529883"><ele>535.2</ele><time>2026-05-02T10:03:10.999Z</time></trkpt><trkpt lat="44.75994833092453" lon="9.940696149264426"><ele>536.8</ele><time>2026-05-02T10:03:11.999Z</time></trkpt><trkpt lat="44.76001870152423" lon="9.940587291580053"><ele>538.4</ele><time>2026-05-02T10:03:12.999Z</time></trkpt><trkpt lat="44.76008463594101" lon="9.94047930631431"><ele>540.0</ele><time>2026-05-02T10:03:13.999Z</time></trkpt><trkpt lat="44.76015725114663" lon="9.940382305826985"><ele>537.2</ele><time>2026-05-02T10:03:14.999Z</time></trkpt><trkpt lat="44.76024879959801" lon="9.940321463370891"><ele>534.4</ele><time>2026-05-02T10:03:15.999Z</time></trkpt><trkpt lat="44.76034913805673" lon="9.940280548187863"><ele>531.6</ele><time>2026-05-02T10:03:16.999Z</time></trkpt><trkpt lat="44.760451315079166" lon="9.940249866855124"><ele>528.8</ele><time>2026-05-02T10:03:17.999Z</time></trkpt><trkpt lat="44.760553060381355" lon="9.94021390335803"><ele>526.0</ele><time>2026-05-02T10:03:18.999Z</time></trkpt><trkpt lat="44.760651008222666" lon="9.94016603621975"><ele>526.0</ele><time>2026-05-02T10:03:19.999Z</time></trkpt><trkpt lat="44.76074445730691" lon="9.940118202246047"><ele>526.0</ele><time>2026-05-02T10:03:20.999Z</time></trkpt><trkpt lat="44.76082936781375" lon="9.940074106571986"><ele>526.0</ele><time>2026-05-02T10:03:21.999Z</time></trkpt><trkpt lat="44.7609056556207" lon="9.940054952855284"><ele>526.0</ele><time>2026-05-02T10:03:22.999Z</time></trkpt><trkpt lat="44.7609674051827" lon="9.940088787482392"><ele>526.0</ele><time>2026-05-02T10:03:23.999Z</time></trkpt><trkpt lat="44.76100523095871" lon="9.940166172936125"><ele>526.0</ele><time>2026-05-02T10:03:24.999Z</time></trkpt><trkpt lat="44.761001483640904" lon="9.940277528832278"><ele>526.0</ele><time>2026-05-02T10:03:25.999Z</time></trkpt><trkpt lat="44.76095202937222" lon="9.940374415403905"><ele>526.0</ele><time>2026-05-02T10:03:26.999Z</time></trkpt><trkpt lat="44.76088958822005" lon="9.940452483191198"><ele>526.0</ele><time>2026-05-02T10:03:27.999Z</time></trkpt><trkpt lat="44.7608303965698" lon="9.940531580367177"><ele>526.0</ele><time>2026-05-02T10:03:28.999Z</time></trkpt><trkpt lat="44.76077586326344" lon="9.940625910286165"><ele>526.0</ele><time>2026-05-02T10:03:29.999Z</time></trkpt><trkpt lat="44.7607157362284" lon="9.940719405891084"><ele>526.0</ele><time>2026-05-02T10:03:30.999Z</time></trkpt><trkpt lat="44.76065253256729" lon="9.940813133825218"><ele>523.8</ele><time>2026-05-02T10:03:31.999Z</time></trkpt><trkpt lat="44.760589554190254" lon="9.94091048835884"><ele>521.6</ele><time>2026-05-02T10:03:32.999Z</time></trkpt><trkpt lat="44.760534078304175" lon="9.941023147595615"><ele>519.4</ele><time>2026-05-02T10:03:33.999Z</time></trkpt><trkpt lat="44.760490749877455" lon="9.941151081719438"><ele>517.2</ele><time>2026-05-02T10:03:34.999Z</time></trkpt><trkpt lat="44.76045494572191" lon="9.941283584495174"><ele>515.0</ele><time>2026-05-02T10:03:35.998Z</time></trkpt><trkpt lat="44.76042448165885" lon="9.941421635855905"><ele>515.0</ele><time>2026-05-02T10:03:36.998Z</time></trkpt><trkpt lat="44.76039567647132" lon="9.941561885883281"><ele>515.0</ele><time>2026-05-02T10:03:37.998Z</time></trkpt><trkpt lat="44.76036684286615" lon="9.941703680808066"><ele>515.0</ele><time>2026-05-02T10:03:38.998Z</time></trkpt><trkpt lat="44.76033662037996" lon="9.941845182853912"><ele>515.0</ele><time>2026-05-02T10:03:39.998Z</time></trkpt><trkpt lat="44.760309372986356" lon="9.941992092617095"><ele>515.0</ele><time>2026-05-02T10:03:40.998Z</time></trkpt><trkpt lat="44.760284902309614" lon="9.942141164315931"><ele>515.0</ele><time>2026-05-02T10:03:41.998Z</time></trkpt><trkpt lat="44.76026342370879" lon="9.942290289685012"><ele>515.0</ele><time>2026-05-02T10:03:42.998Z</time></trkpt><trkpt lat="44.76024944837197" lon="9.942438705002743"><ele>515.0</ele><time>2026-05-02T10:03:43.998Z</time></trkpt><trkpt lat="44.76025648725323" lon="9.942584762413766"><ele>515.0</ele><time>2026-05-02T10:03:44.998Z</time></trkpt><trkpt lat="44.76029665774834" lon="9.942722519204954"><ele>515.0</ele><time>2026-05-02T10:03:45.998Z</time></trkpt><trkpt lat="44.76036013406626" lon="9.942842505921032"><ele>515.0</ele><time>2026-05-02T10:03:46.998Z</time></trkpt><trkpt lat="44.76042959003201" lon="9.942954411986937"><ele>515.0</ele><time>2026-05-02T10:03:47.998Z</time></trkpt><trkpt lat="44.76048921956573" lon="9.943073559129173"><ele>515.0</ele><time>2026-05-02T10:03:48.998Z</time></trkpt><trkpt lat="44.760532809649746" lon="9.943206150042958"><ele>515.0</ele><time>2026-05-02T10:03:49.998Z</time></trkpt><trkpt lat="44.760567998807396" lon="9.943347024800751"><ele>515.0</ele><time>2026-05-02T10:03:50.998Z</time></trkpt><trkpt lat="44.760598417997954" lon="9.94349024752253"><ele>514.0</ele><time>2026-05-02T10:03:51.998Z</time></trkpt><trkpt lat="44.76063342095465" lon="9.943634317874059"><ele>513.0</ele><time>2026-05-02T10:03:52.998Z</time></trkpt><trkpt lat="44.76066702786755" lon="9.94377479778248"><ele>512.0</ele><time>2026-05-02T10:03:53.998Z</time></trkpt><trkpt lat="44.760707284389184" lon="9.943907979029133"><ele>511.0</ele><time>2026-05-02T10:03:54.998Z</time></trkpt><trkpt lat="44.76076219506331" lon="9.944013746392214"><ele>510.0</ele><time>2026-05-02T10:03:55.998Z</time></trkpt><trkpt lat="44.76082568241023" lon="9.944073820016335"><ele>510.0</ele><time>2026-05-02T10:03:57Z</time></trkpt><trkpt lat="44.760894111701745" lon="9.94407712999293"><ele>510.0</ele><time>2026-05-02T10:03:58Z</time></trkpt><trkpt lat="44.760965809362496" lon="9.94402966576783"><ele>510.0</ele><time>2026-05-02T10:03:59Z</time></trkpt><trkpt lat="44.76099695503364" lon="9.943905656375613"><ele>510.0</ele><time>2026-05-02T10:04:00Z</time></trkpt><trkpt lat="44.76102210953449" lon="9.943800738504994"><ele>510.0</ele><time>2026-05-02T10:04:01Z</time></trkpt><trkpt lat="44.76104114122592" lon="9.943694889768254"><ele>510.0</ele><time>2026-05-02T10:04:02Z</time></trkpt><trkpt lat="44.761057826513095" lon="9.943585395892372"><ele>510.8333333333333</ele><time>2026-05-02T10:04:03Z</time></trkpt><trkpt lat="44.76106366074068" lon="9.943469533811859"><ele>511.66666666666663</ele><time>2026-05-02T10:04:04Z</time></trkpt><trkpt lat="44.761062594065585" lon="9.94335328763945"><ele>512.5</ele><time>2026-05-02T10:04:05Z</time></trkpt><trkpt lat="44.761045819258314" lon="9.943233672052145"><ele>513.3333333333333</ele><time>2026-05-02T10:04:06Z</time></trkpt><trkpt lat="44.76101205639839" lon="9.943117377934177"><ele>514.1666666666666</ele><time>2026-05-02T10:04:07Z</time></trkpt><trkpt lat="44.760977164805894" lon="9.943003890764963"><ele>515.0</ele><time>2026-05-02T10:04:08Z</time></trkpt><trkpt lat="44.7609605015986" lon="9.942876428618684"><ele>515.0</ele><time>2026-05-02T10:04:09Z</time></trkpt><trkpt lat="44.760963105256934" lon="9.942748198715872"><ele>515.0</ele><time>2026-05-02T10:04:10Z</time></trkpt><trkpt lat="44.76098371035577" lon="9.942621025389567"><ele>515.0</ele><time>2026-05-02T10:04:11Z</time></trkpt><trkpt lat="44.7610324528512" lon="9.94249760939997"><ele>515.0</ele><time>2026-05-02T10:04:12Z</time></trkpt><trkpt lat="44.76109248183992" lon="9.942382284663413"><ele>515.0</ele><time>2026-05-02T10:04:13Z</time></trkpt><trkpt lat="44.76115285908867" lon="9.942267846431257"><ele>511.0</ele><time>2026-05-02T10:04:14Z</time></trkpt><trkpt lat="44.76121374230355" lon="9.94215169820047"><ele>507.0</ele><time>2026-05-02T10:04:15Z</time></trkpt><trkpt lat="44.76127622252203" lon="9.942034506841182"><ele>503.0</ele><time>2026-05-02T10:04:16Z</time></trkpt><trkpt lat="44.76134363495425" lon="9.941922513022766"><ele>499.0</ele><time>2026-05-02T10:04:17Z</time></trkpt><trkpt lat="44.76142396593259" lon="9.941822234091234"><ele>495.0</ele><time>2026-05-02T10:04:18Z</time></trkpt><trkpt lat="44.76151918049163" lon="9.941746488136863"><ele>494.2</ele><time>2026-05-02T10:04:19Z</time></trkpt><trkpt lat="44.761621910013766" lon="9.941695242074614"><ele>493.4</ele><time>2026-05-02T10:04:20Z</time></trkpt><trkpt lat="44.76172738952425" lon="9.94166648515082"><ele>492.6</ele><time>2026-05-02T10:04:21Z</time></trkpt><trkpt lat="44.76183324103299" lon="9.941667434585574"><ele>491.8</ele><time>2026-05-02T10:04:22Z</time></trkpt><trkpt lat="44.761938380948536" lon="9.94168748254498"><ele>491.0</ele><time>2026-05-02T10:04:23Z</time></trkpt><trkpt lat="44.76204300022516" lon="9.941694189708896"><ele>491.0</ele><time>2026-05-02T10:04:24Z</time></trkpt><trkpt lat="44.762145179136" lon="9.941660910553951"><ele>491.0</ele><time>2026-05-02T10:04:25Z</time></trkpt><trkpt lat="44.762238613359486" lon="9.941582090481814"><ele>491.0</ele><time>2026-05-02T10:04:26Z</time></trkpt><trkpt lat="44.76231814703355" lon="9.941473519505232"><ele>491.0</ele><time>2026-05-02T10:04:27Z</time></trkpt><trkpt lat="44.76238672185828" lon="9.941350901916927"><ele>491.0</ele><time>2026-05-02T10:04:28Z</time></trkpt><trkpt lat="44.76245681013489" lon="9.941227667762801"><ele>491.0</ele><time>2026-05-02T10:04:29Z</time></trkpt><trkpt lat="44.76252143051729" lon="9.941115578374818"><ele>491.0</ele><time>2026-05-02T10:04:30Z</time></trkpt><trkpt lat="44.76259795124663" lon="9.941037825725228"><ele>491.0</ele><time>2026-05-02T10:04:31Z</time></trkpt><trkpt lat="44.76269667547067" lon="9.941018939389027"><ele>491.0</ele><time>2026-05-02T10:04:32Z</time></trkpt><trkpt lat="44.7627957894279" lon="9.941052232022301"><ele>491.0</ele><time>2026-05-02T10:04:33Z</time></trkpt><trkpt lat="44.762885856124726" lon="9.941118882104822"><ele>488.4</ele><time>2026-05-02T10:04:34Z</time></trkpt><trkpt lat="44.76297544257203" lon="9.941177133207894"><ele>485.8</ele><time>2026-05-02T10:04:35Z</time></trkpt><trkpt lat="44.76307300615335" lon="9.94120215202581"><ele>483.19999999999993</ele><time>2026-05-02T10:04:36Z</time></trkpt><trkpt lat="44.76317427174244" lon="9.941194783459856"><ele>480.59999999999997</ele><time>2026-05-02T10:04:37Z</time></trkpt><trkpt lat="44.763274216668265" lon="9.941151823818679"><ele>478.0</ele><time>2026-05-02T10:04:38Z</time></trkpt><trkpt lat="44.76336897897345" lon="9.94107953217995"><ele>478.0</ele><time>2026-05-02T10:04:39Z</time></trkpt><trkpt lat="44.76346445377519" lon="9.941013709049264"><ele>477.99999999999994</ele><time>2026-05-02T10:04:40Z</time></trkpt><trkpt lat="44.76356435166944" lon="9.940951041755605"><ele>477.99999999999994</ele><time>2026-05-02T10:04:41Z</time></trkpt><trkpt lat="44.76365654438576" lon="9.940868656380948"><ele>478.0</ele><time>2026-05-02T10:04:42Z</time></trkpt><trkpt lat="44.763730210737215" lon="9.940762774704716"><ele>478.0</ele><time>2026-05-02T10:04:43Z</time></trkpt><trkpt lat="44.76378666602077" lon="9.940651626745657"><ele>476.83333333333337</ele><time>2026-05-02T10:04:44Z</time></trkpt><trkpt lat="44.76382582856317" lon="9.94055596347424"><ele>475.6666666666667</ele><time>2026-05-02T10:04:44.999Z</time></trkpt><trkpt lat="44.76386703128498" lon="9.940488372704216"><ele>474.5</ele><time>2026-05-02T10:04:45.999Z</time></trkpt><trkpt lat="44.763968862322386" lon="9.940522347472282"><ele>473.33333333333337</ele><time>2026-05-02T10:04:47.999Z</time></trkpt><trkpt lat="44.763954253675905" lon="9.940629234864062"><ele>472.1666666666667</ele><time>2026-05-02T10:04:48.999Z</time></trkpt><trkpt lat="44.76392504563149" lon="9.94071549131944"><ele>471.0</ele><time>2026-05-02T10:04:49.999Z</time></trkpt><trkpt lat="44.76391061275279" lon="9.940817275766973"><ele>469.3333333333333</ele><time>2026-05-02T10:04:50.999Z</time></trkpt><trkpt lat="44.763870289906656" lon="9.940909214709956"><ele>467.66666666666663</ele><time>2026-05-02T10:04:51.999Z</time></trkpt><trkpt lat="44.76382502370152" lon="9.941002765390653"><ele>466.0</ele><time>2026-05-02T10:04:52.999Z</time></trkpt><trkpt lat="44.76377263562303" lon="9.94109862936973"><ele>464.3333333333333</ele><time>2026-05-02T10:04:53.999Z</time></trkpt><trkpt lat="44.76371475112887" lon="9.941195592241593"><ele>462.66666666666663</ele><time>2026-05-02T10:04:54.999Z</time></trkpt><trkpt lat="44.76365841187125" lon="9.941300117610849"><ele>461.0</ele><time>2026-05-02T10:04:55.999Z</time></trkpt><trkpt lat="44.76359909475676" lon="9.941411220250298"><ele>461.0</ele><time>2026-05-02T10:04:56.999Z</time></trkpt><trkpt lat="44.76354033481591" lon="9.94151760699582"><ele>461.0</ele><time>2026-05-02T10:04:57.999Z</time></trkpt><trkpt lat="44.76348329738385" lon="9.941631500462828"><ele>461.0</ele><time>2026-05-02T10:04:58.999Z</time></trkpt><trkpt lat="44.76342488874965" lon="9.941750696621623"><ele>461.0</ele><time>2026-05-02T10:04:59.999Z</time></trkpt><trkpt lat="44.76336274949553" lon="9.941867335261916"><ele>461.0</ele><time>2026-05-02T10:05:00.999Z</time></trkpt><trkpt lat="44.76330227299568" lon="9.941982161089042"><ele>461.6</ele><time>2026-05-02T10:05:01.999Z</time></trkpt><trkpt lat="44.763247411733545" lon="9.942100740382674"><ele>462.20000000000005</ele><time>2026-05-02T10:05:02.999Z</time></trkpt><trkpt lat="44.76319363700847" lon="9.942229489134748"><ele>462.79999999999995</ele><time>2026-05-02T10:05:03.999Z</time></trkpt><trkpt lat="44.76314323182999" lon="9.942355002039292"><ele>463.4</ele><time>2026-05-02T10:05:04.999Z</time></trkpt><trkpt lat="44.76310207443094" lon="9.942474012522855"><ele>464.0</ele><time>2026-05-02T10:05:05.999Z</time></trkpt><trkpt lat="44.7630883352638" lon="9.942588857234519"><ele>463.99999999999994</ele><time>2026-05-02T10:05:06.999Z</time></trkpt><trkpt lat="44.76310995782516" lon="9.94269437722467"><ele>464.0</ele><time>2026-05-02T10:05:07.999Z</time></trkpt><trkpt lat="44.76317104649244" lon="9.942768826108113"><ele>464.0</ele><time>2026-05-02T10:05:08.999Z</time></trkpt><trkpt lat="44.76326161211579" lon="9.942789159669703"><ele>464.0</ele><time>2026-05-02T10:05:09.999Z</time></trkpt><trkpt lat="44.763351869943115" lon="9.942774078144742"><ele>463.99999999999994</ele><time>2026-05-02T10:05:10.999Z</time></trkpt><trkpt lat="44.7634410407674" lon="9.942741970284073"><ele>464.0</ele><time>2026-05-02T10:05:11.999Z</time></trkpt><trkpt lat="44.76353336009911" lon="9.942704576992682"><ele>462.2</ele><time>2026-05-02T10:05:12.999Z</time></trkpt><trkpt lat="44.76362834259105" lon="9.942656285036035"><ele>460.4</ele><time>2026-05-02T10:05:13.999Z</time></trkpt><trkpt lat="44.76372438038925" lon="9.942588350550416"><ele>458.6</ele><time>2026-05-02T10:05:14.999Z</time></trkpt><trkpt lat="44.763820232833346" lon="9.942504955816181"><ele>456.8</ele><time>2026-05-02T10:05:15.999Z</time></trkpt><trkpt lat="44.763913210040734" lon="9.942410873989155"><ele>455.0</ele><time>2026-05-02T10:05:16.999Z</time></trkpt><trkpt lat="44.764004081402696" lon="9.942305082663625"><ele>455.0</ele><time>2026-05-02T10:05:17.999Z</time></trkpt><trkpt lat="44.764102883311665" lon="9.942207203207504"><ele>455.0</ele><time>2026-05-02T10:05:18.999Z</time></trkpt><trkpt lat="44.76420739623119" lon="9.94211641232565"><ele>455.0</ele><time>2026-05-02T10:05:19.999Z</time></trkpt><trkpt lat="44.76431981311464" lon="9.942036071021327"><ele>455.0</ele><time>2026-05-02T10:05:20.999Z</time></trkpt><trkpt lat="44.76443345129167" lon="9.941950063760448"><ele>452.25</ele><time>2026-05-02T10:05:21.999Z</time></trkpt><trkpt lat="44.764546398393804" lon="9.941859712501117"><ele>449.5</ele><time>2026-05-02T10:05:22.999Z</time></trkpt><trkpt lat="44.764662794371034" lon="9.941768136909461"><ele>446.75</ele><time>2026-05-02T10:05:23.999Z</time></trkpt><trkpt lat="44.76478218286041" lon="9.941680923223359"><ele>444.0</ele><time>2026-05-02T10:05:24.999Z</time></trkpt><trkpt lat="44.76489829695075" lon="9.941591397093148"><ele>444.0</ele><time>2026-05-02T10:05:25.999Z</time></trkpt><trkpt lat="44.765016412418355" lon="9.941498593454103"><ele>444.0</ele><time>2026-05-02T10:05:26.999Z</time></trkpt><trkpt lat="44.765137419367804" lon="9.941407587508088"><ele>444.0</ele><time>2026-05-02T10:05:27.999Z</time></trkpt><trkpt lat="44.76525888723328" lon="9.941318094806816"><ele>444.0</ele><time>2026-05-02T10:05:28.999Z</time></trkpt><trkpt lat="44.76537986139858" lon="9.941228027410546"><ele>441.0</ele><time>2026-05-02T10:05:29.999Z</time></trkpt><trkpt lat="44.765499567715004" lon="9.941134740108957"><ele>438.0</ele><time>2026-05-02T10:05:30.999Z</time></trkpt><trkpt lat="44.76561928527851" lon="9.941046022208738"><ele>435.0</ele><time>2026-05-02T10:05:31.999Z</time></trkpt><trkpt lat="44.765741293302156" lon="9.94096980037031"><ele>432.0</ele><time>2026-05-02T10:05:32.999Z</time></trkpt><trkpt lat="44.765868667649066" lon="9.940915839307621"><ele>432.0</ele><time>2026-05-02T10:05:33.999Z</time></trkpt><trkpt lat="44.76599850049315" lon="9.940869499527809"><ele>432.0</ele><time>2026-05-02T10:05:34.999Z</time></trkpt><trkpt lat="44.76612707445799" lon="9.940816347585924"><ele>432.0</ele><time>2026-05-02T10:05:35.999Z</time></trkpt><trkpt lat="44.76624936346777" lon="9.940766185291753"><ele>432.0</ele><time>2026-05-02T10:05:36.999Z</time></trkpt><trkpt lat="44.76636731079251" lon="9.9407135649155"><ele>432.0</ele><time>2026-05-02T10:05:37.999Z</time></trkpt><trkpt lat="44.7664849419591" lon="9.940657199277107"><ele>432.0</ele><time>2026-05-02T10:05:38.998Z</time></trkpt><trkpt lat="44.76660482048826" lon="9.940606740701758"><ele>432.0</ele><time>2026-05-02T10:05:39.998Z</time></trkpt><trkpt lat="44.76672708256224" lon="9.940561306232645"><ele>432.0</ele><time>2026-05-02T10:05:40.998Z</time></trkpt><trkpt lat="44.76685266757316" lon="9.940525089831322"><ele>431.25</ele><time>2026-05-02T10:05:41.998Z</time></trkpt><trkpt lat="44.76698020678384" lon="9.940498296984808"><ele>430.5</ele><time>2026-05-02T10:05:42.998Z</time></trkpt><trkpt lat="44.76710621243622" lon="9.940468612162098"><ele>429.75</ele><time>2026-05-02T10:05:43.998Z</time></trkpt><trkpt lat="44.76723295950927" lon="9.940441843024436"><ele>429.0</ele><time>2026-05-02T10:05:44.998Z</time></trkpt><trkpt lat="44.76735876521343" lon="9.940412913391661"><ele>429.0</ele><time>2026-05-02T10:05:45.998Z</time></trkpt><trkpt lat="44.76748420639724" lon="9.940380425678725"><ele>429.0</ele><time>2026-05-02T10:05:46.998Z</time></trkpt><trkpt lat="44.76760545023101" lon="9.940352474052569"><ele>429.0</ele><time>2026-05-02T10:05:47.998Z</time></trkpt><trkpt lat="44.76772515877702" lon="9.940332803863962"><ele>429.0</ele><time>2026-05-02T10:05:48.998Z</time></trkpt><trkpt lat="44.76784506322674" lon="9.940332423327726"><ele>428.0</ele><time>2026-05-02T10:05:49.998Z</time></trkpt><trkpt lat="44.76796140371776" lon="9.940361180050354"><ele>427.0</ele><time>2026-05-02T10:05:50.998Z</time></trkpt><trkpt lat="44.76807448015455" lon="9.940408079111279"><ele>426.0</ele><time>2026-05-02T10:05:51.998Z</time></trkpt><trkpt lat="44.768182975228015" lon="9.940464423841842"><ele>425.0</ele><time>2026-05-02T10:05:52.998Z</time></trkpt><trkpt lat="44.76828233202816" lon="9.940532381048817"><ele>425.0</ele><time>2026-05-02T10:05:53.998Z</time></trkpt><trkpt lat="44.76837148830238" lon="9.94062211384866"><ele>425.0</ele><time>2026-05-02T10:05:54.998Z</time></trkpt><trkpt lat="44.76844566653044" lon="9.940735486486174"><ele>425.0</ele><time>2026-05-02T10:05:55.998Z</time></trkpt><trkpt lat="44.7684860472059" lon="9.940876486640802"><ele>425.0</ele><time>2026-05-02T10:05:56.998Z</time></trkpt><trkpt lat="44.768518483931025" lon="9.941017597659473"><ele>425.0</ele><time>2026-05-02T10:05:57.998Z</time></trkpt><trkpt lat="44.768548789066614" lon="9.941165114307841"><ele>422.5</ele><time>2026-05-02T10:05:58.998Z</time></trkpt><trkpt lat="44.76858704755625" lon="9.941320166536508"><ele>420.0</ele><time>2026-05-02T10:05:59.998Z</time></trkpt><trkpt lat="44.76865630544521" lon="9.94146202277339"><ele>417.5</ele><time>2026-05-02T10:06:00.998Z</time></trkpt><trkpt lat="44.76876174757892" lon="9.941544417072699"><ele>415.0</ele><time>2026-05-02T10:06:01.998Z</time></trkpt><trkpt lat="44.76886446014081" lon="9.941617682452497"><ele>415.0</ele><time>2026-05-02T10:06:03Z</time></trkpt><trkpt lat="44.76897213386786" lon="9.941677185363833"><ele>415.0</ele><time>2026-05-02T10:06:04Z</time></trkpt><trkpt lat="44.76908511029016" lon="9.941725810963854"><ele>415.0</ele><time>2026-05-02T10:06:05Z</time></trkpt><trkpt lat="44.76920134436722" lon="9.941763895899951"><ele>415.0</ele><time>2026-05-02T10:06:06Z</time></trkpt><trkpt lat="44.769321686853125" lon="9.941785672625711"><ele>414.25</ele><time>2026-05-02T10:06:07Z</time></trkpt><trkpt lat="44.769444160876496" lon="9.941778948524925"><ele>413.5</ele><time>2026-05-02T10:06:08Z</time></trkpt><trkpt lat="44.76956392233014" lon="9.941736930601385"><ele>412.75</ele><time>2026-05-02T10:06:09Z</time></trkpt><trkpt lat="44.769675768709895" lon="9.941658071674762"><ele>412.0</ele><time>2026-05-02T10:06:10Z</time></trkpt><trkpt lat="44.76978063652815" lon="9.941556203489789"><ele>412.0</ele><time>2026-05-02T10:06:11Z</time></trkpt><trkpt lat="44.76987457153137" lon="9.941434396591072"><ele>412.0</ele><time>2026-05-02T10:06:12Z</time></trkpt><trkpt lat="44.76995749026983" lon="9.941296717807937"><ele>412.0</ele><time>2026-05-02T10:06:13Z</time></trkpt><trkpt lat="44.77002457244139" lon="9.941144103633881"><ele>412.0</ele><time>2026-05-02T10:06:14Z</time></trkpt><trkpt lat="44.77008244853916" lon="9.940982795228276"><ele>410.75</ele><time>2026-05-02T10:06:15Z</time></trkpt><trkpt lat="44.77012848144856" lon="9.940816496571154"><ele>409.5</ele><time>2026-05-02T10:06:16Z</time></trkpt><trkpt lat="44.770180671036705" lon="9.940658846145876"><ele>408.25</ele><time>2026-05-02T10:06:17Z</time></trkpt><trkpt lat="44.77025143769794" lon="9.940527802635975"><ele>407.0</ele><time>2026-05-02T10:06:18Z</time></trkpt><trkpt lat="44.770343806584975" lon="9.940432710486231"><ele>403.5</ele><time>2026-05-02T10:06:19Z</time></trkpt><trkpt lat="44.770453726868084" lon="9.94037500133814"><ele>400.0</ele><time>2026-05-02T10:06:20Z</time></trkpt><trkpt lat="44.770569699402145" lon="9.940341810602261"><ele>396.5</ele><time>2026-05-02T10:06:21Z</time></trkpt><trkpt lat="44.770681863495135" lon="9.940295777784014"><ele>393.0</ele><time>2026-05-02T10:06:22Z</time></trkpt><trkpt lat="44.77078919742346" lon="9.940216201465812"><ele>393.0</ele><time>2026-05-02T10:06:23Z</time></trkpt><trkpt lat="44.77089430588361" lon="9.940128994304112"><ele>393.0</ele><time>2026-05-02T10:06:24Z</time></trkpt><trkpt lat="44.77100204654739" lon="9.940043862126037"><ele>393.0</ele><time>2026-05-02T10:06:25Z</time></trkpt><trkpt lat="44.77111168743322" lon="9.939964211648748"><ele>393.0</ele><time>2026-05-02T10:06:26Z</time></trkpt><trkpt lat="44.77122389879863" lon="9.939892271158918"><ele>390.0</ele><time>2026-05-02T10:06:27Z</time></trkpt><trkpt lat="44.77133293674214" lon="9.939831338932677"><ele>387.0</ele><time>2026-05-02T10:06:28Z</time></trkpt><trkpt lat="44.77144103186604" lon="9.939783868205588"><ele>384.0</ele><time>2026-05-02T10:06:29Z</time></trkpt><trkpt lat="44.771536914640045" lon="9.939733939424823"><ele>381.0</ele><time>2026-05-02T10:06:30Z</time></trkpt><trkpt lat="44.77162368185994" lon="9.939671133169913"><ele>378.0</ele><time>2026-05-02T10:06:31Z</time></trkpt><trkpt lat="44.771702140118734" lon="9.93958039756156"><ele>378.0</ele><time>2026-05-02T10:06:32Z</time></trkpt><trkpt lat="44.771759579523525" lon="9.93945555761859"><ele>378.0</ele><time>2026-05-02T10:06:33Z</time></trkpt><trkpt lat="44.77179793409851" lon="9.939316971781318"><ele>378.0</ele><time>2026-05-02T10:06:34Z</time></trkpt><trkpt lat="44.771808998311265" lon="9.939165708544293"><ele>378.0</ele><time>2026-05-02T10:06:35Z</time></trkpt><trkpt lat="44.771798853752074" lon="9.939020703862287"><ele>378.0</ele><time>2026-05-02T10:06:36Z</time></trkpt><trkpt lat="44.77176772896373" lon="9.938885481327974"><ele>380.59999999999997</ele><time>2026-05-02T10:06:37Z</time></trkpt><trkpt lat="44.77171209160988" lon="9.93876576562729"><ele>383.2</ele><time>2026-05-02T10:06:38Z</time></trkpt><trkpt lat="44.7716433182598" lon="9.938664013833918"><ele>385.8</ele><time>2026-05-02T10:06:39Z</time></trkpt><trkpt lat="44.77156026817176" lon="9.938584907332185"><ele>388.4</ele><time>2026-05-02T10:06:40Z</time></trkpt><trkpt lat="44.77146759687538" lon="9.938529544658898"><ele>391.0</ele><time>2026-05-02T10:06:41Z</time></trkpt><trkpt lat="44.77136479064288" lon="9.938521890108614"><ele>391.0</ele><time>2026-05-02T10:06:42Z</time></trkpt><trkpt lat="44.77126221883511" lon="9.938556233439304"><ele>391.0</ele><time>2026-05-02T10:06:43Z</time></trkpt><trkpt lat="44.77115943620786" lon="9.938600789038125"><ele>391.0</ele><time>2026-05-02T10:06:44Z</time></trkpt><trkpt lat="44.771053642472" lon="9.938636253401649"><ele>391.0</ele><time>2026-05-02T10:06:45Z</time></trkpt><trkpt lat="44.77094893563767" lon="9.938671572617032"><ele>391.0</ele><time>2026-05-02T10:06:46Z</time></trkpt><trkpt lat="44.77085031089088" lon="9.938677787256113"><ele>390.8</ele><time>2026-05-02T10:06:47Z</time></trkpt><trkpt lat="44.77075967575223" lon="9.938642508505408"><ele>390.6</ele><time>2026-05-02T10:06:48Z</time></trkpt><trkpt lat="44.77067204746403" lon="9.938570922255373"><ele>390.4</ele><time>2026-05-02T10:06:48.999Z</time></trkpt><trkpt lat="44.77058642459898" lon="9.938482365086145"><ele>390.2</ele><time>2026-05-02T10:06:49.999Z</time></trkpt><trkpt lat="44.770498347908536" lon="9.93839885326869"><ele>390.0</ele><time>2026-05-02T10:06:50.999Z</time></trkpt><trkpt lat="44.77040562551935" lon="9.938323140524787"><ele>387.8</ele><time>2026-05-02T10:06:51.999Z</time></trkpt><trkpt lat="44.770307644757814" lon="9.938228361382544"><ele>385.6</ele><time>2026-05-02T10:06:52.999Z</time></trkpt><trkpt lat="44.770221938683584" lon="9.938131824303303"><ele>383.4</ele><time>2026-05-02T10:06:53.999Z</time></trkpt><trkpt lat="44.77016369457835" lon="9.938017747520417"><ele>381.2</ele><time>2026-05-02T10:06:54.999Z</time></trkpt><trkpt lat="44.77014549495721" lon="9.937884551703936"><ele>379.0</ele><time>2026-05-02T10:06:55.999Z</time></trkpt><trkpt lat="44.77017396301668" lon="9.937760811083306"><ele>379.0</ele><time>2026-05-02T10:06:56.999Z</time></trkpt><trkpt lat="44.77023308650751" lon="9.937666107725255"><ele>379.0</ele><time>2026-05-02T10:06:57.999Z</time></trkpt><trkpt lat="44.77031538460413" lon="9.937612169049721"><ele>379.0</ele><time>2026-05-02T10:06:58.999Z</time></trkpt><trkpt lat="44.77040366421429" lon="9.937603909421128"><ele>379.0</ele><time>2026-05-02T10:06:59.999Z</time></trkpt><trkpt lat="44.770485095416774" lon="9.937639086083427"><ele>379.0</ele><time>2026-05-02T10:07:00.999Z</time></trkpt><trkpt lat="44.77053251534777" lon="9.937746714651345"><ele>379.0</ele><time>2026-05-02T10:07:01.999Z</time></trkpt><trkpt lat="44.7705748448688" lon="9.937855742383622"><ele>379.0</ele><time>2026-05-02T10:07:02.999Z</time></trkpt><trkpt lat="44.77063700979376" lon="9.937953167804283"><ele>379.0</ele><time>2026-05-02T10:07:03.999Z</time></trkpt><trkpt lat="44.7707147038542" lon="9.938034923086331"><ele>379.0</ele><time>2026-05-02T10:07:04.999Z</time></trkpt><trkpt lat="44.770814239863086" lon="9.93807402389805"><ele>379.0</ele><time>2026-05-02T10:07:05.999Z</time></trkpt><trkpt lat="44.77090841627652" lon="9.938050910144572"><ele>379.0</ele><time>2026-05-02T10:07:06.999Z</time></trkpt><trkpt lat="44.770993495278894" lon="9.93796765454189"><ele>378.79999999999995</ele><time>2026-05-02T10:07:07.999Z</time></trkpt><trkpt lat="44.77106342057128" lon="9.9378657116129"><ele>378.59999999999997</ele><time>2026-05-02T10:07:08.999Z</time></trkpt><trkpt lat="44.77112913544765" lon="9.937764070313543"><ele>378.4</ele><time>2026-05-02T10:07:09.999Z</time></trkpt><trkpt lat="44.7712084260938" lon="9.937674617554674"><ele>378.2</ele><time>2026-05-02T10:07:10.999Z</time></trkpt><trkpt lat="44.771304014844254" lon="9.93762157949325"><ele>378.0</ele><time>2026-05-02T10:07:11.999Z</time></trkpt><trkpt lat="44.77140626239188" lon="9.937613476436614"><ele>378.0</ele><time>2026-05-02T10:07:12.999Z</time></trkpt><trkpt lat="44.77150349073944" lon="9.937650333954075"><ele>378.0</ele><time>2026-05-02T10:07:13.999Z</time></trkpt><trkpt lat="44.77158865974273" lon="9.93769745027135"><ele>378.0</ele><time>2026-05-02T10:07:14.999Z</time></trkpt><trkpt lat="44.7716615576313" lon="9.93771022914195"><ele>378.0</ele><time>2026-05-02T10:07:15.999Z</time></trkpt><trkpt lat="44.77171486083964" lon="9.937658600126488"><ele>378.0</ele><time>2026-05-02T10:07:16.999Z</time></trkpt><trkpt lat="44.7717247335348" lon="9.937568293196799"><ele>378.0</ele><time>2026-05-02T10:07:17.999Z</time></trkpt><trkpt lat="44.77167944543805" lon="9.937484655984367"><ele>375.42857142857144</ele><time>2026-05-02T10:07:18.999Z</time></trkpt><trkpt lat="44.77161042303386" lon="9.937441427275832"><ele>372.8571428571429</ele><time>2026-05-02T10:07:19.999Z</time></trkpt><trkpt lat="44.77154360487756" lon="9.937412923291799"><ele>370.2857142857143</ele><time>2026-05-02T10:07:20.999Z</time></trkpt><trkpt lat="44.771475981767054" lon="9.937403246821242"><ele>367.7142857142857</ele><time>2026-05-02T10:07:21.999Z</time></trkpt><trkpt lat="44.77140793259499" lon="9.937394437258611"><ele>365.14285714285717</ele><time>2026-05-02T10:07:22.999Z</time></trkpt><trkpt lat="44.77133775982284" lon="9.937377651774053"><ele>362.57142857142856</ele><time>2026-05-02T10:07:23.999Z</time></trkpt><trkpt lat="44.771266176613146" lon="9.937357088764296"><ele>360.0</ele><time>2026-05-02T10:07:24.999Z</time></trkpt><trkpt lat="44.77119436229491" lon="9.9373340713459"><ele>360.0</ele><time>2026-05-02T10:07:25.999Z</time></trkpt><trkpt lat="44.77112742602163" lon="9.937203648524052"><ele>360.0</ele><time>2026-05-02T10:07:27.999Z</time></trkpt><trkpt lat="44.771151925617225" lon="9.937120336985062"><ele>360.0</ele><time>2026-05-02T10:07:28.999Z</time></trkpt><trkpt lat="44.7712275495701" lon="9.937105900743578"><ele>360.0</ele><time>2026-05-02T10:07:29.999Z</time></trkpt><trkpt lat="44.77130845992495" lon="9.937135933338935"><ele>360.0</ele><time>2026-05-02T10:07:30.999Z</time></trkpt><trkpt lat="44.77138349032517" lon="9.93715837729435"><ele>360.0</ele><time>2026-05-02T10:07:31.999Z</time></trkpt><trkpt lat="44.77146329609679" lon="9.937181308983003"><ele>360.0</ele><time>2026-05-02T10:07:32.999Z</time></trkpt><trkpt lat="44.771545403127455" lon="9.937206033441397"><ele>360.0</ele><time>2026-05-02T10:07:33.999Z</time></trkpt><trkpt lat="44.77163187965726" lon="9.937232894027884"><ele>360.0</ele><time>2026-05-02T10:07:34.999Z</time></trkpt><trkpt lat="44.771721379707735" lon="9.937257657261297"><ele>360.0</ele><time>2026-05-02T10:07:35.999Z</time></trkpt><trkpt lat="44.771815809581454" lon="9.937283507803828"><ele>360.0</ele><time>2026-05-02T10:07:36.999Z</time></trkpt><trkpt lat="44.77191465652236" lon="9.937315840806388"><ele>358.2</ele><time>2026-05-02T10:07:37.999Z</time></trkpt><trkpt lat="44.77201459727492" lon="9.937346284445708"><ele>356.4</ele><time>2026-05-02T10:07:38.999Z</time></trkpt><trkpt lat="44.77211765995013" lon="9.937377973571204"><ele>354.6</ele><time>2026-05-02T10:07:39.999Z</time></trkpt><trkpt lat="44.772223957336486" lon="9.937416955254127"><ele>352.8</ele><time>2026-05-02T10:07:40.999Z</time></trkpt><trkpt lat="44.77232552699835" lon="9.937460654256695"><ele>351.0</ele><time>2026-05-02T10:07:41.998Z</time></trkpt><trkpt lat="44.77242251328623" lon="9.937505639056903"><ele>351.0</ele><time>2026-05-02T10:07:42.998Z</time></trkpt><trkpt lat="44.77252038382163" lon="9.937551302223403"><ele>351.0</ele><time>2026-05-02T10:07:43.998Z</time></trkpt><trkpt lat="44.77261648781997" lon="9.937599982848482"><ele>351.0</ele><time>2026-05-02T10:07:44.998Z</time></trkpt><trkpt lat="44.77269768956319" lon="9.937645892993872"><ele>351.0</ele><time>2026-05-02T10:07:45.998Z</time></trkpt><trkpt lat="44.77277410933631" lon="9.937672866212518"><ele>351.0</ele><time>2026-05-02T10:07:46.998Z</time></trkpt><trkpt lat="44.772843714635385" lon="9.937663869227695"><ele>351.0</ele><time>2026-05-02T10:07:47.998Z</time></trkpt><trkpt lat="44.7728923828723" lon="9.937506021918619"><ele>351.0</ele><time>2026-05-02T10:07:49.998Z</time></trkpt><trkpt lat="44.772843645620306" lon="9.937415469054201"><ele>351.0</ele><time>2026-05-02T10:07:50.998Z</time></trkpt><trkpt lat="44.77277302728654" lon="9.937372031423076"><ele>351.0</ele><time>2026-05-02T10:07:51.998Z</time></trkpt><trkpt lat="44.77272222702828" lon="9.937308674830984"><ele>351.0</ele><time>2026-05-02T10:07:52.998Z</time></trkpt><trkpt lat="44.77265278739289" lon="9.937271381575927"><ele>351.0</ele><time>2026-05-02T10:07:53.998Z</time></trkpt><trkpt lat="44.772594444797946" lon="9.937208486364838"><ele>351.0</ele><time>2026-05-02T10:07:54.998Z</time></trkpt><trkpt lat="44.77256343237604" lon="9.937066847222388"><ele>351.0</ele><time>2026-05-02T10:07:56.998Z</time></trkpt><trkpt lat="44.77260429140164" lon="9.936991549336463"><ele>351.0</ele><time>2026-05-02T10:07:57.998Z</time></trkpt><trkpt lat="44.772675976752375" lon="9.936963467786063"><ele>351.0</ele><time>2026-05-02T10:07:58.998Z</time></trkpt><trkpt lat="44.772749385546625" lon="9.937002789617264"><ele>351.0</ele><time>2026-05-02T10:07:59.998Z</time></trkpt><trkpt lat="44.77281469298074" lon="9.937054434790307"><ele>351.0</ele><time>2026-05-02T10:08:00.998Z</time></trkpt><trkpt lat="44.77288523037798" lon="9.937097535742112"><ele>351.0</ele><time>2026-05-02T10:08:01.998Z</time></trkpt><trkpt lat="44.772960808574666" lon="9.93714730549897"><ele>348.0</ele><time>2026-05-02T10:08:02.998Z</time></trkpt><trkpt lat="44.77303853484812" lon="9.937197604008379"><ele>345.0</ele><time>2026-05-02T10:08:03.998Z</time></trkpt><trkpt lat="44.773119715769944" lon="9.937250085267285"><ele>342.0</ele><time>2026-05-02T10:08:04.998Z</time></trkpt><trkpt lat="44.773203114309375" lon="9.937297739341796"><ele>339.0</ele><time>2026-05-02T10:08:05.998Z</time></trkpt><trkpt lat="44.77329087224958" lon="9.937342766068733"><ele>336.0</ele><time>2026-05-02T10:08:06.998Z</time></trkpt><trkpt lat="44.77337780223177" lon="9.937391778725178"><ele>336.0</ele><time>2026-05-02T10:08:07.998Z</time></trkpt><trkpt lat="44.77346312481603" lon="9.937449640852572"><ele>336.0</ele><time>2026-05-02T10:08:09Z</time></trkpt><trkpt lat="44.773544027459785" lon="9.93750541749336"><ele>336.0</ele><time>2026-05-02T10:08:10Z</time></trkpt><trkpt lat="44.773615031375016" lon="9.937554270021668"><ele>336.0</ele><time>2026-05-02T10:08:11Z</time></trkpt><trkpt lat="44.77367493119901" lon="9.937595903784942"><ele>336.0</ele><time>2026-05-02T10:08:12Z</time></trkpt><trkpt lat="44.7737662154738" lon="9.937654739382284"><ele>336.0</ele><time>2026-05-02T10:08:14Z</time></trkpt><trkpt lat="44.77381518914345" lon="9.937711330669996"><ele>336.0</ele><time>2026-05-02T10:08:16Z</time></trkpt><trkpt lat="44.77386653782415" lon="9.937631911300771"><ele>336.0</ele><time>2026-05-02T10:08:19Z</time></trkpt><trkpt lat="44.77379702173828" lon="9.93759393872631"><ele>336.0</ele><time>2026-05-02T10:09:36.999Z</time></trkpt><trkpt lat="44.77372540460607" lon="9.937549691683524"><ele>336.0</ele><time>2026-05-02T10:09:51.998Z</time></trkpt><trkpt lat="44.77363902803055" lon="9.93750309205299"><ele>336.0</ele><time>2026-05-02T10:09:54.998Z</time></trkpt><trkpt lat="44.77357060024319" lon="9.937461887168839"><ele>336.0</ele><time>2026-05-02T10:09:56.998Z</time></trkpt><trkpt lat="44.773505217313236" lon="9.937422861263824"><ele>336.0</ele><time>2026-05-02T10:09:58.998Z</time></trkpt><trkpt lat="44.77343618777247" lon="9.937380030499046"><ele>336.0</ele><time>2026-05-02T10:10:00.998Z</time></trkpt><trkpt lat="44.773366082463205" lon="9.93733772134689"><ele>336.0</ele><time>2026-05-02T10:10:02.998Z</time></trkpt><trkpt lat="44.77329634096005" lon="9.937294205206172"><ele>336.0</ele><time>2026-05-02T10:10:04.998Z</time></trkpt><trkpt lat="44.77323394197451" lon="9.937258076829123"><ele>336.0</ele><time>2026-05-02T10:10:06.998Z</time></trkpt><trkpt lat="44.773150425220486" lon="9.937210285483953"><ele>336.0</ele><time>2026-05-02T10:10:09.998Z</time></trkpt><trkpt lat="44.77307394658998" lon="9.93716980955678"><ele>336.0</ele><time>2026-05-02T10:10:12.998Z</time></trkpt><trkpt lat="44.77299786324342" lon="9.937127106141"><ele>336.0</ele><time>2026-05-02T10:10:16Z</time></trkpt><trkpt lat="44.77292480188064" lon="9.937086163759883"><ele>336.0</ele><time>2026-05-02T10:10:19Z</time></trkpt><trkpt lat="44.77285776224815" lon="9.937038199129725"><ele>336.0</ele><time>2026-05-02T10:10:22Z</time></trkpt><trkpt lat="44.7727866940914" lon="9.936990814056646"><ele>336.0</ele><time>2026-05-02T10:10:25Z</time></trkpt><trkpt lat="44.77271420270053" lon="9.936961462108547"><ele>336.0</ele><time>2026-05-02T10:10:28Z</time></trkpt><trkpt lat="44.77262779498062" lon="9.936956401134633"><ele>336.0</ele><time>2026-05-02T10:10:32Z</time></trkpt><trkpt lat="44.77256592211291" lon="9.936990755461139"><ele>336.0</ele><time>2026-05-02T10:10:35Z</time></trkpt><trkpt lat="44.77254117155105" lon="9.937078969759872"><ele>336.0</ele><time>2026-05-02T10:10:38Z</time></trkpt><trkpt lat="44.772557939115046" lon="9.93717038524228"><ele>336.0</ele><time>2026-05-02T10:10:41Z</time></trkpt><trkpt lat="44.772596069342946" lon="9.9372474821169"><ele>336.0</ele><time>2026-05-02T10:10:43Z</time></trkpt><trkpt lat="44.77264862878711" lon="9.937312420707123"><ele>336.0</ele><time>2026-05-02T10:10:46Z</time></trkpt><trkpt lat="44.77270719073643" lon="9.937363488823516"><ele>336.0</ele><time>2026-05-02T10:10:48Z</time></trkpt><trkpt lat="44.77277394221845" lon="9.937419559323253"><ele>336.0</ele><time>2026-05-02T10:10:51Z</time></trkpt><trkpt lat="44.772832819117674" lon="9.937495104826011"><ele>336.0</ele><time>2026-05-02T10:10:54Z</time></trkpt><trkpt lat="44.772826735604006" lon="9.937584126367769"><ele>336.0</ele><time>2026-05-02T10:10:56.999Z</time></trkpt><trkpt lat="44.77274817956076" lon="9.93761093249972"><ele>336.0</ele><time>2026-05-02T10:11:00.999Z</time></trkpt><trkpt lat="44.772682458272" lon="9.937587821828705"><ele>336.0</ele><time>2026-05-02T10:11:03.999Z</time></trkpt><trkpt lat="44.772606753174244" lon="9.937559545205298"><ele>336.0</ele><time>2026-05-02T10:11:06.999Z</time></trkpt><trkpt lat="44.77254576231718" lon="9.937532369782756"><ele>336.0</ele><time>2026-05-02T10:11:09.999Z</time></trkpt><trkpt lat="44.77248359395867" lon="9.937500647311293"><ele>338.14285714285717</ele><time>2026-05-02T10:11:12.999Z</time></trkpt><trkpt lat="44.772414966307544" lon="9.93747736219027"><ele>340.2857142857143</ele><time>2026-05-02T10:11:15.999Z</time></trkpt><trkpt lat="44.77234591896244" lon="9.937444759948674"><ele>342.42857142857144</ele><time>2026-05-02T10:11:18.999Z</time></trkpt><trkpt lat="44.7722769337539" lon="9.937420602777376"><ele>344.57142857142856</ele><time>2026-05-02T10:11:21.999Z</time></trkpt><trkpt lat="44.772207944618714" lon="9.937394582686194"><ele>346.7142857142857</ele><time>2026-05-02T10:11:24.999Z</time></trkpt><trkpt lat="44.77213858083546" lon="9.937370825912716"><ele>348.8571428571429</ele><time>2026-05-02T10:11:27.999Z</time></trkpt><trkpt lat="44.772070225072056" lon="9.937351350244237"><ele>351.0</ele><time>2026-05-02T10:11:30.999Z</time></trkpt><trkpt lat="44.7720082331074" lon="9.937330876755837"><ele>351.00000000000006</ele><time>2026-05-02T10:11:33.999Z</time></trkpt><trkpt lat="44.77193753013217" lon="9.937310619042886"><ele>351.0</ele><time>2026-05-02T10:11:36.999Z</time></trkpt><trkpt lat="44.771875035192785" lon="9.937289081442703"><ele>351.0</ele><time>2026-05-02T10:11:39.999Z</time></trkpt><trkpt lat="44.77180789766051" lon="9.937270627997579"><ele>351.0</ele><time>2026-05-02T10:11:42.999Z</time></trkpt><trkpt lat="44.771738475559786" lon="9.937249008682112"><ele>351.0</ele><time>2026-05-02T10:11:45.999Z</time></trkpt><trkpt lat="44.77165514775323" lon="9.937233293988438"><ele>351.00000000000006</ele><time>2026-05-02T10:11:48.999Z</time></trkpt><trkpt lat="44.77158489035877" lon="9.937205758177573"><ele>351.0</ele><time>2026-05-02T10:11:52.998Z</time></trkpt><trkpt lat="44.77151757649344" lon="9.937183486698808"><ele>352.28571428571433</ele><time>2026-05-02T10:11:55.998Z</time></trkpt><trkpt lat="44.77145128356488" lon="9.93716234389651"><ele>353.57142857142856</ele><time>2026-05-02T10:11:58.998Z</time></trkpt><trkpt lat="44.77137308120544" lon="9.937146060645029"><ele>354.8571428571429</ele><time>2026-05-02T10:12:01.998Z</time></trkpt><trkpt lat="44.771309943683356" lon="9.93712840863223"><ele>356.14285714285717</ele><time>2026-05-02T10:12:04.998Z</time></trkpt><trkpt lat="44.77122758159623" lon="9.937118148850272"><ele>357.42857142857144</ele><time>2026-05-02T10:12:08.998Z</time></trkpt><trkpt lat="44.771163536895365" lon="9.93714271417709"><ele>358.7142857142857</ele><time>2026-05-02T10:12:11.998Z</time></trkpt><trkpt lat="44.77111845067807" lon="9.937222342394497"><ele>360.0</ele><time>2026-05-02T10:12:14.998Z</time></trkpt><trkpt lat="44.771144403113844" lon="9.937320508815308"><ele>360.0</ele><time>2026-05-02T10:12:18.998Z</time></trkpt><trkpt lat="44.77119769566508" lon="9.937375974298776"><ele>360.0</ele><time>2026-05-02T10:12:22Z</time></trkpt><trkpt lat="44.77127910752293" lon="9.937404682467966"><ele>360.0</ele><time>2026-05-02T10:12:25Z</time></trkpt><trkpt lat="44.77134475330073" lon="9.937424384322961"><ele>360.0</ele><time>2026-05-02T10:12:28Z</time></trkpt><trkpt lat="44.77141300741518" lon="9.937436380217207"><ele>360.0</ele><time>2026-05-02T10:12:31Z</time></trkpt><trkpt lat="44.77148778076421" lon="9.937463285723172"><ele>360.0</ele><time>2026-05-02T10:12:34Z</time></trkpt><trkpt lat="44.771561094725776" lon="9.937489633185033"><ele>360.0</ele><time>2026-05-02T10:12:37Z</time></trkpt><trkpt lat="44.771635607671" lon="9.937532747352108"><ele>362.57142857142856</ele><time>2026-05-02T10:12:40Z</time></trkpt><trkpt lat="44.7716671569719" lon="9.937629348709123"><ele>365.14285714285717</ele><time>2026-05-02T10:12:43Z</time></trkpt><trkpt lat="44.77160895247614" lon="9.93767509730068"><ele>367.7142857142857</ele><time>2026-05-02T10:12:46Z</time></trkpt><trkpt lat="44.771541856409776" lon="9.937652106143338"><ele>370.2857142857143</ele><time>2026-05-02T10:12:49Z</time></trkpt><trkpt lat="44.77146411254249" lon="9.937622134702377"><ele>372.8571428571429</ele><time>2026-05-02T10:12:52Z</time></trkpt><trkpt lat="44.77139867240257" lon="9.93760964952852"><ele>375.42857142857144</ele><time>2026-05-02T10:12:55Z</time></trkpt><trkpt lat="44.771324752593294" lon="9.937614414294535"><ele>378.0</ele><time>2026-05-02T10:12:58Z</time></trkpt><trkpt lat="44.77125525980505" lon="9.937643037780987"><ele>378.0</ele><time>2026-05-02T10:13:01Z</time></trkpt><trkpt lat="44.77119715462606" lon="9.937682519817406"><ele>378.0</ele><time>2026-05-02T10:13:02.999Z</time></trkpt><trkpt lat="44.77113080097745" lon="9.937747618090338"><ele>378.0</ele><time>2026-05-02T10:13:05.999Z</time></trkpt><trkpt lat="44.771079393881266" lon="9.937813710600734"><ele>378.0</ele><time>2026-05-02T10:13:08.999Z</time></trkpt><trkpt lat="44.77102659459631" lon="9.937884046103965"><ele>378.0</ele><time>2026-05-02T10:13:11.999Z</time></trkpt><trkpt lat="44.770964649189935" lon="9.93795416779331"><ele>378.0</ele><time>2026-05-02T10:13:14.999Z</time></trkpt><trkpt lat="44.770909906516906" lon="9.938004867416558"><ele>378.0</ele><time>2026-05-02T10:13:16.999Z</time></trkpt><trkpt lat="44.77083080671164" lon="9.938030297836898"><ele>378.1666666666667</ele><time>2026-05-02T10:13:19.999Z</time></trkpt><trkpt lat="44.77075202570992" lon="9.938006555681193"><ele>378.3333333333333</ele><time>2026-05-02T10:13:22.999Z</time></trkpt><trkpt lat="44.77069035931931" lon="9.937950918139531"><ele>378.5</ele><time>2026-05-02T10:13:25.999Z</time></trkpt><trkpt lat="44.77064949637802" lon="9.937873658790068"><ele>378.66666666666663</ele><time>2026-05-02T10:13:28.999Z</time></trkpt><trkpt lat="44.770607868593835" lon="9.937794881414932"><ele>378.8333333333333</ele><time>2026-05-02T10:13:31.999Z</time></trkpt><trkpt lat="44.770565341196004" lon="9.937709215772905"><ele>379.0</ele><time>2026-05-02T10:13:34.999Z</time></trkpt><trkpt lat="44.77049423405729" lon="9.937632722610438"><ele>379.0</ele><time>2026-05-02T10:13:37.999Z</time></trkpt><trkpt lat="44.770414969285476" lon="9.937601857801885"><ele>379.0</ele><time>2026-05-02T10:13:40.999Z</time></trkpt><trkpt lat="44.770321097632895" lon="9.937604069767518"><ele>379.0</ele><time>2026-05-02T10:13:43.999Z</time></trkpt><trkpt lat="44.77026151220774" lon="9.937641518094278"><ele>379.0</ele><time>2026-05-02T10:13:45.999Z</time></trkpt><trkpt lat="44.7702073179556" lon="9.937694720633024"><ele>379.0</ele><time>2026-05-02T10:13:47.999Z</time></trkpt><trkpt lat="44.77017017976393" lon="9.937770282654416"><ele>379.0</ele><time>2026-05-02T10:13:49.999Z</time></trkpt><trkpt lat="44.770141376923526" lon="9.937894953520239"><ele>379.0</ele><time>2026-05-02T10:13:52.999Z</time></trkpt><trkpt lat="44.770150233590904" lon="9.938023449839484"><ele>379.0</ele><time>2026-05-02T10:13:55.998Z</time></trkpt><trkpt lat="44.770187706846045" lon="9.938129514169644"><ele>379.0</ele><time>2026-05-02T10:13:57.998Z</time></trkpt><trkpt lat="44.770254144570515" lon="9.938220135028487"><ele>379.0</ele><time>2026-05-02T10:14:00.998Z</time></trkpt><trkpt lat="44.77032422578501" lon="9.938291857480703"><ele>379.0</ele><time>2026-05-02T10:14:03.998Z</time></trkpt><trkpt lat="44.7703930364855" lon="9.938354461895077"><ele>379.0</ele><time>2026-05-02T10:14:06.998Z</time></trkpt><trkpt lat="44.77046095100032" lon="9.938418274308416"><ele>380.8333333333333</ele><time>2026-05-02T10:14:09.998Z</time></trkpt><trkpt lat="44.77052691957621" lon="9.938486022638195"><ele>382.66666666666663</ele><time>2026-05-02T10:14:12.998Z</time></trkpt><trkpt lat="44.770596263701066" lon="9.938548159044329"><ele>384.5</ele><time>2026-05-02T10:14:15.998Z</time></trkpt><trkpt lat="44.770667329267816" lon="9.93860866455233"><ele>386.3333333333333</ele><time>2026-05-02T10:14:19.998Z</time></trkpt><trkpt lat="44.77072429380371" lon="9.938656152892285"><ele>388.1666666666667</ele><time>2026-05-02T10:14:22.998Z</time></trkpt><trkpt lat="44.7707958480546" lon="9.938697710039218"><ele>390.0</ele><time>2026-05-02T10:14:26Z</time></trkpt><trkpt lat="44.77086999173021" lon="9.938722365431147"><ele>390.0</ele><time>2026-05-02T10:14:29Z</time></trkpt><trkpt lat="44.77095165939209" lon="9.938719342889463"><ele>390.0</ele><time>2026-05-02T10:14:32Z</time></trkpt><trkpt lat="44.77103248187623" lon="9.938702812154238"><ele>390.0</ele><time>2026-05-02T10:14:35Z</time></trkpt><trkpt lat="44.77110655736443" lon="9.938677675676987"><ele>390.0</ele><time>2026-05-02T10:14:38Z</time></trkpt><trkpt lat="44.771179715493226" lon="9.93865458889306"><ele>390.0</ele><time>2026-05-02T10:14:41Z</time></trkpt><trkpt lat="44.77125310795467" lon="9.938625292314477"><ele>390.0</ele><time>2026-05-02T10:14:44Z</time></trkpt><trkpt lat="44.771330422644716" lon="9.93860746530901"><ele>390.1666666666667</ele><time>2026-05-02T10:14:47Z</time></trkpt><trkpt lat="44.77140845225618" lon="9.938601869652402"><ele>390.33333333333337</ele><time>2026-05-02T10:14:50Z</time></trkpt><trkpt lat="44.77147949438311" lon="9.93861653390609"><ele>390.5</ele><time>2026-05-02T10:14:53Z</time></trkpt><trkpt lat="44.77155760962658" lon="9.938662205068601"><ele>390.6666666666667</ele><time>2026-05-02T10:14:57Z</time></trkpt><trkpt lat="44.771620122826484" lon="9.938722096819143"><ele>390.83333333333337</ele><time>2026-05-02T10:15:00Z</time></trkpt><trkpt lat="44.77167648402336" lon="9.938810073001576"><ele>391.0</ele><time>2026-05-02T10:15:04Z</time></trkpt><trkpt lat="44.771720841319045" lon="9.93889036490786"><ele>391.00000000000006</ele><time>2026-05-02T10:15:06.999Z</time></trkpt><trkpt lat="44.7717562219255" lon="9.938998235853466"><ele>391.0</ele><time>2026-05-02T10:15:09.999Z</time></trkpt><trkpt lat="44.77176817705433" lon="9.939105273631872"><ele>391.0</ele><time>2026-05-02T10:15:13.999Z</time></trkpt><trkpt lat="44.771768800305836" lon="9.939200776879979"><ele>391.0</ele><time>2026-05-02T10:15:16.999Z</time></trkpt><trkpt lat="44.77175929698694" lon="9.939302039374295"><ele>391.00000000000006</ele><time>2026-05-02T10:15:19.999Z</time></trkpt><trkpt lat="44.77173133279267" lon="9.93940469260985"><ele>391.0</ele><time>2026-05-02T10:15:22.999Z</time></trkpt><trkpt lat="44.77169421744405" lon="9.93949009084106"><ele>389.1428571428571</ele><time>2026-05-02T10:15:25.999Z</time></trkpt><trkpt lat="44.771645302435644" lon="9.939555818179848"><ele>387.2857142857143</ele><time>2026-05-02T10:15:27.999Z</time></trkpt><trkpt lat="44.77158047143991" lon="9.939603904237764"><ele>385.42857142857144</ele><time>2026-05-02T10:15:30.999Z</time></trkpt><trkpt lat="44.771511146465855" lon="9.939643654592244"><ele>383.57142857142856</ele><time>2026-05-02T10:15:33.999Z</time></trkpt><trkpt lat="44.77145314252519" lon="9.939691194028331"><ele>381.7142857142857</ele><time>2026-05-02T10:15:36.999Z</time></trkpt><trkpt lat="44.771383036191004" lon="9.939739996410141"><ele>379.85714285714283</ele><time>2026-05-02T10:15:40.999Z</time></trkpt><trkpt lat="44.77130401056159" lon="9.939776647602017"><ele>378.0</ele><time>2026-05-02T10:15:44.999Z</time></trkpt><trkpt lat="44.771233583099246" lon="9.939810485363727"><ele>378.0</ele><time>2026-05-02T10:15:47.999Z</time></trkpt><trkpt lat="44.77117723093762" lon="9.939854521703543"><ele>378.0</ele><time>2026-05-02T10:15:50.999Z</time></trkpt><trkpt lat="44.77110960040518" lon="9.939891601187211"><ele>378.0</ele><time>2026-05-02T10:15:53.999Z</time></trkpt><trkpt lat="44.77104694870837" lon="9.939942983618895"><ele>378.0</ele><time>2026-05-02T10:15:56.999Z</time></trkpt><trkpt lat="44.77097762633269" lon="9.940009820284267"><ele>378.0</ele><time>2026-05-02T10:15:59.998Z</time></trkpt><trkpt lat="44.7709229858196" lon="9.940063506535365"><ele>378.0</ele><time>2026-05-02T10:16:02.998Z</time></trkpt><trkpt lat="44.770864896993764" lon="9.940108684337947"><ele>378.0</ele><time>2026-05-02T10:16:05.998Z</time></trkpt><trkpt lat="44.77080557154863" lon="9.940155891241414"><ele>380.5</ele><time>2026-05-02T10:16:08.998Z</time></trkpt><trkpt lat="44.77072657831183" lon="9.940209511288284"><ele>383.0</ele><time>2026-05-02T10:16:11.998Z</time></trkpt><trkpt lat="44.77066145348453" lon="9.940242301603188"><ele>385.5</ele><time>2026-05-02T10:16:14.998Z</time></trkpt><trkpt lat="44.770595348743704" lon="9.940277295483499"><ele>388.0</ele><time>2026-05-02T10:16:17.998Z</time></trkpt><trkpt lat="44.77052800359956" lon="9.940307313445377"><ele>390.5</ele><time>2026-05-02T10:16:20.998Z</time></trkpt><trkpt lat="44.77044908444366" lon="9.940339628408255"><ele>393.0</ele><time>2026-05-02T10:16:24.998Z</time></trkpt><trkpt lat="44.770367823151574" lon="9.940372608827952"><ele>393.0</ele><time>2026-05-02T10:16:27.998Z</time></trkpt><trkpt lat="44.770303051925296" lon="9.940412784362175"><ele>393.0</ele><time>2026-05-02T10:16:30.998Z</time></trkpt><trkpt lat="44.7702463989751" lon="9.940478029629604"><ele>393.0</ele><time>2026-05-02T10:16:34Z</time></trkpt><trkpt lat="44.77019551322184" lon="9.940560946660158"><ele>393.0</ele><time>2026-05-02T10:16:37Z</time></trkpt><trkpt lat="44.77015260361616" lon="9.940656439793404"><ele>393.0</ele><time>2026-05-02T10:16:40Z</time></trkpt><trkpt lat="44.77011270859091" lon="9.94074837851735"><ele>393.0</ele><time>2026-05-02T10:16:43Z</time></trkpt><trkpt lat="44.770072708301605" lon="9.940850551193394"><ele>396.1666666666667</ele><time>2026-05-02T10:16:46Z</time></trkpt><trkpt lat="44.77004112276831" lon="9.940951097613093"><ele>399.33333333333337</ele><time>2026-05-02T10:16:49Z</time></trkpt><trkpt lat="44.77000466000627" lon="9.941044318980342"><ele>402.5</ele><time>2026-05-02T10:16:52Z</time></trkpt><trkpt lat="44.769972141636636" lon="9.941141513334834"><ele>405.6666666666667</ele><time>2026-05-02T10:16:55Z</time></trkpt><trkpt lat="44.76993629378173" lon="9.94123653205991"><ele>408.83333333333337</ele><time>2026-05-02T10:16:58Z</time></trkpt><trkpt lat="44.769894630710944" lon="9.941320958441265"><ele>412.0</ele><time>2026-05-02T10:17:01Z</time></trkpt><trkpt lat="44.769849714538545" lon="9.941400239265073"><ele>411.99999999999994</ele><time>2026-05-02T10:17:04Z</time></trkpt><trkpt lat="44.76979497788119" lon="9.94147427479497"><ele>412.0</ele><time>2026-05-02T10:17:07Z</time></trkpt><trkpt lat="44.769739969784496" lon="9.941538838184057"><ele>412.0</ele><time>2026-05-02T10:17:09.999Z</time></trkpt><trkpt lat="44.769677236604444" lon="9.941598086503376"><ele>412.0</ele><time>2026-05-02T10:17:12.999Z</time></trkpt><trkpt lat="44.76961258675341" lon="9.941648855122274"><ele>412.0</ele><time>2026-05-02T10:17:15.999Z</time></trkpt><trkpt lat="44.76954184918549" lon="9.94168861821036"><ele>411.99999999999994</ele><time>2026-05-02T10:17:18.999Z</time></trkpt><trkpt lat="44.76947143589283" lon="9.9417228279374"><ele>412.0</ele><time>2026-05-02T10:17:21.999Z</time></trkpt><trkpt lat="44.769386142409424" lon="9.941741976983032"><ele>411.83333333333337</ele><time>2026-05-02T10:17:25.999Z</time></trkpt><trkpt lat="44.76931934579253" lon="9.94174694176741"><ele>411.6666666666667</ele><time>2026-05-02T10:17:28.999Z</time></trkpt><trkpt lat="44.769244568278815" lon="9.941744865332739"><ele>411.5</ele><time>2026-05-02T10:17:31.999Z</time></trkpt><trkpt lat="44.769161548455976" lon="9.94173202144886"><ele>411.33333333333337</ele><time>2026-05-02T10:17:35.999Z</time></trkpt><trkpt lat="44.76909114165225" lon="9.941714145013004"><ele>411.1666666666667</ele><time>2026-05-02T10:17:38.999Z</time></trkpt><trkpt lat="44.7690132924575" lon="9.941676439035398"><ele>411.0</ele><time>2026-05-02T10:17:41.999Z</time></trkpt><trkpt lat="44.76893797828368" lon="9.941639649968698"><ele>411.57142857142856</ele><time>2026-05-02T10:17:45.999Z</time></trkpt><trkpt lat="44.7688768069675" lon="9.941595419414439"><ele>412.1428571428571</ele><time>2026-05-02T10:17:48.999Z</time></trkpt><trkpt lat="44.768815602301196" lon="9.941548991484886"><ele>412.7142857142857</ele><time>2026-05-02T10:17:51.999Z</time></trkpt><trkpt lat="44.76875212725306" lon="9.941494410387588"><ele>413.2857142857143</ele><time>2026-05-02T10:17:54.999Z</time></trkpt><trkpt lat="44.768688409401534" lon="9.94141575306611"><ele>413.8571428571429</ele><time>2026-05-02T10:17:57.999Z</time></trkpt><trkpt lat="44.76865447255217" lon="9.941334387280861"><ele>414.42857142857144</ele><time>2026-05-02T10:18:00.999Z</time></trkpt><trkpt lat="44.76862961381672" lon="9.941241848794576"><ele>415.0</ele><time>2026-05-02T10:18:03.998Z</time></trkpt><trkpt lat="44.76860576086449" lon="9.941140990286318"><ele>415.0</ele><time>2026-05-02T10:18:06.998Z</time></trkpt><trkpt lat="44.768584605717436" lon="9.941042010724331"><ele>415.0</ele><time>2026-05-02T10:18:09.998Z</time></trkpt><trkpt lat="44.76856779821194" lon="9.94093524220627"><ele>415.0</ele><time>2026-05-02T10:18:12.998Z</time></trkpt><trkpt lat="44.76854461730225" lon="9.940852484712318"><ele>415.0</ele><time>2026-05-02T10:18:14.998Z</time></trkpt><trkpt lat="44.76849986238475" lon="9.940765483270216"><ele>415.0</ele><time>2026-05-02T10:18:17.998Z</time></trkpt><trkpt lat="44.76845561071212" lon="9.940688167424918"><ele>415.0</ele><time>2026-05-02T10:18:20.998Z</time></trkpt><trkpt lat="44.76839562864916" lon="9.940612619778793"><ele>415.0</ele><time>2026-05-02T10:18:23.998Z</time></trkpt><trkpt lat="44.768334267638245" lon="9.940547844929629"><ele>416.6666666666667</ele><time>2026-05-02T10:18:26.998Z</time></trkpt><trkpt lat="44.76826621407869" lon="9.940494341827668"><ele>418.33333333333337</ele><time>2026-05-02T10:18:29.998Z</time></trkpt><trkpt lat="44.7681994724662" lon="9.940443620426628"><ele>420.0</ele><time>2026-05-02T10:18:32.998Z</time></trkpt><trkpt lat="44.76812558140634" lon="9.94040430560742"><ele>421.66666666666663</ele><time>2026-05-02T10:18:35.998Z</time></trkpt><trkpt lat="44.76803972026722" lon="9.940367260355151"><ele>423.3333333333333</ele><time>2026-05-02T10:18:39Z</time></trkpt><trkpt lat="44.76796519802093" lon="9.94033835234648"><ele>425.0</ele><time>2026-05-02T10:18:42Z</time></trkpt><trkpt lat="44.76788845394579" lon="9.940319878995709"><ele>424.99999999999994</ele><time>2026-05-02T10:18:45Z</time></trkpt><trkpt lat="44.76780579561854" lon="9.94031307621242"><ele>425.0</ele><time>2026-05-02T10:18:48Z</time></trkpt><trkpt lat="44.76772932648778" lon="9.94031131821925"><ele>425.0</ele><time>2026-05-02T10:18:51Z</time></trkpt><trkpt lat="44.767653410401365" lon="9.940323493939506"><ele>425.0</ele><time>2026-05-02T10:18:54Z</time></trkpt><trkpt lat="44.767570648087265" lon="9.940339963997548"><ele>424.99999999999994</ele><time>2026-05-02T10:18:58Z</time></trkpt><trkpt lat="44.76749484981746" lon="9.940351816804762"><ele>425.0</ele><time>2026-05-02T10:19:01Z</time></trkpt><trkpt lat="44.76741850816708" lon="9.940366502667345"><ele>425.66666666666663</ele><time>2026-05-02T10:19:04Z</time></trkpt><trkpt lat="44.76734800375537" lon="9.940385081940214"><ele>426.3333333333333</ele><time>2026-05-02T10:19:07Z</time></trkpt><trkpt lat="44.7672760886703" lon="9.940401158713566"><ele>427.0</ele><time>2026-05-02T10:19:10Z</time></trkpt><trkpt lat="44.76719944277013" lon="9.940412148730315"><ele>427.66666666666663</ele><time>2026-05-02T10:19:13Z</time></trkpt><trkpt lat="44.76711972178834" lon="9.94042862225378"><ele>428.3333333333333</ele><time>2026-05-02T10:19:15.999Z</time></trkpt><trkpt lat="44.76704447418032" lon="9.940445964513106"><ele>429.0</ele><time>2026-05-02T10:19:18.999Z</time></trkpt><trkpt lat="44.76696667776044" lon="9.940463496793562"><ele>429.0</ele><time>2026-05-02T10:19:21.999Z</time></trkpt><trkpt lat="44.76690082895482" lon="9.940475178744046"><ele>429.0</ele><time>2026-05-02T10:19:23.999Z</time></trkpt><trkpt lat="44.76682035715017" lon="9.940500708592026"><ele>429.0</ele><time>2026-05-02T10:19:26.999Z</time></trkpt><trkpt lat="44.76675003601389" lon="9.940522128852955"><ele>429.0</ele><time>2026-05-02T10:19:29.999Z</time></trkpt><trkpt lat="44.76668214226285" lon="9.940546557463694"><ele>429.0</ele><time>2026-05-02T10:19:32.999Z</time></trkpt><trkpt lat="44.766610393561315" lon="9.940566430615094"><ele>429.0</ele><time>2026-05-02T10:19:35.999Z</time></trkpt><trkpt lat="44.76654061898506" lon="9.940593586628921"><ele>429.0</ele><time>2026-05-02T10:19:38.999Z</time></trkpt><trkpt lat="44.76646718204563" lon="9.940621703461174"><ele>429.5</ele><time>2026-05-02T10:19:41.999Z</time></trkpt><trkpt lat="44.76638685746946" lon="9.940662483116059"><ele>430.0</ele><time>2026-05-02T10:19:45.999Z</time></trkpt><trkpt lat="44.76632248571708" lon="9.940692065006127"><ele>430.5</ele><time>2026-05-02T10:19:47.999Z</time></trkpt><trkpt lat="44.76624773725509" lon="9.940719935322045"><ele>431.0</ele><time>2026-05-02T10:19:50.999Z</time></trkpt><trkpt lat="44.76617748629376" lon="9.94075153214179"><ele>431.5</ele><time>2026-05-02T10:19:53.999Z</time></trkpt><trkpt lat="44.766107863054806" lon="9.940780601934838"><ele>432.0</ele><time>2026-05-02T10:19:56.999Z</time></trkpt><trkpt lat="44.76603433462877" lon="9.940810226989138"><ele>432.0</ele><time>2026-05-02T10:19:59.999Z</time></trkpt><trkpt lat="44.76596409388472" lon="9.940836344285756"><ele>432.0</ele><time>2026-05-02T10:20:02.999Z</time></trkpt><trkpt lat="44.76589114093848" lon="9.940867388888147"><ele>432.0</ele><time>2026-05-02T10:20:05.999Z</time></trkpt><trkpt lat="44.76581860121246" lon="9.940893779467245"><ele>432.0</ele><time>2026-05-02T10:20:08.998Z</time></trkpt><trkpt lat="44.76574453899259" lon="9.940922515493515"><ele>432.0</ele><time>2026-05-02T10:20:11.998Z</time></trkpt><trkpt lat="44.76567358178982" lon="9.940954731870573"><ele>432.0</ele><time>2026-05-02T10:20:14.998Z</time></trkpt><trkpt lat="44.765605333641105" lon="9.940994028352652"><ele>432.0</ele><time>2026-05-02T10:20:17.998Z</time></trkpt><trkpt lat="44.76553862136194" lon="9.94103438238085"><ele>432.0</ele><time>2026-05-02T10:20:20.998Z</time></trkpt><trkpt lat="44.7654762396995" lon="9.94108451489876"><ele>432.0</ele><time>2026-05-02T10:20:23.998Z</time></trkpt><trkpt lat="44.76541021541657" lon="9.941133230015764"><ele>432.0</ele><time>2026-05-02T10:20:26.998Z</time></trkpt><trkpt lat="44.765343231699795" lon="9.941183731905971"><ele>432.0</ele><time>2026-05-02T10:20:29.998Z</time></trkpt><trkpt lat="44.765279922923696" lon="9.941234808784959"><ele>432.0</ele><time>2026-05-02T10:20:32.998Z</time></trkpt><trkpt lat="44.76521539217287" lon="9.941279107856092"><ele>432.0</ele><time>2026-05-02T10:20:35.998Z</time></trkpt><trkpt lat="44.76515039626424" lon="9.941333208876662"><ele>432.0</ele><time>2026-05-02T10:20:38.998Z</time></trkpt><trkpt lat="44.76509058982293" lon="9.941382553864237"><ele>434.0</ele><time>2026-05-02T10:20:41.998Z</time></trkpt><trkpt lat="44.765030530712934" lon="9.941433459122711"><ele>436.0</ele><time>2026-05-02T10:20:45Z</time></trkpt><trkpt lat="44.76497874200013" lon="9.941488561064528"><ele>438.0</ele><time>2026-05-02T10:20:48Z</time></trkpt><trkpt lat="44.76490926728762" lon="9.941538046696099"><ele>440.0</ele><time>2026-05-02T10:20:52Z</time></trkpt><trkpt lat="44.76484330822293" lon="9.941607448768503"><ele>442.0</ele><time>2026-05-02T10:20:56Z</time></trkpt><trkpt lat="44.76477358237521" lon="9.941666409280904"><ele>444.0</ele><time>2026-05-02T10:21:00Z</time></trkpt><trkpt lat="44.76469582687634" lon="9.941714874985687"><ele>443.1428571428571</ele><time>2026-05-02T10:21:04Z</time></trkpt><trkpt lat="44.76464194951304" lon="9.94176283631551"><ele>442.28571428571433</ele><time>2026-05-02T10:21:07Z</time></trkpt><trkpt lat="44.76457925643248" lon="9.941798189216144"><ele>441.42857142857144</ele><time>2026-05-02T10:21:10Z</time></trkpt><trkpt lat="44.76451929248234" lon="9.941838964624393"><ele>440.57142857142856</ele><time>2026-05-02T10:21:13Z</time></trkpt><trkpt lat="44.76446256330911" lon="9.9418839099328"><ele>439.71428571428567</ele><time>2026-05-02T10:21:16Z</time></trkpt><trkpt lat="44.76438619385197" lon="9.941942940102884"><ele>438.8571428571429</ele><time>2026-05-02T10:21:19.999Z</time></trkpt><trkpt lat="44.76431327786551" lon="9.941991100834562"><ele>438.0</ele><time>2026-05-02T10:21:23.999Z</time></trkpt><trkpt lat="44.76424642447213" lon="9.942044801356467"><ele>440.8333333333333</ele><time>2026-05-02T10:21:26.999Z</time></trkpt><trkpt lat="44.764186532868585" lon="9.942094534066765"><ele>443.66666666666663</ele><time>2026-05-02T10:21:30.999Z</time></trkpt><trkpt lat="44.76413212364705" lon="9.942143684257616"><ele>446.5</ele><time>2026-05-02T10:21:33.999Z</time></trkpt><trkpt lat="44.7640599139862" lon="9.94220918718567"><ele>449.3333333333333</ele><time>2026-05-02T10:21:37.999Z</time></trkpt><trkpt lat="44.763990047094296" lon="9.942273059697095"><ele>452.16666666666663</ele><time>2026-05-02T10:21:41.999Z</time></trkpt><trkpt lat="44.76392908769495" lon="9.942330818941041"><ele>455.0</ele><time>2026-05-02T10:21:44.999Z</time></trkpt><trkpt lat="44.76386725052873" lon="9.942391177903888"><ele>455.0</ele><time>2026-05-02T10:21:48.999Z</time></trkpt><trkpt lat="44.76381338962381" lon="9.942448584193176"><ele>455.0</ele><time>2026-05-02T10:21:51.999Z</time></trkpt><trkpt lat="44.76376101105497" lon="9.942498127385305"><ele>455.0</ele><time>2026-05-02T10:21:54.999Z</time></trkpt><trkpt lat="44.76368676565207" lon="9.942551563010078"><ele>455.0</ele><time>2026-05-02T10:21:58.999Z</time></trkpt><trkpt lat="44.76362404182676" lon="9.942595368550545"><ele>455.0</ele><time>2026-05-02T10:22:01.999Z</time></trkpt><trkpt lat="44.76355996909386" lon="9.942630669682828"><ele>455.0</ele><time>2026-05-02T10:22:04.999Z</time></trkpt><trkpt lat="44.76348531579268" lon="9.942667180063694"><ele>455.0</ele><time>2026-05-02T10:22:08.999Z</time></trkpt><trkpt lat="44.76341992739043" lon="9.94269180715062"><ele>456.49999999999994</ele><time>2026-05-02T10:22:11.998Z</time></trkpt><trkpt lat="44.763345456797964" lon="9.942717107563523"><ele>458.0</ele><time>2026-05-02T10:22:15.998Z</time></trkpt><trkpt lat="44.763260241707485" lon="9.942739303689505"><ele>459.5</ele><time>2026-05-02T10:22:19.998Z</time></trkpt><trkpt lat="44.76319373373098" lon="9.942712144240616"><ele>461.0</ele><time>2026-05-02T10:22:23.998Z</time></trkpt><trkpt lat="44.76316733511414" lon="9.942628564002568"><ele>462.49999999999994</ele><time>2026-05-02T10:22:26.998Z</time></trkpt><trkpt lat="44.76317440897155" lon="9.942521510570227"><ele>464.0</ele><time>2026-05-02T10:22:30.998Z</time></trkpt><trkpt lat="44.76320145126259" lon="9.942416780691547"><ele>464.28571428571433</ele><time>2026-05-02T10:22:34.998Z</time></trkpt><trkpt lat="44.76323949561245" lon="9.942323805581887"><ele>464.57142857142856</ele><time>2026-05-02T10:22:37.998Z</time></trkpt><trkpt lat="44.76327188788344" lon="9.942243626709814"><ele>464.8571428571429</ele><time>2026-05-02T10:22:41.998Z</time></trkpt><trkpt lat="44.76330709274469" lon="9.942142391003037"><ele>465.14285714285717</ele><time>2026-05-02T10:22:45.998Z</time></trkpt><trkpt lat="44.76335304174437" lon="9.94205171668395"><ele>465.42857142857144</ele><time>2026-05-02T10:22:50Z</time></trkpt><trkpt lat="44.76339397130427" lon="9.941972889468392"><ele>465.7142857142857</ele><time>2026-05-02T10:22:53Z</time></trkpt><trkpt lat="44.7634363038915" lon="9.941884061896044"><ele>466.0</ele><time>2026-05-02T10:22:56Z</time></trkpt><trkpt lat="44.7634855804259" lon="9.94180162568329"><ele>466.0</ele><time>2026-05-02T10:23:00Z</time></trkpt><trkpt lat="44.763527713336714" lon="9.941720060655323"><ele>466.0</ele><time>2026-05-02T10:23:03Z</time></trkpt><trkpt lat="44.763577613006156" lon="9.94162981045303"><ele>466.0</ele><time>2026-05-02T10:23:06Z</time></trkpt><trkpt lat="44.76361852694877" lon="9.941542704431383"><ele>466.0</ele><time>2026-05-02T10:23:10Z</time></trkpt><trkpt lat="44.76365749244696" lon="9.941467851473305"><ele>466.0</ele><time>2026-05-02T10:23:13Z</time></trkpt><trkpt lat="44.76370333097802" lon="9.941386367756529"><ele>466.0</ele><time>2026-05-02T10:23:16Z</time></trkpt><trkpt lat="44.76374315354342" lon="9.941313473810718"><ele>466.0</ele><time>2026-05-02T10:23:19Z</time></trkpt><trkpt lat="44.76378334190381" lon="9.94121657856549"><ele>465.28571428571433</ele><time>2026-05-02T10:23:22.999Z</time></trkpt><trkpt lat="44.76383394739103" lon="9.941132242500547"><ele>464.57142857142856</ele><time>2026-05-02T10:23:25.999Z</time></trkpt><trkpt lat="44.763884077460006" lon="9.94104080434746"><ele>463.8571428571429</ele><time>2026-05-02T10:23:29.999Z</time></trkpt><trkpt lat="44.76392006685164" lon="9.940961397741054"><ele>463.14285714285717</ele><time>2026-05-02T10:23:32.999Z</time></trkpt><trkpt lat="44.76394896518538" lon="9.940872074215509"><ele>462.42857142857144</ele><time>2026-05-02T10:23:35.999Z</time></trkpt><trkpt lat="44.76397607158047" lon="9.94077825997933"><ele>461.7142857142857</ele><time>2026-05-02T10:23:38.999Z</time></trkpt><trkpt lat="44.763999697140136" lon="9.94068480387808"><ele>461.0</ele><time>2026-05-02T10:23:41.999Z</time></trkpt><trkpt lat="44.76400869549679" lon="9.94058590258848"><ele>462.42857142857144</ele><time>2026-05-02T10:23:44.999Z</time></trkpt><trkpt lat="44.76398202061825" lon="9.940485308839476"><ele>463.8571428571429</ele><time>2026-05-02T10:23:47.999Z</time></trkpt><trkpt lat="44.763916035084364" lon="9.940463063589648"><ele>465.28571428571433</ele><time>2026-05-02T10:23:50.999Z</time></trkpt><trkpt lat="44.76385105320516" lon="9.940503713875728"><ele>466.7142857142858</ele><time>2026-05-02T10:23:53.999Z</time></trkpt><trkpt lat="44.763804280241786" lon="9.940572797598646"><ele>468.14285714285717</ele><time>2026-05-02T10:23:56.999Z</time></trkpt><trkpt lat="44.76376256301759" lon="9.940654139858829"><ele>469.57142857142867</ele><time>2026-05-02T10:23:59.999Z</time></trkpt><trkpt lat="44.76372297566708" lon="9.940737527116875"><ele>471.00000000000006</ele><time>2026-05-02T10:24:02.999Z</time></trkpt><trkpt lat="44.763669680666446" lon="9.940820093671102"><ele>471.00000000000006</ele><time>2026-05-02T10:24:05.999Z</time></trkpt><trkpt lat="44.76361759942381" lon="9.940873216349175"><ele>471.0</ele><time>2026-05-02T10:24:08.999Z</time></trkpt><trkpt lat="44.76356162521491" lon="9.94091645915795"><ele>471.00000000000006</ele><time>2026-05-02T10:24:11.999Z</time></trkpt><trkpt lat="44.763501257882396" lon="9.940959232256604"><ele>471.00000000000006</ele><time>2026-05-02T10:24:14.999Z</time></trkpt><trkpt lat="44.763441143675315" lon="9.940997100020107"><ele>471.0</ele><time>2026-05-02T10:24:17.998Z</time></trkpt><trkpt lat="44.76337632585312" lon="9.941040038559002"><ele>471.00000000000006</ele><time>2026-05-02T10:24:20.998Z</time></trkpt><trkpt lat="44.76330826227052" lon="9.941085099161711"><ele>471.00000000000006</ele><time>2026-05-02T10:24:23.998Z</time></trkpt><trkpt lat="44.76323990932273" lon="9.941124026181203"><ele>472.00000000000006</ele><time>2026-05-02T10:24:26.998Z</time></trkpt><trkpt lat="44.76317282309575" lon="9.941148550838477"><ele>473.0</ele><time>2026-05-02T10:24:29.998Z</time></trkpt><trkpt lat="44.76310449048197" lon="9.941156709075024"><ele>474.00000000000006</ele><time>2026-05-02T10:24:32.998Z</time></trkpt><trkpt lat="44.7630357933539" lon="9.941142131045995"><ele>475.00000000000006</ele><time>2026-05-02T10:24:35.998Z</time></trkpt><trkpt lat="44.76296632373041" lon="9.941113563747445"><ele>476.0</ele><time>2026-05-02T10:24:38.998Z</time></trkpt><trkpt lat="44.76289451247701" lon="9.941069953702883"><ele>477.00000000000006</ele><time>2026-05-02T10:24:41.998Z</time></trkpt><trkpt lat="44.76281581306963" lon="9.941030356611348"><ele>478.00000000000006</ele><time>2026-05-02T10:24:44.998Z</time></trkpt><trkpt lat="44.76273754048499" lon="9.940995660721414"><ele>480.1666666666667</ele><time>2026-05-02T10:24:47.998Z</time></trkpt><trkpt lat="44.76266665957128" lon="9.94100726937419"><ele>482.33333333333337</ele><time>2026-05-02T10:24:50.998Z</time></trkpt><trkpt lat="44.76259316542193" lon="9.941043188803372"><ele>484.5</ele><time>2026-05-02T10:24:53.998Z</time></trkpt><trkpt lat="44.762526819595685" lon="9.94110960957881"><ele>486.66666666666663</ele><time>2026-05-02T10:24:57Z</time></trkpt><trkpt lat="44.762471176193465" lon="9.941194610405153"><ele>488.8333333333333</ele><time>2026-05-02T10:25:00Z</time></trkpt><trkpt lat="44.76241799594331" lon="9.941279749720724"><ele>491.0</ele><time>2026-05-02T10:25:03Z</time></trkpt><trkpt lat="44.7623620399392" lon="9.941364046358528"><ele>491.0</ele><time>2026-05-02T10:25:06Z</time></trkpt><trkpt lat="44.7623112598538" lon="9.941449007787908"><ele>490.99999999999994</ele><time>2026-05-02T10:25:09Z</time></trkpt><trkpt lat="44.76226391295783" lon="9.941509519454973"><ele>491.0</ele><time>2026-05-02T10:25:12Z</time></trkpt><trkpt lat="44.762207276715685" lon="9.941565093902454"><ele>491.0</ele><time>2026-05-02T10:25:15Z</time></trkpt><trkpt lat="44.762145121843496" lon="9.94159895749905"><ele>490.99999999999994</ele><time>2026-05-02T10:25:18Z</time></trkpt><trkpt lat="44.76207345795759" lon="9.941617213109028"><ele>491.0</ele><time>2026-05-02T10:25:21Z</time></trkpt><trkpt lat="44.76199130483022" lon="9.94163001478322"><ele>491.0</ele><time>2026-05-02T10:25:24Z</time></trkpt><trkpt lat="44.76191630656753" lon="9.941626043289284"><ele>491.66666666666663</ele><time>2026-05-02T10:25:26.999Z</time></trkpt><trkpt lat="44.76184894333588" lon="9.941628038551825"><ele>492.3333333333333</ele><time>2026-05-02T10:25:29.999Z</time></trkpt><trkpt lat="44.76177904296978" lon="9.941631445666584"><ele>493.0</ele><time>2026-05-02T10:25:32.999Z</time></trkpt><trkpt lat="44.76170302043905" lon="9.941642222187953"><ele>493.66666666666663</ele><time>2026-05-02T10:25:35.999Z</time></trkpt><trkpt lat="44.76162732918584" lon="9.94166798238408"><ele>494.3333333333333</ele><time>2026-05-02T10:25:38.999Z</time></trkpt><trkpt lat="44.76154183478191" lon="9.941718122391254"><ele>495.0</ele><time>2026-05-02T10:25:41.999Z</time></trkpt><trkpt lat="44.76147822890842" lon="9.941761004471097"><ele>494.99999999999994</ele><time>2026-05-02T10:25:44.999Z</time></trkpt><trkpt lat="44.76141778561413" lon="9.941816920178027"><ele>495.0</ele><time>2026-05-02T10:25:47.999Z</time></trkpt><trkpt lat="44.76136647635825" lon="9.941879097262287"><ele>494.99999999999994</ele><time>2026-05-02T10:25:50.999Z</time></trkpt><trkpt lat="44.76131496091956" lon="9.94195157112359"><ele>494.99999999999994</ele><time>2026-05-02T10:25:53.999Z</time></trkpt><trkpt lat="44.761266358133916" lon="9.942019747915495"><ele>495.0</ele><time>2026-05-02T10:25:55.999Z</time></trkpt><trkpt lat="44.76122691784477" lon="9.942090282013911"><ele>494.99999999999994</ele><time>2026-05-02T10:25:57.999Z</time></trkpt><trkpt lat="44.76118458436525" lon="9.942167301886297"><ele>494.99999999999994</ele><time>2026-05-02T10:26:00.999Z</time></trkpt><trkpt lat="44.76114519683898" lon="9.942240236265503"><ele>494.99999999999994</ele><time>2026-05-02T10:26:03.999Z</time></trkpt><trkpt lat="44.761102321551675" lon="9.942319359009886"><ele>495.0</ele><time>2026-05-02T10:26:06.999Z</time></trkpt><trkpt lat="44.76105904993222" lon="9.942408242311648"><ele>494.99999999999994</ele><time>2026-05-02T10:26:09.999Z</time></trkpt><trkpt lat="44.76101706184887" lon="9.942501021342414"><ele>494.99999999999994</ele><time>2026-05-02T10:26:12.999Z</time></trkpt><trkpt lat="44.76097621377461" lon="9.942610246051478"><ele>495.0</ele><time>2026-05-02T10:26:15.999Z</time></trkpt><trkpt lat="44.76095679482855" lon="9.942700476037748"><ele>494.99999999999994</ele><time>2026-05-02T10:26:18.999Z</time></trkpt><trkpt lat="44.760945884378806" lon="9.942795769306743"><ele>494.99999999999994</ele><time>2026-05-02T10:26:21.998Z</time></trkpt><trkpt lat="44.760943064710325" lon="9.942896471876738"><ele>494.8333333333333</ele><time>2026-05-02T10:26:24.998Z</time></trkpt><trkpt lat="44.76095724974044" lon="9.942996861870805"><ele>494.66666666666663</ele><time>2026-05-02T10:26:27.998Z</time></trkpt><trkpt lat="44.760980420142296" lon="9.943100667271676"><ele>494.5</ele><time>2026-05-02T10:26:30.998Z</time></trkpt><trkpt lat="44.7610066191099" lon="9.943200989552192"><ele>494.3333333333333</ele><time>2026-05-02T10:26:33.998Z</time></trkpt><trkpt lat="44.76103008088224" lon="9.943304731344105"><ele>494.16666666666663</ele><time>2026-05-02T10:26:36.998Z</time></trkpt><trkpt lat="44.76104377573866" lon="9.94342251890912"><ele>494.0</ele><time>2026-05-02T10:26:39.998Z</time></trkpt><trkpt lat="44.76103268270326" lon="9.943512340607052"><ele>496.28571428571433</ele><time>2026-05-02T10:26:42.998Z</time></trkpt><trkpt lat="44.76101751713596" lon="9.943611026486995"><ele>498.57142857142856</ele><time>2026-05-02T10:26:45.998Z</time></trkpt><trkpt lat="44.761000066607146" lon="9.943714261254698"><ele>500.8571428571429</ele><time>2026-05-02T10:26:48.998Z</time></trkpt><trkpt lat="44.760975458279226" lon="9.943817800785828"><ele>503.14285714285717</ele><time>2026-05-02T10:26:51.998Z</time></trkpt><trkpt lat="44.76094865348209" lon="9.943916769251059"><ele>505.42857142857144</ele><time>2026-05-02T10:26:54.998Z</time></trkpt><trkpt lat="44.76090158734065" lon="9.943998320620695"><ele>507.7142857142857</ele><time>2026-05-02T10:26:57.998Z</time></trkpt><trkpt lat="44.760831902574964" lon="9.944014018138805"><ele>510.0</ele><time>2026-05-02T10:27:00.998Z</time></trkpt><trkpt lat="44.76077686110667" lon="9.943957282688896"><ele>510.0</ele><time>2026-05-02T10:27:04Z</time></trkpt><trkpt lat="44.7607426595185" lon="9.943868813179202"><ele>510.0</ele><time>2026-05-02T10:27:07Z</time></trkpt><trkpt lat="44.76071214800043" lon="9.94377674643677"><ele>510.0</ele><time>2026-05-02T10:27:09Z</time></trkpt><trkpt lat="44.76068586452001" lon="9.943672063755521"><ele>510.0</ele><time>2026-05-02T10:27:12Z</time></trkpt><trkpt lat="44.760654316077755" lon="9.943567111583308"><ele>510.0</ele><time>2026-05-02T10:27:15Z</time></trkpt><trkpt lat="44.760630471778164" lon="9.943455405778279"><ele>510.0</ele><time>2026-05-02T10:27:18Z</time></trkpt><trkpt lat="44.76060756575707" lon="9.943335597944474"><ele>510.8333333333333</ele><time>2026-05-02T10:27:21Z</time></trkpt><trkpt lat="44.76057411037776" lon="9.943222042466068"><ele>511.66666666666663</ele><time>2026-05-02T10:27:25Z</time></trkpt><trkpt lat="44.760545876140036" lon="9.943127641403827"><ele>512.5</ele><time>2026-05-02T10:27:28Z</time></trkpt><trkpt lat="44.760512915094424" lon="9.943035397391506"><ele>513.3333333333333</ele><time>2026-05-02T10:27:30.999Z</time></trkpt><trkpt lat="44.76047521904056" lon="9.942948439006827"><ele>514.1666666666666</ele><time>2026-05-02T10:27:33.999Z</time></trkpt><trkpt lat="44.76042798606239" lon="9.942858769893988"><ele>515.0</ele><time>2026-05-02T10:27:36.999Z</time></trkpt><trkpt lat="44.760379309305634" lon="9.942772403838186"><ele>515.0</ele><time>2026-05-02T10:27:39.999Z</time></trkpt><trkpt lat="44.760343157523266" lon="9.942688273736549"><ele>515.0</ele><time>2026-05-02T10:27:42.999Z</time></trkpt><trkpt lat="44.760319736793754" lon="9.94260364796077"><ele>515.0</ele><time>2026-05-02T10:27:44.999Z</time></trkpt><trkpt lat="44.7603158283672" lon="9.942493910246592"><ele>515.0</ele><time>2026-05-02T10:27:47.999Z</time></trkpt><trkpt lat="44.76032518225624" lon="9.942390332191579"><ele>515.0</ele><time>2026-05-02T10:27:50.999Z</time></trkpt><trkpt lat="44.76033998310326" lon="9.942281361554246"><ele>515.0</ele><time>2026-05-02T10:27:53.999Z</time></trkpt><trkpt lat="44.7603550031137" lon="9.942180173925557"><ele>515.0</ele><time>2026-05-02T10:27:56.999Z</time></trkpt><trkpt lat="44.76036770438997" lon="9.942091977086589"><ele>515.0</ele><time>2026-05-02T10:27:58.999Z</time></trkpt><trkpt lat="44.76038869635669" lon="9.941988046787934"><ele>515.0</ele><time>2026-05-02T10:28:01.999Z</time></trkpt><trkpt lat="44.76040700138936" lon="9.941895246634713"><ele>515.0</ele><time>2026-05-02T10:28:04.999Z</time></trkpt><trkpt lat="44.76042710075247" lon="9.941789425975454"><ele>515.0</ele><time>2026-05-02T10:28:07.999Z</time></trkpt><trkpt lat="44.760441710195785" lon="9.94170089011609"><ele>515.0</ele><time>2026-05-02T10:28:09.999Z</time></trkpt><trkpt lat="44.76045651314864" lon="9.94159975851306"><ele>515.0</ele><time>2026-05-02T10:28:12.999Z</time></trkpt><trkpt lat="44.76047746898913" lon="9.941500285457474"><ele>515.0</ele><time>2026-05-02T10:28:15.999Z</time></trkpt><trkpt lat="44.76049732322946" lon="9.941398260838202"><ele>515.0</ele><time>2026-05-02T10:28:17.999Z</time></trkpt><trkpt lat="44.76051997949648" lon="9.941289392207837"><ele>515.0</ele><time>2026-05-02T10:28:20.999Z</time></trkpt><trkpt lat="44.760561171729464" lon="9.941173661339288"><ele>515.0</ele><time>2026-05-02T10:28:23.998Z</time></trkpt><trkpt lat="44.760600545593334" lon="9.94106393225392"><ele>515.0</ele><time>2026-05-02T10:28:26.998Z</time></trkpt><trkpt lat="44.76064574726687" lon="9.940972511385725"><ele>515.0</ele><time>2026-05-02T10:28:29.998Z</time></trkpt><trkpt lat="44.76069591264293" lon="9.940882872241776"><ele>515.0</ele><time>2026-05-02T10:28:32.998Z</time></trkpt><trkpt lat="44.760745220626426" lon="9.940794758707616"><ele>514.8333333333333</ele><time>2026-05-02T10:28:35.998Z</time></trkpt><trkpt lat="44.76079929969078" lon="9.940708762752083"><ele>514.6666666666666</ele><time>2026-05-02T10:28:38.998Z</time></trkpt><trkpt lat="44.76085251391064" lon="9.940627488642411"><ele>514.5</ele><time>2026-05-02T10:28:41.998Z</time></trkpt><trkpt lat="44.7609018954599" lon="9.940549518324199"><ele>514.3333333333334</ele><time>2026-05-02T10:28:44.998Z</time></trkpt><trkpt lat="44.76095617771023" lon="9.940464404067688"><ele>514.1666666666667</ele><time>2026-05-02T10:28:48.998Z</time></trkpt><trkpt lat="44.761005708267675" lon="9.940388812245144"><ele>514.0</ele><time>2026-05-02T10:28:51.998Z</time></trkpt><trkpt lat="44.761039383755474" lon="9.940302218284401"><ele>514.0</ele><time>2026-05-02T10:28:54.998Z</time></trkpt><trkpt lat="44.76104129577352" lon="9.940197140042523"><ele>514.0</ele><time>2026-05-02T10:28:57.998Z</time></trkpt><trkpt lat="44.76100082258382" lon="9.940107556238788"><ele>514.0</ele><time>2026-05-02T10:29:00.998Z</time></trkpt><trkpt lat="44.760937526793796" lon="9.940079774700497"><ele>514.0</ele><time>2026-05-02T10:29:03.998Z</time></trkpt><trkpt lat="44.76086576131567" lon="9.94008734834402"><ele>514.0</ele><time>2026-05-02T10:29:06.998Z</time></trkpt><trkpt lat="44.760793734771525" lon="9.94010666267508"><ele>514.0</ele><time>2026-05-02T10:29:10Z</time></trkpt><trkpt lat="44.760726382730354" lon="9.94013926953653"><ele>514.0</ele><time>2026-05-02T10:29:13Z</time></trkpt><trkpt lat="44.76065522308356" lon="9.94016750316719"><ele>516.0</ele><time>2026-05-02T10:29:16Z</time></trkpt><trkpt lat="44.7605741851289" lon="9.940198616577675"><ele>518.0</ele><time>2026-05-02T10:29:19Z</time></trkpt><trkpt lat="44.76049459339135" lon="9.940228804353955"><ele>520.0</ele><time>2026-05-02T10:29:23Z</time></trkpt><trkpt lat="44.7604245048246" lon="9.940246443374432"><ele>522.0</ele><time>2026-05-02T10:29:26Z</time></trkpt><trkpt lat="44.76035191497526" lon="9.940270528874054"><ele>524.0</ele><time>2026-05-02T10:29:29Z</time></trkpt><trkpt lat="44.76026888920693" lon="9.940306233708455"><ele>526.0</ele><time>2026-05-02T10:29:32Z</time></trkpt><trkpt lat="44.76019104000451" lon="9.940355932236505"><ele>528.3333333333334</ele><time>2026-05-02T10:29:35.999Z</time></trkpt><trkpt lat="44.76012764530777" lon="9.940413834141575"><ele>530.6666666666667</ele><time>2026-05-02T10:29:38.999Z</time></trkpt><trkpt lat="44.76006337431851" lon="9.94049266637499"><ele>533.0</ele><time>2026-05-02T10:29:41.999Z</time></trkpt><trkpt lat="44.76001078338083" lon="9.940571885830252"><ele>535.3333333333334</ele><time>2026-05-02T10:29:45.999Z</time></trkpt><trkpt lat="44.759961018946136" lon="9.940645957374539"><ele>537.6666666666666</ele><time>2026-05-02T10:29:48.999Z</time></trkpt><trkpt lat="44.75991365219449" lon="9.940725580743019"><ele>540.0</ele><time>2026-05-02T10:29:51.999Z</time></trkpt><trkpt lat="44.75985224471529" lon="9.940817455728164"><ele>538.6666666666666</ele><time>2026-05-02T10:29:54.999Z</time></trkpt><trkpt lat="44.759803005463034" lon="9.940888948516072"><ele>537.3333333333334</ele><time>2026-05-02T10:29:58.999Z</time></trkpt><trkpt lat="44.75975522382541" lon="9.940965812503276"><ele>536.0</ele><time>2026-05-02T10:30:01.999Z</time></trkpt><trkpt lat="44.75970956329161" lon="9.941043980279225"><ele>534.6666666666667</ele><time>2026-05-02T10:30:04.999Z</time></trkpt><trkpt lat="44.75965666927725" lon="9.941140539902742"><ele>533.3333333333334</ele><time>2026-05-02T10:30:07.999Z</time></trkpt><trkpt lat="44.759602155142495" lon="9.941225521982858"><ele>532.0</ele><time>2026-05-02T10:30:11.999Z</time></trkpt><trkpt lat="44.75955578285192" lon="9.941313209377169"><ele>532.0</ele><time>2026-05-02T10:30:13.999Z</time></trkpt><trkpt lat="44.75951354513513" lon="9.941391535008332"><ele>532.0</ele><time>2026-05-02T10:30:16.999Z</time></trkpt><trkpt lat="44.759471171354605" lon="9.941479321182518"><ele>532.0</ele><time>2026-05-02T10:30:20.999Z</time></trkpt><trkpt lat="44.75943094008125" lon="9.941573640927954"><ele>532.0</ele><time>2026-05-02T10:30:23.999Z</time></trkpt><trkpt lat="44.75938891607613" lon="9.941651377349562"><ele>532.0</ele><time>2026-05-02T10:30:26.999Z</time></trkpt><trkpt lat="44.75934035072921" lon="9.941743420142977"><ele>532.0</ele><time>2026-05-02T10:30:29.998Z</time></trkpt><trkpt lat="44.75930284168922" lon="9.94182647284079"><ele>532.0</ele><time>2026-05-02T10:30:32.998Z</time></trkpt><trkpt lat="44.75926140114959" lon="9.941905158985985"><ele>534.2857142857143</ele><time>2026-05-02T10:30:35.998Z</time></trkpt><trkpt lat="44.75922446283599" lon="9.941989898212462"><ele>536.5714285714286</ele><time>2026-05-02T10:30:38.998Z</time></trkpt><trkpt lat="44.75918160076549" lon="9.942070364719347"><ele>538.8571428571429</ele><time>2026-05-02T10:30:41.998Z</time></trkpt><trkpt lat="44.759164866524806" lon="9.942156153471558"><ele>541.1428571428571</ele><time>2026-05-02T10:30:44.998Z</time></trkpt><trkpt lat="44.75914431349689" lon="9.942241336611247"><ele>543.4285714285714</ele><time>2026-05-02T10:30:47.998Z</time></trkpt><trkpt lat="44.759128455388826" lon="9.942349080325748"><ele>545.7142857142858</ele><time>2026-05-02T10:30:50.998Z</time></trkpt><trkpt lat="44.75912368507597" lon="9.942449228954668"><ele>548.0</ele><time>2026-05-02T10:30:53.998Z</time></trkpt><trkpt lat="44.75912641702445" lon="9.942542892437476"><ele>547.5714285714287</ele><time>2026-05-02T10:30:55.998Z</time></trkpt><trkpt lat="44.75912934241686" lon="9.94263765298112"><ele>547.1428571428571</ele><time>2026-05-02T10:30:58.998Z</time></trkpt><trkpt lat="44.75912363260694" lon="9.94273484963369"><ele>546.7142857142858</ele><time>2026-05-02T10:31:01.998Z</time></trkpt><trkpt lat="44.7591180017744" lon="9.942836640720284"><ele>546.2857142857143</ele><time>2026-05-02T10:31:04.998Z</time></trkpt><trkpt lat="44.75909387096717" lon="9.942930076560975"><ele>545.8571428571429</ele><time>2026-05-02T10:31:07.998Z</time></trkpt><trkpt lat="44.75903206493912" lon="9.942978502871552"><ele>545.4285714285714</ele><time>2026-05-02T10:31:10.998Z</time></trkpt><trkpt lat="44.75897885114462" lon="9.942917450806826"><ele>545.0</ele><time>2026-05-02T10:31:15Z</time></trkpt><trkpt lat="44.7589471166167" lon="9.942800292463708"><ele>545.0</ele><time>2026-05-02T10:31:19Z</time></trkpt><trkpt lat="44.75892948403565" lon="9.942706568164082"><ele>545.0</ele><time>2026-05-02T10:31:23Z</time></trkpt><trkpt lat="44.75891298679834" lon="9.942573035080944"><ele>545.0</ele><time>2026-05-02T10:31:27Z</time></trkpt><trkpt lat="44.75891278035208" lon="9.942476524576213"><ele>545.0</ele><time>2026-05-02T10:31:31Z</time></trkpt><trkpt lat="44.75890442183675" lon="9.942383830707728"><ele>545.0</ele><time>2026-05-02T10:31:34Z</time></trkpt><trkpt lat="44.758895787208566" lon="9.942266661560847"><ele>545.0</ele><time>2026-05-02T10:31:37.999Z</time></trkpt><trkpt lat="44.75889720940535" lon="9.94215634596426"><ele>545.4285714285714</ele><time>2026-05-02T10:31:41.999Z</time></trkpt><trkpt lat="44.758906885767786" lon="9.942053469817258"><ele>545.8571428571429</ele><time>2026-05-02T10:31:44.999Z</time></trkpt><trkpt lat="44.75891967669278" lon="9.941944435126405"><ele>546.2857142857143</ele><time>2026-05-02T10:31:48.999Z</time></trkpt><trkpt lat="44.75893559085686" lon="9.941850032084748"><ele>546.7142857142858</ele><time>2026-05-02T10:31:51.999Z</time></trkpt><trkpt lat="44.758953156637055" lon="9.941742785485324"><ele>547.1428571428571</ele><time>2026-05-02T10:31:54.999Z</time></trkpt><trkpt lat="44.75897629227624" lon="9.941645106310247"><ele>547.5714285714287</ele><time>2026-05-02T10:31:58.999Z</time></trkpt><trkpt lat="44.75899675265293" lon="9.941558234794256"><ele>548.0</ele><time>2026-05-02T10:32:01.999Z</time></trkpt><trkpt lat="44.75901933025254" lon="9.94146058554912"><ele>549.1428571428572</ele><time>2026-05-02T10:32:04.999Z</time></trkpt><trkpt lat="44.75903688462396" lon="9.941354784079639"><ele>550.2857142857143</ele><time>2026-05-02T10:32:08.999Z</time></trkpt><trkpt lat="44.75905170010552" lon="9.941260923785588"><ele>551.4285714285714</ele><time>2026-05-02T10:32:11.999Z</time></trkpt><trkpt lat="44.75907154890409" lon="9.941153257280881"><ele>552.5714285714287</ele><time>2026-05-02T10:32:14.999Z</time></trkpt><trkpt lat="44.759084442951874" lon="9.941052314709724"><ele>553.7142857142858</ele><time>2026-05-02T10:32:18.999Z</time></trkpt><trkpt lat="44.75909766305813" lon="9.94095585932009"><ele>554.8571428571429</ele><time>2026-05-02T10:32:21.999Z</time></trkpt><trkpt lat="44.75909891503913" lon="9.940857152202344"><ele>556.0</ele><time>2026-05-02T10:32:24.999Z</time></trkpt><trkpt lat="44.75909346863542" lon="9.940752300567652"><ele>557.2857142857142</ele><time>2026-05-02T10:32:27.999Z</time></trkpt><trkpt lat="44.759077495220076" lon="9.94066196473798"><ele>558.5714285714286</ele><time>2026-05-02T10:32:30.999Z</time></trkpt><trkpt lat="44.75906043381235" lon="9.940573867463236"><ele>559.8571428571429</ele><time>2026-05-02T10:32:33.998Z</time></trkpt><trkpt lat="44.759029280796625" lon="9.940458083015827"><ele>561.1428571428571</ele><time>2026-05-02T10:32:37.998Z</time></trkpt><trkpt lat="44.75902556992876" lon="9.94034877738589"><ele>562.4285714285714</ele><time>2026-05-02T10:32:40.998Z</time></trkpt><trkpt lat="44.75904493337907" lon="9.940245892953458"><ele>563.7142857142857</ele><time>2026-05-02T10:32:44.998Z</time></trkpt><trkpt lat="44.759070665127254" lon="9.940163065771072"><ele>565.0</ele><time>2026-05-02T10:32:47.998Z</time></trkpt><trkpt lat="44.75910875417447" lon="9.9400678385913"><ele>565.7142857142857</ele><time>2026-05-02T10:32:50.998Z</time></trkpt><trkpt lat="44.759147132353945" lon="9.939989463749644"><ele>566.4285714285714</ele><time>2026-05-02T10:32:53.998Z</time></trkpt><trkpt lat="44.75917549894248" lon="9.939905208151307"><ele>567.1428571428571</ele><time>2026-05-02T10:32:56.998Z</time></trkpt><trkpt lat="44.75919414247229" lon="9.939811578961033"><ele>567.8571428571429</ele><time>2026-05-02T10:32:59.998Z</time></trkpt><trkpt lat="44.75921177959076" lon="9.939708968418692"><ele>568.5714285714286</ele><time>2026-05-02T10:33:02.998Z</time></trkpt><trkpt lat="44.7592112008774" lon="9.939597911093138"><ele>569.2857142857142</ele><time>2026-05-02T10:33:05.998Z</time></trkpt><trkpt lat="44.759198511284616" lon="9.939491248814859"><ele>570.0</ele><time>2026-05-02T10:33:08.998Z</time></trkpt><trkpt lat="44.75917573633034" lon="9.93939425014877"><ele>570.0</ele><time>2026-05-02T10:33:11.998Z</time></trkpt><trkpt lat="44.75914846057693" lon="9.939274586731685"><ele>570.0</ele><time>2026-05-02T10:33:15.998Z</time></trkpt><trkpt lat="44.75911071518044" lon="9.93917896400785"><ele>570.0</ele><time>2026-05-02T10:33:19Z</time></trkpt><trkpt lat="44.75906734524281" lon="9.939082526307276"><ele>570.0</ele><time>2026-05-02T10:33:22Z</time></trkpt><trkpt lat="44.759009406281784" lon="9.93899641887693"><ele>570.0</ele><time>2026-05-02T10:33:26Z</time></trkpt><trkpt lat="44.75893601349471" lon="9.938937027593633"><ele>570.0</ele><time>2026-05-02T10:33:30Z</time></trkpt><trkpt lat="44.75886575418267" lon="9.93890439429484"><ele>569.8571428571429</ele><time>2026-05-02T10:33:33Z</time></trkpt><trkpt lat="44.75878605428409" lon="9.93889245514118"><ele>569.7142857142858</ele><time>2026-05-02T10:33:36Z</time></trkpt><trkpt lat="44.75872111349694" lon="9.93888525378647"><ele>569.5714285714287</ele><time>2026-05-02T10:33:39Z</time></trkpt><trkpt lat="44.75865168243097" lon="9.938884647183357"><ele>569.4285714285714</ele><time>2026-05-02T10:33:41.999Z</time></trkpt><trkpt lat="44.75858225873334" lon="9.938878899720777"><ele>569.2857142857143</ele><time>2026-05-02T10:33:44.999Z</time></trkpt><trkpt lat="44.75850675626279" lon="9.938867186885354"><ele>569.1428571428572</ele><time>2026-05-02T10:33:47.999Z</time></trkpt><trkpt lat="44.75843996865373" lon="9.938832230426105"><ele>569.0</ele><time>2026-05-02T10:33:50.999Z</time></trkpt><trkpt lat="44.75838174728454" lon="9.938770412692367"><ele>571.2857142857143</ele><time>2026-05-02T10:33:53.999Z</time></trkpt><trkpt lat="44.75833599387241" lon="9.938676268142792"><ele>573.5714285714286</ele><time>2026-05-02T10:33:56.999Z</time></trkpt><trkpt lat="44.758318363960484" lon="9.938584472617563"><ele>575.8571428571429</ele><time>2026-05-02T10:33:59.999Z</time></trkpt><trkpt lat="44.75831096920433" lon="9.938495959784305"><ele>578.1428571428571</ele><time>2026-05-02T10:34:01.999Z</time></trkpt><trkpt lat="44.758300032107066" lon="9.938407220425773"><ele>580.4285714285714</ele><time>2026-05-02T10:34:04.999Z</time></trkpt><trkpt lat="44.758281795533755" lon="9.938312455068761"><ele>582.7142857142858</ele><time>2026-05-02T10:34:07.999Z</time></trkpt><trkpt lat="44.758257718440305" lon="9.938212363265466"><ele>585.0</ele><time>2026-05-02T10:34:10.999Z</time></trkpt><trkpt lat="44.75822152001483" lon="9.938119878069564"><ele>585.0</ele><time>2026-05-02T10:34:13.999Z</time></trkpt><trkpt lat="44.75817674880512" lon="9.938034921448956"><ele>585.0</ele><time>2026-05-02T10:34:16.999Z</time></trkpt><trkpt lat="44.758111569752096" lon="9.937951422637239"><ele>585.0</ele><time>2026-05-02T10:34:19.999Z</time></trkpt><trkpt lat="44.758070581374064" lon="9.937877789119206"><ele>585.0</ele><time>2026-05-02T10:34:22.999Z</time></trkpt><trkpt lat="44.758030271879214" lon="9.937796754154883"><ele>585.0</ele><time>2026-05-02T10:34:25.999Z</time></trkpt><trkpt lat="44.75800702636474" lon="9.93771303712127"><ele>585.0</ele><time>2026-05-02T10:34:28.999Z</time></trkpt><trkpt lat="44.757984072690974" lon="9.93761843466342"><ele>585.0</ele><time>2026-05-02T10:34:31.999Z</time></trkpt><trkpt lat="44.75796891344733" lon="9.937520349559476"><ele>584.5</ele><time>2026-05-02T10:34:34.999Z</time></trkpt><trkpt lat="44.75796279145135" lon="9.93741565689322"><ele>584.0</ele><time>2026-05-02T10:34:37.998Z</time></trkpt><trkpt lat="44.757958739287275" lon="9.937309451689124"><ele>583.5</ele><time>2026-05-02T10:34:40.998Z</time></trkpt><trkpt lat="44.75796738963352" lon="9.937209701790461"><ele>583.0</ele><time>2026-05-02T10:34:43.998Z</time></trkpt><trkpt lat="44.757980591689034" lon="9.937101817212938"><ele>582.5</ele><time>2026-05-02T10:34:46.998Z</time></trkpt><trkpt lat="44.75799726898432" lon="9.936986891200768"><ele>582.0</ele><time>2026-05-02T10:34:49.998Z</time></trkpt><trkpt lat="44.75802878594372" lon="9.936892497965127"><ele>582.0</ele><time>2026-05-02T10:34:52.998Z</time></trkpt><trkpt lat="44.75806051509494" lon="9.936806668991395"><ele>582.0</ele><time>2026-05-02T10:34:55.998Z</time></trkpt><trkpt lat="44.75810102721144" lon="9.936716228033498"><ele>582.0</ele><time>2026-05-02T10:34:58.998Z</time></trkpt><trkpt lat="44.75814806354491" lon="9.936632898637315"><ele>582.0</ele><time>2026-05-02T10:35:01.998Z</time></trkpt><trkpt lat="44.75820541674813" lon="9.936562890034368"><ele>582.0</ele><time>2026-05-02T10:35:04.998Z</time></trkpt><trkpt lat="44.75827719474839" lon="9.93650731011136"><ele>582.0</ele><time>2026-05-02T10:35:07.998Z</time></trkpt><trkpt lat="44.75833366571179" lon="9.936443311540442"><ele>583.0</ele><time>2026-05-02T10:35:10.998Z</time></trkpt><trkpt lat="44.758380983718496" lon="9.936352617409208"><ele>584.0</ele><time>2026-05-02T10:35:12.998Z</time></trkpt><trkpt lat="44.75838709203199" lon="9.936229193298674"><ele>585.0</ele><time>2026-05-02T10:35:15.998Z</time></trkpt><trkpt lat="44.75835544751878" lon="9.936147142014654"><ele>586.0</ele><time>2026-05-02T10:35:18.998Z</time></trkpt><trkpt lat="44.75828395941599" lon="9.93608422641555"><ele>587.0</ele><time>2026-05-02T10:35:21.998Z</time></trkpt><trkpt lat="44.75820915988858" lon="9.936042276307687"><ele>588.0</ele><time>2026-05-02T10:35:25Z</time></trkpt><trkpt lat="44.75814095360249" lon="9.936019728599733"><ele>588.0</ele><time>2026-05-02T10:35:28Z</time></trkpt><trkpt lat="44.75807191276441" lon="9.936001116640012"><ele>588.0</ele><time>2026-05-02T10:35:31Z</time></trkpt><trkpt lat="44.75799313620072" lon="9.935994273898185"><ele>588.0</ele><time>2026-05-02T10:35:35Z</time></trkpt><trkpt lat="44.75792846141559" lon="9.936006245026043"><ele>588.0</ele><time>2026-05-02T10:35:38Z</time></trkpt><trkpt lat="44.75785486099636" lon="9.936042663212138"><ele>588.0</ele><time>2026-05-02T10:35:41Z</time></trkpt><trkpt lat="44.75779249583888" lon="9.93610229668036"><ele>588.0</ele><time>2026-05-02T10:35:45Z</time></trkpt><trkpt lat="44.75774167815298" lon="9.936168469157248"><ele>588.0</ele><time>2026-05-02T10:35:47.999Z</time></trkpt><trkpt lat="44.757692083100046" lon="9.936237795077357"><ele>591.1666666666666</ele><time>2026-05-02T10:35:50.999Z</time></trkpt><trkpt lat="44.75764116374894" lon="9.936327319179716"><ele>594.3333333333334</ele><time>2026-05-02T10:35:53.999Z</time></trkpt><trkpt lat="44.75759920169988" lon="9.93641883284992"><ele>597.5</ele><time>2026-05-02T10:35:57.999Z</time></trkpt><trkpt lat="44.75756584124348" lon="9.936508692375758"><ele>600.6666666666667</ele><time>2026-05-02T10:36:00.999Z</time></trkpt><trkpt lat="44.757534193123085" lon="9.936603072458393"><ele>603.8333333333334</ele><time>2026-05-02T10:36:03.999Z</time></trkpt><trkpt lat="44.75750101262307" lon="9.936705679095018"><ele>607.0</ele><time>2026-05-02T10:36:06.999Z</time></trkpt><trkpt lat="44.75746725975964" lon="9.936813729028218"><ele>607.0</ele><time>2026-05-02T10:36:09.999Z</time></trkpt><trkpt lat="44.75743161329165" lon="9.93691379324946"><ele>607.0</ele><time>2026-05-02T10:36:12.999Z</time></trkpt><trkpt lat="44.75739489687418" lon="9.937001659522599"><ele>607.0</ele><time>2026-05-02T10:36:14.999Z</time></trkpt><trkpt lat="44.7573562674009" lon="9.937102963725556"><ele>607.0</ele><time>2026-05-02T10:36:17.999Z</time></trkpt><trkpt lat="44.75733042231287" lon="9.937194024696542"><ele>607.0</ele><time>2026-05-02T10:36:19.999Z</time></trkpt><trkpt lat="44.75728984349118" lon="9.937300404965194"><ele>607.0</ele><time>2026-05-02T10:36:22.999Z</time></trkpt><trkpt lat="44.75725643398505" lon="9.937381945254575"><ele>607.0</ele><time>2026-05-02T10:36:25.999Z</time></trkpt><trkpt lat="44.7572243065979" lon="9.93747875870661"><ele>607.0</ele><time>2026-05-02T10:36:27.999Z</time></trkpt><trkpt lat="44.75718813204775" lon="9.93759454684009"><ele>607.0</ele><time>2026-05-02T10:36:30.999Z</time></trkpt><trkpt lat="44.757175797331485" lon="9.937716008379493"><ele>607.0</ele><time>2026-05-02T10:36:33.999Z</time></trkpt><trkpt lat="44.7571723462446" lon="9.937844894419774"><ele>607.0</ele><time>2026-05-02T10:36:36.999Z</time></trkpt><trkpt lat="44.757190153667615" lon="9.937971900198036"><ele>607.0</ele><time>2026-05-02T10:36:39.999Z</time></trkpt><trkpt lat="44.75722982560217" lon="9.938103039722515"><ele>607.5714285714286</ele><time>2026-05-02T10:36:42.998Z</time></trkpt><trkpt lat="44.75727678238191" lon="9.938170347619053"><ele>608.1428571428571</ele><time>2026-05-02T10:36:44.998Z</time></trkpt><trkpt lat="44.75733864888625" lon="9.938249416101655"><ele>608.7142857142858</ele><time>2026-05-02T10:36:47.998Z</time></trkpt><trkpt lat="44.757394341477244" lon="9.938321520682283"><ele>609.2857142857142</ele><time>2026-05-02T10:36:50.998Z</time></trkpt><trkpt lat="44.757457950322845" lon="9.938390503693334"><ele>609.8571428571429</ele><time>2026-05-02T10:36:53.998Z</time></trkpt><trkpt lat="44.7575157517184" lon="9.93843966046596"><ele>610.4285714285714</ele><time>2026-05-02T10:36:56.998Z</time></trkpt><trkpt lat="44.75754632228733" lon="9.938520925813942"><ele>611.0</ele><time>2026-05-02T10:36:59.998Z</time></trkpt><trkpt lat="44.757565675691694" lon="9.938620929018748"><ele>611.0</ele><time>2026-05-02T10:37:02.998Z</time></trkpt><trkpt lat="44.757563301971174" lon="9.938721319710202"><ele>611.0</ele><time>2026-05-02T10:37:05.998Z</time></trkpt><trkpt lat="44.757533176565715" lon="9.938810672756857"><ele>611.0</ele><time>2026-05-02T10:37:08.998Z</time></trkpt><trkpt lat="44.75747952304358" lon="9.938908723912261"><ele>611.0</ele><time>2026-05-02T10:37:11.998Z</time></trkpt><trkpt lat="44.75739013199067" lon="9.938953438322873"><ele>611.0</ele><time>2026-05-02T10:37:15.998Z</time></trkpt><trkpt lat="44.75730797669543" lon="9.938952888467995"><ele>611.0</ele><time>2026-05-02T10:37:18.998Z</time></trkpt><trkpt lat="44.75724045095592" lon="9.938917828634946"><ele>611.0000000000001</ele><time>2026-05-02T10:37:21.998Z</time></trkpt><trkpt lat="44.757175179724086" lon="9.938867199825138"><ele>611.0</ele><time>2026-05-02T10:37:24.998Z</time></trkpt><trkpt lat="44.757119933128216" lon="9.938799616533123"><ele>611.0</ele><time>2026-05-02T10:37:27.998Z</time></trkpt><trkpt lat="44.75708201420208" lon="9.938719234746687"><ele>611.0</ele><time>2026-05-02T10:37:31Z</time></trkpt><trkpt lat="44.75705287641352" lon="9.938630268858905"><ele>611.0</ele><time>2026-05-02T10:37:34Z</time></trkpt><trkpt lat="44.7570315303596" lon="9.938533089770745"><ele>611.0000000000001</ele><time>2026-05-02T10:37:37Z</time></trkpt><trkpt lat="44.75701661824341" lon="9.938414992331825"><ele>611.0</ele><time>2026-05-02T10:37:40Z</time></trkpt><trkpt lat="44.756997894899705" lon="9.93829460637548"><ele>611.3333333333333</ele><time>2026-05-02T10:37:43Z</time></trkpt><trkpt lat="44.75698405531243" lon="9.93817535773242"><ele>611.6666666666666</ele><time>2026-05-02T10:37:46Z</time></trkpt><trkpt lat="44.75697082343656" lon="9.938086249903737"><ele>612.0</ele><time>2026-05-02T10:37:48Z</time></trkpt><trkpt lat="44.756949616207095" lon="9.937965470990562"><ele>612.3333333333334</ele><time>2026-05-02T10:37:50.999Z</time></trkpt><trkpt lat="44.75692963925823" lon="9.937880313376379"><ele>612.6666666666667</ele><time>2026-05-02T10:37:52.999Z</time></trkpt><trkpt lat="44.75690488007993" lon="9.937761471411982"><ele>613.0</ele><time>2026-05-02T10:37:55.999Z</time></trkpt><trkpt lat="44.7568855235443" lon="9.937636701177928"><ele>612.0</ele><time>2026-05-02T10:37:58.999Z</time></trkpt><trkpt lat="44.756870685956095" lon="9.937512346474708"><ele>611.0</ele><time>2026-05-02T10:38:01.999Z</time></trkpt><trkpt lat="44.75685517128813" lon="9.937392370835612"><ele>610.0</ele><time>2026-05-02T10:38:04.999Z</time></trkpt><trkpt lat="44.756846716883864" lon="9.937268311884518"><ele>609.0</ele><time>2026-05-02T10:38:07.999Z</time></trkpt><trkpt lat="44.7568524277061" lon="9.937150178793335"><ele>608.0</ele><time>2026-05-02T10:38:10.999Z</time></trkpt><trkpt lat="44.756866145150376" lon="9.93704038446598"><ele>607.0</ele><time>2026-05-02T10:38:13.999Z</time></trkpt><trkpt lat="44.756871860857025" lon="9.936934404851995"><ele>609.1666666666667</ele><time>2026-05-02T10:38:17.999Z</time></trkpt><trkpt lat="44.75681616364973" lon="9.93697577793344"><ele>611.3333333333334</ele><time>2026-05-02T10:38:22.999Z</time></trkpt><trkpt lat="44.756785423391385" lon="9.937065057473003"><ele>613.5</ele><time>2026-05-02T10:40:15.999Z</time></trkpt><trkpt lat="44.756793256326766" lon="9.937178381482932"><ele>615.6666666666666</ele><time>2026-05-02T10:40:19.999Z</time></trkpt><trkpt lat="44.75679468470375" lon="9.937275264652959"><ele>617.8333333333333</ele><time>2026-05-02T10:40:22.999Z</time></trkpt><trkpt lat="44.75679166533177" lon="9.937412976107876"><ele>620.0</ele><time>2026-05-02T10:40:25.999Z</time></trkpt><trkpt lat="44.756804200017704" lon="9.937518860272293"><ele>619.0</ele><time>2026-05-02T10:40:27.999Z</time></trkpt><trkpt lat="44.75683127653352" lon="9.937640027392504"><ele>618.0</ele><time>2026-05-02T10:40:29.999Z</time></trkpt><trkpt lat="44.75685066743448" lon="9.937771499489743"><ele>617.0</ele><time>2026-05-02T10:40:31.999Z</time></trkpt><trkpt lat="44.75687852932371" lon="9.937916783884756"><ele>616.0</ele><time>2026-05-02T10:40:33.999Z</time></trkpt><trkpt lat="44.756902191261915" lon="9.938080977530587"><ele>615.0</ele><time>2026-05-02T10:40:35.999Z</time></trkpt><trkpt lat="44.7569270541786" lon="9.9382600002618"><ele>614.7142857142857</ele><time>2026-05-02T10:40:37.999Z</time></trkpt><trkpt lat="44.75694747470006" lon="9.93835173227606"><ele>614.4285714285714</ele><time>2026-05-02T10:40:38.999Z</time></trkpt><trkpt lat="44.75696728171884" lon="9.93844477366967"><ele>614.1428571428571</ele><time>2026-05-02T10:40:39.999Z</time></trkpt><trkpt lat="44.756984526512674" lon="9.938544072626806"><ele>613.8571428571429</ele><time>2026-05-02T10:40:40.999Z</time></trkpt><trkpt lat="44.75700474764328" lon="9.938646166928889"><ele>613.5714285714286</ele><time>2026-05-02T10:40:41.999Z</time></trkpt><trkpt lat="44.75703052608912" lon="9.938748908583644"><ele>613.2857142857143</ele><time>2026-05-02T10:40:42.999Z</time></trkpt><trkpt lat="44.75706843196715" lon="9.938840635709012"><ele>613.0</ele><time>2026-05-02T10:40:43.999Z</time></trkpt><trkpt lat="44.757121260191234" lon="9.938924433158618"><ele>612.7142857142858</ele><time>2026-05-02T10:40:44.999Z</time></trkpt><trkpt lat="44.75718177845381" lon="9.938992062232378"><ele>612.4285714285714</ele><time>2026-05-02T10:40:45.999Z</time></trkpt><trkpt lat="44.757244788109716" lon="9.939042250193665"><ele>612.1428571428571</ele><time>2026-05-02T10:40:46.999Z</time></trkpt><trkpt lat="44.75731130454453" lon="9.939076923928875"><ele>611.8571428571429</ele><time>2026-05-02T10:40:47.999Z</time></trkpt><trkpt lat="44.757381142925055" lon="9.939098224081489"><ele>611.5714285714286</ele><time>2026-05-02T10:40:48.999Z</time></trkpt><trkpt lat="44.75745756689491" lon="9.939086303837378"><ele>611.2857142857143</ele><time>2026-05-02T10:40:49.999Z</time></trkpt><trkpt lat="44.75752761999649" lon="9.939043451098662"><ele>611.0</ele><time>2026-05-02T10:40:50.999Z</time></trkpt><trkpt lat="44.75757541853327" lon="9.938970207319693"><ele>611.0</ele><time>2026-05-02T10:40:51.998Z</time></trkpt><trkpt lat="44.75762493434994" lon="9.938874589771979"><ele>611.0</ele><time>2026-05-02T10:40:52.998Z</time></trkpt><trkpt lat="44.757657094910996" lon="9.938769704877732"><ele>611.0</ele><time>2026-05-02T10:40:53.998Z</time></trkpt><trkpt lat="44.757656271003206" lon="9.9386572433615"><ele>611.0</ele><time>2026-05-02T10:40:54.998Z</time></trkpt><trkpt lat="44.75762614400313" lon="9.938545777777545"><ele>611.0</ele><time>2026-05-02T10:40:55.998Z</time></trkpt><trkpt lat="44.7575729844919" lon="9.938450017486733"><ele>611.0</ele><time>2026-05-02T10:40:56.998Z</time></trkpt><trkpt lat="44.757514763198806" lon="9.938356154520195"><ele>611.3333333333333</ele><time>2026-05-02T10:40:57.998Z</time></trkpt><trkpt lat="44.75743933703147" lon="9.938286307157613"><ele>611.6666666666666</ele><time>2026-05-02T10:40:58.998Z</time></trkpt><trkpt lat="44.75736532320635" lon="9.938216222885952"><ele>612.0</ele><time>2026-05-02T10:40:59.998Z</time></trkpt><trkpt lat="44.75728763678277" lon="9.93815513643702"><ele>612.3333333333334</ele><time>2026-05-02T10:41:00.998Z</time></trkpt><trkpt lat="44.75723560906397" lon="9.93805383272083"><ele>612.6666666666667</ele><time>2026-05-02T10:41:01.998Z</time></trkpt><trkpt lat="44.757205153109204" lon="9.937939364026006"><ele>613.0</ele><time>2026-05-02T10:41:02.998Z</time></trkpt><trkpt lat="44.75719365929288" lon="9.937818579540238"><ele>613.0</ele><time>2026-05-02T10:41:03.998Z</time></trkpt><trkpt lat="44.75720183016595" lon="9.93769592004858"><ele>613.0</ele><time>2026-05-02T10:41:04.998Z</time></trkpt><trkpt lat="44.75722770780263" lon="9.937579251513704"><ele>613.0</ele><time>2026-05-02T10:41:05.998Z</time></trkpt><trkpt lat="44.7572673554536" lon="9.93746499051092"><ele>613.0</ele><time>2026-05-02T10:41:06.998Z</time></trkpt><trkpt lat="44.75730933822991" lon="9.9373557560132"><ele>613.0</ele><time>2026-05-02T10:41:07.998Z</time></trkpt><trkpt lat="44.75734876292324" lon="9.937240636491671"><ele>613.0</ele><time>2026-05-02T10:41:08.998Z</time></trkpt><trkpt lat="44.75738773900246" lon="9.937117971352986"><ele>612.8</ele><time>2026-05-02T10:41:09.998Z</time></trkpt><trkpt lat="44.7574256468246" lon="9.936993875782012"><ele>612.5999999999999</ele><time>2026-05-02T10:41:10.998Z</time></trkpt><trkpt lat="44.7574707604905" lon="9.936870852083334"><ele>612.4000000000001</ele><time>2026-05-02T10:41:11.998Z</time></trkpt><trkpt lat="44.75750971183916" lon="9.936743857211372"><ele>612.2</ele><time>2026-05-02T10:41:12.998Z</time></trkpt><trkpt lat="44.757553901838605" lon="9.936623317776903"><ele>612.0</ele><time>2026-05-02T10:41:13.998Z</time></trkpt><trkpt lat="44.75760357576715" lon="9.93650305366302"><ele>612.0</ele><time>2026-05-02T10:41:14.998Z</time></trkpt><trkpt lat="44.75765395640988" lon="9.936377041318476"><ele>612.0</ele><time>2026-05-02T10:41:15.998Z</time></trkpt><trkpt lat="44.75770840176929" lon="9.936257280430185"><ele>612.0</ele><time>2026-05-02T10:41:16.998Z</time></trkpt><trkpt lat="44.757774681120594" lon="9.93614846951896"><ele>612.0</ele><time>2026-05-02T10:41:17.998Z</time></trkpt><trkpt lat="44.75785269171055" lon="9.936058408134185"><ele>612.0</ele><time>2026-05-02T10:41:18.998Z</time></trkpt><trkpt lat="44.75793913130386" lon="9.936005701860749"><ele>608.0</ele><time>2026-05-02T10:41:19.998Z</time></trkpt><trkpt lat="44.75803484149716" lon="9.93599250356366"><ele>604.0</ele><time>2026-05-02T10:41:20.998Z</time></trkpt><trkpt lat="44.75813415839681" lon="9.936011312166212"><ele>600.0</ele><time>2026-05-02T10:41:21.998Z</time></trkpt><trkpt lat="44.758222718259624" lon="9.93603729174758"><ele>596.0</ele><time>2026-05-02T10:41:22.998Z</time></trkpt><trkpt lat="44.75829186988628" lon="9.936098867968493"><ele>592.0</ele><time>2026-05-02T10:41:23.998Z</time></trkpt><trkpt lat="44.75834882807474" lon="9.936154364586493"><ele>588.0</ele><time>2026-05-02T10:41:24.998Z</time></trkpt><trkpt lat="44.758363834671954" lon="9.936328255139985"><ele>588.0</ele><time>2026-05-02T10:41:26.998Z</time></trkpt><trkpt lat="44.758291318106906" lon="9.936414949269684"><ele>588.0</ele><time>2026-05-02T10:41:27.998Z</time></trkpt><trkpt lat="44.75820495234122" lon="9.936455456307348"><ele>588.0</ele><time>2026-05-02T10:41:28.998Z</time></trkpt><trkpt lat="44.75813340604182" lon="9.936514412002975"><ele>588.0</ele><time>2026-05-02T10:41:29.998Z</time></trkpt><trkpt lat="44.75806797796151" lon="9.936609740157177"><ele>588.0</ele><time>2026-05-02T10:41:30.998Z</time></trkpt><trkpt lat="44.75801417721166" lon="9.936726346104464"><ele>586.8</ele><time>2026-05-02T10:41:31.998Z</time></trkpt><trkpt lat="44.75797064475094" lon="9.936851457525261"><ele>585.5999999999999</ele><time>2026-05-02T10:41:32.998Z</time></trkpt><trkpt lat="44.7579377346377" lon="9.936983505700237"><ele>584.4000000000001</ele><time>2026-05-02T10:41:33.998Z</time></trkpt><trkpt lat="44.75791619140348" lon="9.937120388842548"><ele>583.2</ele><time>2026-05-02T10:41:34.998Z</time></trkpt><trkpt lat="44.75788345907962" lon="9.937260604119288"><ele>582.0</ele><time>2026-05-02T10:41:35.998Z</time></trkpt><trkpt lat="44.75789782653908" lon="9.937412202376137"><ele>582.6</ele><time>2026-05-02T10:41:36.998Z</time></trkpt><trkpt lat="44.75790924971527" lon="9.937561980268391"><ele>583.2</ele><time>2026-05-02T10:41:37.998Z</time></trkpt><trkpt lat="44.75793878501554" lon="9.937706014132484"><ele>583.8</ele><time>2026-05-02T10:41:38.998Z</time></trkpt><trkpt lat="44.75799163963688" lon="9.937837646279533"><ele>584.4</ele><time>2026-05-02T10:41:39.998Z</time></trkpt><trkpt lat="44.75805929603793" lon="9.937954215726107"><ele>585.0</ele><time>2026-05-02T10:41:40.998Z</time></trkpt><trkpt lat="44.758141492639425" lon="9.93805941369051"><ele>585.0</ele><time>2026-05-02T10:41:41.998Z</time></trkpt><trkpt lat="44.75820341286977" lon="9.93818473020354"><ele>585.0</ele><time>2026-05-02T10:41:43Z</time></trkpt><trkpt lat="44.75822349999456" lon="9.93833367132326"><ele>585.0</ele><time>2026-05-02T10:41:44Z</time></trkpt><trkpt lat="44.75824479934907" lon="9.938484643567623"><ele>585.0</ele><time>2026-05-02T10:41:45Z</time></trkpt><trkpt lat="44.7582683789141" lon="9.938625434626198"><ele>585.0</ele><time>2026-05-02T10:41:46Z</time></trkpt><trkpt lat="44.75831464212205" lon="9.93874499387418"><ele>586.4</ele><time>2026-05-02T10:41:47Z</time></trkpt><trkpt lat="44.758388808528366" lon="9.938830068901265"><ele>587.8</ele><time>2026-05-02T10:41:48Z</time></trkpt><trkpt lat="44.75847651687568" lon="9.938902569209102"><ele>589.2</ele><time>2026-05-02T10:41:49Z</time></trkpt><trkpt lat="44.75858233910538" lon="9.938895283079939"><ele>590.6</ele><time>2026-05-02T10:41:50Z</time></trkpt><trkpt lat="44.758688436133" lon="9.938891836603199"><ele>592.0</ele><time>2026-05-02T10:41:51Z</time></trkpt><trkpt lat="44.75879317099184" lon="9.938898709284514"><ele>587.6</ele><time>2026-05-02T10:41:52Z</time></trkpt><trkpt lat="44.75889526779614" lon="9.93892466254223"><ele>583.2</ele><time>2026-05-02T10:41:53Z</time></trkpt><trkpt lat="44.75898603004494" lon="9.93899513855661"><ele>578.8</ele><time>2026-05-02T10:41:54Z</time></trkpt><trkpt lat="44.75905549438958" lon="9.939104466120243"><ele>574.4</ele><time>2026-05-02T10:41:55Z</time></trkpt><trkpt lat="44.75910825636187" lon="9.939237131268069"><ele>570.0</ele><time>2026-05-02T10:41:56Z</time></trkpt><trkpt lat="44.7591451155256" lon="9.939381461392882"><ele>570.0</ele><time>2026-05-02T10:41:57Z</time></trkpt><trkpt lat="44.759170711989256" lon="9.939530397734252"><ele>570.0</ele><time>2026-05-02T10:41:58Z</time></trkpt><trkpt lat="44.759160603883494" lon="9.93967917152845"><ele>570.0</ele><time>2026-05-02T10:41:59Z</time></trkpt><trkpt lat="44.759137364467506" lon="9.939817747896427"><ele>570.0</ele><time>2026-05-02T10:41:59.999Z</time></trkpt><trkpt lat="44.75907622213132" lon="9.939941880178274"><ele>570.0</ele><time>2026-05-02T10:42:00.999Z</time></trkpt><trkpt lat="44.75900948333325" lon="9.940069567315945"><ele>568.75</ele><time>2026-05-02T10:42:01.999Z</time></trkpt><trkpt lat="44.758959617223866" lon="9.940212395804743"><ele>567.5</ele><time>2026-05-02T10:42:02.999Z</time></trkpt><trkpt lat="44.75894643680051" lon="9.940369840977835"><ele>566.25</ele><time>2026-05-02T10:42:03.999Z</time></trkpt><trkpt lat="44.75899301552906" lon="9.940521698967153"><ele>565.0</ele><time>2026-05-02T10:42:04.999Z</time></trkpt><trkpt lat="44.75901534958602" lon="9.940672329664542"><ele>565.0</ele><time>2026-05-02T10:42:05.999Z</time></trkpt><trkpt lat="44.75902412440056" lon="9.940816829697424"><ele>565.0</ele><time>2026-05-02T10:42:06.999Z</time></trkpt><trkpt lat="44.75901144859019" lon="9.940970358048203"><ele>565.0</ele><time>2026-05-02T10:42:07.999Z</time></trkpt><trkpt lat="44.758989918019346" lon="9.941128623533245"><ele>565.0</ele><time>2026-05-02T10:42:08.999Z</time></trkpt><trkpt lat="44.75896400753273" lon="9.941286598855225"><ele>565.0</ele><time>2026-05-02T10:42:09.999Z</time></trkpt><trkpt lat="44.75894702310463" lon="9.941450223201059"><ele>562.75</ele><time>2026-05-02T10:42:10.999Z</time></trkpt><trkpt lat="44.75891309492737" lon="9.941611482445213"><ele>560.5</ele><time>2026-05-02T10:42:11.999Z</time></trkpt><trkpt lat="44.75887941441425" lon="9.941773426670697"><ele>558.25</ele><time>2026-05-02T10:42:12.999Z</time></trkpt><trkpt lat="44.75884427730141" lon="9.94193723926878"><ele>556.0</ele><time>2026-05-02T10:42:13.999Z</time></trkpt><trkpt lat="44.75883818427919" lon="9.942112588708202"><ele>554.0</ele><time>2026-05-02T10:42:14.999Z</time></trkpt><trkpt lat="44.75884067392031" lon="9.942288833784612"><ele>552.0</ele><time>2026-05-02T10:42:15.999Z</time></trkpt><trkpt lat="44.75885696672813" lon="9.942467439409183"><ele>550.0</ele><time>2026-05-02T10:42:16.999Z</time></trkpt><trkpt lat="44.758880686483714" lon="9.942631674809293"><ele>548.0</ele><time>2026-05-02T10:42:17.999Z</time></trkpt><trkpt lat="44.758907825708285" lon="9.942780966708925"><ele>547.4</ele><time>2026-05-02T10:42:18.999Z</time></trkpt><trkpt lat="44.758928614014714" lon="9.942916832577499"><ele>546.8</ele><time>2026-05-02T10:42:19.999Z</time></trkpt><trkpt lat="44.758954308020634" lon="9.943030238375501"><ele>546.2</ele><time>2026-05-02T10:42:20.999Z</time></trkpt><trkpt lat="44.75899938175942" lon="9.94309704490299"><ele>545.6</ele><time>2026-05-02T10:42:21.999Z</time></trkpt><trkpt lat="44.75911901484246" lon="9.94304524146206"><ele>545.0</ele><time>2026-05-02T10:42:23.999Z</time></trkpt><trkpt lat="44.759142992665396" lon="9.942944056159964"><ele>545.0</ele><time>2026-05-02T10:42:24.999Z</time></trkpt><trkpt lat="44.75913037912599" lon="9.942822107937452"><ele>545.0</ele><time>2026-05-02T10:42:25.999Z</time></trkpt><trkpt lat="44.75911527192713" lon="9.942713722444191"><ele>545.0</ele><time>2026-05-02T10:42:26.999Z</time></trkpt><trkpt lat="44.75911400647385" lon="9.94259891087574"><ele>545.0</ele><time>2026-05-02T10:42:27.999Z</time></trkpt><trkpt lat="44.75911741054394" lon="9.942476311665786"><ele>545.0</ele><time>2026-05-02T10:42:28.999Z</time></trkpt><trkpt lat="44.759129497740666" lon="9.942350116818867"><ele>545.0</ele><time>2026-05-02T10:42:29.999Z</time></trkpt><trkpt lat="44.7591588029425" lon="9.942224226451067"><ele>545.6</ele><time>2026-05-02T10:42:30.999Z</time></trkpt><trkpt lat="44.75920307280995" lon="9.942103405077066"><ele>546.2</ele><time>2026-05-02T10:42:31.999Z</time></trkpt><trkpt lat="44.759257848591005" lon="9.941987126524356"><ele>546.8</ele><time>2026-05-02T10:42:32.999Z</time></trkpt><trkpt lat="44.75931471545604" lon="9.941871834478555"><ele>547.4</ele><time>2026-05-02T10:42:33.999Z</time></trkpt><trkpt lat="44.75937452269267" lon="9.941753272370956"><ele>548.0</ele><time>2026-05-02T10:42:34.999Z</time></trkpt><trkpt lat="44.75943611701156" lon="9.941634902849458"><ele>544.8</ele><time>2026-05-02T10:42:35.999Z</time></trkpt><trkpt lat="44.759496315094275" lon="9.941513848761266"><ele>541.5999999999999</ele><time>2026-05-02T10:42:36.999Z</time></trkpt><trkpt lat="44.75955205079437" lon="9.941386479523423"><ele>538.4000000000001</ele><time>2026-05-02T10:42:37.999Z</time></trkpt><trkpt lat="44.759611302072685" lon="9.941258135950486"><ele>535.2</ele><time>2026-05-02T10:42:38.999Z</time></trkpt><trkpt lat="44.759679813037856" lon="9.941136527371084"><ele>532.0</ele><time>2026-05-02T10:42:39.999Z</time></trkpt><trkpt lat="44.75974928716681" lon="9.941013895077125"><ele>532.0</ele><time>2026-05-02T10:42:40.999Z</time></trkpt><trkpt lat="44.75982138928473" lon="9.940890758070902"><ele>532.0</ele><time>2026-05-02T10:42:41.999Z</time></trkpt><trkpt lat="44.75989787882444" lon="9.940774939463005"><ele>532.0</ele><time>2026-05-02T10:42:42.999Z</time></trkpt><trkpt lat="44.75997840951856" lon="9.9406590083592"><ele>532.0</ele><time>2026-05-02T10:42:43.999Z</time></trkpt><trkpt lat="44.7600542938299" lon="9.94054428075389"><ele>530.8000000000001</ele><time>2026-05-02T10:42:44.999Z</time></trkpt><trkpt lat="44.76012947445839" lon="9.940433223194201"><ele>529.6</ele><time>2026-05-02T10:42:45.999Z</time></trkpt><trkpt lat="44.76021160092959" lon="9.940333964221763"><ele>528.4000000000001</ele><time>2026-05-02T10:42:46.999Z</time></trkpt><trkpt lat="44.76031274818929" lon="9.94027440851137"><ele>527.2</ele><time>2026-05-02T10:42:47.999Z</time></trkpt><trkpt lat="44.76042041460686" lon="9.940243133417836"><ele>526.0</ele><time>2026-05-02T10:42:48.999Z</time></trkpt><trkpt lat="44.760526823700104" lon="9.94020659064066"><ele>526.0</ele><time>2026-05-02T10:42:49.999Z</time></trkpt><trkpt lat="44.76062727492419" lon="9.940163401074566"><ele>526.0</ele><time>2026-05-02T10:42:50.999Z</time></trkpt><trkpt lat="44.76072272392837" lon="9.9401171180685"><ele>526.0</ele><time>2026-05-02T10:42:51.999Z</time></trkpt><trkpt lat="44.760817379457116" lon="9.940094664948372"><ele>526.0</ele><time>2026-05-02T10:42:52.999Z</time></trkpt><trkpt lat="44.760895730228604" lon="9.940068603742299"><ele>526.0</ele><time>2026-05-02T10:42:53.999Z</time></trkpt><trkpt lat="44.760961054324945" lon="9.94004974476375"><ele>526.0</ele><time>2026-05-02T10:42:54.999Z</time></trkpt><trkpt lat="44.760989396431384" lon="9.940134541184348"><ele>526.0</ele><time>2026-05-02T10:42:55.998Z</time></trkpt><trkpt lat="44.76098210043196" lon="9.94029961750988"><ele>526.0</ele><time>2026-05-02T10:42:57.998Z</time></trkpt><trkpt lat="44.760922895887234" lon="9.940383908939205"><ele>526.0</ele><time>2026-05-02T10:42:58.998Z</time></trkpt><trkpt lat="44.760866258429985" lon="9.940462002671417"><ele>526.0</ele><time>2026-05-02T10:42:59.998Z</time></trkpt><trkpt lat="44.76081187347177" lon="9.940548760814627"><ele>526.0</ele><time>2026-05-02T10:43:00.998Z</time></trkpt><trkpt lat="44.7607542887476" lon="9.940633864489488"><ele>526.0</ele><time>2026-05-02T10:43:01.998Z</time></trkpt><trkpt lat="44.76069451729666" lon="9.940722952312973"><ele>526.0</ele><time>2026-05-02T10:43:02.998Z</time></trkpt><trkpt lat="44.76063703482585" lon="9.940823640511418"><ele>526.0</ele><time>2026-05-02T10:43:03.998Z</time></trkpt><trkpt lat="44.76057828022513" lon="9.940929065743278"><ele>526.0</ele><time>2026-05-02T10:43:04.998Z</time></trkpt><trkpt lat="44.760525031917325" lon="9.941040731685167"><ele>526.0</ele><time>2026-05-02T10:43:05.998Z</time></trkpt><trkpt lat="44.7604775736657" lon="9.94116359648515"><ele>526.0</ele><time>2026-05-02T10:43:06.998Z</time></trkpt><trkpt lat="44.76044227659037" lon="9.941297779749402"><ele>523.8</ele><time>2026-05-02T10:43:07.998Z</time></trkpt><trkpt lat="44.760414809266905" lon="9.941434443579933"><ele>521.6</ele><time>2026-05-02T10:43:08.998Z</time></trkpt><trkpt lat="44.76038601885645" lon="9.941574286051976"><ele>519.4</ele><time>2026-05-02T10:43:09.998Z</time></trkpt><trkpt lat="44.76035919136534" lon="9.941717426226349"><ele>517.2</ele><time>2026-05-02T10:43:10.998Z</time></trkpt><trkpt lat="44.7603315889859" lon="9.941861074179267"><ele>515.0</ele><time>2026-05-02T10:43:11.998Z</time></trkpt><trkpt lat="44.76030619409992" lon="9.942002910946309"><ele>515.0</ele><time>2026-05-02T10:43:12.998Z</time></trkpt><trkpt lat="44.76027974712281" lon="9.942147402108294"><ele>515.0</ele><time>2026-05-02T10:43:13.998Z</time></trkpt><trkpt lat="44.76025979813219" lon="9.942292733057476"><ele>515.0</ele><time>2026-05-02T10:43:14.998Z</time></trkpt><trkpt lat="44.760251140133725" lon="9.942436341251513"><ele>515.0</ele><time>2026-05-02T10:43:15.998Z</time></trkpt><trkpt lat="44.76024576759311" lon="9.94258188819709"><ele>515.0</ele><time>2026-05-02T10:43:16.998Z</time></trkpt><trkpt lat="44.760289203322564" lon="9.942718474717859"><ele>515.0</ele><time>2026-05-02T10:43:17.998Z</time></trkpt><trkpt lat="44.76036555345273" lon="9.942821431671446"><ele>515.0</ele><time>2026-05-02T10:43:18.998Z</time></trkpt><trkpt lat="44.760430902963215" lon="9.942931883940934"><ele>515.0</ele><time>2026-05-02T10:43:19.998Z</time></trkpt><trkpt lat="44.76048660257548" lon="9.943051541338612"><ele>515.0</ele><time>2026-05-02T10:43:20.998Z</time></trkpt><trkpt lat="44.76052887738665" lon="9.943180619332871"><ele>515.0</ele><time>2026-05-02T10:43:21.998Z</time></trkpt><trkpt lat="44.76056381325304" lon="9.943317492607445"><ele>514.0</ele><time>2026-05-02T10:43:22.998Z</time></trkpt><trkpt lat="44.76059348957689" lon="9.943459268381856"><ele>513.0</ele><time>2026-05-02T10:43:23.998Z</time></trkpt><trkpt lat="44.76062473294389" lon="9.943603379711913"><ele>512.0</ele><time>2026-05-02T10:43:24.998Z</time></trkpt><trkpt lat="44.76065850661667" lon="9.943747106275175"><ele>511.0</ele><time>2026-05-02T10:43:25.998Z</time></trkpt><trkpt lat="44.76070058184494" lon="9.943885269006975"><ele>510.0</ele><time>2026-05-02T10:43:26.998Z</time></trkpt><trkpt lat="44.7607572728746" lon="9.943996506003339"><ele>510.0</ele><time>2026-05-02T10:43:27.998Z</time></trkpt><trkpt lat="44.760815849039005" lon="9.944079747358106"><ele>510.0</ele><time>2026-05-02T10:43:28.998Z</time></trkpt><trkpt lat="44.76090190638678" lon="9.944085462715062"><ele>510.0</ele><time>2026-05-02T10:43:29.998Z</time></trkpt><trkpt lat="44.7609776887008" lon="9.944020694326937"><ele>510.0</ele><time>2026-05-02T10:43:30.998Z</time></trkpt><trkpt lat="44.76099793891855" lon="9.943870599700226"><ele>510.0</ele><time>2026-05-02T10:43:31.998Z</time></trkpt><trkpt lat="44.76101842616209" lon="9.943755642402765"><ele>510.8333333333333</ele><time>2026-05-02T10:43:32.998Z</time></trkpt><trkpt lat="44.76104096775676" lon="9.943646640487954"><ele>511.66666666666663</ele><time>2026-05-02T10:43:33.998Z</time></trkpt><trkpt lat="44.76105636538114" lon="9.94353125635416"><ele>512.5</ele><time>2026-05-02T10:43:34.998Z</time></trkpt><trkpt lat="44.76106370442424" lon="9.943411873380523"><ele>513.3333333333333</ele><time>2026-05-02T10:43:35.998Z</time></trkpt><trkpt lat="44.76105882951223" lon="9.943290139736405"><ele>514.1666666666666</ele><time>2026-05-02T10:43:36.998Z</time></trkpt><trkpt lat="44.76103587948513" lon="9.943167779417724"><ele>515.0</ele><time>2026-05-02T10:43:37.998Z</time></trkpt><trkpt lat="44.76099837592111" lon="9.943049662037543"><ele>515.0</ele><time>2026-05-02T10:43:38.998Z</time></trkpt><trkpt lat="44.76096949903458" lon="9.942926039955706"><ele>515.0</ele><time>2026-05-02T10:43:39.998Z</time></trkpt><trkpt lat="44.76096048017359" lon="9.942792273725184"><ele>515.0</ele><time>2026-05-02T10:43:40.998Z</time></trkpt><trkpt lat="44.760972889135424" lon="9.94266123947318"><ele>515.0</ele><time>2026-05-02T10:43:41.998Z</time></trkpt><trkpt lat="44.76101095100341" lon="9.942529481760548"><ele>515.0</ele><time>2026-05-02T10:43:42.998Z</time></trkpt><trkpt lat="44.76107430131232" lon="9.942410514253964"><ele>511.0</ele><time>2026-05-02T10:43:43.998Z</time></trkpt><trkpt lat="44.761134508690944" lon="9.942291536703669"><ele>507.0</ele><time>2026-05-02T10:43:44.998Z</time></trkpt><trkpt lat="44.7611983075884" lon="9.942169510890349"><ele>503.0</ele><time>2026-05-02T10:43:45.998Z</time></trkpt><trkpt lat="44.761264864494855" lon="9.942046998346925"><ele>499.0</ele><time>2026-05-02T10:43:46.998Z</time></trkpt><trkpt lat="44.761331491467395" lon="9.941925642652953"><ele>495.0</ele><time>2026-05-02T10:43:47.998Z</time></trkpt><trkpt lat="44.76141156794739" lon="9.941820160562596"><ele>495.0</ele><time>2026-05-02T10:43:49Z</time></trkpt><trkpt lat="44.761506637576744" lon="9.941738852252419"><ele>495.0</ele><time>2026-05-02T10:43:50Z</time></trkpt><trkpt lat="44.76161064071947" lon="9.941679469186804"><ele>495.0</ele><time>2026-05-02T10:43:51Z</time></trkpt><trkpt lat="44.76172384025204" lon="9.94166255827617"><ele>495.0</ele><time>2026-05-02T10:43:52Z</time></trkpt><trkpt lat="44.76183556069935" lon="9.941666350143285"><ele>495.0</ele><time>2026-05-02T10:43:53Z</time></trkpt><trkpt lat="44.76194905603168" lon="9.941684089824248"><ele>494.0</ele><time>2026-05-02T10:43:54Z</time></trkpt><trkpt lat="44.76206120968232" lon="9.941689964722267"><ele>493.0</ele><time>2026-05-02T10:43:55Z</time></trkpt><trkpt lat="44.76216939856868" lon="9.941630642580135"><ele>492.0</ele><time>2026-05-02T10:43:56Z</time></trkpt><trkpt lat="44.76226639262685" lon="9.941548352857208"><ele>491.0</ele><time>2026-05-02T10:43:56.999Z</time></trkpt><trkpt lat="44.762350737184455" lon="9.941433812948166"><ele>491.0</ele><time>2026-05-02T10:43:58Z</time></trkpt><trkpt lat="44.762419613558784" lon="9.941302590475011"><ele>491.0</ele><time>2026-05-02T10:43:59Z</time></trkpt><trkpt lat="44.76248282969349" lon="9.941177463339846"><ele>491.0</ele><time>2026-05-02T10:43:59.999Z</time></trkpt><trkpt lat="44.762546274400265" lon="9.94107114776941"><ele>491.0</ele><time>2026-05-02T10:44:01Z</time></trkpt><trkpt lat="44.762640155152134" lon="9.941025635377336"><ele>491.0</ele><time>2026-05-02T10:44:02Z</time></trkpt><trkpt lat="44.76273654280095" lon="9.941028634861395"><ele>488.4</ele><time>2026-05-02T10:44:02.999Z</time></trkpt><trkpt lat="44.7628220997245" lon="9.941080469232135"><ele>485.8</ele><time>2026-05-02T10:44:03.999Z</time></trkpt><trkpt lat="44.76291906893531" lon="9.941135398623704"><ele>483.19999999999993</ele><time>2026-05-02T10:44:04.999Z</time></trkpt><trkpt lat="44.76301863407715" lon="9.94118260920881"><ele>480.59999999999997</ele><time>2026-05-02T10:44:05.999Z</time></trkpt><trkpt lat="44.763128126759234" lon="9.941192364755679"><ele>478.0</ele><time>2026-05-02T10:44:06.999Z</time></trkpt><trkpt lat="44.76323209805211" lon="9.94114162087592"><ele>478.0</ele><time>2026-05-02T10:44:07.999Z</time></trkpt><trkpt lat="44.76333113367676" lon="9.941079864962973"><ele>477.99999999999994</ele><time>2026-05-02T10:44:08.999Z</time></trkpt><trkpt lat="44.76342970835793" lon="9.941011407441762"><ele>477.99999999999994</ele><time>2026-05-02T10:44:09.999Z</time></trkpt><trkpt lat="44.76352797058374" lon="9.940945814951101"><ele>478.0</ele><time>2026-05-02T10:44:10.999Z</time></trkpt><trkpt lat="44.763633225316596" lon="9.940891521943731"><ele>478.0</ele><time>2026-05-02T10:44:11.999Z</time></trkpt><trkpt lat="44.763706865945366" lon="9.9407648882317"><ele>476.83333333333337</ele><time>2026-05-02T10:44:12.999Z</time></trkpt><trkpt lat="44.763769618347645" lon="9.94064040749449"><ele>475.6666666666667</ele><time>2026-05-02T10:44:13.999Z</time></trkpt><trkpt lat="44.76381197225302" lon="9.94052403635073"><ele>474.5</ele><time>2026-05-02T10:44:14.999Z</time></trkpt><trkpt lat="44.76385453650865" lon="9.940441093796602"><ele>473.33333333333337</ele><time>2026-05-02T10:44:15.999Z</time></trkpt><trkpt lat="44.76391813836799" lon="9.940439335386902"><ele>472.1666666666667</ele><time>2026-05-02T10:44:16.999Z</time></trkpt><trkpt lat="44.763963565887735" lon="9.940567757500846"><ele>471.0</ele><time>2026-05-02T10:44:18.999Z</time></trkpt><trkpt lat="44.76395077982382" lon="9.940672569681064"><ele>471.0</ele><time>2026-05-02T10:44:19.999Z</time></trkpt><trkpt lat="44.763909433553366" lon="9.940764078205802"><ele>471.0</ele><time>2026-05-02T10:44:20.999Z</time></trkpt><trkpt lat="44.7638688735581" lon="9.940855645630522"><ele>471.0</ele><time>2026-05-02T10:44:21.999Z</time></trkpt><trkpt lat="44.76382572534807" lon="9.940958795974975"><ele>471.0</ele><time>2026-05-02T10:44:22.999Z</time></trkpt><trkpt lat="44.763773266565984" lon="9.941062420084686"><ele>471.0</ele><time>2026-05-02T10:44:23.999Z</time></trkpt><trkpt lat="44.76371563831274" lon="9.941164655260273"><ele>471.0</ele><time>2026-05-02T10:44:24.999Z</time></trkpt><trkpt lat="44.76365727100491" lon="9.941273673328537"><ele>470.0</ele><time>2026-05-02T10:44:25.999Z</time></trkpt><trkpt lat="44.763599818486355" lon="9.941388128241849"><ele>469.0</ele><time>2026-05-02T10:44:26.999Z</time></trkpt><trkpt lat="44.763540553530575" lon="9.941505463351627"><ele>468.0</ele><time>2026-05-02T10:44:27.999Z</time></trkpt><trkpt lat="44.76347932433771" lon="9.941625236383489"><ele>467.0</ele><time>2026-05-02T10:44:28.999Z</time></trkpt><trkpt lat="44.76341616173978" lon="9.941748032105908"><ele>466.0</ele><time>2026-05-02T10:44:29.999Z</time></trkpt><trkpt lat="44.763353838686385" lon="9.94187462155234"><ele>466.0</ele><time>2026-05-02T10:44:30.999Z</time></trkpt><trkpt lat="44.76328658882761" lon="9.942002903301951"><ele>466.0</ele><time>2026-05-02T10:44:31.999Z</time></trkpt><trkpt lat="44.76322075281656" lon="9.942138244904461"><ele>466.0</ele><time>2026-05-02T10:44:32.999Z</time></trkpt><trkpt lat="44.76316022444591" lon="9.942277377529956"><ele>466.0</ele><time>2026-05-02T10:44:33.999Z</time></trkpt><trkpt lat="44.76311241752982" lon="9.942409186091538"><ele>466.0</ele><time>2026-05-02T10:44:34.999Z</time></trkpt><trkpt lat="44.763085890834176" lon="9.942532280049063"><ele>466.0</ele><time>2026-05-02T10:44:35.999Z</time></trkpt><trkpt lat="44.7630987868616" lon="9.942652474368758"><ele>466.0</ele><time>2026-05-02T10:44:36.999Z</time></trkpt><trkpt lat="44.7631376577772" lon="9.94276278574927"><ele>466.0</ele><time>2026-05-02T10:44:37.999Z</time></trkpt><trkpt lat="44.763243569772754" lon="9.942804811942173"><ele>466.0</ele><time>2026-05-02T10:44:38.999Z</time></trkpt><trkpt lat="44.763344980339426" lon="9.9427590010087"><ele>465.6</ele><time>2026-05-02T10:44:39.999Z</time></trkpt><trkpt lat="44.76343442199096" lon="9.942717778119102"><ele>465.20000000000005</ele><time>2026-05-02T10:44:40.999Z</time></trkpt><trkpt lat="44.76352757029633" lon="9.942677154266889"><ele>464.79999999999995</ele><time>2026-05-02T10:44:41.999Z</time></trkpt><trkpt lat="44.763626484994376" lon="9.942630118195543"><ele>464.4</ele><time>2026-05-02T10:44:42.999Z</time></trkpt><trkpt lat="44.76373239567515" lon="9.94257632576353"><ele>464.0</ele><time>2026-05-02T10:44:43.999Z</time></trkpt><trkpt lat="44.76382376256084" lon="9.942470473559782"><ele>461.75</ele><time>2026-05-02T10:44:44.999Z</time></trkpt><trkpt lat="44.76391855854896" lon="9.942369397726521"><ele>459.5</ele><time>2026-05-02T10:44:45.999Z</time></trkpt><trkpt lat="44.764013553058334" lon="9.942257880121867"><ele>457.25</ele><time>2026-05-02T10:44:46.999Z</time></trkpt><trkpt lat="44.76412443747547" lon="9.942179104114116"><ele>455.0</ele><time>2026-05-02T10:44:47.999Z</time></trkpt><trkpt lat="44.76423680531151" lon="9.942087137873964"><ele>455.0</ele><time>2026-05-02T10:44:48.999Z</time></trkpt><trkpt lat="44.764343401259765" lon="9.94197932413619"><ele>455.0</ele><time>2026-05-02T10:44:49.999Z</time></trkpt><trkpt lat="44.76446325068417" lon="9.941893053472334"><ele>455.0</ele><time>2026-05-02T10:44:50.999Z</time></trkpt><trkpt lat="44.76458347270481" lon="9.941805742345192"><ele>455.0</ele><time>2026-05-02T10:44:51.999Z</time></trkpt><trkpt lat="44.764705467006" lon="9.941712600392142"><ele>452.25</ele><time>2026-05-02T10:44:52.999Z</time></trkpt><trkpt lat="44.76482987218403" lon="9.941616495684901"><ele>449.5</ele><time>2026-05-02T10:44:53.999Z</time></trkpt><trkpt lat="44.76496076802012" lon="9.941529536665529"><ele>446.75</ele><time>2026-05-02T10:44:54.999Z</time></trkpt><trkpt lat="44.76509295250445" lon="9.941437658514808"><ele>444.0</ele><time>2026-05-02T10:44:55.999Z</time></trkpt><trkpt lat="44.76521693758361" lon="9.941317692319453"><ele>440.0</ele><time>2026-05-02T10:44:56.999Z</time></trkpt><trkpt lat="44.76534961071372" lon="9.94122076755329"><ele>436.0</ele><time>2026-05-02T10:44:57.999Z</time></trkpt><trkpt lat="44.765482113184795" lon="9.94111988502516"><ele>432.0</ele><time>2026-05-02T10:44:58.998Z</time></trkpt><trkpt lat="44.765615861185694" lon="9.941023683739811"><ele>432.0</ele><time>2026-05-02T10:44:59.998Z</time></trkpt><trkpt lat="44.76576122755575" lon="9.940962771499336"><ele>432.0</ele><time>2026-05-02T10:45:00.998Z</time></trkpt><trkpt lat="44.76590401643396" lon="9.940899428512399"><ele>432.0</ele><time>2026-05-02T10:45:01.998Z</time></trkpt><trkpt lat="44.76604679995876" lon="9.940836477871501"><ele>432.0</ele><time>2026-05-02T10:45:02.998Z</time></trkpt><trkpt lat="44.766185210197285" lon="9.940754368522732"><ele>432.0</ele><time>2026-05-02T10:45:03.998Z</time></trkpt><trkpt lat="44.76632720031962" lon="9.940695266718325"><ele>432.0</ele><time>2026-05-02T10:45:04.998Z</time></trkpt><trkpt lat="44.766466108916454" lon="9.940630787076849"><ele>432.0</ele><time>2026-05-02T10:45:05.998Z</time></trkpt><trkpt lat="44.766610300356376" lon="9.940596577378587"><ele>432.0</ele><time>2026-05-02T10:45:06.998Z</time></trkpt><trkpt lat="44.76675086872736" lon="9.940552281591645"><ele>432.0</ele><time>2026-05-02T10:45:07.998Z</time></trkpt><trkpt lat="44.766893748678086" lon="9.940518183491916"><ele>432.0</ele><time>2026-05-02T10:45:08.998Z</time></trkpt><trkpt lat="44.76703716034937" lon="9.940486187856793"><ele>432.0</ele><time>2026-05-02T10:45:09.998Z</time></trkpt><trkpt lat="44.76718063328323" lon="9.940454291931319"><ele>431.25</ele><time>2026-05-02T10:45:10.998Z</time></trkpt><trkpt lat="44.76732123636684" lon="9.940423034005226"><ele>430.5</ele><time>2026-05-02T10:45:11.998Z</time></trkpt><trkpt lat="44.767459861037494" lon="9.940392668386629"><ele>429.75</ele><time>2026-05-02T10:45:12.998Z</time></trkpt><trkpt lat="44.767597067143335" lon="9.940363069351744"><ele>429.0</ele><time>2026-05-02T10:45:13.998Z</time></trkpt><trkpt lat="44.767725976248656" lon="9.940339958521218"><ele>428.0</ele><time>2026-05-02T10:45:14.998Z</time></trkpt><trkpt lat="44.76785093701182" lon="9.94034402190765"><ele>427.0</ele><time>2026-05-02T10:45:15.998Z</time></trkpt><trkpt lat="44.76797243163417" lon="9.9403741920511"><ele>426.0</ele><time>2026-05-02T10:45:16.998Z</time></trkpt><trkpt lat="44.76809310057722" lon="9.940421894478677"><ele>425.0</ele><time>2026-05-02T10:45:17.998Z</time></trkpt><trkpt lat="44.76820259026775" lon="9.940485916731273"><ele>425.0</ele><time>2026-05-02T10:45:18.998Z</time></trkpt><trkpt lat="44.76830293190557" lon="9.940562739262123"><ele>425.0</ele><time>2026-05-02T10:45:19.998Z</time></trkpt><trkpt lat="44.76838770694037" lon="9.940667167006389"><ele>425.0</ele><time>2026-05-02T10:45:20.998Z</time></trkpt><trkpt lat="44.76845421666513" lon="9.940791541607076"><ele>425.0</ele><time>2026-05-02T10:45:21.998Z</time></trkpt><trkpt lat="44.76850244291594" lon="9.940938246080844"><ele>422.5</ele><time>2026-05-02T10:45:22.998Z</time></trkpt><trkpt lat="44.76853360503792" lon="9.941089353216961"><ele>420.0</ele><time>2026-05-02T10:45:23.998Z</time></trkpt><trkpt lat="44.76856704965737" lon="9.941251729911263"><ele>417.5</ele><time>2026-05-02T10:45:24.998Z</time></trkpt><trkpt lat="44.76862591254802" lon="9.94141277031785"><ele>415.0</ele><time>2026-05-02T10:45:25.998Z</time></trkpt><trkpt lat="44.76872655314527" lon="9.941533860755042"><ele>415.0</ele><time>2026-05-02T10:45:26.998Z</time></trkpt><trkpt lat="44.76883727753767" lon="9.941621756637822"><ele>415.0</ele><time>2026-05-02T10:45:27.998Z</time></trkpt><trkpt lat="44.768956835159834" lon="9.941688612186887"><ele>415.0</ele><time>2026-05-02T10:45:28.998Z</time></trkpt><trkpt lat="44.76907669072718" lon="9.941738888082446"><ele>415.0</ele><time>2026-05-02T10:45:29.998Z</time></trkpt><trkpt lat="44.76919882882325" lon="9.941777173373978"><ele>414.25</ele><time>2026-05-02T10:45:30.998Z</time></trkpt><trkpt lat="44.76932918496896" lon="9.941794729274077"><ele>413.5</ele><time>2026-05-02T10:45:31.998Z</time></trkpt><trkpt lat="44.769461886229976" lon="9.941784957363442"><ele>412.75</ele><time>2026-05-02T10:45:32.998Z</time></trkpt><trkpt lat="44.76959197466828" lon="9.941724179305025"><ele>412.0</ele><time>2026-05-02T10:45:33.998Z</time></trkpt><trkpt lat="44.76971101691687" lon="9.941629076366723"><ele>412.0</ele><time>2026-05-02T10:45:34.998Z</time></trkpt><trkpt lat="44.7698191050504" lon="9.941521987323485"><ele>412.0</ele><time>2026-05-02T10:45:35.998Z</time></trkpt><trkpt lat="44.76991287654723" lon="9.941387280543744"><ele>412.0</ele><time>2026-05-02T10:45:36.998Z</time></trkpt><trkpt lat="44.76998375005845" lon="9.941230510223551"><ele>412.0</ele><time>2026-05-02T10:45:37.998Z</time></trkpt><trkpt lat="44.770029448669455" lon="9.941060255418748"><ele>412.0</ele><time>2026-05-02T10:45:38.998Z</time></trkpt><trkpt lat="44.77009032741964" lon="9.94090343980349"><ele>412.0</ele><time>2026-05-02T10:45:39.998Z</time></trkpt><trkpt lat="44.770148121240545" lon="9.940745186156224"><ele>412.0</ele><time>2026-05-02T10:45:40.998Z</time></trkpt><trkpt lat="44.770221353444484" lon="9.940602444348832"><ele>412.0</ele><time>2026-05-02T10:45:41.998Z</time></trkpt><trkpt lat="44.77029472658997" lon="9.940489704724804"><ele>407.25</ele><time>2026-05-02T10:45:42.998Z</time></trkpt><trkpt lat="44.770385205215305" lon="9.940419448902109"><ele>402.5</ele><time>2026-05-02T10:45:43.998Z</time></trkpt><trkpt lat="44.77048629552549" lon="9.940383324314043"><ele>397.75</ele><time>2026-05-02T10:45:44.998Z</time></trkpt><trkpt lat="44.77059901776308" lon="9.940341568144806"><ele>393.0</ele><time>2026-05-02T10:45:45.998Z</time></trkpt><trkpt lat="44.77071760124523" lon="9.94028180040902"><ele>393.0</ele><time>2026-05-02T10:45:46.998Z</time></trkpt><trkpt lat="44.770832086287676" lon="9.940191989244596"><ele>393.0</ele><time>2026-05-02T10:45:47.998Z</time></trkpt><trkpt lat="44.77093960978578" lon="9.940103901385537"><ele>393.0</ele><time>2026-05-02T10:45:48.998Z</time></trkpt><trkpt lat="44.77104841464678" lon="9.940018016585778"><ele>393.0</ele><time>2026-05-02T10:45:49.999Z</time></trkpt><trkpt lat="44.77115838810277" lon="9.93993663527704"><ele>390.0</ele><time>2026-05-02T10:45:50.999Z</time></trkpt><trkpt lat="44.77126542481037" lon="9.939865689914017"><ele>387.0</ele><time>2026-05-02T10:45:51.999Z</time></trkpt><trkpt lat="44.77136927744569" lon="9.939809640042874"><ele>384.0</ele><time>2026-05-02T10:45:52.999Z</time></trkpt><trkpt lat="44.771470314019425" lon="9.939757881772412"><ele>381.0</ele><time>2026-05-02T10:45:53.998Z</time></trkpt><trkpt lat="44.77157004364358" lon="9.939701369608814"><ele>378.0</ele><time>2026-05-02T10:45:55Z</time></trkpt><trkpt lat="44.77166037701507" lon="9.939620931638398"><ele>378.0</ele><time>2026-05-02T10:45:56Z</time></trkpt><trkpt lat="44.771723074282214" lon="9.939488975845755"><ele>378.0</ele><time>2026-05-02T10:45:57Z</time></trkpt><trkpt lat="44.771772625099736" lon="9.939356090398002"><ele>378.0</ele><time>2026-05-02T10:45:58Z</time></trkpt><trkpt lat="44.77180125555851" lon="9.939208455224534"><ele>378.0</ele><time>2026-05-02T10:45:59Z</time></trkpt><trkpt lat="44.7718091694622" lon="9.939056902925907"><ele>378.0</ele><time>2026-05-02T10:46:00Z</time></trkpt><trkpt lat="44.771788549213774" lon="9.93890896170878"><ele>380.59999999999997</ele><time>2026-05-02T10:46:01Z</time></trkpt><trkpt lat="44.771748221612675" lon="9.938773892076163"><ele>383.2</ele><time>2026-05-02T10:46:02Z</time></trkpt><trkpt lat="44.771677573672584" lon="9.938660448920531"><ele>385.8</ele><time>2026-05-02T10:46:03Z</time></trkpt><trkpt lat="44.77160171757209" lon="9.938571951989733"><ele>388.4</ele><time>2026-05-02T10:46:04Z</time></trkpt><trkpt lat="44.77150930289583" lon="9.938502095268792"><ele>391.0</ele><time>2026-05-02T10:46:05Z</time></trkpt><trkpt lat="44.77140418235537" lon="9.93848524690827"><ele>391.0</ele><time>2026-05-02T10:46:06Z</time></trkpt><trkpt lat="44.77129529105647" lon="9.938507739518117"><ele>391.0</ele><time>2026-05-02T10:46:07Z</time></trkpt><trkpt lat="44.771189001406356" lon="9.938550060283754"><ele>391.0</ele><time>2026-05-02T10:46:08Z</time></trkpt><trkpt lat="44.77108081090763" lon="9.938596190248687"><ele>391.0</ele><time>2026-05-02T10:46:09Z</time></trkpt><trkpt lat="44.770968937009684" lon="9.938627242362216"><ele>391.0</ele><time>2026-05-02T10:46:10Z</time></trkpt><trkpt lat="44.77085868820403" lon="9.938642800770264"><ele>390.8</ele><time>2026-05-02T10:46:11Z</time></trkpt><trkpt lat="44.77076087855089" lon="9.938615133244902"><ele>390.6</ele><time>2026-05-02T10:46:12Z</time></trkpt><trkpt lat="44.77067196693508" lon="9.938548721010664"><ele>390.4</ele><time>2026-05-02T10:46:13Z</time></trkpt><trkpt lat="44.77058945259198" lon="9.93844825258954"><ele>390.2</ele><time>2026-05-02T10:46:14Z</time></trkpt><trkpt lat="44.77050309636983" lon="9.93835242608116"><ele>390.0</ele><time>2026-05-02T10:46:15Z</time></trkpt><trkpt lat="44.77041138416599" lon="9.93828606305519"><ele>387.8</ele><time>2026-05-02T10:46:16Z</time></trkpt><trkpt lat="44.770317349484635" lon="9.938206231104255"><ele>385.6</ele><time>2026-05-02T10:46:17Z</time></trkpt><trkpt lat="44.77022673915664" lon="9.938114467976067"><ele>383.4</ele><time>2026-05-02T10:46:18Z</time></trkpt><trkpt lat="44.77016347734084" lon="9.938010653624803"><ele>381.2</ele><time>2026-05-02T10:46:19Z</time></trkpt><trkpt lat="44.770132955314125" lon="9.937881866645434"><ele>379.0</ele><time>2026-05-02T10:46:20Z</time></trkpt><trkpt lat="44.77015409067603" lon="9.937748183358476"><ele>379.0</ele><time>2026-05-02T10:46:21Z</time></trkpt><trkpt lat="44.77021152520527" lon="9.937651828601274"><ele>379.0</ele><time>2026-05-02T10:46:22Z</time></trkpt><trkpt lat="44.770293334821815" lon="9.937586907413783"><ele>379.0</ele><time>2026-05-02T10:46:23Z</time></trkpt><trkpt lat="44.77037920368833" lon="9.937598511974413"><ele>379.0</ele><time>2026-05-02T10:46:24Z</time></trkpt><trkpt lat="44.77045702295316" lon="9.937621457404003"><ele>379.0</ele><time>2026-05-02T10:46:25Z</time></trkpt><trkpt lat="44.77055072722275" lon="9.937751724666642"><ele>379.0</ele><time>2026-05-02T10:46:27Z</time></trkpt><trkpt lat="44.77059579429862" lon="9.937866089375863"><ele>379.0</ele><time>2026-05-02T10:46:28Z</time></trkpt><trkpt lat="44.77063948065079" lon="9.937976449902475"><ele>379.0</ele><time>2026-05-02T10:46:29Z</time></trkpt><trkpt lat="44.770725240711585" lon="9.938063093260723"><ele>379.0</ele><time>2026-05-02T10:46:30Z</time></trkpt><trkpt lat="44.77082458979393" lon="9.938071629381538"><ele>379.0</ele><time>2026-05-02T10:46:31Z</time></trkpt><trkpt lat="44.770923319252596" lon="9.93803703216786"><ele>379.0</ele><time>2026-05-02T10:46:32Z</time></trkpt><trkpt lat="44.77099400671864" lon="9.937924873885422"><ele>379.0</ele><time>2026-05-02T10:46:33Z</time></trkpt><trkpt lat="44.77105699482312" lon="9.937820155334322"><ele>379.0</ele><time>2026-05-02T10:46:34Z</time></trkpt><trkpt lat="44.771143232503206" lon="9.937736926630661"><ele>379.0</ele><time>2026-05-02T10:46:35Z</time></trkpt><trkpt lat="44.771221295896495" lon="9.93765891289897"><ele>379.0</ele><time>2026-05-02T10:46:36Z</time></trkpt><trkpt lat="44.77131211194062" lon="9.937608426493822"><ele>378.8333333333333</ele><time>2026-05-02T10:46:37Z</time></trkpt><trkpt lat="44.77140606026805" lon="9.93761306020406"><ele>378.66666666666663</ele><time>2026-05-02T10:46:38Z</time></trkpt><trkpt lat="44.77149126806925" lon="9.937650296428423"><ele>378.5</ele><time>2026-05-02T10:46:39Z</time></trkpt><trkpt lat="44.77157955193025" lon="9.937693290506438"><ele>378.3333333333333</ele><time>2026-05-02T10:46:40Z</time></trkpt><trkpt lat="44.771654213064224" lon="9.937720129708485"><ele>378.1666666666667</ele><time>2026-05-02T10:46:41Z</time></trkpt><trkpt lat="44.77173646655796" lon="9.93767568086139"><ele>378.0</ele><time>2026-05-02T10:46:42Z</time></trkpt><trkpt lat="44.77174169711501" lon="9.937516911488093"><ele>374.4</ele><time>2026-05-02T10:46:43Z</time></trkpt><trkpt lat="44.77169514131192" lon="9.937422751387624"><ele>370.79999999999995</ele><time>2026-05-02T10:46:44Z</time></trkpt><trkpt lat="44.771627926376006" lon="9.937385933570758"><ele>367.2</ele><time>2026-05-02T10:46:45Z</time></trkpt><trkpt lat="44.771550371898385" lon="9.937356699855446"><ele>363.6</ele><time>2026-05-02T10:46:46Z</time></trkpt><trkpt lat="44.77146984408997" lon="9.93733826648648"><ele>360.0</ele><time>2026-05-02T10:46:47Z</time></trkpt><trkpt lat="44.77131981001664" lon="9.937314756223742"><ele>360.0</ele><time>2026-05-02T10:46:49Z</time></trkpt><trkpt lat="44.77123956520042" lon="9.937308453831323"><ele>360.0</ele><time>2026-05-02T10:46:50Z</time></trkpt><trkpt lat="44.77116909720532" lon="9.937295278597867"><ele>360.0</ele><time>2026-05-02T10:46:51Z</time></trkpt><trkpt lat="44.771109208390115" lon="9.937256826751621"><ele>360.0</ele><time>2026-05-02T10:46:52Z</time></trkpt><trkpt lat="44.7711242020965" lon="9.937093700718847"><ele>360.0</ele><time>2026-05-02T10:46:54Z</time></trkpt><trkpt lat="44.771206644095486" lon="9.937093802970809"><ele>360.0</ele><time>2026-05-02T10:46:55Z</time></trkpt><trkpt lat="44.771269553189775" lon="9.937133879359012"><ele>360.0</ele><time>2026-05-02T10:46:56Z</time></trkpt><trkpt lat="44.771346608603764" lon="9.937152001100952"><ele>360.0</ele><time>2026-05-02T10:46:57Z</time></trkpt><trkpt lat="44.7714316654025" lon="9.937176243966109"><ele>360.0</ele><time>2026-05-02T10:46:58Z</time></trkpt><trkpt lat="44.77151903351155" lon="9.937201934020072"><ele>360.0</ele><time>2026-05-02T10:46:59Z</time></trkpt><trkpt lat="44.77161079135271" lon="9.937228914944512"><ele>360.0</ele><time>2026-05-02T10:47:00Z</time></trkpt><trkpt lat="44.77170636404889" lon="9.937257017547983"><ele>360.0</ele><time>2026-05-02T10:47:01Z</time></trkpt><trkpt lat="44.771806672299036" lon="9.937286512615467"><ele>357.75</ele><time>2026-05-02T10:47:02Z</time></trkpt><trkpt lat="44.77190946615503" lon="9.937316738546208"><ele>355.5</ele><time>2026-05-02T10:47:03Z</time></trkpt><trkpt lat="44.77201461242185" lon="9.937348932527774"><ele>353.25</ele><time>2026-05-02T10:47:04Z</time></trkpt><trkpt lat="44.77212837716106" lon="9.937384592818674"><ele>351.0</ele><time>2026-05-02T10:47:04.999Z</time></trkpt><trkpt lat="44.77224800072814" lon="9.937427194317651"><ele>351.0</ele><time>2026-05-02T10:47:05.999Z</time></trkpt><trkpt lat="44.772346498721724" lon="9.93746933536412"><ele>351.0</ele><time>2026-05-02T10:47:06.999Z</time></trkpt><trkpt lat="44.77244180414436" lon="9.937512736302855"><ele>351.0</ele><time>2026-05-02T10:47:07.999Z</time></trkpt><trkpt lat="44.77253570525414" lon="9.937556325345772"><ele>351.0</ele><time>2026-05-02T10:47:08.999Z</time></trkpt><trkpt lat="44.7726245601856" lon="9.937599454711883"><ele>351.0</ele><time>2026-05-02T10:47:09.999Z</time></trkpt><trkpt lat="44.772708848420635" lon="9.937630398134669"><ele>348.6666666666667</ele><time>2026-05-02T10:47:10.999Z</time></trkpt><trkpt lat="44.772784985908" lon="9.937653989178648"><ele>346.3333333333333</ele><time>2026-05-02T10:47:11.999Z</time></trkpt><trkpt lat="44.772848585148445" lon="9.937651068254013"><ele>344.0</ele><time>2026-05-02T10:47:12.999Z</time></trkpt><trkpt lat="44.7728938850374" lon="9.937577472686161"><ele>341.66666666666663</ele><time>2026-05-02T10:47:13.999Z</time></trkpt><trkpt lat="44.77289532134916" lon="9.937473681895723"><ele>339.3333333333333</ele><time>2026-05-02T10:47:14.999Z</time></trkpt><trkpt lat="44.77284267202147" lon="9.93737331064896"><ele>337.0</ele><time>2026-05-02T10:47:15.999Z</time></trkpt><trkpt lat="44.772765925384206" lon="9.93732225969101"><ele>336.8333333333333</ele><time>2026-05-02T10:47:16.999Z</time></trkpt><trkpt lat="44.77269290364898" lon="9.93728852765064"><ele>336.66666666666663</ele><time>2026-05-02T10:47:17.999Z</time></trkpt><trkpt lat="44.772625757202455" lon="9.937244179430234"><ele>336.5</ele><time>2026-05-02T10:47:18.999Z</time></trkpt><trkpt lat="44.77256980427612" lon="9.93718432314843"><ele>336.3333333333333</ele><time>2026-05-02T10:47:19.999Z</time></trkpt><trkpt lat="44.77254236236915" lon="9.937012287244814"><ele>336.1666666666667</ele><time>2026-05-02T10:47:21.999Z</time></trkpt><trkpt lat="44.7725976892213" lon="9.936941792707398"><ele>336.0</ele><time>2026-05-02T10:47:22.999Z</time></trkpt><trkpt lat="44.772681502247856" lon="9.936928639307064"><ele>336.0</ele><time>2026-05-02T10:47:23.999Z</time></trkpt><trkpt lat="44.77274248975217" lon="9.93697193419952"><ele>336.0</ele><time>2026-05-02T10:47:24.999Z</time></trkpt><trkpt lat="44.77281055894783" lon="9.937050307660428"><ele>336.0</ele><time>2026-05-02T10:47:25.999Z</time></trkpt><trkpt lat="44.77288801006793" lon="9.937074238922651"><ele>336.0</ele><time>2026-05-02T10:47:26.999Z</time></trkpt><trkpt lat="44.77295962454399" lon="9.937133679813265"><ele>336.0</ele><time>2026-05-02T10:47:27.999Z</time></trkpt><trkpt lat="44.77304053372956" lon="9.937179575110834"><ele>336.0</ele><time>2026-05-02T10:47:28.999Z</time></trkpt><trkpt lat="44.773131604590475" lon="9.937229430473907"><ele>336.0</ele><time>2026-05-02T10:47:29.999Z</time></trkpt><trkpt lat="44.77321997083871" lon="9.93727877102509"><ele>336.0</ele><time>2026-05-02T10:47:30.999Z</time></trkpt><trkpt lat="44.773310810828804" lon="9.937330674210186"><ele>336.0</ele><time>2026-05-02T10:47:31.999Z</time></trkpt><trkpt lat="44.77340246823705" lon="9.937383630918216"><ele>336.0</ele><time>2026-05-02T10:47:32.999Z</time></trkpt><trkpt lat="44.773490866546055" lon="9.93743689472382"><ele>336.0</ele><time>2026-05-02T10:47:33.999Z</time></trkpt><trkpt lat="44.77357061267201" lon="9.937489057532996"><ele>335.8333333333333</ele><time>2026-05-02T10:47:34.999Z</time></trkpt><trkpt lat="44.77364119827921" lon="9.937537069847904"><ele>335.6666666666667</ele><time>2026-05-02T10:47:35.999Z</time></trkpt><trkpt lat="44.77370110199847" lon="9.937579179278943"><ele>335.5</ele><time>2026-05-02T10:47:36.999Z</time></trkpt><trkpt lat="44.77377863446331" lon="9.93764415352335"><ele>335.33333333333337</ele><time>2026-05-02T10:47:38.999Z</time></trkpt><trkpt lat="44.77385417715848" lon="9.937600079533054"><ele>335.1666666666667</ele><time>2026-05-02T10:47:42.999Z</time></trkpt><trkpt lat="44.77379562085663" lon="9.937565984618635"><ele>335.0</ele><time>2026-05-02T10:48:32Z</time></trkpt><trkpt lat="44.77372870117354" lon="9.937541375878263"><ele>335.0</ele><time>2026-05-02T10:49:05Z</time></trkpt><trkpt lat="44.773664409366575" lon="9.937508216211652"><ele>335.0</ele><time>2026-05-02T10:49:08Z</time></trkpt><trkpt lat="44.77358292667978" lon="9.937462421071176"><ele>335.0</ele><time>2026-05-02T10:49:10.999Z</time></trkpt><trkpt lat="44.773494909598824" lon="9.93741380561883"><ele>335.0</ele><time>2026-05-02T10:49:13.999Z</time></trkpt><trkpt lat="44.773430722342724" lon="9.937378080515309"><ele>335.0</ele><time>2026-05-02T10:49:15.999Z</time></trkpt><trkpt lat="44.77336624468877" lon="9.93733962027939"><ele>335.0</ele><time>2026-05-02T10:49:17.999Z</time></trkpt><trkpt lat="44.773285492639324" lon="9.937297558482484"><ele>335.1428571428571</ele><time>2026-05-02T10:49:20.999Z</time></trkpt><trkpt lat="44.77320792802619" lon="9.937261271109573"><ele>335.2857142857143</ele><time>2026-05-02T10:49:23.999Z</time></trkpt><trkpt lat="44.77313960533598" lon="9.937226881423054"><ele>335.42857142857144</ele><time>2026-05-02T10:49:26.999Z</time></trkpt><trkpt lat="44.77307401960007" lon="9.937190962890247"><ele>335.57142857142856</ele><time>2026-05-02T10:49:29.999Z</time></trkpt><trkpt lat="44.773012745075455" lon="9.937154033859493"><ele>335.7142857142857</ele><time>2026-05-02T10:49:32.999Z</time></trkpt><trkpt lat="44.772950091847235" lon="9.937115488486095"><ele>335.85714285714283</ele><time>2026-05-02T10:49:35.999Z</time></trkpt><trkpt lat="44.77287533001848" lon="9.937058993696644"><ele>336.0</ele><time>2026-05-02T10:49:39.999Z</time></trkpt><trkpt lat="44.77281652869495" lon="9.93702069721994"><ele>336.0</ele><time>2026-05-02T10:49:42.999Z</time></trkpt><trkpt lat="44.77275209100357" lon="9.93697686234978"><ele>336.0</ele><time>2026-05-02T10:49:45.999Z</time></trkpt><trkpt lat="44.77267991655103" lon="9.936937328405728"><ele>336.0</ele><time>2026-05-02T10:49:49.999Z</time></trkpt><trkpt lat="44.772615600977616" lon="9.93693586220208"><ele>336.0</ele><time>2026-05-02T10:49:52.999Z</time></trkpt><trkpt lat="44.772559351081114" lon="9.936975802175263"><ele>336.0</ele><time>2026-05-02T10:49:55.999Z</time></trkpt><trkpt lat="44.77253591088639" lon="9.937088286117124"><ele>336.0</ele><time>2026-05-02T10:49:59.999Z</time></trkpt><trkpt lat="44.77256014701866" lon="9.937185277804817"><ele>336.0</ele><time>2026-05-02T10:50:02.999Z</time></trkpt><trkpt lat="44.77262577269505" lon="9.937275822331825"><ele>336.0</ele><time>2026-05-02T10:50:05.998Z</time></trkpt><trkpt lat="44.77271578910858" lon="9.937353505161093"><ele>336.0</ele><time>2026-05-02T10:50:10Z</time></trkpt><trkpt lat="44.77277987052933" lon="9.93740265750808"><ele>336.0</ele><time>2026-05-02T10:50:13Z</time></trkpt><trkpt lat="44.77283867552663" lon="9.937473651452127"><ele>336.0</ele><time>2026-05-02T10:50:16Z</time></trkpt><trkpt lat="44.77282926309733" lon="9.937589747394327"><ele>336.0</ele><time>2026-05-02T10:50:20Z</time></trkpt><trkpt lat="44.772759212261526" lon="9.937609569861491"><ele>336.0</ele><time>2026-05-02T10:50:24Z</time></trkpt><trkpt lat="44.77269814549916" lon="9.937585785446851"><ele>338.5</ele><time>2026-05-02T10:50:27Z</time></trkpt><trkpt lat="44.772614362511874" lon="9.937551378085608"><ele>341.0</ele><time>2026-05-02T10:50:31Z</time></trkpt><trkpt lat="44.772536782484345" lon="9.937518245128869"><ele>343.5</ele><time>2026-05-02T10:50:35Z</time></trkpt><trkpt lat="44.772461873057196" lon="9.937483979441426"><ele>346.0</ele><time>2026-05-02T10:50:38Z</time></trkpt><trkpt lat="44.77238982546774" lon="9.93746654875489"><ele>348.5</ele><time>2026-05-02T10:50:42Z</time></trkpt><trkpt lat="44.77232435857714" lon="9.937440283716032"><ele>351.0</ele><time>2026-05-02T10:50:45Z</time></trkpt><trkpt lat="44.772258597674096" lon="9.937408099090138"><ele>351.00000000000006</ele><time>2026-05-02T10:50:48Z</time></trkpt><trkpt lat="44.772194027263055" lon="9.937375742129973"><ele>351.0</ele><time>2026-05-02T10:50:51Z</time></trkpt><trkpt lat="44.77212447223663" lon="9.937353675877352"><ele>351.0</ele><time>2026-05-02T10:50:54Z</time></trkpt><trkpt lat="44.7720554831126" lon="9.93733485478831"><ele>351.0</ele><time>2026-05-02T10:50:57Z</time></trkpt><trkpt lat="44.771993430875625" lon="9.937314390547513"><ele>351.0</ele><time>2026-05-02T10:51:00Z</time></trkpt><trkpt lat="44.771926538282074" lon="9.937286560456528"><ele>351.00000000000006</ele><time>2026-05-02T10:51:03Z</time></trkpt><trkpt lat="44.771859869114955" lon="9.937265669031646"><ele>351.0</ele><time>2026-05-02T10:51:06Z</time></trkpt><trkpt lat="44.77179529027259" lon="9.937247056354558"><ele>352.28571428571433</ele><time>2026-05-02T10:51:09Z</time></trkpt><trkpt lat="44.77172595159467" lon="9.937226701439345"><ele>353.57142857142856</ele><time>2026-05-02T10:51:12Z</time></trkpt><trkpt lat="44.771655551381805" lon="9.937210372237931"><ele>354.8571428571429</ele><time>2026-05-02T10:51:15.999Z</time></trkpt><trkpt lat="44.77158736646381" lon="9.937186616204418"><ele>356.14285714285717</ele><time>2026-05-02T10:51:18.999Z</time></trkpt><trkpt lat="44.771522777356644" lon="9.937167903250169"><ele>357.42857142857144</ele><time>2026-05-02T10:51:21.999Z</time></trkpt><trkpt lat="44.77144433106339" lon="9.937147452395122"><ele>358.7142857142857</ele><time>2026-05-02T10:51:24.999Z</time></trkpt><trkpt lat="44.77137237241613" lon="9.937123593187609"><ele>360.0</ele><time>2026-05-02T10:51:28.999Z</time></trkpt><trkpt lat="44.77130821960742" lon="9.937101498474153"><ele>360.0</ele><time>2026-05-02T10:51:31.999Z</time></trkpt><trkpt lat="44.77123764149101" lon="9.937095307152692"><ele>360.0</ele><time>2026-05-02T10:51:34.999Z</time></trkpt><trkpt lat="44.77117034233385" lon="9.937113668122018"><ele>360.0</ele><time>2026-05-02T10:51:37.999Z</time></trkpt><trkpt lat="44.77112302199906" lon="9.937180706515043"><ele>360.0</ele><time>2026-05-02T10:51:40.999Z</time></trkpt><trkpt lat="44.77111566386105" lon="9.937280867440187"><ele>360.0</ele><time>2026-05-02T10:51:43.999Z</time></trkpt><trkpt lat="44.77118016201882" lon="9.937352835765887"><ele>360.0</ele><time>2026-05-02T10:51:46.999Z</time></trkpt><trkpt lat="44.77125511569109" lon="9.937386634385245"><ele>360.0</ele><time>2026-05-02T10:51:50.999Z</time></trkpt><trkpt lat="44.7713233216941" lon="9.937414430285234"><ele>360.0</ele><time>2026-05-02T10:51:53.999Z</time></trkpt><trkpt lat="44.77139028216716" lon="9.937437604355972"><ele>360.0</ele><time>2026-05-02T10:51:56.999Z</time></trkpt><trkpt lat="44.77147159128343" lon="9.937467282064574"><ele>360.0</ele><time>2026-05-02T10:51:59.999Z</time></trkpt><trkpt lat="44.771558291869816" lon="9.937491126916175"><ele>360.0</ele><time>2026-05-02T10:52:03.999Z</time></trkpt><trkpt lat="44.77163157097704" lon="9.9375301917481"><ele>360.0</ele><time>2026-05-02T10:52:06.999Z</time></trkpt><trkpt lat="44.771661144500285" lon="9.937610138999752"><ele>360.0</ele><time>2026-05-02T10:52:09.998Z</time></trkpt><trkpt lat="44.771599902409854" lon="9.937642199588527"><ele>360.0</ele><time>2026-05-02T10:52:14Z</time></trkpt><trkpt lat="44.77151095349591" lon="9.937610082218207"><ele>362.57142857142856</ele><time>2026-05-02T10:52:18Z</time></trkpt><trkpt lat="44.771439711209595" lon="9.937588355486458"><ele>365.14285714285717</ele><time>2026-05-02T10:52:22Z</time></trkpt><trkpt lat="44.77136774648994" lon="9.937583553127196"><ele>367.7142857142857</ele><time>2026-05-02T10:52:25Z</time></trkpt><trkpt lat="44.771298109325244" lon="9.937596130360939"><ele>370.2857142857143</ele><time>2026-05-02T10:52:28Z</time></trkpt><trkpt lat="44.7712273399234" lon="9.937642415404666"><ele>372.8571428571429</ele><time>2026-05-02T10:52:31Z</time></trkpt><trkpt lat="44.771159373321545" lon="9.93770255987761"><ele>375.42857142857144</ele><time>2026-05-02T10:52:34Z</time></trkpt><trkpt lat="44.77110819315925" lon="9.93776053934545"><ele>378.0</ele><time>2026-05-02T10:52:37Z</time></trkpt><trkpt lat="44.771058367620014" lon="9.937827266020255"><ele>378.1666666666667</ele><time>2026-05-02T10:52:40Z</time></trkpt><trkpt lat="44.77100151374731" lon="9.937896008132176"><ele>378.3333333333333</ele><time>2026-05-02T10:52:43Z</time></trkpt><trkpt lat="44.77093804420406" lon="9.937962367777942"><ele>378.5</ele><time>2026-05-02T10:52:46Z</time></trkpt><trkpt lat="44.77085897899765" lon="9.938005500605442"><ele>378.66666666666663</ele><time>2026-05-02T10:52:49Z</time></trkpt><trkpt lat="44.77076645674386" lon="9.938002972386387"><ele>378.8333333333333</ele><time>2026-05-02T10:52:52Z</time></trkpt><trkpt lat="44.770705711141915" lon="9.937953772784239"><ele>379.0</ele><time>2026-05-02T10:52:55Z</time></trkpt><trkpt lat="44.77066293189155" lon="9.937886344654398"><ele>379.0</ele><time>2026-05-02T10:52:58Z</time></trkpt><trkpt lat="44.770623778768105" lon="9.937804484454835"><ele>379.0</ele><time>2026-05-02T10:53:01Z</time></trkpt><trkpt lat="44.77057929501218" lon="9.937721906305534"><ele>379.0</ele><time>2026-05-02T10:53:04Z</time></trkpt><trkpt lat="44.77052525289752" lon="9.937646249568411"><ele>379.0</ele><time>2026-05-02T10:53:07Z</time></trkpt><trkpt lat="44.77044924864628" lon="9.93760274364538"><ele>379.0</ele><time>2026-05-02T10:53:10Z</time></trkpt><trkpt lat="44.77036287782679" lon="9.937592428558476"><ele>379.0</ele><time>2026-05-02T10:53:13Z</time></trkpt><trkpt lat="44.770264985058205" lon="9.937637656036822"><ele>379.0</ele><time>2026-05-02T10:53:16Z</time></trkpt><trkpt lat="44.77020350797041" lon="9.93770987913292"><ele>379.0</ele><time>2026-05-02T10:53:18.999Z</time></trkpt><trkpt lat="44.770164433420035" lon="9.937813795506072"><ele>379.0</ele><time>2026-05-02T10:53:21.999Z</time></trkpt><trkpt lat="44.77014644745353" lon="9.937940505969719"><ele>379.0</ele><time>2026-05-02T10:53:23.999Z</time></trkpt><trkpt lat="44.77016000948412" lon="9.938029504000164"><ele>379.0</ele><time>2026-05-02T10:53:25.999Z</time></trkpt><trkpt lat="44.770205908853626" lon="9.938120420009497"><ele>379.0</ele><time>2026-05-02T10:53:28.999Z</time></trkpt><trkpt lat="44.77026260463755" lon="9.938205872371558"><ele>379.0</ele><time>2026-05-02T10:53:31.999Z</time></trkpt><trkpt lat="44.77031692857613" lon="9.938266975534278"><ele>379.0</ele><time>2026-05-02T10:53:33.999Z</time></trkpt><trkpt lat="44.770377993032625" lon="9.938321808869441"><ele>379.0</ele><time>2026-05-02T10:53:35.999Z</time></trkpt><trkpt lat="44.77044522388749" lon="9.938377745353197"><ele>379.0</ele><time>2026-05-02T10:53:38.999Z</time></trkpt><trkpt lat="44.77050881918813" lon="9.938438982284188"><ele>379.0</ele><time>2026-05-02T10:53:41.999Z</time></trkpt><trkpt lat="44.77058120750602" lon="9.938511128191514"><ele>379.0</ele><time>2026-05-02T10:53:45.999Z</time></trkpt><trkpt lat="44.77063660851016" lon="9.93856870267595"><ele>380.8333333333333</ele><time>2026-05-02T10:53:48.999Z</time></trkpt><trkpt lat="44.770706932013404" lon="9.938615565383955"><ele>382.66666666666663</ele><time>2026-05-02T10:53:52.999Z</time></trkpt><trkpt lat="44.77077565609066" lon="9.938666161709811"><ele>384.5</ele><time>2026-05-02T10:53:56.999Z</time></trkpt><trkpt lat="44.77083887988215" lon="9.938686375975566"><ele>386.3333333333333</ele><time>2026-05-02T10:53:58.999Z</time></trkpt><trkpt lat="44.770923083883936" lon="9.938692299609922"><ele>388.1666666666667</ele><time>2026-05-02T10:54:01.999Z</time></trkpt><trkpt lat="44.77100733159701" lon="9.938680905237252"><ele>390.0</ele><time>2026-05-02T10:54:04.999Z</time></trkpt><trkpt lat="44.77108855995904" lon="9.938653755849662"><ele>390.1428571428571</ele><time>2026-05-02T10:54:07.999Z</time></trkpt><trkpt lat="44.77116632413798" lon="9.938630978714128"><ele>390.2857142857143</ele><time>2026-05-02T10:54:10.999Z</time></trkpt><trkpt lat="44.771242560966314" lon="9.938605000872716"><ele>390.42857142857144</ele><time>2026-05-02T10:54:13.998Z</time></trkpt><trkpt lat="44.77130572816803" lon="9.938588463435376"><ele>390.57142857142856</ele><time>2026-05-02T10:54:16.998Z</time></trkpt><trkpt lat="44.77137521694307" lon="9.93858423873097"><ele>390.7142857142857</ele><time>2026-05-02T10:54:20Z</time></trkpt><trkpt lat="44.771444728489236" lon="9.938596137285725"><ele>390.85714285714283</ele><time>2026-05-02T10:54:23Z</time></trkpt><trkpt lat="44.77150890758022" lon="9.938631154852919"><ele>391.0</ele><time>2026-05-02T10:54:26Z</time></trkpt><trkpt lat="44.771572178449205" lon="9.938689751150529"><ele>390.99999999999994</ele><time>2026-05-02T10:54:29Z</time></trkpt><trkpt lat="44.77163432205882" lon="9.938781974571981"><ele>391.0</ele><time>2026-05-02T10:54:32Z</time></trkpt><trkpt lat="44.77167845449346" lon="9.938855280462226"><ele>391.0</ele><time>2026-05-02T10:54:35Z</time></trkpt><trkpt lat="44.77171698929945" lon="9.938939107243623"><ele>391.0</ele><time>2026-05-02T10:54:38Z</time></trkpt><trkpt lat="44.77173949825541" lon="9.939031530168378"><ele>391.0</ele><time>2026-05-02T10:54:41Z</time></trkpt><trkpt lat="44.77174394399949" lon="9.939134542252194"><ele>390.99999999999994</ele><time>2026-05-02T10:54:44Z</time></trkpt><trkpt lat="44.7717364989555" lon="9.939236570841015"><ele>391.0</ele><time>2026-05-02T10:54:47Z</time></trkpt><trkpt lat="44.77171394588338" lon="9.939336318817675"><ele>389.1428571428571</ele><time>2026-05-02T10:54:50Z</time></trkpt><trkpt lat="44.77169149073626" lon="9.93943907688141"><ele>387.2857142857143</ele><time>2026-05-02T10:54:53Z</time></trkpt><trkpt lat="44.77165669429654" lon="9.939525736322452"><ele>385.42857142857144</ele><time>2026-05-02T10:54:56Z</time></trkpt><trkpt lat="44.771595389738785" lon="9.939601834753551"><ele>383.57142857142856</ele><time>2026-05-02T10:55:00Z</time></trkpt><trkpt lat="44.77153612484945" lon="9.93964817417781"><ele>381.7142857142857</ele><time>2026-05-02T10:55:03Z</time></trkpt><trkpt lat="44.771468313877406" lon="9.939684558109366"><ele>379.85714285714283</ele><time>2026-05-02T10:55:06Z</time></trkpt><trkpt lat="44.771409414476025" lon="9.939717036544726"><ele>378.0</ele><time>2026-05-02T10:55:09Z</time></trkpt><trkpt lat="44.771349341558135" lon="9.939755180986594"><ele>378.0</ele><time>2026-05-02T10:55:12Z</time></trkpt><trkpt lat="44.77128301970406" lon="9.939794125701543"><ele>378.0</ele><time>2026-05-02T10:55:15Z</time></trkpt><trkpt lat="44.77122103965929" lon="9.939838856367173"><ele>378.0</ele><time>2026-05-02T10:55:18Z</time></trkpt><trkpt lat="44.77115854930812" lon="9.939884863951262"><ele>378.0</ele><time>2026-05-02T10:55:20.999Z</time></trkpt><trkpt lat="44.77108832088346" lon="9.939925892973097"><ele>378.0</ele><time>2026-05-02T10:55:23.999Z</time></trkpt><trkpt lat="44.77101092162662" lon="9.939979744504615"><ele>378.0</ele><time>2026-05-02T10:55:26.999Z</time></trkpt><trkpt lat="44.770957550954485" lon="9.940031820937744"><ele>378.0</ele><time>2026-05-02T10:55:29.999Z</time></trkpt><trkpt lat="44.77090050309726" lon="9.940082134804216"><ele>380.14285714285717</ele><time>2026-05-02T10:55:32.999Z</time></trkpt><trkpt lat="44.77084262684838" lon="9.940132242974173"><ele>382.2857142857143</ele><time>2026-05-02T10:55:35.999Z</time></trkpt><trkpt lat="44.7707780205104" lon="9.940182910201466"><ele>384.42857142857144</ele><time>2026-05-02T10:55:38.999Z</time></trkpt><trkpt lat="44.77071452322144" lon="9.940219505359181"><ele>386.57142857142856</ele><time>2026-05-02T10:55:41.999Z</time></trkpt><trkpt lat="44.77064673648744" lon="9.94025196549572"><ele>388.7142857142857</ele><time>2026-05-02T10:55:44.999Z</time></trkpt><trkpt lat="44.7705734721681" lon="9.940288236899983"><ele>390.8571428571429</ele><time>2026-05-02T10:55:47.999Z</time></trkpt><trkpt lat="44.770497975987354" lon="9.940313009238233"><ele>393.0</ele><time>2026-05-02T10:55:51.999Z</time></trkpt><trkpt lat="44.770429247215745" lon="9.940336664194671"><ele>393.00000000000006</ele><time>2026-05-02T10:55:54.999Z</time></trkpt><trkpt lat="44.77036477063926" lon="9.940377471257097"><ele>393.0</ele><time>2026-05-02T10:55:57.999Z</time></trkpt><trkpt lat="44.77029347827891" lon="9.940439850849543"><ele>393.0</ele><time>2026-05-02T10:56:00.999Z</time></trkpt><trkpt lat="44.77024282159253" lon="9.940504917655195"><ele>393.0</ele><time>2026-05-02T10:56:03.999Z</time></trkpt><trkpt lat="44.77019995269315" lon="9.94057128499833"><ele>393.0</ele><time>2026-05-02T10:56:05.999Z</time></trkpt><trkpt lat="44.770163742727945" lon="9.940649671220775"><ele>393.00000000000006</ele><time>2026-05-02T10:56:08.999Z</time></trkpt><trkpt lat="44.770129085854975" lon="9.940744764838447"><ele>393.0</ele><time>2026-05-02T10:56:11.999Z</time></trkpt><trkpt lat="44.77009525132236" lon="9.940830284663567"><ele>395.7142857142857</ele><time>2026-05-02T10:56:14.999Z</time></trkpt><trkpt lat="44.77006180642438" lon="9.940923162521557"><ele>398.42857142857144</ele><time>2026-05-02T10:56:17.998Z</time></trkpt><trkpt lat="44.770024899255084" lon="9.941008668336535"><ele>401.1428571428571</ele><time>2026-05-02T10:56:20.998Z</time></trkpt><trkpt lat="44.76999305628989" lon="9.941103060971757"><ele>403.8571428571429</ele><time>2026-05-02T10:56:24Z</time></trkpt><trkpt lat="44.769953696593504" lon="9.941191390832591"><ele>406.57142857142856</ele><time>2026-05-02T10:56:27Z</time></trkpt><trkpt lat="44.76991051677575" lon="9.941276318446777"><ele>409.2857142857143</ele><time>2026-05-02T10:56:30Z</time></trkpt><trkpt lat="44.76985945928474" lon="9.941354954374415"><ele>412.0</ele><time>2026-05-02T10:56:33Z</time></trkpt><trkpt lat="44.76980950839302" lon="9.941420237548785"><ele>412.00000000000006</ele><time>2026-05-02T10:56:36Z</time></trkpt><trkpt lat="44.76975364431806" lon="9.94148205053024"><ele>412.0</ele><time>2026-05-02T10:56:39Z</time></trkpt><trkpt lat="44.7696962135229" lon="9.941544075828608"><ele>412.0</ele><time>2026-05-02T10:56:42Z</time></trkpt><trkpt lat="44.76963262049298" lon="9.941601125370248"><ele>412.0</ele><time>2026-05-02T10:56:45Z</time></trkpt><trkpt lat="44.76956200937251" lon="9.941648834953423"><ele>412.00000000000006</ele><time>2026-05-02T10:56:48Z</time></trkpt><trkpt lat="44.769485354804644" lon="9.941681749346392"><ele>412.0</ele><time>2026-05-02T10:56:51Z</time></trkpt><trkpt lat="44.769397461709424" lon="9.941701810649406"><ele>412.4285714285714</ele><time>2026-05-02T10:56:54Z</time></trkpt><trkpt lat="44.76933038796164" lon="9.941707916932254"><ele>412.85714285714283</ele><time>2026-05-02T10:56:57Z</time></trkpt><trkpt lat="44.76925988275263" lon="9.941707984576812"><ele>413.2857142857143</ele><time>2026-05-02T10:57:00Z</time></trkpt><trkpt lat="44.769186269857556" lon="9.941698607235782"><ele>413.71428571428567</ele><time>2026-05-02T10:57:03Z</time></trkpt><trkpt lat="44.769114235443304" lon="9.941682002922638"><ele>414.14285714285717</ele><time>2026-05-02T10:57:06Z</time></trkpt><trkpt lat="44.76904131220188" lon="9.941658106038387"><ele>414.57142857142856</ele><time>2026-05-02T10:57:09Z</time></trkpt><trkpt lat="44.768970341066215" lon="9.94162486782299"><ele>415.0</ele><time>2026-05-02T10:57:12Z</time></trkpt><trkpt lat="44.76890111632675" lon="9.941588341322358"><ele>415.0</ele><time>2026-05-02T10:57:15Z</time></trkpt><trkpt lat="44.768817533870994" lon="9.94153642996557"><ele>415.0</ele><time>2026-05-02T10:57:18Z</time></trkpt><trkpt lat="44.768763159786516" lon="9.9414916419052"><ele>415.0</ele><time>2026-05-02T10:57:21Z</time></trkpt><trkpt lat="44.76871040467434" lon="9.941428213135145"><ele>415.0</ele><time>2026-05-02T10:57:23.999Z</time></trkpt><trkpt lat="44.768669677692884" lon="9.94134755452111"><ele>415.0</ele><time>2026-05-02T10:57:26.999Z</time></trkpt><trkpt lat="44.76864454500826" lon="9.941250986871147"><ele>415.0</ele><time>2026-05-02T10:57:28.999Z</time></trkpt><trkpt lat="44.76862097207042" lon="9.94114524143112"><ele>415.0</ele><time>2026-05-02T10:57:31.999Z</time></trkpt><trkpt lat="44.76859711144438" lon="9.941047292530612"><ele>415.0</ele><time>2026-05-02T10:57:34.999Z</time></trkpt><trkpt lat="44.76857363570619" lon="9.940942771505762"><ele>415.0</ele><time>2026-05-02T10:57:37.999Z</time></trkpt><trkpt lat="44.76854670106113" lon="9.940841741747777"><ele>415.0</ele><time>2026-05-02T10:57:40.999Z</time></trkpt><trkpt lat="44.7685048775598" lon="9.940751425500869"><ele>415.0</ele><time>2026-05-02T10:57:43.999Z</time></trkpt><trkpt lat="44.76845524315045" lon="9.940676058887131"><ele>415.0</ele><time>2026-05-02T10:57:46.999Z</time></trkpt><trkpt lat="44.76840971472778" lon="9.940608398677947"><ele>415.0</ele><time>2026-05-02T10:57:49.999Z</time></trkpt><trkpt lat="44.76835690980599" lon="9.940554557294446"><ele>415.0</ele><time>2026-05-02T10:57:52.999Z</time></trkpt><trkpt lat="44.76828703958732" lon="9.940500417931634"><ele>416.6666666666667</ele><time>2026-05-02T10:57:56.999Z</time></trkpt><trkpt lat="44.768217230882556" lon="9.940447097881377"><ele>418.33333333333337</ele><time>2026-05-02T10:57:59.999Z</time></trkpt><trkpt lat="44.76813265292909" lon="9.940396913033378"><ele>420.0</ele><time>2026-05-02T10:58:02.999Z</time></trkpt><trkpt lat="44.768063226014654" lon="9.940366012894641"><ele>421.66666666666663</ele><time>2026-05-02T10:58:05.999Z</time></trkpt><trkpt lat="44.7679987535216" lon="9.94034079108901"><ele>423.3333333333333</ele><time>2026-05-02T10:58:07.999Z</time></trkpt><trkpt lat="44.76792715574789" lon="9.940319632031906"><ele>425.0</ele><time>2026-05-02T10:58:10.999Z</time></trkpt><trkpt lat="44.76785037909597" lon="9.940310828178253"><ele>424.99999999999994</ele><time>2026-05-02T10:58:13.999Z</time></trkpt><trkpt lat="44.767780035550125" lon="9.940310463189604"><ele>425.0</ele><time>2026-05-02T10:58:15.999Z</time></trkpt><trkpt lat="44.76770071774125" lon="9.940318675643443"><ele>425.0</ele><time>2026-05-02T10:58:18.998Z</time></trkpt><trkpt lat="44.7676268247417" lon="9.940327097103804"><ele>425.0</ele><time>2026-05-02T10:58:21.998Z</time></trkpt><trkpt lat="44.76755081301512" lon="9.940340253148095"><ele>424.99999999999994</ele><time>2026-05-02T10:58:24.998Z</time></trkpt><trkpt lat="44.76747973313782" lon="9.940356427568203"><ele>425.0</ele><time>2026-05-02T10:58:27.998Z</time></trkpt><trkpt lat="44.76740013584305" lon="9.940375656621578"><ele>425.66666666666663</ele><time>2026-05-02T10:58:31Z</time></trkpt><trkpt lat="44.7673163727183" lon="9.940393325883365"><ele>426.3333333333333</ele><time>2026-05-02T10:58:34Z</time></trkpt><trkpt lat="44.767233914909816" lon="9.940406117245315"><ele>427.0</ele><time>2026-05-02T10:58:37Z</time></trkpt><trkpt lat="44.767153573328514" lon="9.940422678288593"><ele>427.66666666666663</ele><time>2026-05-02T10:58:40Z</time></trkpt><trkpt lat="44.76707159975818" lon="9.940434884881114"><ele>428.3333333333333</ele><time>2026-05-02T10:58:43Z</time></trkpt><trkpt lat="44.76698644290051" lon="9.940454561017779"><ele>429.0</ele><time>2026-05-02T10:58:46Z</time></trkpt><trkpt lat="44.76690590251889" lon="9.940471354504526"><ele>429.42857142857144</ele><time>2026-05-02T10:58:49Z</time></trkpt><trkpt lat="44.766841419176885" lon="9.940487104280237"><ele>429.8571428571429</ele><time>2026-05-02T10:58:51Z</time></trkpt><trkpt lat="44.766772042047016" lon="9.940508991103712"><ele>430.2857142857143</ele><time>2026-05-02T10:58:54Z</time></trkpt><trkpt lat="44.766706859602756" lon="9.940529457180597"><ele>430.7142857142857</ele><time>2026-05-02T10:58:56Z</time></trkpt><trkpt lat="44.76663486907848" lon="9.940554471601422"><ele>431.1428571428571</ele><time>2026-05-02T10:58:59Z</time></trkpt><trkpt lat="44.76656679289137" lon="9.940583019711102"><ele>431.57142857142856</ele><time>2026-05-02T10:59:02Z</time></trkpt><trkpt lat="44.76648757048056" lon="9.940611590831315"><ele>432.0</ele><time>2026-05-02T10:59:05Z</time></trkpt><trkpt lat="44.7664177543981" lon="9.940646447700264"><ele>432.0</ele><time>2026-05-02T10:59:08Z</time></trkpt><trkpt lat="44.766356250910285" lon="9.940674218859492"><ele>432.0</ele><time>2026-05-02T10:59:10Z</time></trkpt><trkpt lat="44.76628223529823" lon="9.940704760156136"><ele>432.0</ele><time>2026-05-02T10:59:13Z</time></trkpt><trkpt lat="44.76621509216854" lon="9.940733100855793"><ele>432.0</ele><time>2026-05-02T10:59:16Z</time></trkpt><trkpt lat="44.76614310680018" lon="9.940760796090204"><ele>432.0</ele><time>2026-05-02T10:59:19Z</time></trkpt><trkpt lat="44.76607285110586" lon="9.940786005829022"><ele>432.0</ele><time>2026-05-02T10:59:22Z</time></trkpt><trkpt lat="44.7659989189822" lon="9.940820481010414"><ele>432.0</ele><time>2026-05-02T10:59:25Z</time></trkpt><trkpt lat="44.76592364226321" lon="9.940860429939306"><ele>432.0</ele><time>2026-05-02T10:59:27.999Z</time></trkpt><trkpt lat="44.7658450084303" lon="9.940886836189724"><ele>432.0</ele><time>2026-05-02T10:59:30.999Z</time></trkpt><trkpt lat="44.76575637290762" lon="9.940931737649484"><ele>432.0</ele><time>2026-05-02T10:59:33.999Z</time></trkpt><trkpt lat="44.76569350295035" lon="9.940962171773561"><ele>432.0</ele><time>2026-05-02T10:59:36.999Z</time></trkpt><trkpt lat="44.76563503779457" lon="9.940996148657158"><ele>432.0</ele><time>2026-05-02T10:59:38.999Z</time></trkpt><trkpt lat="44.76556165517611" lon="9.94104757185271"><ele>432.0</ele><time>2026-05-02T10:59:42.999Z</time></trkpt><trkpt lat="44.765494225075585" lon="9.941093341606503"><ele>432.0</ele><time>2026-05-02T10:59:45.999Z</time></trkpt><trkpt lat="44.76542627050437" lon="9.941142924054045"><ele>432.0</ele><time>2026-05-02T10:59:48.999Z</time></trkpt><trkpt lat="44.76535895348185" lon="9.941195271653728"><ele>432.0</ele><time>2026-05-02T10:59:51.999Z</time></trkpt><trkpt lat="44.76528115900129" lon="9.9412533421276"><ele>432.0</ele><time>2026-05-02T10:59:54.999Z</time></trkpt><trkpt lat="44.76522044018261" lon="9.941303022840607"><ele>432.0</ele><time>2026-05-02T10:59:57.999Z</time></trkpt><trkpt lat="44.76515537330228" lon="9.941350148805398"><ele>432.0</ele><time>2026-05-02T11:00:00.999Z</time></trkpt><trkpt lat="44.76508873682625" lon="9.94139366788209"><ele>432.85714285714283</ele><time>2026-05-02T11:00:03.999Z</time></trkpt><trkpt lat="44.76502529018968" lon="9.941440924459723"><ele>433.71428571428567</ele><time>2026-05-02T11:00:06.999Z</time></trkpt><trkpt lat="44.764960980757" lon="9.941479313207527"><ele>434.57142857142856</ele><time>2026-05-02T11:00:09.999Z</time></trkpt><trkpt lat="44.764902473795715" lon="9.941531729215965"><ele>435.42857142857144</ele><time>2026-05-02T11:00:12.999Z</time></trkpt><trkpt lat="44.76483329035983" lon="9.941594225810373"><ele>436.2857142857143</ele><time>2026-05-02T11:00:16.999Z</time></trkpt><trkpt lat="44.76477072248282" lon="9.94164496339134"><ele>437.14285714285717</ele><time>2026-05-02T11:00:19.999Z</time></trkpt><trkpt lat="44.764698023135644" lon="9.941694285191515"><ele>438.0</ele><time>2026-05-02T11:00:23.998Z</time></trkpt><trkpt lat="44.764639483953815" lon="9.941740831420812"><ele>438.0</ele><time>2026-05-02T11:00:26.998Z</time></trkpt><trkpt lat="44.76457140956069" lon="9.941797313954027"><ele>438.0</ele><time>2026-05-02T11:00:29.998Z</time></trkpt><trkpt lat="44.76450595491829" lon="9.941847529488058"><ele>438.0</ele><time>2026-05-02T11:00:33.998Z</time></trkpt><trkpt lat="44.76444680526523" lon="9.941896347061538"><ele>438.0</ele><time>2026-05-02T11:00:37Z</time></trkpt><trkpt lat="44.76437288716636" lon="9.941950327570119"><ele>438.0</ele><time>2026-05-02T11:00:40Z</time></trkpt><trkpt lat="44.76431032479016" lon="9.94199554052531"><ele>438.0</ele><time>2026-05-02T11:00:44Z</time></trkpt><trkpt lat="44.764251519681835" lon="9.942040352076662"><ele>438.0</ele><time>2026-05-02T11:00:47Z</time></trkpt><trkpt lat="44.76418365981252" lon="9.942092036685391"><ele>440.42857142857144</ele><time>2026-05-02T11:00:50Z</time></trkpt><trkpt lat="44.76412633975117" lon="9.942148220737797"><ele>442.85714285714283</ele><time>2026-05-02T11:00:54Z</time></trkpt><trkpt lat="44.764069658219434" lon="9.942199479115146"><ele>445.2857142857143</ele><time>2026-05-02T11:00:57Z</time></trkpt><trkpt lat="44.76400591785704" lon="9.942258798696098"><ele>447.7142857142857</ele><time>2026-05-02T11:01:00Z</time></trkpt><trkpt lat="44.76394774366952" lon="9.942305675746038"><ele>450.1428571428571</ele><time>2026-05-02T11:01:03Z</time></trkpt><trkpt lat="44.763885421144934" lon="9.942371463142708"><ele>452.57142857142856</ele><time>2026-05-02T11:01:07Z</time></trkpt><trkpt lat="44.76383145386074" lon="9.942425645369761"><ele>455.0</ele><time>2026-05-02T11:01:10Z</time></trkpt><trkpt lat="44.76376660648624" lon="9.942488653513674"><ele>455.0</ele><time>2026-05-02T11:01:13Z</time></trkpt><trkpt lat="44.76370638292982" lon="9.942542521088408"><ele>455.0</ele><time>2026-05-02T11:01:17Z</time></trkpt><trkpt lat="44.763647557002265" lon="9.94258281859428"><ele>455.0</ele><time>2026-05-02T11:01:20Z</time></trkpt><trkpt lat="44.76358555268322" lon="9.942620935490126"><ele>455.0</ele><time>2026-05-02T11:01:23Z</time></trkpt><trkpt lat="44.7635234129365" lon="9.94265105776285"><ele>455.0</ele><time>2026-05-02T11:01:26Z</time></trkpt><trkpt lat="44.76344584527051" lon="9.942684207564056"><ele>455.0</ele><time>2026-05-02T11:01:29.999Z</time></trkpt><trkpt lat="44.76338418565608" lon="9.942710419057988"><ele>455.0</ele><time>2026-05-02T11:01:32.999Z</time></trkpt><trkpt lat="44.76330445172608" lon="9.942730861950732"><ele>456.49999999999994</ele><time>2026-05-02T11:01:36.999Z</time></trkpt><trkpt lat="44.76322553793002" lon="9.942720267652618"><ele>458.0</ele><time>2026-05-02T11:01:40.999Z</time></trkpt><trkpt lat="44.76318145483279" lon="9.942656708828528"><ele>459.5</ele><time>2026-05-02T11:01:43.999Z</time></trkpt><trkpt lat="44.76316948053585" lon="9.942549616371366"><ele>461.0</ele><time>2026-05-02T11:01:47.999Z</time></trkpt><trkpt lat="44.763198476050704" lon="9.942427154082521"><ele>462.49999999999994</ele><time>2026-05-02T11:01:51.999Z</time></trkpt><trkpt lat="44.763230714854814" lon="9.942330021097126"><ele>464.0</ele><time>2026-05-02T11:01:55.999Z</time></trkpt><trkpt lat="44.76327170573275" lon="9.942237161620259"><ele>464.3333333333333</ele><time>2026-05-02T11:01:58.999Z</time></trkpt><trkpt lat="44.76331002630769" lon="9.942152206227917"><ele>464.66666666666663</ele><time>2026-05-02T11:02:01.999Z</time></trkpt><trkpt lat="44.763352078098265" lon="9.94205047215627"><ele>465.0</ele><time>2026-05-02T11:02:05.999Z</time></trkpt><trkpt lat="44.763391610986076" lon="9.941968894466507"><ele>465.33333333333337</ele><time>2026-05-02T11:02:08.999Z</time></trkpt><trkpt lat="44.763424683434735" lon="9.941892294489193"><ele>465.6666666666667</ele><time>2026-05-02T11:02:12.999Z</time></trkpt><trkpt lat="44.76347158303091" lon="9.941785134998499"><ele>466.0</ele><time>2026-05-02T11:02:16.999Z</time></trkpt><trkpt lat="44.7635166172117" lon="9.941690727932706"><ele>465.28571428571433</ele><time>2026-05-02T11:02:20.999Z</time></trkpt><trkpt lat="44.76355968719955" lon="9.941614985693418"><ele>464.57142857142856</ele><time>2026-05-02T11:02:23.998Z</time></trkpt><trkpt lat="44.763611675410395" lon="9.941533679081019"><ele>463.8571428571429</ele><time>2026-05-02T11:02:26.998Z</time></trkpt><trkpt lat="44.76365655606369" lon="9.941449459186186"><ele>463.14285714285717</ele><time>2026-05-02T11:02:30.998Z</time></trkpt><trkpt lat="44.7637005460824" lon="9.941369876275239"><ele>462.42857142857144</ele><time>2026-05-02T11:02:33.998Z</time></trkpt><trkpt lat="44.763749296115655" lon="9.941279145877452"><ele>461.7142857142857</ele><time>2026-05-02T11:02:36.998Z</time></trkpt><trkpt lat="44.76379442176561" lon="9.9411950668531"><ele>461.0</ele><time>2026-05-02T11:02:41Z</time></trkpt><trkpt lat="44.76383842204366" lon="9.941117378903185"><ele>460.99999999999994</ele><time>2026-05-02T11:02:44Z</time></trkpt><trkpt lat="44.76388334483621" lon="9.941024540224989"><ele>461.0</ele><time>2026-05-02T11:02:47Z</time></trkpt><trkpt lat="44.76392091593476" lon="9.940930445383314"><ele>461.0</ele><time>2026-05-02T11:02:51Z</time></trkpt><trkpt lat="44.76395482753497" lon="9.94083981426008"><ele>461.0</ele><time>2026-05-02T11:02:54Z</time></trkpt><trkpt lat="44.76398660800304" lon="9.940742759667875"><ele>460.99999999999994</ele><time>2026-05-02T11:02:57Z</time></trkpt><trkpt lat="44.764005693813715" lon="9.940631165069204"><ele>461.0</ele><time>2026-05-02T11:03:00Z</time></trkpt><trkpt lat="44.76398618759794" lon="9.940502820943301"><ele>462.66666666666663</ele><time>2026-05-02T11:03:04Z</time></trkpt><trkpt lat="44.76391579071155" lon="9.940452568922376"><ele>464.3333333333333</ele><time>2026-05-02T11:03:07Z</time></trkpt><trkpt lat="44.763839812963354" lon="9.940495483686206"><ele>466.0</ele><time>2026-05-02T11:03:10Z</time></trkpt><trkpt lat="44.76379452757832" lon="9.940579383735338"><ele>467.66666666666663</ele><time>2026-05-02T11:03:13Z</time></trkpt><trkpt lat="44.763746450681936" lon="9.940675376204005"><ele>469.3333333333333</ele><time>2026-05-02T11:03:17Z</time></trkpt><trkpt lat="44.763703337091385" lon="9.94075504506317"><ele>471.0</ele><time>2026-05-02T11:03:20Z</time></trkpt><trkpt lat="44.76364529306795" lon="9.940823828388973"><ele>471.00000000000006</ele><time>2026-05-02T11:03:23Z</time></trkpt><trkpt lat="44.76358702863387" lon="9.940879031784105"><ele>471.0</ele><time>2026-05-02T11:03:26Z</time></trkpt><trkpt lat="44.763514540276226" lon="9.940934543219802"><ele>471.00000000000006</ele><time>2026-05-02T11:03:29Z</time></trkpt><trkpt lat="44.763454992208935" lon="9.9409684665625"><ele>471.00000000000006</ele><time>2026-05-02T11:03:32Z</time></trkpt><trkpt lat="44.76339649028875" lon="9.941002770292593"><ele>471.0</ele><time>2026-05-02T11:03:34.999Z</time></trkpt><trkpt lat="44.76333243895325" lon="9.941039148600987"><ele>471.00000000000006</ele><time>2026-05-02T11:03:37.999Z</time></trkpt><trkpt lat="44.76326746249221" lon="9.94108033997392"><ele>471.00000000000006</ele><time>2026-05-02T11:03:40.999Z</time></trkpt><trkpt lat="44.763190673024724" lon="9.94112369051817"><ele>472.00000000000006</ele><time>2026-05-02T11:03:43.999Z</time></trkpt><trkpt lat="44.76312740415924" lon="9.941140841288522"><ele>473.0</ele><time>2026-05-02T11:03:46.999Z</time></trkpt><trkpt lat="44.76306120171765" lon="9.941136216474991"><ele>474.00000000000006</ele><time>2026-05-02T11:03:49.999Z</time></trkpt><trkpt lat="44.762997206453" lon="9.94111512577036"><ele>475.00000000000006</ele><time>2026-05-02T11:03:52.999Z</time></trkpt><trkpt lat="44.76292176757378" lon="9.9410764969252"><ele>476.0</ele><time>2026-05-02T11:03:55.999Z</time></trkpt><trkpt lat="44.762845550900785" lon="9.941039298308448"><ele>477.00000000000006</ele><time>2026-05-02T11:03:58.999Z</time></trkpt><trkpt lat="44.76276693309135" lon="9.941008580182386"><ele>478.00000000000006</ele><time>2026-05-02T11:04:01.999Z</time></trkpt><trkpt lat="44.76269185196118" lon="9.941017530234022"><ele>480.1666666666667</ele><time>2026-05-02T11:04:04.999Z</time></trkpt><trkpt lat="44.76262025151159" lon="9.941052914515618"><ele>482.33333333333337</ele><time>2026-05-02T11:04:07.999Z</time></trkpt><trkpt lat="44.76255710920939" lon="9.94111079077646"><ele>484.5</ele><time>2026-05-02T11:04:10.999Z</time></trkpt><trkpt lat="44.76249767370671" lon="9.941176668281097"><ele>486.66666666666663</ele><time>2026-05-02T11:04:13.999Z</time></trkpt><trkpt lat="44.76243939131819" lon="9.941258704172691"><ele>488.8333333333333</ele><time>2026-05-02T11:04:16.999Z</time></trkpt><trkpt lat="44.76238574045733" lon="9.941346543077298"><ele>491.0</ele><time>2026-05-02T11:04:19.999Z</time></trkpt><trkpt lat="44.76233568732755" lon="9.941430357516838"><ele>491.0</ele><time>2026-05-02T11:04:22.999Z</time></trkpt><trkpt lat="44.7622730962088" lon="9.941509263804656"><ele>490.99999999999994</ele><time>2026-05-02T11:04:25.999Z</time></trkpt><trkpt lat="44.762213475321154" lon="9.941559896848808"><ele>491.0</ele><time>2026-05-02T11:04:28.998Z</time></trkpt><trkpt lat="44.762142130964875" lon="9.941597737966589"><ele>491.0</ele><time>2026-05-02T11:04:31.998Z</time></trkpt><trkpt lat="44.76207045152986" lon="9.94161311363823"><ele>490.99999999999994</ele><time>2026-05-02T11:04:34.998Z</time></trkpt><trkpt lat="44.76199637199438" lon="9.94161400619922"><ele>491.0</ele><time>2026-05-02T11:04:37.998Z</time></trkpt><trkpt lat="44.76192746657057" lon="9.941611631692382"><ele>491.0</ele><time>2026-05-02T11:04:40.998Z</time></trkpt><trkpt lat="44.761851861785004" lon="9.9416145565518"><ele>491.66666666666663</ele><time>2026-05-02T11:04:43.998Z</time></trkpt><trkpt lat="44.76178225987155" lon="9.941619571976531"><ele>492.3333333333333</ele><time>2026-05-02T11:04:47Z</time></trkpt><trkpt lat="44.761692897671175" lon="9.941640971622157"><ele>493.0</ele><time>2026-05-02T11:04:50Z</time></trkpt><trkpt lat="44.76161589840339" lon="9.941676837073162"><ele>493.66666666666663</ele><time>2026-05-02T11:04:53Z</time></trkpt><trkpt lat="44.761545463161184" lon="9.941721287609507"><ele>494.3333333333333</ele><time>2026-05-02T11:04:56Z</time></trkpt><trkpt lat="44.761474559066436" lon="9.94177177718991"><ele>495.0</ele><time>2026-05-02T11:04:59Z</time></trkpt><trkpt lat="44.76141472508314" lon="9.941824879090504"><ele>495.0</ele><time>2026-05-02T11:05:02Z</time></trkpt><trkpt lat="44.761362118305435" lon="9.941899556407073"><ele>495.0</ele><time>2026-05-02T11:05:05Z</time></trkpt><trkpt lat="44.761305637715914" lon="9.941972130149"><ele>495.0</ele><time>2026-05-02T11:05:08Z</time></trkpt><trkpt lat="44.76125451758919" lon="9.94205003800372"><ele>495.0</ele><time>2026-05-02T11:05:10Z</time></trkpt><trkpt lat="44.76120434860379" lon="9.942143405661035"><ele>495.0</ele><time>2026-05-02T11:05:13Z</time></trkpt><trkpt lat="44.761155723523366" lon="9.942232475775805"><ele>495.0</ele><time>2026-05-02T11:05:16Z</time></trkpt><trkpt lat="44.76110651925465" lon="9.94231486201707"><ele>495.0</ele><time>2026-05-02T11:05:19Z</time></trkpt><trkpt lat="44.761060972913945" lon="9.942404336779436"><ele>495.0</ele><time>2026-05-02T11:05:22Z</time></trkpt><trkpt lat="44.76101904182059" lon="9.942495880489789"><ele>495.0</ele><time>2026-05-02T11:05:25Z</time></trkpt><trkpt lat="44.76097897898416" lon="9.942587880504785"><ele>495.0</ele><time>2026-05-02T11:05:28Z</time></trkpt><trkpt lat="44.760951172341706" lon="9.942688165149592"><ele>495.0</ele><time>2026-05-02T11:05:31Z</time></trkpt><trkpt lat="44.76094521547002" lon="9.942779002111921"><ele>495.0</ele><time>2026-05-02T11:05:34Z</time></trkpt><trkpt lat="44.76094350916218" lon="9.94288714030985"><ele>494.8333333333333</ele><time>2026-05-02T11:05:37Z</time></trkpt><trkpt lat="44.76096298398858" lon="9.942988654420269"><ele>494.66666666666663</ele><time>2026-05-02T11:05:39.999Z</time></trkpt><trkpt lat="44.76099323534099" lon="9.943101111285667"><ele>494.5</ele><time>2026-05-02T11:05:42.999Z</time></trkpt><trkpt lat="44.761024311923634" lon="9.943229891327295"><ele>494.3333333333333</ele><time>2026-05-02T11:05:45.999Z</time></trkpt><trkpt lat="44.76103761112489" lon="9.943341857155586"><ele>494.16666666666663</ele><time>2026-05-02T11:05:48.999Z</time></trkpt><trkpt lat="44.76103582435033" lon="9.943469044197382"><ele>494.0</ele><time>2026-05-02T11:05:51.999Z</time></trkpt><trkpt lat="44.76103030051206" lon="9.943561927637603"><ele>496.66666666666663</ele><time>2026-05-02T11:05:53.999Z</time></trkpt><trkpt lat="44.76101645983091" lon="9.943684384162038"><ele>499.3333333333333</ele><time>2026-05-02T11:05:56.999Z</time></trkpt><trkpt lat="44.76099855988733" lon="9.94380710056871"><ele>502.0</ele><time>2026-05-02T11:05:59.999Z</time></trkpt><trkpt lat="44.76096419671775" lon="9.943921485616135"><ele>504.66666666666663</ele><time>2026-05-02T11:06:02.999Z</time></trkpt><trkpt lat="44.760898345200545" lon="9.943999416317649"><ele>507.3333333333333</ele><time>2026-05-02T11:06:05.999Z</time></trkpt><trkpt lat="44.760816446989466" lon="9.943999315981312"><ele>510.0</ele><time>2026-05-02T11:06:08.999Z</time></trkpt><trkpt lat="44.76075518903267" lon="9.943913030266748"><ele>510.0</ele><time>2026-05-02T11:06:11.999Z</time></trkpt><trkpt lat="44.760719315813226" lon="9.943818448168035"><ele>510.0</ele><time>2026-05-02T11:06:14.999Z</time></trkpt><trkpt lat="44.76069403870123" lon="9.943719460688072"><ele>510.0</ele><time>2026-05-02T11:06:17.999Z</time></trkpt><trkpt lat="44.76066970090899" lon="9.943614080557197"><ele>510.0</ele><time>2026-05-02T11:06:20.999Z</time></trkpt><trkpt lat="44.760647919759336" lon="9.943509211457277"><ele>510.0</ele><time>2026-05-02T11:06:23.999Z</time></trkpt><trkpt lat="44.760624141223374" lon="9.943406235482598"><ele>510.0</ele><time>2026-05-02T11:06:26.999Z</time></trkpt><trkpt lat="44.760596772826595" lon="9.943303460256036"><ele>510.8333333333333</ele><time>2026-05-02T11:06:29.999Z</time></trkpt><trkpt lat="44.760570986071365" lon="9.943221786542477"><ele>511.66666666666663</ele><time>2026-05-02T11:06:32.998Z</time></trkpt><trkpt lat="44.760537329782615" lon="9.943124710514075"><ele>512.5</ele><time>2026-05-02T11:06:35.998Z</time></trkpt><trkpt lat="44.7604978799779" lon="9.943024660871956"><ele>513.3333333333333</ele><time>2026-05-02T11:06:38.998Z</time></trkpt><trkpt lat="44.76045299917422" lon="9.942930861389492"><ele>514.1666666666666</ele><time>2026-05-02T11:06:41.998Z</time></trkpt><trkpt lat="44.76039670380961" lon="9.942829975184653"><ele>515.0</ele><time>2026-05-02T11:06:44.998Z</time></trkpt><trkpt lat="44.76035403159424" lon="9.942747768661409"><ele>515.0</ele><time>2026-05-02T11:06:47.998Z</time></trkpt><trkpt lat="44.7603140030765" lon="9.942645774626198"><ele>515.0</ele><time>2026-05-02T11:06:50.998Z</time></trkpt><trkpt lat="44.7602978670709" lon="9.942532828708547"><ele>515.0</ele><time>2026-05-02T11:06:54Z</time></trkpt><trkpt lat="44.76030310888672" lon="9.94244182569771"><ele>515.0</ele><time>2026-05-02T11:06:56Z</time></trkpt><trkpt lat="44.76031716182938" lon="9.942332380578357"><ele>515.0</ele><time>2026-05-02T11:06:59Z</time></trkpt><trkpt lat="44.760328956217506" lon="9.942243581252175"><ele>515.0</ele><time>2026-05-02T11:07:01Z</time></trkpt><trkpt lat="44.76034676502489" lon="9.94213244555727"><ele>515.0</ele><time>2026-05-02T11:07:04Z</time></trkpt><trkpt lat="44.760362533830644" lon="9.942031503203657"><ele>515.0</ele><time>2026-05-02T11:07:06Z</time></trkpt><trkpt lat="44.76038280153924" lon="9.94193111201531"><ele>515.0</ele><time>2026-05-02T11:07:09Z</time></trkpt><trkpt lat="44.76040356686343" lon="9.941823821562872"><ele>515.0</ele><time>2026-05-02T11:07:12Z</time></trkpt><trkpt lat="44.76042694708583" lon="9.941715107800523"><ele>515.0</ele><time>2026-05-02T11:07:15Z</time></trkpt><trkpt lat="44.76044743916625" lon="9.941617069170361"><ele>515.0</ele><time>2026-05-02T11:07:17Z</time></trkpt><trkpt lat="44.76046542817035" lon="9.941527139280542"><ele>515.0</ele><time>2026-05-02T11:07:20Z</time></trkpt><trkpt lat="44.760484589502134" lon="9.94143682537488"><ele>515.0</ele><time>2026-05-02T11:07:22Z</time></trkpt><trkpt lat="44.76051196576453" lon="9.941321547524156"><ele>515.0</ele><time>2026-05-02T11:07:25Z</time></trkpt><trkpt lat="44.760545495626715" lon="9.941211170084543"><ele>515.0</ele><time>2026-05-02T11:07:28Z</time></trkpt><trkpt lat="44.76058308244611" lon="9.941101808198916"><ele>515.0</ele><time>2026-05-02T11:07:31Z</time></trkpt><trkpt lat="44.76061834391705" lon="9.940999690138812"><ele>515.0</ele><time>2026-05-02T11:07:34Z</time></trkpt><trkpt lat="44.76067475522509" lon="9.940918948990303"><ele>515.0</ele><time>2026-05-02T11:07:37Z</time></trkpt><trkpt lat="44.760725525001014" lon="9.940839850432669"><ele>516.5714285714286</ele><time>2026-05-02T11:07:40Z</time></trkpt><trkpt lat="44.76077130244567" lon="9.940760116543409"><ele>518.1428571428571</ele><time>2026-05-02T11:07:42.999Z</time></trkpt><trkpt lat="44.7608220401852" lon="9.940678357957426"><ele>519.7142857142857</ele><time>2026-05-02T11:07:45.999Z</time></trkpt><trkpt lat="44.76086675985685" lon="9.940610275020715"><ele>521.2857142857142</ele><time>2026-05-02T11:07:48.999Z</time></trkpt><trkpt lat="44.76091353629864" lon="9.940533647779828"><ele>522.8571428571428</ele><time>2026-05-02T11:07:51.999Z</time></trkpt><trkpt lat="44.760965411201" lon="9.940438332678982"><ele>524.4285714285714</ele><time>2026-05-02T11:07:54.999Z</time></trkpt><trkpt lat="44.76099762052467" lon="9.940358246744662"><ele>526.0</ele><time>2026-05-02T11:07:57.999Z</time></trkpt><trkpt lat="44.76101849415389" lon="9.940272373527947"><ele>526.0</ele><time>2026-05-02T11:08:00.999Z</time></trkpt><trkpt lat="44.761006591144444" lon="9.940176663183848"><ele>526.0</ele><time>2026-05-02T11:08:03.999Z</time></trkpt><trkpt lat="44.76095601196781" lon="9.940109369604546"><ele>526.0</ele><time>2026-05-02T11:08:06.999Z</time></trkpt><trkpt lat="44.76088209309868" lon="9.94009054372631"><ele>526.0</ele><time>2026-05-02T11:08:09.999Z</time></trkpt><trkpt lat="44.76080161285867" lon="9.940111619362986"><ele>526.0</ele><time>2026-05-02T11:08:12.999Z</time></trkpt><trkpt lat="44.76072003418616" lon="9.940143620972686"><ele>526.0</ele><time>2026-05-02T11:08:16.999Z</time></trkpt><trkpt lat="44.76064720448379" lon="9.940173805203216"><ele>526.0</ele><time>2026-05-02T11:08:19.999Z</time></trkpt><trkpt lat="44.76056834914017" lon="9.940204330427061"><ele>526.0</ele><time>2026-05-02T11:08:22.999Z</time></trkpt><trkpt lat="44.760503244397896" lon="9.940227335954873"><ele>526.0</ele><time>2026-05-02T11:08:25.999Z</time></trkpt><trkpt lat="44.760431773801905" lon="9.940248937264052"><ele>526.0</ele><time>2026-05-02T11:08:28.999Z</time></trkpt><trkpt lat="44.760357882849846" lon="9.94027153451204"><ele>526.0</ele><time>2026-05-02T11:08:31.999Z</time></trkpt><trkpt lat="44.76028342240079" lon="9.940299473057175"><ele>526.0</ele><time>2026-05-02T11:08:34.999Z</time></trkpt><trkpt lat="44.760199556765706" lon="9.940349060002944"><ele>528.0</ele><time>2026-05-02T11:08:37.998Z</time></trkpt><trkpt lat="44.76014664569841" lon="9.940404182304816"><ele>530.0</ele><time>2026-05-02T11:08:40.998Z</time></trkpt><trkpt lat="44.76008801698767" lon="9.940472346739348"><ele>532.0</ele><time>2026-05-02T11:08:43.998Z</time></trkpt><trkpt lat="44.76003233845651" lon="9.940546155442565"><ele>534.0</ele><time>2026-05-02T11:08:46.998Z</time></trkpt><trkpt lat="44.75997848029885" lon="9.940619337174196"><ele>536.0</ele><time>2026-05-02T11:08:49.998Z</time></trkpt><trkpt lat="44.75992044700876" lon="9.940713265388295"><ele>538.0</ele><time>2026-05-02T11:08:52.998Z</time></trkpt><trkpt lat="44.759881192385016" lon="9.940789104356611"><ele>540.0</ele><time>2026-05-02T11:08:55.998Z</time></trkpt><trkpt lat="44.75983980571857" lon="9.940858247261033"><ele>538.6666666666666</ele><time>2026-05-02T11:08:57.998Z</time></trkpt><trkpt lat="44.75978469886208" lon="9.94092672974449"><ele>537.3333333333334</ele><time>2026-05-02T11:09:01Z</time></trkpt><trkpt lat="44.75973544036881" lon="9.941011218512688"><ele>536.0</ele><time>2026-05-02T11:09:04Z</time></trkpt><trkpt lat="44.759685123350394" lon="9.941091862203905"><ele>534.6666666666667</ele><time>2026-05-02T11:09:07Z</time></trkpt><trkpt lat="44.75963303146318" lon="9.941180973200204"><ele>533.3333333333334</ele><time>2026-05-02T11:09:10Z</time></trkpt><trkpt lat="44.759587332396" lon="9.941272936453972"><ele>532.0</ele><time>2026-05-02T11:09:13Z</time></trkpt><trkpt lat="44.75953557878293" lon="9.94136165401758"><ele>532.0</ele><time>2026-05-02T11:09:16Z</time></trkpt><trkpt lat="44.759491756315555" lon="9.941452219361153"><ele>532.0</ele><time>2026-05-02T11:09:19Z</time></trkpt><trkpt lat="44.75944386907131" lon="9.941537818455249"><ele>532.0</ele><time>2026-05-02T11:09:22Z</time></trkpt><trkpt lat="44.75939811943855" lon="9.941649579881016"><ele>532.0</ele><time>2026-05-02T11:09:25Z</time></trkpt><trkpt lat="44.7593568241366" lon="9.9417272786531"><ele>532.0</ele><time>2026-05-02T11:09:28Z</time></trkpt><trkpt lat="44.759316657425586" lon="9.941818021719026"><ele>532.0</ele><time>2026-05-02T11:09:31Z</time></trkpt><trkpt lat="44.75926968589082" lon="9.941898665252472"><ele>534.6666666666667</ele><time>2026-05-02T11:09:34Z</time></trkpt><trkpt lat="44.75923412700384" lon="9.941989301820406"><ele>537.3333333333334</ele><time>2026-05-02T11:09:37Z</time></trkpt><trkpt lat="44.75919274080263" lon="9.94208537185146"><ele>540.0</ele><time>2026-05-02T11:09:40Z</time></trkpt><trkpt lat="44.75916350279384" lon="9.942187149024344"><ele>542.6666666666666</ele><time>2026-05-02T11:09:43Z</time></trkpt><trkpt lat="44.759135837078006" lon="9.942295768740223"><ele>545.3333333333333</ele><time>2026-05-02T11:09:46Z</time></trkpt><trkpt lat="44.759114433000846" lon="9.942422229294703"><ele>548.0</ele><time>2026-05-02T11:09:48.999Z</time></trkpt><trkpt lat="44.759103784972446" lon="9.942518191105522"><ele>547.5714285714287</ele><time>2026-05-02T11:09:51.999Z</time></trkpt><trkpt lat="44.75909409499875" lon="9.942630236157619"><ele>547.1428571428571</ele><time>2026-05-02T11:09:54.999Z</time></trkpt><trkpt lat="44.75909788972769" lon="9.94272319199283"><ele>546.7142857142858</ele><time>2026-05-02T11:09:56.999Z</time></trkpt><trkpt lat="44.75909946246268" lon="9.942830924999003"><ele>546.2857142857143</ele><time>2026-05-02T11:09:59.999Z</time></trkpt><trkpt lat="44.75909307611458" lon="9.942923750698323"><ele>545.8571428571429</ele><time>2026-05-02T11:10:02.999Z</time></trkpt><trkpt lat="44.75903748019036" lon="9.942988525359235"><ele>545.4285714285714</ele><time>2026-05-02T11:10:05.999Z</time></trkpt><trkpt lat="44.758967767409" lon="9.942941498062497"><ele>545.0</ele><time>2026-05-02T11:10:08.999Z</time></trkpt><trkpt lat="44.75894639594787" lon="9.94284113219077"><ele>545.0</ele><time>2026-05-02T11:10:11.999Z</time></trkpt><trkpt lat="44.75892462181017" lon="9.942727177937122"><ele>545.0</ele><time>2026-05-02T11:10:15.999Z</time></trkpt><trkpt lat="44.758913010698" lon="9.94263140590172"><ele>545.0</ele><time>2026-05-02T11:10:18.999Z</time></trkpt><trkpt lat="44.75890430302502" lon="9.942526394093923"><ele>545.0</ele><time>2026-05-02T11:10:22.999Z</time></trkpt><trkpt lat="44.7588974483811" lon="9.942422501540163"><ele>545.0</ele><time>2026-05-02T11:10:25.999Z</time></trkpt><trkpt lat="44.75889001020115" lon="9.942314599684124"><ele>545.0</ele><time>2026-05-02T11:10:29.999Z</time></trkpt><trkpt lat="44.75888641009915" lon="9.942200531322401"><ele>545.4285714285714</ele><time>2026-05-02T11:10:32.999Z</time></trkpt><trkpt lat="44.75889305225723" lon="9.942111320346669"><ele>545.8571428571429</ele><time>2026-05-02T11:10:35.999Z</time></trkpt><trkpt lat="44.758904709130526" lon="9.942000393824664"><ele>546.2857142857143</ele><time>2026-05-02T11:10:39.999Z</time></trkpt><trkpt lat="44.75891656612988" lon="9.941900910564412"><ele>546.7142857142858</ele><time>2026-05-02T11:10:42.998Z</time></trkpt><trkpt lat="44.758938465684366" lon="9.941789636764772"><ele>547.1428571428571</ele><time>2026-05-02T11:10:45.998Z</time></trkpt><trkpt lat="44.75895469293105" lon="9.941703135113661"><ele>547.5714285714287</ele><time>2026-05-02T11:10:48.998Z</time></trkpt><trkpt lat="44.75897483413916" lon="9.94161560959368"><ele>548.0</ele><time>2026-05-02T11:10:51.998Z</time></trkpt><trkpt lat="44.75899087233184" lon="9.941521173414527"><ele>549.3333333333333</ele><time>2026-05-02T11:10:54.998Z</time></trkpt><trkpt lat="44.75900519188954" lon="9.941426704428844"><ele>550.6666666666666</ele><time>2026-05-02T11:10:57.998Z</time></trkpt><trkpt lat="44.75902019873407" lon="9.941325101940084"><ele>552.0</ele><time>2026-05-02T11:11:00.998Z</time></trkpt><trkpt lat="44.759030599185316" lon="9.9412029454121"><ele>553.3333333333334</ele><time>2026-05-02T11:11:03.998Z</time></trkpt><trkpt lat="44.759040475702214" lon="9.941109254974696"><ele>554.6666666666667</ele><time>2026-05-02T11:11:07Z</time></trkpt><trkpt lat="44.75905150915592" lon="9.940995607354653"><ele>556.0</ele><time>2026-05-02T11:11:11Z</time></trkpt><trkpt lat="44.75906174894444" lon="9.94089141517383"><ele>557.5</ele><time>2026-05-02T11:11:14Z</time></trkpt><trkpt lat="44.759059409997015" lon="9.940780336974631"><ele>559.0</ele><time>2026-05-02T11:11:17Z</time></trkpt><trkpt lat="44.75904357599179" lon="9.940673124773081"><ele>560.5</ele><time>2026-05-02T11:11:20Z</time></trkpt><trkpt lat="44.75902411936986" lon="9.940568055611855"><ele>562.0</ele><time>2026-05-02T11:11:23Z</time></trkpt><trkpt lat="44.75900153483849" lon="9.94046662590384"><ele>563.5</ele><time>2026-05-02T11:11:26Z</time></trkpt><trkpt lat="44.75899991753887" lon="9.94036414736732"><ele>565.0</ele><time>2026-05-02T11:11:29Z</time></trkpt><trkpt lat="44.759015848227556" lon="9.940261313394748"><ele>564.9999999999999</ele><time>2026-05-02T11:11:32Z</time></trkpt><trkpt lat="44.7590405786043" lon="9.940168075363486"><ele>565.0</ele><time>2026-05-02T11:11:35Z</time></trkpt><trkpt lat="44.75907504925355" lon="9.94008169198588"><ele>565.0</ele><time>2026-05-02T11:11:38Z</time></trkpt><trkpt lat="44.75911444114477" lon="9.939989925235293"><ele>565.0</ele><time>2026-05-02T11:11:41Z</time></trkpt><trkpt lat="44.75915228862023" lon="9.939893534850658"><ele>565.0</ele><time>2026-05-02T11:11:44Z</time></trkpt><trkpt lat="44.75917511411443" lon="9.939792201867117"><ele>564.9999999999999</ele><time>2026-05-02T11:11:47Z</time></trkpt><trkpt lat="44.75918371839899" lon="9.939692238157752"><ele>565.0</ele><time>2026-05-02T11:11:50Z</time></trkpt><trkpt lat="44.759179856084465" lon="9.939570976067667"><ele>565.5714285714286</ele><time>2026-05-02T11:11:52.999Z</time></trkpt><trkpt lat="44.75916708496123" lon="9.939477341054832"><ele>566.1428571428571</ele><time>2026-05-02T11:11:55.999Z</time></trkpt><trkpt lat="44.75915067087835" lon="9.939382526186293"><ele>566.7142857142858</ele><time>2026-05-02T11:11:58.999Z</time></trkpt><trkpt lat="44.759123533621434" lon="9.939281568805383"><ele>567.2857142857142</ele><time>2026-05-02T11:12:01.999Z</time></trkpt><trkpt lat="44.759089724189096" lon="9.93918233621149"><ele>567.8571428571429</ele><time>2026-05-02T11:12:04.999Z</time></trkpt><trkpt lat="44.75904022291346" lon="9.939077537070395"><ele>568.4285714285714</ele><time>2026-05-02T11:12:07.999Z</time></trkpt><trkpt lat="44.75899681342832" lon="9.939012650256034"><ele>569.0</ele><time>2026-05-02T11:12:10.999Z</time></trkpt><trkpt lat="44.7589331297364" lon="9.938949941861814"><ele>569.0</ele><time>2026-05-02T11:12:13.999Z</time></trkpt><trkpt lat="44.758872703315625" lon="9.938914769249555"><ele>569.0</ele><time>2026-05-02T11:12:16.999Z</time></trkpt><trkpt lat="44.75879915437423" lon="9.938898914052624"><ele>569.0</ele><time>2026-05-02T11:12:19.999Z</time></trkpt><trkpt lat="44.75872228210944" lon="9.938896065748812"><ele>569.0</ele><time>2026-05-02T11:12:22.999Z</time></trkpt><trkpt lat="44.758642832265444" lon="9.938891631663218"><ele>569.0</ele><time>2026-05-02T11:12:25.999Z</time></trkpt><trkpt lat="44.75854776516359" lon="9.938885062538708"><ele>569.0</ele><time>2026-05-02T11:12:28.999Z</time></trkpt><trkpt lat="44.75848426075663" lon="9.938870776849063"><ele>571.2857142857143</ele><time>2026-05-02T11:12:31.999Z</time></trkpt><trkpt lat="44.75841506386303" lon="9.938823928886942"><ele>573.5714285714286</ele><time>2026-05-02T11:12:34.999Z</time></trkpt><trkpt lat="44.75835821781187" lon="9.938749031034673"><ele>575.8571428571429</ele><time>2026-05-02T11:12:37.999Z</time></trkpt><trkpt lat="44.75832733834162" lon="9.938661327891984"><ele>578.1428571428571</ele><time>2026-05-02T11:12:40.999Z</time></trkpt><trkpt lat="44.758306423781676" lon="9.938559189111883"><ele>580.4285714285714</ele><time>2026-05-02T11:12:43.999Z</time></trkpt><trkpt lat="44.758291941819756" lon="9.938461988034677"><ele>582.7142857142858</ele><time>2026-05-02T11:12:45.998Z</time></trkpt><trkpt lat="44.75827449966827" lon="9.93836541367142"><ele>585.0</ele><time>2026-05-02T11:12:48.998Z</time></trkpt><trkpt lat="44.75826162774804" lon="9.938265849685122"><ele>585.0</ele><time>2026-05-02T11:12:51.998Z</time></trkpt><trkpt lat="44.75823744709073" lon="9.93818042654358"><ele>585.0</ele><time>2026-05-02T11:12:53.998Z</time></trkpt><trkpt lat="44.75819981373029" lon="9.938095207592498"><ele>585.0</ele><time>2026-05-02T11:12:56.998Z</time></trkpt><trkpt lat="44.75814526494451" lon="9.938014794996892"><ele>585.0</ele><time>2026-05-02T11:12:59.998Z</time></trkpt><trkpt lat="44.758089249161806" lon="9.937938817664188"><ele>585.0</ele><time>2026-05-02T11:13:02.998Z</time></trkpt><trkpt lat="44.758050169227296" lon="9.937867171651869"><ele>585.0</ele><time>2026-05-02T11:13:04.998Z</time></trkpt><trkpt lat="44.75801529827747" lon="9.93779038204994"><ele>585.0</ele><time>2026-05-02T11:13:07.998Z</time></trkpt><trkpt lat="44.75798351956593" lon="9.937682575854993"><ele>585.0</ele><time>2026-05-02T11:13:11Z</time></trkpt><trkpt lat="44.757967848448075" lon="9.937577988432276"><ele>585.0</ele><time>2026-05-02T11:13:14Z</time></trkpt><trkpt lat="44.75795502932918" lon="9.937464372808433"><ele>585.0</ele><time>2026-05-02T11:13:17Z</time></trkpt><trkpt lat="44.757939920023574" lon="9.937371649458242"><ele>585.0</ele><time>2026-05-02T11:13:19Z</time></trkpt><trkpt lat="44.757941264330206" lon="9.937260990803676"><ele>585.0</ele><time>2026-05-02T11:13:22Z</time></trkpt><trkpt lat="44.75795258391661" lon="9.937156380970805"><ele>585.0</ele><time>2026-05-02T11:13:25Z</time></trkpt><trkpt lat="44.75796671466087" lon="9.937043579782275"><ele>584.5</ele><time>2026-05-02T11:13:28Z</time></trkpt><trkpt lat="44.757993486906194" lon="9.936937525874301"><ele>584.0</ele><time>2026-05-02T11:13:31Z</time></trkpt><trkpt lat="44.75803004324481" lon="9.936833335692288"><ele>583.5</ele><time>2026-05-02T11:13:34Z</time></trkpt><trkpt lat="44.75807638732727" lon="9.936744312705597"><ele>583.0</ele><time>2026-05-02T11:13:37Z</time></trkpt><trkpt lat="44.758118153681494" lon="9.936662607792968"><ele>582.5</ele><time>2026-05-02T11:13:40Z</time></trkpt><trkpt lat="44.75817662421808" lon="9.936578552369921"><ele>582.0</ele><time>2026-05-02T11:13:43Z</time></trkpt><trkpt lat="44.75822806498296" lon="9.936522938074749"><ele>582.8571428571429</ele><time>2026-05-02T11:13:46Z</time></trkpt><trkpt lat="44.75828417034917" lon="9.93646794928173"><ele>583.7142857142857</ele><time>2026-05-02T11:13:49Z</time></trkpt><trkpt lat="44.75834056575006" lon="9.936405268275548"><ele>584.5714285714286</ele><time>2026-05-02T11:13:52Z</time></trkpt><trkpt lat="44.75837682767182" lon="9.936312340306744"><ele>585.4285714285714</ele><time>2026-05-02T11:13:55Z</time></trkpt><trkpt lat="44.75837154478088" lon="9.936205213664747"><ele>586.2857142857142</ele><time>2026-05-02T11:13:57.999Z</time></trkpt><trkpt lat="44.75831552865915" lon="9.936122025074903"><ele>587.1428571428571</ele><time>2026-05-02T11:14:00.999Z</time></trkpt><trkpt lat="44.75825244805571" lon="9.936074011438773"><ele>588.0</ele><time>2026-05-02T11:14:03.999Z</time></trkpt><trkpt lat="44.75818793228704" lon="9.936039799794873"><ele>588.0</ele><time>2026-05-02T11:14:06.999Z</time></trkpt><trkpt lat="44.7581248677215" lon="9.936016869742941"><ele>588.0</ele><time>2026-05-02T11:14:09.999Z</time></trkpt><trkpt lat="44.758042674177204" lon="9.935995257101608"><ele>588.0</ele><time>2026-05-02T11:14:12.999Z</time></trkpt><trkpt lat="44.75796494360847" lon="9.935993750193452"><ele>588.0</ele><time>2026-05-02T11:14:15.999Z</time></trkpt><trkpt lat="44.75789200627672" lon="9.936020668109398"><ele>588.0</ele><time>2026-05-02T11:14:18.999Z</time></trkpt><trkpt lat="44.75782086235604" lon="9.936063580197263"><ele>588.0</ele><time>2026-05-02T11:14:21.999Z</time></trkpt><trkpt lat="44.75775823042702" lon="9.936127409065639"><ele>592.0</ele><time>2026-05-02T11:14:24.999Z</time></trkpt><trkpt lat="44.757698209203596" lon="9.936219043034596"><ele>596.0</ele><time>2026-05-02T11:14:28.999Z</time></trkpt><trkpt lat="44.75765251788426" lon="9.936298314377453"><ele>600.0</ele><time>2026-05-02T11:14:31.999Z</time></trkpt><trkpt lat="44.75760679069856" lon="9.936389957983414"><ele>604.0</ele><time>2026-05-02T11:14:34.999Z</time></trkpt><trkpt lat="44.757571096509714" lon="9.936471664535388"><ele>608.0</ele><time>2026-05-02T11:14:37.999Z</time></trkpt><trkpt lat="44.75753226502656" lon="9.93656443234314"><ele>612.0</ele><time>2026-05-02T11:14:40.999Z</time></trkpt><trkpt lat="44.75749807355803" lon="9.936655802203308"><ele>611.2857142857142</ele><time>2026-05-02T11:14:43.999Z</time></trkpt><trkpt lat="44.75747297240559" lon="9.936738811564231"><ele>610.5714285714286</ele><time>2026-05-02T11:14:45.999Z</time></trkpt><trkpt lat="44.75744027490203" lon="9.936833684135618"><ele>609.8571428571429</ele><time>2026-05-02T11:14:48.999Z</time></trkpt><trkpt lat="44.75740599002878" lon="9.936933290683942"><ele>609.1428571428571</ele><time>2026-05-02T11:14:51.998Z</time></trkpt><trkpt lat="44.75737624515785" lon="9.937015643026808"><ele>608.4285714285714</ele><time>2026-05-02T11:14:53.998Z</time></trkpt><trkpt lat="44.75734942213534" lon="9.93711339755425"><ele>607.7142857142857</ele><time>2026-05-02T11:14:56.998Z</time></trkpt><trkpt lat="44.757314500149" lon="9.93721477889632"><ele>607.0</ele><time>2026-05-02T11:14:59.998Z</time></trkpt><trkpt lat="44.757282184321014" lon="9.937302935803833"><ele>607.0</ele><time>2026-05-02T11:15:02.998Z</time></trkpt><trkpt lat="44.757251182209835" lon="9.93740102891744"><ele>607.0</ele><time>2026-05-02T11:15:05.998Z</time></trkpt><trkpt lat="44.757219975851804" lon="9.937494425253142"><ele>607.0</ele><time>2026-05-02T11:15:07.998Z</time></trkpt><trkpt lat="44.757197315778996" lon="9.937603578195716"><ele>607.0</ele><time>2026-05-02T11:15:10.998Z</time></trkpt><trkpt lat="44.757191899533055" lon="9.937724276309678"><ele>607.0</ele><time>2026-05-02T11:15:13.998Z</time></trkpt><trkpt lat="44.75719226506102" lon="9.937837328544433"><ele>607.0</ele><time>2026-05-02T11:15:17Z</time></trkpt><trkpt lat="44.75720713128675" lon="9.937939918719602"><ele>607.6666666666667</ele><time>2026-05-02T11:15:19Z</time></trkpt><trkpt lat="44.7572475660474" lon="9.938044896452118"><ele>608.3333333333334</ele><time>2026-05-02T11:15:22Z</time></trkpt><trkpt lat="44.75730866224181" lon="9.938141169602314"><ele>609.0</ele><time>2026-05-02T11:15:25Z</time></trkpt><trkpt lat="44.75735587641248" lon="9.938199970099733"><ele>609.6666666666666</ele><time>2026-05-02T11:15:27Z</time></trkpt><trkpt lat="44.757440364639265" lon="9.938291763143797"><ele>610.3333333333333</ele><time>2026-05-02T11:15:30Z</time></trkpt><trkpt lat="44.757513278222156" lon="9.938382309676825"><ele>611.0</ele><time>2026-05-02T11:15:33Z</time></trkpt><trkpt lat="44.75756317201759" lon="9.938451091524234"><ele>611.0</ele><time>2026-05-02T11:15:35Z</time></trkpt><trkpt lat="44.75759941887604" lon="9.938531396320727"><ele>611.0</ele><time>2026-05-02T11:15:37Z</time></trkpt><trkpt lat="44.757619078028725" lon="9.938625280871188"><ele>611.0</ele><time>2026-05-02T11:15:39Z</time></trkpt><trkpt lat="44.75761421047184" lon="9.938754531424568"><ele>611.0</ele><time>2026-05-02T11:15:42Z</time></trkpt><trkpt lat="44.75758248427154" lon="9.938859505624837"><ele>611.0</ele><time>2026-05-02T11:15:45Z</time></trkpt><trkpt lat="44.75752727671058" lon="9.938956304758378"><ele>611.0</ele><time>2026-05-02T11:15:48Z</time></trkpt><trkpt lat="44.75743188604397" lon="9.93900670062576"><ele>611.0</ele><time>2026-05-02T11:15:51Z</time></trkpt><trkpt lat="44.75736231788306" lon="9.939003039536955"><ele>611.0</ele><time>2026-05-02T11:15:54Z</time></trkpt><trkpt lat="44.757286971496356" lon="9.938976077078669"><ele>611.0</ele><time>2026-05-02T11:15:57Z</time></trkpt><trkpt lat="44.75722869562811" lon="9.93893961807292"><ele>611.0</ele><time>2026-05-02T11:15:59Z</time></trkpt><trkpt lat="44.7571640976517" lon="9.938873031167377"><ele>611.0</ele><time>2026-05-02T11:16:01.999Z</time></trkpt><trkpt lat="44.75713652293817" lon="9.938758535835689"><ele>611.0</ele><time>2026-05-02T11:16:04.999Z</time></trkpt><trkpt lat="44.75710779016329" lon="9.93865790550133"><ele>611.0</ele><time>2026-05-02T11:16:07.999Z</time></trkpt><trkpt lat="44.75706948021588" lon="9.938562986311421"><ele>611.0</ele><time>2026-05-02T11:16:10.999Z</time></trkpt><trkpt lat="44.75704565885554" lon="9.938478227809185"><ele>611.0</ele><time>2026-05-02T11:16:13.999Z</time></trkpt><trkpt lat="44.75701641243516" lon="9.938355533140218"><ele>611.0</ele><time>2026-05-02T11:16:16.999Z</time></trkpt><trkpt lat="44.75699197613871" lon="9.938246372080513"><ele>611.0</ele><time>2026-05-02T11:16:19.999Z</time></trkpt><trkpt lat="44.756953437276344" lon="9.938132521420853"><ele>611.0</ele><time>2026-05-02T11:16:22.999Z</time></trkpt><trkpt lat="44.75693072370125" lon="9.938043498163426"><ele>611.3333333333333</ele><time>2026-05-02T11:16:25.999Z</time></trkpt><trkpt lat="44.75691978553293" lon="9.937937382254129"><ele>611.6666666666666</ele><time>2026-05-02T11:16:26.999Z</time></trkpt><trkpt lat="44.75690638945049" lon="9.937849364960188"><ele>612.0</ele><time>2026-05-02T11:16:28.999Z</time></trkpt><trkpt lat="44.75688225489872" lon="9.937716465866366"><ele>612.3333333333334</ele><time>2026-05-02T11:16:31.999Z</time></trkpt><trkpt lat="44.75686303458906" lon="9.937601826629308"><ele>612.6666666666667</ele><time>2026-05-02T11:16:34.999Z</time></trkpt><trkpt lat="44.75684808957292" lon="9.937502829014146"><ele>613.0</ele><time>2026-05-02T11:16:36.999Z</time></trkpt><trkpt lat="44.75683981811068" lon="9.93739003794021"><ele>614.0</ele><time>2026-05-02T11:16:39.999Z</time></trkpt><trkpt lat="44.756829514671715" lon="9.937282589679096"><ele>615.0</ele><time>2026-05-02T11:16:42.999Z</time></trkpt><trkpt lat="44.75682967508267" lon="9.937183556750506"><ele>616.0</ele><time>2026-05-02T11:16:45.999Z</time></trkpt><trkpt lat="44.756841423200825" lon="9.937080390380748"><ele>617.0</ele><time>2026-05-02T11:16:48.999Z</time></trkpt><trkpt lat="44.75685289253138" lon="9.936968152940862"><ele>618.0</ele><time>2026-05-02T11:16:52.999Z</time></trkpt><trkpt lat="44.756800784179966" lon="9.937023014573564"><ele>619.0</ele><time>2026-05-02T11:16:59.998Z</time></trkpt><trkpt lat="44.7567843536483" lon="9.937121647006386"><ele>620.0</ele><time>2026-05-02T11:17:59Z</time></trkpt><trkpt lat="44.756790946542054" lon="9.937258333660157"><ele>620.0</ele><time>2026-05-02T11:18:02Z</time></trkpt><trkpt lat="44.75679328529008" lon="9.937373536394206"><ele>620.0</ele><time>2026-05-02T11:18:03.999Z</time></trkpt><trkpt lat="44.75680822469461" lon="9.937496064724773"><ele>620.0</ele><time>2026-05-02T11:18:05.999Z</time></trkpt><trkpt lat="44.75682575154095" lon="9.937636748530917"><ele>620.0</ele><time>2026-05-02T11:18:07.999Z</time></trkpt><trkpt lat="44.75685226423878" lon="9.93778176143757"><ele>620.0</ele><time>2026-05-02T11:18:09.999Z</time></trkpt><trkpt lat="44.75687842425643" lon="9.937940979578366"><ele>619.0</ele><time>2026-05-02T11:18:11.999Z</time></trkpt><trkpt lat="44.75689106858028" lon="9.938030759596595"><ele>618.0</ele><time>2026-05-02T11:18:12.999Z</time></trkpt><trkpt lat="44.75690581980143" lon="9.938120376083749"><ele>617.0</ele><time>2026-05-02T11:18:13.999Z</time></trkpt><trkpt lat="44.756919956525564" lon="9.938215674488799"><ele>616.0</ele><time>2026-05-02T11:18:14.999Z</time></trkpt><trkpt lat="44.75693477185955" lon="9.938312854061536"><ele>615.0</ele><time>2026-05-02T11:18:15.999Z</time></trkpt><trkpt lat="44.75695253404728" lon="9.938414927611202"><ele>614.0</ele><time>2026-05-02T11:18:16.999Z</time></trkpt><trkpt lat="44.7569732813604" lon="9.938518651151902"><ele>613.0</ele><time>2026-05-02T11:18:17.999Z</time></trkpt><trkpt lat="44.75699241209212" lon="9.938625107648356"><ele>612.6666666666667</ele><time>2026-05-02T11:18:18.999Z</time></trkpt><trkpt lat="44.75702603738171" lon="9.938727610475627"><ele>612.3333333333334</ele><time>2026-05-02T11:18:19.999Z</time></trkpt><trkpt lat="44.757069009601246" lon="9.938829407363768"><ele>612.0</ele><time>2026-05-02T11:18:20.999Z</time></trkpt><trkpt lat="44.75712658626315" lon="9.93892012464611"><ele>611.6666666666666</ele><time>2026-05-02T11:18:21.999Z</time></trkpt><trkpt lat="44.75719560578407" lon="9.938990830589768"><ele>611.3333333333333</ele><time>2026-05-02T11:18:22.999Z</time></trkpt><trkpt lat="44.757273082876445" lon="9.939039878802678"><ele>611.0</ele><time>2026-05-02T11:18:23.999Z</time></trkpt><trkpt lat="44.757360042729275" lon="9.939068599063726"><ele>611.0</ele><time>2026-05-02T11:18:24.999Z</time></trkpt><trkpt lat="44.75744662784696" lon="9.939062895198132"><ele>611.0</ele><time>2026-05-02T11:18:25.999Z</time></trkpt><trkpt lat="44.75752587444511" lon="9.939025596175796"><ele>611.0</ele><time>2026-05-02T11:18:26.999Z</time></trkpt><trkpt lat="44.75759150751582" lon="9.938952927273334"><ele>611.0</ele><time>2026-05-02T11:18:27.999Z</time></trkpt><trkpt lat="44.7576487070351" lon="9.938870312999523"><ele>611.0</ele><time>2026-05-02T11:18:28.999Z</time></trkpt><trkpt lat="44.757671015176385" lon="9.93873760263204"><ele>611.0</ele><time>2026-05-02T11:18:29.999Z</time></trkpt><trkpt lat="44.75767274318559" lon="9.938615130289929"><ele>611.0</ele><time>2026-05-02T11:18:30.999Z</time></trkpt><trkpt lat="44.757633346799494" lon="9.938490050366532"><ele>611.0</ele><time>2026-05-02T11:18:31.999Z</time></trkpt><trkpt lat="44.75757324754138" lon="9.938392413567229"><ele>611.0</ele><time>2026-05-02T11:18:32.999Z</time></trkpt><trkpt lat="44.75749531788858" lon="9.938328029793869"><ele>611.0</ele><time>2026-05-02T11:18:33.999Z</time></trkpt><trkpt lat="44.7574088025596" lon="9.938273491034062"><ele>611.0</ele><time>2026-05-02T11:18:34.999Z</time></trkpt><trkpt lat="44.757334422454385" lon="9.93820049395718"><ele>611.4</ele><time>2026-05-02T11:18:35.999Z</time></trkpt><trkpt lat="44.75727233201999" lon="9.938099654083356"><ele>611.8</ele><time>2026-05-02T11:18:36.999Z</time></trkpt><trkpt lat="44.75722955715992" lon="9.937979510494163"><ele>612.1999999999999</ele><time>2026-05-02T11:18:37.999Z</time></trkpt><trkpt lat="44.75720716172283" lon="9.937848122372055"><ele>612.6</ele><time>2026-05-02T11:18:38.999Z</time></trkpt><trkpt lat="44.75721501298075" lon="9.937706097436902"><ele>613.0</ele><time>2026-05-02T11:18:39.999Z</time></trkpt><trkpt lat="44.757226055738094" lon="9.93755835474602"><ele>611.8</ele><time>2026-05-02T11:18:40.999Z</time></trkpt><trkpt lat="44.75726766637444" lon="9.93743752530198"><ele>610.5999999999999</ele><time>2026-05-02T11:18:41.999Z</time></trkpt><trkpt lat="44.75730677629621" lon="9.937310564591364"><ele>609.4000000000001</ele><time>2026-05-02T11:18:42.999Z</time></trkpt><trkpt lat="44.757336931564154" lon="9.93718255709732"><ele>608.2</ele><time>2026-05-02T11:18:43.999Z</time></trkpt><trkpt lat="44.75738412347444" lon="9.937059842443352"><ele>607.0</ele><time>2026-05-02T11:18:44.999Z</time></trkpt><trkpt lat="44.75742731626611" lon="9.936922093493287"><ele>607.0</ele><time>2026-05-02T11:18:45.999Z</time></trkpt><trkpt lat="44.75747007944704" lon="9.936794574340608"><ele>607.0</ele><time>2026-05-02T11:18:46.999Z</time></trkpt><trkpt lat="44.7575169616841" lon="9.936663850574812"><ele>607.0</ele><time>2026-05-02T11:18:47.999Z</time></trkpt><trkpt lat="44.75756271189604" lon="9.936537748425911"><ele>607.0</ele><time>2026-05-02T11:18:48.999Z</time></trkpt><trkpt lat="44.75761376425379" lon="9.936422180381372"><ele>607.0</ele><time>2026-05-02T11:18:49.999Z</time></trkpt><trkpt lat="44.757667155575504" lon="9.93630016740754"><ele>603.2</ele><time>2026-05-02T11:18:50.999Z</time></trkpt><trkpt lat="44.75772563721465" lon="9.936180461176171"><ele>599.4000000000001</ele><time>2026-05-02T11:18:51.999Z</time></trkpt><trkpt lat="44.75779765832715" lon="9.936081972311415"><ele>595.5999999999999</ele><time>2026-05-02T11:18:52.999Z</time></trkpt><trkpt lat="44.75788389294084" lon="9.936019813510418"><ele>591.8</ele><time>2026-05-02T11:18:53.999Z</time></trkpt><trkpt lat="44.75797457925534" lon="9.935965733705343"><ele>588.0</ele><time>2026-05-02T11:18:54.999Z</time></trkpt><trkpt lat="44.7580618376665" lon="9.936004347563589"><ele>588.0</ele><time>2026-05-02T11:18:55.999Z</time></trkpt><trkpt lat="44.7581484833019" lon="9.93603095150868"><ele>588.0</ele><time>2026-05-02T11:18:56.999Z</time></trkpt><trkpt lat="44.758243554879506" lon="9.936069415585191"><ele>588.0</ele><time>2026-05-02T11:18:57.998Z</time></trkpt><trkpt lat="44.75832095118873" lon="9.936117086215216"><ele>588.0</ele><time>2026-05-02T11:18:58.998Z</time></trkpt><trkpt lat="44.75837098870609" lon="9.93617768546469"><ele>588.0</ele><time>2026-05-02T11:18:59.998Z</time></trkpt><trkpt lat="44.758356253199025" lon="9.936305100171056"><ele>588.0</ele><time>2026-05-02T11:19:01.998Z</time></trkpt><trkpt lat="44.7582433454898" lon="9.936416566995568"><ele>588.0</ele><time>2026-05-02T11:19:03.998Z</time></trkpt><trkpt lat="44.758155135095535" lon="9.9364863806478"><ele>588.0</ele><time>2026-05-02T11:19:04.998Z</time></trkpt><trkpt lat="44.75807850003853" lon="9.936589109387459"><ele>588.0</ele><time>2026-05-02T11:19:05.998Z</time></trkpt><trkpt lat="44.7580094152937" lon="9.936713292238727"><ele>588.0</ele><time>2026-05-02T11:19:06.998Z</time></trkpt><trkpt lat="44.75795957502426" lon="9.936844002227913"><ele>588.0</ele><time>2026-05-02T11:19:07.998Z</time></trkpt><trkpt lat="44.7579356612906" lon="9.93698927243419"><ele>587.4</ele><time>2026-05-02T11:19:08.998Z</time></trkpt><trkpt lat="44.75791150555555" lon="9.937130947457275"><ele>586.8</ele><time>2026-05-02T11:19:09.998Z</time></trkpt><trkpt lat="44.7578935414964" lon="9.937272027830488"><ele>586.2</ele><time>2026-05-02T11:19:10.998Z</time></trkpt><trkpt lat="44.75788775869605" lon="9.9374231806464"><ele>585.6</ele><time>2026-05-02T11:19:11.998Z</time></trkpt><trkpt lat="44.75789941473961" lon="9.937574564300279"><ele>585.0</ele><time>2026-05-02T11:19:12.998Z</time></trkpt><trkpt lat="44.757929736851366" lon="9.93772115730355"><ele>585.0</ele><time>2026-05-02T11:19:13.998Z</time></trkpt><trkpt lat="44.75797947896108" lon="9.937856244124"><ele>585.0</ele><time>2026-05-02T11:19:14.998Z</time></trkpt><trkpt lat="44.75805874425703" lon="9.937976654010377"><ele>585.0</ele><time>2026-05-02T11:19:15.998Z</time></trkpt><trkpt lat="44.75813821189678" lon="9.938084363911878"><ele>585.0</ele><time>2026-05-02T11:19:16.998Z</time></trkpt><trkpt lat="44.758207522890636" lon="9.938210630337082"><ele>585.0</ele><time>2026-05-02T11:19:17.998Z</time></trkpt><trkpt lat="44.75822220094071" lon="9.938365106579832"><ele>586.4</ele><time>2026-05-02T11:19:18.998Z</time></trkpt><trkpt lat="44.75824121120212" lon="9.938520534739132"><ele>587.8</ele><time>2026-05-02T11:19:19.998Z</time></trkpt><trkpt lat="44.75826370590895" lon="9.938647202643015"><ele>589.2</ele><time>2026-05-02T11:19:20.998Z</time></trkpt><trkpt lat="44.75830911690574" lon="9.938771564930397"><ele>590.6</ele><time>2026-05-02T11:19:21.998Z</time></trkpt><trkpt lat="44.758397506252585" lon="9.938861393163888"><ele>592.0</ele><time>2026-05-02T11:19:22.998Z</time></trkpt><trkpt lat="44.758495774093795" lon="9.938914152502871"><ele>587.4</ele><time>2026-05-02T11:19:23.998Z</time></trkpt><trkpt lat="44.75861427369349" lon="9.93888642448743"><ele>582.8000000000001</ele><time>2026-05-02T11:19:24.998Z</time></trkpt><trkpt lat="44.75872119159786" lon="9.938874823758642"><ele>578.2</ele><time>2026-05-02T11:19:25.998Z</time></trkpt><trkpt lat="44.7588270367971" lon="9.938878089608712"><ele>573.6</ele><time>2026-05-02T11:19:26.998Z</time></trkpt><trkpt lat="44.7589185744875" lon="9.938933445799238"><ele>569.0</ele><time>2026-05-02T11:19:28Z</time></trkpt><trkpt lat="44.7589904730064" lon="9.939021003422422"><ele>569.0</ele><time>2026-05-02T11:19:29Z</time></trkpt><trkpt lat="44.759056031870095" lon="9.93912433280519"><ele>569.0</ele><time>2026-05-02T11:19:30Z</time></trkpt><trkpt lat="44.75910077120924" lon="9.939245747788142"><ele>569.0</ele><time>2026-05-02T11:19:31Z</time></trkpt><trkpt lat="44.75913603702027" lon="9.939389288237413"><ele>569.0</ele><time>2026-05-02T11:19:32Z</time></trkpt><trkpt lat="44.759159388151694" lon="9.939537582816472"><ele>569.0</ele><time>2026-05-02T11:19:33Z</time></trkpt><trkpt lat="44.7591646478543" lon="9.9396809315824"><ele>569.2</ele><time>2026-05-02T11:19:34Z</time></trkpt><trkpt lat="44.75913981350479" lon="9.939804514464267"><ele>569.4</ele><time>2026-05-02T11:19:35Z</time></trkpt><trkpt lat="44.759089179805684" lon="9.939922472542088"><ele>569.6</ele><time>2026-05-02T11:19:36Z</time></trkpt><trkpt lat="44.75902641441007" lon="9.9400378266235"><ele>569.8</ele><time>2026-05-02T11:19:37Z</time></trkpt><trkpt lat="44.75896571494292" lon="9.940166514351484"><ele>570.0</ele><time>2026-05-02T11:19:38Z</time></trkpt><trkpt lat="44.758938313742014" lon="9.940316500039298"><ele>569.0</ele><time>2026-05-02T11:19:39Z</time></trkpt><trkpt lat="44.75896295302983" lon="9.940490087842498"><ele>568.0</ele><time>2026-05-02T11:19:40Z</time></trkpt><trkpt lat="44.759008955838524" lon="9.940641274306842"><ele>567.0</ele><time>2026-05-02T11:19:41Z</time></trkpt><trkpt lat="44.75902552720058" lon="9.940784097340945"><ele>566.0</ele><time>2026-05-02T11:19:42Z</time></trkpt><trkpt lat="44.75901692792803" lon="9.94092672954105"><ele>565.0</ele><time>2026-05-02T11:19:43Z</time></trkpt><trkpt lat="44.75899732191288" lon="9.941075240793031"><ele>562.75</ele><time>2026-05-02T11:19:44Z</time></trkpt><trkpt lat="44.758973883064755" lon="9.941231873411944"><ele>560.5</ele><time>2026-05-02T11:19:45Z</time></trkpt><trkpt lat="44.75894335637685" lon="9.941388616408833"><ele>558.25</ele><time>2026-05-02T11:19:46Z</time></trkpt><trkpt lat="44.7589107762474" lon="9.941549874112914"><ele>556.0</ele><time>2026-05-02T11:19:47Z</time></trkpt><trkpt lat="44.75887768102526" lon="9.941714236116628"><ele>554.0</ele><time>2026-05-02T11:19:48Z</time></trkpt><trkpt lat="44.758863734864754" lon="9.941888947094208"><ele>552.0</ele><time>2026-05-02T11:19:49Z</time></trkpt><trkpt lat="44.75884785927802" lon="9.942060438052051"><ele>550.0</ele><time>2026-05-02T11:19:50Z</time></trkpt><trkpt lat="44.758829842271865" lon="9.94224030833718"><ele>548.0</ele><time>2026-05-02T11:19:51Z</time></trkpt><trkpt lat="44.758844522506585" lon="9.942426512856066"><ele>547.4</ele><time>2026-05-02T11:19:52Z</time></trkpt><trkpt lat="44.7588691932363" lon="9.942602560519104"><ele>546.8</ele><time>2026-05-02T11:19:53Z</time></trkpt><trkpt lat="44.758893999449256" lon="9.942756212390169"><ele>546.2</ele><time>2026-05-02T11:19:54Z</time></trkpt><trkpt lat="44.75891753439055" lon="9.942892477992991"><ele>545.6</ele><time>2026-05-02T11:19:55Z</time></trkpt><trkpt lat="44.758941980260424" lon="9.943008544582456"><ele>545.0</ele><time>2026-05-02T11:19:56Z</time></trkpt><trkpt lat="44.75897572544268" lon="9.943096301579727"><ele>545.0</ele><time>2026-05-02T11:19:57Z</time></trkpt><trkpt lat="44.7590386327676" lon="9.943178517156516"><ele>545.0</ele><time>2026-05-02T11:19:58Z</time></trkpt><trkpt lat="44.759107867167565" lon="9.94314708394133"><ele>545.0</ele><time>2026-05-02T11:19:59Z</time></trkpt><trkpt lat="44.75914659190367" lon="9.94303563128471"><ele>545.0</ele><time>2026-05-02T11:20:00Z</time></trkpt><trkpt lat="44.75914478945104" lon="9.94291048474044"><ele>545.0</ele><time>2026-05-02T11:20:01Z</time></trkpt><trkpt lat="44.7591332380245" lon="9.942783450703859"><ele>545.0</ele><time>2026-05-02T11:20:02Z</time></trkpt><trkpt lat="44.759129754892726" lon="9.942650963825319"><ele>545.6</ele><time>2026-05-02T11:20:03Z</time></trkpt><trkpt lat="44.759146777013434" lon="9.942515724106093"><ele>546.2</ele><time>2026-05-02T11:20:04Z</time></trkpt><trkpt lat="44.75916138588848" lon="9.942380748925268"><ele>546.8</ele><time>2026-05-02T11:20:05Z</time></trkpt><trkpt lat="44.75918585493461" lon="9.942247761197043"><ele>547.4</ele><time>2026-05-02T11:20:06Z</time></trkpt><trkpt lat="44.759199908103945" lon="9.942128548927132"><ele>548.0</ele><time>2026-05-02T11:20:07Z</time></trkpt><trkpt lat="44.75925854220254" lon="9.942010482835792"><ele>548.0</ele><time>2026-05-02T11:20:08Z</time></trkpt><trkpt lat="44.759318236465425" lon="9.94189274477977"><ele>548.0</ele><time>2026-05-02T11:20:08.999Z</time></trkpt><trkpt lat="44.75938024483763" lon="9.941770403996902"><ele>548.0</ele><time>2026-05-02T11:20:09.999Z</time></trkpt><trkpt lat="44.75944212898715" lon="9.941649475458593"><ele>548.0</ele><time>2026-05-02T11:20:10.999Z</time></trkpt><trkpt lat="44.75950225257001" lon="9.941521801181153"><ele>548.0</ele><time>2026-05-02T11:20:11.999Z</time></trkpt><trkpt lat="44.75956282106983" lon="9.941390746694386"><ele>546.4</ele><time>2026-05-02T11:20:12.999Z</time></trkpt><trkpt lat="44.75962497346265" lon="9.941255508931658"><ele>544.8</ele><time>2026-05-02T11:20:13.999Z</time></trkpt><trkpt lat="44.759688118723254" lon="9.941130700583967"><ele>543.2</ele><time>2026-05-02T11:20:14.999Z</time></trkpt><trkpt lat="44.7597622816932" lon="9.941016809639502"><ele>541.6</ele><time>2026-05-02T11:20:15.999Z</time></trkpt><trkpt lat="44.75983794698078" lon="9.940898535202333"><ele>540.0</ele><time>2026-05-02T11:20:16.999Z</time></trkpt><trkpt lat="44.759918266969756" lon="9.9407805476055"><ele>540.0</ele><time>2026-05-02T11:20:17.999Z</time></trkpt><trkpt lat="44.75999725982767" lon="9.940661690509641"><ele>540.0</ele><time>2026-05-02T11:20:18.999Z</time></trkpt><trkpt lat="44.76007566540023" lon="9.940544223442506"><ele>540.0</ele><time>2026-05-02T11:20:19.999Z</time></trkpt><trkpt lat="44.76015198641716" lon="9.940418231226278"><ele>540.0</ele><time>2026-05-02T11:20:20.999Z</time></trkpt><trkpt lat="44.76023243314883" lon="9.940323098374186"><ele>537.2</ele><time>2026-05-02T11:20:21.999Z</time></trkpt><trkpt lat="44.76033284811468" lon="9.940263921826315"><ele>534.4</ele><time>2026-05-02T11:20:22.999Z</time></trkpt><trkpt lat="44.76044135953747" lon="9.940232848858123"><ele>531.6</ele><time>2026-05-02T11:20:23.999Z</time></trkpt><trkpt lat="44.76055408868671" lon="9.940207809028426"><ele>528.8</ele><time>2026-05-02T11:20:24.999Z</time></trkpt><trkpt lat="44.76066333579146" lon="9.940177367489131"><ele>526.0</ele><time>2026-05-02T11:20:25.999Z</time></trkpt><trkpt lat="44.76077094824641" lon="9.940130278309786"><ele>526.0</ele><time>2026-05-02T11:20:26.999Z</time></trkpt><trkpt lat="44.76086500582495" lon="9.940078452299058"><ele>526.0</ele><time>2026-05-02T11:20:27.999Z</time></trkpt><trkpt lat="44.760945294232855" lon="9.940042661661884"><ele>526.0</ele><time>2026-05-02T11:20:28.999Z</time></trkpt><trkpt lat="44.76100994853145" lon="9.940099302710356"><ele>526.0</ele><time>2026-05-02T11:20:29.999Z</time></trkpt><trkpt lat="44.761037855215825" lon="9.940186589532761"><ele>526.0</ele><time>2026-05-02T11:20:30.999Z</time></trkpt><trkpt lat="44.76101826007252" lon="9.940271257619651"><ele>526.0</ele><time>2026-05-02T11:20:31.999Z</time></trkpt><trkpt lat="44.760918165582204" lon="9.940393436307456"><ele>526.0</ele><time>2026-05-02T11:20:33.999Z</time></trkpt><trkpt lat="44.76086404734295" lon="9.94047624526451"><ele>526.0</ele><time>2026-05-02T11:20:34.999Z</time></trkpt><trkpt lat="44.760806859401725" lon="9.940562488174205"><ele>526.0</ele><time>2026-05-02T11:20:35.999Z</time></trkpt><trkpt lat="44.7607465314657" lon="9.940653466387902"><ele>526.0</ele><time>2026-05-02T11:20:36.999Z</time></trkpt><trkpt lat="44.76068808040882" lon="9.94074161415714"><ele>526.0</ele><time>2026-05-02T11:20:37.999Z</time></trkpt><trkpt lat="44.760625044110725" lon="9.94083959778506"><ele>526.0</ele><time>2026-05-02T11:20:38.999Z</time></trkpt><trkpt lat="44.76056744884776" lon="9.940946210919082"><ele>523.8</ele><time>2026-05-02T11:20:39.999Z</time></trkpt><trkpt lat="44.76051498179429" lon="9.941066364493237"><ele>521.6</ele><time>2026-05-02T11:20:40.999Z</time></trkpt><trkpt lat="44.76047424690622" lon="9.941203064369757"><ele>519.4</ele><time>2026-05-02T11:20:41.999Z</time></trkpt><trkpt lat="44.76044168220134" lon="9.94134051897708"><ele>517.2</ele><time>2026-05-02T11:20:42.999Z</time></trkpt><trkpt lat="44.76041188619743" lon="9.941477734046204"><ele>515.0</ele><time>2026-05-02T11:20:43.999Z</time></trkpt><trkpt lat="44.760383001821026" lon="9.941615452414133"><ele>514.6</ele><time>2026-05-02T11:20:44.999Z</time></trkpt><trkpt lat="44.76035560368016" lon="9.94175506030902"><ele>514.2</ele><time>2026-05-02T11:20:45.999Z</time></trkpt><trkpt lat="44.76032902409356" lon="9.941892695187581"><ele>513.8</ele><time>2026-05-02T11:20:46.999Z</time></trkpt><trkpt lat="44.76030273579327" lon="9.94203814027891"><ele>513.4</ele><time>2026-05-02T11:20:47.999Z</time></trkpt><trkpt lat="44.76027948540627" lon="9.942182264185547"><ele>513.0</ele><time>2026-05-02T11:20:48.999Z</time></trkpt><trkpt lat="44.760257493342195" lon="9.942328450504784"><ele>513.0</ele><time>2026-05-02T11:20:49.999Z</time></trkpt><trkpt lat="44.76024137025497" lon="9.942474196902728"><ele>513.0</ele><time>2026-05-02T11:20:50.999Z</time></trkpt><trkpt lat="44.76024360364641" lon="9.942620744056594"><ele>513.0</ele><time>2026-05-02T11:20:51.999Z</time></trkpt><trkpt lat="44.7603056735196" lon="9.942761245504096"><ele>513.0</ele><time>2026-05-02T11:20:52.999Z</time></trkpt><trkpt lat="44.76037959237969" lon="9.942873523400388"><ele>513.0</ele><time>2026-05-02T11:20:53.999Z</time></trkpt><trkpt lat="44.760444167170476" lon="9.94298545985086"><ele>513.4</ele><time>2026-05-02T11:20:54.999Z</time></trkpt><trkpt lat="44.760498446976726" lon="9.943101944138151"><ele>513.8</ele><time>2026-05-02T11:20:55.999Z</time></trkpt><trkpt lat="44.76053664806376" lon="9.943229668815608"><ele>514.2</ele><time>2026-05-02T11:20:56.999Z</time></trkpt><trkpt lat="44.76056809614051" lon="9.94336585402691"><ele>514.6</ele><time>2026-05-02T11:20:57.999Z</time></trkpt><trkpt lat="44.76060039875617" lon="9.943507886808321"><ele>515.0</ele><time>2026-05-02T11:20:58.999Z</time></trkpt><trkpt lat="44.7606327777669" lon="9.943655564472108"><ele>514.0</ele><time>2026-05-02T11:20:59.999Z</time></trkpt><trkpt lat="44.76066762393341" lon="9.943799243643104"><ele>513.0</ele><time>2026-05-02T11:21:00.999Z</time></trkpt><trkpt lat="44.760713357029836" lon="9.943930266012263"><ele>512.0</ele><time>2026-05-02T11:21:01.999Z</time></trkpt><trkpt lat="44.76076778052461" lon="9.944036717132194"><ele>511.0</ele><time>2026-05-02T11:21:02.998Z</time></trkpt><trkpt lat="44.760837735500814" lon="9.944101538251466"><ele>510.0</ele><time>2026-05-02T11:21:03.998Z</time></trkpt><trkpt lat="44.76091722058073" lon="9.944106851887694"><ele>510.0</ele><time>2026-05-02T11:21:04.998Z</time></trkpt><trkpt lat="44.76098944103801" lon="9.944007121005281"><ele>510.0</ele><time>2026-05-02T11:21:05.998Z</time></trkpt><trkpt lat="44.76102779869188" lon="9.943893109637823"><ele>510.0</ele><time>2026-05-02T11:21:06.998Z</time></trkpt><trkpt lat="44.76105016860831" lon="9.943780705006036"><ele>510.0</ele><time>2026-05-02T11:21:07.998Z</time></trkpt><trkpt lat="44.761066341229906" lon="9.94367280546641"><ele>510.0</ele><time>2026-05-02T11:21:08.998Z</time></trkpt><trkpt lat="44.76108279760674" lon="9.94356349054902"><ele>510.0</ele><time>2026-05-02T11:21:09.998Z</time></trkpt><trkpt lat="44.76109295247471" lon="9.943451466352133"><ele>510.8333333333333</ele><time>2026-05-02T11:21:10.998Z</time></trkpt><trkpt lat="44.76109278393897" lon="9.943333198230473"><ele>511.66666666666663</ele><time>2026-05-02T11:21:11.998Z</time></trkpt><trkpt lat="44.761078972937675" lon="9.943213734103063"><ele>512.5</ele><time>2026-05-02T11:21:12.998Z</time></trkpt><trkpt lat="44.76104349680258" lon="9.943097803628127"><ele>513.3333333333333</ele><time>2026-05-02T11:21:13.998Z</time></trkpt><trkpt lat="44.761001475160334" lon="9.942978029968081"><ele>514.1666666666666</ele><time>2026-05-02T11:21:14.998Z</time></trkpt><trkpt lat="44.760974697092045" lon="9.942856173764888"><ele>515.0</ele><time>2026-05-02T11:21:15.998Z</time></trkpt><trkpt lat="44.76097200246861" lon="9.942720075200906"><ele>515.0</ele><time>2026-05-02T11:21:16.998Z</time></trkpt><trkpt lat="44.76099576031384" lon="9.942591021388319"><ele>515.0</ele><time>2026-05-02T11:21:17.998Z</time></trkpt><trkpt lat="44.761041139159985" lon="9.942463467964485"><ele>515.0</ele><time>2026-05-02T11:21:18.998Z</time></trkpt><trkpt lat="44.76110772970244" lon="9.942351841831561"><ele>515.0</ele><time>2026-05-02T11:21:19.998Z</time></trkpt><trkpt lat="44.76117363279917" lon="9.94224020969351"><ele>515.0</ele><time>2026-05-02T11:21:20.998Z</time></trkpt><trkpt lat="44.76124545986447" lon="9.942130698221359"><ele>512.4</ele><time>2026-05-02T11:21:21.998Z</time></trkpt><trkpt lat="44.761314137672656" lon="9.942015013673549"><ele>509.8</ele><time>2026-05-02T11:21:22.998Z</time></trkpt><trkpt lat="44.761385876592016" lon="9.941896725356587"><ele>507.20000000000005</ele><time>2026-05-02T11:21:23.998Z</time></trkpt><trkpt lat="44.7614705441071" lon="9.941793972355413"><ele>504.6</ele><time>2026-05-02T11:21:24.998Z</time></trkpt><trkpt lat="44.76156677223772" lon="9.941713967401089"><ele>502.0</ele><time>2026-05-02T11:21:25.998Z</time></trkpt><trkpt lat="44.76167997269175" lon="9.941661839643935"><ele>502.0</ele><time>2026-05-02T11:21:26.998Z</time></trkpt><trkpt lat="44.76179497134858" lon="9.941661116227126"><ele>502.0</ele><time>2026-05-02T11:21:27.998Z</time></trkpt><trkpt lat="44.76190983197999" lon="9.941678174446064"><ele>502.0</ele><time>2026-05-02T11:21:28.998Z</time></trkpt><trkpt lat="44.76202836665694" lon="9.941668693032009"><ele>502.0</ele><time>2026-05-02T11:21:29.998Z</time></trkpt><trkpt lat="44.762143047193845" lon="9.94167227273844"><ele>499.25</ele><time>2026-05-02T11:21:30.998Z</time></trkpt><trkpt lat="44.76225321644143" lon="9.941621992867043"><ele>496.5</ele><time>2026-05-02T11:21:31.998Z</time></trkpt><trkpt lat="44.7623468733166" lon="9.941512328633161"><ele>493.75</ele><time>2026-05-02T11:21:32.998Z</time></trkpt><trkpt lat="44.76242279290666" lon="9.941376850210295"><ele>491.0</ele><time>2026-05-02T11:21:34Z</time></trkpt><trkpt lat="44.76248330906242" lon="9.941238973363058"><ele>491.0</ele><time>2026-05-02T11:21:35Z</time></trkpt><trkpt lat="44.76255095917013" lon="9.941112945704779"><ele>491.0</ele><time>2026-05-02T11:21:36Z</time></trkpt><trkpt lat="44.762622820259004" lon="9.941019022133952"><ele>491.0</ele><time>2026-05-02T11:21:37Z</time></trkpt><trkpt lat="44.762723690298984" lon="9.941017434994093"><ele>491.0</ele><time>2026-05-02T11:21:38Z</time></trkpt><trkpt lat="44.76282215849096" lon="9.941060162002254"><ele>491.0</ele><time>2026-05-02T11:21:39Z</time></trkpt><trkpt lat="44.762912802958056" lon="9.94113184921914"><ele>488.4</ele><time>2026-05-02T11:21:40Z</time></trkpt><trkpt lat="44.7630131933607" lon="9.941160189498005"><ele>485.8</ele><time>2026-05-02T11:21:41Z</time></trkpt><trkpt lat="44.76310356144233" lon="9.941196659121944"><ele>483.19999999999993</ele><time>2026-05-02T11:21:42Z</time></trkpt><trkpt lat="44.76320232005385" lon="9.941192612686374"><ele>480.59999999999997</ele><time>2026-05-02T11:21:43Z</time></trkpt><trkpt lat="44.76330553003855" lon="9.941155678731766"><ele>478.0</ele><time>2026-05-02T11:21:44Z</time></trkpt><trkpt lat="44.763397452557776" lon="9.94108623920053"><ele>478.0</ele><time>2026-05-02T11:21:45Z</time></trkpt><trkpt lat="44.76348872786513" lon="9.941045670613397"><ele>477.99999999999994</ele><time>2026-05-02T11:21:46Z</time></trkpt><trkpt lat="44.76357746726946" lon="9.940989265901026"><ele>477.99999999999994</ele><time>2026-05-02T11:21:47Z</time></trkpt><trkpt lat="44.763666143303986" lon="9.940919069516097"><ele>478.0</ele><time>2026-05-02T11:21:48Z</time></trkpt><trkpt lat="44.76374622201706" lon="9.940823437606218"><ele>478.0</ele><time>2026-05-02T11:21:49Z</time></trkpt><trkpt lat="44.763811914690756" lon="9.940706950398273"><ele>476.59999999999997</ele><time>2026-05-02T11:21:50Z</time></trkpt><trkpt lat="44.76386057495104" lon="9.94057581094845"><ele>475.19999999999993</ele><time>2026-05-02T11:21:51Z</time></trkpt><trkpt lat="44.763907353901374" lon="9.940479254728832"><ele>473.8</ele><time>2026-05-02T11:21:52Z</time></trkpt><trkpt lat="44.764009994639025" lon="9.94048681399192"><ele>472.4</ele><time>2026-05-02T11:21:54Z</time></trkpt><trkpt lat="44.763992259489825" lon="9.940612311096436"><ele>471.0</ele><time>2026-05-02T11:21:55Z</time></trkpt><trkpt lat="44.76393457874278" lon="9.940739556792137"><ele>471.0</ele><time>2026-05-02T11:21:57Z</time></trkpt><trkpt lat="44.76390066841003" lon="9.940833490782508"><ele>471.0</ele><time>2026-05-02T11:21:58Z</time></trkpt><trkpt lat="44.7638473185397" lon="9.94093306401217"><ele>471.0</ele><time>2026-05-02T11:21:59Z</time></trkpt><trkpt lat="44.76378431733966" lon="9.94103817292897"><ele>471.0</ele><time>2026-05-02T11:22:00Z</time></trkpt><trkpt lat="44.76372112757829" lon="9.941146384676381"><ele>471.0</ele><time>2026-05-02T11:22:01Z</time></trkpt><trkpt lat="44.763657573406824" lon="9.941263467544681"><ele>470.0</ele><time>2026-05-02T11:22:02Z</time></trkpt><trkpt lat="44.763596837917454" lon="9.941384319666422"><ele>469.0</ele><time>2026-05-02T11:22:03Z</time></trkpt><trkpt lat="44.763535559496006" lon="9.941503485341139"><ele>468.0</ele><time>2026-05-02T11:22:04Z</time></trkpt><trkpt lat="44.7634710097127" lon="9.941627685785711"><ele>467.0</ele><time>2026-05-02T11:22:05Z</time></trkpt><trkpt lat="44.763407809424535" lon="9.941755568673306"><ele>466.0</ele><time>2026-05-02T11:22:06Z</time></trkpt><trkpt lat="44.76333496519219" lon="9.941891822527595"><ele>466.0</ele><time>2026-05-02T11:22:07Z</time></trkpt><trkpt lat="44.76326910858513" lon="9.942028816034231"><ele>466.0</ele><time>2026-05-02T11:22:08Z</time></trkpt><trkpt lat="44.763208155827364" lon="9.942171280246999"><ele>466.0</ele><time>2026-05-02T11:22:09Z</time></trkpt><trkpt lat="44.76315131533971" lon="9.94231682356208"><ele>466.0</ele><time>2026-05-02T11:22:10Z</time></trkpt><trkpt lat="44.76310180796124" lon="9.942453937646638"><ele>465.6</ele><time>2026-05-02T11:22:11Z</time></trkpt><trkpt lat="44.76308729892591" lon="9.942565629272238"><ele>465.20000000000005</ele><time>2026-05-02T11:22:11.999Z</time></trkpt><trkpt lat="44.763092531760726" lon="9.94270090611221"><ele>464.79999999999995</ele><time>2026-05-02T11:22:12.999Z</time></trkpt><trkpt lat="44.76315983400903" lon="9.942806752384904"><ele>464.4</ele><time>2026-05-02T11:22:13.999Z</time></trkpt><trkpt lat="44.763296874031" lon="9.94282428375887"><ele>464.0</ele><time>2026-05-02T11:22:14.999Z</time></trkpt><trkpt lat="44.763363119188185" lon="9.942791931900373"><ele>464.0</ele><time>2026-05-02T11:22:15.999Z</time></trkpt><trkpt lat="44.7634641162266" lon="9.942756104005031"><ele>464.0</ele><time>2026-05-02T11:22:16.999Z</time></trkpt><trkpt lat="44.76356511699531" lon="9.94271212166987"><ele>464.0</ele><time>2026-05-02T11:22:17.999Z</time></trkpt><trkpt lat="44.76370255526653" lon="9.942600058698947"><ele>464.0</ele><time>2026-05-02T11:22:18.999Z</time></trkpt><trkpt lat="44.763801253914366" lon="9.942526088942792"><ele>461.75</ele><time>2026-05-02T11:22:19.999Z</time></trkpt><trkpt lat="44.76388539943513" lon="9.942405569452783"><ele>459.5</ele><time>2026-05-02T11:22:20.999Z</time></trkpt><trkpt lat="44.76397828391088" lon="9.942298829724848"><ele>457.25</ele><time>2026-05-02T11:22:21.999Z</time></trkpt><trkpt lat="44.76408410239871" lon="9.942214838715234"><ele>455.0</ele><time>2026-05-02T11:22:22.999Z</time></trkpt><trkpt lat="44.764188552396874" lon="9.942125519519838"><ele>455.0</ele><time>2026-05-02T11:22:23.999Z</time></trkpt><trkpt lat="44.76429597359822" lon="9.942040672088575"><ele>455.0</ele><time>2026-05-02T11:22:24.999Z</time></trkpt><trkpt lat="44.764406328295415" lon="9.941956842098309"><ele>455.0</ele><time>2026-05-02T11:22:25.999Z</time></trkpt><trkpt lat="44.76452108843034" lon="9.941869944466909"><ele>455.0</ele><time>2026-05-02T11:22:26.999Z</time></trkpt><trkpt lat="44.76463456670461" lon="9.94176358109296"><ele>452.25</ele><time>2026-05-02T11:22:27.999Z</time></trkpt><trkpt lat="44.76475368327515" lon="9.941671644812901"><ele>449.5</ele><time>2026-05-02T11:22:28.999Z</time></trkpt><trkpt lat="44.76487672396742" lon="9.941585906045315"><ele>446.75</ele><time>2026-05-02T11:22:29.999Z</time></trkpt><trkpt lat="44.76499887001628" lon="9.941498355397464"><ele>444.0</ele><time>2026-05-02T11:22:30.999Z</time></trkpt><trkpt lat="44.765121938762164" lon="9.941401860605026"><ele>441.0</ele><time>2026-05-02T11:22:31.999Z</time></trkpt><trkpt lat="44.76524142580054" lon="9.941305309351208"><ele>438.0</ele><time>2026-05-02T11:22:32.999Z</time></trkpt><trkpt lat="44.76536537095458" lon="9.941211425900637"><ele>435.0</ele><time>2026-05-02T11:22:33.999Z</time></trkpt><trkpt lat="44.765488906007135" lon="9.941120529224925"><ele>432.0</ele><time>2026-05-02T11:22:34.999Z</time></trkpt><trkpt lat="44.76561401445142" lon="9.941031759238559"><ele>432.0</ele><time>2026-05-02T11:22:35.999Z</time></trkpt><trkpt lat="44.76574633317832" lon="9.940970629180086"><ele>432.0</ele><time>2026-05-02T11:22:36.999Z</time></trkpt><trkpt lat="44.76587933001314" lon="9.940910312325174"><ele>432.0</ele><time>2026-05-02T11:22:37.999Z</time></trkpt><trkpt lat="44.76601235084105" lon="9.940851665857664"><ele>432.0</ele><time>2026-05-02T11:22:38.999Z</time></trkpt><trkpt lat="44.766139287744494" lon="9.940777440857778"><ele>432.0</ele><time>2026-05-02T11:22:39.999Z</time></trkpt><trkpt lat="44.76627303429868" lon="9.940731756669578"><ele>432.0</ele><time>2026-05-02T11:22:40.999Z</time></trkpt><trkpt lat="44.76640534277244" lon="9.940677391189425"><ele>432.0</ele><time>2026-05-02T11:22:41.999Z</time></trkpt><trkpt lat="44.766535166859164" lon="9.940613208480878"><ele>432.0</ele><time>2026-05-02T11:22:42.999Z</time></trkpt><trkpt lat="44.766666326945966" lon="9.940559225646526"><ele>432.0</ele><time>2026-05-02T11:22:43.999Z</time></trkpt><trkpt lat="44.766804174741836" lon="9.94052394032892"><ele>432.0</ele><time>2026-05-02T11:22:44.999Z</time></trkpt><trkpt lat="44.766942293032905" lon="9.940496641734965"><ele>432.0</ele><time>2026-05-02T11:22:45.999Z</time></trkpt><trkpt lat="44.76708138115331" lon="9.940468771820923"><ele>432.0</ele><time>2026-05-02T11:22:46.999Z</time></trkpt><trkpt lat="44.767219678684974" lon="9.94044166331683"><ele>431.25</ele><time>2026-05-02T11:22:47.999Z</time></trkpt><trkpt lat="44.767356690416634" lon="9.940415231855713"><ele>430.5</ele><time>2026-05-02T11:22:48.999Z</time></trkpt><trkpt lat="44.76749191076833" lon="9.940380710242463"><ele>429.75</ele><time>2026-05-02T11:22:49.999Z</time></trkpt><trkpt lat="44.7676257067129" lon="9.94034662715944"><ele>429.0</ele><time>2026-05-02T11:22:50.999Z</time></trkpt><trkpt lat="44.76775480320393" lon="9.940321685493817"><ele>428.0</ele><time>2026-05-02T11:22:51.999Z</time></trkpt><trkpt lat="44.76787746023918" lon="9.940347088757909"><ele>427.0</ele><time>2026-05-02T11:22:52.999Z</time></trkpt><trkpt lat="44.767995744885155" lon="9.94038306750787"><ele>426.0</ele><time>2026-05-02T11:22:53.999Z</time></trkpt><trkpt lat="44.76811411613062" lon="9.940431559884182"><ele>425.0</ele><time>2026-05-02T11:22:54.999Z</time></trkpt><trkpt lat="44.76821992449752" lon="9.940497213058103"><ele>425.0</ele><time>2026-05-02T11:22:55.999Z</time></trkpt><trkpt lat="44.76831548046463" lon="9.940573333886043"><ele>425.0</ele><time>2026-05-02T11:22:56.999Z</time></trkpt><trkpt lat="44.76839425107652" lon="9.94066928316014"><ele>425.0</ele><time>2026-05-02T11:22:57.999Z</time></trkpt><trkpt lat="44.76845862782263" lon="9.940787133329826"><ele>425.0</ele><time>2026-05-02T11:22:58.999Z</time></trkpt><trkpt lat="44.76850469167455" lon="9.940925973531266"><ele>425.0</ele><time>2026-05-02T11:22:59.999Z</time></trkpt><trkpt lat="44.76852950047272" lon="9.941069443045048"><ele>422.5</ele><time>2026-05-02T11:23:00.999Z</time></trkpt><trkpt lat="44.76856075340093" lon="9.941222036550364"><ele>420.0</ele><time>2026-05-02T11:23:01.999Z</time></trkpt><trkpt lat="44.76860922132" lon="9.941379827463166"><ele>417.5</ele><time>2026-05-02T11:23:02.999Z</time></trkpt><trkpt lat="44.7686842435281" lon="9.94150809465288"><ele>415.0</ele><time>2026-05-02T11:23:03.999Z</time></trkpt><trkpt lat="44.768795831771186" lon="9.941596766725725"><ele>415.0</ele><time>2026-05-02T11:23:04.999Z</time></trkpt><trkpt lat="44.76890925177742" lon="9.941666518384006"><ele>415.0</ele><time>2026-05-02T11:23:05.998Z</time></trkpt><trkpt lat="44.76902565006224" lon="9.941718590861722"><ele>415.0</ele><time>2026-05-02T11:23:06.998Z</time></trkpt><trkpt lat="44.76914219028832" lon="9.94175969856674"><ele>415.0</ele><time>2026-05-02T11:23:07.998Z</time></trkpt><trkpt lat="44.76926224427823" lon="9.94178789866126"><ele>414.25</ele><time>2026-05-02T11:23:08.998Z</time></trkpt><trkpt lat="44.76938378981784" lon="9.941773738804125"><ele>413.5</ele><time>2026-05-02T11:23:09.998Z</time></trkpt><trkpt lat="44.76950400946963" lon="9.941757508149392"><ele>412.75</ele><time>2026-05-02T11:23:10.998Z</time></trkpt><trkpt lat="44.76962027076858" lon="9.94171033131731"><ele>412.0</ele><time>2026-05-02T11:23:11.998Z</time></trkpt><trkpt lat="44.769728516599514" lon="9.941630378954711"><ele>412.0</ele><time>2026-05-02T11:23:12.998Z</time></trkpt><trkpt lat="44.769821773578926" lon="9.941517887266142"><ele>412.0</ele><time>2026-05-02T11:23:13.998Z</time></trkpt><trkpt lat="44.76990815046152" lon="9.94138932708922"><ele>412.0</ele><time>2026-05-02T11:23:14.998Z</time></trkpt><trkpt lat="44.769987152615194" lon="9.941253654712872"><ele>412.0</ele><time>2026-05-02T11:23:15.998Z</time></trkpt><trkpt lat="44.770050212577374" lon="9.941100973360435"><ele>412.0</ele><time>2026-05-02T11:23:16.998Z</time></trkpt><trkpt lat="44.77010997251019" lon="9.940939031428153"><ele>412.0</ele><time>2026-05-02T11:23:17.998Z</time></trkpt><trkpt lat="44.7701673509822" lon="9.940781228937688"><ele>412.0</ele><time>2026-05-02T11:23:18.998Z</time></trkpt><trkpt lat="44.77022463999304" lon="9.940622963477047"><ele>412.0</ele><time>2026-05-02T11:23:19.998Z</time></trkpt><trkpt lat="44.77028722274708" lon="9.940482364583652"><ele>407.25</ele><time>2026-05-02T11:23:20.998Z</time></trkpt><trkpt lat="44.770382330462986" lon="9.94041370592883"><ele>402.5</ele><time>2026-05-02T11:23:21.998Z</time></trkpt><trkpt lat="44.77049077405435" lon="9.940381573852793"><ele>397.75</ele><time>2026-05-02T11:23:22.998Z</time></trkpt><trkpt lat="44.770613707505206" lon="9.940334581532653"><ele>393.0</ele><time>2026-05-02T11:23:23.998Z</time></trkpt><trkpt lat="44.77072123156588" lon="9.940268226964346"><ele>393.0</ele><time>2026-05-02T11:23:24.998Z</time></trkpt><trkpt lat="44.770833562518504" lon="9.940191702420835"><ele>393.0</ele><time>2026-05-02T11:23:25.998Z</time></trkpt><trkpt lat="44.77093878812521" lon="9.940096523597017"><ele>393.0</ele><time>2026-05-02T11:23:26.998Z</time></trkpt><trkpt lat="44.77104485070455" lon="9.940005924807952"><ele>393.0</ele><time>2026-05-02T11:23:27.998Z</time></trkpt><trkpt lat="44.77114932459876" lon="9.939921348359727"><ele>390.0</ele><time>2026-05-02T11:23:28.998Z</time></trkpt><trkpt lat="44.771268118850905" lon="9.939854508081993"><ele>387.0</ele><time>2026-05-02T11:23:29.998Z</time></trkpt><trkpt lat="44.77137785180071" lon="9.939799479894136"><ele>384.0</ele><time>2026-05-02T11:23:30.998Z</time></trkpt><trkpt lat="44.77147618297187" lon="9.939754120082807"><ele>381.0</ele><time>2026-05-02T11:23:31.998Z</time></trkpt><trkpt lat="44.7715708380682" lon="9.939706966991283"><ele>378.0</ele><time>2026-05-02T11:23:32.998Z</time></trkpt><trkpt lat="44.771656740244914" lon="9.939647116748821"><ele>378.0</ele><time>2026-05-02T11:23:33.998Z</time></trkpt><trkpt lat="44.77173231098042" lon="9.939549430967718"><ele>378.0</ele><time>2026-05-02T11:23:34.998Z</time></trkpt><trkpt lat="44.771786992528874" lon="9.93942508928544"><ele>378.0</ele><time>2026-05-02T11:23:35.998Z</time></trkpt><trkpt lat="44.77182371668672" lon="9.93928625969991"><ele>378.0</ele><time>2026-05-02T11:23:36.998Z</time></trkpt><trkpt lat="44.77183250965619" lon="9.939136836275772"><ele>378.0</ele><time>2026-05-02T11:23:37.998Z</time></trkpt><trkpt lat="44.77182641332949" lon="9.938994860469416"><ele>380.59999999999997</ele><time>2026-05-02T11:23:39Z</time></trkpt><trkpt lat="44.77179677816703" lon="9.938858266844717"><ele>383.2</ele><time>2026-05-02T11:23:40Z</time></trkpt><trkpt lat="44.77174778368403" lon="9.938738195345422"><ele>385.8</ele><time>2026-05-02T11:23:41Z</time></trkpt><trkpt lat="44.771660831665656" lon="9.938641312108821"><ele>388.4</ele><time>2026-05-02T11:23:42Z</time></trkpt><trkpt lat="44.771568133228186" lon="9.938561478242791"><ele>391.0</ele><time>2026-05-02T11:23:43Z</time></trkpt><trkpt lat="44.771469151156644" lon="9.93851385434758"><ele>391.0</ele><time>2026-05-02T11:23:44Z</time></trkpt><trkpt lat="44.771361612479616" lon="9.938518655451986"><ele>391.0</ele><time>2026-05-02T11:23:45Z</time></trkpt><trkpt lat="44.77125174199635" lon="9.938563024243296"><ele>391.0</ele><time>2026-05-02T11:23:46Z</time></trkpt><trkpt lat="44.77114702031" lon="9.93861773176074"><ele>391.0</ele><time>2026-05-02T11:23:47Z</time></trkpt><trkpt lat="44.771035465597215" lon="9.93865601534825"><ele>391.0</ele><time>2026-05-02T11:23:48Z</time></trkpt><trkpt lat="44.770923860546404" lon="9.938678115011243"><ele>390.8</ele><time>2026-05-02T11:23:49Z</time></trkpt><trkpt lat="44.77082135828079" lon="9.938675869774505"><ele>390.6</ele><time>2026-05-02T11:23:50Z</time></trkpt><trkpt lat="44.7707215279035" lon="9.93862435407886"><ele>390.4</ele><time>2026-05-02T11:23:51Z</time></trkpt><trkpt lat="44.7706286464392" lon="9.938530719835843"><ele>390.2</ele><time>2026-05-02T11:23:52Z</time></trkpt><trkpt lat="44.770537920909234" lon="9.938429451525378"><ele>390.0</ele><time>2026-05-02T11:23:53Z</time></trkpt><trkpt lat="44.77044400359159" lon="9.938335456403296"><ele>387.8</ele><time>2026-05-02T11:23:54Z</time></trkpt><trkpt lat="44.7703464278719" lon="9.938241203136272"><ele>385.6</ele><time>2026-05-02T11:23:55Z</time></trkpt><trkpt lat="44.77025014052247" lon="9.938153853262651"><ele>383.4</ele><time>2026-05-02T11:23:56Z</time></trkpt><trkpt lat="44.770176582402954" lon="9.93805284680373"><ele>381.2</ele><time>2026-05-02T11:23:57Z</time></trkpt><trkpt lat="44.77013719401742" lon="9.937927656116893"><ele>379.0</ele><time>2026-05-02T11:23:58Z</time></trkpt><trkpt lat="44.77014883870854" lon="9.937789967826456"><ele>379.0</ele><time>2026-05-02T11:23:59Z</time></trkpt><trkpt lat="44.77020176441864" lon="9.937670585946975"><ele>379.0</ele><time>2026-05-02T11:24:00Z</time></trkpt><trkpt lat="44.77026919398348" lon="9.93758170141013"><ele>379.0</ele><time>2026-05-02T11:24:01Z</time></trkpt><trkpt lat="44.77037254314903" lon="9.937567743336775"><ele>379.0</ele><time>2026-05-02T11:24:02Z</time></trkpt><trkpt lat="44.77045326517948" lon="9.937620605773594"><ele>379.0</ele><time>2026-05-02T11:24:03Z</time></trkpt><trkpt lat="44.77051691207561" lon="9.937679785626571"><ele>379.0</ele><time>2026-05-02T11:24:04Z</time></trkpt><trkpt lat="44.770563369012564" lon="9.93776031183302"><ele>379.0</ele><time>2026-05-02T11:24:05Z</time></trkpt><trkpt lat="44.77058348966206" lon="9.937901739438672"><ele>379.0</ele><time>2026-05-02T11:24:06Z</time></trkpt><trkpt lat="44.77064083349088" lon="9.937984112467987"><ele>379.0</ele><time>2026-05-02T11:24:07Z</time></trkpt><trkpt lat="44.770717585381654" lon="9.938089918165886"><ele>379.0</ele><time>2026-05-02T11:24:08Z</time></trkpt><trkpt lat="44.7708844775971" lon="9.938080690939623"><ele>379.0</ele><time>2026-05-02T11:24:09Z</time></trkpt><trkpt lat="44.770998503393265" lon="9.937965574432958"><ele>379.0</ele><time>2026-05-02T11:24:10Z</time></trkpt><trkpt lat="44.771058611843074" lon="9.937827287526895"><ele>379.0</ele><time>2026-05-02T11:24:11Z</time></trkpt><trkpt lat="44.771133214951924" lon="9.937749430090504"><ele>379.0</ele><time>2026-05-02T11:24:12Z</time></trkpt><trkpt lat="44.77120151700137" lon="9.937673401354091"><ele>379.0</ele><time>2026-05-02T11:24:13Z</time></trkpt><trkpt lat="44.77128207606473" lon="9.937619732527512"><ele>378.8333333333333</ele><time>2026-05-02T11:24:14Z</time></trkpt><trkpt lat="44.77137348129187" lon="9.93759493556924"><ele>378.66666666666663</ele><time>2026-05-02T11:24:14.999Z</time></trkpt><trkpt lat="44.771461095083545" lon="9.937626278525554"><ele>378.5</ele><time>2026-05-02T11:24:15.999Z</time></trkpt><trkpt lat="44.77154498316243" lon="9.937680863757379"><ele>378.3333333333333</ele><time>2026-05-02T11:24:16.999Z</time></trkpt><trkpt lat="44.771629999832065" lon="9.937711425339035"><ele>378.1666666666667</ele><time>2026-05-02T11:24:17.999Z</time></trkpt><trkpt lat="44.77170605038205" lon="9.93771466039506"><ele>378.0</ele><time>2026-05-02T11:24:18.999Z</time></trkpt><trkpt lat="44.77177882040067" lon="9.937514556026896"><ele>375.0</ele><time>2026-05-02T11:24:20.999Z</time></trkpt><trkpt lat="44.77171583285544" lon="9.937435455333642"><ele>372.0</ele><time>2026-05-02T11:24:21.999Z</time></trkpt><trkpt lat="44.7716455032603" lon="9.937408703345215"><ele>369.0</ele><time>2026-05-02T11:24:22.999Z</time></trkpt><trkpt lat="44.77152123272901" lon="9.937378038237696"><ele>366.0</ele><time>2026-05-02T11:24:23.999Z</time></trkpt><trkpt lat="44.771458044195114" lon="9.937366512692392"><ele>363.0</ele><time>2026-05-02T11:24:24.999Z</time></trkpt><trkpt lat="44.7713925785474" lon="9.937351541406107"><ele>360.0</ele><time>2026-05-02T11:24:25.999Z</time></trkpt><trkpt lat="44.77132537790284" lon="9.93733794736792"><ele>360.0</ele><time>2026-05-02T11:24:26.999Z</time></trkpt><trkpt lat="44.77125415005295" lon="9.93732242175419"><ele>360.0</ele><time>2026-05-02T11:24:27.999Z</time></trkpt><trkpt lat="44.77118363039902" lon="9.93730019799628"><ele>360.0</ele><time>2026-05-02T11:24:28.999Z</time></trkpt><trkpt lat="44.7711219135482" lon="9.93726387685962"><ele>360.0</ele><time>2026-05-02T11:24:29.999Z</time></trkpt><trkpt lat="44.7711300668192" lon="9.937091994432267"><ele>360.0</ele><time>2026-05-02T11:24:31.999Z</time></trkpt><trkpt lat="44.77122780669396" lon="9.93709751644419"><ele>360.0</ele><time>2026-05-02T11:24:32.999Z</time></trkpt><trkpt lat="44.771292007251894" lon="9.937139148771244"><ele>360.0</ele><time>2026-05-02T11:24:33.999Z</time></trkpt><trkpt lat="44.7713742004141" lon="9.937159346756083"><ele>360.0</ele><time>2026-05-02T11:24:34.999Z</time></trkpt><trkpt lat="44.77145853865375" lon="9.937184145934312"><ele>360.0</ele><time>2026-05-02T11:24:35.999Z</time></trkpt><trkpt lat="44.7715459615322" lon="9.937209852047278"><ele>360.0</ele><time>2026-05-02T11:24:36.999Z</time></trkpt><trkpt lat="44.7716375303303" lon="9.937236777278647"><ele>360.0</ele><time>2026-05-02T11:24:37.999Z</time></trkpt><trkpt lat="44.77173312126928" lon="9.937264885303515"><ele>360.0</ele><time>2026-05-02T11:24:38.999Z</time></trkpt><trkpt lat="44.77183165207168" lon="9.937293857884882"><ele>360.0</ele><time>2026-05-02T11:24:39.999Z</time></trkpt><trkpt lat="44.77193287307448" lon="9.937323621154373"><ele>360.0</ele><time>2026-05-02T11:24:40.999Z</time></trkpt><trkpt lat="44.772037914687736" lon="9.937356128559465"><ele>360.0</ele><time>2026-05-02T11:24:41.999Z</time></trkpt><trkpt lat="44.77214581678732" lon="9.937371245527297"><ele>360.0</ele><time>2026-05-02T11:24:42.999Z</time></trkpt><trkpt lat="44.77224437382163" lon="9.937425821372337"><ele>361.4</ele><time>2026-05-02T11:24:43.999Z</time></trkpt><trkpt lat="44.77234123740582" lon="9.937467006174282"><ele>362.8</ele><time>2026-05-02T11:24:44.999Z</time></trkpt><trkpt lat="44.772435524361846" lon="9.937509821147875"><ele>364.20000000000005</ele><time>2026-05-02T11:24:45.999Z</time></trkpt><trkpt lat="44.77253403920227" lon="9.937531205444776"><ele>365.6</ele><time>2026-05-02T11:24:46.999Z</time></trkpt><trkpt lat="44.77262110265631" lon="9.937577726210069"><ele>367.0</ele><time>2026-05-02T11:24:47.999Z</time></trkpt><trkpt lat="44.772702200402435" lon="9.937620911469752"><ele>362.7142857142857</ele><time>2026-05-02T11:24:48.999Z</time></trkpt><trkpt lat="44.77277278865411" lon="9.937650949645299"><ele>358.42857142857144</ele><time>2026-05-02T11:24:49.999Z</time></trkpt><trkpt lat="44.77283460970453" lon="9.93767003451488"><ele>354.14285714285717</ele><time>2026-05-02T11:24:50.999Z</time></trkpt><trkpt lat="44.772878859907586" lon="9.937605190440829"><ele>349.8571428571429</ele><time>2026-05-02T11:24:51.999Z</time></trkpt><trkpt lat="44.77288538051809" lon="9.937481656710132"><ele>345.57142857142856</ele><time>2026-05-02T11:24:52.999Z</time></trkpt><trkpt lat="44.77285139857525" lon="9.937378224172825"><ele>341.28571428571433</ele><time>2026-05-02T11:24:53.999Z</time></trkpt><trkpt lat="44.772785420363746" lon="9.937315846319779"><ele>337.0</ele><time>2026-05-02T11:24:54.999Z</time></trkpt><trkpt lat="44.77271119520634" lon="9.937271348162012"><ele>336.8333333333333</ele><time>2026-05-02T11:24:55.999Z</time></trkpt><trkpt lat="44.772644890352105" lon="9.93722789457595"><ele>336.66666666666663</ele><time>2026-05-02T11:24:56.999Z</time></trkpt><trkpt lat="44.77258634205002" lon="9.937174910665165"><ele>336.5</ele><time>2026-05-02T11:24:57.999Z</time></trkpt><trkpt lat="44.77255194472462" lon="9.937016123045202"><ele>336.3333333333333</ele><time>2026-05-02T11:24:59.999Z</time></trkpt><trkpt lat="44.772595742160924" lon="9.936941816682658"><ele>336.1666666666667</ele><time>2026-05-02T11:25:00.999Z</time></trkpt><trkpt lat="44.77266422005558" lon="9.936918975739063"><ele>336.0</ele><time>2026-05-02T11:25:01.999Z</time></trkpt><trkpt lat="44.77273143732402" lon="9.936988565317366"><ele>336.0</ele><time>2026-05-02T11:25:02.999Z</time></trkpt><trkpt lat="44.77279373526322" lon="9.937039885621417"><ele>336.0</ele><time>2026-05-02T11:25:03.999Z</time></trkpt><trkpt lat="44.7728610149375" lon="9.937081564223574"><ele>336.0</ele><time>2026-05-02T11:25:04.999Z</time></trkpt><trkpt lat="44.77293895772709" lon="9.937106215989102"><ele>336.0</ele><time>2026-05-02T11:25:05.999Z</time></trkpt><trkpt lat="44.773008249452225" lon="9.937153110566872"><ele>336.0</ele><time>2026-05-02T11:25:06.999Z</time></trkpt><trkpt lat="44.77306573051406" lon="9.937192156493497"><ele>336.0</ele><time>2026-05-02T11:25:07.999Z</time></trkpt><trkpt lat="44.77316534623755" lon="9.937252770301923"><ele>336.0</ele><time>2026-05-02T11:25:09.998Z</time></trkpt><trkpt lat="44.77321131565674" lon="9.937325095678217"><ele>336.0</ele><time>2026-05-02T11:25:11.998Z</time></trkpt><trkpt lat="44.77326227440985" lon="9.937384224163587"><ele>336.0</ele><time>2026-05-02T11:25:28.998Z</time></trkpt><trkpt lat="44.7733294754193" lon="9.937357954121762"><ele>336.0</ele><time>2026-05-02T11:32:49.999Z</time></trkpt><trkpt lat="44.77339486020866" lon="9.937399724061587"><ele>336.0</ele><time>2026-05-02T11:32:51.999Z</time></trkpt><trkpt lat="44.77346709325244" lon="9.937440411836445"><ele>336.0</ele><time>2026-05-02T11:32:53.999Z</time></trkpt><trkpt lat="44.773538274714426" lon="9.937483600644406"><ele>336.0</ele><time>2026-05-02T11:32:55.999Z</time></trkpt><trkpt lat="44.77360504135918" lon="9.937525401693486"><ele>335.85714285714283</ele><time>2026-05-02T11:32:57.999Z</time></trkpt><trkpt lat="44.77367151510496" lon="9.937564489331974"><ele>335.7142857142857</ele><time>2026-05-02T11:32:59.999Z</time></trkpt><trkpt lat="44.773737567097754" lon="9.937610201410644"><ele>335.57142857142856</ele><time>2026-05-02T11:33:01.999Z</time></trkpt><trkpt lat="44.77378366522942" lon="9.937672892840135"><ele>335.42857142857144</ele><time>2026-05-02T11:33:03.999Z</time></trkpt><trkpt lat="44.773848566592676" lon="9.93764800656218"><ele>335.2857142857143</ele><time>2026-05-02T11:33:06.999Z</time></trkpt><trkpt lat="44.77380214788265" lon="9.937569721753311"><ele>335.1428571428571</ele><time>2026-05-02T11:33:09.999Z</time></trkpt><trkpt lat="44.773716306681145" lon="9.937504710067758"><ele>335.0</ele><time>2026-05-02T11:33:13.999Z</time></trkpt><trkpt lat="44.77363670829642" lon="9.937458038506525"><ele>335.0</ele><time>2026-05-02T11:33:16.998Z</time></trkpt><trkpt lat="44.77355384076733" lon="9.937408057691208"><ele>335.0</ele><time>2026-05-02T11:33:19.998Z</time></trkpt><trkpt lat="44.773493999515225" lon="9.937367914838683"><ele>335.0</ele><time>2026-05-02T11:33:21.998Z</time></trkpt><trkpt lat="44.77343304534713" lon="9.937328325711185"><ele>335.0</ele><time>2026-05-02T11:33:23.998Z</time></trkpt><trkpt lat="44.77337123048385" lon="9.93730068007503"><ele>335.0</ele><time>2026-05-02T11:33:25.998Z</time></trkpt><trkpt lat="44.773288361322614" lon="9.937254433140307"><ele>335.0</ele><time>2026-05-02T11:33:28.998Z</time></trkpt><trkpt lat="44.77321548506745" lon="9.93721774757578"><ele>335.1666666666667</ele><time>2026-05-02T11:33:31.998Z</time></trkpt><trkpt lat="44.773146010991276" lon="9.937174033432237"><ele>335.33333333333337</ele><time>2026-05-02T11:33:34.998Z</time></trkpt><trkpt lat="44.773075627380685" lon="9.937140676811758"><ele>335.5</ele><time>2026-05-02T11:33:37.998Z</time></trkpt><trkpt lat="44.77300633066664" lon="9.937090911137732"><ele>335.6666666666667</ele><time>2026-05-02T11:33:40.998Z</time></trkpt><trkpt lat="44.77293788504897" lon="9.937048117929042"><ele>335.8333333333333</ele><time>2026-05-02T11:33:43.998Z</time></trkpt><trkpt lat="44.772871731370145" lon="9.937015889320532"><ele>336.0</ele><time>2026-05-02T11:33:46.998Z</time></trkpt><trkpt lat="44.77279419554267" lon="9.936969090311814"><ele>336.0</ele><time>2026-05-02T11:33:50.998Z</time></trkpt><trkpt lat="44.77272237743317" lon="9.936922261965783"><ele>336.0</ele><time>2026-05-02T11:33:54.998Z</time></trkpt><trkpt lat="44.7726369614271" lon="9.936933608349117"><ele>336.0</ele><time>2026-05-02T11:33:58.998Z</time></trkpt><trkpt lat="44.772581322370925" lon="9.936975980336927"><ele>336.0</ele><time>2026-05-02T11:34:01.998Z</time></trkpt><trkpt lat="44.77255398214562" lon="9.93706550894378"><ele>336.0</ele><time>2026-05-02T11:34:04.998Z</time></trkpt><trkpt lat="44.77256466326066" lon="9.937154933776709"><ele>336.0</ele><time>2026-05-02T11:34:07.998Z</time></trkpt><trkpt lat="44.77261223848949" lon="9.93723604474088"><ele>336.0</ele><time>2026-05-02T11:34:12Z</time></trkpt><trkpt lat="44.772695495759166" lon="9.937319650145973"><ele>336.0</ele><time>2026-05-02T11:34:16Z</time></trkpt><trkpt lat="44.772765016229684" lon="9.937378770318892"><ele>336.0</ele><time>2026-05-02T11:34:20Z</time></trkpt><trkpt lat="44.772823882684925" lon="9.937447244999039"><ele>336.0</ele><time>2026-05-02T11:34:23Z</time></trkpt><trkpt lat="44.77285619669935" lon="9.937541499350534"><ele>336.0</ele><time>2026-05-02T11:34:26Z</time></trkpt><trkpt lat="44.77279050294326" lon="9.93759942256831"><ele>336.0</ele><time>2026-05-02T11:34:30Z</time></trkpt><trkpt lat="44.772726843494205" lon="9.937585126824823"><ele>336.0</ele><time>2026-05-02T11:34:33Z</time></trkpt><trkpt lat="44.77264798686194" lon="9.937553244779524"><ele>338.14285714285717</ele><time>2026-05-02T11:34:35.999Z</time></trkpt><trkpt lat="44.77258032323487" lon="9.937519977721685"><ele>340.2857142857143</ele><time>2026-05-02T11:34:38.999Z</time></trkpt><trkpt lat="44.7725143511459" lon="9.93748820305712"><ele>342.42857142857144</ele><time>2026-05-02T11:34:41.999Z</time></trkpt><trkpt lat="44.7724470113033" lon="9.937448598398664"><ele>344.57142857142856</ele><time>2026-05-02T11:34:44.999Z</time></trkpt><trkpt lat="44.7723789707649" lon="9.937421919426132"><ele>346.7142857142857</ele><time>2026-05-02T11:34:47.999Z</time></trkpt><trkpt lat="44.772310792472126" lon="9.937387765285932"><ele>348.8571428571429</ele><time>2026-05-02T11:34:50.999Z</time></trkpt><trkpt lat="44.77224535521377" lon="9.937370381254924"><ele>351.0</ele><time>2026-05-02T11:34:53.999Z</time></trkpt><trkpt lat="44.77217977784289" lon="9.937352057195483"><ele>351.00000000000006</ele><time>2026-05-02T11:34:56.999Z</time></trkpt><trkpt lat="44.77211293196717" lon="9.9373268567242"><ele>351.0</ele><time>2026-05-02T11:34:59.999Z</time></trkpt><trkpt lat="44.7720479180674" lon="9.937300498142138"><ele>351.0</ele><time>2026-05-02T11:35:02.999Z</time></trkpt><trkpt lat="44.77197940126399" lon="9.937283843674289"><ele>351.0</ele><time>2026-05-02T11:35:05.999Z</time></trkpt><trkpt lat="44.77191097044735" lon="9.937260332680376"><ele>351.0</ele><time>2026-05-02T11:35:08.999Z</time></trkpt><trkpt lat="44.77184252540184" lon="9.937242280573168"><ele>351.00000000000006</ele><time>2026-05-02T11:35:11.999Z</time></trkpt><trkpt lat="44.77177738041583" lon="9.937219416878055"><ele>351.0</ele><time>2026-05-02T11:35:14.999Z</time></trkpt><trkpt lat="44.771709685808226" lon="9.937200677488788"><ele>352.28571428571433</ele><time>2026-05-02T11:35:17.999Z</time></trkpt><trkpt lat="44.77164336240894" lon="9.937182694100207"><ele>353.57142857142856</ele><time>2026-05-02T11:35:20.999Z</time></trkpt><trkpt lat="44.77157404294626" lon="9.937168875875637"><ele>354.8571428571429</ele><time>2026-05-02T11:35:23.999Z</time></trkpt><trkpt lat="44.771509940073074" lon="9.937140661711371"><ele>356.14285714285717</ele><time>2026-05-02T11:35:26.999Z</time></trkpt><trkpt lat="44.77144436949934" lon="9.937124852935913"><ele>357.42857142857144</ele><time>2026-05-02T11:35:29.999Z</time></trkpt><trkpt lat="44.77137515888895" lon="9.93711293264529"><ele>358.7142857142857</ele><time>2026-05-02T11:35:33.998Z</time></trkpt><trkpt lat="44.771290303112174" lon="9.93708825697748"><ele>360.0</ele><time>2026-05-02T11:35:37.998Z</time></trkpt><trkpt lat="44.771213968312196" lon="9.93708130203775"><ele>360.0</ele><time>2026-05-02T11:35:40.998Z</time></trkpt><trkpt lat="44.77114122333959" lon="9.937103430430486"><ele>360.0</ele><time>2026-05-02T11:35:43.998Z</time></trkpt><trkpt lat="44.7710904464464" lon="9.937172442027485"><ele>360.0</ele><time>2026-05-02T11:35:46.998Z</time></trkpt><trkpt lat="44.771101438821056" lon="9.937275382376914"><ele>360.0</ele><time>2026-05-02T11:35:49.998Z</time></trkpt><trkpt lat="44.77115692310567" lon="9.937350376009741"><ele>360.0</ele><time>2026-05-02T11:35:52.998Z</time></trkpt><trkpt lat="44.77122936321092" lon="9.937391680307407"><ele>360.0</ele><time>2026-05-02T11:35:55.998Z</time></trkpt><trkpt lat="44.7713031253189" lon="9.937415749003717"><ele>360.0</ele><time>2026-05-02T11:35:58.998Z</time></trkpt><trkpt lat="44.77138343387043" lon="9.937436727971559"><ele>360.0</ele><time>2026-05-02T11:36:01.998Z</time></trkpt><trkpt lat="44.771463551004864" lon="9.937455988158227"><ele>360.0</ele><time>2026-05-02T11:36:04.998Z</time></trkpt><trkpt lat="44.77154296618907" lon="9.937485287190642"><ele>360.0</ele><time>2026-05-02T11:36:07.998Z</time></trkpt><trkpt lat="44.7716214143485" lon="9.937518224566377"><ele>360.0</ele><time>2026-05-02T11:36:10.998Z</time></trkpt><trkpt lat="44.7716768612556" lon="9.937589677028228"><ele>360.0</ele><time>2026-05-02T11:36:13.998Z</time></trkpt><trkpt lat="44.771633882180296" lon="9.937670066945097"><ele>362.57142857142856</ele><time>2026-05-02T11:36:17Z</time></trkpt><trkpt lat="44.771566001908965" lon="9.937631495265677"><ele>365.14285714285717</ele><time>2026-05-02T11:36:20Z</time></trkpt><trkpt lat="44.771494726771344" lon="9.937601126621198"><ele>367.7142857142857</ele><time>2026-05-02T11:36:23Z</time></trkpt><trkpt lat="44.77142713324491" lon="9.937585501298006"><ele>370.2857142857143</ele><time>2026-05-02T11:36:26Z</time></trkpt><trkpt lat="44.77135686584025" lon="9.937584473190459"><ele>372.8571428571429</ele><time>2026-05-02T11:36:29Z</time></trkpt><trkpt lat="44.77128857737503" lon="9.93759904256666"><ele>375.42857142857144</ele><time>2026-05-02T11:36:31Z</time></trkpt><trkpt lat="44.77121051885841" lon="9.937633846520054"><ele>378.0</ele><time>2026-05-02T11:36:34Z</time></trkpt><trkpt lat="44.77114278375002" lon="9.937687993600235"><ele>378.0</ele><time>2026-05-02T11:36:37Z</time></trkpt><trkpt lat="44.77108242732548" lon="9.937763097232684"><ele>378.0</ele><time>2026-05-02T11:36:39.999Z</time></trkpt><trkpt lat="44.77102391429919" lon="9.937837514376055"><ele>378.0</ele><time>2026-05-02T11:36:42.999Z</time></trkpt><trkpt lat="44.770962371531944" lon="9.937906228165737"><ele>378.0</ele><time>2026-05-02T11:36:45.999Z</time></trkpt><trkpt lat="44.77089786968517" lon="9.937979874319524"><ele>378.0</ele><time>2026-05-02T11:36:48.999Z</time></trkpt><trkpt lat="44.77081647159883" lon="9.93802544701832"><ele>378.0</ele><time>2026-05-02T11:36:51.999Z</time></trkpt><trkpt lat="44.77073059236996" lon="9.938011153534216"><ele>378.1666666666667</ele><time>2026-05-02T11:36:54.999Z</time></trkpt><trkpt lat="44.77066171381019" lon="9.937949058600148"><ele>378.3333333333333</ele><time>2026-05-02T11:36:57.999Z</time></trkpt><trkpt lat="44.77061565763794" lon="9.93786241316917"><ele>378.5</ele><time>2026-05-02T11:37:00.999Z</time></trkpt><trkpt lat="44.770575312558606" lon="9.937767614698574"><ele>378.66666666666663</ele><time>2026-05-02T11:37:03.999Z</time></trkpt><trkpt lat="44.77052848477104" lon="9.93767698282216"><ele>378.8333333333333</ele><time>2026-05-02T11:37:06.999Z</time></trkpt><trkpt lat="44.77046457184785" lon="9.937599417495218"><ele>379.0</ele><time>2026-05-02T11:37:09.999Z</time></trkpt><trkpt lat="44.770376658103466" lon="9.93757206742383"><ele>379.00000000000006</ele><time>2026-05-02T11:37:12.999Z</time></trkpt><trkpt lat="44.770311292072826" lon="9.937569410220226"><ele>379.0</ele><time>2026-05-02T11:37:14.999Z</time></trkpt><trkpt lat="44.77024537994955" lon="9.937598454356362"><ele>379.0</ele><time>2026-05-02T11:37:16.999Z</time></trkpt><trkpt lat="44.77018606706127" lon="9.937657484178853"><ele>379.0</ele><time>2026-05-02T11:37:18.999Z</time></trkpt><trkpt lat="44.770138487210986" lon="9.937737623093069"><ele>379.0</ele><time>2026-05-02T11:37:20.999Z</time></trkpt><trkpt lat="44.77011686296726" lon="9.937828766311856"><ele>379.00000000000006</ele><time>2026-05-02T11:37:22.999Z</time></trkpt><trkpt lat="44.77011468132896" lon="9.93792811048348"><ele>379.0</ele><time>2026-05-02T11:37:25.999Z</time></trkpt><trkpt lat="44.77011740034339" lon="9.93802322145545"><ele>379.00000000000006</ele><time>2026-05-02T11:37:26.999Z</time></trkpt><trkpt lat="44.77015538260645" lon="9.93811189579139"><ele>379.0</ele><time>2026-05-02T11:37:28.999Z</time></trkpt><trkpt lat="44.770208488005174" lon="9.938179380643557"><ele>379.0</ele><time>2026-05-02T11:37:30.999Z</time></trkpt><trkpt lat="44.77026083513264" lon="9.938235168216591"><ele>379.0</ele><time>2026-05-02T11:37:32.998Z</time></trkpt><trkpt lat="44.77030957265103" lon="9.938292581716377"><ele>379.0</ele><time>2026-05-02T11:37:34.998Z</time></trkpt><trkpt lat="44.77037938522566" lon="9.93836503446178"><ele>379.00000000000006</ele><time>2026-05-02T11:37:37.998Z</time></trkpt><trkpt lat="44.77044744659361" lon="9.938426165035214"><ele>379.0</ele><time>2026-05-02T11:37:40.998Z</time></trkpt><trkpt lat="44.77051433616598" lon="9.93848494221487"><ele>380.8333333333333</ele><time>2026-05-02T11:37:43.998Z</time></trkpt><trkpt lat="44.77058442937015" lon="9.938541461869224"><ele>382.66666666666663</ele><time>2026-05-02T11:37:46.998Z</time></trkpt><trkpt lat="44.77065294817808" lon="9.938603831630004"><ele>384.5</ele><time>2026-05-02T11:37:50.998Z</time></trkpt><trkpt lat="44.77071452909961" lon="9.938644302419512"><ele>386.3333333333333</ele><time>2026-05-02T11:37:52.998Z</time></trkpt><trkpt lat="44.7707798160292" lon="9.93869043769242"><ele>388.1666666666667</ele><time>2026-05-02T11:37:55.998Z</time></trkpt><trkpt lat="44.770855201608434" lon="9.93871773335648"><ele>390.0</ele><time>2026-05-02T11:37:58.998Z</time></trkpt><trkpt lat="44.77092764071758" lon="9.938728799492909"><ele>390.0</ele><time>2026-05-02T11:38:02.998Z</time></trkpt><trkpt lat="44.771001453768626" lon="9.938715473456279"><ele>390.0</ele><time>2026-05-02T11:38:05.998Z</time></trkpt><trkpt lat="44.77107804816797" lon="9.938683724104727"><ele>390.0</ele><time>2026-05-02T11:38:08.998Z</time></trkpt><trkpt lat="44.77115577974984" lon="9.938655873686352"><ele>390.0</ele><time>2026-05-02T11:38:11.998Z</time></trkpt><trkpt lat="44.7712233364764" lon="9.93863199466959"><ele>390.0</ele><time>2026-05-02T11:38:14.998Z</time></trkpt><trkpt lat="44.77129029797263" lon="9.938612108790238"><ele>390.0</ele><time>2026-05-02T11:38:17.998Z</time></trkpt><trkpt lat="44.771358018815704" lon="9.938602114479561"><ele>390.0</ele><time>2026-05-02T11:38:21Z</time></trkpt><trkpt lat="44.771423592980135" lon="9.938609395333708"><ele>390.1666666666667</ele><time>2026-05-02T11:38:23Z</time></trkpt><trkpt lat="44.77149291045716" lon="9.938652283765348"><ele>390.33333333333337</ele><time>2026-05-02T11:38:26Z</time></trkpt><trkpt lat="44.771557149197484" lon="9.93871679063322"><ele>390.5</ele><time>2026-05-02T11:38:29Z</time></trkpt><trkpt lat="44.77161291069943" lon="9.938785823867818"><ele>390.6666666666667</ele><time>2026-05-02T11:38:32Z</time></trkpt><trkpt lat="44.77166303566609" lon="9.93886642852048"><ele>390.83333333333337</ele><time>2026-05-02T11:38:35Z</time></trkpt><trkpt lat="44.77170438453519" lon="9.9389540825164"><ele>391.0</ele><time>2026-05-02T11:38:38Z</time></trkpt><trkpt lat="44.771734098329" lon="9.93904908126292"><ele>390.99999999999994</ele><time>2026-05-02T11:38:41Z</time></trkpt><trkpt lat="44.771745757437216" lon="9.939147186900156"><ele>391.0</ele><time>2026-05-02T11:38:43.999Z</time></trkpt><trkpt lat="44.771747541146716" lon="9.939245151989093"><ele>391.0</ele><time>2026-05-02T11:38:46.999Z</time></trkpt><trkpt lat="44.77173807175068" lon="9.939343133766448"><ele>391.0</ele><time>2026-05-02T11:38:49.999Z</time></trkpt><trkpt lat="44.771710757357475" lon="9.939432875744094"><ele>391.0</ele><time>2026-05-02T11:38:52.999Z</time></trkpt><trkpt lat="44.77167514114932" lon="9.939514641473624"><ele>390.99999999999994</ele><time>2026-05-02T11:38:55.999Z</time></trkpt><trkpt lat="44.77163239692205" lon="9.939584830317543"><ele>391.0</ele><time>2026-05-02T11:38:58.999Z</time></trkpt><trkpt lat="44.7715785914416" lon="9.939635434093486"><ele>389.1428571428571</ele><time>2026-05-02T11:39:01.999Z</time></trkpt><trkpt lat="44.771510008713776" lon="9.939670434553827"><ele>387.2857142857143</ele><time>2026-05-02T11:39:04.999Z</time></trkpt><trkpt lat="44.771446522008624" lon="9.939710012243845"><ele>385.42857142857144</ele><time>2026-05-02T11:39:07.999Z</time></trkpt><trkpt lat="44.77138109051692" lon="9.939735832220498"><ele>383.57142857142856</ele><time>2026-05-02T11:39:10.999Z</time></trkpt><trkpt lat="44.771321702204084" lon="9.939769378912143"><ele>381.7142857142857</ele><time>2026-05-02T11:39:13.999Z</time></trkpt><trkpt lat="44.77124853984948" lon="9.939801002736857"><ele>379.85714285714283</ele><time>2026-05-02T11:39:16.999Z</time></trkpt><trkpt lat="44.77118272639817" lon="9.939833751882764"><ele>378.0</ele><time>2026-05-02T11:39:19.999Z</time></trkpt><trkpt lat="44.7711212021375" lon="9.939877052769027"><ele>378.0</ele><time>2026-05-02T11:39:22.999Z</time></trkpt><trkpt lat="44.771054778094985" lon="9.939919325094598"><ele>378.0</ele><time>2026-05-02T11:39:25.999Z</time></trkpt><trkpt lat="44.77099315581475" lon="9.93997592771394"><ele>378.0</ele><time>2026-05-02T11:39:28.999Z</time></trkpt><trkpt lat="44.77093200447223" lon="9.940026015798564"><ele>378.0</ele><time>2026-05-02T11:39:31.999Z</time></trkpt><trkpt lat="44.77086681850821" lon="9.940079417856877"><ele>378.0</ele><time>2026-05-02T11:39:34.999Z</time></trkpt><trkpt lat="44.77080224821996" lon="9.940127108041013"><ele>378.0</ele><time>2026-05-02T11:39:37.998Z</time></trkpt><trkpt lat="44.77073436315457" lon="9.940167828588018"><ele>378.0</ele><time>2026-05-02T11:39:40.998Z</time></trkpt><trkpt lat="44.770665622186506" lon="9.94020512829823"><ele>380.14285714285717</ele><time>2026-05-02T11:39:43.998Z</time></trkpt><trkpt lat="44.770595339363446" lon="9.940236630971864"><ele>382.2857142857143</ele><time>2026-05-02T11:39:46.998Z</time></trkpt><trkpt lat="44.77052396758969" lon="9.940265007578967"><ele>384.42857142857144</ele><time>2026-05-02T11:39:49.998Z</time></trkpt><trkpt lat="44.77045438726927" lon="9.940295760309086"><ele>386.57142857142856</ele><time>2026-05-02T11:39:52.998Z</time></trkpt><trkpt lat="44.770381595446935" lon="9.940330798554989"><ele>388.7142857142857</ele><time>2026-05-02T11:39:55.998Z</time></trkpt><trkpt lat="44.770316117936936" lon="9.940380750856168"><ele>390.8571428571429</ele><time>2026-05-02T11:39:58.998Z</time></trkpt><trkpt lat="44.77025712539328" lon="9.94044721296653"><ele>393.0</ele><time>2026-05-02T11:40:01.998Z</time></trkpt><trkpt lat="44.77020118707705" lon="9.940532773058221"><ele>395.3333333333333</ele><time>2026-05-02T11:40:04.998Z</time></trkpt><trkpt lat="44.77015313883551" lon="9.940630099964215"><ele>397.66666666666663</ele><time>2026-05-02T11:40:07.998Z</time></trkpt><trkpt lat="44.770109567406244" lon="9.940727385046621"><ele>400.0</ele><time>2026-05-02T11:40:10.998Z</time></trkpt><trkpt lat="44.770075377974194" lon="9.94083288942616"><ele>402.3333333333333</ele><time>2026-05-02T11:40:13.998Z</time></trkpt><trkpt lat="44.77003985924563" lon="9.940933445124177"><ele>404.66666666666663</ele><time>2026-05-02T11:40:16.998Z</time></trkpt><trkpt lat="44.770000907048534" lon="9.941029478100928"><ele>407.0</ele><time>2026-05-02T11:40:19.998Z</time></trkpt><trkpt lat="44.76996662398599" lon="9.941128145360912"><ele>407.8333333333333</ele><time>2026-05-02T11:40:22.998Z</time></trkpt><trkpt lat="44.76992951185103" lon="9.941229016603081"><ele>408.66666666666663</ele><time>2026-05-02T11:40:26Z</time></trkpt><trkpt lat="44.769883350847884" lon="9.941326800459835"><ele>409.5</ele><time>2026-05-02T11:40:29Z</time></trkpt><trkpt lat="44.769828834806056" lon="9.941412902679128"><ele>410.33333333333337</ele><time>2026-05-02T11:40:32Z</time></trkpt><trkpt lat="44.76977033116418" lon="9.94149015376251"><ele>411.1666666666667</ele><time>2026-05-02T11:40:35Z</time></trkpt><trkpt lat="44.76970843668313" lon="9.941551707327175"><ele>412.0</ele><time>2026-05-02T11:40:38Z</time></trkpt><trkpt lat="44.76964744795154" lon="9.941616014537768"><ele>412.00000000000006</ele><time>2026-05-02T11:40:41Z</time></trkpt><trkpt lat="44.76957954685533" lon="9.94166370222997"><ele>412.0</ele><time>2026-05-02T11:40:44Z</time></trkpt><trkpt lat="44.769504697495364" lon="9.94170011568253"><ele>412.0</ele><time>2026-05-02T11:40:46.999Z</time></trkpt><trkpt lat="44.7694275520613" lon="9.941726004836823"><ele>412.0</ele><time>2026-05-02T11:40:49.999Z</time></trkpt><trkpt lat="44.76935262654515" lon="9.941741686355705"><ele>412.00000000000006</ele><time>2026-05-02T11:40:52.999Z</time></trkpt><trkpt lat="44.76927409190797" lon="9.941743033433196"><ele>412.0</ele><time>2026-05-02T11:40:56.999Z</time></trkpt><trkpt lat="44.769204601918624" lon="9.94172847592606"><ele>412.50000000000006</ele><time>2026-05-02T11:40:58.999Z</time></trkpt><trkpt lat="44.76912769546675" lon="9.941709560847716"><ele>413.0</ele><time>2026-05-02T11:41:01.999Z</time></trkpt><trkpt lat="44.76905658887489" lon="9.941681406642875"><ele>413.5</ele><time>2026-05-02T11:41:04.999Z</time></trkpt><trkpt lat="44.768986414068905" lon="9.941656477738517"><ele>414.0</ele><time>2026-05-02T11:41:07.999Z</time></trkpt><trkpt lat="44.76891334290786" lon="9.94161753965818"><ele>414.50000000000006</ele><time>2026-05-02T11:41:10.999Z</time></trkpt><trkpt lat="44.768843599417664" lon="9.941576187077613"><ele>415.0</ele><time>2026-05-02T11:41:13.999Z</time></trkpt><trkpt lat="44.76877525283901" lon="9.941524087243264"><ele>415.00000000000006</ele><time>2026-05-02T11:41:16.999Z</time></trkpt><trkpt lat="44.76871046083856" lon="9.94146474006848"><ele>415.0</ele><time>2026-05-02T11:41:19.999Z</time></trkpt><trkpt lat="44.76865213205218" lon="9.941390894660488"><ele>415.0</ele><time>2026-05-02T11:41:22.999Z</time></trkpt><trkpt lat="44.76861532126041" lon="9.94129065768533"><ele>415.0</ele><time>2026-05-02T11:41:25.999Z</time></trkpt><trkpt lat="44.768592237939686" lon="9.941182342134367"><ele>415.00000000000006</ele><time>2026-05-02T11:41:28.999Z</time></trkpt><trkpt lat="44.76856834337277" lon="9.941072549015248"><ele>415.0</ele><time>2026-05-02T11:41:31.999Z</time></trkpt><trkpt lat="44.76854589934469" lon="9.940960536003379"><ele>416.42857142857144</ele><time>2026-05-02T11:41:34.999Z</time></trkpt><trkpt lat="44.76851419675853" lon="9.940854832535408"><ele>417.8571428571429</ele><time>2026-05-02T11:41:37.999Z</time></trkpt><trkpt lat="44.76848339514989" lon="9.940770023547215"><ele>419.2857142857143</ele><time>2026-05-02T11:41:40.998Z</time></trkpt><trkpt lat="44.768444503622085" lon="9.940680888796441"><ele>420.7142857142857</ele><time>2026-05-02T11:41:43.998Z</time></trkpt><trkpt lat="44.7684053494081" lon="9.940600587239311"><ele>422.1428571428571</ele><time>2026-05-02T11:41:46.998Z</time></trkpt><trkpt lat="44.76834306384217" lon="9.940532816251578"><ele>423.57142857142856</ele><time>2026-05-02T11:41:49.998Z</time></trkpt><trkpt lat="44.76827746887526" lon="9.94048174487567"><ele>425.0</ele><time>2026-05-02T11:41:52.998Z</time></trkpt><trkpt lat="44.768215342000275" lon="9.940443480795928"><ele>424.99999999999994</ele><time>2026-05-02T11:41:54.998Z</time></trkpt><trkpt lat="44.76813397036003" lon="9.940396881659384"><ele>425.0</ele><time>2026-05-02T11:41:57.998Z</time></trkpt><trkpt lat="44.7680488112368" lon="9.94036660189473"><ele>425.0</ele><time>2026-05-02T11:42:00.998Z</time></trkpt><trkpt lat="44.767969575892025" lon="9.940337590566783"><ele>425.0</ele><time>2026-05-02T11:42:03.998Z</time></trkpt><trkpt lat="44.767889423100684" lon="9.940321797694201"><ele>424.99999999999994</ele><time>2026-05-02T11:42:06.998Z</time></trkpt><trkpt lat="44.76780669442582" lon="9.94031389389104"><ele>425.0</ele><time>2026-05-02T11:42:09.998Z</time></trkpt><trkpt lat="44.76772301293599" lon="9.94032367869217"><ele>425.66666666666663</ele><time>2026-05-02T11:42:12.998Z</time></trkpt><trkpt lat="44.76764190113198" lon="9.94033668171528"><ele>426.3333333333333</ele><time>2026-05-02T11:42:15.998Z</time></trkpt><trkpt lat="44.76756908585444" lon="9.940347926828814"><ele>427.0</ele><time>2026-05-02T11:42:18.998Z</time></trkpt><trkpt lat="44.76747957780784" lon="9.940351321599284"><ele>427.66666666666663</ele><time>2026-05-02T11:42:21.998Z</time></trkpt><trkpt lat="44.767409556199645" lon="9.940356180860933"><ele>428.3333333333333</ele><time>2026-05-02T11:42:24.998Z</time></trkpt><trkpt lat="44.767335498188885" lon="9.940370656622225"><ele>429.0</ele><time>2026-05-02T11:42:27.998Z</time></trkpt><trkpt lat="44.767257584494686" lon="9.940387152330967"><ele>429.0</ele><time>2026-05-02T11:42:30.998Z</time></trkpt><trkpt lat="44.767176708104394" lon="9.94040204297345"><ele>429.0</ele><time>2026-05-02T11:42:34Z</time></trkpt><trkpt lat="44.76709634554837" lon="9.940419346530913"><ele>429.0</ele><time>2026-05-02T11:42:37Z</time></trkpt><trkpt lat="44.76701830631937" lon="9.94043573103028"><ele>429.0</ele><time>2026-05-02T11:42:40Z</time></trkpt><trkpt lat="44.766939134002065" lon="9.94045458021017"><ele>429.0</ele><time>2026-05-02T11:42:43Z</time></trkpt><trkpt lat="44.76685496720534" lon="9.940477774977957"><ele>429.0</ele><time>2026-05-02T11:42:46Z</time></trkpt><trkpt lat="44.76677219328481" lon="9.940507367748781"><ele>429.5</ele><time>2026-05-02T11:42:48.999Z</time></trkpt><trkpt lat="44.76670612524418" lon="9.940527997949157"><ele>430.0</ele><time>2026-05-02T11:42:51.999Z</time></trkpt><trkpt lat="44.766636621164196" lon="9.940550293068531"><ele>430.5</ele><time>2026-05-02T11:42:54.999Z</time></trkpt><trkpt lat="44.76654943291643" lon="9.940584809948689"><ele>431.0</ele><time>2026-05-02T11:42:57.999Z</time></trkpt><trkpt lat="44.766466130161625" lon="9.940614537510063"><ele>431.5</ele><time>2026-05-02T11:43:00.999Z</time></trkpt><trkpt lat="44.766387316952766" lon="9.940643112839023"><ele>432.0</ele><time>2026-05-02T11:43:03.999Z</time></trkpt><trkpt lat="44.76630862373242" lon="9.940674768140562"><ele>432.0</ele><time>2026-05-02T11:43:06.999Z</time></trkpt><trkpt lat="44.76623140333891" lon="9.940706202670215"><ele>432.0</ele><time>2026-05-02T11:43:09.999Z</time></trkpt><trkpt lat="44.76615404682654" lon="9.940740428939932"><ele>432.0</ele><time>2026-05-02T11:43:12.999Z</time></trkpt><trkpt lat="44.76607787372003" lon="9.940767452638388"><ele>432.0</ele><time>2026-05-02T11:43:15.999Z</time></trkpt><trkpt lat="44.76599866607759" lon="9.940809591715936"><ele>432.0</ele><time>2026-05-02T11:43:19.999Z</time></trkpt><trkpt lat="44.765929905079304" lon="9.940839084115586"><ele>432.0</ele><time>2026-05-02T11:43:21.999Z</time></trkpt><trkpt lat="44.765848377553134" lon="9.940865578798853"><ele>432.0</ele><time>2026-05-02T11:43:24.999Z</time></trkpt><trkpt lat="44.76578193144543" lon="9.940893540853335"><ele>432.0</ele><time>2026-05-02T11:43:27.999Z</time></trkpt><trkpt lat="44.765720045149514" lon="9.940921312703347"><ele>432.0</ele><time>2026-05-02T11:43:29.999Z</time></trkpt><trkpt lat="44.765645040253865" lon="9.940961467901365"><ele>432.0</ele><time>2026-05-02T11:43:32.999Z</time></trkpt><trkpt lat="44.76557105224293" lon="9.941000551589166"><ele>432.0</ele><time>2026-05-02T11:43:35.999Z</time></trkpt><trkpt lat="44.765501753625735" lon="9.941046372741848"><ele>432.0</ele><time>2026-05-02T11:43:38.999Z</time></trkpt><trkpt lat="44.76543561971738" lon="9.941091994429991"><ele>432.0</ele><time>2026-05-02T11:43:41.999Z</time></trkpt><trkpt lat="44.76536799670868" lon="9.941145297066933"><ele>432.0</ele><time>2026-05-02T11:43:44.998Z</time></trkpt><trkpt lat="44.7653020765653" lon="9.941198183714716"><ele>432.0</ele><time>2026-05-02T11:43:47.998Z</time></trkpt><trkpt lat="44.76523635876985" lon="9.94124238879027"><ele>432.0</ele><time>2026-05-02T11:43:50.998Z</time></trkpt><trkpt lat="44.7651703617272" lon="9.941285023172256"><ele>432.0</ele><time>2026-05-02T11:43:53.998Z</time></trkpt><trkpt lat="44.76510684283717" lon="9.94133889717626"><ele>432.0</ele><time>2026-05-02T11:43:56.998Z</time></trkpt><trkpt lat="44.76504204973963" lon="9.94138954576564"><ele>432.0</ele><time>2026-05-02T11:43:59.998Z</time></trkpt><trkpt lat="44.764976999785446" lon="9.941436817907187"><ele>432.0</ele><time>2026-05-02T11:44:02.998Z</time></trkpt><trkpt lat="44.76491020609686" lon="9.941482977801659"><ele>432.85714285714283</ele><time>2026-05-02T11:44:05.998Z</time></trkpt><trkpt lat="44.76484496824247" lon="9.941532213169994"><ele>433.71428571428567</ele><time>2026-05-02T11:44:08.998Z</time></trkpt><trkpt lat="44.764784018626564" lon="9.941590786894283"><ele>434.57142857142856</ele><time>2026-05-02T11:44:11.998Z</time></trkpt><trkpt lat="44.76472388986577" lon="9.941646944037268"><ele>435.42857142857144</ele><time>2026-05-02T11:44:14.998Z</time></trkpt><trkpt lat="44.764652896938436" lon="9.941704716280228"><ele>436.2857142857143</ele><time>2026-05-02T11:44:18.998Z</time></trkpt><trkpt lat="44.76459118239762" lon="9.941749572129503"><ele>437.14285714285717</ele><time>2026-05-02T11:44:21.998Z</time></trkpt><trkpt lat="44.764530956062366" lon="9.941796466444117"><ele>438.0</ele><time>2026-05-02T11:44:24.998Z</time></trkpt><trkpt lat="44.764469568917754" lon="9.94184052012183"><ele>438.0</ele><time>2026-05-02T11:44:27.998Z</time></trkpt><trkpt lat="44.764398836668526" lon="9.94189867598585"><ele>438.0</ele><time>2026-05-02T11:44:31.998Z</time></trkpt><trkpt lat="44.76433318084984" lon="9.941946487822658"><ele>438.0</ele><time>2026-05-02T11:44:34.998Z</time></trkpt><trkpt lat="44.7642648555179" lon="9.941995503790242"><ele>438.0</ele><time>2026-05-02T11:44:38Z</time></trkpt><trkpt lat="44.76420505705072" lon="9.942042626121667"><ele>438.0</ele><time>2026-05-02T11:44:41Z</time></trkpt><trkpt lat="44.76414577794072" lon="9.942087826881938"><ele>438.0</ele><time>2026-05-02T11:44:44Z</time></trkpt><trkpt lat="44.7640891420064" lon="9.942137928935178"><ele>438.0</ele><time>2026-05-02T11:44:47Z</time></trkpt><trkpt lat="44.764035028149195" lon="9.942189812047982"><ele>440.0</ele><time>2026-05-02T11:44:50Z</time></trkpt><trkpt lat="44.76397598783342" lon="9.942247112776785"><ele>442.0</ele><time>2026-05-02T11:44:52.999Z</time></trkpt><trkpt lat="44.763924742653316" lon="9.942309091876373"><ele>444.0</ele><time>2026-05-02T11:44:56.999Z</time></trkpt><trkpt lat="44.76386072924721" lon="9.942375174401688"><ele>446.0</ele><time>2026-05-02T11:44:59.999Z</time></trkpt><trkpt lat="44.763803152585595" lon="9.94243470179041"><ele>448.0</ele><time>2026-05-02T11:45:02.999Z</time></trkpt><trkpt lat="44.76374622007422" lon="9.942482860886118"><ele>450.0</ele><time>2026-05-02T11:45:05.999Z</time></trkpt><trkpt lat="44.763676450328006" lon="9.942539523780765"><ele>452.0</ele><time>2026-05-02T11:45:09.999Z</time></trkpt><trkpt lat="44.76360872840073" lon="9.942584528280864"><ele>452.0</ele><time>2026-05-02T11:45:13.999Z</time></trkpt><trkpt lat="44.763549671554344" lon="9.94262031085729"><ele>452.0</ele><time>2026-05-02T11:45:16.999Z</time></trkpt><trkpt lat="44.763486735985005" lon="9.942647703990701"><ele>452.0</ele><time>2026-05-02T11:45:19.999Z</time></trkpt><trkpt lat="44.76341682992967" lon="9.942671498655196"><ele>452.0</ele><time>2026-05-02T11:45:22.999Z</time></trkpt><trkpt lat="44.76334310306647" lon="9.942692781896618"><ele>452.0</ele><time>2026-05-02T11:45:26.999Z</time></trkpt><trkpt lat="44.763280972328616" lon="9.942710189143154"><ele>452.0</ele><time>2026-05-02T11:45:29.999Z</time></trkpt><trkpt lat="44.763205726372234" lon="9.942693930923802"><ele>452.0</ele><time>2026-05-02T11:45:33.999Z</time></trkpt><trkpt lat="44.76315467158495" lon="9.942604033068475"><ele>454.0</ele><time>2026-05-02T11:45:37.999Z</time></trkpt><trkpt lat="44.763166388437064" lon="9.942496203372366"><ele>456.0</ele><time>2026-05-02T11:45:41.999Z</time></trkpt><trkpt lat="44.763197268275974" lon="9.942401007411485"><ele>458.0</ele><time>2026-05-02T11:45:45.999Z</time></trkpt><trkpt lat="44.763232382415104" lon="9.942311898857353"><ele>460.0</ele><time>2026-05-02T11:45:48.998Z</time></trkpt><trkpt lat="44.76326551828732" lon="9.942226299472171"><ele>462.0</ele><time>2026-05-02T11:45:51.998Z</time></trkpt><trkpt lat="44.763298328476985" lon="9.94214666236023"><ele>464.0</ele><time>2026-05-02T11:45:54.998Z</time></trkpt><trkpt lat="44.763339235897305" lon="9.94204756858398"><ele>466.0</ele><time>2026-05-02T11:45:58.998Z</time></trkpt><trkpt lat="44.76337919802118" lon="9.941961713501303"><ele>466.0</ele><time>2026-05-02T11:46:01.998Z</time></trkpt><trkpt lat="44.763416258204984" lon="9.941877711527148"><ele>466.0</ele><time>2026-05-02T11:46:04.998Z</time></trkpt><trkpt lat="44.76345453772838" lon="9.941797787194334"><ele>466.0</ele><time>2026-05-02T11:46:07.998Z</time></trkpt><trkpt lat="44.7634919310981" lon="9.941715124703133"><ele>466.0</ele><time>2026-05-02T11:46:10.998Z</time></trkpt><trkpt lat="44.76354031223685" lon="9.941640790263426"><ele>466.0</ele><time>2026-05-02T11:46:13.998Z</time></trkpt><trkpt lat="44.76358159724268" lon="9.941566558178902"><ele>466.0</ele><time>2026-05-02T11:46:16.998Z</time></trkpt><trkpt lat="44.76361721876594" lon="9.94148756176141"><ele>466.0</ele><time>2026-05-02T11:46:19.998Z</time></trkpt><trkpt lat="44.763657285175576" lon="9.941406695741186"><ele>465.28571428571433</ele><time>2026-05-02T11:46:22.998Z</time></trkpt><trkpt lat="44.763701776982444" lon="9.94133427759512"><ele>464.57142857142856</ele><time>2026-05-02T11:46:25.998Z</time></trkpt><trkpt lat="44.76374410841685" lon="9.941263214107522"><ele>463.8571428571429</ele><time>2026-05-02T11:46:28.998Z</time></trkpt><trkpt lat="44.76378378448522" lon="9.941191468961968"><ele>463.14285714285717</ele><time>2026-05-02T11:46:31.998Z</time></trkpt><trkpt lat="44.763825564597795" lon="9.941121506092284"><ele>462.42857142857144</ele><time>2026-05-02T11:46:34.998Z</time></trkpt><trkpt lat="44.76386901231538" lon="9.941027583763223"><ele>461.7142857142857</ele><time>2026-05-02T11:46:38.998Z</time></trkpt><trkpt lat="44.76391153611967" lon="9.940931511788873"><ele>461.0</ele><time>2026-05-02T11:46:42.998Z</time></trkpt><trkpt lat="44.76394989732099" lon="9.940829904020449"><ele>462.42857142857144</ele><time>2026-05-02T11:46:46.999Z</time></trkpt><trkpt lat="44.76397442758981" lon="9.940738236974738"><ele>463.8571428571429</ele><time>2026-05-02T11:46:49.999Z</time></trkpt><trkpt lat="44.763987809138" lon="9.94064107178644"><ele>465.28571428571433</ele><time>2026-05-02T11:46:52.999Z</time></trkpt><trkpt lat="44.76397337906466" lon="9.940539680956478"><ele>466.7142857142858</ele><time>2026-05-02T11:46:55.999Z</time></trkpt><trkpt lat="44.76391146676133" lon="9.940480534625356"><ele>468.14285714285717</ele><time>2026-05-02T11:46:58.999Z</time></trkpt><trkpt lat="44.76384092831253" lon="9.940519967209779"><ele>469.57142857142867</ele><time>2026-05-02T11:47:01.999Z</time></trkpt><trkpt lat="44.76378729581999" lon="9.940604114492624"><ele>471.00000000000006</ele><time>2026-05-02T11:47:04.999Z</time></trkpt><trkpt lat="44.7637329817283" lon="9.940687230693982"><ele>471.00000000000006</ele><time>2026-05-02T11:47:07.999Z</time></trkpt><trkpt lat="44.763688865306186" lon="9.940770213528006"><ele>471.0</ele><time>2026-05-02T11:47:10.999Z</time></trkpt><trkpt lat="44.76362990945193" lon="9.940835848887993"><ele>471.00000000000006</ele><time>2026-05-02T11:47:13.999Z</time></trkpt><trkpt lat="44.76356489709205" lon="9.940890906966022"><ele>471.00000000000006</ele><time>2026-05-02T11:47:16.999Z</time></trkpt><trkpt lat="44.763498501084534" lon="9.940933760730767"><ele>471.0</ele><time>2026-05-02T11:47:19.999Z</time></trkpt><trkpt lat="44.76343102600643" lon="9.940972906041825"><ele>471.00000000000006</ele><time>2026-05-02T11:47:22.999Z</time></trkpt><trkpt lat="44.76336390576157" lon="9.94101019664044"><ele>471.00000000000006</ele><time>2026-05-02T11:47:25.999Z</time></trkpt><trkpt lat="44.76329583772664" lon="9.94104833253785"><ele>472.1666666666667</ele><time>2026-05-02T11:47:28.999Z</time></trkpt><trkpt lat="44.76322712973641" lon="9.941090273394584"><ele>473.33333333333337</ele><time>2026-05-02T11:47:31.999Z</time></trkpt><trkpt lat="44.76315755652751" lon="9.941124726561052"><ele>474.5</ele><time>2026-05-02T11:47:34.999Z</time></trkpt><trkpt lat="44.76308753860832" lon="9.94113879132898"><ele>475.6666666666667</ele><time>2026-05-02T11:47:37.999Z</time></trkpt><trkpt lat="44.76301049450805" lon="9.941123005405155"><ele>476.83333333333337</ele><time>2026-05-02T11:47:40.999Z</time></trkpt><trkpt lat="44.76293591955443" lon="9.941092052535396"><ele>478.0</ele><time>2026-05-02T11:47:43.999Z</time></trkpt><trkpt lat="44.762857320686294" lon="9.941045627837878"><ele>478.00000000000006</ele><time>2026-05-02T11:47:46.999Z</time></trkpt><trkpt lat="44.762782443499866" lon="9.941010619316184"><ele>478.0</ele><time>2026-05-02T11:47:49.999Z</time></trkpt><trkpt lat="44.76270623729784" lon="9.940990604577534"><ele>478.0</ele><time>2026-05-02T11:47:52.998Z</time></trkpt><trkpt lat="44.762611092501686" lon="9.941013609303013"><ele>478.0</ele><time>2026-05-02T11:47:55.998Z</time></trkpt><trkpt lat="44.76254084836564" lon="9.94107553366252"><ele>478.00000000000006</ele><time>2026-05-02T11:47:58.998Z</time></trkpt><trkpt lat="44.76248164127212" lon="9.941160790519612"><ele>478.0</ele><time>2026-05-02T11:48:01.998Z</time></trkpt><trkpt lat="44.76242422405502" lon="9.941244705035992"><ele>479.8571428571429</ele><time>2026-05-02T11:48:04.998Z</time></trkpt><trkpt lat="44.76236867623591" lon="9.941325877855068"><ele>481.7142857142857</ele><time>2026-05-02T11:48:07.998Z</time></trkpt><trkpt lat="44.76232891292443" lon="9.941398195877463"><ele>483.57142857142856</ele><time>2026-05-02T11:48:10.998Z</time></trkpt><trkpt lat="44.76227351465682" lon="9.941473497225916"><ele>485.42857142857144</ele><time>2026-05-02T11:48:13.998Z</time></trkpt><trkpt lat="44.76221719886523" lon="9.941541817531835"><ele>487.2857142857142</ele><time>2026-05-02T11:48:16.998Z</time></trkpt><trkpt lat="44.76215285690359" lon="9.94159641042803"><ele>489.1428571428571</ele><time>2026-05-02T11:48:19.998Z</time></trkpt><trkpt lat="44.76207933493568" lon="9.941625155710708"><ele>491.0</ele><time>2026-05-02T11:48:22.998Z</time></trkpt><trkpt lat="44.76201271648654" lon="9.941625817706178"><ele>490.99999999999994</ele><time>2026-05-02T11:48:24.998Z</time></trkpt><trkpt lat="44.761933000877846" lon="9.941609428809926"><ele>491.0</ele><time>2026-05-02T11:48:27.998Z</time></trkpt><trkpt lat="44.76185424360355" lon="9.941602956139471"><ele>491.0</ele><time>2026-05-02T11:48:30.998Z</time></trkpt><trkpt lat="44.76177485512394" lon="9.941600055543326"><ele>491.0</ele><time>2026-05-02T11:48:33.998Z</time></trkpt><trkpt lat="44.76169519305654" lon="9.941609414333758"><ele>490.99999999999994</ele><time>2026-05-02T11:48:36.998Z</time></trkpt><trkpt lat="44.761616198505955" lon="9.941632770080345"><ele>491.0</ele><time>2026-05-02T11:48:39.998Z</time></trkpt><trkpt lat="44.761537243629796" lon="9.941664681054435"><ele>491.66666666666663</ele><time>2026-05-02T11:48:42.998Z</time></trkpt><trkpt lat="44.76146829556325" lon="9.941712554652149"><ele>492.3333333333333</ele><time>2026-05-02T11:48:45.998Z</time></trkpt><trkpt lat="44.76140377355593" lon="9.94177582899966"><ele>493.0</ele><time>2026-05-02T11:48:48.997Z</time></trkpt><trkpt lat="44.76133984325226" lon="9.941847078308811"><ele>493.66666666666663</ele><time>2026-05-02T11:48:51.999Z</time></trkpt><trkpt lat="44.76128143999853" lon="9.941927822769122"><ele>494.3333333333333</ele><time>2026-05-02T11:48:54.999Z</time></trkpt><trkpt lat="44.76121998761409" lon="9.942021240148897"><ele>495.0</ele><time>2026-05-02T11:48:57.999Z</time></trkpt><trkpt lat="44.76117073602365" lon="9.942112292059502"><ele>495.0</ele><time>2026-05-02T11:49:00.999Z</time></trkpt><trkpt lat="44.76112585095539" lon="9.942204661366882"><ele>495.0</ele><time>2026-05-02T11:49:03.999Z</time></trkpt><trkpt lat="44.761080683982236" lon="9.942292368808081"><ele>495.0</ele><time>2026-05-02T11:49:06.999Z</time></trkpt><trkpt lat="44.761034603214966" lon="9.942386712282504"><ele>495.0</ele><time>2026-05-02T11:49:09.999Z</time></trkpt><trkpt lat="44.76099293032263" lon="9.942479201664478"><ele>495.0</ele><time>2026-05-02T11:49:12.999Z</time></trkpt><trkpt lat="44.76095853023347" lon="9.942570991991202"><ele>495.0</ele><time>2026-05-02T11:49:15.999Z</time></trkpt><trkpt lat="44.76092845137316" lon="9.942672241992518"><ele>498.3333333333333</ele><time>2026-05-02T11:49:18.999Z</time></trkpt><trkpt lat="44.76091427117122" lon="9.94278207891888"><ele>501.66666666666663</ele><time>2026-05-02T11:49:21.999Z</time></trkpt><trkpt lat="44.76091965156122" lon="9.942898482515425"><ele>505.0</ele><time>2026-05-02T11:49:24.999Z</time></trkpt><trkpt lat="44.760938697804306" lon="9.943012609570388"><ele>508.3333333333333</ele><time>2026-05-02T11:49:27.999Z</time></trkpt><trkpt lat="44.76096339445069" lon="9.943127532549537"><ele>511.66666666666663</ele><time>2026-05-02T11:49:31Z</time></trkpt><trkpt lat="44.760995522611445" lon="9.943230750433274"><ele>515.0</ele><time>2026-05-02T11:49:34Z</time></trkpt><trkpt lat="44.76101413591778" lon="9.943340185835156"><ele>514.1666666666666</ele><time>2026-05-02T11:49:37Z</time></trkpt><trkpt lat="44.761024887492056" lon="9.943445483174324"><ele>513.3333333333333</ele><time>2026-05-02T11:49:40Z</time></trkpt><trkpt lat="44.76101087149467" lon="9.943556740223766"><ele>512.5</ele><time>2026-05-02T11:49:43Z</time></trkpt><trkpt lat="44.76099546779797" lon="9.943663620834357"><ele>511.66666666666663</ele><time>2026-05-02T11:49:46Z</time></trkpt><trkpt lat="44.76096631483874" lon="9.943773284257283"><ele>510.8333333333333</ele><time>2026-05-02T11:49:49Z</time></trkpt><trkpt lat="44.760935118099454" lon="9.943879311973115"><ele>510.0</ele><time>2026-05-02T11:49:52Z</time></trkpt><trkpt lat="44.76089598293131" lon="9.943980332639168"><ele>510.0</ele><time>2026-05-02T11:49:55Z</time></trkpt><trkpt lat="44.760824938768145" lon="9.944027271935823"><ele>510.0</ele><time>2026-05-02T11:49:57.999Z</time></trkpt><trkpt lat="44.76076085192623" lon="9.943982261594885"><ele>510.0</ele><time>2026-05-02T11:50:00.999Z</time></trkpt><trkpt lat="44.760718102720645" lon="9.943896161900666"><ele>510.0</ele><time>2026-05-02T11:50:03.999Z</time></trkpt><trkpt lat="44.76068839695317" lon="9.943799113722097"><ele>510.0</ele><time>2026-05-02T11:50:06.999Z</time></trkpt><trkpt lat="44.76066107955411" lon="9.943700258557008"><ele>510.0</ele><time>2026-05-02T11:50:09.999Z</time></trkpt><trkpt lat="44.76063949323552" lon="9.943591986072992"><ele>510.0</ele><time>2026-05-02T11:50:12.999Z</time></trkpt><trkpt lat="44.760609904170096" lon="9.943484332619834"><ele>510.0</ele><time>2026-05-02T11:50:15.999Z</time></trkpt><trkpt lat="44.760594750367545" lon="9.94336535612502"><ele>510.0</ele><time>2026-05-02T11:50:18.999Z</time></trkpt><trkpt lat="44.76056666043081" lon="9.943258957696274"><ele>510.0</ele><time>2026-05-02T11:50:21.999Z</time></trkpt><trkpt lat="44.760537735104485" lon="9.943155279315654"><ele>510.0</ele><time>2026-05-02T11:50:24.999Z</time></trkpt><trkpt lat="44.76050249045397" lon="9.943050020966586"><ele>510.0</ele><time>2026-05-02T11:50:27.999Z</time></trkpt><trkpt lat="44.760457474035995" lon="9.942951038020654"><ele>510.5</ele><time>2026-05-02T11:50:30.999Z</time></trkpt><trkpt lat="44.76040387113837" lon="9.942855097412979"><ele>511.0</ele><time>2026-05-02T11:50:33.999Z</time></trkpt><trkpt lat="44.76035245373062" lon="9.942750753344189"><ele>511.5</ele><time>2026-05-02T11:50:36.999Z</time></trkpt><trkpt lat="44.7603079613737" lon="9.942646201398803"><ele>512.0</ele><time>2026-05-02T11:50:39.999Z</time></trkpt><trkpt lat="44.76028591290672" lon="9.942526223633815"><ele>512.5</ele><time>2026-05-02T11:50:42.999Z</time></trkpt><trkpt lat="44.76029481585521" lon="9.942398783815676"><ele>513.0</ele><time>2026-05-02T11:50:45.999Z</time></trkpt><trkpt lat="44.76030642958701" lon="9.942301332249443"><ele>513.0</ele><time>2026-05-02T11:50:48.999Z</time></trkpt><trkpt lat="44.7603199016614" lon="9.942189183283661"><ele>513.0</ele><time>2026-05-02T11:50:51.999Z</time></trkpt><trkpt lat="44.76034168970371" lon="9.942077881272112"><ele>513.0</ele><time>2026-05-02T11:50:54.998Z</time></trkpt><trkpt lat="44.760364468975474" lon="9.941967208939085"><ele>513.0</ele><time>2026-05-02T11:50:58Z</time></trkpt><trkpt lat="44.76039672950108" lon="9.941827676827728"><ele>513.0</ele><time>2026-05-02T11:51:00Z</time></trkpt><trkpt lat="44.76041544667017" lon="9.941737297077053"><ele>513.0</ele><time>2026-05-02T11:51:02Z</time></trkpt><trkpt lat="44.7604317482253" lon="9.941649261838222"><ele>513.3333333333334</ele><time>2026-05-02T11:51:04Z</time></trkpt><trkpt lat="44.76044911458283" lon="9.94155907900994"><ele>513.6666666666666</ele><time>2026-05-02T11:51:06Z</time></trkpt><trkpt lat="44.76046735237401" lon="9.941468629924437"><ele>514.0</ele><time>2026-05-02T11:51:08Z</time></trkpt><trkpt lat="44.760492728658335" lon="9.941348850618363"><ele>514.3333333333333</ele><time>2026-05-02T11:51:11Z</time></trkpt><trkpt lat="44.76052264580789" lon="9.94123183721233"><ele>514.6666666666666</ele><time>2026-05-02T11:51:14Z</time></trkpt><trkpt lat="44.76055124948027" lon="9.941120649162691"><ele>515.0</ele><time>2026-05-02T11:51:17Z</time></trkpt><trkpt lat="44.76060087244954" lon="9.941031633775342"><ele>515.0</ele><time>2026-05-02T11:51:21Z</time></trkpt><trkpt lat="44.76063800296989" lon="9.94094200607067"><ele>515.0</ele><time>2026-05-02T11:51:24Z</time></trkpt><trkpt lat="44.76068801614749" lon="9.940858893157866"><ele>515.0</ele><time>2026-05-02T11:51:27Z</time></trkpt><trkpt lat="44.76074351178873" lon="9.940754617094692"><ele>515.0</ele><time>2026-05-02T11:51:30Z</time></trkpt><trkpt lat="44.76080191498862" lon="9.940672484096424"><ele>515.0</ele><time>2026-05-02T11:51:33Z</time></trkpt><trkpt lat="44.760856325133375" lon="9.940592106839903"><ele>515.0</ele><time>2026-05-02T11:51:36Z</time></trkpt><trkpt lat="44.76090885805732" lon="9.94050922273811"><ele>516.8333333333333</ele><time>2026-05-02T11:51:39Z</time></trkpt><trkpt lat="44.76096281787034" lon="9.94042865574267"><ele>518.6666666666666</ele><time>2026-05-02T11:51:42Z</time></trkpt><trkpt lat="44.761007767563314" lon="9.940338254015588"><ele>520.5</ele><time>2026-05-02T11:51:45Z</time></trkpt><trkpt lat="44.76101947096774" lon="9.940228924357069"><ele>522.3333333333334</ele><time>2026-05-02T11:51:48Z</time></trkpt><trkpt lat="44.760990119552574" lon="9.940125931903333"><ele>524.1666666666667</ele><time>2026-05-02T11:51:51Z</time></trkpt><trkpt lat="44.76091974131886" lon="9.940064892529971"><ele>526.0</ele><time>2026-05-02T11:51:54Z</time></trkpt><trkpt lat="44.760837900773424" lon="9.940062390643027"><ele>526.0</ele><time>2026-05-02T11:51:57Z</time></trkpt><trkpt lat="44.76076135841386" lon="9.940095035723386"><ele>526.0</ele><time>2026-05-02T11:52:00Z</time></trkpt><trkpt lat="44.760687289543064" lon="9.940125518977828"><ele>526.0</ele><time>2026-05-02T11:52:02.999Z</time></trkpt><trkpt lat="44.76061308774866" lon="9.940153103995186"><ele>526.0</ele><time>2026-05-02T11:52:05.999Z</time></trkpt><trkpt lat="44.760539137859176" lon="9.940179884372403"><ele>526.0</ele><time>2026-05-02T11:52:08.999Z</time></trkpt><trkpt lat="44.76046485818849" lon="9.94020298500238"><ele>526.0</ele><time>2026-05-02T11:52:11.999Z</time></trkpt><trkpt lat="44.76039086552415" lon="9.940229493856164"><ele>526.0</ele><time>2026-05-02T11:52:14.999Z</time></trkpt><trkpt lat="44.76031614412733" lon="9.940257694066322"><ele>526.0</ele><time>2026-05-02T11:52:17.999Z</time></trkpt><trkpt lat="44.76024012715361" lon="9.940282138598107"><ele>526.0</ele><time>2026-05-02T11:52:20.999Z</time></trkpt><trkpt lat="44.76016406793216" lon="9.940323052749855"><ele>526.0</ele><time>2026-05-02T11:52:23.999Z</time></trkpt><trkpt lat="44.76009513340814" lon="9.94038477581805"><ele>526.0</ele><time>2026-05-02T11:52:26.999Z</time></trkpt><trkpt lat="44.76003359226993" lon="9.940462400335365"><ele>526.0</ele><time>2026-05-02T11:52:29.999Z</time></trkpt><trkpt lat="44.759987269967354" lon="9.94052687268133"><ele>527.0</ele><time>2026-05-02T11:52:32.999Z</time></trkpt><trkpt lat="44.75993894380129" lon="9.94060794916841"><ele>528.0</ele><time>2026-05-02T11:52:35.999Z</time></trkpt><trkpt lat="44.75988512122528" lon="9.940694683610204"><ele>529.0</ele><time>2026-05-02T11:52:38.999Z</time></trkpt><trkpt lat="44.759827065778026" lon="9.940794821059086"><ele>530.0</ele><time>2026-05-02T11:52:41.999Z</time></trkpt><trkpt lat="44.75977880484917" lon="9.940871883261664"><ele>531.0</ele><time>2026-05-02T11:52:44.999Z</time></trkpt><trkpt lat="44.75972925184662" lon="9.940959865883706"><ele>532.0</ele><time>2026-05-02T11:52:47.999Z</time></trkpt><trkpt lat="44.75968344882585" lon="9.941035562192882"><ele>532.0</ele><time>2026-05-02T11:52:50.999Z</time></trkpt><trkpt lat="44.75963657336138" lon="9.941117377913526"><ele>532.0</ele><time>2026-05-02T11:52:53.999Z</time></trkpt><trkpt lat="44.7595901344889" lon="9.941206946194514"><ele>532.0</ele><time>2026-05-02T11:52:56.999Z</time></trkpt><trkpt lat="44.7595414147837" lon="9.941298410799446"><ele>532.0</ele><time>2026-05-02T11:52:59.998Z</time></trkpt><trkpt lat="44.75949508545839" lon="9.941386457005768"><ele>532.0</ele><time>2026-05-02T11:53:02Z</time></trkpt><trkpt lat="44.75944845698519" lon="9.941487462293418"><ele>532.0</ele><time>2026-05-02T11:53:05Z</time></trkpt><trkpt lat="44.75940352141979" lon="9.941587037353385"><ele>534.6666666666667</ele><time>2026-05-02T11:53:08Z</time></trkpt><trkpt lat="44.75934868012865" lon="9.941679268759463"><ele>537.3333333333334</ele><time>2026-05-02T11:53:11Z</time></trkpt><trkpt lat="44.75930785868149" lon="9.941771604144687"><ele>540.0</ele><time>2026-05-02T11:53:14Z</time></trkpt><trkpt lat="44.759270038889014" lon="9.941859367425318"><ele>542.6666666666666</ele><time>2026-05-02T11:53:17Z</time></trkpt><trkpt lat="44.75922820001901" lon="9.941953307137616"><ele>545.3333333333333</ele><time>2026-05-02T11:53:20Z</time></trkpt><trkpt lat="44.759190261873826" lon="9.942047886437443"><ele>548.0</ele><time>2026-05-02T11:53:23Z</time></trkpt><trkpt lat="44.75915356028879" lon="9.94214672889732"><ele>548.0</ele><time>2026-05-02T11:53:26Z</time></trkpt><trkpt lat="44.759128632561065" lon="9.94226300710769"><ele>548.0</ele><time>2026-05-02T11:53:29Z</time></trkpt><trkpt lat="44.75910556157535" lon="9.942370078183846"><ele>548.0</ele><time>2026-05-02T11:53:32Z</time></trkpt><trkpt lat="44.759091155564015" lon="9.942479180751178"><ele>548.0</ele><time>2026-05-02T11:53:35Z</time></trkpt><trkpt lat="44.75908586004179" lon="9.942589648390458"><ele>548.0</ele><time>2026-05-02T11:53:38Z</time></trkpt><trkpt lat="44.75908702354424" lon="9.942697914336618"><ele>548.0</ele><time>2026-05-02T11:53:41Z</time></trkpt><trkpt lat="44.759092823902776" lon="9.942804163944679"><ele>547.5714285714287</ele><time>2026-05-02T11:53:44Z</time></trkpt><trkpt lat="44.75909143497302" lon="9.94291269271333"><ele>547.1428571428571</ele><time>2026-05-02T11:53:47Z</time></trkpt><trkpt lat="44.759054953806505" lon="9.943004154050492"><ele>546.7142857142858</ele><time>2026-05-02T11:53:50Z</time></trkpt><trkpt lat="44.758984349193554" lon="9.94302288425413"><ele>546.2857142857143</ele><time>2026-05-02T11:53:53Z</time></trkpt><trkpt lat="44.75896073858486" lon="9.942922412421428"><ele>545.8571428571429</ele><time>2026-05-02T11:53:56Z</time></trkpt><trkpt lat="44.75893947713739" lon="9.942824672274874"><ele>545.4285714285714</ele><time>2026-05-02T11:53:59Z</time></trkpt><trkpt lat="44.758916808745354" lon="9.942737644710474"><ele>545.0</ele><time>2026-05-02T11:54:02Z</time></trkpt><trkpt lat="44.758906408823755" lon="9.942642664828123"><ele>545.4285714285714</ele><time>2026-05-02T11:54:05Z</time></trkpt><trkpt lat="44.75889882358274" lon="9.9425444650444"><ele>545.8571428571429</ele><time>2026-05-02T11:54:07.999Z</time></trkpt><trkpt lat="44.75889327321834" lon="9.942442545436132"><ele>546.2857142857143</ele><time>2026-05-02T11:54:10.999Z</time></trkpt><trkpt lat="44.758891785357434" lon="9.942340895481374"><ele>546.7142857142858</ele><time>2026-05-02T11:54:13.999Z</time></trkpt><trkpt lat="44.75888391988952" lon="9.942234342919477"><ele>547.1428571428571</ele><time>2026-05-02T11:54:17.999Z</time></trkpt><trkpt lat="44.75888833687196" lon="9.942140562757709"><ele>547.5714285714287</ele><time>2026-05-02T11:54:20.999Z</time></trkpt><trkpt lat="44.758896552038124" lon="9.942050647656693"><ele>548.0</ele><time>2026-05-02T11:54:23.999Z</time></trkpt><trkpt lat="44.75890738789377" lon="9.941934842900213"><ele>548.0000000000001</ele><time>2026-05-02T11:54:26.999Z</time></trkpt><trkpt lat="44.758917130334694" lon="9.941839338926389"><ele>548.0</ele><time>2026-05-02T11:54:29.999Z</time></trkpt><trkpt lat="44.7589406741501" lon="9.941739539991472"><ele>548.0</ele><time>2026-05-02T11:54:32.999Z</time></trkpt><trkpt lat="44.7589569888748" lon="9.941640489701355"><ele>548.0</ele><time>2026-05-02T11:54:35.999Z</time></trkpt><trkpt lat="44.758972696331035" lon="9.941548141298474"><ele>548.0</ele><time>2026-05-02T11:54:38.999Z</time></trkpt><trkpt lat="44.75899137076278" lon="9.941449586258917"><ele>548.0000000000001</ele><time>2026-05-02T11:54:41.999Z</time></trkpt><trkpt lat="44.759009399368146" lon="9.94135147970289"><ele>548.0</ele><time>2026-05-02T11:54:44.999Z</time></trkpt><trkpt lat="44.75902440839552" lon="9.941251650539844"><ele>549.1428571428572</ele><time>2026-05-02T11:54:47.999Z</time></trkpt><trkpt lat="44.759042588465995" lon="9.941151712427837"><ele>550.2857142857143</ele><time>2026-05-02T11:54:50.999Z</time></trkpt><trkpt lat="44.75905612906635" lon="9.941049259876912"><ele>551.4285714285714</ele><time>2026-05-02T11:54:53.999Z</time></trkpt><trkpt lat="44.7590644127178" lon="9.940947385476159"><ele>552.5714285714287</ele><time>2026-05-02T11:54:56.999Z</time></trkpt><trkpt lat="44.759067591336205" lon="9.940842228192754"><ele>553.7142857142858</ele><time>2026-05-02T11:54:59.999Z</time></trkpt><trkpt lat="44.759061750122555" lon="9.940736388523327"><ele>554.8571428571429</ele><time>2026-05-02T11:55:02.999Z</time></trkpt><trkpt lat="44.75904999741293" lon="9.94063213839174"><ele>556.0</ele><time>2026-05-02T11:55:05.998Z</time></trkpt><trkpt lat="44.759025002841824" lon="9.940526801200036"><ele>557.2857142857142</ele><time>2026-05-02T11:55:09Z</time></trkpt><trkpt lat="44.75900250894521" lon="9.940421747467452"><ele>558.5714285714286</ele><time>2026-05-02T11:55:12Z</time></trkpt><trkpt lat="44.75899396552639" lon="9.94031967912792"><ele>559.8571428571429</ele><time>2026-05-02T11:55:15Z</time></trkpt><trkpt lat="44.75901724506486" lon="9.940214308451345"><ele>561.1428571428571</ele><time>2026-05-02T11:55:18Z</time></trkpt><trkpt lat="44.75904765291708" lon="9.940124671469885"><ele>562.4285714285714</ele><time>2026-05-02T11:55:21Z</time></trkpt><trkpt lat="44.75909007887348" lon="9.940041251522748"><ele>563.7142857142857</ele><time>2026-05-02T11:55:24Z</time></trkpt><trkpt lat="44.75913491318698" lon="9.939958121450374"><ele>565.0</ele><time>2026-05-02T11:55:27Z</time></trkpt><trkpt lat="44.759170772050304" lon="9.93987186161506"><ele>565.8333333333334</ele><time>2026-05-02T11:55:30Z</time></trkpt><trkpt lat="44.759194191159594" lon="9.939778105879965"><ele>566.6666666666667</ele><time>2026-05-02T11:55:33Z</time></trkpt><trkpt lat="44.75920190553737" lon="9.939671012394333"><ele>567.5</ele><time>2026-05-02T11:55:36Z</time></trkpt><trkpt lat="44.759199988157405" lon="9.93956241771053"><ele>568.3333333333334</ele><time>2026-05-02T11:55:39Z</time></trkpt><trkpt lat="44.759187273033795" lon="9.939458181047884"><ele>569.1666666666666</ele><time>2026-05-02T11:55:42Z</time></trkpt><trkpt lat="44.75915957208689" lon="9.939356413740772"><ele>570.0</ele><time>2026-05-02T11:55:45Z</time></trkpt><trkpt lat="44.75913310219427" lon="9.939260124660189"><ele>569.8571428571429</ele><time>2026-05-02T11:55:48Z</time></trkpt><trkpt lat="44.7591042846451" lon="9.939169369919465"><ele>569.7142857142858</ele><time>2026-05-02T11:55:51Z</time></trkpt><trkpt lat="44.75906356923266" lon="9.939082940140365"><ele>569.5714285714287</ele><time>2026-05-02T11:55:54Z</time></trkpt><trkpt lat="44.75901775551494" lon="9.9390030121388"><ele>569.4285714285714</ele><time>2026-05-02T11:55:57Z</time></trkpt><trkpt lat="44.75895945162626" lon="9.938935499353393"><ele>569.2857142857143</ele><time>2026-05-02T11:56:00Z</time></trkpt><trkpt lat="44.75888906191711" lon="9.938891263350678"><ele>569.1428571428572</ele><time>2026-05-02T11:56:03Z</time></trkpt><trkpt lat="44.75881330061467" lon="9.938879427776156"><ele>569.0</ele><time>2026-05-02T11:56:06Z</time></trkpt><trkpt lat="44.758740855024556" lon="9.938864948322381"><ele>569.0</ele><time>2026-05-02T11:56:09Z</time></trkpt><trkpt lat="44.75866420038065" lon="9.938851064334196"><ele>569.0</ele><time>2026-05-02T11:56:11.999Z</time></trkpt><trkpt lat="44.75858922540514" lon="9.938850632267876"><ele>569.0</ele><time>2026-05-02T11:56:14.999Z</time></trkpt><trkpt lat="44.75850970938536" lon="9.938846719005076"><ele>569.0</ele><time>2026-05-02T11:56:17.999Z</time></trkpt><trkpt lat="44.75843491309527" lon="9.938828911090555"><ele>569.0</ele><time>2026-05-02T11:56:20.999Z</time></trkpt><trkpt lat="44.75837175451604" lon="9.938781876960576"><ele>569.0</ele><time>2026-05-02T11:56:23.999Z</time></trkpt><trkpt lat="44.75831598102118" lon="9.93870588091871"><ele>571.6666666666666</ele><time>2026-05-02T11:56:26.999Z</time></trkpt><trkpt lat="44.75828619260764" lon="9.938606738080594"><ele>574.3333333333333</ele><time>2026-05-02T11:56:29.999Z</time></trkpt><trkpt lat="44.75826608600394" lon="9.93849644379045"><ele>577.0</ele><time>2026-05-02T11:56:32.999Z</time></trkpt><trkpt lat="44.7582499024286" lon="9.938379832358018"><ele>579.6666666666666</ele><time>2026-05-02T11:56:35.999Z</time></trkpt><trkpt lat="44.758234694108545" lon="9.93827041591498"><ele>582.3333333333334</ele><time>2026-05-02T11:56:38.999Z</time></trkpt><trkpt lat="44.758208213652146" lon="9.938169282525088"><ele>585.0</ele><time>2026-05-02T11:56:41.999Z</time></trkpt><trkpt lat="44.75817342671107" lon="9.938068542533612"><ele>585.0</ele><time>2026-05-02T11:56:44.999Z</time></trkpt><trkpt lat="44.75812007910018" lon="9.937987290448262"><ele>585.0</ele><time>2026-05-02T11:56:47.999Z</time></trkpt><trkpt lat="44.75806478352692" lon="9.937905678320098"><ele>585.0</ele><time>2026-05-02T11:56:50.999Z</time></trkpt><trkpt lat="44.75801399196777" lon="9.93782833742215"><ele>585.0</ele><time>2026-05-02T11:56:53.999Z</time></trkpt><trkpt lat="44.75797936942586" lon="9.937737175209891"><ele>585.0</ele><time>2026-05-02T11:56:56.999Z</time></trkpt><trkpt lat="44.757950254407184" lon="9.937641285435147"><ele>585.0</ele><time>2026-05-02T11:56:59.999Z</time></trkpt><trkpt lat="44.75793553258983" lon="9.93753872774222"><ele>584.5</ele><time>2026-05-02T11:57:02.999Z</time></trkpt><trkpt lat="44.75792459597345" lon="9.937434039048863"><ele>584.0</ele><time>2026-05-02T11:57:05.999Z</time></trkpt><trkpt lat="44.757920300464626" lon="9.937325140037341"><ele>583.5</ele><time>2026-05-02T11:57:08.998Z</time></trkpt><trkpt lat="44.75792196608537" lon="9.937223197450045"><ele>583.0</ele><time>2026-05-02T11:57:11.998Z</time></trkpt><trkpt lat="44.757946932014804" lon="9.937115312403183"><ele>582.5</ele><time>2026-05-02T11:57:15Z</time></trkpt><trkpt lat="44.75796206185855" lon="9.937012610335694"><ele>582.0</ele><time>2026-05-02T11:57:18Z</time></trkpt><trkpt lat="44.757991795395036" lon="9.936902099551647"><ele>582.0</ele><time>2026-05-02T11:57:22Z</time></trkpt><trkpt lat="44.758028287508324" lon="9.936801195864343"><ele>582.0</ele><time>2026-05-02T11:57:25Z</time></trkpt><trkpt lat="44.75806992953912" lon="9.936711540878571"><ele>582.0</ele><time>2026-05-02T11:57:28Z</time></trkpt><trkpt lat="44.75811648165227" lon="9.936628137005474"><ele>582.0</ele><time>2026-05-02T11:57:31Z</time></trkpt><trkpt lat="44.758166565155705" lon="9.93656743391632"><ele>582.0</ele><time>2026-05-02T11:57:34Z</time></trkpt><trkpt lat="44.758247778844314" lon="9.936498396373239"><ele>582.0</ele><time>2026-05-02T11:57:37Z</time></trkpt><trkpt lat="44.75831780445073" lon="9.936437839749502"><ele>583.0</ele><time>2026-05-02T11:57:40Z</time></trkpt><trkpt lat="44.75836290028183" lon="9.936348446263926"><ele>584.0</ele><time>2026-05-02T11:57:43Z</time></trkpt><trkpt lat="44.758371827147435" lon="9.936241293761807"><ele>585.0</ele><time>2026-05-02T11:57:46Z</time></trkpt><trkpt lat="44.758337707823515" lon="9.936139741039229"><ele>586.0</ele><time>2026-05-02T11:57:49Z</time></trkpt><trkpt lat="44.75827702810213" lon="9.93606290936714"><ele>587.0</ele><time>2026-05-02T11:57:52Z</time></trkpt><trkpt lat="44.75820029191699" lon="9.93602590045897"><ele>588.0</ele><time>2026-05-02T11:57:55Z</time></trkpt><trkpt lat="44.758128676235366" lon="9.93599445507015"><ele>588.0</ele><time>2026-05-02T11:57:58Z</time></trkpt><trkpt lat="44.758053330795285" lon="9.935979480512179"><ele>588.0</ele><time>2026-05-02T11:58:01Z</time></trkpt><trkpt lat="44.75797820493066" lon="9.93596802732701"><ele>588.0</ele><time>2026-05-02T11:58:05Z</time></trkpt><trkpt lat="44.75790922403432" lon="9.935985590006634"><ele>588.0</ele><time>2026-05-02T11:58:08Z</time></trkpt><trkpt lat="44.75784392642039" lon="9.93602796104972"><ele>588.0</ele><time>2026-05-02T11:58:11Z</time></trkpt><trkpt lat="44.757779596481164" lon="9.936089535921372"><ele>588.0</ele><time>2026-05-02T11:58:14Z</time></trkpt><trkpt lat="44.757723332090556" lon="9.936154362825594"><ele>588.0</ele><time>2026-05-02T11:58:16Z</time></trkpt><trkpt lat="44.757668872269655" lon="9.936236410603158"><ele>591.1666666666666</ele><time>2026-05-02T11:58:18.999Z</time></trkpt><trkpt lat="44.75761519713038" lon="9.936328956258778"><ele>594.3333333333334</ele><time>2026-05-02T11:58:21.999Z</time></trkpt><trkpt lat="44.75756746766454" lon="9.936421996080076"><ele>597.5</ele><time>2026-05-02T11:58:24.999Z</time></trkpt><trkpt lat="44.75752904662939" lon="9.936522070816974"><ele>600.6666666666667</ele><time>2026-05-02T11:58:27.999Z</time></trkpt><trkpt lat="44.75749392126294" lon="9.936619203413892"><ele>603.8333333333334</ele><time>2026-05-02T11:58:30.999Z</time></trkpt><trkpt lat="44.75746063415467" lon="9.936722115878252"><ele>607.0</ele><time>2026-05-02T11:58:33.999Z</time></trkpt><trkpt lat="44.75743281746484" lon="9.936829699754307"><ele>607.0</ele><time>2026-05-02T11:58:36.999Z</time></trkpt><trkpt lat="44.75739938302711" lon="9.93694137266522"><ele>607.0</ele><time>2026-05-02T11:58:39.999Z</time></trkpt><trkpt lat="44.75736088340233" lon="9.937048963044456"><ele>607.0</ele><time>2026-05-02T11:58:42.999Z</time></trkpt><trkpt lat="44.757316063746124" lon="9.937155004302445"><ele>607.0</ele><time>2026-05-02T11:58:45.999Z</time></trkpt><trkpt lat="44.75727555615547" lon="9.937262663139704"><ele>607.0</ele><time>2026-05-02T11:58:48.999Z</time></trkpt><trkpt lat="44.75723649480344" lon="9.937379385941343"><ele>607.0</ele><time>2026-05-02T11:58:51.999Z</time></trkpt><trkpt lat="44.757205654039204" lon="9.93748517777601"><ele>608.0</ele><time>2026-05-02T11:58:54.999Z</time></trkpt><trkpt lat="44.75718387035828" lon="9.937575290937312"><ele>609.0</ele><time>2026-05-02T11:58:56.999Z</time></trkpt><trkpt lat="44.75716037128469" lon="9.937703366937766"><ele>610.0</ele><time>2026-05-02T11:58:59.999Z</time></trkpt><trkpt lat="44.757158756931965" lon="9.937833108117598"><ele>611.0</ele><time>2026-05-02T11:59:02.999Z</time></trkpt><trkpt lat="44.757177096885655" lon="9.937960695621518"><ele>612.0</ele><time>2026-05-02T11:59:05.999Z</time></trkpt><trkpt lat="44.75721702849916" lon="9.938082037153249"><ele>613.0</ele><time>2026-05-02T11:59:08.999Z</time></trkpt><trkpt lat="44.75725662395389" lon="9.938154058835892"><ele>613.0</ele><time>2026-05-02T11:59:10.999Z</time></trkpt><trkpt lat="44.75730288295136" lon="9.938217284362757"><ele>613.0</ele><time>2026-05-02T11:59:12.999Z</time></trkpt><trkpt lat="44.75735551581647" lon="9.938273714494237"><ele>613.0</ele><time>2026-05-02T11:59:14.998Z</time></trkpt><trkpt lat="44.75740802042719" lon="9.93833310749288"><ele>613.0</ele><time>2026-05-02T11:59:16.998Z</time></trkpt><trkpt lat="44.75746053244394" lon="9.938388283134232"><ele>613.0</ele><time>2026-05-02T11:59:19Z</time></trkpt><trkpt lat="44.75753257767595" lon="9.938475194331248"><ele>613.0</ele><time>2026-05-02T11:59:22Z</time></trkpt><trkpt lat="44.757585109411444" lon="9.938583396824358"><ele>612.6666666666667</ele><time>2026-05-02T11:59:25Z</time></trkpt><trkpt lat="44.75759764549267" lon="9.938709059447017"><ele>612.3333333333334</ele><time>2026-05-02T11:59:28Z</time></trkpt><trkpt lat="44.7575780134099" lon="9.93882501666233"><ele>612.0</ele><time>2026-05-02T11:59:31Z</time></trkpt><trkpt lat="44.75753684881264" lon="9.938931449239952"><ele>611.6666666666666</ele><time>2026-05-02T11:59:34Z</time></trkpt><trkpt lat="44.75747492599135" lon="9.939002559567646"><ele>611.3333333333333</ele><time>2026-05-02T11:59:37Z</time></trkpt><trkpt lat="44.75739712511239" lon="9.939019393933776"><ele>611.0</ele><time>2026-05-02T11:59:40Z</time></trkpt><trkpt lat="44.75731092075781" lon="9.939032795538996"><ele>611.0</ele><time>2026-05-02T11:59:43Z</time></trkpt><trkpt lat="44.75723998284625" lon="9.938992251886974"><ele>611.0</ele><time>2026-05-02T11:59:46Z</time></trkpt><trkpt lat="44.75717298371064" lon="9.938935410399713"><ele>611.0</ele><time>2026-05-02T11:59:49Z</time></trkpt><trkpt lat="44.75711639550642" lon="9.938855397290979"><ele>611.0</ele><time>2026-05-02T11:59:52Z</time></trkpt><trkpt lat="44.75707074837764" lon="9.938769230640176"><ele>611.0</ele><time>2026-05-02T11:59:55Z</time></trkpt><trkpt lat="44.75704107006736" lon="9.938662780242232"><ele>611.0</ele><time>2026-05-02T11:59:58Z</time></trkpt><trkpt lat="44.75701981372335" lon="9.938557589854986"><ele>611.0</ele><time>2026-05-02T12:00:01Z</time></trkpt><trkpt lat="44.757003838218246" lon="9.938448187626182"><ele>611.0</ele><time>2026-05-02T12:00:04Z</time></trkpt><trkpt lat="44.75698266570783" lon="9.938324248061962"><ele>611.0</ele><time>2026-05-02T12:00:07Z</time></trkpt><trkpt lat="44.75696644151011" lon="9.938210547918867"><ele>611.0</ele><time>2026-05-02T12:00:10Z</time></trkpt><trkpt lat="44.75694507792137" lon="9.938094890958865"><ele>611.0</ele><time>2026-05-02T12:00:13Z</time></trkpt><trkpt lat="44.756922799351955" lon="9.937980994258341"><ele>611.0</ele><time>2026-05-02T12:00:16Z</time></trkpt><trkpt lat="44.75690383393822" lon="9.937867684891293"><ele>611.3333333333333</ele><time>2026-05-02T12:00:19Z</time></trkpt><trkpt lat="44.7568832257591" lon="9.937752052075359"><ele>611.6666666666666</ele><time>2026-05-02T12:00:21.999Z</time></trkpt><trkpt lat="44.75686193753649" lon="9.937635607170556"><ele>612.0</ele><time>2026-05-02T12:00:24.999Z</time></trkpt><trkpt lat="44.75684073223452" lon="9.9375126760257"><ele>612.3333333333334</ele><time>2026-05-02T12:00:27.999Z</time></trkpt><trkpt lat="44.756824591358864" lon="9.937399043754805"><ele>612.6666666666667</ele><time>2026-05-02T12:00:30.999Z</time></trkpt><trkpt lat="44.75681576589656" lon="9.937283846116411"><ele>613.0</ele><time>2026-05-02T12:00:33.999Z</time></trkpt><trkpt lat="44.75681280505805" lon="9.93717748517044"><ele>614.0</ele><time>2026-05-02T12:00:36.999Z</time></trkpt><trkpt lat="44.75682304528936" lon="9.93706960759547"><ele>615.0</ele><time>2026-05-02T12:00:40.999Z</time></trkpt><trkpt lat="44.75683200315062" lon="9.936974510587426"><ele>616.0</ele><time>2026-05-02T12:00:43.999Z</time></trkpt><trkpt lat="44.75680834579487" lon="9.936891443640372"><ele>617.0</ele><time>2026-05-02T12:00:46.999Z</time></trkpt><trkpt lat="44.75678708243801" lon="9.93697934670118"><ele>618.0</ele><time>2026-05-02T12:00:49.999Z</time></trkpt><trkpt lat="44.75677002918426" lon="9.937074787567228"><ele>619.0</ele><time>2026-05-02T12:00:54.999Z</time></trkpt><trkpt lat="44.756754841595594" lon="9.937173354110627"><ele>620.0</ele><time>2026-05-02T12:02:04Z</time></trkpt><trkpt lat="44.75676376793274" lon="9.937303724107881"><ele>620.0</ele><time>2026-05-02T12:02:07Z</time></trkpt><trkpt lat="44.75676988761244" lon="9.937410569965136"><ele>620.0</ele><time>2026-05-02T12:02:09Z</time></trkpt><trkpt lat="44.756784025596865" lon="9.937518040209152"><ele>620.0</ele><time>2026-05-02T12:02:11Z</time></trkpt><trkpt lat="44.75680825892456" lon="9.937637172541978"><ele>620.0</ele><time>2026-05-02T12:02:13Z</time></trkpt><trkpt lat="44.75683440411267" lon="9.937766802204443"><ele>620.0</ele><time>2026-05-02T12:02:15Z</time></trkpt><trkpt lat="44.75685683252442" lon="9.93791098652536"><ele>620.0</ele><time>2026-05-02T12:02:17Z</time></trkpt><trkpt lat="44.75688454767265" lon="9.93807307930104"><ele>618.8333333333333</ele><time>2026-05-02T12:02:19Z</time></trkpt><trkpt lat="44.75691081163748" lon="9.938242845254901"><ele>617.6666666666666</ele><time>2026-05-02T12:02:21Z</time></trkpt><trkpt lat="44.7569276190203" lon="9.938331166690851"><ele>616.5</ele><time>2026-05-02T12:02:22Z</time></trkpt><trkpt lat="44.75694476807931" lon="9.938424577108844"><ele>615.3333333333334</ele><time>2026-05-02T12:02:23Z</time></trkpt><trkpt lat="44.75696141102754" lon="9.938520417728485"><ele>614.1666666666667</ele><time>2026-05-02T12:02:24Z</time></trkpt><trkpt lat="44.756977728433675" lon="9.938619694004752"><ele>613.0</ele><time>2026-05-02T12:02:25Z</time></trkpt><trkpt lat="44.757001008861415" lon="9.938714231123772"><ele>612.6666666666667</ele><time>2026-05-02T12:02:25.999Z</time></trkpt><trkpt lat="44.75703904082265" lon="9.938802268382986"><ele>612.3333333333334</ele><time>2026-05-02T12:02:26.999Z</time></trkpt><trkpt lat="44.75708821860299" lon="9.938885086034475"><ele>612.0</ele><time>2026-05-02T12:02:27.999Z</time></trkpt><trkpt lat="44.757144743185655" lon="9.938959844436686"><ele>611.6666666666666</ele><time>2026-05-02T12:02:28.999Z</time></trkpt><trkpt lat="44.75721198141136" lon="9.93902135865204"><ele>611.3333333333333</ele><time>2026-05-02T12:02:29.999Z</time></trkpt><trkpt lat="44.7572858959665" lon="9.939058200091"><ele>611.0</ele><time>2026-05-02T12:02:30.999Z</time></trkpt><trkpt lat="44.757364647567286" lon="9.93907243996079"><ele>611.0</ele><time>2026-05-02T12:02:31.999Z</time></trkpt><trkpt lat="44.75744207418972" lon="9.939062960102225"><ele>611.0</ele><time>2026-05-02T12:02:32.999Z</time></trkpt><trkpt lat="44.75751388794706" lon="9.939022343572363"><ele>611.0</ele><time>2026-05-02T12:02:33.999Z</time></trkpt><trkpt lat="44.757577209269016" lon="9.93895110014956"><ele>611.0</ele><time>2026-05-02T12:02:34.999Z</time></trkpt><trkpt lat="44.7576216463077" lon="9.938846310962292"><ele>611.0</ele><time>2026-05-02T12:02:35.999Z</time></trkpt><trkpt lat="44.75764589351136" lon="9.938727828172388"><ele>611.0</ele><time>2026-05-02T12:02:36.999Z</time></trkpt><trkpt lat="44.75764144663901" lon="9.938607932022844"><ele>611.0</ele><time>2026-05-02T12:02:37.999Z</time></trkpt><trkpt lat="44.75760203797203" lon="9.938496480434708"><ele>611.0</ele><time>2026-05-02T12:02:38.999Z</time></trkpt><trkpt lat="44.75755084740831" lon="9.938393129904505"><ele>611.0</ele><time>2026-05-02T12:02:39.999Z</time></trkpt><trkpt lat="44.75747610359444" lon="9.938321121705652"><ele>611.0</ele><time>2026-05-02T12:02:40.999Z</time></trkpt><trkpt lat="44.757405046250106" lon="9.93825383694932"><ele>611.0</ele><time>2026-05-02T12:02:41.999Z</time></trkpt><trkpt lat="44.7573368988158" lon="9.938187188141208"><ele>611.0</ele><time>2026-05-02T12:02:42.999Z</time></trkpt><trkpt lat="44.757264374706416" lon="9.938119222570572"><ele>611.4</ele><time>2026-05-02T12:02:43.999Z</time></trkpt><trkpt lat="44.75721616929412" lon="9.938011953179977"><ele>611.8</ele><time>2026-05-02T12:02:44.999Z</time></trkpt><trkpt lat="44.75718682170132" lon="9.937890087136024"><ele>612.1999999999999</ele><time>2026-05-02T12:02:45.999Z</time></trkpt><trkpt lat="44.7571816537676" lon="9.937760678718838"><ele>612.6</ele><time>2026-05-02T12:02:46.999Z</time></trkpt><trkpt lat="44.7571967587963" lon="9.937631877072295"><ele>613.0</ele><time>2026-05-02T12:02:47.999Z</time></trkpt><trkpt lat="44.75723117870219" lon="9.937507527846073"><ele>611.8</ele><time>2026-05-02T12:02:48.999Z</time></trkpt><trkpt lat="44.75727407821859" lon="9.937390040103411"><ele>610.5999999999999</ele><time>2026-05-02T12:02:49.999Z</time></trkpt><trkpt lat="44.75731756598552" lon="9.937273443004933"><ele>609.4000000000001</ele><time>2026-05-02T12:02:50.999Z</time></trkpt><trkpt lat="44.757361358882115" lon="9.93715484173028"><ele>608.2</ele><time>2026-05-02T12:02:51.999Z</time></trkpt><trkpt lat="44.75740211648683" lon="9.93703103855332"><ele>607.0</ele><time>2026-05-02T12:02:52.999Z</time></trkpt><trkpt lat="44.75744042013233" lon="9.936904079310187"><ele>607.0</ele><time>2026-05-02T12:02:53.999Z</time></trkpt><trkpt lat="44.7574775613604" lon="9.936775183604599"><ele>607.0</ele><time>2026-05-02T12:02:54.999Z</time></trkpt><trkpt lat="44.757517827071176" lon="9.936653053485777"><ele>607.0</ele><time>2026-05-02T12:02:55.999Z</time></trkpt><trkpt lat="44.75755874362309" lon="9.936530256752166"><ele>607.0</ele><time>2026-05-02T12:02:56.999Z</time></trkpt><trkpt lat="44.75761651946212" lon="9.93641291129661"><ele>607.0</ele><time>2026-05-02T12:02:57.999Z</time></trkpt><trkpt lat="44.75767600392435" lon="9.936299296350343"><ele>603.2</ele><time>2026-05-02T12:02:58.999Z</time></trkpt><trkpt lat="44.75773556844569" lon="9.936189067047824"><ele>599.4000000000001</ele><time>2026-05-02T12:02:59.999Z</time></trkpt><trkpt lat="44.75780723479345" lon="9.93609717181932"><ele>595.5999999999999</ele><time>2026-05-02T12:03:00.999Z</time></trkpt><trkpt lat="44.75788421684962" lon="9.93603530191724"><ele>591.8</ele><time>2026-05-02T12:03:01.999Z</time></trkpt><trkpt lat="44.75797004200922" lon="9.936008385395928"><ele>588.0</ele><time>2026-05-02T12:03:02.999Z</time></trkpt><trkpt lat="44.75806260338946" lon="9.936012755266923"><ele>588.0</ele><time>2026-05-02T12:03:03.999Z</time></trkpt><trkpt lat="44.75815243137234" lon="9.936037281653453"><ele>588.0</ele><time>2026-05-02T12:03:04.999Z</time></trkpt><trkpt lat="44.75823491509445" lon="9.936067344430603"><ele>588.0</ele><time>2026-05-02T12:03:05.999Z</time></trkpt><trkpt lat="44.75829868338852" lon="9.936121537219586"><ele>588.0</ele><time>2026-05-02T12:03:06.999Z</time></trkpt><trkpt lat="44.75834517960461" lon="9.936192916550679"><ele>588.0</ele><time>2026-05-02T12:03:07.999Z</time></trkpt><trkpt lat="44.758357097636136" lon="9.936293418629075"><ele>588.0</ele><time>2026-05-02T12:03:08.999Z</time></trkpt><trkpt lat="44.758314185884934" lon="9.936394602712062"><ele>588.0</ele><time>2026-05-02T12:03:09.999Z</time></trkpt><trkpt lat="44.75822653232576" lon="9.936428289926388"><ele>588.0</ele><time>2026-05-02T12:03:10.999Z</time></trkpt><trkpt lat="44.758160388799176" lon="9.936499645897678"><ele>588.0</ele><time>2026-05-02T12:03:11.999Z</time></trkpt><trkpt lat="44.758089773006844" lon="9.936574939433996"><ele>588.0</ele><time>2026-05-02T12:03:12.999Z</time></trkpt><trkpt lat="44.75803357528329" lon="9.936676969332241"><ele>588.0</ele><time>2026-05-02T12:03:13.999Z</time></trkpt><trkpt lat="44.75798548316549" lon="9.936789042213933"><ele>588.0</ele><time>2026-05-02T12:03:14.999Z</time></trkpt><trkpt lat="44.75794184368092" lon="9.936908925946048"><ele>587.4</ele><time>2026-05-02T12:03:15.999Z</time></trkpt><trkpt lat="44.75791075688483" lon="9.937039470200206"><ele>586.8</ele><time>2026-05-02T12:03:16.999Z</time></trkpt><trkpt lat="44.757892262375" lon="9.937176379608974"><ele>586.2</ele><time>2026-05-02T12:03:17.999Z</time></trkpt><trkpt lat="44.7578802733574" lon="9.937317562284479"><ele>585.6</ele><time>2026-05-02T12:03:18.999Z</time></trkpt><trkpt lat="44.75787941522737" lon="9.937462115621779"><ele>585.0</ele><time>2026-05-02T12:03:19.999Z</time></trkpt><trkpt lat="44.75789532025096" lon="9.937609104981766"><ele>585.0</ele><time>2026-05-02T12:03:20.999Z</time></trkpt><trkpt lat="44.757930113556725" lon="9.937750827549596"><ele>585.0</ele><time>2026-05-02T12:03:21.998Z</time></trkpt><trkpt lat="44.757983094134424" lon="9.93787699871356"><ele>585.0</ele><time>2026-05-02T12:03:22.998Z</time></trkpt><trkpt lat="44.75805582236953" lon="9.937984748138401"><ele>585.0</ele><time>2026-05-02T12:03:23.998Z</time></trkpt><trkpt lat="44.75813567883344" lon="9.938086365770802"><ele>585.0</ele><time>2026-05-02T12:03:24.998Z</time></trkpt><trkpt lat="44.75819233429436" lon="9.938212276839053"><ele>585.0</ele><time>2026-05-02T12:03:25.998Z</time></trkpt><trkpt lat="44.75821761404282" lon="9.938351684645294"><ele>585.0</ele><time>2026-05-02T12:03:26.998Z</time></trkpt><trkpt lat="44.758232589386736" lon="9.93849158207104"><ele>585.0</ele><time>2026-05-02T12:03:27.998Z</time></trkpt><trkpt lat="44.75825226180087" lon="9.938624153297123"><ele>585.0</ele><time>2026-05-02T12:03:28.998Z</time></trkpt><trkpt lat="44.75829383119936" lon="9.938741710740663"><ele>585.0</ele><time>2026-05-02T12:03:29.998Z</time></trkpt><trkpt lat="44.75836308343545" lon="9.938839407963778"><ele>586.4</ele><time>2026-05-02T12:03:31Z</time></trkpt><trkpt lat="44.75845491959827" lon="9.938896208242488"><ele>587.8</ele><time>2026-05-02T12:03:32Z</time></trkpt><trkpt lat="44.75855630036147" lon="9.93891624619969"><ele>589.2</ele><time>2026-05-02T12:03:33Z</time></trkpt><trkpt lat="44.758659605849886" lon="9.93891119260111"><ele>590.6</ele><time>2026-05-02T12:03:34Z</time></trkpt><trkpt lat="44.758761476984986" lon="9.938911917649783"><ele>592.0</ele><time>2026-05-02T12:03:35Z</time></trkpt><trkpt lat="44.75885751615684" lon="9.938930213571147"><ele>587.6</ele><time>2026-05-02T12:03:36Z</time></trkpt><trkpt lat="44.758944094677325" lon="9.93899240149935"><ele>583.2</ele><time>2026-05-02T12:03:37Z</time></trkpt><trkpt lat="44.75901729230296" lon="9.939083626916325"><ele>578.8</ele><time>2026-05-02T12:03:38Z</time></trkpt><trkpt lat="44.75907365803617" lon="9.939206319589644"><ele>574.4</ele><time>2026-05-02T12:03:39Z</time></trkpt><trkpt lat="44.75911225420327" lon="9.939338526851271"><ele>570.0</ele><time>2026-05-02T12:03:40Z</time></trkpt><trkpt lat="44.75913982641713" lon="9.939484671489193"><ele>570.0</ele><time>2026-05-02T12:03:41Z</time></trkpt><trkpt lat="44.75915491226469" lon="9.939623916852007"><ele>570.0</ele><time>2026-05-02T12:03:42Z</time></trkpt><trkpt lat="44.75914793964319" lon="9.939768290852577"><ele>570.0</ele><time>2026-05-02T12:03:43Z</time></trkpt><trkpt lat="44.75910895192216" lon="9.939898332600587"><ele>570.0</ele><time>2026-05-02T12:03:44Z</time></trkpt><trkpt lat="44.75904501172068" lon="9.94002140057526"><ele>570.0</ele><time>2026-05-02T12:03:45Z</time></trkpt><trkpt lat="44.75898228217755" lon="9.940142683485565"><ele>569.0</ele><time>2026-05-02T12:03:46Z</time></trkpt><trkpt lat="44.758944569650694" lon="9.940275231217525"><ele>568.0</ele><time>2026-05-02T12:03:47Z</time></trkpt><trkpt lat="44.758947026807526" lon="9.940419687762065"><ele>567.0</ele><time>2026-05-02T12:03:48Z</time></trkpt><trkpt lat="44.7589780054756" lon="9.940562203903294"><ele>566.0</ele><time>2026-05-02T12:03:49Z</time></trkpt><trkpt lat="44.75901582566672" lon="9.940702448069251"><ele>565.0</ele><time>2026-05-02T12:03:50Z</time></trkpt><trkpt lat="44.759026527693095" lon="9.940854033993336"><ele>562.75</ele><time>2026-05-02T12:03:51Z</time></trkpt><trkpt lat="44.75901123429599" lon="9.941008252408563"><ele>560.5</ele><time>2026-05-02T12:03:52Z</time></trkpt><trkpt lat="44.75898229918421" lon="9.941162649923456"><ele>558.25</ele><time>2026-05-02T12:03:53Z</time></trkpt><trkpt lat="44.758956598077674" lon="9.941318627711123"><ele>556.0</ele><time>2026-05-02T12:03:54Z</time></trkpt><trkpt lat="44.75892829322296" lon="9.941476641566943"><ele>556.0</ele><time>2026-05-02T12:03:55Z</time></trkpt><trkpt lat="44.75889362805131" lon="9.941634992772611"><ele>556.0</ele><time>2026-05-02T12:03:56Z</time></trkpt><trkpt lat="44.758857581462266" lon="9.941798625113835"><ele>556.0</ele><time>2026-05-02T12:03:57Z</time></trkpt><trkpt lat="44.75883298052434" lon="9.941968066205886"><ele>556.0</ele><time>2026-05-02T12:03:58Z</time></trkpt><trkpt lat="44.7588240180226" lon="9.942137640077513"><ele>554.0</ele><time>2026-05-02T12:03:59Z</time></trkpt><trkpt lat="44.758830418357704" lon="9.942309082190269"><ele>552.0</ele><time>2026-05-02T12:04:00Z</time></trkpt><trkpt lat="44.7588465259586" lon="9.942473568900166"><ele>550.0</ele><time>2026-05-02T12:04:01Z</time></trkpt><trkpt lat="44.75887003454556" lon="9.94263388579421"><ele>548.0</ele><time>2026-05-02T12:04:02Z</time></trkpt><trkpt lat="44.758895827677385" lon="9.94277949178682"><ele>547.4</ele><time>2026-05-02T12:04:03Z</time></trkpt><trkpt lat="44.75891560999643" lon="9.942907417185245"><ele>546.8</ele><time>2026-05-02T12:04:04Z</time></trkpt><trkpt lat="44.75893724050184" lon="9.943015436579888"><ele>546.2</ele><time>2026-05-02T12:04:05Z</time></trkpt><trkpt lat="44.758979208363236" lon="9.94308807455837"><ele>545.6</ele><time>2026-05-02T12:04:06Z</time></trkpt><trkpt lat="44.75910687558284" lon="9.94308058653435"><ele>545.0</ele><time>2026-05-02T12:04:08Z</time></trkpt><trkpt lat="44.759128092886705" lon="9.942953097718267"><ele>545.0</ele><time>2026-05-02T12:04:09Z</time></trkpt><trkpt lat="44.75912141964843" lon="9.942844696269477"><ele>545.0</ele><time>2026-05-02T12:04:10Z</time></trkpt><trkpt lat="44.75910823832124" lon="9.94273874271826"><ele>545.0</ele><time>2026-05-02T12:04:11Z</time></trkpt><trkpt lat="44.75910240747585" lon="9.94262713357929"><ele>545.0</ele><time>2026-05-02T12:04:12Z</time></trkpt><trkpt lat="44.75910274673912" lon="9.942511392042931"><ele>545.0</ele><time>2026-05-02T12:04:13Z</time></trkpt><trkpt lat="44.75911166191309" lon="9.942392762181838"><ele>545.0</ele><time>2026-05-02T12:04:14Z</time></trkpt><trkpt lat="44.75913313798788" lon="9.942273192340082"><ele>545.6</ele><time>2026-05-02T12:04:15Z</time></trkpt><trkpt lat="44.75917318578983" lon="9.942156149492353"><ele>546.2</ele><time>2026-05-02T12:04:16Z</time></trkpt><trkpt lat="44.75922304636342" lon="9.94204596349252"><ele>546.8</ele><time>2026-05-02T12:04:17Z</time></trkpt><trkpt lat="44.75927764132434" lon="9.941937030352411"><ele>547.4</ele><time>2026-05-02T12:04:18Z</time></trkpt><trkpt lat="44.75933184959427" lon="9.941825270308325"><ele>548.0</ele><time>2026-05-02T12:04:19Z</time></trkpt><trkpt lat="44.7593899127907" lon="9.941711566748936"><ele>544.8</ele><time>2026-05-02T12:04:20Z</time></trkpt><trkpt lat="44.759448124263734" lon="9.941596430453087"><ele>541.5999999999999</ele><time>2026-05-02T12:04:21Z</time></trkpt><trkpt lat="44.759506324065846" lon="9.94148006298439"><ele>538.4000000000001</ele><time>2026-05-02T12:04:22Z</time></trkpt><trkpt lat="44.75956298433545" lon="9.941360290533812"><ele>535.2</ele><time>2026-05-02T12:04:23Z</time></trkpt><trkpt lat="44.75962166712666" lon="9.941240920449149"><ele>532.0</ele><time>2026-05-02T12:04:24Z</time></trkpt><trkpt lat="44.75968284811142" lon="9.941120744992386"><ele>532.0</ele><time>2026-05-02T12:04:25Z</time></trkpt><trkpt lat="44.759751092485885" lon="9.941008548081236"><ele>532.0</ele><time>2026-05-02T12:04:26Z</time></trkpt><trkpt lat="44.759822650680576" lon="9.940900828057202"><ele>532.0</ele><time>2026-05-02T12:04:27Z</time></trkpt><trkpt lat="44.75989589358713" lon="9.94079419691207"><ele>532.0</ele><time>2026-05-02T12:04:28Z</time></trkpt><trkpt lat="44.759966117109315" lon="9.940682358703988"><ele>532.0</ele><time>2026-05-02T12:04:29Z</time></trkpt><trkpt lat="44.760035217615744" lon="9.940576385260336"><ele>530.8000000000001</ele><time>2026-05-02T12:04:29.999Z</time></trkpt><trkpt lat="44.7601039683519" lon="9.940471612118035"><ele>529.6</ele><time>2026-05-02T12:04:30.999Z</time></trkpt><trkpt lat="44.76018319901361" lon="9.94038345042766"><ele>528.4000000000001</ele><time>2026-05-02T12:04:31.999Z</time></trkpt><trkpt lat="44.76027707641307" lon="9.940327880562624"><ele>527.2</ele><time>2026-05-02T12:04:32.999Z</time></trkpt><trkpt lat="44.76037678808654" lon="9.940291143783632"><ele>526.0</ele><time>2026-05-02T12:04:33.999Z</time></trkpt><trkpt lat="44.76047872531315" lon="9.940261222009227"><ele>526.0</ele><time>2026-05-02T12:04:34.999Z</time></trkpt><trkpt lat="44.76058106149437" lon="9.940225599225512"><ele>526.0</ele><time>2026-05-02T12:04:35.999Z</time></trkpt><trkpt lat="44.76068107491612" lon="9.940179197433087"><ele>526.0</ele><time>2026-05-02T12:04:36.999Z</time></trkpt><trkpt lat="44.76077460427701" lon="9.940127895138165"><ele>526.0</ele><time>2026-05-02T12:04:37.999Z</time></trkpt><trkpt lat="44.760859150126194" lon="9.940088749161728"><ele>526.0</ele><time>2026-05-02T12:04:38.999Z</time></trkpt><trkpt lat="44.760931461314314" lon="9.940091040742958"><ele>526.0</ele><time>2026-05-02T12:04:39.999Z</time></trkpt><trkpt lat="44.760983733482554" lon="9.940145063255452"><ele>526.0</ele><time>2026-05-02T12:04:40.999Z</time></trkpt><trkpt lat="44.761006202656986" lon="9.940241092408936"><ele>526.0</ele><time>2026-05-02T12:04:41.999Z</time></trkpt><trkpt lat="44.76096207982135" lon="9.940338436475642"><ele>526.0</ele><time>2026-05-02T12:04:42.999Z</time></trkpt><trkpt lat="44.760925657871084" lon="9.940433520798273"><ele>526.0</ele><time>2026-05-02T12:04:43.999Z</time></trkpt><trkpt lat="44.760861527421234" lon="9.940517532391382"><ele>526.0</ele><time>2026-05-02T12:04:44.999Z</time></trkpt><trkpt lat="44.76080149292997" lon="9.940597109742688"><ele>526.0</ele><time>2026-05-02T12:04:45.999Z</time></trkpt><trkpt lat="44.76074128809515" lon="9.940684942103493"><ele>526.0</ele><time>2026-05-02T12:04:46.999Z</time></trkpt><trkpt lat="44.76067987745802" lon="9.940780534558218"><ele>526.0</ele><time>2026-05-02T12:04:47.999Z</time></trkpt><trkpt lat="44.76061843879548" lon="9.940877860660683"><ele>526.0</ele><time>2026-05-02T12:04:48.999Z</time></trkpt><trkpt lat="44.76056209373486" lon="9.9409868540135"><ele>526.0</ele><time>2026-05-02T12:04:49.999Z</time></trkpt><trkpt lat="44.76050884933869" lon="9.941106417987923"><ele>523.8</ele><time>2026-05-02T12:04:50.999Z</time></trkpt><trkpt lat="44.76046746692522" lon="9.941240292976294"><ele>521.6</ele><time>2026-05-02T12:04:51.999Z</time></trkpt><trkpt lat="44.76043451025642" lon="9.941378193003114"><ele>519.4</ele><time>2026-05-02T12:04:52.999Z</time></trkpt><trkpt lat="44.76040157830294" lon="9.94151761137802"><ele>517.2</ele><time>2026-05-02T12:04:53.999Z</time></trkpt><trkpt lat="44.76037352869554" lon="9.941661340232178"><ele>515.0</ele><time>2026-05-02T12:04:54.999Z</time></trkpt><trkpt lat="44.76034536637942" lon="9.941805689130959"><ele>514.6</ele><time>2026-05-02T12:04:55.999Z</time></trkpt><trkpt lat="44.76031322187504" lon="9.941949977209871"><ele>514.2</ele><time>2026-05-02T12:04:56.999Z</time></trkpt><trkpt lat="44.760285530612414" lon="9.942099548234175"><ele>513.8</ele><time>2026-05-02T12:04:57.999Z</time></trkpt><trkpt lat="44.760263065514486" lon="9.9422495058141"><ele>513.4</ele><time>2026-05-02T12:04:58.999Z</time></trkpt><trkpt lat="44.7602403774567" lon="9.942397588759865"><ele>513.0</ele><time>2026-05-02T12:04:59.999Z</time></trkpt><trkpt lat="44.760236622321045" lon="9.942544257984615"><ele>513.4</ele><time>2026-05-02T12:05:00.999Z</time></trkpt><trkpt lat="44.76026592101808" lon="9.94268651293027"><ele>513.8</ele><time>2026-05-02T12:05:01.999Z</time></trkpt><trkpt lat="44.76032176787826" lon="9.942812209863375"><ele>514.2</ele><time>2026-05-02T12:05:02.999Z</time></trkpt><trkpt lat="44.7603918904781" lon="9.942924897038873"><ele>514.6</ele><time>2026-05-02T12:05:03.999Z</time></trkpt><trkpt lat="44.760460506726155" lon="9.943040383763766"><ele>515.0</ele><time>2026-05-02T12:05:04.999Z</time></trkpt><trkpt lat="44.76051270511406" lon="9.94317071407104"><ele>515.0</ele><time>2026-05-02T12:05:05.999Z</time></trkpt><trkpt lat="44.76054781674282" lon="9.943313682995582"><ele>515.0</ele><time>2026-05-02T12:05:06.999Z</time></trkpt><trkpt lat="44.76057636638013" lon="9.94346270958829"><ele>515.0</ele><time>2026-05-02T12:05:07.999Z</time></trkpt><trkpt lat="44.760613074098806" lon="9.94361094043997"><ele>515.0</ele><time>2026-05-02T12:05:08.999Z</time></trkpt><trkpt lat="44.760647841370634" lon="9.94375454972163"><ele>515.0</ele><time>2026-05-02T12:05:09.999Z</time></trkpt><trkpt lat="44.76068176109948" lon="9.943886885122206"><ele>514.1666666666666</ele><time>2026-05-02T12:05:10.999Z</time></trkpt><trkpt lat="44.76072909016421" lon="9.94399702863871"><ele>513.3333333333333</ele><time>2026-05-02T12:05:11.999Z</time></trkpt><trkpt lat="44.760786344975855" lon="9.944069331777092"><ele>512.5</ele><time>2026-05-02T12:05:12.999Z</time></trkpt><trkpt lat="44.76085258643521" lon="9.944097224810184"><ele>511.66666666666663</ele><time>2026-05-02T12:05:13.999Z</time></trkpt><trkpt lat="44.76092548779831" lon="9.944054849903234"><ele>510.8333333333333</ele><time>2026-05-02T12:05:14.999Z</time></trkpt><trkpt lat="44.76097190672204" lon="9.943958827952597"><ele>510.0</ele><time>2026-05-02T12:05:15.999Z</time></trkpt><trkpt lat="44.76099839069542" lon="9.943851740413924"><ele>510.0</ele><time>2026-05-02T12:05:16.999Z</time></trkpt><trkpt lat="44.761018746924954" lon="9.94374457410305"><ele>510.0</ele><time>2026-05-02T12:05:17.999Z</time></trkpt><trkpt lat="44.761036611871795" lon="9.94363513797375"><ele>510.0</ele><time>2026-05-02T12:05:18.999Z</time></trkpt><trkpt lat="44.7610513588982" lon="9.94352128224146"><ele>510.0</ele><time>2026-05-02T12:05:19.999Z</time></trkpt><trkpt lat="44.76105645388619" lon="9.943404619608536"><ele>510.0</ele><time>2026-05-02T12:05:20.999Z</time></trkpt><trkpt lat="44.76104187331572" lon="9.943284681150143"><ele>510.0</ele><time>2026-05-02T12:05:21.999Z</time></trkpt><trkpt lat="44.76102725864944" lon="9.943155697983613"><ele>510.6</ele><time>2026-05-02T12:05:22.999Z</time></trkpt><trkpt lat="44.76099289993747" lon="9.943036950599847"><ele>511.2</ele><time>2026-05-02T12:05:23.999Z</time></trkpt><trkpt lat="44.760956330737294" lon="9.94291836826405"><ele>511.79999999999995</ele><time>2026-05-02T12:05:24.998Z</time></trkpt><trkpt lat="44.76095543276043" lon="9.942784749795486"><ele>512.4</ele><time>2026-05-02T12:05:25.998Z</time></trkpt><trkpt lat="44.760973954072696" lon="9.942653588081317"><ele>513.0</ele><time>2026-05-02T12:05:26.998Z</time></trkpt><trkpt lat="44.76101546988962" lon="9.942528367786041"><ele>509.4</ele><time>2026-05-02T12:05:27.998Z</time></trkpt><trkpt lat="44.76107513205303" lon="9.942413850092274"><ele>505.79999999999995</ele><time>2026-05-02T12:05:28.998Z</time></trkpt><trkpt lat="44.761138259885584" lon="9.942300528890707"><ele>502.2</ele><time>2026-05-02T12:05:29.998Z</time></trkpt><trkpt lat="44.76120318903488" lon="9.942187598532653"><ele>498.6</ele><time>2026-05-02T12:05:30.998Z</time></trkpt><trkpt lat="44.76126610717042" lon="9.94206829378931"><ele>495.0</ele><time>2026-05-02T12:05:31.998Z</time></trkpt><trkpt lat="44.76133284869059" lon="9.94195267636788"><ele>495.0</ele><time>2026-05-02T12:05:32.998Z</time></trkpt><trkpt lat="44.76140993743299" lon="9.941849588020855"><ele>495.0</ele><time>2026-05-02T12:05:33.998Z</time></trkpt><trkpt lat="44.76150510994051" lon="9.941769956665139"><ele>495.0</ele><time>2026-05-02T12:05:34.998Z</time></trkpt><trkpt lat="44.76161049612594" lon="9.941711353454538"><ele>495.0</ele><time>2026-05-02T12:05:35.998Z</time></trkpt><trkpt lat="44.76172083288702" lon="9.941684094587329"><ele>495.0</ele><time>2026-05-02T12:05:37Z</time></trkpt><trkpt lat="44.76183056207623" lon="9.941677580714101"><ele>494.0</ele><time>2026-05-02T12:05:38Z</time></trkpt><trkpt lat="44.761940902213425" lon="9.941693206566484"><ele>493.0</ele><time>2026-05-02T12:05:39Z</time></trkpt><trkpt lat="44.76205139838338" lon="9.94170636567668"><ele>492.0</ele><time>2026-05-02T12:05:40Z</time></trkpt><trkpt lat="44.762160836050526" lon="9.94166541593962"><ele>491.0</ele><time>2026-05-02T12:05:41Z</time></trkpt><trkpt lat="44.7622581142326" lon="9.941575382793069"><ele>491.0</ele><time>2026-05-02T12:05:42Z</time></trkpt><trkpt lat="44.76233794356106" lon="9.941454247750162"><ele>491.0</ele><time>2026-05-02T12:05:43Z</time></trkpt><trkpt lat="44.76240648979656" lon="9.941322792322731"><ele>491.0</ele><time>2026-05-02T12:05:44Z</time></trkpt><trkpt lat="44.76247688268028" lon="9.941195734896471"><ele>491.0</ele><time>2026-05-02T12:05:45Z</time></trkpt><trkpt lat="44.76255136314155" lon="9.941095036054476"><ele>491.0</ele><time>2026-05-02T12:05:46Z</time></trkpt><trkpt lat="44.762644430455246" lon="9.941044535886453"><ele>491.0</ele><time>2026-05-02T12:05:47Z</time></trkpt><trkpt lat="44.762754081751616" lon="9.941056881345721"><ele>491.0</ele><time>2026-05-02T12:05:48Z</time></trkpt><trkpt lat="44.7628525657273" lon="9.941116681430229"><ele>491.0</ele><time>2026-05-02T12:05:49Z</time></trkpt><trkpt lat="44.76294181184362" lon="9.941177804938928"><ele>491.0</ele><time>2026-05-02T12:05:50Z</time></trkpt><trkpt lat="44.7630406729935" lon="9.941214155265744"><ele>488.4</ele><time>2026-05-02T12:05:51Z</time></trkpt><trkpt lat="44.76314239200073" lon="9.94121355626208"><ele>485.8</ele><time>2026-05-02T12:05:52Z</time></trkpt><trkpt lat="44.763244505298665" lon="9.941179039284846"><ele>483.19999999999993</ele><time>2026-05-02T12:05:53Z</time></trkpt><trkpt lat="44.763343531219874" lon="9.94111586731274"><ele>480.59999999999997</ele><time>2026-05-02T12:05:54Z</time></trkpt><trkpt lat="44.76343975208649" lon="9.94104443752727"><ele>478.0</ele><time>2026-05-02T12:05:55Z</time></trkpt><trkpt lat="44.76353799021128" lon="9.940976327707508"><ele>476.59999999999997</ele><time>2026-05-02T12:05:56Z</time></trkpt><trkpt lat="44.76362817597928" lon="9.940905214308183"><ele>475.19999999999993</ele><time>2026-05-02T12:05:57Z</time></trkpt><trkpt lat="44.76370005483404" lon="9.940810666588067"><ele>473.8</ele><time>2026-05-02T12:05:58Z</time></trkpt><trkpt lat="44.7637593871616" lon="9.940697337863332"><ele>472.4</ele><time>2026-05-02T12:05:59Z</time></trkpt><trkpt lat="44.76380158485715" lon="9.940594429617942"><ele>471.0</ele><time>2026-05-02T12:06:00Z</time></trkpt><trkpt lat="44.76384055783788" lon="9.940511400879075"><ele>471.0</ele><time>2026-05-02T12:06:01Z</time></trkpt><trkpt lat="44.763954364203045" lon="9.940515012323592"><ele>471.0</ele><time>2026-05-02T12:06:03Z</time></trkpt><trkpt lat="44.763978641397365" lon="9.940627071584359"><ele>471.0</ele><time>2026-05-02T12:06:04Z</time></trkpt><trkpt lat="44.7639235855236" lon="9.940720640094797"><ele>471.0</ele><time>2026-05-02T12:06:05Z</time></trkpt><trkpt lat="44.763901593186446" lon="9.940822695783028"><ele>471.0</ele><time>2026-05-02T12:06:06Z</time></trkpt><trkpt lat="44.763862167718955" lon="9.94092145411438"><ele>471.0</ele><time>2026-05-02T12:06:07Z</time></trkpt><trkpt lat="44.76381463459942" lon="9.941018631749722"><ele>472.4</ele><time>2026-05-02T12:06:08Z</time></trkpt><trkpt lat="44.76375689368906" lon="9.941116028228972"><ele>473.8</ele><time>2026-05-02T12:06:09Z</time></trkpt><trkpt lat="44.76369760985474" lon="9.941218605514118"><ele>475.19999999999993</ele><time>2026-05-02T12:06:10Z</time></trkpt><trkpt lat="44.76363944596196" lon="9.941328537044022"><ele>476.59999999999997</ele><time>2026-05-02T12:06:11Z</time></trkpt><trkpt lat="44.76358036348929" lon="9.941440713459283"><ele>478.0</ele><time>2026-05-02T12:06:12Z</time></trkpt><trkpt lat="44.76352115448184" lon="9.941557191718555"><ele>478.0</ele><time>2026-05-02T12:06:13Z</time></trkpt><trkpt lat="44.76345804359184" lon="9.941676652005842"><ele>477.99999999999994</ele><time>2026-05-02T12:06:14Z</time></trkpt><trkpt lat="44.76339288755029" lon="9.941794630263436"><ele>477.99999999999994</ele><time>2026-05-02T12:06:15Z</time></trkpt><trkpt lat="44.7633309865303" lon="9.941921648689542"><ele>478.0</ele><time>2026-05-02T12:06:16Z</time></trkpt><trkpt lat="44.76326886896978" lon="9.942052477234618"><ele>478.0</ele><time>2026-05-02T12:06:17Z</time></trkpt><trkpt lat="44.76320569735034" lon="9.942186716581244"><ele>476.00000000000006</ele><time>2026-05-02T12:06:18Z</time></trkpt><trkpt lat="44.76315458468431" lon="9.942312300775882"><ele>474.0</ele><time>2026-05-02T12:06:19Z</time></trkpt><trkpt lat="44.76310481949528" lon="9.942426311703224"><ele>472.0</ele><time>2026-05-02T12:06:20Z</time></trkpt><trkpt lat="44.76307468967488" lon="9.942539191278762"><ele>470.0</ele><time>2026-05-02T12:06:21Z</time></trkpt><trkpt lat="44.7630768325781" lon="9.942652225687882"><ele>468.00000000000006</ele><time>2026-05-02T12:06:22Z</time></trkpt><trkpt lat="44.763124231718045" lon="9.94274649030364"><ele>466.0</ele><time>2026-05-02T12:06:23Z</time></trkpt><trkpt lat="44.76320289380514" lon="9.942800229822698"><ele>465.6</ele><time>2026-05-02T12:06:24Z</time></trkpt><trkpt lat="44.76329526559119" lon="9.942805261269285"><ele>465.20000000000005</ele><time>2026-05-02T12:06:25Z</time></trkpt><trkpt lat="44.763387130788516" lon="9.942776794838894"><ele>464.79999999999995</ele><time>2026-05-02T12:06:26Z</time></trkpt><trkpt lat="44.76348073246539" lon="9.942735477006854"><ele>464.4</ele><time>2026-05-02T12:06:27Z</time></trkpt><trkpt lat="44.76357673471443" lon="9.942687425630615"><ele>464.0</ele><time>2026-05-02T12:06:28Z</time></trkpt><trkpt lat="44.76367730610999" lon="9.942630436167443"><ele>461.75</ele><time>2026-05-02T12:06:29Z</time></trkpt><trkpt lat="44.76377378337318" lon="9.94256061237241"><ele>459.5</ele><time>2026-05-02T12:06:30Z</time></trkpt><trkpt lat="44.76386261803058" lon="9.94246334879247"><ele>457.25</ele><time>2026-05-02T12:06:30.999Z</time></trkpt><trkpt lat="44.76395004673416" lon="9.942358709307427"><ele>455.0</ele><time>2026-05-02T12:06:31.999Z</time></trkpt><trkpt lat="44.76404309113951" lon="9.942261190577117"><ele>455.0</ele><time>2026-05-02T12:06:32.999Z</time></trkpt><trkpt lat="44.764146043469424" lon="9.942172829956034"><ele>455.0</ele><time>2026-05-02T12:06:33.999Z</time></trkpt><trkpt lat="44.764252388264595" lon="9.942087497670459"><ele>455.0</ele><time>2026-05-02T12:06:34.999Z</time></trkpt><trkpt lat="44.764363100436206" lon="9.942007206588656"><ele>455.0</ele><time>2026-05-02T12:06:35.999Z</time></trkpt><trkpt lat="44.76447942320802" lon="9.941925770572915"><ele>452.25</ele><time>2026-05-02T12:06:36.999Z</time></trkpt><trkpt lat="44.76459375657344" lon="9.941836814292982"><ele>449.5</ele><time>2026-05-02T12:06:37.999Z</time></trkpt><trkpt lat="44.764709293245645" lon="9.94174677864322"><ele>446.75</ele><time>2026-05-02T12:06:38.999Z</time></trkpt><trkpt lat="44.7648275617798" lon="9.941654234412399"><ele>444.0</ele><time>2026-05-02T12:06:39.999Z</time></trkpt><trkpt lat="44.764946556590964" lon="9.941559726791887"><ele>444.0</ele><time>2026-05-02T12:06:40.999Z</time></trkpt><trkpt lat="44.76506906988841" lon="9.941466863629037"><ele>444.0</ele><time>2026-05-02T12:06:41.999Z</time></trkpt><trkpt lat="44.765191336415114" lon="9.941370364789663"><ele>444.0</ele><time>2026-05-02T12:06:42.999Z</time></trkpt><trkpt lat="44.76531158890652" lon="9.941278725893154"><ele>444.0</ele><time>2026-05-02T12:06:43.999Z</time></trkpt><trkpt lat="44.76543138279327" lon="9.941185171136157"><ele>441.0</ele><time>2026-05-02T12:06:44.999Z</time></trkpt><trkpt lat="44.76555311292272" lon="9.941096387268791"><ele>438.0</ele><time>2026-05-02T12:06:45.999Z</time></trkpt><trkpt lat="44.76567586769656" lon="9.941014432625488"><ele>435.0</ele><time>2026-05-02T12:06:46.999Z</time></trkpt><trkpt lat="44.76580176800997" lon="9.940944790970148"><ele>432.0</ele><time>2026-05-02T12:06:47.999Z</time></trkpt><trkpt lat="44.76593105431777" lon="9.940892208668943"><ele>432.0</ele><time>2026-05-02T12:06:48.999Z</time></trkpt><trkpt lat="44.766059751406225" lon="9.940844904396752"><ele>432.0</ele><time>2026-05-02T12:06:49.999Z</time></trkpt><trkpt lat="44.766188420662075" lon="9.94079591119444"><ele>432.0</ele><time>2026-05-02T12:06:50.999Z</time></trkpt><trkpt lat="44.76631567008665" lon="9.940737926756267"><ele>432.0</ele><time>2026-05-02T12:06:51.999Z</time></trkpt><trkpt lat="44.76644348235113" lon="9.940676168698806"><ele>432.0</ele><time>2026-05-02T12:06:52.999Z</time></trkpt><trkpt lat="44.766571022011355" lon="9.940622898465888"><ele>432.0</ele><time>2026-05-02T12:06:53.999Z</time></trkpt><trkpt lat="44.76670171220142" lon="9.940578123061476"><ele>432.0</ele><time>2026-05-02T12:06:54.999Z</time></trkpt><trkpt lat="44.76683467299673" lon="9.940544662206024"><ele>432.0</ele><time>2026-05-02T12:06:55.999Z</time></trkpt><trkpt lat="44.76697068703695" lon="9.94051966242394"><ele>431.25</ele><time>2026-05-02T12:06:56.999Z</time></trkpt><trkpt lat="44.76710516058414" lon="9.94048839374244"><ele>430.5</ele><time>2026-05-02T12:06:57.999Z</time></trkpt><trkpt lat="44.76723878808693" lon="9.940456717755715"><ele>429.75</ele><time>2026-05-02T12:06:58.999Z</time></trkpt><trkpt lat="44.76737190540917" lon="9.940426848861092"><ele>429.0</ele><time>2026-05-02T12:06:59.999Z</time></trkpt><trkpt lat="44.767504687671696" lon="9.940397203529196"><ele>429.0</ele><time>2026-05-02T12:07:00.999Z</time></trkpt><trkpt lat="44.7676347157485" lon="9.94036841520844"><ele>429.0</ele><time>2026-05-02T12:07:01.999Z</time></trkpt><trkpt lat="44.76776660295662" lon="9.94035545685515"><ele>429.0</ele><time>2026-05-02T12:07:02.999Z</time></trkpt><trkpt lat="44.76789744250131" lon="9.94037415990978"><ele>429.0</ele><time>2026-05-02T12:07:03.999Z</time></trkpt><trkpt lat="44.76802028472288" lon="9.940411920428827"><ele>428.0</ele><time>2026-05-02T12:07:04.999Z</time></trkpt><trkpt lat="44.76813678669061" lon="9.940469426109605"><ele>427.0</ele><time>2026-05-02T12:07:05.999Z</time></trkpt><trkpt lat="44.76824548244852" lon="9.940541193055067"><ele>426.0</ele><time>2026-05-02T12:07:06.999Z</time></trkpt><trkpt lat="44.76834087099477" lon="9.940637069381545"><ele>425.0</ele><time>2026-05-02T12:07:07.999Z</time></trkpt><trkpt lat="44.76841992977315" lon="9.940760773846925"><ele>424.75</ele><time>2026-05-02T12:07:08.999Z</time></trkpt><trkpt lat="44.768479493060596" lon="9.940901766416674"><ele>424.5</ele><time>2026-05-02T12:07:09.999Z</time></trkpt><trkpt lat="44.76851691281839" lon="9.941055999548405"><ele>424.25</ele><time>2026-05-02T12:07:10.999Z</time></trkpt><trkpt lat="44.76854578035723" lon="9.941209950423701"><ele>424.0</ele><time>2026-05-02T12:07:11.999Z</time></trkpt><trkpt lat="44.76857969103278" lon="9.941365077268678"><ele>421.75</ele><time>2026-05-02T12:07:12.999Z</time></trkpt><trkpt lat="44.768651215902736" lon="9.94149448966163"><ele>419.5</ele><time>2026-05-02T12:07:13.999Z</time></trkpt><trkpt lat="44.76874949045177" lon="9.941589045765"><ele>417.25</ele><time>2026-05-02T12:07:14.999Z</time></trkpt><trkpt lat="44.76885741353029" lon="9.941659309889133"><ele>415.0</ele><time>2026-05-02T12:07:15.999Z</time></trkpt><trkpt lat="44.768968200812104" lon="9.94172122442446"><ele>414.0</ele><time>2026-05-02T12:07:16.999Z</time></trkpt><trkpt lat="44.769084139058386" lon="9.941769805994872"><ele>413.0</ele><time>2026-05-02T12:07:17.999Z</time></trkpt><trkpt lat="44.76920403786781" lon="9.941800439243881"><ele>412.0</ele><time>2026-05-02T12:07:18.999Z</time></trkpt><trkpt lat="44.76932664129375" lon="9.941816920299228"><ele>411.0</ele><time>2026-05-02T12:07:19.999Z</time></trkpt><trkpt lat="44.76944966848701" lon="9.941798730765496"><ele>411.25</ele><time>2026-05-02T12:07:20.999Z</time></trkpt><trkpt lat="44.76956892211504" lon="9.94175373244551"><ele>411.5</ele><time>2026-05-02T12:07:21.999Z</time></trkpt><trkpt lat="44.76967752578438" lon="9.941668907739817"><ele>411.75</ele><time>2026-05-02T12:07:22.999Z</time></trkpt><trkpt lat="44.76977504281975" lon="9.941562034997533"><ele>412.0</ele><time>2026-05-02T12:07:23.999Z</time></trkpt><trkpt lat="44.76986333368741" lon="9.941440254345714"><ele>412.0</ele><time>2026-05-02T12:07:24.999Z</time></trkpt><trkpt lat="44.76994081265905" lon="9.941305104158538"><ele>412.0</ele><time>2026-05-02T12:07:25.999Z</time></trkpt><trkpt lat="44.77000427119157" lon="9.94115394116972"><ele>412.0</ele><time>2026-05-02T12:07:26.998Z</time></trkpt><trkpt lat="44.770058024320434" lon="9.940995717632704"><ele>412.0</ele><time>2026-05-02T12:07:27.998Z</time></trkpt><trkpt lat="44.770123189192795" lon="9.940848086731311"><ele>410.75</ele><time>2026-05-02T12:07:28.998Z</time></trkpt><trkpt lat="44.77017828501655" lon="9.940704685395733"><ele>409.5</ele><time>2026-05-02T12:07:29.998Z</time></trkpt><trkpt lat="44.770223577652914" lon="9.94056166980482"><ele>408.25</ele><time>2026-05-02T12:07:30.998Z</time></trkpt><trkpt lat="44.7703130525418" lon="9.940468878957267"><ele>407.0</ele><time>2026-05-02T12:07:31.998Z</time></trkpt><trkpt lat="44.77041683554924" lon="9.940407459701138"><ele>403.5</ele><time>2026-05-02T12:07:32.998Z</time></trkpt><trkpt lat="44.77053084983195" lon="9.940366958990415"><ele>400.0</ele><time>2026-05-02T12:07:33.998Z</time></trkpt><trkpt lat="44.7706454347489" lon="9.940319613718458"><ele>396.5</ele><time>2026-05-02T12:07:34.998Z</time></trkpt><trkpt lat="44.77075505729811" lon="9.940252098137217"><ele>393.0</ele><time>2026-05-02T12:07:35.998Z</time></trkpt><trkpt lat="44.77085996886593" lon="9.940164667700042"><ele>393.0</ele><time>2026-05-02T12:07:36.998Z</time></trkpt><trkpt lat="44.77096413178395" lon="9.940076352319323"><ele>393.0</ele><time>2026-05-02T12:07:37.998Z</time></trkpt><trkpt lat="44.771072082838934" lon="9.939995735512364"><ele>393.0</ele><time>2026-05-02T12:07:38.998Z</time></trkpt><trkpt lat="44.77118109337176" lon="9.939926933153016"><ele>393.0</ele><time>2026-05-02T12:07:39.998Z</time></trkpt><trkpt lat="44.7712859856785" lon="9.939867658893322"><ele>390.0</ele><time>2026-05-02T12:07:40.998Z</time></trkpt><trkpt lat="44.771393381411826" lon="9.939816225753189"><ele>387.0</ele><time>2026-05-02T12:07:41.998Z</time></trkpt><trkpt lat="44.771493896112105" lon="9.939767086439836"><ele>384.0</ele><time>2026-05-02T12:07:43Z</time></trkpt><trkpt lat="44.77158709860653" lon="9.939698414444493"><ele>381.0</ele><time>2026-05-02T12:07:44Z</time></trkpt><trkpt lat="44.77166812293353" lon="9.93960782194621"><ele>378.0</ele><time>2026-05-02T12:07:45Z</time></trkpt><trkpt lat="44.7717289794572" lon="9.939482094625287"><ele>378.0</ele><time>2026-05-02T12:07:46Z</time></trkpt><trkpt lat="44.77176576093635" lon="9.939335651494897"><ele>378.0</ele><time>2026-05-02T12:07:47Z</time></trkpt><trkpt lat="44.771784898199975" lon="9.939184108387346"><ele>378.0</ele><time>2026-05-02T12:07:48Z</time></trkpt><trkpt lat="44.7717751326148" lon="9.939028589084046"><ele>378.0</ele><time>2026-05-02T12:07:49Z</time></trkpt><trkpt lat="44.771737358540264" lon="9.938887629843004"><ele>378.0</ele><time>2026-05-02T12:07:50Z</time></trkpt><trkpt lat="44.771673894512524" lon="9.93876868790226"><ele>380.59999999999997</ele><time>2026-05-02T12:07:51Z</time></trkpt><trkpt lat="44.77160567961013" lon="9.938647695237433"><ele>383.2</ele><time>2026-05-02T12:07:52Z</time></trkpt><trkpt lat="44.77151429336539" lon="9.938567047599985"><ele>385.8</ele><time>2026-05-02T12:07:53Z</time></trkpt><trkpt lat="44.771402882422976" lon="9.938548498838175"><ele>388.4</ele><time>2026-05-02T12:07:54Z</time></trkpt><trkpt lat="44.77129581788754" lon="9.938556572989583"><ele>391.0</ele><time>2026-05-02T12:07:55Z</time></trkpt><trkpt lat="44.77118957558725" lon="9.938603419047245"><ele>391.0</ele><time>2026-05-02T12:07:56Z</time></trkpt><trkpt lat="44.7710846069158" lon="9.93865493918027"><ele>391.0</ele><time>2026-05-02T12:07:57Z</time></trkpt><trkpt lat="44.7709732333099" lon="9.938661823951907"><ele>391.0</ele><time>2026-05-02T12:07:58Z</time></trkpt><trkpt lat="44.77086703169341" lon="9.9386778192281"><ele>391.0</ele><time>2026-05-02T12:07:59Z</time></trkpt><trkpt lat="44.77076980635954" lon="9.938648791798679"><ele>391.0</ele><time>2026-05-02T12:08:00Z</time></trkpt><trkpt lat="44.770689977945544" lon="9.938587619991225"><ele>390.8</ele><time>2026-05-02T12:08:01Z</time></trkpt><trkpt lat="44.77060685104422" lon="9.938502750749622"><ele>390.6</ele><time>2026-05-02T12:08:02Z</time></trkpt><trkpt lat="44.77051572149883" lon="9.938417444001866"><ele>390.4</ele><time>2026-05-02T12:08:03Z</time></trkpt><trkpt lat="44.77042018228744" lon="9.938328009992349"><ele>390.2</ele><time>2026-05-02T12:08:04Z</time></trkpt><trkpt lat="44.770324235578656" lon="9.938238194664708"><ele>390.0</ele><time>2026-05-02T12:08:05Z</time></trkpt><trkpt lat="44.770235135677254" lon="9.938146659392867"><ele>387.8</ele><time>2026-05-02T12:08:06Z</time></trkpt><trkpt lat="44.7701666766494" lon="9.938043298187402"><ele>385.6</ele><time>2026-05-02T12:08:07Z</time></trkpt><trkpt lat="44.770118300906645" lon="9.937922333710212"><ele>383.4</ele><time>2026-05-02T12:08:08Z</time></trkpt><trkpt lat="44.77013049984674" lon="9.937789695433805"><ele>381.2</ele><time>2026-05-02T12:08:09Z</time></trkpt><trkpt lat="44.770177878144835" lon="9.937682868756875"><ele>379.0</ele><time>2026-05-02T12:08:10Z</time></trkpt><trkpt lat="44.77025445962725" lon="9.937618739519243"><ele>379.0</ele><time>2026-05-02T12:08:11Z</time></trkpt><trkpt lat="44.77034113788449" lon="9.9376042535138"><ele>379.0</ele><time>2026-05-02T12:08:12Z</time></trkpt><trkpt lat="44.77042415708047" lon="9.937628811466032"><ele>379.0</ele><time>2026-05-02T12:08:13Z</time></trkpt><trkpt lat="44.77049348946469" lon="9.937695692117599"><ele>379.0</ele><time>2026-05-02T12:08:14Z</time></trkpt><trkpt lat="44.7705400357712" lon="9.937792671125644"><ele>379.0</ele><time>2026-05-02T12:08:15Z</time></trkpt><trkpt lat="44.77058344402267" lon="9.937908033018925"><ele>379.0</ele><time>2026-05-02T12:08:16Z</time></trkpt><trkpt lat="44.77064648155456" lon="9.938004984138123"><ele>379.0</ele><time>2026-05-02T12:08:17Z</time></trkpt><trkpt lat="44.770733650050936" lon="9.938068725001008"><ele>379.0</ele><time>2026-05-02T12:08:18Z</time></trkpt><trkpt lat="44.77083524538144" lon="9.93807070229119"><ele>379.0</ele><time>2026-05-02T12:08:19Z</time></trkpt><trkpt lat="44.77092036334729" lon="9.938018020847814"><ele>379.0</ele><time>2026-05-02T12:08:20Z</time></trkpt><trkpt lat="44.77098999236298" lon="9.937929037990047"><ele>379.0</ele><time>2026-05-02T12:08:21Z</time></trkpt><trkpt lat="44.77105254445501" lon="9.937828618959875"><ele>378.79999999999995</ele><time>2026-05-02T12:08:22Z</time></trkpt><trkpt lat="44.771124969003985" lon="9.93774178522063"><ele>378.59999999999997</ele><time>2026-05-02T12:08:23Z</time></trkpt><trkpt lat="44.77120392514523" lon="9.937670132421031"><ele>378.4</ele><time>2026-05-02T12:08:24Z</time></trkpt><trkpt lat="44.77129595748796" lon="9.937630287665925"><ele>378.2</ele><time>2026-05-02T12:08:25Z</time></trkpt><trkpt lat="44.771392207899936" lon="9.937633206579633"><ele>378.0</ele><time>2026-05-02T12:08:26Z</time></trkpt><trkpt lat="44.771482686887104" lon="9.937667555592014"><ele>378.0</ele><time>2026-05-02T12:08:27Z</time></trkpt><trkpt lat="44.77156029915555" lon="9.937712687332544"><ele>378.0</ele><time>2026-05-02T12:08:28Z</time></trkpt><trkpt lat="44.771630437771194" lon="9.93772490628542"><ele>378.0</ele><time>2026-05-02T12:08:29Z</time></trkpt><trkpt lat="44.77168603770864" lon="9.937672375000659"><ele>378.0</ele><time>2026-05-02T12:08:30Z</time></trkpt><trkpt lat="44.77171805791711" lon="9.937594679592685"><ele>378.0</ele><time>2026-05-02T12:08:31Z</time></trkpt><trkpt lat="44.771679772932075" lon="9.937483220523095"><ele>378.0</ele><time>2026-05-02T12:08:32Z</time></trkpt><trkpt lat="44.771599739510826" lon="9.937431592575669"><ele>375.42857142857144</ele><time>2026-05-02T12:08:33Z</time></trkpt><trkpt lat="44.77152802061067" lon="9.937414673250917"><ele>372.8571428571429</ele><time>2026-05-02T12:08:34Z</time></trkpt><trkpt lat="44.771463401089754" lon="9.937399067741037"><ele>370.2857142857143</ele><time>2026-05-02T12:08:35Z</time></trkpt><trkpt lat="44.771394807778805" lon="9.93740464686099"><ele>367.7142857142857</ele><time>2026-05-02T12:08:35.999Z</time></trkpt><trkpt lat="44.771330452465016" lon="9.937363770977598"><ele>365.14285714285717</ele><time>2026-05-02T12:08:36.999Z</time></trkpt><trkpt lat="44.771259716737" lon="9.937344596610343"><ele>362.57142857142856</ele><time>2026-05-02T12:08:37.999Z</time></trkpt><trkpt lat="44.77118871945894" lon="9.937321452889444"><ele>360.0</ele><time>2026-05-02T12:08:38.999Z</time></trkpt><trkpt lat="44.77111441453183" lon="9.93723395520589"><ele>360.0</ele><time>2026-05-02T12:08:40.999Z</time></trkpt><trkpt lat="44.771160667169546" lon="9.93710451103996"><ele>360.0</ele><time>2026-05-02T12:08:42.999Z</time></trkpt><trkpt lat="44.771241203355345" lon="9.937106248404595"><ele>360.0</ele><time>2026-05-02T12:08:43.999Z</time></trkpt><trkpt lat="44.77131718217584" lon="9.937138021342438"><ele>360.0</ele><time>2026-05-02T12:08:44.999Z</time></trkpt><trkpt lat="44.771393443785435" lon="9.937164120618103"><ele>360.0</ele><time>2026-05-02T12:08:45.999Z</time></trkpt><trkpt lat="44.77147247570439" lon="9.937195170194297"><ele>360.0</ele><time>2026-05-02T12:08:46.999Z</time></trkpt><trkpt lat="44.77155755448678" lon="9.937227414897427"><ele>360.0</ele><time>2026-05-02T12:08:47.999Z</time></trkpt><trkpt lat="44.77165016642016" lon="9.937259318251588"><ele>360.0</ele><time>2026-05-02T12:08:48.999Z</time></trkpt><trkpt lat="44.77174343711537" lon="9.93728933488793"><ele>360.0</ele><time>2026-05-02T12:08:49.999Z</time></trkpt><trkpt lat="44.77184283157766" lon="9.937315847446841"><ele>360.0</ele><time>2026-05-02T12:08:50.999Z</time></trkpt><trkpt lat="44.77194261481484" lon="9.93734353869621"><ele>360.0</ele><time>2026-05-02T12:08:51.999Z</time></trkpt><trkpt lat="44.77204499848439" lon="9.937371778193457"><ele>361.4</ele><time>2026-05-02T12:08:52.999Z</time></trkpt><trkpt lat="44.77214345590571" lon="9.937404470214933"><ele>362.8</ele><time>2026-05-02T12:08:53.999Z</time></trkpt><trkpt lat="44.77224185823162" lon="9.937437772484223"><ele>364.20000000000005</ele><time>2026-05-02T12:08:54.999Z</time></trkpt><trkpt lat="44.77233878116429" lon="9.93747286188991"><ele>365.6</ele><time>2026-05-02T12:08:55.999Z</time></trkpt><trkpt lat="44.772432406807845" lon="9.937516813328878"><ele>367.0</ele><time>2026-05-02T12:08:56.999Z</time></trkpt><trkpt lat="44.7725246273942" lon="9.93756542886898"><ele>367.0</ele><time>2026-05-02T12:08:57.999Z</time></trkpt><trkpt lat="44.772618993054664" lon="9.937610096425367"><ele>367.0</ele><time>2026-05-02T12:08:58.999Z</time></trkpt><trkpt lat="44.77269966734277" lon="9.937652577802742"><ele>367.0</ele><time>2026-05-02T12:08:59.999Z</time></trkpt><trkpt lat="44.77277031782527" lon="9.937673571005936"><ele>367.0</ele><time>2026-05-02T12:09:00.999Z</time></trkpt><trkpt lat="44.77283147057052" lon="9.937648906186029"><ele>367.0</ele><time>2026-05-02T12:09:01.999Z</time></trkpt><trkpt lat="44.772864087088166" lon="9.937571035539973"><ele>367.0</ele><time>2026-05-02T12:09:02.999Z</time></trkpt><trkpt lat="44.772869517468365" lon="9.937456694809345"><ele>364.3333333333333</ele><time>2026-05-02T12:09:03.999Z</time></trkpt><trkpt lat="44.77279254350458" lon="9.937384098545877"><ele>361.66666666666663</ele><time>2026-05-02T12:09:04.999Z</time></trkpt><trkpt lat="44.77272694399096" lon="9.93733835238578"><ele>359.0</ele><time>2026-05-02T12:09:05.999Z</time></trkpt><trkpt lat="44.772675057519905" lon="9.93726868747592"><ele>356.3333333333333</ele><time>2026-05-02T12:09:06.999Z</time></trkpt><trkpt lat="44.77261548005947" lon="9.937215350212638"><ele>353.6666666666667</ele><time>2026-05-02T12:09:07.999Z</time></trkpt><trkpt lat="44.77255653847575" lon="9.937157182484002"><ele>351.0</ele><time>2026-05-02T12:09:08.999Z</time></trkpt><trkpt lat="44.77254625583988" lon="9.937002843338123"><ele>351.0</ele><time>2026-05-02T12:09:10.999Z</time></trkpt><trkpt lat="44.77260834555864" lon="9.936948973762064"><ele>351.0</ele><time>2026-05-02T12:09:11.999Z</time></trkpt><trkpt lat="44.772686577174326" lon="9.936971831925144"><ele>351.0</ele><time>2026-05-02T12:09:12.999Z</time></trkpt><trkpt lat="44.77275621815353" lon="9.93702233620151"><ele>351.0</ele><time>2026-05-02T12:09:13.999Z</time></trkpt><trkpt lat="44.77282592991108" lon="9.937070223210767"><ele>351.0</ele><time>2026-05-02T12:09:14.999Z</time></trkpt><trkpt lat="44.77290318920142" lon="9.937119826110381"><ele>351.0</ele><time>2026-05-02T12:09:15.999Z</time></trkpt><trkpt lat="44.77298488164485" lon="9.937167987791108"><ele>348.0</ele><time>2026-05-02T12:09:16.999Z</time></trkpt><trkpt lat="44.77307364448514" lon="9.937219828470116"><ele>345.0</ele><time>2026-05-02T12:09:17.999Z</time></trkpt><trkpt lat="44.77316445387601" lon="9.937270288220963"><ele>342.0</ele><time>2026-05-02T12:09:18.999Z</time></trkpt><trkpt lat="44.77325804497366" lon="9.937324676270439"><ele>339.0</ele><time>2026-05-02T12:09:19.999Z</time></trkpt><trkpt lat="44.77334423547135" lon="9.93737456996805"><ele>336.0</ele><time>2026-05-02T12:09:20.999Z</time></trkpt><trkpt lat="44.77342483695918" lon="9.9374276497275"><ele>336.0</ele><time>2026-05-02T12:09:21.999Z</time></trkpt><trkpt lat="44.773504806777495" lon="9.937476813951447"><ele>336.0</ele><time>2026-05-02T12:09:22.999Z</time></trkpt><trkpt lat="44.77357867154807" lon="9.937520909026942"><ele>336.0</ele><time>2026-05-02T12:09:23.999Z</time></trkpt><trkpt lat="44.77364434488807" lon="9.9375605403159"><ele>336.0</ele><time>2026-05-02T12:09:24.999Z</time></trkpt><trkpt lat="44.77373813807096" lon="9.937637013978962"><ele>336.0</ele><time>2026-05-02T12:09:26.999Z</time></trkpt><trkpt lat="44.77379215230886" lon="9.937705408089295"><ele>336.0</ele><time>2026-05-02T12:09:28.999Z</time></trkpt><trkpt lat="44.77384891111476" lon="9.937626156067346"><ele>336.0</ele><time>2026-05-02T12:09:31.999Z</time></trkpt><trkpt lat="44.7737711632676" lon="9.937652698451696"><ele>336.0</ele><time>2026-05-02T12:09:47.998Z</time></trkpt><trkpt lat="44.77373177993267" lon="9.937564384453909"><ele>336.0</ele><time>2026-05-02T12:10:27Z</time></trkpt><trkpt lat="44.773654204453074" lon="9.937515456033111"><ele>336.0</ele><time>2026-05-02T12:10:30Z</time></trkpt><trkpt lat="44.77359064346547" lon="9.937476870215761"><ele>336.0</ele><time>2026-05-02T12:10:32Z</time></trkpt><trkpt lat="44.773533068421976" lon="9.93743912072797"><ele>336.0</ele><time>2026-05-02T12:10:34Z</time></trkpt><trkpt lat="44.77345731331049" lon="9.9373744895502"><ele>336.0</ele><time>2026-05-02T12:10:37Z</time></trkpt><trkpt lat="44.77336895163601" lon="9.937325747797539"><ele>336.0</ele><time>2026-05-02T12:10:39.999Z</time></trkpt><trkpt lat="44.773287585049815" lon="9.93728136033887"><ele>336.0</ele><time>2026-05-02T12:10:42.999Z</time></trkpt><trkpt lat="44.77321414556612" lon="9.93724869241098"><ele>336.0</ele><time>2026-05-02T12:10:45.999Z</time></trkpt><trkpt lat="44.77314326927739" lon="9.937215904884757"><ele>336.0</ele><time>2026-05-02T12:10:48.999Z</time></trkpt><trkpt lat="44.77307482881116" lon="9.937166290328591"><ele>336.0</ele><time>2026-05-02T12:10:51.999Z</time></trkpt><trkpt lat="44.773006749192156" lon="9.937122482542042"><ele>336.0</ele><time>2026-05-02T12:10:54.999Z</time></trkpt><trkpt lat="44.772934325540106" lon="9.937080142213162"><ele>336.0</ele><time>2026-05-02T12:10:57.999Z</time></trkpt><trkpt lat="44.772864284729266" lon="9.937037663780924"><ele>336.0</ele><time>2026-05-02T12:11:00.999Z</time></trkpt><trkpt lat="44.77279715348081" lon="9.936978790078886"><ele>336.0</ele><time>2026-05-02T12:11:04.999Z</time></trkpt><trkpt lat="44.77273683305328" lon="9.936939111351611"><ele>336.0</ele><time>2026-05-02T12:11:07.999Z</time></trkpt><trkpt lat="44.77267572562602" lon="9.936915168698661"><ele>336.0</ele><time>2026-05-02T12:11:10.999Z</time></trkpt><trkpt lat="44.77261153936347" lon="9.936918448644418"><ele>336.0</ele><time>2026-05-02T12:11:13.999Z</time></trkpt><trkpt lat="44.77255315358279" lon="9.936966062021312"><ele>336.0</ele><time>2026-05-02T12:11:16.999Z</time></trkpt><trkpt lat="44.77252868863981" lon="9.937053286878085"><ele>336.0</ele><time>2026-05-02T12:11:19.999Z</time></trkpt><trkpt lat="44.7725482843783" lon="9.937147253390744"><ele>336.0</ele><time>2026-05-02T12:11:22.999Z</time></trkpt><trkpt lat="44.7726055737361" lon="9.937220316329752"><ele>336.0</ele><time>2026-05-02T12:11:25.999Z</time></trkpt><trkpt lat="44.772665450282815" lon="9.937288060241348"><ele>336.0</ele><time>2026-05-02T12:11:27.999Z</time></trkpt><trkpt lat="44.77272695892688" lon="9.937352155937702"><ele>336.0</ele><time>2026-05-02T12:11:30.999Z</time></trkpt><trkpt lat="44.772781974904596" lon="9.93740670952508"><ele>336.0</ele><time>2026-05-02T12:11:33.998Z</time></trkpt><trkpt lat="44.77283176883353" lon="9.937471812682993"><ele>336.14285714285717</ele><time>2026-05-02T12:11:36.998Z</time></trkpt><trkpt lat="44.772822382277894" lon="9.937568660341483"><ele>336.2857142857143</ele><time>2026-05-02T12:11:39.998Z</time></trkpt><trkpt lat="44.77275549726636" lon="9.937589468630497"><ele>336.42857142857144</ele><time>2026-05-02T12:11:42.998Z</time></trkpt><trkpt lat="44.7726905097011" lon="9.93756222490878"><ele>336.57142857142856</ele><time>2026-05-02T12:11:45.998Z</time></trkpt><trkpt lat="44.77260943539164" lon="9.937531570339768"><ele>336.7142857142857</ele><time>2026-05-02T12:11:48.998Z</time></trkpt><trkpt lat="44.77254952178828" lon="9.937502123908933"><ele>336.8571428571429</ele><time>2026-05-02T12:11:51.998Z</time></trkpt><trkpt lat="44.772464764309824" lon="9.937463588756824"><ele>337.0</ele><time>2026-05-02T12:11:55Z</time></trkpt><trkpt lat="44.772395311943804" lon="9.937436757923889"><ele>339.00000000000006</ele><time>2026-05-02T12:11:58Z</time></trkpt><trkpt lat="44.77232348991234" lon="9.937406000719578"><ele>341.0</ele><time>2026-05-02T12:12:01Z</time></trkpt><trkpt lat="44.77225771302095" lon="9.93738119392513"><ele>343.0</ele><time>2026-05-02T12:12:04Z</time></trkpt><trkpt lat="44.772190859534305" lon="9.93735653260247"><ele>345.0</ele><time>2026-05-02T12:12:07Z</time></trkpt><trkpt lat="44.77212516644961" lon="9.937325346286318"><ele>347.0</ele><time>2026-05-02T12:12:10Z</time></trkpt><trkpt lat="44.77205890597017" lon="9.937302982179078"><ele>349.00000000000006</ele><time>2026-05-02T12:12:13Z</time></trkpt><trkpt lat="44.77199523166648" lon="9.937283150738393"><ele>351.0</ele><time>2026-05-02T12:12:16Z</time></trkpt><trkpt lat="44.77193222526459" lon="9.937261821241156"><ele>351.00000000000006</ele><time>2026-05-02T12:12:19Z</time></trkpt><trkpt lat="44.77186703381302" lon="9.937245212580368"><ele>351.0</ele><time>2026-05-02T12:12:22Z</time></trkpt><trkpt lat="44.77178743941843" lon="9.937224346861212"><ele>351.0</ele><time>2026-05-02T12:12:26Z</time></trkpt><trkpt lat="44.77171348623088" lon="9.937195951378603"><ele>351.0</ele><time>2026-05-02T12:12:30Z</time></trkpt><trkpt lat="44.77164244080818" lon="9.937176571896385"><ele>351.0</ele><time>2026-05-02T12:12:33Z</time></trkpt><trkpt lat="44.77157305056333" lon="9.93715337372859"><ele>351.00000000000006</ele><time>2026-05-02T12:12:36Z</time></trkpt><trkpt lat="44.77150309787802" lon="9.93713689434018"><ele>351.0</ele><time>2026-05-02T12:12:39Z</time></trkpt><trkpt lat="44.771440166385" lon="9.937115710194506"><ele>352.28571428571433</ele><time>2026-05-02T12:12:41.999Z</time></trkpt><trkpt lat="44.77137351622428" lon="9.9371041407368"><ele>353.57142857142856</ele><time>2026-05-02T12:12:44.999Z</time></trkpt><trkpt lat="44.77130977908798" lon="9.937085380511158"><ele>354.8571428571429</ele><time>2026-05-02T12:12:47.999Z</time></trkpt><trkpt lat="44.77124204264426" lon="9.93706967239266"><ele>356.14285714285717</ele><time>2026-05-02T12:12:50.999Z</time></trkpt><trkpt lat="44.77117707942029" lon="9.937070735005735"><ele>357.42857142857144</ele><time>2026-05-02T12:12:53.999Z</time></trkpt><trkpt lat="44.77111209236593" lon="9.937103289387496"><ele>358.7142857142857</ele><time>2026-05-02T12:12:56.999Z</time></trkpt><trkpt lat="44.77106748424939" lon="9.93718094480098"><ele>360.0</ele><time>2026-05-02T12:12:59.999Z</time></trkpt><trkpt lat="44.77107463187425" lon="9.937290586615289"><ele>360.0</ele><time>2026-05-02T12:13:02.999Z</time></trkpt><trkpt lat="44.77113423092898" lon="9.937360047141464"><ele>360.0</ele><time>2026-05-02T12:13:05.999Z</time></trkpt><trkpt lat="44.77120546349266" lon="9.937396889971046"><ele>360.0</ele><time>2026-05-02T12:13:08.999Z</time></trkpt><trkpt lat="44.771281008415016" lon="9.937422278054909"><ele>360.0</ele><time>2026-05-02T12:13:11.999Z</time></trkpt><trkpt lat="44.7713546783674" lon="9.937448419468945"><ele>360.0</ele><time>2026-05-02T12:13:14.999Z</time></trkpt><trkpt lat="44.77143349139241" lon="9.937468780443897"><ele>360.0</ele><time>2026-05-02T12:13:17.999Z</time></trkpt><trkpt lat="44.7715145924976" lon="9.937495804576793"><ele>360.0</ele><time>2026-05-02T12:13:20.999Z</time></trkpt><trkpt lat="44.77159368771627" lon="9.937532476436846"><ele>360.0</ele><time>2026-05-02T12:13:23.999Z</time></trkpt><trkpt lat="44.77165537788714" lon="9.937593750359653"><ele>360.0</ele><time>2026-05-02T12:13:26.999Z</time></trkpt><trkpt lat="44.77163626156868" lon="9.937687998539056"><ele>360.0</ele><time>2026-05-02T12:13:29.999Z</time></trkpt><trkpt lat="44.77155458863479" lon="9.9376623305614"><ele>360.0</ele><time>2026-05-02T12:13:32.999Z</time></trkpt><trkpt lat="44.771485558142054" lon="9.93762595418386"><ele>360.0</ele><time>2026-05-02T12:13:36.999Z</time></trkpt><trkpt lat="44.771415688802755" lon="9.937603228380508"><ele>363.0</ele><time>2026-05-02T12:13:39.998Z</time></trkpt><trkpt lat="44.77134690994524" lon="9.937592915148707"><ele>366.0</ele><time>2026-05-02T12:13:42.998Z</time></trkpt><trkpt lat="44.7712694321025" lon="9.93759942587701"><ele>369.0</ele><time>2026-05-02T12:13:44.998Z</time></trkpt><trkpt lat="44.771195782872624" lon="9.937649473484392"><ele>372.0</ele><time>2026-05-02T12:13:47.998Z</time></trkpt><trkpt lat="44.77112825605302" lon="9.937705467263012"><ele>375.0</ele><time>2026-05-02T12:13:50.998Z</time></trkpt><trkpt lat="44.77106116293068" lon="9.937772329387904"><ele>378.0</ele><time>2026-05-02T12:13:53.998Z</time></trkpt><trkpt lat="44.771001548453384" lon="9.937843854365626"><ele>378.1666666666667</ele><time>2026-05-02T12:13:56.998Z</time></trkpt><trkpt lat="44.770943622922815" lon="9.937915707111602"><ele>378.3333333333333</ele><time>2026-05-02T12:14:00Z</time></trkpt><trkpt lat="44.770877011684085" lon="9.93798775297905"><ele>378.5</ele><time>2026-05-02T12:14:03Z</time></trkpt><trkpt lat="44.7707957597172" lon="9.93802682653218"><ele>378.66666666666663</ele><time>2026-05-02T12:14:06Z</time></trkpt><trkpt lat="44.77071128687398" lon="9.938018112017001"><ele>378.8333333333333</ele><time>2026-05-02T12:14:09Z</time></trkpt><trkpt lat="44.77064129361967" lon="9.937942935411119"><ele>379.0</ele><time>2026-05-02T12:14:13Z</time></trkpt><trkpt lat="44.77059684227549" lon="9.937860085349804"><ele>379.00000000000006</ele><time>2026-05-02T12:14:16Z</time></trkpt><trkpt lat="44.77055831234964" lon="9.937772846716529"><ele>379.0</ele><time>2026-05-02T12:14:19Z</time></trkpt><trkpt lat="44.77052149437273" lon="9.937699042231761"><ele>379.0</ele><time>2026-05-02T12:14:22Z</time></trkpt><trkpt lat="44.77046326122083" lon="9.937631466245906"><ele>379.0</ele><time>2026-05-02T12:14:25Z</time></trkpt><trkpt lat="44.77040272374244" lon="9.937596082089765"><ele>379.0</ele><time>2026-05-02T12:14:27Z</time></trkpt><trkpt lat="44.77031263835462" lon="9.937584762977743"><ele>379.00000000000006</ele><time>2026-05-02T12:14:30Z</time></trkpt><trkpt lat="44.77024835280986" lon="9.937601233567081"><ele>379.0</ele><time>2026-05-02T12:14:32Z</time></trkpt><trkpt lat="44.77018992183344" lon="9.93764413988932"><ele>379.00000000000006</ele><time>2026-05-02T12:14:34Z</time></trkpt><trkpt lat="44.77013926629405" lon="9.93771505606714"><ele>379.0</ele><time>2026-05-02T12:14:36Z</time></trkpt><trkpt lat="44.770104245278084" lon="9.937795634726259"><ele>379.0</ele><time>2026-05-02T12:14:38Z</time></trkpt><trkpt lat="44.770092549521905" lon="9.937888724136856"><ele>379.0</ele><time>2026-05-02T12:14:40Z</time></trkpt><trkpt lat="44.77010029279434" lon="9.937982425711628"><ele>379.0</ele><time>2026-05-02T12:14:42Z</time></trkpt><trkpt lat="44.77012631583531" lon="9.938080987274926"><ele>379.00000000000006</ele><time>2026-05-02T12:14:44Z</time></trkpt><trkpt lat="44.77017186729609" lon="9.93816677998741"><ele>379.0</ele><time>2026-05-02T12:14:46Z</time></trkpt><trkpt lat="44.7702257941127" lon="9.938230477606247"><ele>379.0</ele><time>2026-05-02T12:14:47.999Z</time></trkpt><trkpt lat="44.770279497306504" lon="9.938290373031998"><ele>379.0</ele><time>2026-05-02T12:14:49.999Z</time></trkpt><trkpt lat="44.7703319322849" lon="9.938341827308717"><ele>379.0</ele><time>2026-05-02T12:14:51.999Z</time></trkpt><trkpt lat="44.77041233971888" lon="9.938406455173537"><ele>379.0</ele><time>2026-05-02T12:14:54.999Z</time></trkpt><trkpt lat="44.77048501385047" lon="9.93847925602922"><ele>379.0</ele><time>2026-05-02T12:14:57.999Z</time></trkpt><trkpt lat="44.77055738263388" lon="9.938555267487237"><ele>379.0</ele><time>2026-05-02T12:15:00.999Z</time></trkpt><trkpt lat="44.770623596717535" lon="9.93860978351133"><ele>380.5714285714286</ele><time>2026-05-02T12:15:03.999Z</time></trkpt><trkpt lat="44.77068457596695" lon="9.93866861817615"><ele>382.14285714285717</ele><time>2026-05-02T12:15:06.999Z</time></trkpt><trkpt lat="44.77074740560848" lon="9.938714598938775"><ele>383.7142857142857</ele><time>2026-05-02T12:15:09.999Z</time></trkpt><trkpt lat="44.77081229708957" lon="9.938737874934029"><ele>385.28571428571433</ele><time>2026-05-02T12:15:12.999Z</time></trkpt><trkpt lat="44.77088684234895" lon="9.93874971932333"><ele>386.85714285714283</ele><time>2026-05-02T12:15:16.999Z</time></trkpt><trkpt lat="44.770953780678724" lon="9.938747243653031"><ele>388.42857142857144</ele><time>2026-05-02T12:15:19.999Z</time></trkpt><trkpt lat="44.771017019093854" lon="9.938737821858542"><ele>390.0</ele><time>2026-05-02T12:15:21.999Z</time></trkpt><trkpt lat="44.77108991437782" lon="9.938712302504511"><ele>390.1428571428571</ele><time>2026-05-02T12:15:24.999Z</time></trkpt><trkpt lat="44.771162731831694" lon="9.938686345676208"><ele>390.2857142857143</ele><time>2026-05-02T12:15:28.999Z</time></trkpt><trkpt lat="44.771237112114946" lon="9.938657973539117"><ele>390.42857142857144</ele><time>2026-05-02T12:15:31.999Z</time></trkpt><trkpt lat="44.771317269684225" lon="9.938631025552075"><ele>390.57142857142856</ele><time>2026-05-02T12:15:34.999Z</time></trkpt><trkpt lat="44.7713828044403" lon="9.938625958373786"><ele>390.7142857142857</ele><time>2026-05-02T12:15:37.999Z</time></trkpt><trkpt lat="44.77144932281786" lon="9.938641938191106"><ele>390.85714285714283</ele><time>2026-05-02T12:15:40.999Z</time></trkpt><trkpt lat="44.77151306459231" lon="9.938688220030198"><ele>391.0</ele><time>2026-05-02T12:15:43.999Z</time></trkpt><trkpt lat="44.771574576262985" lon="9.938747036906367"><ele>391.00000000000006</ele><time>2026-05-02T12:15:46.998Z</time></trkpt><trkpt lat="44.77162644959347" lon="9.938819437610924"><ele>391.0</ele><time>2026-05-02T12:15:49.998Z</time></trkpt><trkpt lat="44.77167171462431" lon="9.938903893926458"><ele>391.0</ele><time>2026-05-02T12:15:52.998Z</time></trkpt><trkpt lat="44.77170829900755" lon="9.939006833858048"><ele>391.0</ele><time>2026-05-02T12:15:55.998Z</time></trkpt><trkpt lat="44.771728784688094" lon="9.93911098236244"><ele>391.00000000000006</ele><time>2026-05-02T12:15:58.998Z</time></trkpt><trkpt lat="44.77172781140286" lon="9.93921401600059"><ele>391.0</ele><time>2026-05-02T12:16:01.998Z</time></trkpt><trkpt lat="44.771715339260886" lon="9.939317075552427"><ele>389.1428571428571</ele><time>2026-05-02T12:16:06Z</time></trkpt><trkpt lat="44.771691419924984" lon="9.939406876242474"><ele>387.2857142857143</ele><time>2026-05-02T12:16:09Z</time></trkpt><trkpt lat="44.771660199233445" lon="9.939517263680312"><ele>385.42857142857144</ele><time>2026-05-02T12:16:12Z</time></trkpt><trkpt lat="44.771613738585884" lon="9.93958578630992"><ele>383.57142857142856</ele><time>2026-05-02T12:16:15Z</time></trkpt><trkpt lat="44.77156432521969" lon="9.93964431271629"><ele>381.7142857142857</ele><time>2026-05-02T12:16:18Z</time></trkpt><trkpt lat="44.77149573800729" lon="9.939686655207124"><ele>379.85714285714283</ele><time>2026-05-02T12:16:22Z</time></trkpt><trkpt lat="44.77141946775922" lon="9.939731826285302"><ele>378.0</ele><time>2026-05-02T12:16:26Z</time></trkpt><trkpt lat="44.77135748951176" lon="9.939754595524063"><ele>378.0</ele><time>2026-05-02T12:16:29Z</time></trkpt><trkpt lat="44.771278968654926" lon="9.939793492189047"><ele>378.0</ele><time>2026-05-02T12:16:33Z</time></trkpt><trkpt lat="44.77121332107415" lon="9.939831029970186"><ele>378.0</ele><time>2026-05-02T12:16:36Z</time></trkpt><trkpt lat="44.771149810766715" lon="9.939875540918532"><ele>378.0</ele><time>2026-05-02T12:16:39Z</time></trkpt><trkpt lat="44.77108420473626" lon="9.939914850153064"><ele>378.0</ele><time>2026-05-02T12:16:42Z</time></trkpt><trkpt lat="44.77102277997813" lon="9.93995832848351"><ele>378.0</ele><time>2026-05-02T12:16:45Z</time></trkpt><trkpt lat="44.77096212694214" lon="9.94000347974909"><ele>378.0</ele><time>2026-05-02T12:16:48Z</time></trkpt><trkpt lat="44.770880577385775" lon="9.940065610658776"><ele>380.14285714285717</ele><time>2026-05-02T12:16:51Z</time></trkpt><trkpt lat="44.770814408975944" lon="9.940117290665233"><ele>382.2857142857143</ele><time>2026-05-02T12:16:53.999Z</time></trkpt><trkpt lat="44.7707490531295" lon="9.940157416317437"><ele>384.42857142857144</ele><time>2026-05-02T12:16:56.999Z</time></trkpt><trkpt lat="44.77068333373526" lon="9.940200248415552"><ele>386.57142857142856</ele><time>2026-05-02T12:16:59.999Z</time></trkpt><trkpt lat="44.77061985524606" lon="9.940232999859294"><ele>388.7142857142857</ele><time>2026-05-02T12:17:02.999Z</time></trkpt><trkpt lat="44.770554166275105" lon="9.940255385898809"><ele>390.8571428571429</ele><time>2026-05-02T12:17:05.999Z</time></trkpt><trkpt lat="44.77048414261682" lon="9.940280350340316"><ele>393.0</ele><time>2026-05-02T12:17:08.999Z</time></trkpt><trkpt lat="44.770409668915455" lon="9.940307179132482"><ele>393.0</ele><time>2026-05-02T12:17:11.999Z</time></trkpt><trkpt lat="44.77033781349885" lon="9.940344559216385"><ele>393.0</ele><time>2026-05-02T12:17:14.999Z</time></trkpt><trkpt lat="44.770276274412566" lon="9.940401787108646"><ele>393.0</ele><time>2026-05-02T12:17:17.999Z</time></trkpt><trkpt lat="44.77021585281315" lon="9.940473045438207"><ele>393.0</ele><time>2026-05-02T12:17:20.999Z</time></trkpt><trkpt lat="44.77016388927073" lon="9.940563366972581"><ele>393.0</ele><time>2026-05-02T12:17:23.999Z</time></trkpt><trkpt lat="44.77011261986797" lon="9.940653550088507"><ele>393.0</ele><time>2026-05-02T12:17:26.999Z</time></trkpt><trkpt lat="44.770075176002074" lon="9.940752151741723"><ele>395.00000000000006</ele><time>2026-05-02T12:17:29.999Z</time></trkpt><trkpt lat="44.77003865486594" lon="9.940848443029855"><ele>397.0</ele><time>2026-05-02T12:17:32.999Z</time></trkpt><trkpt lat="44.770006808190374" lon="9.94093941793343"><ele>399.0</ele><time>2026-05-02T12:17:35.999Z</time></trkpt><trkpt lat="44.76997358121887" lon="9.941033937196707"><ele>401.0</ele><time>2026-05-02T12:17:39.999Z</time></trkpt><trkpt lat="44.769942668076666" lon="9.94111663297818"><ele>403.0</ele><time>2026-05-02T12:17:41.999Z</time></trkpt><trkpt lat="44.76990971449141" lon="9.941201595578901"><ele>405.00000000000006</ele><time>2026-05-02T12:17:44.999Z</time></trkpt><trkpt lat="44.76986764303529" lon="9.941288142701486"><ele>407.0</ele><time>2026-05-02T12:17:47.999Z</time></trkpt><trkpt lat="44.76982286256693" lon="9.94136855536939"><ele>407.7142857142857</ele><time>2026-05-02T12:17:50.998Z</time></trkpt><trkpt lat="44.769775704021775" lon="9.941440780629135"><ele>408.42857142857144</ele><time>2026-05-02T12:17:53.998Z</time></trkpt><trkpt lat="44.769723290237714" lon="9.941508569318884"><ele>409.1428571428571</ele><time>2026-05-02T12:17:56.998Z</time></trkpt><trkpt lat="44.769665868727195" lon="9.941567572138473"><ele>409.8571428571429</ele><time>2026-05-02T12:17:59.998Z</time></trkpt><trkpt lat="44.76960592639655" lon="9.941624966163532"><ele>410.57142857142856</ele><time>2026-05-02T12:18:02.998Z</time></trkpt><trkpt lat="44.76954170548428" lon="9.941670734434751"><ele>411.2857142857143</ele><time>2026-05-02T12:18:05.998Z</time></trkpt><trkpt lat="44.769475303950955" lon="9.941709912833835"><ele>412.0</ele><time>2026-05-02T12:18:08.998Z</time></trkpt><trkpt lat="44.76940581416091" lon="9.94173179471607"><ele>411.85714285714283</ele><time>2026-05-02T12:18:12Z</time></trkpt><trkpt lat="44.7693333617373" lon="9.941741934981366"><ele>411.7142857142857</ele><time>2026-05-02T12:18:15Z</time></trkpt><trkpt lat="44.769261428531394" lon="9.94174323112985"><ele>411.57142857142856</ele><time>2026-05-02T12:18:18Z</time></trkpt><trkpt lat="44.769189185279004" lon="9.941734802146332"><ele>411.42857142857144</ele><time>2026-05-02T12:18:21Z</time></trkpt><trkpt lat="44.76911839335397" lon="9.941713724101568"><ele>411.2857142857143</ele><time>2026-05-02T12:18:24Z</time></trkpt><trkpt lat="44.76904962218927" lon="9.941683827785344"><ele>411.1428571428571</ele><time>2026-05-02T12:18:27Z</time></trkpt><trkpt lat="44.76898256952483" lon="9.941655870567395"><ele>411.0</ele><time>2026-05-02T12:18:30Z</time></trkpt><trkpt lat="44.76891992359108" lon="9.941619798642094"><ele>411.57142857142856</ele><time>2026-05-02T12:18:33Z</time></trkpt><trkpt lat="44.76885612825466" lon="9.941589511371125"><ele>412.1428571428571</ele><time>2026-05-02T12:18:36Z</time></trkpt><trkpt lat="44.76879268729651" lon="9.94154775939211"><ele>412.7142857142857</ele><time>2026-05-02T12:18:39Z</time></trkpt><trkpt lat="44.76873429929752" lon="9.941500278322765"><ele>413.2857142857143</ele><time>2026-05-02T12:18:42Z</time></trkpt><trkpt lat="44.768683302661266" lon="9.941441957434844"><ele>413.8571428571429</ele><time>2026-05-02T12:18:45Z</time></trkpt><trkpt lat="44.76863315335451" lon="9.94136267869241"><ele>414.42857142857144</ele><time>2026-05-02T12:18:48Z</time></trkpt><trkpt lat="44.76860492409346" lon="9.94127437146066"><ele>415.0</ele><time>2026-05-02T12:18:51Z</time></trkpt><trkpt lat="44.768583269322264" lon="9.941181219271272"><ele>415.0</ele><time>2026-05-02T12:18:54Z</time></trkpt><trkpt lat="44.768559880133324" lon="9.941085336972037"><ele>415.0</ele><time>2026-05-02T12:18:57Z</time></trkpt><trkpt lat="44.76854302550201" lon="9.94098841300927"><ele>415.0</ele><time>2026-05-02T12:18:59.999Z</time></trkpt><trkpt lat="44.768518688609134" lon="9.940893987794272"><ele>415.0</ele><time>2026-05-02T12:19:02.999Z</time></trkpt><trkpt lat="44.768482988253986" lon="9.940803135484437"><ele>415.0</ele><time>2026-05-02T12:19:05.999Z</time></trkpt><trkpt lat="44.76843611487454" lon="9.94072082049208"><ele>415.0</ele><time>2026-05-02T12:19:08.999Z</time></trkpt><trkpt lat="44.76838603255522" lon="9.940647005295544"><ele>415.0</ele><time>2026-05-02T12:19:11.999Z</time></trkpt><trkpt lat="44.76833306956638" lon="9.940576164889746"><ele>416.6666666666667</ele><time>2026-05-02T12:19:14.999Z</time></trkpt><trkpt lat="44.76826959223526" lon="9.940520604263472"><ele>418.33333333333337</ele><time>2026-05-02T12:19:17.999Z</time></trkpt><trkpt lat="44.768207401293374" lon="9.940469141301563"><ele>420.0</ele><time>2026-05-02T12:19:20.999Z</time></trkpt><trkpt lat="44.76813600547387" lon="9.940418321479372"><ele>421.66666666666663</ele><time>2026-05-02T12:19:23.999Z</time></trkpt><trkpt lat="44.76805822655853" lon="9.940378394093655"><ele>423.3333333333333</ele><time>2026-05-02T12:19:26.999Z</time></trkpt><trkpt lat="44.76798021229259" lon="9.940343189472255"><ele>425.0</ele><time>2026-05-02T12:19:29.999Z</time></trkpt><trkpt lat="44.7678908481478" lon="9.94031683921733"><ele>424.99999999999994</ele><time>2026-05-02T12:19:33.999Z</time></trkpt><trkpt lat="44.7678089127449" lon="9.940308144916093"><ele>425.0</ele><time>2026-05-02T12:19:36.999Z</time></trkpt><trkpt lat="44.76774206321128" lon="9.940306656816082"><ele>425.0</ele><time>2026-05-02T12:19:38.999Z</time></trkpt><trkpt lat="44.76766367001232" lon="9.940319772307145"><ele>425.0</ele><time>2026-05-02T12:19:41.999Z</time></trkpt><trkpt lat="44.76758648663881" lon="9.940331693359528"><ele>424.99999999999994</ele><time>2026-05-02T12:19:44.999Z</time></trkpt><trkpt lat="44.76750522911064" lon="9.940340854005601"><ele>425.0</ele><time>2026-05-02T12:19:47.999Z</time></trkpt><trkpt lat="44.76742217231126" lon="9.940347523915806"><ele>425.66666666666663</ele><time>2026-05-02T12:19:50.999Z</time></trkpt><trkpt lat="44.76734481116127" lon="9.940363026644514"><ele>426.3333333333333</ele><time>2026-05-02T12:19:53.998Z</time></trkpt><trkpt lat="44.7672629986047" lon="9.94037771109528"><ele>427.0</ele><time>2026-05-02T12:19:56.998Z</time></trkpt><trkpt lat="44.76718427491117" lon="9.940392163752886"><ele>427.66666666666663</ele><time>2026-05-02T12:19:59.998Z</time></trkpt><trkpt lat="44.767107830043464" lon="9.94041011174905"><ele>428.3333333333333</ele><time>2026-05-02T12:20:02.998Z</time></trkpt><trkpt lat="44.767044811238414" lon="9.940426946831261"><ele>429.0</ele><time>2026-05-02T12:20:05.998Z</time></trkpt><trkpt lat="44.76696708143917" lon="9.94044092102043"><ele>429.0</ele><time>2026-05-02T12:20:08.998Z</time></trkpt><trkpt lat="44.76689005024616" lon="9.940470063576957"><ele>429.0</ele><time>2026-05-02T12:20:11.998Z</time></trkpt><trkpt lat="44.76679744478749" lon="9.940500473244123"><ele>429.0</ele><time>2026-05-02T12:20:14.998Z</time></trkpt><trkpt lat="44.76672928946951" lon="9.940515675600007"><ele>429.0</ele><time>2026-05-02T12:20:18Z</time></trkpt><trkpt lat="44.76665458881664" lon="9.940541959543907"><ele>429.0</ele><time>2026-05-02T12:20:21Z</time></trkpt><trkpt lat="44.766582198428274" lon="9.940563889694506"><ele>429.0</ele><time>2026-05-02T12:20:24Z</time></trkpt><trkpt lat="44.766512613155" lon="9.940595761633762"><ele>429.42857142857144</ele><time>2026-05-02T12:20:27Z</time></trkpt><trkpt lat="44.76644071991388" lon="9.940625558617903"><ele>429.8571428571429</ele><time>2026-05-02T12:20:30Z</time></trkpt><trkpt lat="44.7663664987079" lon="9.9406584607284"><ele>430.2857142857143</ele><time>2026-05-02T12:20:33Z</time></trkpt><trkpt lat="44.76630206399309" lon="9.94068594802475"><ele>430.7142857142857</ele><time>2026-05-02T12:20:36Z</time></trkpt><trkpt lat="44.76623255542125" lon="9.940717874033393"><ele>431.1428571428571</ele><time>2026-05-02T12:20:38Z</time></trkpt><trkpt lat="44.766157425356994" lon="9.940746131145655"><ele>431.57142857142856</ele><time>2026-05-02T12:20:41Z</time></trkpt><trkpt lat="44.76608225992696" lon="9.940769716170557"><ele>432.0</ele><time>2026-05-02T12:20:44Z</time></trkpt><trkpt lat="44.76600653818355" lon="9.940799048215442"><ele>432.0</ele><time>2026-05-02T12:20:47Z</time></trkpt><trkpt lat="44.76592964536525" lon="9.940830857247091"><ele>432.0</ele><time>2026-05-02T12:20:50Z</time></trkpt><trkpt lat="44.765855591096354" lon="9.940860124963269"><ele>432.0</ele><time>2026-05-02T12:20:53Z</time></trkpt><trkpt lat="44.76578156522687" lon="9.940896927223614"><ele>432.0</ele><time>2026-05-02T12:20:56Z</time></trkpt><trkpt lat="44.76570743947202" lon="9.94092754819985"><ele>432.0</ele><time>2026-05-02T12:20:59Z</time></trkpt><trkpt lat="44.76563602469835" lon="9.940966135797476"><ele>432.0</ele><time>2026-05-02T12:21:01.999Z</time></trkpt><trkpt lat="44.76556572201748" lon="9.941006072855453"><ele>432.0</ele><time>2026-05-02T12:21:04.999Z</time></trkpt><trkpt lat="44.7654971603096" lon="9.941052511096414"><ele>432.0</ele><time>2026-05-02T12:21:07.999Z</time></trkpt><trkpt lat="44.765429540301405" lon="9.941097468697116"><ele>432.0</ele><time>2026-05-02T12:21:10.999Z</time></trkpt><trkpt lat="44.76536174753687" lon="9.941151299577184"><ele>432.0</ele><time>2026-05-02T12:21:13.999Z</time></trkpt><trkpt lat="44.76529496958452" lon="9.941203696957619"><ele>432.0</ele><time>2026-05-02T12:21:16.999Z</time></trkpt><trkpt lat="44.765228455423085" lon="9.941249960953737"><ele>432.0</ele><time>2026-05-02T12:21:19.999Z</time></trkpt><trkpt lat="44.76516493587416" lon="9.941295524828634"><ele>433.7142857142857</ele><time>2026-05-02T12:21:22.999Z</time></trkpt><trkpt lat="44.76509835776505" lon="9.941345672421559"><ele>435.42857142857144</ele><time>2026-05-02T12:21:25.999Z</time></trkpt><trkpt lat="44.76503122303274" lon="9.941397785160095"><ele>437.1428571428571</ele><time>2026-05-02T12:21:28.999Z</time></trkpt><trkpt lat="44.764970381418934" lon="9.941449357132576"><ele>438.8571428571429</ele><time>2026-05-02T12:21:31.999Z</time></trkpt><trkpt lat="44.76489699969034" lon="9.941506326917239"><ele>440.5714285714286</ele><time>2026-05-02T12:21:35.999Z</time></trkpt><trkpt lat="44.76484078101374" lon="9.941553007515164"><ele>442.2857142857143</ele><time>2026-05-02T12:21:38.999Z</time></trkpt><trkpt lat="44.76478330576049" lon="9.941604236186771"><ele>444.0</ele><time>2026-05-02T12:21:41.999Z</time></trkpt><trkpt lat="44.764727823014404" lon="9.941651323116204"><ele>444.0</ele><time>2026-05-02T12:21:44.999Z</time></trkpt><trkpt lat="44.764658455343515" lon="9.941703693398262"><ele>444.0</ele><time>2026-05-02T12:21:48.999Z</time></trkpt><trkpt lat="44.76459514892519" lon="9.941756521391397"><ele>444.0</ele><time>2026-05-02T12:21:51.999Z</time></trkpt><trkpt lat="44.76453312058586" lon="9.941798462910366"><ele>444.0</ele><time>2026-05-02T12:21:54.999Z</time></trkpt><trkpt lat="44.7644735834529" lon="9.94184274810091"><ele>444.0</ele><time>2026-05-02T12:21:57.998Z</time></trkpt><trkpt lat="44.76441685914707" lon="9.941886552063737"><ele>444.0</ele><time>2026-05-02T12:22:00.998Z</time></trkpt><trkpt lat="44.76435718588694" lon="9.94193029996411"><ele>444.0</ele><time>2026-05-02T12:22:03.998Z</time></trkpt><trkpt lat="44.76429687858686" lon="9.941968368105464"><ele>445.57142857142856</ele><time>2026-05-02T12:22:06.998Z</time></trkpt><trkpt lat="44.76423750064011" lon="9.942012018347972"><ele>447.14285714285717</ele><time>2026-05-02T12:22:09.998Z</time></trkpt><trkpt lat="44.764171772252645" lon="9.94206701462992"><ele>448.7142857142857</ele><time>2026-05-02T12:22:13.998Z</time></trkpt><trkpt lat="44.764116717408264" lon="9.94211790329469"><ele>450.2857142857143</ele><time>2026-05-02T12:22:16.998Z</time></trkpt><trkpt lat="44.76404941476158" lon="9.942180374264863"><ele>451.8571428571429</ele><time>2026-05-02T12:22:20.998Z</time></trkpt><trkpt lat="44.76399507861532" lon="9.94223578805185"><ele>453.42857142857144</ele><time>2026-05-02T12:22:24Z</time></trkpt><trkpt lat="44.763940827001804" lon="9.94229235237474"><ele>455.0</ele><time>2026-05-02T12:22:27Z</time></trkpt><trkpt lat="44.76388872216993" lon="9.942346051452327"><ele>454.99999999999994</ele><time>2026-05-02T12:22:30Z</time></trkpt><trkpt lat="44.76382121441412" lon="9.942422336004048"><ele>455.0</ele><time>2026-05-02T12:22:33Z</time></trkpt><trkpt lat="44.76375755220571" lon="9.942468408989491"><ele>455.0</ele><time>2026-05-02T12:22:36Z</time></trkpt><trkpt lat="44.763688493609266" lon="9.942537915836677"><ele>455.0</ele><time>2026-05-02T12:22:40Z</time></trkpt><trkpt lat="44.76362202295556" lon="9.942570864818654"><ele>454.99999999999994</ele><time>2026-05-02T12:22:43Z</time></trkpt><trkpt lat="44.76355986578274" lon="9.9426154907076"><ele>455.0</ele><time>2026-05-02T12:22:47Z</time></trkpt><trkpt lat="44.76348282470067" lon="9.942649079281173"><ele>456.49999999999994</ele><time>2026-05-02T12:22:51Z</time></trkpt><trkpt lat="44.76340506577737" lon="9.942681972327998"><ele>458.0</ele><time>2026-05-02T12:22:55Z</time></trkpt><trkpt lat="44.76332582680247" lon="9.94270787611403"><ele>459.5</ele><time>2026-05-02T12:22:59Z</time></trkpt><trkpt lat="44.763262683416606" lon="9.94272246228057"><ele>461.0</ele><time>2026-05-02T12:23:02Z</time></trkpt><trkpt lat="44.763183624270816" lon="9.942699267916772"><ele>462.49999999999994</ele><time>2026-05-02T12:23:05.999Z</time></trkpt><trkpt lat="44.76313378883923" lon="9.942615351944466"><ele>464.0</ele><time>2026-05-02T12:23:09.999Z</time></trkpt><trkpt lat="44.763138395930135" lon="9.942508191578435"><ele>464.3333333333333</ele><time>2026-05-02T12:23:13.999Z</time></trkpt><trkpt lat="44.763174885761224" lon="9.94240538618337"><ele>464.66666666666663</ele><time>2026-05-02T12:23:17.999Z</time></trkpt><trkpt lat="44.7632188702159" lon="9.942300287549893"><ele>465.0</ele><time>2026-05-02T12:23:21.999Z</time></trkpt><trkpt lat="44.763247444638196" lon="9.942219753738232"><ele>465.33333333333337</ele><time>2026-05-02T12:23:24.999Z</time></trkpt><trkpt lat="44.76328205108094" lon="9.942141104403525"><ele>465.6666666666667</ele><time>2026-05-02T12:23:27.999Z</time></trkpt><trkpt lat="44.763329961282814" lon="9.942025246298375"><ele>466.0</ele><time>2026-05-02T12:23:31.999Z</time></trkpt><trkpt lat="44.76337551922251" lon="9.941939290818295"><ele>466.0</ele><time>2026-05-02T12:23:35.999Z</time></trkpt><trkpt lat="44.763411943408556" lon="9.941859280780502"><ele>466.0</ele><time>2026-05-02T12:23:38.999Z</time></trkpt><trkpt lat="44.763453573127784" lon="9.941782024954259"><ele>466.0</ele><time>2026-05-02T12:23:41.999Z</time></trkpt><trkpt lat="44.763500677850736" lon="9.941698033502501"><ele>466.0</ele><time>2026-05-02T12:23:44.999Z</time></trkpt><trkpt lat="44.76354630939614" lon="9.941611326370236"><ele>466.0</ele><time>2026-05-02T12:23:48.999Z</time></trkpt><trkpt lat="44.763596725852004" lon="9.94151647473872"><ele>466.0</ele><time>2026-05-02T12:23:51.999Z</time></trkpt><trkpt lat="44.76364317951923" lon="9.941439785342"><ele>466.0</ele><time>2026-05-02T12:23:54.999Z</time></trkpt><trkpt lat="44.76368604697611" lon="9.941360143374874"><ele>465.28571428571433</ele><time>2026-05-02T12:23:57.999Z</time></trkpt><trkpt lat="44.76372709591248" lon="9.941280364396356"><ele>464.57142857142856</ele><time>2026-05-02T12:24:00.998Z</time></trkpt><trkpt lat="44.763770010969345" lon="9.941203289522939"><ele>463.8571428571429</ele><time>2026-05-02T12:24:03.998Z</time></trkpt><trkpt lat="44.76380998478606" lon="9.941123038084543"><ele>463.14285714285717</ele><time>2026-05-02T12:24:06.998Z</time></trkpt><trkpt lat="44.76384709312736" lon="9.941041190910783"><ele>462.42857142857144</ele><time>2026-05-02T12:24:09.998Z</time></trkpt><trkpt lat="44.763887987449756" lon="9.94095887743219"><ele>461.7142857142857</ele><time>2026-05-02T12:24:12.998Z</time></trkpt><trkpt lat="44.76392237917893" lon="9.940867885781568"><ele>461.0</ele><time>2026-05-02T12:24:15.998Z</time></trkpt><trkpt lat="44.76394685801022" lon="9.940778309133131"><ele>462.66666666666663</ele><time>2026-05-02T12:24:18.998Z</time></trkpt><trkpt lat="44.76396971824935" lon="9.940677122310701"><ele>464.3333333333333</ele><time>2026-05-02T12:24:21.998Z</time></trkpt><trkpt lat="44.763980840189646" lon="9.94057721568174"><ele>466.0</ele><time>2026-05-02T12:24:24.998Z</time></trkpt><trkpt lat="44.76392029487877" lon="9.940471194948042"><ele>467.66666666666663</ele><time>2026-05-02T12:24:29Z</time></trkpt><trkpt lat="44.76384145323549" lon="9.940483706361244"><ele>469.3333333333333</ele><time>2026-05-02T12:24:32Z</time></trkpt><trkpt lat="44.76378826804422" lon="9.940554503008256"><ele>471.0</ele><time>2026-05-02T12:24:35Z</time></trkpt><trkpt lat="44.763739886085844" lon="9.940636713978344"><ele>471.00000000000006</ele><time>2026-05-02T12:24:38Z</time></trkpt><trkpt lat="44.763694690432324" lon="9.940727394351013"><ele>471.0</ele><time>2026-05-02T12:24:41Z</time></trkpt><trkpt lat="44.76364376407273" lon="9.940805040341914"><ele>471.00000000000006</ele><time>2026-05-02T12:24:44Z</time></trkpt><trkpt lat="44.76358451749836" lon="9.940868525628686"><ele>471.00000000000006</ele><time>2026-05-02T12:24:47Z</time></trkpt><trkpt lat="44.763518573820456" lon="9.9409237329093"><ele>471.0</ele><time>2026-05-02T12:24:50Z</time></trkpt><trkpt lat="44.76345660632503" lon="9.940964262735797"><ele>471.00000000000006</ele><time>2026-05-02T12:24:53Z</time></trkpt><trkpt lat="44.76339337531242" lon="9.941001228024236"><ele>471.00000000000006</ele><time>2026-05-02T12:24:56Z</time></trkpt><trkpt lat="44.76332609230089" lon="9.94103962634745"><ele>472.00000000000006</ele><time>2026-05-02T12:24:59Z</time></trkpt><trkpt lat="44.763259833564234" lon="9.941081968222594"><ele>473.0</ele><time>2026-05-02T12:25:02Z</time></trkpt><trkpt lat="44.76318957192997" lon="9.941119212773124"><ele>474.00000000000006</ele><time>2026-05-02T12:25:05Z</time></trkpt><trkpt lat="44.763118659028734" lon="9.941142689918358"><ele>475.00000000000006</ele><time>2026-05-02T12:25:07.999Z</time></trkpt><trkpt lat="44.76304682025199" lon="9.9411429465425"><ele>476.0</ele><time>2026-05-02T12:25:10.999Z</time></trkpt><trkpt lat="44.76296968554327" lon="9.941119945567205"><ele>477.00000000000006</ele><time>2026-05-02T12:25:13.999Z</time></trkpt><trkpt lat="44.76289633288794" lon="9.941082238632463"><ele>478.00000000000006</ele><time>2026-05-02T12:25:16.999Z</time></trkpt><trkpt lat="44.762818963393734" lon="9.941037346293443"><ele>478.00000000000006</ele><time>2026-05-02T12:25:19.999Z</time></trkpt><trkpt lat="44.76274303674781" lon="9.940998827950445"><ele>478.0</ele><time>2026-05-02T12:25:22.999Z</time></trkpt><trkpt lat="44.7626585338158" lon="9.940993932168121"><ele>478.0</ele><time>2026-05-02T12:25:25.999Z</time></trkpt><trkpt lat="44.76259168210963" lon="9.941021545779941"><ele>478.0</ele><time>2026-05-02T12:25:28.999Z</time></trkpt><trkpt lat="44.76252375682751" lon="9.941074116455438"><ele>478.00000000000006</ele><time>2026-05-02T12:25:30.999Z</time></trkpt><trkpt lat="44.7624643665125" lon="9.941141507887794"><ele>478.0</ele><time>2026-05-02T12:25:33.999Z</time></trkpt><trkpt lat="44.762409644834584" lon="9.941220036335077"><ele>479.8571428571429</ele><time>2026-05-02T12:25:36.999Z</time></trkpt><trkpt lat="44.7623569417099" lon="9.941310640010066"><ele>481.7142857142857</ele><time>2026-05-02T12:25:39.999Z</time></trkpt><trkpt lat="44.762306423950854" lon="9.941398374589555"><ele>483.57142857142856</ele><time>2026-05-02T12:25:42.999Z</time></trkpt><trkpt lat="44.762264957830816" lon="9.94146621636396"><ele>485.42857142857144</ele><time>2026-05-02T12:25:45.999Z</time></trkpt><trkpt lat="44.76221135458841" lon="9.941535454965893"><ele>487.2857142857142</ele><time>2026-05-02T12:25:48.999Z</time></trkpt><trkpt lat="44.76214036373442" lon="9.94159189996536"><ele>489.1428571428571</ele><time>2026-05-02T12:25:51.999Z</time></trkpt><trkpt lat="44.76207792926973" lon="9.941608249931518"><ele>491.0</ele><time>2026-05-02T12:25:54.999Z</time></trkpt><trkpt lat="44.76199219740402" lon="9.94161841656147"><ele>490.99999999999994</ele><time>2026-05-02T12:25:57.999Z</time></trkpt><trkpt lat="44.76191794484638" lon="9.94160750150823"><ele>491.0</ele><time>2026-05-02T12:26:00.999Z</time></trkpt><trkpt lat="44.76183823310357" lon="9.941601122640014"><ele>491.0</ele><time>2026-05-02T12:26:03.998Z</time></trkpt><trkpt lat="44.76175609536994" lon="9.941605028086713"><ele>491.0</ele><time>2026-05-02T12:26:06.998Z</time></trkpt><trkpt lat="44.76167658078812" lon="9.941612827406864"><ele>490.99999999999994</ele><time>2026-05-02T12:26:09.998Z</time></trkpt><trkpt lat="44.76159553580594" lon="9.941642006532554"><ele>491.0</ele><time>2026-05-02T12:26:12.998Z</time></trkpt><trkpt lat="44.76151499034205" lon="9.94167533192345"><ele>491.66666666666663</ele><time>2026-05-02T12:26:15.998Z</time></trkpt><trkpt lat="44.76144642523293" lon="9.941730466135962"><ele>492.3333333333333</ele><time>2026-05-02T12:26:18.998Z</time></trkpt><trkpt lat="44.76137954682839" lon="9.941803402808453"><ele>493.0</ele><time>2026-05-02T12:26:21.998Z</time></trkpt><trkpt lat="44.76131409954193" lon="9.94187701484711"><ele>493.66666666666663</ele><time>2026-05-02T12:26:24.998Z</time></trkpt><trkpt lat="44.76126942075573" lon="9.941943541692973"><ele>494.3333333333333</ele><time>2026-05-02T12:26:26.998Z</time></trkpt><trkpt lat="44.761222125283055" lon="9.94202943344115"><ele>495.0</ele><time>2026-05-02T12:26:29.998Z</time></trkpt><trkpt lat="44.76116863830805" lon="9.94212495758031"><ele>495.0</ele><time>2026-05-02T12:26:32.998Z</time></trkpt><trkpt lat="44.761123980249195" lon="9.942215510874343"><ele>495.0</ele><time>2026-05-02T12:26:36Z</time></trkpt><trkpt lat="44.761086609147384" lon="9.942297974025491"><ele>495.0</ele><time>2026-05-02T12:26:39Z</time></trkpt><trkpt lat="44.76103396603181" lon="9.942403550767123"><ele>495.0</ele><time>2026-05-02T12:26:42Z</time></trkpt><trkpt lat="44.76098553318962" lon="9.942497286663627"><ele>495.0</ele><time>2026-05-02T12:26:45Z</time></trkpt><trkpt lat="44.76095064575466" lon="9.942598821203344"><ele>495.0</ele><time>2026-05-02T12:26:48Z</time></trkpt><trkpt lat="44.76092484115897" lon="9.942706879433857"><ele>497.5</ele><time>2026-05-02T12:26:51Z</time></trkpt><trkpt lat="44.76090934762595" lon="9.942824800956824"><ele>500.0</ele><time>2026-05-02T12:26:54Z</time></trkpt><trkpt lat="44.7609168769566" lon="9.94294256156488"><ele>502.5</ele><time>2026-05-02T12:26:57Z</time></trkpt><trkpt lat="44.760937439260495" lon="9.943056380039994"><ele>505.0</ele><time>2026-05-02T12:27:00Z</time></trkpt><trkpt lat="44.76096621890807" lon="9.94316619775364"><ele>507.5</ele><time>2026-05-02T12:27:03Z</time></trkpt><trkpt lat="44.76099668303238" lon="9.943278142873885"><ele>510.0</ele><time>2026-05-02T12:27:06Z</time></trkpt><trkpt lat="44.761016475559394" lon="9.943388527937081"><ele>510.0</ele><time>2026-05-02T12:27:08.999Z</time></trkpt><trkpt lat="44.76101806532902" lon="9.943498094871314"><ele>510.0</ele><time>2026-05-02T12:27:11.999Z</time></trkpt><trkpt lat="44.761008295841144" lon="9.943586719539681"><ele>510.0</ele><time>2026-05-02T12:27:14.999Z</time></trkpt><trkpt lat="44.760992235210736" lon="9.943677688475454"><ele>510.0</ele><time>2026-05-02T12:27:16.999Z</time></trkpt><trkpt lat="44.76096992770536" lon="9.943796163766882"><ele>510.0</ele><time>2026-05-02T12:27:19.999Z</time></trkpt><trkpt lat="44.76094211275735" lon="9.943910551573676"><ele>510.0</ele><time>2026-05-02T12:27:23.999Z</time></trkpt><trkpt lat="44.76090055755766" lon="9.944010419103767"><ele>510.0</ele><time>2026-05-02T12:27:26.999Z</time></trkpt><trkpt lat="44.760835007493974" lon="9.944044477101528"><ele>510.00000000000006</ele><time>2026-05-02T12:27:29.999Z</time></trkpt><trkpt lat="44.76077629435583" lon="9.943999182735979"><ele>510.0</ele><time>2026-05-02T12:27:32.999Z</time></trkpt><trkpt lat="44.760738914719624" lon="9.943916025248612"><ele>510.0</ele><time>2026-05-02T12:27:35.999Z</time></trkpt><trkpt lat="44.760708010911166" lon="9.943825210922766"><ele>510.00000000000006</ele><time>2026-05-02T12:27:38.999Z</time></trkpt><trkpt lat="44.76067624229586" lon="9.943716290995622"><ele>510.0</ele><time>2026-05-02T12:27:41.999Z</time></trkpt><trkpt lat="44.76064900548042" lon="9.94360043766612"><ele>510.0</ele><time>2026-05-02T12:27:44.999Z</time></trkpt><trkpt lat="44.76062773584002" lon="9.943495205793047"><ele>510.0</ele><time>2026-05-02T12:27:47.999Z</time></trkpt><trkpt lat="44.76060244332193" lon="9.943387458019242"><ele>510.0</ele><time>2026-05-02T12:27:50.999Z</time></trkpt><trkpt lat="44.7605778297253" lon="9.94327701180639"><ele>510.0</ele><time>2026-05-02T12:27:53.999Z</time></trkpt><trkpt lat="44.760548293597964" lon="9.94316894355849"><ele>510.0</ele><time>2026-05-02T12:27:56.999Z</time></trkpt><trkpt lat="44.76050462418078" lon="9.943070228567416"><ele>510.0</ele><time>2026-05-02T12:27:59.999Z</time></trkpt><trkpt lat="44.76045930096895" lon="9.942969405708604"><ele>510.0</ele><time>2026-05-02T12:28:02.999Z</time></trkpt><trkpt lat="44.7604072726636" lon="9.942874437081183"><ele>510.5</ele><time>2026-05-02T12:28:05.999Z</time></trkpt><trkpt lat="44.760352328795825" lon="9.942771297918146"><ele>511.0</ele><time>2026-05-02T12:28:09.998Z</time></trkpt><trkpt lat="44.760306515949594" lon="9.942663069720933"><ele>511.5</ele><time>2026-05-02T12:28:12.998Z</time></trkpt><trkpt lat="44.76028383543159" lon="9.942559806442969"><ele>512.0</ele><time>2026-05-02T12:28:15.998Z</time></trkpt><trkpt lat="44.76028351020972" lon="9.942433911491163"><ele>512.5</ele><time>2026-05-02T12:28:18.998Z</time></trkpt><trkpt lat="44.760299276210354" lon="9.942309761668513"><ele>513.0</ele><time>2026-05-02T12:28:21.998Z</time></trkpt><trkpt lat="44.76031808439001" lon="9.942187726704756"><ele>513.0</ele><time>2026-05-02T12:28:24.998Z</time></trkpt><trkpt lat="44.76033867836817" lon="9.942064533728535"><ele>513.0</ele><time>2026-05-02T12:28:27.998Z</time></trkpt><trkpt lat="44.76036401117506" lon="9.941924197815256"><ele>513.0</ele><time>2026-05-02T12:28:30.998Z</time></trkpt><trkpt lat="44.76038914105734" lon="9.941812336758144"><ele>513.0</ele><time>2026-05-02T12:28:33.998Z</time></trkpt><trkpt lat="44.76040927030342" lon="9.941700158542522"><ele>513.0</ele><time>2026-05-02T12:28:36.998Z</time></trkpt><trkpt lat="44.76042745144205" lon="9.94159873213554"><ele>513.0</ele><time>2026-05-02T12:28:40Z</time></trkpt><trkpt lat="44.76044639797373" lon="9.941510542835038"><ele>513.3333333333334</ele><time>2026-05-02T12:28:42Z</time></trkpt><trkpt lat="44.76046898547409" lon="9.94138726813408"><ele>513.6666666666666</ele><time>2026-05-02T12:28:45Z</time></trkpt><trkpt lat="44.76049736898969" lon="9.941274268519615"><ele>514.0</ele><time>2026-05-02T12:28:48Z</time></trkpt><trkpt lat="44.76052587456264" lon="9.941165171802563"><ele>514.3333333333333</ele><time>2026-05-02T12:28:51Z</time></trkpt><trkpt lat="44.76056587390408" lon="9.941062117483545"><ele>514.6666666666666</ele><time>2026-05-02T12:28:54Z</time></trkpt><trkpt lat="44.76061013191438" lon="9.940968468809086"><ele>515.0</ele><time>2026-05-02T12:28:57Z</time></trkpt><trkpt lat="44.76065703252681" lon="9.94088141796201"><ele>516.5714285714286</ele><time>2026-05-02T12:29:00Z</time></trkpt><trkpt lat="44.760698840069345" lon="9.940811198443141"><ele>518.1428571428571</ele><time>2026-05-02T12:29:03Z</time></trkpt><trkpt lat="44.760744192472686" lon="9.94074675839974"><ele>519.7142857142857</ele><time>2026-05-02T12:29:05Z</time></trkpt><trkpt lat="44.76080125916756" lon="9.940667762081045"><ele>521.2857142857142</ele><time>2026-05-02T12:29:08Z</time></trkpt><trkpt lat="44.76085436653485" lon="9.940590142941144"><ele>522.8571428571428</ele><time>2026-05-02T12:29:11Z</time></trkpt><trkpt lat="44.760910957449305" lon="9.940514528929446"><ele>524.4285714285714</ele><time>2026-05-02T12:29:13.999Z</time></trkpt><trkpt lat="44.76096211417559" lon="9.940430709731663"><ele>526.0</ele><time>2026-05-02T12:29:16.999Z</time></trkpt><trkpt lat="44.76100557896591" lon="9.94033788051338"><ele>526.0</ele><time>2026-05-02T12:29:19.999Z</time></trkpt><trkpt lat="44.76101652042443" lon="9.940218911208081"><ele>526.0</ele><time>2026-05-02T12:29:23.999Z</time></trkpt><trkpt lat="44.760978615733066" lon="9.94012038666791"><ele>526.0</ele><time>2026-05-02T12:29:26.999Z</time></trkpt><trkpt lat="44.76089399008957" lon="9.940072946907838"><ele>526.0</ele><time>2026-05-02T12:29:29.999Z</time></trkpt><trkpt lat="44.76082216226397" lon="9.94008483548781"><ele>526.0</ele><time>2026-05-02T12:29:32.999Z</time></trkpt><trkpt lat="44.76075095447045" lon="9.940111926693675"><ele>526.0</ele><time>2026-05-02T12:29:35.999Z</time></trkpt><trkpt lat="44.76068241813861" lon="9.94013885696405"><ele>526.0</ele><time>2026-05-02T12:29:37.999Z</time></trkpt><trkpt lat="44.76060817890639" lon="9.940166817440165"><ele>526.0</ele><time>2026-05-02T12:29:40.999Z</time></trkpt><trkpt lat="44.760527583570855" lon="9.940193062260946"><ele>526.0</ele><time>2026-05-02T12:29:43.999Z</time></trkpt><trkpt lat="44.76044831523113" lon="9.94022270621241"><ele>526.0</ele><time>2026-05-02T12:29:46.999Z</time></trkpt><trkpt lat="44.76038582212064" lon="9.940241381029551"><ele>526.0</ele><time>2026-05-02T12:29:49.999Z</time></trkpt><trkpt lat="44.760318015501035" lon="9.94026130475307"><ele>526.0</ele><time>2026-05-02T12:29:52.999Z</time></trkpt><trkpt lat="44.76024764689457" lon="9.94029398374831"><ele>526.0</ele><time>2026-05-02T12:29:55.999Z</time></trkpt><trkpt lat="44.76017601512314" lon="9.94033850967534"><ele>528.3333333333334</ele><time>2026-05-02T12:29:58.999Z</time></trkpt><trkpt lat="44.76010825498557" lon="9.940406517998023"><ele>530.6666666666667</ele><time>2026-05-02T12:30:01.999Z</time></trkpt><trkpt lat="44.76004992401601" lon="9.940489258992123"><ele>533.0</ele><time>2026-05-02T12:30:04.999Z</time></trkpt><trkpt lat="44.75999304328582" lon="9.94057833538632"><ele>535.3333333333334</ele><time>2026-05-02T12:30:07.999Z</time></trkpt><trkpt lat="44.759922978423646" lon="9.94068445858437"><ele>537.6666666666666</ele><time>2026-05-02T12:30:10.998Z</time></trkpt><trkpt lat="44.759868556401265" lon="9.94076875843503"><ele>540.0</ele><time>2026-05-02T12:30:13.998Z</time></trkpt><trkpt lat="44.759806224208496" lon="9.940860034149269"><ele>538.6666666666666</ele><time>2026-05-02T12:30:16.998Z</time></trkpt><trkpt lat="44.75974405299578" lon="9.940943985364813"><ele>537.3333333333334</ele><time>2026-05-02T12:30:19.998Z</time></trkpt><trkpt lat="44.759684487804435" lon="9.94103331132358"><ele>536.0</ele><time>2026-05-02T12:30:22.998Z</time></trkpt><trkpt lat="44.759642259104" lon="9.941103234524965"><ele>534.6666666666667</ele><time>2026-05-02T12:30:24.998Z</time></trkpt><trkpt lat="44.759582317502684" lon="9.941202317505338"><ele>533.3333333333334</ele><time>2026-05-02T12:30:27.998Z</time></trkpt><trkpt lat="44.75952761649553" lon="9.941297810651497"><ele>532.0</ele><time>2026-05-02T12:30:30.998Z</time></trkpt><trkpt lat="44.759481703988534" lon="9.941391788692771"><ele>532.0</ele><time>2026-05-02T12:30:33.998Z</time></trkpt><trkpt lat="44.75943247227636" lon="9.941479381780313"><ele>532.0</ele><time>2026-05-02T12:30:36.998Z</time></trkpt><trkpt lat="44.75939056567546" lon="9.941572475694954"><ele>532.0</ele><time>2026-05-02T12:30:39.998Z</time></trkpt><trkpt lat="44.75934848795256" lon="9.941666537805695"><ele>532.0</ele><time>2026-05-02T12:30:42.998Z</time></trkpt><trkpt lat="44.75930374873329" lon="9.941752980060043"><ele>532.0</ele><time>2026-05-02T12:30:46Z</time></trkpt><trkpt lat="44.75926117406707" lon="9.941836544156493"><ele>532.0</ele><time>2026-05-02T12:30:49Z</time></trkpt><trkpt lat="44.759217926722926" lon="9.941931563765118"><ele>534.6666666666667</ele><time>2026-05-02T12:30:52Z</time></trkpt><trkpt lat="44.7591747488958" lon="9.942025506466226"><ele>537.3333333333334</ele><time>2026-05-02T12:30:55Z</time></trkpt><trkpt lat="44.75913437917641" lon="9.942119388805592"><ele>540.0</ele><time>2026-05-02T12:30:58Z</time></trkpt><trkpt lat="44.75911230108381" lon="9.942229329726086"><ele>542.6666666666666</ele><time>2026-05-02T12:31:01Z</time></trkpt><trkpt lat="44.75908994086203" lon="9.942327538807104"><ele>545.3333333333333</ele><time>2026-05-02T12:31:04Z</time></trkpt><trkpt lat="44.759074235516564" lon="9.942436380714488"><ele>548.0</ele><time>2026-05-02T12:31:07Z</time></trkpt><trkpt lat="44.75907229949096" lon="9.942544003316142"><ele>547.5714285714287</ele><time>2026-05-02T12:31:10Z</time></trkpt><trkpt lat="44.75906895999077" lon="9.942637733237044"><ele>547.1428571428571</ele><time>2026-05-02T12:31:13Z</time></trkpt><trkpt lat="44.759067782931595" lon="9.942759069713668"><ele>546.7142857142858</ele><time>2026-05-02T12:31:16Z</time></trkpt><trkpt lat="44.759063476869066" lon="9.942879394025546"><ele>546.2857142857143</ele><time>2026-05-02T12:31:18.999Z</time></trkpt><trkpt lat="44.759057199116235" lon="9.942984139857199"><ele>545.8571428571429</ele><time>2026-05-02T12:31:21.999Z</time></trkpt><trkpt lat="44.7590033036452" lon="9.943042642603832"><ele>545.4285714285714</ele><time>2026-05-02T12:31:24.999Z</time></trkpt><trkpt lat="44.75894744345098" lon="9.942995310096116"><ele>545.0</ele><time>2026-05-02T12:31:27.999Z</time></trkpt><trkpt lat="44.7589305977972" lon="9.942898278783261"><ele>545.0</ele><time>2026-05-02T12:31:30.999Z</time></trkpt><trkpt lat="44.75892099497785" lon="9.942803698690753"><ele>545.0</ele><time>2026-05-02T12:31:33.999Z</time></trkpt><trkpt lat="44.758910552511985" lon="9.942708382319324"><ele>545.0</ele><time>2026-05-02T12:31:36.999Z</time></trkpt><trkpt lat="44.75889443702472" lon="9.942615225853464"><ele>545.0</ele><time>2026-05-02T12:31:39.999Z</time></trkpt><trkpt lat="44.75888545562709" lon="9.942518195543967"><ele>545.0</ele><time>2026-05-02T12:31:42.999Z</time></trkpt><trkpt lat="44.7588728027542" lon="9.942420419210249"><ele>545.0</ele><time>2026-05-02T12:31:45.999Z</time></trkpt><trkpt lat="44.758867280242384" lon="9.942324193984192"><ele>545.0</ele><time>2026-05-02T12:31:48.999Z</time></trkpt><trkpt lat="44.75886656350042" lon="9.94223024807265"><ele>545.4285714285714</ele><time>2026-05-02T12:31:51.999Z</time></trkpt><trkpt lat="44.758874176731275" lon="9.942132340175563"><ele>545.8571428571429</ele><time>2026-05-02T12:31:54.999Z</time></trkpt><trkpt lat="44.758880927015866" lon="9.942036215547477"><ele>546.2857142857143</ele><time>2026-05-02T12:31:57.999Z</time></trkpt><trkpt lat="44.75889151431833" lon="9.941940858459464"><ele>546.7142857142858</ele><time>2026-05-02T12:32:00.999Z</time></trkpt><trkpt lat="44.758901685969036" lon="9.941843562124847"><ele>547.1428571428571</ele><time>2026-05-02T12:32:03.999Z</time></trkpt><trkpt lat="44.758923180312216" lon="9.941748814790625"><ele>547.5714285714287</ele><time>2026-05-02T12:32:06.999Z</time></trkpt><trkpt lat="44.75894130674905" lon="9.941652957486806"><ele>548.0</ele><time>2026-05-02T12:32:09.999Z</time></trkpt><trkpt lat="44.758958823220496" lon="9.941559063345304"><ele>549.1428571428572</ele><time>2026-05-02T12:32:12.999Z</time></trkpt><trkpt lat="44.758976972872084" lon="9.941468550063657"><ele>550.2857142857143</ele><time>2026-05-02T12:32:15.998Z</time></trkpt><trkpt lat="44.75899418195882" lon="9.94137886254321"><ele>551.4285714285714</ele><time>2026-05-02T12:32:18.998Z</time></trkpt><trkpt lat="44.75900895430027" lon="9.941283255585198"><ele>552.5714285714287</ele><time>2026-05-02T12:32:21.998Z</time></trkpt><trkpt lat="44.75902950525897" lon="9.941189447201314"><ele>553.7142857142858</ele><time>2026-05-02T12:32:24.998Z</time></trkpt><trkpt lat="44.759044476211166" lon="9.941090687724278"><ele>554.8571428571429</ele><time>2026-05-02T12:32:27.998Z</time></trkpt><trkpt lat="44.759050075804815" lon="9.94098978408072"><ele>556.0</ele><time>2026-05-02T12:32:30.998Z</time></trkpt><trkpt lat="44.75906087299403" lon="9.940889115426"><ele>557.2857142857142</ele><time>2026-05-02T12:32:33.998Z</time></trkpt><trkpt lat="44.75905691477268" lon="9.940787115327197"><ele>558.5714285714286</ele><time>2026-05-02T12:32:36.998Z</time></trkpt><trkpt lat="44.75904499736025" lon="9.94068620092284"><ele>559.8571428571429</ele><time>2026-05-02T12:32:39.998Z</time></trkpt><trkpt lat="44.759030677442254" lon="9.940583811001625"><ele>561.1428571428571</ele><time>2026-05-02T12:32:42.998Z</time></trkpt><trkpt lat="44.75900635992457" lon="9.940484701512975"><ele>562.4285714285714</ele><time>2026-05-02T12:32:45.998Z</time></trkpt><trkpt lat="44.758988291987514" lon="9.940382568908717"><ele>563.7142857142857</ele><time>2026-05-02T12:32:48.998Z</time></trkpt><trkpt lat="44.75899246229894" lon="9.940277877047075"><ele>565.0</ele><time>2026-05-02T12:32:52Z</time></trkpt><trkpt lat="44.75901798172844" lon="9.940181310124327"><ele>565.0</ele><time>2026-05-02T12:32:55Z</time></trkpt><trkpt lat="44.7590513053973" lon="9.940093269545276"><ele>565.0</ele><time>2026-05-02T12:32:58Z</time></trkpt><trkpt lat="44.75909122957401" lon="9.940003969053572"><ele>565.0</ele><time>2026-05-02T12:33:01Z</time></trkpt><trkpt lat="44.75913045309073" lon="9.93991894290061"><ele>565.0</ele><time>2026-05-02T12:33:04Z</time></trkpt><trkpt lat="44.759166423551875" lon="9.93982490784269"><ele>565.0</ele><time>2026-05-02T12:33:07Z</time></trkpt><trkpt lat="44.75918536442197" lon="9.939714562022413"><ele>565.0</ele><time>2026-05-02T12:33:10Z</time></trkpt><trkpt lat="44.75919373301698" lon="9.93960456930772"><ele>565.5714285714286</ele><time>2026-05-02T12:33:13Z</time></trkpt><trkpt lat="44.759190211903906" lon="9.939502559669036"><ele>566.1428571428571</ele><time>2026-05-02T12:33:16Z</time></trkpt><trkpt lat="44.759176278156914" lon="9.939404645163537"><ele>566.7142857142858</ele><time>2026-05-02T12:33:19Z</time></trkpt><trkpt lat="44.75915095081783" lon="9.939305076835712"><ele>567.2857142857142</ele><time>2026-05-02T12:33:22Z</time></trkpt><trkpt lat="44.75911988828004" lon="9.939210837968863"><ele>567.8571428571429</ele><time>2026-05-02T12:33:24.999Z</time></trkpt><trkpt lat="44.75908234894444" lon="9.939123698808425"><ele>568.4285714285714</ele><time>2026-05-02T12:33:27.999Z</time></trkpt><trkpt lat="44.75903227116086" lon="9.939034349139334"><ele>569.0</ele><time>2026-05-02T12:33:30.999Z</time></trkpt><trkpt lat="44.758969694947474" lon="9.93895607795182"><ele>569.0000000000001</ele><time>2026-05-02T12:33:34.999Z</time></trkpt><trkpt lat="44.75891207886453" lon="9.93890692952384"><ele>569.0</ele><time>2026-05-02T12:33:37.999Z</time></trkpt><trkpt lat="44.75884704510848" lon="9.938881956962083"><ele>569.0</ele><time>2026-05-02T12:33:40.999Z</time></trkpt><trkpt lat="44.75876738739698" lon="9.938864964104392"><ele>569.0</ele><time>2026-05-02T12:33:43.999Z</time></trkpt><trkpt lat="44.75869038725071" lon="9.938861897159898"><ele>569.0</ele><time>2026-05-02T12:33:46.999Z</time></trkpt><trkpt lat="44.7586139175061" lon="9.938855533217456"><ele>569.0000000000001</ele><time>2026-05-02T12:33:49.999Z</time></trkpt><trkpt lat="44.758539318771795" lon="9.938846723219404"><ele>569.0</ele><time>2026-05-02T12:33:52.999Z</time></trkpt><trkpt lat="44.758469799721844" lon="9.938833441811532"><ele>571.6666666666666</ele><time>2026-05-02T12:33:55.999Z</time></trkpt><trkpt lat="44.758397739817816" lon="9.93878993398541"><ele>574.3333333333333</ele><time>2026-05-02T12:33:58.999Z</time></trkpt><trkpt lat="44.75834029689005" lon="9.938714339702363"><ele>577.0</ele><time>2026-05-02T12:34:01.999Z</time></trkpt><trkpt lat="44.75830038956555" lon="9.938621489512364"><ele>579.6666666666666</ele><time>2026-05-02T12:34:04.999Z</time></trkpt><trkpt lat="44.75828156119125" lon="9.938520039956293"><ele>582.3333333333334</ele><time>2026-05-02T12:34:07.999Z</time></trkpt><trkpt lat="44.7582693125215" lon="9.93841557196049"><ele>585.0</ele><time>2026-05-02T12:34:10.999Z</time></trkpt><trkpt lat="44.75825667710837" lon="9.938310381131641"><ele>585.0</ele><time>2026-05-02T12:34:13.999Z</time></trkpt><trkpt lat="44.758237541387246" lon="9.938201527306015"><ele>585.0</ele><time>2026-05-02T12:34:16.999Z</time></trkpt><trkpt lat="44.758202915084716" lon="9.938107073291187"><ele>585.0</ele><time>2026-05-02T12:34:19.999Z</time></trkpt><trkpt lat="44.75815990316706" lon="9.938018610756863"><ele>585.0</ele><time>2026-05-02T12:34:22.998Z</time></trkpt><trkpt lat="44.75811086596757" lon="9.937939204675114"><ele>585.0</ele><time>2026-05-02T12:34:25.998Z</time></trkpt><trkpt lat="44.75805444761982" lon="9.937844719949043"><ele>585.0</ele><time>2026-05-02T12:34:29.998Z</time></trkpt><trkpt lat="44.75801832863993" lon="9.937765310651251"><ele>585.0</ele><time>2026-05-02T12:34:32.998Z</time></trkpt><trkpt lat="44.75798897557467" lon="9.937675264204584"><ele>585.0</ele><time>2026-05-02T12:34:35.998Z</time></trkpt><trkpt lat="44.757966548227834" lon="9.937577626668714"><ele>585.0</ele><time>2026-05-02T12:34:38.998Z</time></trkpt><trkpt lat="44.75795551096171" lon="9.937476810863759"><ele>585.0</ele><time>2026-05-02T12:34:41.998Z</time></trkpt><trkpt lat="44.75794586462136" lon="9.937369806882886"><ele>585.0</ele><time>2026-05-02T12:34:44.998Z</time></trkpt><trkpt lat="44.75794649848056" lon="9.937247706538848"><ele>585.0</ele><time>2026-05-02T12:34:47.998Z</time></trkpt><trkpt lat="44.7579563918436" lon="9.937139752812739"><ele>584.5</ele><time>2026-05-02T12:34:50.998Z</time></trkpt><trkpt lat="44.75797257347993" lon="9.937037768751965"><ele>584.0</ele><time>2026-05-02T12:34:53.998Z</time></trkpt><trkpt lat="44.7579907391029" lon="9.93694104346766"><ele>583.5</ele><time>2026-05-02T12:34:56.998Z</time></trkpt><trkpt lat="44.758023016255166" lon="9.93684784971129"><ele>583.0</ele><time>2026-05-02T12:35:00Z</time></trkpt><trkpt lat="44.75806046604459" lon="9.9367551976588"><ele>582.5</ele><time>2026-05-02T12:35:03Z</time></trkpt><trkpt lat="44.75810262737998" lon="9.936663559788999"><ele>582.0</ele><time>2026-05-02T12:35:06Z</time></trkpt><trkpt lat="44.75816063711354" lon="9.936579242877269"><ele>582.8571428571429</ele><time>2026-05-02T12:35:10Z</time></trkpt><trkpt lat="44.75821796125139" lon="9.936522585034103"><ele>583.7142857142857</ele><time>2026-05-02T12:35:13Z</time></trkpt><trkpt lat="44.75827713302304" lon="9.9364748792472"><ele>584.5714285714286</ele><time>2026-05-02T12:35:16Z</time></trkpt><trkpt lat="44.75833230517609" lon="9.93640970214726"><ele>585.4285714285714</ele><time>2026-05-02T12:35:19Z</time></trkpt><trkpt lat="44.75837171601954" lon="9.93632590669045"><ele>586.2857142857142</ele><time>2026-05-02T12:35:21Z</time></trkpt><trkpt lat="44.758366830316916" lon="9.936216808277463"><ele>587.1428571428571</ele><time>2026-05-02T12:35:24Z</time></trkpt><trkpt lat="44.75832949432446" lon="9.936123925217961"><ele>588.0</ele><time>2026-05-02T12:35:27Z</time></trkpt><trkpt lat="44.75827758812367" lon="9.936072274724012"><ele>588.0</ele><time>2026-05-02T12:35:29.999Z</time></trkpt><trkpt lat="44.75821760985989" lon="9.936033260954613"><ele>588.0</ele><time>2026-05-02T12:35:32.999Z</time></trkpt><trkpt lat="44.758151736172984" lon="9.936000206874493"><ele>588.0</ele><time>2026-05-02T12:35:35.999Z</time></trkpt><trkpt lat="44.758076521425146" lon="9.935980281458779"><ele>588.0</ele><time>2026-05-02T12:35:38.999Z</time></trkpt><trkpt lat="44.758011512905625" lon="9.935974413873769"><ele>588.0</ele><time>2026-05-02T12:35:41.999Z</time></trkpt><trkpt lat="44.75794425062437" lon="9.935974389311907"><ele>588.0</ele><time>2026-05-02T12:35:44.999Z</time></trkpt><trkpt lat="44.75787769580776" lon="9.935998800589626"><ele>588.0</ele><time>2026-05-02T12:35:47.999Z</time></trkpt><trkpt lat="44.75781992139421" lon="9.936044364829977"><ele>588.0</ele><time>2026-05-02T12:35:50.999Z</time></trkpt><trkpt lat="44.75776050613557" lon="9.936103875297809"><ele>588.0</ele><time>2026-05-02T12:35:53.999Z</time></trkpt><trkpt lat="44.7576933563061" lon="9.936191855235377"><ele>588.0</ele><time>2026-05-02T12:35:56.999Z</time></trkpt><trkpt lat="44.75764216817195" lon="9.936280354932304"><ele>588.0</ele><time>2026-05-02T12:35:59.999Z</time></trkpt><trkpt lat="44.757592516456164" lon="9.936366310263693"><ele>588.0</ele><time>2026-05-02T12:36:02.999Z</time></trkpt><trkpt lat="44.7575464543109" lon="9.936459416375383"><ele>588.0</ele><time>2026-05-02T12:36:05.999Z</time></trkpt><trkpt lat="44.75750925109825" lon="9.936551478770404"><ele>591.1666666666666</ele><time>2026-05-02T12:36:08.999Z</time></trkpt><trkpt lat="44.757472902937494" lon="9.936646033646195"><ele>594.3333333333334</ele><time>2026-05-02T12:36:11.999Z</time></trkpt><trkpt lat="44.757438584534725" lon="9.93674662658939"><ele>597.5</ele><time>2026-05-02T12:36:14.999Z</time></trkpt><trkpt lat="44.757402358852175" lon="9.936855774607794"><ele>600.6666666666667</ele><time>2026-05-02T12:36:18.999Z</time></trkpt><trkpt lat="44.75736687292682" lon="9.936956193486097"><ele>603.8333333333334</ele><time>2026-05-02T12:36:21.999Z</time></trkpt><trkpt lat="44.75733816764005" lon="9.937064890460896"><ele>607.0</ele><time>2026-05-02T12:36:24.999Z</time></trkpt><trkpt lat="44.75729874506247" lon="9.937186105657675"><ele>607.0</ele><time>2026-05-02T12:36:27.998Z</time></trkpt><trkpt lat="44.75726256575165" lon="9.93728303505758"><ele>607.0</ele><time>2026-05-02T12:36:30.998Z</time></trkpt><trkpt lat="44.7572307564001" lon="9.937381000670843"><ele>607.0</ele><time>2026-05-02T12:36:33.998Z</time></trkpt><trkpt lat="44.75720426521356" lon="9.937470007531013"><ele>607.0</ele><time>2026-05-02T12:36:35.998Z</time></trkpt><trkpt lat="44.75717703058408" lon="9.937576897758673"><ele>607.0</ele><time>2026-05-02T12:36:38.998Z</time></trkpt><trkpt lat="44.75716281935679" lon="9.937699017350477"><ele>607.0</ele><time>2026-05-02T12:36:41.998Z</time></trkpt><trkpt lat="44.75716038417479" lon="9.937855566807714"><ele>607.8571428571428</ele><time>2026-05-02T12:36:44.998Z</time></trkpt><trkpt lat="44.757173656505934" lon="9.937942628222881"><ele>608.7142857142857</ele><time>2026-05-02T12:36:46.998Z</time></trkpt><trkpt lat="44.757219224743345" lon="9.938063700936512"><ele>609.5714285714286</ele><time>2026-05-02T12:36:49.998Z</time></trkpt><trkpt lat="44.75725412419586" lon="9.938139262924633"><ele>610.4285714285713</ele><time>2026-05-02T12:36:51.998Z</time></trkpt><trkpt lat="44.75730551189541" lon="9.938202540480095"><ele>611.2857142857142</ele><time>2026-05-02T12:36:53.998Z</time></trkpt><trkpt lat="44.75735145464472" lon="9.938265219413763"><ele>612.1428571428571</ele><time>2026-05-02T12:36:55.998Z</time></trkpt><trkpt lat="44.75740118892403" lon="9.938326750159503"><ele>613.0</ele><time>2026-05-02T12:36:57.998Z</time></trkpt><trkpt lat="44.75745485891218" lon="9.938384264352075"><ele>612.6666666666667</ele><time>2026-05-02T12:36:59.998Z</time></trkpt><trkpt lat="44.75750554741297" lon="9.9384394066504"><ele>612.3333333333334</ele><time>2026-05-02T12:37:01.998Z</time></trkpt><trkpt lat="44.75757110418305" lon="9.938524047397607"><ele>612.0</ele><time>2026-05-02T12:37:05Z</time></trkpt><trkpt lat="44.757609499201244" lon="9.938641462408365"><ele>611.6666666666666</ele><time>2026-05-02T12:37:08Z</time></trkpt><trkpt lat="44.75760623547794" lon="9.938768094312227"><ele>611.3333333333333</ele><time>2026-05-02T12:37:11Z</time></trkpt><trkpt lat="44.75756539186686" lon="9.938902652827338"><ele>611.0</ele><time>2026-05-02T12:37:15Z</time></trkpt><trkpt lat="44.75749894936517" lon="9.938992424892524"><ele>611.0</ele><time>2026-05-02T12:37:18Z</time></trkpt><trkpt lat="44.757420298202085" lon="9.93901062872799"><ele>611.0</ele><time>2026-05-02T12:37:21Z</time></trkpt><trkpt lat="44.75734964681837" lon="9.939030002742042"><ele>611.0</ele><time>2026-05-02T12:37:24Z</time></trkpt><trkpt lat="44.75727059930077" lon="9.939003309995906"><ele>611.0</ele><time>2026-05-02T12:37:27Z</time></trkpt><trkpt lat="44.757206603436" lon="9.938934020747244"><ele>611.0</ele><time>2026-05-02T12:37:30Z</time></trkpt><trkpt lat="44.757148394190025" lon="9.93886073440525"><ele>611.0</ele><time>2026-05-02T12:37:33Z</time></trkpt><trkpt lat="44.757102825135725" lon="9.93877613942165"><ele>611.0</ele><time>2026-05-02T12:37:35.999Z</time></trkpt><trkpt lat="44.75706014822498" lon="9.938675929653636"><ele>611.0</ele><time>2026-05-02T12:37:38.999Z</time></trkpt><trkpt lat="44.75703835347988" lon="9.938569521917021"><ele>611.0</ele><time>2026-05-02T12:37:41.999Z</time></trkpt><trkpt lat="44.757019803211776" lon="9.938464417894613"><ele>611.0</ele><time>2026-05-02T12:37:44.999Z</time></trkpt><trkpt lat="44.75699959289965" lon="9.938355183413542"><ele>611.0</ele><time>2026-05-02T12:37:47.999Z</time></trkpt><trkpt lat="44.7569826532512" lon="9.938241410206668"><ele>611.0</ele><time>2026-05-02T12:37:50.999Z</time></trkpt><trkpt lat="44.75696211776016" lon="9.938125460127862"><ele>611.3333333333333</ele><time>2026-05-02T12:37:53.999Z</time></trkpt><trkpt lat="44.75694435193518" lon="9.93801613129375"><ele>611.6666666666666</ele><time>2026-05-02T12:37:56.999Z</time></trkpt><trkpt lat="44.75692331581722" lon="9.937905123214279"><ele>612.0</ele><time>2026-05-02T12:37:59.999Z</time></trkpt><trkpt lat="44.756906021402656" lon="9.93778885805035"><ele>612.3333333333334</ele><time>2026-05-02T12:38:02.999Z</time></trkpt><trkpt lat="44.75688466143037" lon="9.937678709426155"><ele>612.6666666666667</ele><time>2026-05-02T12:38:05.999Z</time></trkpt><trkpt lat="44.75686723381246" lon="9.937567830165932"><ele>613.0</ele><time>2026-05-02T12:38:08.999Z</time></trkpt><trkpt lat="44.75684883075447" lon="9.93745399053405"><ele>614.1666666666667</ele><time>2026-05-02T12:38:11.999Z</time></trkpt><trkpt lat="44.75683742982855" lon="9.93734181564163"><ele>615.3333333333334</ele><time>2026-05-02T12:38:14.999Z</time></trkpt><trkpt lat="44.75683454043553" lon="9.937230538551391"><ele>616.5</ele><time>2026-05-02T12:38:17.999Z</time></trkpt><trkpt lat="44.75683956266782" lon="9.937119824612417"><ele>617.6666666666666</ele><time>2026-05-02T12:38:20.999Z</time></trkpt><trkpt lat="44.756854214733536" lon="9.937012248141842"><ele>618.8333333333333</ele><time>2026-05-02T12:38:23.999Z</time></trkpt><trkpt lat="44.75686093393044" lon="9.936916907798636"><ele>620.0</ele><time>2026-05-02T12:38:26.999Z</time></trkpt><trkpt lat="44.756810293602676" lon="9.93699645254581"><ele>620.0</ele><time>2026-05-02T12:38:31.998Z</time></trkpt><trkpt lat="44.75677289662595" lon="9.93708559705514"><ele>620.0</ele><time>2026-05-02T12:39:09Z</time></trkpt><trkpt lat="44.756769642616554" lon="9.937221433243044"><ele>620.0</ele><time>2026-05-02T12:39:13Z</time></trkpt><trkpt lat="44.756772422154796" lon="9.937330500805894"><ele>620.0</ele><time>2026-05-02T12:39:15Z</time></trkpt><trkpt lat="44.75678067520626" lon="9.93745325969197"><ele>620.0</ele><time>2026-05-02T12:39:17Z</time></trkpt><trkpt lat="44.756804561476834" lon="9.937586375373424"><ele>620.0</ele><time>2026-05-02T12:39:19Z</time></trkpt><trkpt lat="44.75682866532077" lon="9.937728638016546"><ele>619.1666666666666</ele><time>2026-05-02T12:39:21Z</time></trkpt><trkpt lat="44.75685399503381" lon="9.937881861707103"><ele>618.3333333333333</ele><time>2026-05-02T12:39:23Z</time></trkpt><trkpt lat="44.75688619248905" lon="9.938048595980199"><ele>617.5</ele><time>2026-05-02T12:39:25Z</time></trkpt><trkpt lat="44.756898167047765" lon="9.93814043357004"><ele>616.6666666666666</ele><time>2026-05-02T12:39:26Z</time></trkpt><trkpt lat="44.756914142464076" lon="9.938233535250417"><ele>615.8333333333334</ele><time>2026-05-02T12:39:27Z</time></trkpt><trkpt lat="44.75693457473193" lon="9.938328447266013"><ele>615.0</ele><time>2026-05-02T12:39:28Z</time></trkpt><trkpt lat="44.75695586356511" lon="9.938426775951301"><ele>614.3333333333334</ele><time>2026-05-02T12:39:29Z</time></trkpt><trkpt lat="44.75697135836188" lon="9.938532369563935"><ele>613.6666666666666</ele><time>2026-05-02T12:39:30Z</time></trkpt><trkpt lat="44.75698573032899" lon="9.93864001397568"><ele>613.0</ele><time>2026-05-02T12:39:31Z</time></trkpt><trkpt lat="44.757017935187626" lon="9.938739052576194"><ele>612.3333333333333</ele><time>2026-05-02T12:39:32Z</time></trkpt><trkpt lat="44.75705892932296" lon="9.938840449804477"><ele>611.6666666666666</ele><time>2026-05-02T12:39:33Z</time></trkpt><trkpt lat="44.757113385332374" lon="9.938928447120245"><ele>611.0</ele><time>2026-05-02T12:39:34Z</time></trkpt><trkpt lat="44.757179876038364" lon="9.939002075988382"><ele>611.0</ele><time>2026-05-02T12:39:35Z</time></trkpt><trkpt lat="44.75725293454151" lon="9.939050480220187"><ele>611.0</ele><time>2026-05-02T12:39:36Z</time></trkpt><trkpt lat="44.75733378836979" lon="9.93908059076821"><ele>611.0</ele><time>2026-05-02T12:39:37Z</time></trkpt><trkpt lat="44.75741458365525" lon="9.939086067574525"><ele>611.0</ele><time>2026-05-02T12:39:37.999Z</time></trkpt><trkpt lat="44.75749191386838" lon="9.939061114130768"><ele>611.0</ele><time>2026-05-02T12:39:38.999Z</time></trkpt><trkpt lat="44.757562174167006" lon="9.939003801063135"><ele>611.0</ele><time>2026-05-02T12:39:39.999Z</time></trkpt><trkpt lat="44.75761399263289" lon="9.938901030426193"><ele>611.0</ele><time>2026-05-02T12:39:40.999Z</time></trkpt><trkpt lat="44.75764460441907" lon="9.93877973928362"><ele>611.0</ele><time>2026-05-02T12:39:41.999Z</time></trkpt><trkpt lat="44.75764776199772" lon="9.938651303876462"><ele>611.0</ele><time>2026-05-02T12:39:42.999Z</time></trkpt><trkpt lat="44.75761609598772" lon="9.938527803661811"><ele>611.0</ele><time>2026-05-02T12:39:43.999Z</time></trkpt><trkpt lat="44.757565227921255" lon="9.938414217224821"><ele>611.0</ele><time>2026-05-02T12:39:44.999Z</time></trkpt><trkpt lat="44.75748933159519" lon="9.938333647469124"><ele>611.4</ele><time>2026-05-02T12:39:45.999Z</time></trkpt><trkpt lat="44.75741202161459" lon="9.938260441954295"><ele>611.8</ele><time>2026-05-02T12:39:46.999Z</time></trkpt><trkpt lat="44.757336773989934" lon="9.938187050273475"><ele>612.1999999999999</ele><time>2026-05-02T12:39:47.999Z</time></trkpt><trkpt lat="44.7572627601673" lon="9.938108612240843"><ele>612.6</ele><time>2026-05-02T12:39:48.999Z</time></trkpt><trkpt lat="44.75721989505119" lon="9.937988704533922"><ele>613.0</ele><time>2026-05-02T12:39:49.999Z</time></trkpt><trkpt lat="44.75719764456793" lon="9.937855019129591"><ele>613.0</ele><time>2026-05-02T12:39:50.999Z</time></trkpt><trkpt lat="44.75720449001098" lon="9.937717534900408"><ele>613.0</ele><time>2026-05-02T12:39:51.999Z</time></trkpt><trkpt lat="44.75723073627588" lon="9.937585120250098"><ele>613.0</ele><time>2026-05-02T12:39:52.999Z</time></trkpt><trkpt lat="44.75726550136418" lon="9.93746155061204"><ele>613.0</ele><time>2026-05-02T12:39:53.999Z</time></trkpt><trkpt lat="44.75730655863567" lon="9.937338108331355"><ele>613.0</ele><time>2026-05-02T12:39:54.999Z</time></trkpt><trkpt lat="44.75734785175542" lon="9.93721360159109"><ele>612.8</ele><time>2026-05-02T12:39:55.999Z</time></trkpt><trkpt lat="44.7573898313034" lon="9.93709207960222"><ele>612.5999999999999</ele><time>2026-05-02T12:39:56.999Z</time></trkpt><trkpt lat="44.75743348846437" lon="9.936964966878945"><ele>612.4000000000001</ele><time>2026-05-02T12:39:57.999Z</time></trkpt><trkpt lat="44.757475835973295" lon="9.936836955718697"><ele>612.2</ele><time>2026-05-02T12:39:58.999Z</time></trkpt><trkpt lat="44.75752128067463" lon="9.936709702705645"><ele>612.0</ele><time>2026-05-02T12:39:59.999Z</time></trkpt><trkpt lat="44.757568180363265" lon="9.936581645405633"><ele>612.0</ele><time>2026-05-02T12:40:00.999Z</time></trkpt><trkpt lat="44.757619097898015" lon="9.936456786997171"><ele>612.0</ele><time>2026-05-02T12:40:01.999Z</time></trkpt><trkpt lat="44.757675445125955" lon="9.936332979200367"><ele>612.0</ele><time>2026-05-02T12:40:02.999Z</time></trkpt><trkpt lat="44.757737312393935" lon="9.93621533612006"><ele>612.0</ele><time>2026-05-02T12:40:03.999Z</time></trkpt><trkpt lat="44.75781293074941" lon="9.936116326697478"><ele>612.0</ele><time>2026-05-02T12:40:04.999Z</time></trkpt><trkpt lat="44.75789848675834" lon="9.93604273484179"><ele>608.0</ele><time>2026-05-02T12:40:05.999Z</time></trkpt><trkpt lat="44.75798660953919" lon="9.936007644409418"><ele>604.0</ele><time>2026-05-02T12:40:06.999Z</time></trkpt><trkpt lat="44.75807871999102" lon="9.936020443595128"><ele>600.0</ele><time>2026-05-02T12:40:07.999Z</time></trkpt><trkpt lat="44.758171225935136" lon="9.936049858669316"><ele>596.0</ele><time>2026-05-02T12:40:08.999Z</time></trkpt><trkpt lat="44.75825497910958" lon="9.936070718728482"><ele>592.0</ele><time>2026-05-02T12:40:09.999Z</time></trkpt><trkpt lat="44.758324658174814" lon="9.936107740776565"><ele>588.0</ele><time>2026-05-02T12:40:10.999Z</time></trkpt><trkpt lat="44.7583681873987" lon="9.936187802409906"><ele>588.0</ele><time>2026-05-02T12:40:11.999Z</time></trkpt><trkpt lat="44.758374006139505" lon="9.936296443700222"><ele>588.0</ele><time>2026-05-02T12:40:12.999Z</time></trkpt><trkpt lat="44.758313047636726" lon="9.936377573109292"><ele>588.0</ele><time>2026-05-02T12:40:13.999Z</time></trkpt><trkpt lat="44.75824385980689" lon="9.93641620837622"><ele>588.0</ele><time>2026-05-02T12:40:14.999Z</time></trkpt><trkpt lat="44.758161399185724" lon="9.93648049949839"><ele>588.0</ele><time>2026-05-02T12:40:15.999Z</time></trkpt><trkpt lat="44.75810177911663" lon="9.936582550785035"><ele>588.0</ele><time>2026-05-02T12:40:16.999Z</time></trkpt><trkpt lat="44.75804181713541" lon="9.936686002480778"><ele>586.8</ele><time>2026-05-02T12:40:17.999Z</time></trkpt><trkpt lat="44.75799234858973" lon="9.93679987672642"><ele>585.5999999999999</ele><time>2026-05-02T12:40:18.999Z</time></trkpt><trkpt lat="44.757951811196186" lon="9.936922413386387"><ele>584.4000000000001</ele><time>2026-05-02T12:40:19.999Z</time></trkpt><trkpt lat="44.757921235498316" lon="9.937054907722215"><ele>583.2</ele><time>2026-05-02T12:40:20.999Z</time></trkpt><trkpt lat="44.757903219411794" lon="9.937194510109862"><ele>582.0</ele><time>2026-05-02T12:40:21.999Z</time></trkpt><trkpt lat="44.757896669680854" lon="9.937340695244089"><ele>582.0</ele><time>2026-05-02T12:40:22.999Z</time></trkpt><trkpt lat="44.75790048943493" lon="9.937488431863715"><ele>582.0</ele><time>2026-05-02T12:40:23.999Z</time></trkpt><trkpt lat="44.757917438552106" lon="9.937636833118749"><ele>582.0</ele><time>2026-05-02T12:40:24.999Z</time></trkpt><trkpt lat="44.75795223260523" lon="9.937782035636582"><ele>582.0</ele><time>2026-05-02T12:40:25.999Z</time></trkpt><trkpt lat="44.75801305838485" lon="9.937908566011595"><ele>582.0</ele><time>2026-05-02T12:40:26.999Z</time></trkpt><trkpt lat="44.7580942129998" lon="9.938014427018802"><ele>582.6</ele><time>2026-05-02T12:40:27.999Z</time></trkpt><trkpt lat="44.75817059255003" lon="9.938125680807957"><ele>583.2</ele><time>2026-05-02T12:40:28.999Z</time></trkpt><trkpt lat="44.75821810266972" lon="9.938264279397215"><ele>583.8</ele><time>2026-05-02T12:40:29.999Z</time></trkpt><trkpt lat="44.75823620592877" lon="9.93841697358949"><ele>584.4</ele><time>2026-05-02T12:40:30.999Z</time></trkpt><trkpt lat="44.75825007040548" lon="9.938572002762774"><ele>585.0</ele><time>2026-05-02T12:40:31.999Z</time></trkpt><trkpt lat="44.75828502760575" lon="9.938709408612267"><ele>586.4</ele><time>2026-05-02T12:40:32.998Z</time></trkpt><trkpt lat="44.75835075546625" lon="9.938818196926945"><ele>587.8</ele><time>2026-05-02T12:40:33.998Z</time></trkpt><trkpt lat="44.758436344715555" lon="9.938888936661767"><ele>589.2</ele><time>2026-05-02T12:40:34.998Z</time></trkpt><trkpt lat="44.75853572909847" lon="9.938922616831393"><ele>590.6</ele><time>2026-05-02T12:40:35.998Z</time></trkpt><trkpt lat="44.75864118624735" lon="9.938917110598748"><ele>592.0</ele><time>2026-05-02T12:40:36.998Z</time></trkpt><trkpt lat="44.75874624029932" lon="9.938912283251975"><ele>587.6</ele><time>2026-05-02T12:40:37.998Z</time></trkpt><trkpt lat="44.758852002402186" lon="9.938925872029841"><ele>583.2</ele><time>2026-05-02T12:40:38.998Z</time></trkpt><trkpt lat="44.758946676203266" lon="9.938993796367537"><ele>578.8</ele><time>2026-05-02T12:40:39.998Z</time></trkpt><trkpt lat="44.75902359740209" lon="9.939101831858164"><ele>574.4</ele><time>2026-05-02T12:40:40.998Z</time></trkpt><trkpt lat="44.759081197948376" lon="9.939234383242153"><ele>570.0</ele><time>2026-05-02T12:40:41.998Z</time></trkpt><trkpt lat="44.75912632693439" lon="9.93937629437292"><ele>570.0</ele><time>2026-05-02T12:40:42.998Z</time></trkpt><trkpt lat="44.75915079063254" lon="9.939531217937226"><ele>570.0</ele><time>2026-05-02T12:40:43.998Z</time></trkpt><trkpt lat="44.759160696028886" lon="9.939682190513096"><ele>570.0</ele><time>2026-05-02T12:40:44.998Z</time></trkpt><trkpt lat="44.759142513852474" lon="9.939829508889497"><ele>570.0</ele><time>2026-05-02T12:40:45.998Z</time></trkpt><trkpt lat="44.759071606497834" lon="9.939951397600433"><ele>570.0</ele><time>2026-05-02T12:40:46.998Z</time></trkpt><trkpt lat="44.75901265761601" lon="9.940084883110547"><ele>569.0</ele><time>2026-05-02T12:40:47.998Z</time></trkpt><trkpt lat="44.75896080798959" lon="9.940222382684116"><ele>568.0</ele><time>2026-05-02T12:40:48.998Z</time></trkpt><trkpt lat="44.75894988259848" lon="9.940372388337458"><ele>567.0</ele><time>2026-05-02T12:40:49.998Z</time></trkpt><trkpt lat="44.758974830942705" lon="9.940524849321406"><ele>566.0</ele><time>2026-05-02T12:40:50.998Z</time></trkpt><trkpt lat="44.759013740763855" lon="9.940670978725281"><ele>565.0</ele><time>2026-05-02T12:40:51.998Z</time></trkpt><trkpt lat="44.759028428751016" lon="9.940827736360589"><ele>562.75</ele><time>2026-05-02T12:40:52.998Z</time></trkpt><trkpt lat="44.75901630132544" lon="9.940988902495631"><ele>560.5</ele><time>2026-05-02T12:40:53.998Z</time></trkpt><trkpt lat="44.75898940993162" lon="9.941143927132122"><ele>558.25</ele><time>2026-05-02T12:40:54.998Z</time></trkpt><trkpt lat="44.758962709392215" lon="9.941299261637537"><ele>556.0</ele><time>2026-05-02T12:40:55.998Z</time></trkpt><trkpt lat="44.75893307104415" lon="9.941456054543226"><ele>556.0</ele><time>2026-05-02T12:40:56.998Z</time></trkpt><trkpt lat="44.758899962839415" lon="9.941613843310533"><ele>556.0</ele><time>2026-05-02T12:40:57.998Z</time></trkpt><trkpt lat="44.75886450804278" lon="9.941771893178707"><ele>556.0</ele><time>2026-05-02T12:40:58.998Z</time></trkpt><trkpt lat="44.75883732779716" lon="9.941934478571753"><ele>556.0</ele><time>2026-05-02T12:40:59.998Z</time></trkpt><trkpt lat="44.75882518666717" lon="9.942107659523348"><ele>554.0</ele><time>2026-05-02T12:41:00.998Z</time></trkpt><trkpt lat="44.758826579315034" lon="9.942283797198574"><ele>552.0</ele><time>2026-05-02T12:41:01.998Z</time></trkpt><trkpt lat="44.75883952945856" lon="9.94246231945043"><ele>550.0</ele><time>2026-05-02T12:41:02.998Z</time></trkpt><trkpt lat="44.758861454083856" lon="9.94263194580163"><ele>548.0</ele><time>2026-05-02T12:41:03.998Z</time></trkpt><trkpt lat="44.758888499642154" lon="9.942785455742476"><ele>547.5</ele><time>2026-05-02T12:41:04.998Z</time></trkpt><trkpt lat="44.75891297281587" lon="9.942919235254536"><ele>547.0</ele><time>2026-05-02T12:41:05.998Z</time></trkpt><trkpt lat="44.75893678573266" lon="9.94302965425111"><ele>546.5</ele><time>2026-05-02T12:41:06.998Z</time></trkpt><trkpt lat="44.75898319019048" lon="9.943098569227505"><ele>546.0</ele><time>2026-05-02T12:41:07.998Z</time></trkpt><trkpt lat="44.75904688467251" lon="9.943106487721003"><ele>545.5</ele><time>2026-05-02T12:41:08.998Z</time></trkpt><trkpt lat="44.75910490365605" lon="9.94304562058548"><ele>545.0</ele><time>2026-05-02T12:41:09.998Z</time></trkpt><trkpt lat="44.75912857765884" lon="9.9429365359374"><ele>545.0</ele><time>2026-05-02T12:41:10.998Z</time></trkpt><trkpt lat="44.759115951531065" lon="9.94282221072737"><ele>545.0</ele><time>2026-05-02T12:41:11.998Z</time></trkpt><trkpt lat="44.75910504012819" lon="9.94271203621313"><ele>545.0</ele><time>2026-05-02T12:41:12.998Z</time></trkpt><trkpt lat="44.75910124970467" lon="9.94259574793266"><ele>545.0</ele><time>2026-05-02T12:41:13.998Z</time></trkpt><trkpt lat="44.759102876527" lon="9.942476316878956"><ele>545.0</ele><time>2026-05-02T12:41:15Z</time></trkpt><trkpt lat="44.75911539831796" lon="9.942351568334171"><ele>545.0</ele><time>2026-05-02T12:41:16Z</time></trkpt><trkpt lat="44.75914572747276" lon="9.942227659392747"><ele>545.6</ele><time>2026-05-02T12:41:17Z</time></trkpt><trkpt lat="44.759192130039935" lon="9.942111088800843"><ele>546.2</ele><time>2026-05-02T12:41:18Z</time></trkpt><trkpt lat="44.75924849933534" lon="9.942001941165888"><ele>546.8</ele><time>2026-05-02T12:41:19Z</time></trkpt><trkpt lat="44.75930521632405" lon="9.941888705938773"><ele>547.4</ele><time>2026-05-02T12:41:20Z</time></trkpt><trkpt lat="44.7593600978782" lon="9.941771133593747"><ele>548.0</ele><time>2026-05-02T12:41:21Z</time></trkpt><trkpt lat="44.75941526198022" lon="9.941652499035706"><ele>544.8</ele><time>2026-05-02T12:41:22Z</time></trkpt><trkpt lat="44.75947294662129" lon="9.941532857006788"><ele>541.5999999999999</ele><time>2026-05-02T12:41:23Z</time></trkpt><trkpt lat="44.75953223805686" lon="9.941410980220397"><ele>538.4000000000001</ele><time>2026-05-02T12:41:24Z</time></trkpt><trkpt lat="44.75959078244329" lon="9.941287675146281"><ele>535.2</ele><time>2026-05-02T12:41:25Z</time></trkpt><trkpt lat="44.75965376629498" lon="9.941169576173062"><ele>532.0</ele><time>2026-05-02T12:41:26Z</time></trkpt><trkpt lat="44.75972324671399" lon="9.941051753269683"><ele>532.0</ele><time>2026-05-02T12:41:27Z</time></trkpt><trkpt lat="44.7597949616" lon="9.940937849452716"><ele>532.0</ele><time>2026-05-02T12:41:28Z</time></trkpt><trkpt lat="44.759870084071075" lon="9.940826041162818"><ele>532.0</ele><time>2026-05-02T12:41:29Z</time></trkpt><trkpt lat="44.75994489719741" lon="9.94071627455484"><ele>532.0</ele><time>2026-05-02T12:41:30Z</time></trkpt><trkpt lat="44.76001550089622" lon="9.940608089564137"><ele>532.0</ele><time>2026-05-02T12:41:31Z</time></trkpt><trkpt lat="44.760085128336335" lon="9.940499270474662"><ele>530.8000000000001</ele><time>2026-05-02T12:41:32Z</time></trkpt><trkpt lat="44.760163411894965" lon="9.940399429869608"><ele>529.6</ele><time>2026-05-02T12:41:33Z</time></trkpt><trkpt lat="44.76025528768946" lon="9.94033087263343"><ele>528.4000000000001</ele><time>2026-05-02T12:41:34Z</time></trkpt><trkpt lat="44.760361235505044" lon="9.940296574192798"><ele>527.2</ele><time>2026-05-02T12:41:35Z</time></trkpt><trkpt lat="44.76046656201929" lon="9.940260279060386"><ele>526.0</ele><time>2026-05-02T12:41:36Z</time></trkpt><trkpt lat="44.760571264101486" lon="9.940218830938159"><ele>526.0</ele><time>2026-05-02T12:41:37Z</time></trkpt><trkpt lat="44.76067612736621" lon="9.940169785573568"><ele>526.0</ele><time>2026-05-02T12:41:38Z</time></trkpt><trkpt lat="44.76078114978387" lon="9.940122757203323"><ele>526.0</ele><time>2026-05-02T12:41:39Z</time></trkpt><trkpt lat="44.76087190297738" lon="9.940089993957516"><ele>526.0</ele><time>2026-05-02T12:41:39.999Z</time></trkpt><trkpt lat="44.76093819780485" lon="9.940093290101913"><ele>526.0</ele><time>2026-05-02T12:41:40.999Z</time></trkpt><trkpt lat="44.761015116717665" lon="9.940217922628845"><ele>526.0</ele><time>2026-05-02T12:41:42.999Z</time></trkpt><trkpt lat="44.76096899866147" lon="9.94031595056053"><ele>526.0</ele><time>2026-05-02T12:41:43.999Z</time></trkpt><trkpt lat="44.76092114770994" lon="9.940388711816913"><ele>526.0</ele><time>2026-05-02T12:41:44.999Z</time></trkpt><trkpt lat="44.760865593248255" lon="9.940473914020814"><ele>526.0</ele><time>2026-05-02T12:41:45.999Z</time></trkpt><trkpt lat="44.760824091231925" lon="9.940575328582907"><ele>526.0</ele><time>2026-05-02T12:41:46.999Z</time></trkpt><trkpt lat="44.760767343045394" lon="9.94066144261739"><ele>526.0</ele><time>2026-05-02T12:41:47.999Z</time></trkpt><trkpt lat="44.7607093462741" lon="9.940747571814534"><ele>526.0</ele><time>2026-05-02T12:41:48.999Z</time></trkpt><trkpt lat="44.76064920784106" lon="9.940838204419745"><ele>526.0</ele><time>2026-05-02T12:41:49.999Z</time></trkpt><trkpt lat="44.76059303141475" lon="9.940942532311425"><ele>526.0</ele><time>2026-05-02T12:41:50.999Z</time></trkpt><trkpt lat="44.76054068346561" lon="9.941053654929735"><ele>526.0</ele><time>2026-05-02T12:41:51.999Z</time></trkpt><trkpt lat="44.760494574412895" lon="9.94117196822719"><ele>526.0</ele><time>2026-05-02T12:41:52.999Z</time></trkpt><trkpt lat="44.7604572032296" lon="9.941299325310089"><ele>523.8</ele><time>2026-05-02T12:41:53.999Z</time></trkpt><trkpt lat="44.76042632437816" lon="9.94143200023003"><ele>521.6</ele><time>2026-05-02T12:41:54.999Z</time></trkpt><trkpt lat="44.76039270661227" lon="9.941567810605699"><ele>519.4</ele><time>2026-05-02T12:41:55.999Z</time></trkpt><trkpt lat="44.76036351050674" lon="9.941705082065752"><ele>517.2</ele><time>2026-05-02T12:41:56.999Z</time></trkpt><trkpt lat="44.760337446819754" lon="9.941844977973224"><ele>515.0</ele><time>2026-05-02T12:41:57.999Z</time></trkpt><trkpt lat="44.76031450880246" lon="9.941986944437458"><ele>515.0</ele><time>2026-05-02T12:41:58.999Z</time></trkpt><trkpt lat="44.76029163636768" lon="9.942132941995485"><ele>515.0</ele><time>2026-05-02T12:41:59.999Z</time></trkpt><trkpt lat="44.76026895486857" lon="9.942278070919976"><ele>515.0</ele><time>2026-05-02T12:42:00.999Z</time></trkpt><trkpt lat="44.760251560828245" lon="9.942422488091172"><ele>515.0</ele><time>2026-05-02T12:42:01.999Z</time></trkpt><trkpt lat="44.76025344951278" lon="9.942570088456122"><ele>515.0</ele><time>2026-05-02T12:42:02.999Z</time></trkpt><trkpt lat="44.7602883232975" lon="9.94271214472786"><ele>515.0</ele><time>2026-05-02T12:42:03.999Z</time></trkpt><trkpt lat="44.76035085026593" lon="9.94283506959217"><ele>515.0</ele><time>2026-05-02T12:42:04.999Z</time></trkpt><trkpt lat="44.760418386288414" lon="9.94294942243756"><ele>515.0</ele><time>2026-05-02T12:42:05.999Z</time></trkpt><trkpt lat="44.76048305426014" lon="9.94306755119753"><ele>515.0</ele><time>2026-05-02T12:42:06.999Z</time></trkpt><trkpt lat="44.76053212835257" lon="9.943200634488617"><ele>515.0</ele><time>2026-05-02T12:42:07.999Z</time></trkpt><trkpt lat="44.76056714362499" lon="9.94334480767172"><ele>514.0</ele><time>2026-05-02T12:42:08.999Z</time></trkpt><trkpt lat="44.76059840687343" lon="9.943493313276267"><ele>513.0</ele><time>2026-05-02T12:42:09.999Z</time></trkpt><trkpt lat="44.76063071323354" lon="9.943644791194624"><ele>512.0</ele><time>2026-05-02T12:42:10.999Z</time></trkpt><trkpt lat="44.76066534757451" lon="9.943795240473309"><ele>511.0</ele><time>2026-05-02T12:42:11.999Z</time></trkpt><trkpt lat="44.76070999535348" lon="9.943934580433233"><ele>510.0</ele><time>2026-05-02T12:42:12.999Z</time></trkpt><trkpt lat="44.7607684951501" lon="9.944044162523976"><ele>510.0</ele><time>2026-05-02T12:42:13.999Z</time></trkpt><trkpt lat="44.76083893031529" lon="9.944090868515632"><ele>510.0</ele><time>2026-05-02T12:42:14.999Z</time></trkpt><trkpt lat="44.760909284545335" lon="9.94408474501699"><ele>510.0</ele><time>2026-05-02T12:42:15.999Z</time></trkpt><trkpt lat="44.76096863388236" lon="9.944013110102661"><ele>510.0</ele><time>2026-05-02T12:42:16.999Z</time></trkpt><trkpt lat="44.76099218162521" lon="9.943895223041844"><ele>510.0</ele><time>2026-05-02T12:42:17.999Z</time></trkpt><trkpt lat="44.761016067715204" lon="9.943794917360572"><ele>510.0</ele><time>2026-05-02T12:42:18.999Z</time></trkpt><trkpt lat="44.761041033835134" lon="9.94369307264109"><ele>510.8333333333333</ele><time>2026-05-02T12:42:19.999Z</time></trkpt><trkpt lat="44.76105646923019" lon="9.943581247280452"><ele>511.66666666666663</ele><time>2026-05-02T12:42:20.999Z</time></trkpt><trkpt lat="44.761061559003835" lon="9.943464978425503"><ele>512.5</ele><time>2026-05-02T12:42:21.999Z</time></trkpt><trkpt lat="44.76105593014147" lon="9.943344687597484"><ele>513.3333333333333</ele><time>2026-05-02T12:42:22.999Z</time></trkpt><trkpt lat="44.76103453553354" lon="9.943225007073893"><ele>514.1666666666666</ele><time>2026-05-02T12:42:23.999Z</time></trkpt><trkpt lat="44.76099989443314" lon="9.943108766012879"><ele>515.0</ele><time>2026-05-02T12:42:24.999Z</time></trkpt><trkpt lat="44.760967523108796" lon="9.942988452353118"><ele>515.0</ele><time>2026-05-02T12:42:25.999Z</time></trkpt><trkpt lat="44.760958437181415" lon="9.942860477637986"><ele>515.0</ele><time>2026-05-02T12:42:26.999Z</time></trkpt><trkpt lat="44.7609649529866" lon="9.942730719652335"><ele>515.0</ele><time>2026-05-02T12:42:27.999Z</time></trkpt><trkpt lat="44.76098915650952" lon="9.94260671248841"><ele>515.0</ele><time>2026-05-02T12:42:28.999Z</time></trkpt><trkpt lat="44.76104090611324" lon="9.942484917251091"><ele>515.0</ele><time>2026-05-02T12:42:29.999Z</time></trkpt><trkpt lat="44.76109915692443" lon="9.942371238587732"><ele>511.0</ele><time>2026-05-02T12:42:30.999Z</time></trkpt><trkpt lat="44.76116093632659" lon="9.942258104239434"><ele>507.0</ele><time>2026-05-02T12:42:31.999Z</time></trkpt><trkpt lat="44.761224531657135" lon="9.942143394494003"><ele>503.0</ele><time>2026-05-02T12:42:32.999Z</time></trkpt><trkpt lat="44.76129163017653" lon="9.942023901729133"><ele>499.0</ele><time>2026-05-02T12:42:33.999Z</time></trkpt><trkpt lat="44.761362977446744" lon="9.941906881598147"><ele>495.0</ele><time>2026-05-02T12:42:34.999Z</time></trkpt><trkpt lat="44.761455048819556" lon="9.941816550830818"><ele>495.0</ele><time>2026-05-02T12:42:35.998Z</time></trkpt><trkpt lat="44.761558638724495" lon="9.941750029858584"><ele>495.0</ele><time>2026-05-02T12:42:36.998Z</time></trkpt><trkpt lat="44.76166068180557" lon="9.941699651897638"><ele>495.0</ele><time>2026-05-02T12:42:37.998Z</time></trkpt><trkpt lat="44.76176518482499" lon="9.941679507128834"><ele>495.0</ele><time>2026-05-02T12:42:38.998Z</time></trkpt><trkpt lat="44.76187449437441" lon="9.941684024797787"><ele>495.0</ele><time>2026-05-02T12:42:39.998Z</time></trkpt><trkpt lat="44.76198433360771" lon="9.941698189567019"><ele>494.0</ele><time>2026-05-02T12:42:40.998Z</time></trkpt><trkpt lat="44.76209489357935" lon="9.941698685706868"><ele>493.0</ele><time>2026-05-02T12:42:41.998Z</time></trkpt><trkpt lat="44.762200677411755" lon="9.94164167698899"><ele>492.0</ele><time>2026-05-02T12:42:42.998Z</time></trkpt><trkpt lat="44.76229371354362" lon="9.941544538947344"><ele>491.0</ele><time>2026-05-02T12:42:43.998Z</time></trkpt><trkpt lat="44.762368983037646" lon="9.941422346554557"><ele>491.0</ele><time>2026-05-02T12:42:44.998Z</time></trkpt><trkpt lat="44.76243832687233" lon="9.941294844045569"><ele>491.0</ele><time>2026-05-02T12:42:45.998Z</time></trkpt><trkpt lat="44.762507390017824" lon="9.94117375551618"><ele>491.0</ele><time>2026-05-02T12:42:46.998Z</time></trkpt><trkpt lat="44.76257901115003" lon="9.941083439246215"><ele>491.0</ele><time>2026-05-02T12:42:47.998Z</time></trkpt><trkpt lat="44.76267241057272" lon="9.941045316005795"><ele>491.0</ele><time>2026-05-02T12:42:48.998Z</time></trkpt><trkpt lat="44.762773316584635" lon="9.941069703898986"><ele>488.4</ele><time>2026-05-02T12:42:49.998Z</time></trkpt><trkpt lat="44.76286364026021" lon="9.941122472647878"><ele>485.8</ele><time>2026-05-02T12:42:50.998Z</time></trkpt><trkpt lat="44.7629527225701" lon="9.941181437020038"><ele>483.19999999999993</ele><time>2026-05-02T12:42:51.998Z</time></trkpt><trkpt lat="44.763049542619356" lon="9.941211060870561"><ele>480.59999999999997</ele><time>2026-05-02T12:42:52.998Z</time></trkpt><trkpt lat="44.76315048393279" lon="9.941210420007389"><ele>478.0</ele><time>2026-05-02T12:42:53.998Z</time></trkpt><trkpt lat="44.763252272069884" lon="9.941180034769076"><ele>478.0</ele><time>2026-05-02T12:42:54.998Z</time></trkpt><trkpt lat="44.763350068185204" lon="9.941118683247446"><ele>478.0</ele><time>2026-05-02T12:42:55.998Z</time></trkpt><trkpt lat="44.763445395258394" lon="9.941043275197115"><ele>478.0</ele><time>2026-05-02T12:42:56.998Z</time></trkpt><trkpt lat="44.763544909186166" lon="9.940980221603658"><ele>478.0</ele><time>2026-05-02T12:42:57.998Z</time></trkpt><trkpt lat="44.7609649529866" lon="9.942730719652335"><ele>481.4</ele><time>2026-05-02T12:42:27.999Z</time></trkpt><trkpt lat="44.76098915650952" lon="9.94260671248841"><ele>484.79999999999995</ele><time>2026-05-02T12:42:28.999Z</time></trkpt><trkpt lat="44.76104090611324" lon="9.942484917251091"><ele>488.2</ele><time>2026-05-02T12:42:29.999Z</time></trkpt><trkpt lat="44.76109915692443" lon="9.942371238587732"><ele>491.6</ele><time>2026-05-02T12:42:30.999Z</time></trkpt><trkpt lat="44.76116093632659" lon="9.942258104239434"><ele>495.0</ele><time>2026-05-02T12:42:31.999Z</time></trkpt><trkpt lat="44.761224531657135" lon="9.942143394494003"><ele>495.0</ele><time>2026-05-02T12:42:32.999Z</time></trkpt><trkpt lat="44.76129163017653" lon="9.942023901729133"><ele>495.0</ele><time>2026-05-02T12:42:33.999Z</time></trkpt><trkpt lat="44.761362977446744" lon="9.941906881598147"><ele>495.0</ele><time>2026-05-02T12:42:34.999Z</time></trkpt><trkpt lat="44.761455048819556" lon="9.941816550830818"><ele>495.0</ele><time>2026-05-02T12:42:35.998Z</time></trkpt><trkpt lat="44.761558638724495" lon="9.941750029858584"><ele>495.0</ele><time>2026-05-02T12:42:36.998Z</time></trkpt><trkpt lat="44.76166068180557" lon="9.941699651897638"><ele>494.2</ele><time>2026-05-02T12:42:37.998Z</time></trkpt><trkpt lat="44.76176518482499" lon="9.941679507128834"><ele>493.4</ele><time>2026-05-02T12:42:38.998Z</time></trkpt><trkpt lat="44.76187449437441" lon="9.941684024797787"><ele>492.6</ele><time>2026-05-02T12:42:39.998Z</time></trkpt><trkpt lat="44.76198433360771" lon="9.941698189567019"><ele>491.8</ele><time>2026-05-02T12:42:40.998Z</time></trkpt><trkpt lat="44.76209489357935" lon="9.941698685706868"><ele>491.0</ele><time>2026-05-02T12:42:41.998Z</time></trkpt><trkpt lat="44.762200677411755" lon="9.94164167698899"><ele>491.0</ele><time>2026-05-02T12:42:42.998Z</time></trkpt><trkpt lat="44.76229371354362" lon="9.941544538947344"><ele>491.0</ele><time>2026-05-02T12:42:43.998Z</time></trkpt><trkpt lat="44.762368983037646" lon="9.941422346554557"><ele>491.0</ele><time>2026-05-02T12:42:44.998Z</time></trkpt><trkpt lat="44.76243832687233" lon="9.941294844045569"><ele>491.0</ele><time>2026-05-02T12:42:45.998Z</time></trkpt><trkpt lat="44.762507390017824" lon="9.94117375551618"><ele>491.0</ele><time>2026-05-02T12:42:46.998Z</time></trkpt><trkpt lat="44.76257901115003" lon="9.941083439246215"><ele>491.0</ele><time>2026-05-02T12:42:47.998Z</time></trkpt><trkpt lat="44.76267241057272" lon="9.941045316005795"><ele>491.0</ele><time>2026-05-02T12:42:48.998Z</time></trkpt><trkpt lat="44.762773316584635" lon="9.941069703898986"><ele>491.0</ele><time>2026-05-02T12:42:49.998Z</time></trkpt><trkpt lat="44.76286364026021" lon="9.941122472647878"><ele>491.0</ele><time>2026-05-02T12:42:50.998Z</time></trkpt><trkpt lat="44.7629527225701" lon="9.941181437020038"><ele>488.4</ele><time>2026-05-02T12:42:51.998Z</time></trkpt><trkpt lat="44.763049542619356" lon="9.941211060870561"><ele>485.8</ele><time>2026-05-02T12:42:52.998Z</time></trkpt><trkpt lat="44.76315048393279" lon="9.941210420007389"><ele>483.19999999999993</ele><time>2026-05-02T12:42:53.998Z</time></trkpt><trkpt lat="44.763252272069884" lon="9.941180034769076"><ele>480.59999999999997</ele><time>2026-05-02T12:42:54.998Z</time></trkpt><trkpt lat="44.763350068185204" lon="9.941118683247446"><ele>478.0</ele><time>2026-05-02T12:42:55.998Z</time></trkpt><trkpt lat="44.763445395258394" lon="9.941043275197115"><ele>476.59999999999997</ele><time>2026-05-02T12:42:56.998Z</time></trkpt><trkpt lat="44.763544909186166" lon="9.940980221603658"><ele>475.19999999999993</ele><time>2026-05-02T12:42:57.998Z</time></trkpt><trkpt lat="44.763640933162456" lon="9.940904988670455"><ele>473.8</ele><time>2026-05-02T12:42:58.998Z</time></trkpt><trkpt lat="44.763717992929855" lon="9.940802368975937"><ele>472.4</ele><time>2026-05-02T12:42:59.998Z</time></trkpt><trkpt lat="44.763778074712846" lon="9.940689721902997"><ele>471.0</ele><time>2026-05-02T12:43:00.998Z</time></trkpt><trkpt lat="44.76382079696937" lon="9.940577024464416"><ele>471.0</ele><time>2026-05-02T12:43:01.998Z</time></trkpt><trkpt lat="44.763860756638636" lon="9.940502201677013"><ele>471.0</ele><time>2026-05-02T12:43:02.998Z</time></trkpt><trkpt lat="44.76396048981803" lon="9.940493290803635"><ele>471.0</ele><time>2026-05-02T12:43:04.998Z</time></trkpt><trkpt lat="44.76398357371131" lon="9.940588124324673"><ele>471.0</ele><time>2026-05-02T12:43:05.998Z</time></trkpt><trkpt lat="44.763936958746186" lon="9.940679568953952"><ele>471.0</ele><time>2026-05-02T12:43:06.998Z</time></trkpt><trkpt lat="44.7638810641035" lon="9.94085061431455"><ele>469.3333333333333</ele><time>2026-05-02T12:43:08.998Z</time></trkpt><trkpt lat="44.76384368440526" lon="9.940939460069151"><ele>467.66666666666663</ele><time>2026-05-02T12:43:09.998Z</time></trkpt><trkpt lat="44.76379692813911" lon="9.941027957254946"><ele>466.0</ele><time>2026-05-02T12:43:10.998Z</time></trkpt><trkpt lat="44.7637444239846" lon="9.941123052021245"><ele>464.3333333333333</ele><time>2026-05-02T12:43:11.998Z</time></trkpt><trkpt lat="44.763688195288154" lon="9.941222313669488"><ele>462.66666666666663</ele><time>2026-05-02T12:43:12.998Z</time></trkpt><trkpt lat="44.76363208418321" lon="9.94132736170752"><ele>461.0</ele><time>2026-05-02T12:43:13.998Z</time></trkpt><trkpt lat="44.763573265635934" lon="9.941437478446423"><ele>462.0</ele><time>2026-05-02T12:43:14.998Z</time></trkpt><trkpt lat="44.763512678320446" lon="9.941552226398645"><ele>463.0</ele><time>2026-05-02T12:43:15.998Z</time></trkpt><trkpt lat="44.763453070505996" lon="9.941670684948408"><ele>464.0</ele><time>2026-05-02T12:43:16.998Z</time></trkpt><trkpt lat="44.76339097516381" lon="9.941794288774101"><ele>465.0</ele><time>2026-05-02T12:43:17.998Z</time></trkpt><trkpt lat="44.76332820750683" lon="9.941919876386876"><ele>466.0</ele><time>2026-05-02T12:43:18.998Z</time></trkpt><trkpt lat="44.76326513963766" lon="9.942053872786772"><ele>466.0</ele><time>2026-05-02T12:43:20Z</time></trkpt><trkpt lat="44.763217182929644" lon="9.942193761545358"><ele>466.0</ele><time>2026-05-02T12:43:21Z</time></trkpt><trkpt lat="44.7631695103256" lon="9.942320942712392"><ele>466.0</ele><time>2026-05-02T12:43:22Z</time></trkpt><trkpt lat="44.76312261866803" lon="9.942440258373306"><ele>466.0</ele><time>2026-05-02T12:43:23Z</time></trkpt><trkpt lat="44.76309443799602" lon="9.942556644884482"><ele>466.0</ele><time>2026-05-02T12:43:24Z</time></trkpt><trkpt lat="44.76308925979939" lon="9.942670556558815"><ele>465.6</ele><time>2026-05-02T12:43:25Z</time></trkpt><trkpt lat="44.76314176199129" lon="9.942770923360518"><ele>465.20000000000005</ele><time>2026-05-02T12:43:26Z</time></trkpt><trkpt lat="44.76324375193459" lon="9.942796212129577"><ele>464.79999999999995</ele><time>2026-05-02T12:43:27Z</time></trkpt><trkpt lat="44.763333187240654" lon="9.942794009799224"><ele>464.4</ele><time>2026-05-02T12:43:28Z</time></trkpt><trkpt lat="44.7634236480003" lon="9.942759498792762"><ele>464.0</ele><time>2026-05-02T12:43:29Z</time></trkpt><trkpt lat="44.763518140018554" lon="9.942717524879715"><ele>461.75</ele><time>2026-05-02T12:43:30Z</time></trkpt><trkpt lat="44.76361847458403" lon="9.942668230537231"><ele>459.5</ele><time>2026-05-02T12:43:31Z</time></trkpt><trkpt lat="44.763719109444665" lon="9.94260452407012"><ele>457.25</ele><time>2026-05-02T12:43:32Z</time></trkpt><trkpt lat="44.76381800457149" lon="9.94251769756668"><ele>455.0</ele><time>2026-05-02T12:43:33Z</time></trkpt><trkpt lat="44.76391308019509" lon="9.942416011877917"><ele>455.0</ele><time>2026-05-02T12:43:34Z</time></trkpt><trkpt lat="44.76400806365877" lon="9.942307323901545"><ele>455.0</ele><time>2026-05-02T12:43:35Z</time></trkpt><trkpt lat="44.76410763332641" lon="9.94220679019943"><ele>455.0</ele><time>2026-05-02T12:43:36Z</time></trkpt><trkpt lat="44.764213899584554" lon="9.942116821399674"><ele>455.0</ele><time>2026-05-02T12:43:37Z</time></trkpt><trkpt lat="44.76432642386762" lon="9.942032614036977"><ele>452.25</ele><time>2026-05-02T12:43:38Z</time></trkpt><trkpt lat="44.76444335412285" lon="9.941947926396635"><ele>449.5</ele><time>2026-05-02T12:43:38.999Z</time></trkpt><trkpt lat="44.76456305096579" lon="9.941860550223902"><ele>446.75</ele><time>2026-05-02T12:43:39.999Z</time></trkpt><trkpt lat="44.76468043016666" lon="9.941768666564062"><ele>444.0</ele><time>2026-05-02T12:43:40.999Z</time></trkpt><trkpt lat="44.76479786514693" lon="9.941681959855384"><ele>444.0</ele><time>2026-05-02T12:43:41.999Z</time></trkpt><trkpt lat="44.76491703408314" lon="9.941595374331403"><ele>444.0</ele><time>2026-05-02T12:43:42.999Z</time></trkpt><trkpt lat="44.765036260182576" lon="9.941502797831884"><ele>444.0</ele><time>2026-05-02T12:43:43.999Z</time></trkpt><trkpt lat="44.7651561941556" lon="9.941409351157075"><ele>444.0</ele><time>2026-05-02T12:43:44.999Z</time></trkpt><trkpt lat="44.76527621123973" lon="9.94131744207024"><ele>441.0</ele><time>2026-05-02T12:43:45.999Z</time></trkpt><trkpt lat="44.76539569957212" lon="9.941224697116906"><ele>438.0</ele><time>2026-05-02T12:43:46.999Z</time></trkpt><trkpt lat="44.76551715215995" lon="9.94113242407008"><ele>435.0</ele><time>2026-05-02T12:43:47.999Z</time></trkpt><trkpt lat="44.76564250514143" lon="9.941043981974767"><ele>432.0</ele><time>2026-05-02T12:43:48.999Z</time></trkpt><trkpt lat="44.76577187712558" lon="9.94096344775416"><ele>432.0</ele><time>2026-05-02T12:43:49.999Z</time></trkpt><trkpt lat="44.76590859793007" lon="9.940904120449181"><ele>432.0</ele><time>2026-05-02T12:43:50.999Z</time></trkpt><trkpt lat="44.76604411490281" lon="9.940848252777384"><ele>432.0</ele><time>2026-05-02T12:43:51.999Z</time></trkpt><trkpt lat="44.766180058241865" lon="9.940794694067035"><ele>432.0</ele><time>2026-05-02T12:43:52.999Z</time></trkpt><trkpt lat="44.76631487872516" lon="9.940741215875919"><ele>432.0</ele><time>2026-05-02T12:43:53.999Z</time></trkpt><trkpt lat="44.766449773755696" lon="9.940680263804992"><ele>432.0</ele><time>2026-05-02T12:43:54.999Z</time></trkpt><trkpt lat="44.76658477534695" lon="9.940622061717955"><ele>432.0</ele><time>2026-05-02T12:43:55.999Z</time></trkpt><trkpt lat="44.76672265164879" lon="9.940579400577512"><ele>432.0</ele><time>2026-05-02T12:43:56.999Z</time></trkpt><trkpt lat="44.76686158644066" lon="9.940539672486164"><ele>431.25</ele><time>2026-05-02T12:43:57.999Z</time></trkpt><trkpt lat="44.76700322156174" lon="9.940506881796074"><ele>430.5</ele><time>2026-05-02T12:43:58.999Z</time></trkpt><trkpt lat="44.767143111007385" lon="9.94047646987426"><ele>429.75</ele><time>2026-05-02T12:43:59.999Z</time></trkpt><trkpt lat="44.767281377146155" lon="9.940446844507488"><ele>429.0</ele><time>2026-05-02T12:44:00.999Z</time></trkpt><trkpt lat="44.76741880941529" lon="9.940416669994743"><ele>429.0</ele><time>2026-05-02T12:44:01.999Z</time></trkpt><trkpt lat="44.767555466852656" lon="9.94038196795106"><ele>429.0</ele><time>2026-05-02T12:44:02.999Z</time></trkpt><trkpt lat="44.7676926358316" lon="9.940352178393077"><ele>429.0</ele><time>2026-05-02T12:44:03.999Z</time></trkpt><trkpt lat="44.76782991894723" lon="9.94034461376719"><ele>429.0</ele><time>2026-05-02T12:44:04.999Z</time></trkpt><trkpt lat="44.7679658507288" lon="9.94037480129723"><ele>428.0</ele><time>2026-05-02T12:44:05.999Z</time></trkpt><trkpt lat="44.768095220977145" lon="9.940423905507597"><ele>427.0</ele><time>2026-05-02T12:44:06.999Z</time></trkpt><trkpt lat="44.76821342158397" lon="9.940487889880444"><ele>426.0</ele><time>2026-05-02T12:44:07.999Z</time></trkpt><trkpt lat="44.76832129571258" lon="9.940570572522315"><ele>425.0</ele><time>2026-05-02T12:44:08.999Z</time></trkpt><trkpt lat="44.768413281442136" lon="9.94068109718817"><ele>425.0</ele><time>2026-05-02T12:44:09.999Z</time></trkpt><trkpt lat="44.768472461663244" lon="9.940829124885012"><ele>425.0</ele><time>2026-05-02T12:44:10.999Z</time></trkpt><trkpt lat="44.7685117397526" lon="9.940984024252085"><ele>425.0</ele><time>2026-05-02T12:44:11.999Z</time></trkpt><trkpt lat="44.76854485081901" lon="9.941145464328528"><ele>425.0</ele><time>2026-05-02T12:44:12.999Z</time></trkpt><trkpt lat="44.76858488606371" lon="9.941312774139842"><ele>422.5</ele><time>2026-05-02T12:44:13.999Z</time></trkpt><trkpt lat="44.76865025363743" lon="9.941463105100608"><ele>420.0</ele><time>2026-05-02T12:44:14.999Z</time></trkpt><trkpt lat="44.76875986420879" lon="9.941559960577976"><ele>417.5</ele><time>2026-05-02T12:44:15.999Z</time></trkpt><trkpt lat="44.76887238373724" lon="9.941632999020666"><ele>415.0</ele><time>2026-05-02T12:44:16.999Z</time></trkpt><trkpt lat="44.76898681601831" lon="9.941696030293976"><ele>414.0</ele><time>2026-05-02T12:44:17.999Z</time></trkpt><trkpt lat="44.76910512431125" lon="9.941750544062568"><ele>413.0</ele><time>2026-05-02T12:44:18.999Z</time></trkpt><trkpt lat="44.76922853828742" lon="9.941784792289123"><ele>412.0</ele><time>2026-05-02T12:44:19.999Z</time></trkpt><trkpt lat="44.76935311499312" lon="9.941807187360562"><ele>411.0</ele><time>2026-05-02T12:44:20.999Z</time></trkpt><trkpt lat="44.76947625044584" lon="9.941795677594317"><ele>411.25</ele><time>2026-05-02T12:44:21.999Z</time></trkpt><trkpt lat="44.769596160528884" lon="9.941745489802337"><ele>411.5</ele><time>2026-05-02T12:44:22.999Z</time></trkpt><trkpt lat="44.76970626094293" lon="9.941657266733221"><ele>411.75</ele><time>2026-05-02T12:44:23.999Z</time></trkpt><trkpt lat="44.76980568963057" lon="9.941546166089644"><ele>412.0</ele><time>2026-05-02T12:44:24.999Z</time></trkpt><trkpt lat="44.7698971358249" lon="9.941424545549742"><ele>412.0</ele><time>2026-05-02T12:44:25.999Z</time></trkpt><trkpt lat="44.769977408993824" lon="9.94128782354393"><ele>412.0</ele><time>2026-05-02T12:44:26.999Z</time></trkpt><trkpt lat="44.77004032695533" lon="9.941135068598127"><ele>412.0</ele><time>2026-05-02T12:44:27.999Z</time></trkpt><trkpt lat="44.770101229656156" lon="9.940977404293642"><ele>412.0</ele><time>2026-05-02T12:44:28.999Z</time></trkpt><trkpt lat="44.7701593052956" lon="9.94082224406623"><ele>407.25</ele><time>2026-05-02T12:44:29.998Z</time></trkpt><trkpt lat="44.770214576344664" lon="9.940671687265235"><ele>402.5</ele><time>2026-05-02T12:44:30.998Z</time></trkpt><trkpt lat="44.77027972365735" lon="9.940544426743614"><ele>397.75</ele><time>2026-05-02T12:44:31.998Z</time></trkpt><trkpt lat="44.77036517227848" lon="9.94044926801164"><ele>393.0</ele><time>2026-05-02T12:44:32.998Z</time></trkpt><trkpt lat="44.77046976351851" lon="9.94038980710078"><ele>393.0</ele><time>2026-05-02T12:44:33.998Z</time></trkpt><trkpt lat="44.77058659046902" lon="9.940354125477183"><ele>393.0</ele><time>2026-05-02T12:44:34.998Z</time></trkpt><trkpt lat="44.77070329365057" lon="9.940308182976903"><ele>393.0</ele><time>2026-05-02T12:44:35.998Z</time></trkpt><trkpt lat="44.77081293571338" lon="9.940225277431821"><ele>393.0</ele><time>2026-05-02T12:44:36.998Z</time></trkpt><trkpt lat="44.77091613373555" lon="9.940138618341088"><ele>393.0</ele><time>2026-05-02T12:44:37.998Z</time></trkpt><trkpt lat="44.77102186456732" lon="9.940056094456423"><ele>393.0</ele><time>2026-05-02T12:44:38.998Z</time></trkpt><trkpt lat="44.77113077813546" lon="9.93997786713631"><ele>393.0</ele><time>2026-05-02T12:44:39.998Z</time></trkpt><trkpt lat="44.771243547094045" lon="9.939905587471682"><ele>393.0</ele><time>2026-05-02T12:44:40.998Z</time></trkpt><trkpt lat="44.77135475603507" lon="9.939845658067238"><ele>390.0</ele><time>2026-05-02T12:44:41.998Z</time></trkpt><trkpt lat="44.771459356520204" lon="9.939798960938656"><ele>387.0</ele><time>2026-05-02T12:44:42.998Z</time></trkpt><trkpt lat="44.77155942988405" lon="9.939746387822838"><ele>384.0</ele><time>2026-05-02T12:44:43.998Z</time></trkpt><trkpt lat="44.77165031270621" lon="9.939680452353798"><ele>381.0</ele><time>2026-05-02T12:44:44.998Z</time></trkpt><trkpt lat="44.771727374055196" lon="9.939583057150571"><ele>378.0</ele><time>2026-05-02T12:44:45.998Z</time></trkpt><trkpt lat="44.77177687943144" lon="9.939452284776918"><ele>378.0</ele><time>2026-05-02T12:44:46.998Z</time></trkpt><trkpt lat="44.77180680772216" lon="9.939306252007267"><ele>378.0</ele><time>2026-05-02T12:44:47.998Z</time></trkpt><trkpt lat="44.77181519253618" lon="9.939153794776965"><ele>378.0</ele><time>2026-05-02T12:44:48.998Z</time></trkpt><trkpt lat="44.771795492364845" lon="9.939006619669186"><ele>378.0</ele><time>2026-05-02T12:44:49.998Z</time></trkpt><trkpt lat="44.771753420202565" lon="9.938866147385692"><ele>378.0</ele><time>2026-05-02T12:44:50.998Z</time></trkpt><trkpt lat="44.77168880399186" lon="9.938753693064614"><ele>380.59999999999997</ele><time>2026-05-02T12:44:51.998Z</time></trkpt><trkpt lat="44.77160179428601" lon="9.93865865191789"><ele>383.2</ele><time>2026-05-02T12:44:52.998Z</time></trkpt><trkpt lat="44.77150664417363" lon="9.938586784525922"><ele>385.8</ele><time>2026-05-02T12:44:53.998Z</time></trkpt><trkpt lat="44.771408025014566" lon="9.938530486361055"><ele>388.4</ele><time>2026-05-02T12:44:54.998Z</time></trkpt><trkpt lat="44.77129388319101" lon="9.938548411619346"><ele>391.0</ele><time>2026-05-02T12:44:55.998Z</time></trkpt><trkpt lat="44.77118885687549" lon="9.938588362325262"><ele>391.0</ele><time>2026-05-02T12:44:56.998Z</time></trkpt><trkpt lat="44.77108390211562" lon="9.93863148726705"><ele>391.0</ele><time>2026-05-02T12:44:57.998Z</time></trkpt><trkpt lat="44.77097936714761" lon="9.938660288308386"><ele>391.0</ele><time>2026-05-02T12:44:58.998Z</time></trkpt><trkpt lat="44.77088226014223" lon="9.938697298473246"><ele>391.0</ele><time>2026-05-02T12:44:59.998Z</time></trkpt><trkpt lat="44.77078763053374" lon="9.938672657386213"><ele>391.0</ele><time>2026-05-02T12:45:00.998Z</time></trkpt><trkpt lat="44.77069816826911" lon="9.93860780979596"><ele>390.8</ele><time>2026-05-02T12:45:01.998Z</time></trkpt><trkpt lat="44.77061387859948" lon="9.938519409394477"><ele>390.6</ele><time>2026-05-02T12:45:02.998Z</time></trkpt><trkpt lat="44.770523973221934" lon="9.938429586877128"><ele>390.4</ele><time>2026-05-02T12:45:03.998Z</time></trkpt><trkpt lat="44.770431222049325" lon="9.938346319876773"><ele>390.2</ele><time>2026-05-02T12:45:04.998Z</time></trkpt><trkpt lat="44.770335753397426" lon="9.93826720161922"><ele>390.0</ele><time>2026-05-02T12:45:05.998Z</time></trkpt><trkpt lat="44.77024799740253" lon="9.938170372198925"><ele>387.8</ele><time>2026-05-02T12:45:06.998Z</time></trkpt><trkpt lat="44.770179905522454" lon="9.938057619961329"><ele>385.6</ele><time>2026-05-02T12:45:07.998Z</time></trkpt><trkpt lat="44.77014695642132" lon="9.9379210637447"><ele>383.4</ele><time>2026-05-02T12:45:08.998Z</time></trkpt><trkpt lat="44.77017207502352" lon="9.93778543233042"><ele>381.2</ele><time>2026-05-02T12:45:09.998Z</time></trkpt><trkpt lat="44.770227756958484" lon="9.937679531956269"><ele>379.0</ele><time>2026-05-02T12:45:10.998Z</time></trkpt><trkpt lat="44.770310756421274" lon="9.93762423091995"><ele>379.0</ele><time>2026-05-02T12:45:11.998Z</time></trkpt><trkpt lat="44.77040018099576" lon="9.93761710419895"><ele>379.0</ele><time>2026-05-02T12:45:12.998Z</time></trkpt><trkpt lat="44.770484636783195" lon="9.937659553869624"><ele>379.0</ele><time>2026-05-02T12:45:13.998Z</time></trkpt><trkpt lat="44.77055197977801" lon="9.937750870054424"><ele>379.0</ele><time>2026-05-02T12:45:14.998Z</time></trkpt><trkpt lat="44.77059787375834" lon="9.93787158886393"><ele>379.0</ele><time>2026-05-02T12:45:15.998Z</time></trkpt><trkpt lat="44.770645491236294" lon="9.937973806217395"><ele>379.0</ele><time>2026-05-02T12:45:16.998Z</time></trkpt><trkpt lat="44.77071974741826" lon="9.938055664727527"><ele>379.0</ele><time>2026-05-02T12:45:17.998Z</time></trkpt><trkpt lat="44.77081492782269" lon="9.938090149384529"><ele>379.0</ele><time>2026-05-02T12:45:18.998Z</time></trkpt><trkpt lat="44.77091263797712" lon="9.938062176263125"><ele>379.0</ele><time>2026-05-02T12:45:19.998Z</time></trkpt><trkpt lat="44.770995001484756" lon="9.937986590466778"><ele>379.0</ele><time>2026-05-02T12:45:20.998Z</time></trkpt><trkpt lat="44.77105987114143" lon="9.937892610220807"><ele>378.79999999999995</ele><time>2026-05-02T12:45:21.998Z</time></trkpt><trkpt lat="44.771125103108226" lon="9.937790627016042"><ele>378.59999999999997</ele><time>2026-05-02T12:45:22.998Z</time></trkpt><trkpt lat="44.77120380043864" lon="9.937708427827044"><ele>378.4</ele><time>2026-05-02T12:45:23.998Z</time></trkpt><trkpt lat="44.77129446264035" lon="9.937652564535655"><ele>378.2</ele><time>2026-05-02T12:45:24.998Z</time></trkpt><trkpt lat="44.77139087573402" lon="9.93764172196763"><ele>378.0</ele><time>2026-05-02T12:45:25.999Z</time></trkpt><trkpt lat="44.77148890586687" lon="9.93767193112552"><ele>378.0</ele><time>2026-05-02T12:45:26.999Z</time></trkpt><trkpt lat="44.77157473857457" lon="9.937711545356713"><ele>378.0</ele><time>2026-05-02T12:45:27.999Z</time></trkpt><trkpt lat="44.77165023744361" lon="9.937733815729297"><ele>378.0</ele><time>2026-05-02T12:45:28.999Z</time></trkpt><trkpt lat="44.771715484758325" lon="9.937703709831597"><ele>378.0</ele><time>2026-05-02T12:45:29.999Z</time></trkpt><trkpt lat="44.7717047143177" lon="9.93753451934236"><ele>378.0</ele><time>2026-05-02T12:45:31.999Z</time></trkpt><trkpt lat="44.771653859176745" lon="9.937459003264117"><ele>378.0</ele><time>2026-05-02T12:45:32.999Z</time></trkpt><trkpt lat="44.77157875666554" lon="9.937431179254334"><ele>375.42857142857144</ele><time>2026-05-02T12:45:33.999Z</time></trkpt><trkpt lat="44.77151444712628" lon="9.93741162083141"><ele>372.8571428571429</ele><time>2026-05-02T12:45:34.999Z</time></trkpt><trkpt lat="44.77144775859764" lon="9.937395220891151"><ele>370.2857142857143</ele><time>2026-05-02T12:45:36Z</time></trkpt><trkpt lat="44.77138102101017" lon="9.937377478553845"><ele>367.7142857142857</ele><time>2026-05-02T12:45:36.999Z</time></trkpt><trkpt lat="44.771310986320536" lon="9.937358494292898"><ele>365.14285714285717</ele><time>2026-05-02T12:45:38Z</time></trkpt><trkpt lat="44.77123755605489" lon="9.937361237627163"><ele>362.57142857142856</ele><time>2026-05-02T12:45:39Z</time></trkpt><trkpt lat="44.771173831770284" lon="9.937329789297046"><ele>360.0</ele><time>2026-05-02T12:45:40Z</time></trkpt><trkpt lat="44.77112646788704" lon="9.93719180667414"><ele>360.0</ele><time>2026-05-02T12:45:41.999Z</time></trkpt><trkpt lat="44.77116767129991" lon="9.937117830587294"><ele>360.0</ele><time>2026-05-02T12:45:42.999Z</time></trkpt><trkpt lat="44.771250862079434" lon="9.937095073632356"><ele>360.0</ele><time>2026-05-02T12:45:43.999Z</time></trkpt><trkpt lat="44.77132961192988" lon="9.93714691572321"><ele>360.0</ele><time>2026-05-02T12:45:44.999Z</time></trkpt><trkpt lat="44.77141068329898" lon="9.937163153825255"><ele>360.0</ele><time>2026-05-02T12:45:45.999Z</time></trkpt><trkpt lat="44.77149105826518" lon="9.937195779542927"><ele>360.0</ele><time>2026-05-02T12:45:46.999Z</time></trkpt><trkpt lat="44.771574243625494" lon="9.937226335383638"><ele>360.0</ele><time>2026-05-02T12:45:47.999Z</time></trkpt><trkpt lat="44.771663967011776" lon="9.937254106381117"><ele>360.0</ele><time>2026-05-02T12:45:48.999Z</time></trkpt><trkpt lat="44.771758538606214" lon="9.937278967043424"><ele>360.0</ele><time>2026-05-02T12:45:49.999Z</time></trkpt><trkpt lat="44.77185822830381" lon="9.93730380056147"><ele>360.0</ele><time>2026-05-02T12:45:50.999Z</time></trkpt><trkpt lat="44.77195545230251" lon="9.93733369985346"><ele>360.0</ele><time>2026-05-02T12:45:51.999Z</time></trkpt><trkpt lat="44.77205981451455" lon="9.93736219770077"><ele>358.2</ele><time>2026-05-02T12:45:52.999Z</time></trkpt><trkpt lat="44.77216109656706" lon="9.93739239985595"><ele>356.4</ele><time>2026-05-02T12:45:53.999Z</time></trkpt><trkpt lat="44.77226731558059" lon="9.937419768040442"><ele>354.6</ele><time>2026-05-02T12:45:54.999Z</time></trkpt><trkpt lat="44.772360914437826" lon="9.937475717324235"><ele>352.8</ele><time>2026-05-02T12:45:55.999Z</time></trkpt><trkpt lat="44.77245628326614" lon="9.937519457488357"><ele>351.0</ele><time>2026-05-02T12:45:56.999Z</time></trkpt><trkpt lat="44.772550287456376" lon="9.937539268793952"><ele>348.6666666666667</ele><time>2026-05-02T12:45:57.999Z</time></trkpt><trkpt lat="44.77263155351367" lon="9.93760289230754"><ele>346.3333333333333</ele><time>2026-05-02T12:45:58.999Z</time></trkpt><trkpt lat="44.772706207054895" lon="9.937638233650745"><ele>344.0</ele><time>2026-05-02T12:45:59.999Z</time></trkpt><trkpt lat="44.772780821443334" lon="9.937648429734253"><ele>341.66666666666663</ele><time>2026-05-02T12:46:00.999Z</time></trkpt><trkpt lat="44.7728450178679" lon="9.937642594688427"><ele>339.3333333333333</ele><time>2026-05-02T12:46:01.999Z</time></trkpt><trkpt lat="44.77289959829293" lon="9.937492951009903"><ele>337.0</ele><time>2026-05-02T12:46:03.999Z</time></trkpt><trkpt lat="44.77286170598653" lon="9.937397654174092"><ele>336.8333333333333</ele><time>2026-05-02T12:46:04.999Z</time></trkpt><trkpt lat="44.77279211606996" lon="9.937346424377155"><ele>336.66666666666663</ele><time>2026-05-02T12:46:05.999Z</time></trkpt><trkpt lat="44.77272663067463" lon="9.937301218870601"><ele>336.5</ele><time>2026-05-02T12:46:06.999Z</time></trkpt><trkpt lat="44.77266688974257" lon="9.937245918750774"><ele>336.3333333333333</ele><time>2026-05-02T12:46:07.999Z</time></trkpt><trkpt lat="44.77261499821487" lon="9.937182682343956"><ele>336.1666666666667</ele><time>2026-05-02T12:46:08.999Z</time></trkpt><trkpt lat="44.772559523408766" lon="9.937058767410528"><ele>336.0</ele><time>2026-05-02T12:46:10.999Z</time></trkpt><trkpt lat="44.772641777013234" lon="9.936924312848015"><ele>336.0</ele><time>2026-05-02T12:46:12.999Z</time></trkpt><trkpt lat="44.772715853481905" lon="9.936976398096517"><ele>336.0</ele><time>2026-05-02T12:46:13.999Z</time></trkpt><trkpt lat="44.77277709666879" lon="9.937029578337626"><ele>336.0</ele><time>2026-05-02T12:46:14.999Z</time></trkpt><trkpt lat="44.77292081012964" lon="9.937104564280403"><ele>336.0</ele><time>2026-05-02T12:46:16.999Z</time></trkpt><trkpt lat="44.77299654670659" lon="9.93716254383962"><ele>336.0</ele><time>2026-05-02T12:46:17.999Z</time></trkpt><trkpt lat="44.77306869998935" lon="9.937210308955256"><ele>336.0</ele><time>2026-05-02T12:46:18.999Z</time></trkpt><trkpt lat="44.77313695498152" lon="9.93725093828919"><ele>336.0</ele><time>2026-05-02T12:46:19.999Z</time></trkpt><trkpt lat="44.773204318089" lon="9.937344545714968"><ele>336.0</ele><time>2026-05-02T12:46:21.999Z</time></trkpt><trkpt lat="44.773290084046245" lon="9.937464600430207"><ele>336.0</ele><time>2026-05-02T12:55:38.999Z</time></trkpt><trkpt lat="44.7734449721088" lon="9.937439446096372"><ele>336.0</ele><time>2026-05-02T13:13:56.999Z</time></trkpt><trkpt lat="44.773507753198615" lon="9.937484324461371"><ele>335.8333333333333</ele><time>2026-05-02T13:13:58.999Z</time></trkpt><trkpt lat="44.77359237736139" lon="9.937537307206833"><ele>335.6666666666667</ele><time>2026-05-02T13:14:01.999Z</time></trkpt><trkpt lat="44.77367484808502" lon="9.937588065906269"><ele>335.5</ele><time>2026-05-02T13:14:04.999Z</time></trkpt><trkpt lat="44.77374919126517" lon="9.937648295449668"><ele>335.33333333333337</ele><time>2026-05-02T13:14:07.999Z</time></trkpt><trkpt lat="44.77381679748742" lon="9.937707119447607"><ele>335.1666666666667</ele><time>2026-05-02T13:14:10.999Z</time></trkpt><trkpt lat="44.773834702072" lon="9.937616298835628"><ele>335.0</ele><time>2026-05-02T13:14:13.999Z</time></trkpt><trkpt lat="44.77376770368963" lon="9.937584819262549"><ele>335.0</ele><time>2026-05-02T13:14:16.999Z</time></trkpt><trkpt lat="44.77370349140366" lon="9.937541643431366"><ele>335.0</ele><time>2026-05-02T13:14:19.999Z</time></trkpt><trkpt lat="44.77362948200931" lon="9.937482323758456"><ele>335.0</ele><time>2026-05-02T13:14:22.999Z</time></trkpt><trkpt lat="44.773549603667995" lon="9.937430376212287"><ele>335.0</ele><time>2026-05-02T13:14:25.999Z</time></trkpt><trkpt lat="44.773469864816036" lon="9.937379618439902"><ele>335.0</ele><time>2026-05-02T13:14:28.999Z</time></trkpt><trkpt lat="44.773384978919694" lon="9.937327430649658"><ele>335.0</ele><time>2026-05-02T13:14:31.998Z</time></trkpt><trkpt lat="44.77330889464515" lon="9.93728539223493"><ele>335.1428571428571</ele><time>2026-05-02T13:14:34.998Z</time></trkpt><trkpt lat="44.773234499910984" lon="9.937248902205182"><ele>335.2857142857143</ele><time>2026-05-02T13:14:37.998Z</time></trkpt><trkpt lat="44.773165857969026" lon="9.93721164889536"><ele>335.42857142857144</ele><time>2026-05-02T13:14:40.998Z</time></trkpt><trkpt lat="44.77309933681405" lon="9.937166792490398"><ele>335.57142857142856</ele><time>2026-05-02T13:14:43.998Z</time></trkpt><trkpt lat="44.77303707014577" lon="9.93713298705349"><ele>335.7142857142857</ele><time>2026-05-02T13:14:47Z</time></trkpt><trkpt lat="44.77297685685968" lon="9.937096266724724"><ele>335.85714285714283</ele><time>2026-05-02T13:14:50Z</time></trkpt><trkpt lat="44.772917967256205" lon="9.937059138982553"><ele>336.0</ele><time>2026-05-02T13:14:53Z</time></trkpt><trkpt lat="44.77286004881788" lon="9.9370162332086"><ele>336.0</ele><time>2026-05-02T13:14:56Z</time></trkpt><trkpt lat="44.77280053379065" lon="9.936978333314645"><ele>336.0</ele><time>2026-05-02T13:14:59Z</time></trkpt><trkpt lat="44.77272744171069" lon="9.936932235280695"><ele>336.0</ele><time>2026-05-02T13:15:03Z</time></trkpt><trkpt lat="44.77266430096463" lon="9.93691046254722"><ele>336.0</ele><time>2026-05-02T13:15:07Z</time></trkpt><trkpt lat="44.772601374585726" lon="9.936921837543547"><ele>336.0</ele><time>2026-05-02T13:15:10Z</time></trkpt><trkpt lat="44.77254927769753" lon="9.936973996299878"><ele>336.0</ele><time>2026-05-02T13:15:13Z</time></trkpt><trkpt lat="44.77253079586938" lon="9.937060806053413"><ele>336.0</ele><time>2026-05-02T13:15:16Z</time></trkpt><trkpt lat="44.77254061842612" lon="9.937151733993405"><ele>336.0</ele><time>2026-05-02T13:15:19Z</time></trkpt><trkpt lat="44.77259368506091" lon="9.937223133063904"><ele>336.0</ele><time>2026-05-02T13:15:22Z</time></trkpt><trkpt lat="44.772653752067434" lon="9.937284242074254"><ele>336.0</ele><time>2026-05-02T13:15:25Z</time></trkpt><trkpt lat="44.77271948520653" lon="9.93734298691766"><ele>336.0</ele><time>2026-05-02T13:15:28Z</time></trkpt><trkpt lat="44.77278315604016" lon="9.937398983440453"><ele>336.0</ele><time>2026-05-02T13:15:31Z</time></trkpt><trkpt lat="44.77283508492141" lon="9.937478264866648"><ele>336.0</ele><time>2026-05-02T13:15:35Z</time></trkpt><trkpt lat="44.772817874020866" lon="9.937576881471651"><ele>336.0</ele><time>2026-05-02T13:15:37.999Z</time></trkpt><trkpt lat="44.77274460545225" lon="9.937581731442592"><ele>338.14285714285717</ele><time>2026-05-02T13:15:41.999Z</time></trkpt><trkpt lat="44.77266485625288" lon="9.937549971949208"><ele>340.2857142857143</ele><time>2026-05-02T13:15:45.999Z</time></trkpt><trkpt lat="44.77259490467959" lon="9.937514883686378"><ele>342.42857142857144</ele><time>2026-05-02T13:15:48.999Z</time></trkpt><trkpt lat="44.77252666820596" lon="9.937480672792207"><ele>344.57142857142856</ele><time>2026-05-02T13:15:52.999Z</time></trkpt><trkpt lat="44.77246544623142" lon="9.937449567112736"><ele>346.7142857142857</ele><time>2026-05-02T13:15:55.999Z</time></trkpt><trkpt lat="44.772404888595915" lon="9.937420477457044"><ele>348.8571428571429</ele><time>2026-05-02T13:15:58.999Z</time></trkpt><trkpt lat="44.77233248559773" lon="9.937390352949032"><ele>351.0</ele><time>2026-05-02T13:16:01.999Z</time></trkpt><trkpt lat="44.77226318424963" lon="9.937364173614862"><ele>351.00000000000006</ele><time>2026-05-02T13:16:05.999Z</time></trkpt><trkpt lat="44.772200924879705" lon="9.937338099949166"><ele>351.0</ele><time>2026-05-02T13:16:08.999Z</time></trkpt><trkpt lat="44.77213584175162" lon="9.937315786186787"><ele>351.0</ele><time>2026-05-02T13:16:11.999Z</time></trkpt><trkpt lat="44.77206217288457" lon="9.937294692546242"><ele>351.0</ele><time>2026-05-02T13:16:14.999Z</time></trkpt><trkpt lat="44.77199113824506" lon="9.937275923538373"><ele>351.0</ele><time>2026-05-02T13:16:18.999Z</time></trkpt><trkpt lat="44.7719265536936" lon="9.937254121646067"><ele>351.00000000000006</ele><time>2026-05-02T13:16:21.999Z</time></trkpt><trkpt lat="44.77185685625176" lon="9.9372364682998"><ele>351.0</ele><time>2026-05-02T13:16:24.999Z</time></trkpt><trkpt lat="44.77178363007875" lon="9.937213013672542"><ele>352.28571428571433</ele><time>2026-05-02T13:16:28.999Z</time></trkpt><trkpt lat="44.771706875156745" lon="9.937191699423266"><ele>353.57142857142856</ele><time>2026-05-02T13:16:32.999Z</time></trkpt><trkpt lat="44.7716443589921" lon="9.937173606681643"><ele>354.8571428571429</ele><time>2026-05-02T13:16:35.998Z</time></trkpt><trkpt lat="44.77157951617206" lon="9.937151280596625"><ele>356.14285714285717</ele><time>2026-05-02T13:16:38.998Z</time></trkpt><trkpt lat="44.77151662165321" lon="9.937134358474426"><ele>357.42857142857144</ele><time>2026-05-02T13:16:41.998Z</time></trkpt><trkpt lat="44.77143551479994" lon="9.937111502226577"><ele>358.7142857142857</ele><time>2026-05-02T13:16:45.998Z</time></trkpt><trkpt lat="44.771355290520496" lon="9.937086171091625"><ele>360.0</ele><time>2026-05-02T13:16:49.998Z</time></trkpt><trkpt lat="44.77129100176724" lon="9.937070359680428"><ele>360.0</ele><time>2026-05-02T13:16:53Z</time></trkpt><trkpt lat="44.771211223859844" lon="9.937069483905596"><ele>360.0</ele><time>2026-05-02T13:16:57Z</time></trkpt><trkpt lat="44.77115233254553" lon="9.93710291010632"><ele>360.0</ele><time>2026-05-02T13:17:00Z</time></trkpt><trkpt lat="44.77111190424769" lon="9.937203142630347"><ele>360.0</ele><time>2026-05-02T13:17:04Z</time></trkpt><trkpt lat="44.7711495869399" lon="9.937303885119583"><ele>360.0</ele><time>2026-05-02T13:17:08Z</time></trkpt><trkpt lat="44.77122340882846" lon="9.937358542074255"><ele>360.0</ele><time>2026-05-02T13:17:12Z</time></trkpt><trkpt lat="44.77130381543949" lon="9.93738658742046"><ele>360.0</ele><time>2026-05-02T13:17:16Z</time></trkpt><trkpt lat="44.77136576490211" lon="9.93740444843427"><ele>360.0</ele><time>2026-05-02T13:17:19Z</time></trkpt><trkpt lat="44.77143041812028" lon="9.937426532178618"><ele>360.0</ele><time>2026-05-02T13:17:22Z</time></trkpt><trkpt lat="44.771504591965936" lon="9.937456799144464"><ele>360.0</ele><time>2026-05-02T13:17:25Z</time></trkpt><trkpt lat="44.771587718024506" lon="9.937498639521525"><ele>360.0</ele><time>2026-05-02T13:17:28Z</time></trkpt><trkpt lat="44.77163802082786" lon="9.93757921631526"><ele>360.0</ele><time>2026-05-02T13:17:32Z</time></trkpt><trkpt lat="44.77158054120786" lon="9.937636075141222"><ele>360.0</ele><time>2026-05-02T13:17:36Z</time></trkpt><trkpt lat="44.77151500906048" lon="9.937602566969392"><ele>362.57142857142856</ele><time>2026-05-02T13:17:40Z</time></trkpt><trkpt lat="44.77144417006361" lon="9.937573651796392"><ele>365.14285714285717</ele><time>2026-05-02T13:17:42.999Z</time></trkpt><trkpt lat="44.77137228530828" lon="9.937559558877185"><ele>367.7142857142857</ele><time>2026-05-02T13:17:46.999Z</time></trkpt><trkpt lat="44.77130491058298" lon="9.937563668357765"><ele>370.2857142857143</ele><time>2026-05-02T13:17:49.999Z</time></trkpt><trkpt lat="44.77123312834568" lon="9.937590679761387"><ele>372.8571428571429</ele><time>2026-05-02T13:17:52.999Z</time></trkpt><trkpt lat="44.7711666252171" lon="9.937637181894516"><ele>375.42857142857144</ele><time>2026-05-02T13:17:55.999Z</time></trkpt><trkpt lat="44.77111873266718" lon="9.937699011798339"><ele>378.0</ele><time>2026-05-02T13:17:58.999Z</time></trkpt><trkpt lat="44.77107275650956" lon="9.937764622629654"><ele>378.14285714285717</ele><time>2026-05-02T13:18:01.999Z</time></trkpt><trkpt lat="44.77102135855662" lon="9.937828244029438"><ele>378.2857142857143</ele><time>2026-05-02T13:18:04.999Z</time></trkpt><trkpt lat="44.7709721958052" lon="9.937893957149962"><ele>378.42857142857144</ele><time>2026-05-02T13:18:07.999Z</time></trkpt><trkpt lat="44.77091402432913" lon="9.937958276736708"><ele>378.57142857142856</ele><time>2026-05-02T13:18:10.999Z</time></trkpt><trkpt lat="44.770841754521435" lon="9.937999145827215"><ele>378.7142857142857</ele><time>2026-05-02T13:18:13.999Z</time></trkpt><trkpt lat="44.77076109475481" lon="9.937994106372614"><ele>378.8571428571429</ele><time>2026-05-02T13:18:16.999Z</time></trkpt><trkpt lat="44.77069273959841" lon="9.937945050132344"><ele>379.0</ele><time>2026-05-02T13:18:19.999Z</time></trkpt><trkpt lat="44.7706411916922" lon="9.937854337654834"><ele>379.0</ele><time>2026-05-02T13:18:23.999Z</time></trkpt><trkpt lat="44.77059989972578" lon="9.937773061325078"><ele>379.0</ele><time>2026-05-02T13:18:26.999Z</time></trkpt><trkpt lat="44.770546871133774" lon="9.937681930025395"><ele>379.0</ele><time>2026-05-02T13:18:29.999Z</time></trkpt><trkpt lat="44.77049811380684" lon="9.937619582643652"><ele>379.0</ele><time>2026-05-02T13:18:32.999Z</time></trkpt><trkpt lat="44.77043195509972" lon="9.937583880802833"><ele>379.0</ele><time>2026-05-02T13:18:35.999Z</time></trkpt><trkpt lat="44.77034769976664" lon="9.937573355694882"><ele>379.0</ele><time>2026-05-02T13:18:38.998Z</time></trkpt><trkpt lat="44.770261075529824" lon="9.937613797587519"><ele>379.0</ele><time>2026-05-02T13:18:41.998Z</time></trkpt><trkpt lat="44.77018983392639" lon="9.937684949208963"><ele>379.0</ele><time>2026-05-02T13:18:44.998Z</time></trkpt><trkpt lat="44.77014295368079" lon="9.937792948392419"><ele>379.0</ele><time>2026-05-02T13:18:47.998Z</time></trkpt><trkpt lat="44.77013025996774" lon="9.93788784572976"><ele>379.0</ele><time>2026-05-02T13:18:49.998Z</time></trkpt><trkpt lat="44.77014753712503" lon="9.938015461185543"><ele>379.0</ele><time>2026-05-02T13:18:52.998Z</time></trkpt><trkpt lat="44.77016947007685" lon="9.938100485322908"><ele>379.0</ele><time>2026-05-02T13:18:53.998Z</time></trkpt><trkpt lat="44.77023763622021" lon="9.938186337097646"><ele>379.0</ele><time>2026-05-02T13:18:57Z</time></trkpt><trkpt lat="44.770308869378304" lon="9.938267970037138"><ele>379.0</ele><time>2026-05-02T13:19:00Z</time></trkpt><trkpt lat="44.770373008473136" lon="9.938337837352396"><ele>379.0</ele><time>2026-05-02T13:19:03Z</time></trkpt><trkpt lat="44.77043421248017" lon="9.938391989413844"><ele>379.0</ele><time>2026-05-02T13:19:06Z</time></trkpt><trkpt lat="44.770495154576906" lon="9.938451339256135"><ele>379.0</ele><time>2026-05-02T13:19:09Z</time></trkpt><trkpt lat="44.770559242614986" lon="9.938512623181813"><ele>379.0</ele><time>2026-05-02T13:19:12Z</time></trkpt><trkpt lat="44.77061932286475" lon="9.938570725518636"><ele>380.5714285714286</ele><time>2026-05-02T13:19:15Z</time></trkpt><trkpt lat="44.77067492171156" lon="9.938619979126866"><ele>382.14285714285717</ele><time>2026-05-02T13:19:18Z</time></trkpt><trkpt lat="44.770729587152324" lon="9.938675421174588"><ele>383.7142857142857</ele><time>2026-05-02T13:19:22Z</time></trkpt><trkpt lat="44.77078872163545" lon="9.938710681636994"><ele>385.28571428571433</ele><time>2026-05-02T13:19:25Z</time></trkpt><trkpt lat="44.770855679042214" lon="9.938724886931599"><ele>386.85714285714283</ele><time>2026-05-02T13:19:28Z</time></trkpt><trkpt lat="44.770934738741474" lon="9.93872272105643"><ele>388.42857142857144</ele><time>2026-05-02T13:19:31Z</time></trkpt><trkpt lat="44.77099733953248" lon="9.938712406448794"><ele>390.0</ele><time>2026-05-02T13:19:34Z</time></trkpt><trkpt lat="44.771074316382055" lon="9.93869097503845"><ele>390.1428571428571</ele><time>2026-05-02T13:19:37Z</time></trkpt><trkpt lat="44.77114330542177" lon="9.93867007243872"><ele>390.2857142857143</ele><time>2026-05-02T13:19:40Z</time></trkpt><trkpt lat="44.77121562405087" lon="9.938638331553303"><ele>390.42857142857144</ele><time>2026-05-02T13:19:43.999Z</time></trkpt><trkpt lat="44.771297555716515" lon="9.93861156472082"><ele>390.57142857142856</ele><time>2026-05-02T13:19:46.999Z</time></trkpt><trkpt lat="44.77137548054268" lon="9.938614598594636"><ele>390.7142857142857</ele><time>2026-05-02T13:19:50.999Z</time></trkpt><trkpt lat="44.77144433312712" lon="9.938631275033453"><ele>390.85714285714283</ele><time>2026-05-02T13:19:53.999Z</time></trkpt><trkpt lat="44.77150655173889" lon="9.938677599628415"><ele>391.0</ele><time>2026-05-02T13:19:56.999Z</time></trkpt><trkpt lat="44.77156282774076" lon="9.938736733458983"><ele>390.99999999999994</ele><time>2026-05-02T13:19:59.999Z</time></trkpt><trkpt lat="44.771619869299116" lon="9.938821289963997"><ele>391.0</ele><time>2026-05-02T13:20:02.999Z</time></trkpt><trkpt lat="44.771664168780354" lon="9.93890697267139"><ele>391.0</ele><time>2026-05-02T13:20:06.999Z</time></trkpt><trkpt lat="44.7716922114874" lon="9.9389941385251"><ele>391.0</ele><time>2026-05-02T13:20:09.999Z</time></trkpt><trkpt lat="44.77170434395661" lon="9.939082187810957"><ele>391.0</ele><time>2026-05-02T13:20:12.999Z</time></trkpt><trkpt lat="44.77170991891081" lon="9.93917954969756"><ele>390.99999999999994</ele><time>2026-05-02T13:20:15.999Z</time></trkpt><trkpt lat="44.771709528724166" lon="9.939296693510759"><ele>391.0</ele><time>2026-05-02T13:20:18.999Z</time></trkpt><trkpt lat="44.77168931018195" lon="9.939392443032105"><ele>388.83333333333337</ele><time>2026-05-02T13:20:22.999Z</time></trkpt><trkpt lat="44.77165077839166" lon="9.939507525211729"><ele>386.6666666666667</ele><time>2026-05-02T13:20:26.999Z</time></trkpt><trkpt lat="44.77160604870302" lon="9.939580567228179"><ele>384.5</ele><time>2026-05-02T13:20:29.999Z</time></trkpt><trkpt lat="44.77153531342378" lon="9.939641637780728"><ele>382.33333333333337</ele><time>2026-05-02T13:20:33.999Z</time></trkpt><trkpt lat="44.771457995073156" lon="9.93969111741223"><ele>380.1666666666667</ele><time>2026-05-02T13:20:37.998Z</time></trkpt><trkpt lat="44.77140044707313" lon="9.939728220695457"><ele>378.0</ele><time>2026-05-02T13:20:40.998Z</time></trkpt><trkpt lat="44.77134225243297" lon="9.939765396950847"><ele>378.0</ele><time>2026-05-02T13:20:43.998Z</time></trkpt><trkpt lat="44.77127511204314" lon="9.93979840915942"><ele>378.0</ele><time>2026-05-02T13:20:46.998Z</time></trkpt><trkpt lat="44.77119181482662" lon="9.939832310509397"><ele>378.0</ele><time>2026-05-02T13:20:50.998Z</time></trkpt><trkpt lat="44.77112282250275" lon="9.939870495789021"><ele>378.0</ele><time>2026-05-02T13:20:53.998Z</time></trkpt><trkpt lat="44.77105411506303" lon="9.939913380938352"><ele>378.0</ele><time>2026-05-02T13:20:56.998Z</time></trkpt><trkpt lat="44.7709729569448" lon="9.93996709281515"><ele>378.0</ele><time>2026-05-02T13:21:00.998Z</time></trkpt><trkpt lat="44.77090824493188" lon="9.940018995781493"><ele>380.14285714285717</ele><time>2026-05-02T13:21:04Z</time></trkpt><trkpt lat="44.77084692146846" lon="9.940067723524125"><ele>382.2857142857143</ele><time>2026-05-02T13:21:07Z</time></trkpt><trkpt lat="44.77077716518766" lon="9.940119218052406"><ele>384.42857142857144</ele><time>2026-05-02T13:21:11Z</time></trkpt><trkpt lat="44.77070656965256" lon="9.940167375088027"><ele>386.57142857142856</ele><time>2026-05-02T13:21:14Z</time></trkpt><trkpt lat="44.770635053997765" lon="9.940208778424358"><ele>388.7142857142857</ele><time>2026-05-02T13:21:18Z</time></trkpt><trkpt lat="44.77056970017523" lon="9.940239621208722"><ele>390.8571428571429</ele><time>2026-05-02T13:21:21Z</time></trkpt><trkpt lat="44.770502540810575" lon="9.940269853106644"><ele>393.0</ele><time>2026-05-02T13:21:24Z</time></trkpt><trkpt lat="44.77042705198309" lon="9.94029592139937"><ele>393.00000000000006</ele><time>2026-05-02T13:21:27Z</time></trkpt><trkpt lat="44.7703492039261" lon="9.940338636705281"><ele>393.0</ele><time>2026-05-02T13:21:31Z</time></trkpt><trkpt lat="44.77029240018287" lon="9.940392779626997"><ele>393.0</ele><time>2026-05-02T13:21:34Z</time></trkpt><trkpt lat="44.77023685583908" lon="9.940457508838659"><ele>393.0</ele><time>2026-05-02T13:21:37Z</time></trkpt><trkpt lat="44.770188744426434" lon="9.940531171104261"><ele>393.0</ele><time>2026-05-02T13:21:40Z</time></trkpt><trkpt lat="44.77014380712311" lon="9.940614102410622"><ele>393.00000000000006</ele><time>2026-05-02T13:21:43Z</time></trkpt><trkpt lat="44.770105399451346" lon="9.940701499731668"><ele>393.0</ele><time>2026-05-02T13:21:45.999Z</time></trkpt><trkpt lat="44.77006792291309" lon="9.940793855043678"><ele>395.7142857142857</ele><time>2026-05-02T13:21:48.999Z</time></trkpt><trkpt lat="44.770034271177835" lon="9.940883532620767"><ele>398.42857142857144</ele><time>2026-05-02T13:21:51.999Z</time></trkpt><trkpt lat="44.77000122592307" lon="9.94097224274483"><ele>401.1428571428571</ele><time>2026-05-02T13:21:54.999Z</time></trkpt><trkpt lat="44.769968499497196" lon="9.941059977647345"><ele>403.8571428571429</ele><time>2026-05-02T13:21:57.999Z</time></trkpt><trkpt lat="44.76993292739417" lon="9.941147018876299"><ele>406.57142857142856</ele><time>2026-05-02T13:22:00.999Z</time></trkpt><trkpt lat="44.76989336976141" lon="9.941231177081841"><ele>409.2857142857143</ele><time>2026-05-02T13:22:03.999Z</time></trkpt><trkpt lat="44.76984577769892" lon="9.941308853874165"><ele>412.0</ele><time>2026-05-02T13:22:06.999Z</time></trkpt><trkpt lat="44.76979355935305" lon="9.941378246393242"><ele>411.99999999999994</ele><time>2026-05-02T13:22:09.999Z</time></trkpt><trkpt lat="44.76973943690933" lon="9.94144202283728"><ele>412.0</ele><time>2026-05-02T13:22:12.999Z</time></trkpt><trkpt lat="44.76968298633301" lon="9.94150049822863"><ele>412.0</ele><time>2026-05-02T13:22:15.999Z</time></trkpt><trkpt lat="44.76962589650142" lon="9.941556078748892"><ele>412.0</ele><time>2026-05-02T13:22:18.999Z</time></trkpt><trkpt lat="44.7695630668693" lon="9.941603380694477"><ele>412.0</ele><time>2026-05-02T13:22:21.999Z</time></trkpt><trkpt lat="44.76949581085403" lon="9.94163484632204"><ele>411.99999999999994</ele><time>2026-05-02T13:22:24.999Z</time></trkpt><trkpt lat="44.76942631237627" lon="9.941652308614035"><ele>412.0</ele><time>2026-05-02T13:22:27.999Z</time></trkpt><trkpt lat="44.76935587916146" lon="9.941660626801728"><ele>412.4285714285714</ele><time>2026-05-02T13:22:30.999Z</time></trkpt><trkpt lat="44.76928481239168" lon="9.941657546174476"><ele>412.85714285714283</ele><time>2026-05-02T13:22:33.999Z</time></trkpt><trkpt lat="44.769216849641154" lon="9.941657461754595"><ele>413.2857142857143</ele><time>2026-05-02T13:22:36.999Z</time></trkpt><trkpt lat="44.769147326631206" lon="9.941641759424119"><ele>413.71428571428567</ele><time>2026-05-02T13:22:39.998Z</time></trkpt><trkpt lat="44.76907711406294" lon="9.941628801325372"><ele>414.14285714285717</ele><time>2026-05-02T13:22:42.998Z</time></trkpt><trkpt lat="44.76901052086989" lon="9.941605353426404"><ele>414.57142857142856</ele><time>2026-05-02T13:22:45.998Z</time></trkpt><trkpt lat="44.768946670046965" lon="9.941576388691091"><ele>415.0</ele><time>2026-05-02T13:22:48.998Z</time></trkpt><trkpt lat="44.76888236503265" lon="9.941547185807158"><ele>415.0</ele><time>2026-05-02T13:22:51.998Z</time></trkpt><trkpt lat="44.76881844218913" lon="9.941506154876361"><ele>415.0</ele><time>2026-05-02T13:22:54.998Z</time></trkpt><trkpt lat="44.76875780609106" lon="9.94145601288211"><ele>415.0</ele><time>2026-05-02T13:22:57.998Z</time></trkpt><trkpt lat="44.76870342478609" lon="9.941391744702738"><ele>415.0</ele><time>2026-05-02T13:23:00.998Z</time></trkpt><trkpt lat="44.768664703718464" lon="9.941308401915586"><ele>415.0</ele><time>2026-05-02T13:23:03.998Z</time></trkpt><trkpt lat="44.76864082226762" lon="9.9412205181883"><ele>415.0</ele><time>2026-05-02T13:23:07Z</time></trkpt><trkpt lat="44.76862225345806" lon="9.941131189616303"><ele>415.0</ele><time>2026-05-02T13:23:10Z</time></trkpt><trkpt lat="44.76860307683069" lon="9.94103945117154"><ele>415.0</ele><time>2026-05-02T13:23:13Z</time></trkpt><trkpt lat="44.768582738001314" lon="9.940946467339971"><ele>415.0</ele><time>2026-05-02T13:23:16Z</time></trkpt><trkpt lat="44.76855717221802" lon="9.940849376471894"><ele>415.0</ele><time>2026-05-02T13:23:19Z</time></trkpt><trkpt lat="44.76851895417734" lon="9.940759273965437"><ele>415.0</ele><time>2026-05-02T13:23:22Z</time></trkpt><trkpt lat="44.76848350674149" lon="9.940680037994824"><ele>415.0</ele><time>2026-05-02T13:23:25Z</time></trkpt><trkpt lat="44.76844256063156" lon="9.940606670177392"><ele>415.0</ele><time>2026-05-02T13:23:28Z</time></trkpt><trkpt lat="44.76838562379075" lon="9.940546841771097"><ele>415.0</ele><time>2026-05-02T13:23:31Z</time></trkpt><trkpt lat="44.76832369672282" lon="9.9404855171243"><ele>416.6666666666667</ele><time>2026-05-02T13:23:34Z</time></trkpt><trkpt lat="44.768263877589035" lon="9.940444371710997"><ele>418.33333333333337</ele><time>2026-05-02T13:23:36Z</time></trkpt><trkpt lat="44.768202870047375" lon="9.940413583457923"><ele>420.0</ele><time>2026-05-02T13:23:38Z</time></trkpt><trkpt lat="44.76812053456713" lon="9.94037794261232"><ele>421.66666666666663</ele><time>2026-05-02T13:23:41Z</time></trkpt><trkpt lat="44.76803782943906" lon="9.940340910378296"><ele>423.3333333333333</ele><time>2026-05-02T13:23:44Z</time></trkpt><trkpt lat="44.76795352555445" lon="9.94031691707088"><ele>425.0</ele><time>2026-05-02T13:23:47Z</time></trkpt><trkpt lat="44.76786706673126" lon="9.940309464821208"><ele>424.99999999999994</ele><time>2026-05-02T13:23:49.999Z</time></trkpt><trkpt lat="44.76778369907769" lon="9.940304861518854"><ele>425.0</ele><time>2026-05-02T13:23:52.999Z</time></trkpt><trkpt lat="44.767705555593" lon="9.94032043426712"><ele>425.0</ele><time>2026-05-02T13:23:55.999Z</time></trkpt><trkpt lat="44.767620974438316" lon="9.940327020028604"><ele>425.0</ele><time>2026-05-02T13:23:58.999Z</time></trkpt><trkpt lat="44.767546942179386" lon="9.940335847416582"><ele>424.99999999999994</ele><time>2026-05-02T13:24:01.999Z</time></trkpt><trkpt lat="44.767470844954545" lon="9.940344702497256"><ele>425.0</ele><time>2026-05-02T13:24:04.999Z</time></trkpt><trkpt lat="44.767405749676136" lon="9.94035466384761"><ele>425.66666666666663</ele><time>2026-05-02T13:24:06.999Z</time></trkpt><trkpt lat="44.76733216483" lon="9.940367517472195"><ele>426.3333333333333</ele><time>2026-05-02T13:24:09.999Z</time></trkpt><trkpt lat="44.767252677053406" lon="9.94038359311466"><ele>427.0</ele><time>2026-05-02T13:24:12.999Z</time></trkpt><trkpt lat="44.76718138185984" lon="9.940403740183033"><ele>427.66666666666663</ele><time>2026-05-02T13:24:15.999Z</time></trkpt><trkpt lat="44.76710806185285" lon="9.94041819011043"><ele>428.3333333333333</ele><time>2026-05-02T13:24:18.999Z</time></trkpt><trkpt lat="44.76703061804246" lon="9.9404327117946"><ele>429.0</ele><time>2026-05-02T13:24:21.999Z</time></trkpt><trkpt lat="44.766958388551735" lon="9.940443668799558"><ele>429.0</ele><time>2026-05-02T13:24:24.999Z</time></trkpt><trkpt lat="44.766883056305424" lon="9.940457174825623"><ele>429.0</ele><time>2026-05-02T13:24:27.999Z</time></trkpt><trkpt lat="44.76681357334433" lon="9.940479071602836"><ele>429.0</ele><time>2026-05-02T13:24:30.999Z</time></trkpt><trkpt lat="44.766747745959265" lon="9.940500476246969"><ele>429.0</ele><time>2026-05-02T13:24:33.999Z</time></trkpt><trkpt lat="44.766678818788606" lon="9.94051822724107"><ele>429.0</ele><time>2026-05-02T13:24:36.999Z</time></trkpt><trkpt lat="44.76661018185812" lon="9.940536702503808"><ele>429.0</ele><time>2026-05-02T13:24:39.999Z</time></trkpt><trkpt lat="44.76653993634159" lon="9.94056405393314"><ele>429.0</ele><time>2026-05-02T13:24:42.998Z</time></trkpt><trkpt lat="44.766475131305356" lon="9.940597871652269"><ele>429.42857142857144</ele><time>2026-05-02T13:24:45.998Z</time></trkpt><trkpt lat="44.766405214363274" lon="9.940629901917017"><ele>429.8571428571429</ele><time>2026-05-02T13:24:48.998Z</time></trkpt><trkpt lat="44.766334093130126" lon="9.940659371958045"><ele>430.2857142857143</ele><time>2026-05-02T13:24:51.998Z</time></trkpt><trkpt lat="44.7662656250953" lon="9.940689238768975"><ele>430.7142857142857</ele><time>2026-05-02T13:24:54.998Z</time></trkpt><trkpt lat="44.766196799245684" lon="9.940719821075614"><ele>431.1428571428571</ele><time>2026-05-02T13:24:57.998Z</time></trkpt><trkpt lat="44.76612715699276" lon="9.940745759329605"><ele>431.57142857142856</ele><time>2026-05-02T13:25:00.998Z</time></trkpt><trkpt lat="44.76605572198451" lon="9.940779734191356"><ele>432.0</ele><time>2026-05-02T13:25:03.998Z</time></trkpt><trkpt lat="44.76598436188448" lon="9.940808257306207"><ele>432.0</ele><time>2026-05-02T13:25:06.998Z</time></trkpt><trkpt lat="44.76591495554043" lon="9.940837216802434"><ele>432.0</ele><time>2026-05-02T13:25:09.998Z</time></trkpt><trkpt lat="44.7658421787783" lon="9.940868795136481"><ele>432.0</ele><time>2026-05-02T13:25:13Z</time></trkpt><trkpt lat="44.76577075799396" lon="9.940901409472485"><ele>432.0</ele><time>2026-05-02T13:25:16Z</time></trkpt><trkpt lat="44.765701453395025" lon="9.94093648195089"><ele>432.0</ele><time>2026-05-02T13:25:19Z</time></trkpt><trkpt lat="44.76563315452407" lon="9.940973506047582"><ele>432.0</ele><time>2026-05-02T13:25:22Z</time></trkpt><trkpt lat="44.76557073602892" lon="9.941015395243987"><ele>432.0</ele><time>2026-05-02T13:25:25Z</time></trkpt><trkpt lat="44.76550839738327" lon="9.941059619006484"><ele>432.0</ele><time>2026-05-02T13:25:28Z</time></trkpt><trkpt lat="44.765446695050024" lon="9.941101941026512"><ele>432.0</ele><time>2026-05-02T13:25:31Z</time></trkpt><trkpt lat="44.76538599896974" lon="9.941149813339033"><ele>432.0</ele><time>2026-05-02T13:25:34Z</time></trkpt><trkpt lat="44.76532536415486" lon="9.941195198749226"><ele>432.0</ele><time>2026-05-02T13:25:37Z</time></trkpt><trkpt lat="44.76526639563532" lon="9.941238189136211"><ele>432.0</ele><time>2026-05-02T13:25:40Z</time></trkpt><trkpt lat="44.76520871330947" lon="9.941280665700528"><ele>432.0</ele><time>2026-05-02T13:25:43Z</time></trkpt><trkpt lat="44.76514450106503" lon="9.941328238049412"><ele>432.0</ele><time>2026-05-02T13:25:46Z</time></trkpt><trkpt lat="44.765072093853775" lon="9.941380595238893"><ele>434.0</ele><time>2026-05-02T13:25:49Z</time></trkpt><trkpt lat="44.765005120003366" lon="9.9414310029094"><ele>436.0</ele><time>2026-05-02T13:25:51.999Z</time></trkpt><trkpt lat="44.764928817356505" lon="9.941486037956782"><ele>438.0</ele><time>2026-05-02T13:25:55.999Z</time></trkpt><trkpt lat="44.76485463097057" lon="9.941541984686369"><ele>440.0</ele><time>2026-05-02T13:25:59.999Z</time></trkpt><trkpt lat="44.76479557099669" lon="9.941590526104639"><ele>442.0</ele><time>2026-05-02T13:26:02.999Z</time></trkpt><trkpt lat="44.76472542997525" lon="9.94164663661404"><ele>444.0</ele><time>2026-05-02T13:26:06.999Z</time></trkpt><trkpt lat="44.76466822306109" lon="9.941689058807206"><ele>443.1428571428571</ele><time>2026-05-02T13:26:09.999Z</time></trkpt><trkpt lat="44.764609246667554" lon="9.941732362358406"><ele>442.28571428571433</ele><time>2026-05-02T13:26:12.999Z</time></trkpt><trkpt lat="44.76454041697187" lon="9.941771472608927"><ele>441.42857142857144</ele><time>2026-05-02T13:26:15.999Z</time></trkpt><trkpt lat="44.76448078836756" lon="9.941820967964988"><ele>440.57142857142856</ele><time>2026-05-02T13:26:18.999Z</time></trkpt><trkpt lat="44.764424397932494" lon="9.941871268547958"><ele>439.71428571428567</ele><time>2026-05-02T13:26:21.999Z</time></trkpt><trkpt lat="44.76436408387683" lon="9.94191164476833"><ele>438.8571428571429</ele><time>2026-05-02T13:26:24.999Z</time></trkpt><trkpt lat="44.76430735273474" lon="9.941951066955305"><ele>438.0</ele><time>2026-05-02T13:26:27.999Z</time></trkpt><trkpt lat="44.76425055611692" lon="9.941994448293896"><ele>440.8333333333333</ele><time>2026-05-02T13:26:30.999Z</time></trkpt><trkpt lat="44.764173334293126" lon="9.942054293648843"><ele>443.66666666666663</ele><time>2026-05-02T13:26:34.999Z</time></trkpt><trkpt lat="44.76410840981373" lon="9.942114702984162"><ele>446.5</ele><time>2026-05-02T13:26:38.999Z</time></trkpt><trkpt lat="44.76404652304831" lon="9.94218216041525"><ele>449.3333333333333</ele><time>2026-05-02T13:26:42.999Z</time></trkpt><trkpt lat="44.76398261248448" lon="9.942249703917536"><ele>452.16666666666663</ele><time>2026-05-02T13:26:46.998Z</time></trkpt><trkpt lat="44.763920129112634" lon="9.942318382173392"><ele>455.0</ele><time>2026-05-02T13:26:50.998Z</time></trkpt><trkpt lat="44.76387115234018" lon="9.942381507284628"><ele>454.99999999999994</ele><time>2026-05-02T13:26:53.998Z</time></trkpt><trkpt lat="44.76381967826805" lon="9.942435993533026"><ele>455.0</ele><time>2026-05-02T13:26:56.998Z</time></trkpt><trkpt lat="44.76374594885564" lon="9.942488485134119"><ele>455.0</ele><time>2026-05-02T13:27:00.998Z</time></trkpt><trkpt lat="44.763671006140015" lon="9.942535590692527"><ele>455.0</ele><time>2026-05-02T13:27:04.998Z</time></trkpt><trkpt lat="44.76361018844677" lon="9.94257056577759"><ele>454.99999999999994</ele><time>2026-05-02T13:27:07.998Z</time></trkpt><trkpt lat="44.763532172192484" lon="9.942609130536338"><ele>455.0</ele><time>2026-05-02T13:27:11.998Z</time></trkpt><trkpt lat="44.76345107175553" lon="9.942638985950175"><ele>456.49999999999994</ele><time>2026-05-02T13:27:15.998Z</time></trkpt><trkpt lat="44.7633768757005" lon="9.942668703328007"><ele>458.0</ele><time>2026-05-02T13:27:20Z</time></trkpt><trkpt lat="44.76329864192228" lon="9.942690482380408"><ele>459.5</ele><time>2026-05-02T13:27:24Z</time></trkpt><trkpt lat="44.763222835654865" lon="9.942653637161557"><ele>461.0</ele><time>2026-05-02T13:27:28Z</time></trkpt><trkpt lat="44.763196158518205" lon="9.94256218609202"><ele>462.49999999999994</ele><time>2026-05-02T13:27:32Z</time></trkpt><trkpt lat="44.763212892012646" lon="9.942457982092824"><ele>464.0</ele><time>2026-05-02T13:27:36Z</time></trkpt><trkpt lat="44.7632449428339" lon="9.942358518576752"><ele>464.3333333333333</ele><time>2026-05-02T13:27:40Z</time></trkpt><trkpt lat="44.76328031558015" lon="9.942257039495415"><ele>464.66666666666663</ele><time>2026-05-02T13:27:44Z</time></trkpt><trkpt lat="44.7633166631116" lon="9.942160324921286"><ele>465.0</ele><time>2026-05-02T13:27:48Z</time></trkpt><trkpt lat="44.76335773183352" lon="9.942066289703497"><ele>465.33333333333337</ele><time>2026-05-02T13:27:52Z</time></trkpt><trkpt lat="44.76339989062723" lon="9.941968142515677"><ele>465.6666666666667</ele><time>2026-05-02T13:27:55.999Z</time></trkpt><trkpt lat="44.76344423116537" lon="9.941878138719627"><ele>466.0</ele><time>2026-05-02T13:27:59.999Z</time></trkpt><trkpt lat="44.763490781338575" lon="9.941786805965416"><ele>465.28571428571433</ele><time>2026-05-02T13:28:03.999Z</time></trkpt><trkpt lat="44.76354141837626" lon="9.941697770311208"><ele>464.57142857142856</ele><time>2026-05-02T13:28:07.999Z</time></trkpt><trkpt lat="44.763590434084485" lon="9.941596013208388"><ele>463.8571428571429</ele><time>2026-05-02T13:28:11.999Z</time></trkpt><trkpt lat="44.76363239352914" lon="9.941508732835546"><ele>463.14285714285717</ele><time>2026-05-02T13:28:14.999Z</time></trkpt><trkpt lat="44.7636724895126" lon="9.941421475475268"><ele>462.42857142857144</ele><time>2026-05-02T13:28:18.999Z</time></trkpt><trkpt lat="44.763713834451764" lon="9.94134461355027"><ele>461.7142857142857</ele><time>2026-05-02T13:28:21.999Z</time></trkpt><trkpt lat="44.763750333494855" lon="9.941271319288843"><ele>461.0</ele><time>2026-05-02T13:28:24.999Z</time></trkpt><trkpt lat="44.76379739724147" lon="9.941177647950777"><ele>461.0</ele><time>2026-05-02T13:28:28.999Z</time></trkpt><trkpt lat="44.763834491383406" lon="9.941100874658282"><ele>461.00000000000006</ele><time>2026-05-02T13:28:31.999Z</time></trkpt><trkpt lat="44.763870767736464" lon="9.941023921623348"><ele>461.0</ele><time>2026-05-02T13:28:34.999Z</time></trkpt><trkpt lat="44.76390592615653" lon="9.940942023623814"><ele>461.0</ele><time>2026-05-02T13:28:37.999Z</time></trkpt><trkpt lat="44.76393725035903" lon="9.940856787344819"><ele>461.00000000000006</ele><time>2026-05-02T13:28:40.999Z</time></trkpt><trkpt lat="44.763962745134265" lon="9.940767207247795"><ele>461.0</ele><time>2026-05-02T13:28:43.999Z</time></trkpt><trkpt lat="44.76398261963976" lon="9.940671431622897"><ele>461.0</ele><time>2026-05-02T13:28:46.999Z</time></trkpt><trkpt lat="44.763982707234256" lon="9.940577319043108"><ele>462.66666666666663</ele><time>2026-05-02T13:28:49.999Z</time></trkpt><trkpt lat="44.76394771844353" lon="9.94049977851471"><ele>464.3333333333333</ele><time>2026-05-02T13:28:52.998Z</time></trkpt><trkpt lat="44.763868188445706" lon="9.940505973788683"><ele>466.0</ele><time>2026-05-02T13:28:56.998Z</time></trkpt><trkpt lat="44.763807627166194" lon="9.940575474488659"><ele>467.66666666666663</ele><time>2026-05-02T13:29:00.998Z</time></trkpt><trkpt lat="44.76375799300856" lon="9.94066833468877"><ele>469.3333333333333</ele><time>2026-05-02T13:29:04.998Z</time></trkpt><trkpt lat="44.763711932910084" lon="9.94074422638825"><ele>471.0</ele><time>2026-05-02T13:29:07.998Z</time></trkpt><trkpt lat="44.763648889468556" lon="9.940822053898481"><ele>471.0</ele><time>2026-05-02T13:29:10.998Z</time></trkpt><trkpt lat="44.76359007373413" lon="9.940873159380699"><ele>471.0</ele><time>2026-05-02T13:29:13.998Z</time></trkpt><trkpt lat="44.76352754855177" lon="9.940913740253396"><ele>471.0</ele><time>2026-05-02T13:29:16.998Z</time></trkpt><trkpt lat="44.763449936425815" lon="9.940962926507948"><ele>471.0</ele><time>2026-05-02T13:29:20.998Z</time></trkpt><trkpt lat="44.76338350395464" lon="9.941000686319384"><ele>471.0</ele><time>2026-05-02T13:29:24Z</time></trkpt><trkpt lat="44.763306810051034" lon="9.941043009892152"><ele>471.0</ele><time>2026-05-02T13:29:27Z</time></trkpt><trkpt lat="44.763232349726145" lon="9.941089340993603"><ele>472.00000000000006</ele><time>2026-05-02T13:29:31Z</time></trkpt><trkpt lat="44.76315884949424" lon="9.941116626787563"><ele>473.0</ele><time>2026-05-02T13:29:34Z</time></trkpt><trkpt lat="44.763088738947914" lon="9.941126309173367"><ele>474.00000000000006</ele><time>2026-05-02T13:29:37Z</time></trkpt><trkpt lat="44.763020662504765" lon="9.94110985970963"><ele>475.00000000000006</ele><time>2026-05-02T13:29:40Z</time></trkpt><trkpt lat="44.76294542698354" lon="9.94107055777282"><ele>476.0</ele><time>2026-05-02T13:29:43Z</time></trkpt><trkpt lat="44.7628838205926" lon="9.941035527836219"><ele>477.00000000000006</ele><time>2026-05-02T13:29:46Z</time></trkpt><trkpt lat="44.76281681646828" lon="9.941003620306097"><ele>478.00000000000006</ele><time>2026-05-02T13:29:49Z</time></trkpt><trkpt lat="44.762736548298236" lon="9.940986391544282"><ele>480.1666666666667</ele><time>2026-05-02T13:29:52Z</time></trkpt><trkpt lat="44.76265532874566" lon="9.941002983015263"><ele>482.33333333333337</ele><time>2026-05-02T13:29:55Z</time></trkpt><trkpt lat="44.76258222522672" lon="9.941052917097048"><ele>484.5</ele><time>2026-05-02T13:29:58Z</time></trkpt><trkpt lat="44.7625208923487" lon="9.941123444351812"><ele>486.66666666666663</ele><time>2026-05-02T13:30:00.999Z</time></trkpt><trkpt lat="44.762467433532606" lon="9.941188838985749"><ele>488.8333333333333</ele><time>2026-05-02T13:30:03.999Z</time></trkpt><trkpt lat="44.762415927137184" lon="9.94125961874082"><ele>491.0</ele><time>2026-05-02T13:30:06.999Z</time></trkpt><trkpt lat="44.76236580580542" lon="9.94133678423062"><ele>490.99999999999994</ele><time>2026-05-02T13:30:09.999Z</time></trkpt><trkpt lat="44.76232045588666" lon="9.941414721940134"><ele>491.0</ele><time>2026-05-02T13:30:12.999Z</time></trkpt><trkpt lat="44.7622556025868" lon="9.941478948130047"><ele>491.0</ele><time>2026-05-02T13:30:16.999Z</time></trkpt><trkpt lat="44.76219733427993" lon="9.941540723010995"><ele>491.0</ele><time>2026-05-02T13:30:19.999Z</time></trkpt><trkpt lat="44.76212272883702" lon="9.941578434546797"><ele>490.99999999999994</ele><time>2026-05-02T13:30:22.999Z</time></trkpt><trkpt lat="44.7620416331441" lon="9.941583379688653"><ele>491.0</ele><time>2026-05-02T13:30:25.999Z</time></trkpt><trkpt lat="44.76196334460517" lon="9.941585459780466"><ele>490.99999999999994</ele><time>2026-05-02T13:30:28.999Z</time></trkpt><trkpt lat="44.7618655564348" lon="9.941582262774336"><ele>491.0</ele><time>2026-05-02T13:30:31.999Z</time></trkpt><trkpt lat="44.761788935049275" lon="9.941585580406585"><ele>491.0</ele><time>2026-05-02T13:30:34.999Z</time></trkpt><trkpt lat="44.76170387174998" lon="9.941604357000644"><ele>491.0</ele><time>2026-05-02T13:30:38.999Z</time></trkpt><trkpt lat="44.7616330823665" lon="9.941628039924527"><ele>490.99999999999994</ele><time>2026-05-02T13:30:41.999Z</time></trkpt><trkpt lat="44.761571628425926" lon="9.941666816716124"><ele>491.0</ele><time>2026-05-02T13:30:44.999Z</time></trkpt><trkpt lat="44.76151730687988" lon="9.94171401147251"><ele>491.66666666666663</ele><time>2026-05-02T13:30:46.999Z</time></trkpt><trkpt lat="44.76146287177309" lon="9.94176579133662"><ele>492.3333333333333</ele><time>2026-05-02T13:30:49.999Z</time></trkpt><trkpt lat="44.76141114411495" lon="9.9418293326364"><ele>493.0</ele><time>2026-05-02T13:30:52.999Z</time></trkpt><trkpt lat="44.76135792846267" lon="9.941901976948298"><ele>493.66666666666663</ele><time>2026-05-02T13:30:55.998Z</time></trkpt><trkpt lat="44.76130455477138" lon="9.941980492639008"><ele>494.3333333333333</ele><time>2026-05-02T13:30:58.998Z</time></trkpt><trkpt lat="44.76125680290444" lon="9.942064824748314"><ele>495.0</ele><time>2026-05-02T13:31:01.998Z</time></trkpt><trkpt lat="44.76120092112017" lon="9.942165742720299"><ele>495.0</ele><time>2026-05-02T13:31:04.998Z</time></trkpt><trkpt lat="44.76115899285122" lon="9.942255129470544"><ele>495.0</ele><time>2026-05-02T13:31:07.998Z</time></trkpt><trkpt lat="44.761114465498366" lon="9.942345187955349"><ele>495.0</ele><time>2026-05-02T13:31:10.998Z</time></trkpt><trkpt lat="44.761068973212915" lon="9.942441240603697"><ele>495.0</ele><time>2026-05-02T13:31:14.998Z</time></trkpt><trkpt lat="44.76103338334806" lon="9.942521735861275"><ele>495.0</ele><time>2026-05-02T13:31:17.998Z</time></trkpt><trkpt lat="44.76100718555788" lon="9.942618063615654"><ele>495.0</ele><time>2026-05-02T13:31:20.998Z</time></trkpt><trkpt lat="44.760986361749346" lon="9.942716634212907"><ele>494.8571428571428</ele><time>2026-05-02T13:31:23.998Z</time></trkpt><trkpt lat="44.76098029641432" lon="9.942826453483942"><ele>494.71428571428567</ele><time>2026-05-02T13:31:26.998Z</time></trkpt><trkpt lat="44.76099461383516" lon="9.9429452920478"><ele>494.57142857142856</ele><time>2026-05-02T13:31:30Z</time></trkpt><trkpt lat="44.76101311208332" lon="9.94303230372714"><ele>494.4285714285714</ele><time>2026-05-02T13:31:33Z</time></trkpt><trkpt lat="44.76103678236777" lon="9.943127624972957"><ele>494.2857142857142</ele><time>2026-05-02T13:31:36Z</time></trkpt><trkpt lat="44.76105444819315" lon="9.943226491632048"><ele>494.14285714285717</ele><time>2026-05-02T13:31:39Z</time></trkpt><trkpt lat="44.761062021280985" lon="9.943330959765461"><ele>494.0</ele><time>2026-05-02T13:31:42Z</time></trkpt><trkpt lat="44.76105473533523" lon="9.943438757096887"><ele>493.99999999999994</ele><time>2026-05-02T13:31:45Z</time></trkpt><trkpt lat="44.7610434956421" lon="9.943549554456535"><ele>494.0</ele><time>2026-05-02T13:31:48Z</time></trkpt><trkpt lat="44.7610185451885" lon="9.943669106590821"><ele>494.0</ele><time>2026-05-02T13:31:51Z</time></trkpt><trkpt lat="44.760993750455846" lon="9.943764959694125"><ele>494.0</ele><time>2026-05-02T13:31:54Z</time></trkpt><trkpt lat="44.76096738211119" lon="9.943858415251094"><ele>493.99999999999994</ele><time>2026-05-02T13:31:57Z</time></trkpt><trkpt lat="44.76092204069129" lon="9.943937301856657"><ele>494.0</ele><time>2026-05-02T13:32:00Z</time></trkpt><trkpt lat="44.76084771539757" lon="9.943970051743696"><ele>496.28571428571433</ele><time>2026-05-02T13:32:02.999Z</time></trkpt><trkpt lat="44.76078841760779" lon="9.943926317567756"><ele>498.57142857142856</ele><time>2026-05-02T13:32:05.999Z</time></trkpt><trkpt lat="44.76075473763411" lon="9.943847072768623"><ele>500.8571428571429</ele><time>2026-05-02T13:32:08.999Z</time></trkpt><trkpt lat="44.76072636562143" lon="9.943762603337587"><ele>503.14285714285717</ele><time>2026-05-02T13:32:11.999Z</time></trkpt><trkpt lat="44.76070228261792" lon="9.9436741666592"><ele>505.42857142857144</ele><time>2026-05-02T13:32:14.999Z</time></trkpt><trkpt lat="44.76067926961206" lon="9.943590235175648"><ele>507.7142857142857</ele><time>2026-05-02T13:32:17.999Z</time></trkpt><trkpt lat="44.76065818551832" lon="9.943503121636075"><ele>510.0</ele><time>2026-05-02T13:32:20.999Z</time></trkpt><trkpt lat="44.76064570343316" lon="9.943406594754551"><ele>510.7142857142857</ele><time>2026-05-02T13:32:23.999Z</time></trkpt><trkpt lat="44.76062765466057" lon="9.943313092778657"><ele>511.42857142857144</ele><time>2026-05-02T13:32:26.999Z</time></trkpt><trkpt lat="44.76060587024916" lon="9.943199433782773"><ele>512.1428571428571</ele><time>2026-05-02T13:32:29.999Z</time></trkpt><trkpt lat="44.76057587749826" lon="9.943113570883394"><ele>512.8571428571429</ele><time>2026-05-02T13:32:32.999Z</time></trkpt><trkpt lat="44.76054290733571" lon="9.943027249679513"><ele>513.5714285714286</ele><time>2026-05-02T13:32:35.999Z</time></trkpt><trkpt lat="44.76050141867084" lon="9.942938598814271"><ele>514.2857142857143</ele><time>2026-05-02T13:32:38.999Z</time></trkpt><trkpt lat="44.76046185125491" lon="9.94286754082716"><ele>515.0</ele><time>2026-05-02T13:32:40.999Z</time></trkpt><trkpt lat="44.76042244503762" lon="9.942786261758533"><ele>515.0</ele><time>2026-05-02T13:32:43.999Z</time></trkpt><trkpt lat="44.760371669671045" lon="9.942694121425994"><ele>515.0</ele><time>2026-05-02T13:32:46.999Z</time></trkpt><trkpt lat="44.760336866416665" lon="9.94259504691878"><ele>515.0</ele><time>2026-05-02T13:32:49.999Z</time></trkpt><trkpt lat="44.76032955042633" lon="9.942489040492273"><ele>515.0</ele><time>2026-05-02T13:32:52.999Z</time></trkpt><trkpt lat="44.76033783162647" lon="9.942376482356924"><ele>515.0</ele><time>2026-05-02T13:32:55.999Z</time></trkpt><trkpt lat="44.76035272041013" lon="9.942270703078945"><ele>515.0</ele><time>2026-05-02T13:32:58.999Z</time></trkpt><trkpt lat="44.76036796033749" lon="9.94218409513425"><ele>515.0</ele><time>2026-05-02T13:33:00.998Z</time></trkpt><trkpt lat="44.76038930582561" lon="9.94208360854493"><ele>515.0</ele><time>2026-05-02T13:33:03.998Z</time></trkpt><trkpt lat="44.760405220028105" lon="9.941996898432254"><ele>515.0</ele><time>2026-05-02T13:33:05.998Z</time></trkpt><trkpt lat="44.76041775666145" lon="9.941893033800525"><ele>515.0</ele><time>2026-05-02T13:33:08.998Z</time></trkpt><trkpt lat="44.760435267464345" lon="9.941793471297656"><ele>515.0</ele><time>2026-05-02T13:33:11.998Z</time></trkpt><trkpt lat="44.760448930126614" lon="9.941702138843965"><ele>515.0</ele><time>2026-05-02T13:33:13.998Z</time></trkpt><trkpt lat="44.76046413551553" lon="9.941604582785704"><ele>515.0</ele><time>2026-05-02T13:33:16.998Z</time></trkpt><trkpt lat="44.760482149017484" lon="9.941500076286854"><ele>515.0</ele><time>2026-05-02T13:33:19.998Z</time></trkpt><trkpt lat="44.76050302783957" lon="9.941391899755216"><ele>515.0</ele><time>2026-05-02T13:33:22.998Z</time></trkpt><trkpt lat="44.760526815088845" lon="9.941289155879169"><ele>515.0</ele><time>2026-05-02T13:33:25.998Z</time></trkpt><trkpt lat="44.76054992434412" lon="9.941187672303318"><ele>515.0</ele><time>2026-05-02T13:33:28.998Z</time></trkpt><trkpt lat="44.76058111756596" lon="9.941094996702388"><ele>515.0</ele><time>2026-05-02T13:33:31.998Z</time></trkpt><trkpt lat="44.76061717551202" lon="9.941006391065143"><ele>515.0</ele><time>2026-05-02T13:33:35Z</time></trkpt><trkpt lat="44.76065716403397" lon="9.940930464634285"><ele>515.0</ele><time>2026-05-02T13:33:38Z</time></trkpt><trkpt lat="44.76070239216702" lon="9.940859931328067"><ele>516.8333333333333</ele><time>2026-05-02T13:33:41Z</time></trkpt><trkpt lat="44.76076152253375" lon="9.940776804417618"><ele>518.6666666666666</ele><time>2026-05-02T13:33:45Z</time></trkpt><trkpt lat="44.76081624888487" lon="9.940699171673204"><ele>520.5</ele><time>2026-05-02T13:33:48Z</time></trkpt><trkpt lat="44.760865160852155" lon="9.940609611242273"><ele>522.3333333333334</ele><time>2026-05-02T13:33:51Z</time></trkpt><trkpt lat="44.760926222039835" lon="9.940514398031665"><ele>524.1666666666667</ele><time>2026-05-02T13:33:55Z</time></trkpt><trkpt lat="44.76096918191834" lon="9.940441574958559"><ele>526.0</ele><time>2026-05-02T13:33:58Z</time></trkpt><trkpt lat="44.76101194338333" lon="9.940365872875718"><ele>526.0</ele><time>2026-05-02T13:34:01Z</time></trkpt><trkpt lat="44.76103251649996" lon="9.94027285573437"><ele>526.0</ele><time>2026-05-02T13:34:04Z</time></trkpt><trkpt lat="44.76102402876479" lon="9.94017242920107"><ele>526.0</ele><time>2026-05-02T13:34:06.999Z</time></trkpt><trkpt lat="44.76097743807523" lon="9.940100495703714"><ele>526.0</ele><time>2026-05-02T13:34:09.999Z</time></trkpt><trkpt lat="44.76091506880522" lon="9.940075089398947"><ele>526.0</ele><time>2026-05-02T13:34:12.999Z</time></trkpt><trkpt lat="44.760844690979155" lon="9.940083380726161"><ele>526.0</ele><time>2026-05-02T13:34:15.999Z</time></trkpt><trkpt lat="44.760775764238204" lon="9.94011211067962"><ele>526.0</ele><time>2026-05-02T13:34:18.999Z</time></trkpt><trkpt lat="44.76070282415419" lon="9.9401424222438"><ele>526.0</ele><time>2026-05-02T13:34:21.999Z</time></trkpt><trkpt lat="44.76063130702906" lon="9.940166576549386"><ele>526.0</ele><time>2026-05-02T13:34:24.999Z</time></trkpt><trkpt lat="44.76055551453806" lon="9.940190898349348"><ele>526.0</ele><time>2026-05-02T13:34:27.999Z</time></trkpt><trkpt lat="44.76048163300199" lon="9.940211006439212"><ele>526.0</ele><time>2026-05-02T13:34:30.999Z</time></trkpt><trkpt lat="44.760406383500936" lon="9.940233669859564"><ele>526.0</ele><time>2026-05-02T13:34:33.999Z</time></trkpt><trkpt lat="44.76032050170379" lon="9.940261665894248"><ele>526.0</ele><time>2026-05-02T13:34:36.999Z</time></trkpt><trkpt lat="44.760246073687206" lon="9.94029011474789"><ele>528.0</ele><time>2026-05-02T13:34:39.999Z</time></trkpt><trkpt lat="44.76018249672948" lon="9.940340843728196"><ele>530.0</ele><time>2026-05-02T13:34:42.999Z</time></trkpt><trkpt lat="44.76012371911902" lon="9.940399187775068"><ele>532.0</ele><time>2026-05-02T13:34:45.999Z</time></trkpt><trkpt lat="44.760075611950015" lon="9.940458599334928"><ele>534.0</ele><time>2026-05-02T13:34:47.999Z</time></trkpt><trkpt lat="44.76001534130978" lon="9.94054055960824"><ele>536.0</ele><time>2026-05-02T13:34:51.999Z</time></trkpt><trkpt lat="44.759970191121496" lon="9.940606432102829"><ele>538.0</ele><time>2026-05-02T13:34:53.999Z</time></trkpt><trkpt lat="44.7599130234627" lon="9.940691813466088"><ele>540.0</ele><time>2026-05-02T13:34:57.999Z</time></trkpt><trkpt lat="44.75986332572528" lon="9.940767837664962"><ele>540.0</ele><time>2026-05-02T13:35:00.999Z</time></trkpt><trkpt lat="44.75981215806818" lon="9.940847577382277"><ele>540.0</ele><time>2026-05-02T13:35:03.998Z</time></trkpt><trkpt lat="44.75976376067911" lon="9.940928258740277"><ele>540.0</ele><time>2026-05-02T13:35:06.998Z</time></trkpt><trkpt lat="44.75971854796703" lon="9.941010871678914"><ele>540.0</ele><time>2026-05-02T13:35:09.998Z</time></trkpt><trkpt lat="44.75966345373493" lon="9.941097442540501"><ele>540.0</ele><time>2026-05-02T13:35:12.998Z</time></trkpt><trkpt lat="44.759616739483086" lon="9.941180100146092"><ele>540.0</ele><time>2026-05-02T13:35:15.998Z</time></trkpt><trkpt lat="44.7595841452459" lon="9.94125666837777"><ele>540.0</ele><time>2026-05-02T13:35:18.998Z</time></trkpt><trkpt lat="44.75955072333923" lon="9.941344289896215"><ele>538.8571428571429</ele><time>2026-05-02T13:35:21.998Z</time></trkpt><trkpt lat="44.75951789304959" lon="9.941431523977121"><ele>537.7142857142857</ele><time>2026-05-02T13:35:24.998Z</time></trkpt><trkpt lat="44.75947715783956" lon="9.941514607811385"><ele>536.5714285714286</ele><time>2026-05-02T13:35:27.998Z</time></trkpt><trkpt lat="44.7594286660422" lon="9.94160598708132"><ele>535.4285714285714</ele><time>2026-05-02T13:35:30.998Z</time></trkpt><trkpt lat="44.75938571045943" lon="9.941700488124807"><ele>534.2857142857142</ele><time>2026-05-02T13:35:34.998Z</time></trkpt><trkpt lat="44.7593399238324" lon="9.941779675441666"><ele>533.1428571428571</ele><time>2026-05-02T13:35:37.998Z</time></trkpt><trkpt lat="44.75930419196145" lon="9.941871315349223"><ele>532.0</ele><time>2026-05-02T13:35:41Z</time></trkpt><trkpt lat="44.75926641858871" lon="9.9419862996444"><ele>533.8571428571429</ele><time>2026-05-02T13:35:44Z</time></trkpt><trkpt lat="44.759227458985826" lon="9.942068263887256"><ele>535.7142857142858</ele><time>2026-05-02T13:35:47Z</time></trkpt><trkpt lat="44.759190241354275" lon="9.942155864628226"><ele>537.5714285714286</ele><time>2026-05-02T13:35:50Z</time></trkpt><trkpt lat="44.75915734379763" lon="9.942242448515895"><ele>539.4285714285714</ele><time>2026-05-02T13:35:53Z</time></trkpt><trkpt lat="44.75914870533597" lon="9.94234698612496"><ele>541.2857142857143</ele><time>2026-05-02T13:35:56Z</time></trkpt><trkpt lat="44.75913556787211" lon="9.942449480179526"><ele>543.1428571428571</ele><time>2026-05-02T13:35:59Z</time></trkpt><trkpt lat="44.75912629503148" lon="9.942570396740596"><ele>545.0</ele><time>2026-05-02T13:36:02Z</time></trkpt><trkpt lat="44.75911619213592" lon="9.942682644234539"><ele>545.0</ele><time>2026-05-02T13:36:06Z</time></trkpt><trkpt lat="44.759117783371266" lon="9.94277405027886"><ele>545.0</ele><time>2026-05-02T13:36:08Z</time></trkpt><trkpt lat="44.759107105132586" lon="9.942879052854288"><ele>545.0</ele><time>2026-05-02T13:36:10.999Z</time></trkpt><trkpt lat="44.759053471971825" lon="9.942956391874809"><ele>545.0</ele><time>2026-05-02T13:36:13.999Z</time></trkpt><trkpt lat="44.758990677392234" lon="9.942905763574128"><ele>545.0</ele><time>2026-05-02T13:36:17.999Z</time></trkpt><trkpt lat="44.75896780835777" lon="9.942774306385909"><ele>545.0</ele><time>2026-05-02T13:36:21.999Z</time></trkpt><trkpt lat="44.75895503583893" lon="9.942676566400914"><ele>545.0</ele><time>2026-05-02T13:36:25.999Z</time></trkpt><trkpt lat="44.758941147492756" lon="9.942585065473114"><ele>545.0</ele><time>2026-05-02T13:36:28.999Z</time></trkpt><trkpt lat="44.7589217641719" lon="9.942480597408801"><ele>545.0</ele><time>2026-05-02T13:36:31.999Z</time></trkpt><trkpt lat="44.75891873780609" lon="9.942385552185748"><ele>545.0</ele><time>2026-05-02T13:36:35.999Z</time></trkpt><trkpt lat="44.75891108919621" lon="9.942260963136778"><ele>545.0</ele><time>2026-05-02T13:36:39.999Z</time></trkpt><trkpt lat="44.758910510396426" lon="9.942172277156372"><ele>545.0</ele><time>2026-05-02T13:36:42.999Z</time></trkpt><trkpt lat="44.75891549735037" lon="9.942079010664074"><ele>545.0</ele><time>2026-05-02T13:36:45.999Z</time></trkpt><trkpt lat="44.758927033030254" lon="9.941961276279443"><ele>545.4285714285714</ele><time>2026-05-02T13:36:49.999Z</time></trkpt><trkpt lat="44.758954505068004" lon="9.941857231421176"><ele>545.8571428571429</ele><time>2026-05-02T13:36:52.999Z</time></trkpt><trkpt lat="44.75896776319973" lon="9.941755577704336"><ele>546.2857142857143</ele><time>2026-05-02T13:36:55.999Z</time></trkpt><trkpt lat="44.75898423804939" lon="9.941654689485288"><ele>546.7142857142858</ele><time>2026-05-02T13:36:58.999Z</time></trkpt><trkpt lat="44.759001149061795" lon="9.941559112586564"><ele>547.1428571428571</ele><time>2026-05-02T13:37:01.999Z</time></trkpt><trkpt lat="44.759020531604776" lon="9.94146792152473"><ele>547.5714285714287</ele><time>2026-05-02T13:37:04.999Z</time></trkpt><trkpt lat="44.75904016869223" lon="9.941360402984374"><ele>548.0</ele><time>2026-05-02T13:37:08.998Z</time></trkpt><trkpt lat="44.759055847502154" lon="9.941265085093361"><ele>549.1428571428572</ele><time>2026-05-02T13:37:11.998Z</time></trkpt><trkpt lat="44.75907228802141" lon="9.941166160223618"><ele>550.2857142857143</ele><time>2026-05-02T13:37:14.998Z</time></trkpt><trkpt lat="44.759085082052756" lon="9.941064271764821"><ele>551.4285714285714</ele><time>2026-05-02T13:37:17.998Z</time></trkpt><trkpt lat="44.759090941474945" lon="9.940953888685454"><ele>552.5714285714287</ele><time>2026-05-02T13:37:20.998Z</time></trkpt><trkpt lat="44.75908914470628" lon="9.940861282460682"><ele>553.7142857142858</ele><time>2026-05-02T13:37:23.998Z</time></trkpt><trkpt lat="44.759088179638326" lon="9.940772215596965"><ele>554.8571428571429</ele><time>2026-05-02T13:37:26.998Z</time></trkpt><trkpt lat="44.7590793894668" lon="9.94067435505248"><ele>556.0</ele><time>2026-05-02T13:37:29.998Z</time></trkpt><trkpt lat="44.75906445869905" lon="9.940572352179338"><ele>557.2857142857142</ele><time>2026-05-02T13:37:32.998Z</time></trkpt><trkpt lat="44.75904185397409" lon="9.940470971339854"><ele>558.5714285714286</ele><time>2026-05-02T13:37:35.998Z</time></trkpt><trkpt lat="44.75902801731534" lon="9.940363413282094"><ele>559.8571428571429</ele><time>2026-05-02T13:37:38.998Z</time></trkpt><trkpt lat="44.75903573433859" lon="9.940274746719618"><ele>561.1428571428571</ele><time>2026-05-02T13:37:41.998Z</time></trkpt><trkpt lat="44.75905638505804" lon="9.94017880361205"><ele>562.4285714285714</ele><time>2026-05-02T13:37:44.998Z</time></trkpt><trkpt lat="44.75909468402096" lon="9.940093041999283"><ele>563.7142857142857</ele><time>2026-05-02T13:37:48Z</time></trkpt><trkpt lat="44.759147097479875" lon="9.939994424555941"><ele>565.0</ele><time>2026-05-02T13:37:51Z</time></trkpt><trkpt lat="44.759185286693146" lon="9.93990495820966"><ele>565.8333333333334</ele><time>2026-05-02T13:37:54Z</time></trkpt><trkpt lat="44.759207863702045" lon="9.939790035855863"><ele>566.6666666666667</ele><time>2026-05-02T13:37:58Z</time></trkpt><trkpt lat="44.759216771512264" lon="9.939668991559003"><ele>567.5</ele><time>2026-05-02T13:38:01Z</time></trkpt><trkpt lat="44.75921144116789" lon="9.939574641235655"><ele>568.3333333333334</ele><time>2026-05-02T13:38:04Z</time></trkpt><trkpt lat="44.759199889464725" lon="9.939476385936716"><ele>569.1666666666666</ele><time>2026-05-02T13:38:07Z</time></trkpt><trkpt lat="44.75917872510335" lon="9.939374768325106"><ele>570.0</ele><time>2026-05-02T13:38:10Z</time></trkpt><trkpt lat="44.7591568174834" lon="9.939278328550385"><ele>569.8571428571429</ele><time>2026-05-02T13:38:13Z</time></trkpt><trkpt lat="44.75911886548191" lon="9.939169018793086"><ele>569.7142857142858</ele><time>2026-05-02T13:38:15.999Z</time></trkpt><trkpt lat="44.75908037871049" lon="9.939089512904859"><ele>569.5714285714287</ele><time>2026-05-02T13:38:18.999Z</time></trkpt><trkpt lat="44.7590350039078" lon="9.939016081673278"><ele>569.4285714285714</ele><time>2026-05-02T13:38:21.999Z</time></trkpt><trkpt lat="44.75897821273447" lon="9.938952013890091"><ele>569.2857142857143</ele><time>2026-05-02T13:38:24.999Z</time></trkpt><trkpt lat="44.75891288266935" lon="9.938908394797464"><ele>569.1428571428572</ele><time>2026-05-02T13:38:27.999Z</time></trkpt><trkpt lat="44.758847566885905" lon="9.93887771365065"><ele>569.0</ele><time>2026-05-02T13:38:30.999Z</time></trkpt><trkpt lat="44.75878174427478" lon="9.938860895113274"><ele>569.0</ele><time>2026-05-02T13:38:33.999Z</time></trkpt><trkpt lat="44.75870683453894" lon="9.938856841539614"><ele>569.0</ele><time>2026-05-02T13:38:36.999Z</time></trkpt><trkpt lat="44.758632981562656" lon="9.93885438451919"><ele>569.0</ele><time>2026-05-02T13:38:39.999Z</time></trkpt><trkpt lat="44.75856005670032" lon="9.938848440752263"><ele>569.0</ele><time>2026-05-02T13:38:42.999Z</time></trkpt><trkpt lat="44.7584849517331" lon="9.938824359655765"><ele>569.0</ele><time>2026-05-02T13:38:45.999Z</time></trkpt><trkpt lat="44.7584193559223" lon="9.938776963434444"><ele>569.0</ele><time>2026-05-02T13:38:48.999Z</time></trkpt><trkpt lat="44.75835394635925" lon="9.93869099373084"><ele>571.2857142857143</ele><time>2026-05-02T13:38:51.999Z</time></trkpt><trkpt lat="44.75832174731624" lon="9.93859827682746"><ele>573.5714285714286</ele><time>2026-05-02T13:38:54.999Z</time></trkpt><trkpt lat="44.75830250334255" lon="9.938504459248886"><ele>575.8571428571429</ele><time>2026-05-02T13:38:57.999Z</time></trkpt><trkpt lat="44.75829358008246" lon="9.938402986372754"><ele>578.1428571428571</ele><time>2026-05-02T13:39:00.999Z</time></trkpt><trkpt lat="44.758285518344294" lon="9.93829384602537"><ele>580.4285714285714</ele><time>2026-05-02T13:39:03.999Z</time></trkpt><trkpt lat="44.75826720281036" lon="9.938192825541396"><ele>582.7142857142858</ele><time>2026-05-02T13:39:06.999Z</time></trkpt><trkpt lat="44.758235708317684" lon="9.938104611114921"><ele>585.0</ele><time>2026-05-02T13:39:09.999Z</time></trkpt><trkpt lat="44.75819057440047" lon="9.938021479839955"><ele>585.0</ele><time>2026-05-02T13:39:12.998Z</time></trkpt><trkpt lat="44.75813425801118" lon="9.937942524141485"><ele>585.0</ele><time>2026-05-02T13:39:15.998Z</time></trkpt><trkpt lat="44.75808902405993" lon="9.937873138646724"><ele>585.0</ele><time>2026-05-02T13:39:18.998Z</time></trkpt><trkpt lat="44.758042813382794" lon="9.937798336174778"><ele>585.0</ele><time>2026-05-02T13:39:21.998Z</time></trkpt><trkpt lat="44.75800946381413" lon="9.937712635783843"><ele>585.0</ele><time>2026-05-02T13:39:24.998Z</time></trkpt><trkpt lat="44.75798480319592" lon="9.937622833485992"><ele>585.0</ele><time>2026-05-02T13:39:27.998Z</time></trkpt><trkpt lat="44.75796153490762" lon="9.937523674525421"><ele>585.0</ele><time>2026-05-02T13:39:30.998Z</time></trkpt><trkpt lat="44.75794158835414" lon="9.937408267140352"><ele>584.5714285714286</ele><time>2026-05-02T13:39:33.998Z</time></trkpt><trkpt lat="44.75793877300142" lon="9.937303587925504"><ele>584.1428571428571</ele><time>2026-05-02T13:39:36.998Z</time></trkpt><trkpt lat="44.75794777588381" lon="9.937202947416452"><ele>583.7142857142857</ele><time>2026-05-02T13:39:39.998Z</time></trkpt><trkpt lat="44.75795882281722" lon="9.937099752475358"><ele>583.2857142857142</ele><time>2026-05-02T13:39:42.998Z</time></trkpt><trkpt lat="44.75797103583717" lon="9.93700409669236"><ele>582.8571428571428</ele><time>2026-05-02T13:39:45.998Z</time></trkpt><trkpt lat="44.757998440121746" lon="9.936916327513638"><ele>582.4285714285714</ele><time>2026-05-02T13:39:48.998Z</time></trkpt><trkpt lat="44.75803297569939" lon="9.936838543665973"><ele>582.0</ele><time>2026-05-02T13:39:51.998Z</time></trkpt><trkpt lat="44.758069064575594" lon="9.936754135145716"><ele>583.0</ele><time>2026-05-02T13:39:55Z</time></trkpt><trkpt lat="44.758106938511915" lon="9.936665111835577"><ele>584.0</ele><time>2026-05-02T13:39:58Z</time></trkpt><trkpt lat="44.75816068962891" lon="9.936580384100846"><ele>585.0</ele><time>2026-05-02T13:40:02Z</time></trkpt><trkpt lat="44.758215196298934" lon="9.936523813684596"><ele>586.0</ele><time>2026-05-02T13:40:05Z</time></trkpt><trkpt lat="44.75827482351701" lon="9.936465995951572"><ele>587.0</ele><time>2026-05-02T13:40:08Z</time></trkpt><trkpt lat="44.75833177550739" lon="9.936386128894615"><ele>588.0</ele><time>2026-05-02T13:40:11Z</time></trkpt><trkpt lat="44.758369365789356" lon="9.936288391962314"><ele>588.0</ele><time>2026-05-02T13:40:14Z</time></trkpt><trkpt lat="44.7583571416393" lon="9.936172439842355"><ele>588.0</ele><time>2026-05-02T13:40:17Z</time></trkpt><trkpt lat="44.75831585866629" lon="9.936103077863384"><ele>588.0</ele><time>2026-05-02T13:40:20Z</time></trkpt><trkpt lat="44.758256055555755" lon="9.93605748965633"><ele>588.0</ele><time>2026-05-02T13:40:22.999Z</time></trkpt><trkpt lat="44.75818889252421" lon="9.936023217739281"><ele>588.0</ele><time>2026-05-02T13:40:25.999Z</time></trkpt><trkpt lat="44.758114185190756" lon="9.935997849923943"><ele>588.0</ele><time>2026-05-02T13:40:28.999Z</time></trkpt><trkpt lat="44.758041491398714" lon="9.935976538314595"><ele>588.0</ele><time>2026-05-02T13:40:31.999Z</time></trkpt><trkpt lat="44.75797166014866" lon="9.935971120074642"><ele>588.0</ele><time>2026-05-02T13:40:34.999Z</time></trkpt><trkpt lat="44.75789826479555" lon="9.935998151507228"><ele>588.0</ele><time>2026-05-02T13:40:37.999Z</time></trkpt><trkpt lat="44.75783013611855" lon="9.936042095383055"><ele>588.0</ele><time>2026-05-02T13:40:40.999Z</time></trkpt><trkpt lat="44.757773712597775" lon="9.936094306779802"><ele>588.0</ele><time>2026-05-02T13:40:42.999Z</time></trkpt><trkpt lat="44.757720984245836" lon="9.936169797131356"><ele>588.0</ele><time>2026-05-02T13:40:45.999Z</time></trkpt><trkpt lat="44.757668104895764" lon="9.936256032492414"><ele>588.0</ele><time>2026-05-02T13:40:49.999Z</time></trkpt><trkpt lat="44.757630308084046" lon="9.93634849243879"><ele>590.7142857142857</ele><time>2026-05-02T13:40:52.999Z</time></trkpt><trkpt lat="44.75759540947902" lon="9.93642613215646"><ele>593.4285714285714</ele><time>2026-05-02T13:40:55.999Z</time></trkpt><trkpt lat="44.75756874164472" lon="9.936512515394684"><ele>596.1428571428571</ele><time>2026-05-02T13:40:58.999Z</time></trkpt><trkpt lat="44.757541260673534" lon="9.936596276512935"><ele>598.8571428571429</ele><time>2026-05-02T13:41:01.999Z</time></trkpt><trkpt lat="44.75751080588519" lon="9.936697403975147"><ele>601.5714285714286</ele><time>2026-05-02T13:41:04.999Z</time></trkpt><trkpt lat="44.757480764610754" lon="9.936794345622259"><ele>604.2857142857142</ele><time>2026-05-02T13:41:07.999Z</time></trkpt><trkpt lat="44.75745562913728" lon="9.936889696499025"><ele>607.0</ele><time>2026-05-02T13:41:10.999Z</time></trkpt><trkpt lat="44.75742158587613" lon="9.936968667156773"><ele>607.0</ele><time>2026-05-02T13:41:15.999Z</time></trkpt><trkpt lat="44.75739661549974" lon="9.937053555153621"><ele>607.0</ele><time>2026-05-02T13:41:21.998Z</time></trkpt><trkpt lat="44.757353253904355" lon="9.937145679652604"><ele>607.0</ele><time>2026-05-02T13:41:27.998Z</time></trkpt><trkpt lat="44.75731779984237" lon="9.937237881693559"><ele>607.0</ele><time>2026-05-02T13:41:30.998Z</time></trkpt><trkpt lat="44.75728033435762" lon="9.937344357527373"><ele>607.0</ele><time>2026-05-02T13:41:33.998Z</time></trkpt><trkpt lat="44.757245679064205" lon="9.937456142483391"><ele>607.0</ele><time>2026-05-02T13:41:36.998Z</time></trkpt><trkpt lat="44.75721768626541" lon="9.937536906048763"><ele>608.0</ele><time>2026-05-02T13:41:38.998Z</time></trkpt><trkpt lat="44.757195590771836" lon="9.937625440549073"><ele>609.0</ele><time>2026-05-02T13:41:40.998Z</time></trkpt><trkpt lat="44.7571840174239" lon="9.937741942738487"><ele>610.0</ele><time>2026-05-02T13:41:43.998Z</time></trkpt><trkpt lat="44.75718627685272" lon="9.937831961511444"><ele>611.0</ele><time>2026-05-02T13:41:45.998Z</time></trkpt><trkpt lat="44.75719232109279" lon="9.93792107298737"><ele>612.0</ele><time>2026-05-02T13:41:47.998Z</time></trkpt><trkpt lat="44.757228776618184" lon="9.938037568290571"><ele>613.0</ele><time>2026-05-02T13:41:50.998Z</time></trkpt><trkpt lat="44.757292871305005" lon="9.938133608838303"><ele>613.0</ele><time>2026-05-02T13:41:53.998Z</time></trkpt><trkpt lat="44.75736229892719" lon="9.9382281752136"><ele>613.0</ele><time>2026-05-02T13:41:56.998Z</time></trkpt><trkpt lat="44.75741234182447" lon="9.938289299217614"><ele>613.0</ele><time>2026-05-02T13:41:59Z</time></trkpt><trkpt lat="44.75746695958269" lon="9.938347910002506"><ele>613.0</ele><time>2026-05-02T13:42:01Z</time></trkpt><trkpt lat="44.757514575708285" lon="9.93840725408937"><ele>613.0</ele><time>2026-05-02T13:42:03Z</time></trkpt><trkpt lat="44.757561478669956" lon="9.93847342989699"><ele>613.0</ele><time>2026-05-02T13:42:05Z</time></trkpt><trkpt lat="44.75758877324644" lon="9.938572108038164"><ele>613.0</ele><time>2026-05-02T13:42:08Z</time></trkpt><trkpt lat="44.75759315049032" lon="9.93869478564053"><ele>612.6666666666667</ele><time>2026-05-02T13:42:11Z</time></trkpt><trkpt lat="44.75756365674071" lon="9.938827561682812"><ele>612.3333333333334</ele><time>2026-05-02T13:42:14Z</time></trkpt><trkpt lat="44.75750802426268" lon="9.938923895801711"><ele>612.0</ele><time>2026-05-02T13:42:17Z</time></trkpt><trkpt lat="44.757432647427926" lon="9.938986650314117"><ele>611.6666666666666</ele><time>2026-05-02T13:42:20Z</time></trkpt><trkpt lat="44.757362258620496" lon="9.93899925638262"><ele>611.3333333333333</ele><time>2026-05-02T13:42:23Z</time></trkpt><trkpt lat="44.75728622131055" lon="9.938978363367331"><ele>611.0</ele><time>2026-05-02T13:42:26Z</time></trkpt><trkpt lat="44.757218870292235" lon="9.938934395143695"><ele>611.0</ele><time>2026-05-02T13:42:28.999Z</time></trkpt><trkpt lat="44.75715881833036" lon="9.938876835775654"><ele>611.0</ele><time>2026-05-02T13:42:31.999Z</time></trkpt><trkpt lat="44.75710414106582" lon="9.938802618376748"><ele>611.0</ele><time>2026-05-02T13:42:34.999Z</time></trkpt><trkpt lat="44.75706448223578" lon="9.938708822960763"><ele>611.0</ele><time>2026-05-02T13:42:37.999Z</time></trkpt><trkpt lat="44.75703681484542" lon="9.938604376338743"><ele>611.0</ele><time>2026-05-02T13:42:40.999Z</time></trkpt><trkpt lat="44.75705202633581" lon="9.938513896180158"><ele>611.0</ele><time>2026-05-02T13:42:46.999Z</time></trkpt><trkpt lat="44.757020737016994" lon="9.938397331140434"><ele>611.3333333333333</ele><time>2026-05-02T13:42:49.999Z</time></trkpt><trkpt lat="44.75698025922917" lon="9.938304351354374"><ele>611.6666666666666</ele><time>2026-05-02T13:42:52.999Z</time></trkpt><trkpt lat="44.75693407055271" lon="9.938186557767795"><ele>612.0</ele><time>2026-05-02T13:42:55.999Z</time></trkpt><trkpt lat="44.756900351534185" lon="9.93807906260154"><ele>612.3333333333334</ele><time>2026-05-02T13:42:58.999Z</time></trkpt><trkpt lat="44.75687248750968" lon="9.937967311214129"><ele>612.6666666666667</ele><time>2026-05-02T13:43:01.999Z</time></trkpt><trkpt lat="44.75685435353047" lon="9.937867454890604"><ele>613.0</ele><time>2026-05-02T13:43:04.999Z</time></trkpt><trkpt lat="44.75688105182941" lon="9.937718842059578"><ele>613.3333333333334</ele><time>2026-05-02T13:43:06.999Z</time></trkpt><trkpt lat="44.75686021956222" lon="9.937603633356792"><ele>613.6666666666667</ele><time>2026-05-02T13:43:09.999Z</time></trkpt><trkpt lat="44.756848075406225" lon="9.937494286354712"><ele>614.0</ele><time>2026-05-02T13:43:12.999Z</time></trkpt><trkpt lat="44.75684573450823" lon="9.937385735604755"><ele>614.3333333333334</ele><time>2026-05-02T13:43:15.999Z</time></trkpt><trkpt lat="44.75685007542435" lon="9.937277121590597"><ele>614.6666666666666</ele><time>2026-05-02T13:43:18.999Z</time></trkpt><trkpt lat="44.75685930959402" lon="9.937170303647436"><ele>615.0</ele><time>2026-05-02T13:43:21.999Z</time></trkpt><trkpt lat="44.75686933078365" lon="9.937064438178885"><ele>615.0</ele><time>2026-05-02T13:43:24.998Z</time></trkpt><trkpt lat="44.75681619205881" lon="9.93711542532698"><ele>615.0</ele><time>2026-05-02T13:43:31.998Z</time></trkpt><trkpt lat="44.756782326426375" lon="9.937202266655351"><ele>615.0</ele><time>2026-05-02T13:49:25.999Z</time></trkpt><trkpt lat="44.756790377599216" lon="9.937308121708531"><ele>615.0</ele><time>2026-05-02T13:49:27.999Z</time></trkpt><trkpt lat="44.7567999965279" lon="9.937432027581366"><ele>615.0</ele><time>2026-05-02T13:49:29.999Z</time></trkpt><trkpt lat="44.75681764057833" lon="9.937565586611312"><ele>615.0</ele><time>2026-05-02T13:49:31.998Z</time></trkpt><trkpt lat="44.756840835719984" lon="9.937711072319424"><ele>615.0</ele><time>2026-05-02T13:49:33.998Z</time></trkpt><trkpt lat="44.75685938189376" lon="9.937862713595631"><ele>615.0</ele><time>2026-05-02T13:49:35.998Z</time></trkpt><trkpt lat="44.75688686855475" lon="9.938035388416358"><ele>615.0</ele><time>2026-05-02T13:49:37.998Z</time></trkpt><trkpt lat="44.75690611527555" lon="9.938125975456986"><ele>615.0</ele><time>2026-05-02T13:49:38.998Z</time></trkpt><trkpt lat="44.75692135084488" lon="9.938222384792173"><ele>615.0</ele><time>2026-05-02T13:49:39.998Z</time></trkpt><trkpt lat="44.75693812325206" lon="9.938322007783858"><ele>615.0</ele><time>2026-05-02T13:49:40.998Z</time></trkpt><trkpt lat="44.75695529881031" lon="9.93842579879697"><ele>614.3333333333334</ele><time>2026-05-02T13:49:41.998Z</time></trkpt><trkpt lat="44.75697508037384" lon="9.93853057297792"><ele>613.6666666666666</ele><time>2026-05-02T13:49:42.998Z</time></trkpt><trkpt lat="44.75699873360516" lon="9.938640128221136"><ele>613.0</ele><time>2026-05-02T13:49:43.998Z</time></trkpt><trkpt lat="44.757027459084085" lon="9.938744707373782"><ele>612.3333333333333</ele><time>2026-05-02T13:49:44.998Z</time></trkpt><trkpt lat="44.75707232132259" lon="9.938848586291627"><ele>611.6666666666666</ele><time>2026-05-02T13:49:45.998Z</time></trkpt><trkpt lat="44.757142201936986" lon="9.938929999511101"><ele>611.0</ele><time>2026-05-02T13:49:46.998Z</time></trkpt><trkpt lat="44.75721122486109" lon="9.939016212288617"><ele>611.0</ele><time>2026-05-02T13:49:47.998Z</time></trkpt><trkpt lat="44.757296759900576" lon="9.939061969804214"><ele>611.0</ele><time>2026-05-02T13:49:48.998Z</time></trkpt><trkpt lat="44.757389818017074" lon="9.93907591238726"><ele>611.0</ele><time>2026-05-02T13:49:49.998Z</time></trkpt><trkpt lat="44.75748065787668" lon="9.939058223190518"><ele>611.0</ele><time>2026-05-02T13:49:50.998Z</time></trkpt><trkpt lat="44.757564002583855" lon="9.938993378374063"><ele>611.0</ele><time>2026-05-02T13:49:51.998Z</time></trkpt><trkpt lat="44.75760863491395" lon="9.938865599080671"><ele>611.0</ele><time>2026-05-02T13:49:52.998Z</time></trkpt><trkpt lat="44.75764327917956" lon="9.938744707628135"><ele>611.0</ele><time>2026-05-02T13:49:53.998Z</time></trkpt><trkpt lat="44.757645685780936" lon="9.938617618507331"><ele>611.0</ele><time>2026-05-02T13:49:54.998Z</time></trkpt><trkpt lat="44.757617225798064" lon="9.938492099886231"><ele>611.0</ele><time>2026-05-02T13:49:55.998Z</time></trkpt><trkpt lat="44.757563828518336" lon="9.938383081407416"><ele>611.0</ele><time>2026-05-02T13:49:56.998Z</time></trkpt><trkpt lat="44.75748785065702" lon="9.938301981301837"><ele>611.4</ele><time>2026-05-02T13:49:57.998Z</time></trkpt><trkpt lat="44.75740919391618" lon="9.938232094275573"><ele>611.8</ele><time>2026-05-02T13:49:58.998Z</time></trkpt><trkpt lat="44.757329558646525" lon="9.938154637032103"><ele>612.1999999999999</ele><time>2026-05-02T13:49:59.998Z</time></trkpt><trkpt lat="44.75726538316777" lon="9.93804975449449"><ele>612.6</ele><time>2026-05-02T13:50:00.998Z</time></trkpt><trkpt lat="44.75722069476083" lon="9.93792613300259"><ele>613.0</ele><time>2026-05-02T13:50:01.998Z</time></trkpt><trkpt lat="44.757192212873775" lon="9.93779429381609"><ele>613.0</ele><time>2026-05-02T13:50:02.998Z</time></trkpt><trkpt lat="44.757193424322985" lon="9.937661200109863"><ele>613.0</ele><time>2026-05-02T13:50:03.998Z</time></trkpt><trkpt lat="44.75722666902145" lon="9.937527600334574"><ele>613.0</ele><time>2026-05-02T13:50:04.998Z</time></trkpt><trkpt lat="44.757264632082816" lon="9.937400474826912"><ele>613.0</ele><time>2026-05-02T13:50:05.998Z</time></trkpt><trkpt lat="44.75730852578696" lon="9.937277758082029"><ele>613.0</ele><time>2026-05-02T13:50:06.998Z</time></trkpt><trkpt lat="44.75734987652862" lon="9.937153297045505"><ele>612.8</ele><time>2026-05-02T13:50:07.998Z</time></trkpt><trkpt lat="44.75739125811818" lon="9.93702515343187"><ele>612.5999999999999</ele><time>2026-05-02T13:50:08.998Z</time></trkpt><trkpt lat="44.757434086005524" lon="9.936896561512288"><ele>612.4000000000001</ele><time>2026-05-02T13:50:09.998Z</time></trkpt><trkpt lat="44.757477895367536" lon="9.936769842927443"><ele>612.2</ele><time>2026-05-02T13:50:10.998Z</time></trkpt><trkpt lat="44.75752070730846" lon="9.936646207161477"><ele>612.0</ele><time>2026-05-02T13:50:11.998Z</time></trkpt><trkpt lat="44.7575674151402" lon="9.936528811260892"><ele>612.0</ele><time>2026-05-02T13:50:12.998Z</time></trkpt><trkpt lat="44.75761622463172" lon="9.936410474553455"><ele>612.0</ele><time>2026-05-02T13:50:13.998Z</time></trkpt><trkpt lat="44.75766616482095" lon="9.936288505566708"><ele>612.0</ele><time>2026-05-02T13:50:14.998Z</time></trkpt><trkpt lat="44.75772184655644" lon="9.936172405606891"><ele>612.0</ele><time>2026-05-02T13:50:15.998Z</time></trkpt><trkpt lat="44.757805526660995" lon="9.936088717273444"><ele>612.0</ele><time>2026-05-02T13:50:16.998Z</time></trkpt><trkpt lat="44.757887481906735" lon="9.93601652256866"><ele>608.0</ele><time>2026-05-02T13:50:17.998Z</time></trkpt><trkpt lat="44.75796923627371" lon="9.935986734153133"><ele>604.0</ele><time>2026-05-02T13:50:18.998Z</time></trkpt><trkpt lat="44.75805186136739" lon="9.936003541146034"><ele>600.0</ele><time>2026-05-02T13:50:19.998Z</time></trkpt><trkpt lat="44.75813927264087" lon="9.936028193100716"><ele>596.0</ele><time>2026-05-02T13:50:21Z</time></trkpt><trkpt lat="44.75822359210469" lon="9.936060823486063"><ele>592.0</ele><time>2026-05-02T13:50:22Z</time></trkpt><trkpt lat="44.75829252064445" lon="9.936099275653728"><ele>588.0</ele><time>2026-05-02T13:50:22.999Z</time></trkpt><trkpt lat="44.7583559765743" lon="9.936195460225662"><ele>588.0</ele><time>2026-05-02T13:50:25Z</time></trkpt><trkpt lat="44.75829616250427" lon="9.936353604255975"><ele>588.0</ele><time>2026-05-02T13:50:27Z</time></trkpt><trkpt lat="44.758218791137196" lon="9.936404196457632"><ele>588.0</ele><time>2026-05-02T13:50:28Z</time></trkpt><trkpt lat="44.758145457338806" lon="9.936471379189584"><ele>588.0</ele><time>2026-05-02T13:50:29Z</time></trkpt><trkpt lat="44.75808147781979" lon="9.936570976575013"><ele>588.0</ele><time>2026-05-02T13:50:30Z</time></trkpt><trkpt lat="44.7580294205564" lon="9.936686154228724"><ele>586.8</ele><time>2026-05-02T13:50:31Z</time></trkpt><trkpt lat="44.75798540748068" lon="9.936803015393654"><ele>585.5999999999999</ele><time>2026-05-02T13:50:32Z</time></trkpt><trkpt lat="44.757950341728716" lon="9.936937723239337"><ele>584.4000000000001</ele><time>2026-05-02T13:50:33Z</time></trkpt><trkpt lat="44.75790952871469" lon="9.937068923510584"><ele>583.2</ele><time>2026-05-02T13:50:34Z</time></trkpt><trkpt lat="44.75788821546804" lon="9.937214708966417"><ele>582.0</ele><time>2026-05-02T13:50:35Z</time></trkpt><trkpt lat="44.75788383975591" lon="9.937373755131931"><ele>582.0</ele><time>2026-05-02T13:50:35.999Z</time></trkpt><trkpt lat="44.7578958347969" lon="9.937535563841397"><ele>582.0</ele><time>2026-05-02T13:50:36.999Z</time></trkpt><trkpt lat="44.75792542200913" lon="9.937689820251167"><ele>582.0</ele><time>2026-05-02T13:50:37.999Z</time></trkpt><trkpt lat="44.757977736396995" lon="9.937841780890244"><ele>582.0</ele><time>2026-05-02T13:50:38.999Z</time></trkpt><trkpt lat="44.7580706008536" lon="9.937965484842648"><ele>582.6</ele><time>2026-05-02T13:50:39.999Z</time></trkpt><trkpt lat="44.75814414354651" lon="9.938066294249754"><ele>583.2</ele><time>2026-05-02T13:50:40.999Z</time></trkpt><trkpt lat="44.75819561641907" lon="9.938182693964055"><ele>583.8</ele><time>2026-05-02T13:50:41.999Z</time></trkpt><trkpt lat="44.758214324086964" lon="9.93830672128105"><ele>584.4</ele><time>2026-05-02T13:50:42.999Z</time></trkpt><trkpt lat="44.75823266166301" lon="9.938456697414749"><ele>585.0</ele><time>2026-05-02T13:50:43.999Z</time></trkpt><trkpt lat="44.75825390665764" lon="9.938598851062164"><ele>586.75</ele><time>2026-05-02T13:50:44.999Z</time></trkpt><trkpt lat="44.75829594704495" lon="9.938738587148517"><ele>588.5</ele><time>2026-05-02T13:50:45.999Z</time></trkpt><trkpt lat="44.75839461366033" lon="9.938852759965881"><ele>590.25</ele><time>2026-05-02T13:50:46.999Z</time></trkpt><trkpt lat="44.75852123285416" lon="9.938902218158395"><ele>592.0</ele><time>2026-05-02T13:50:47.999Z</time></trkpt><trkpt lat="44.75863935227588" lon="9.938893592838712"><ele>587.4</ele><time>2026-05-02T13:50:48.999Z</time></trkpt><trkpt lat="44.758745749779074" lon="9.938892062475384"><ele>582.8000000000001</ele><time>2026-05-02T13:50:49.999Z</time></trkpt><trkpt lat="44.758847109003035" lon="9.938905107615774"><ele>578.2</ele><time>2026-05-02T13:50:50.999Z</time></trkpt><trkpt lat="44.758937430473225" lon="9.938941244568749"><ele>573.6</ele><time>2026-05-02T13:50:51.999Z</time></trkpt><trkpt lat="44.75899642988423" lon="9.93902755629258"><ele>569.0</ele><time>2026-05-02T13:50:52.999Z</time></trkpt><trkpt lat="44.75905235992601" lon="9.939133970148836"><ele>569.2</ele><time>2026-05-02T13:50:53.999Z</time></trkpt><trkpt lat="44.759101057585724" lon="9.939263227576973"><ele>569.4</ele><time>2026-05-02T13:50:54.999Z</time></trkpt><trkpt lat="44.759134057192995" lon="9.939390696195638"><ele>569.6</ele><time>2026-05-02T13:50:55.999Z</time></trkpt><trkpt lat="44.75915568401961" lon="9.939528701338917"><ele>569.8</ele><time>2026-05-02T13:50:56.999Z</time></trkpt><trkpt lat="44.75916094015973" lon="9.939664636015953"><ele>570.0</ele><time>2026-05-02T13:50:57.999Z</time></trkpt><trkpt lat="44.75915164847533" lon="9.939812273099145"><ele>570.0</ele><time>2026-05-02T13:50:58.999Z</time></trkpt><trkpt lat="44.759087798110734" lon="9.939939916256145"><ele>570.0</ele><time>2026-05-02T13:50:59.999Z</time></trkpt><trkpt lat="44.75902264089965" lon="9.940063886355588"><ele>570.0</ele><time>2026-05-02T13:51:00.999Z</time></trkpt><trkpt lat="44.758962255624525" lon="9.940202882421932"><ele>570.0</ele><time>2026-05-02T13:51:01.999Z</time></trkpt><trkpt lat="44.758946381171924" lon="9.940371409510366"><ele>568.75</ele><time>2026-05-02T13:51:02.999Z</time></trkpt><trkpt lat="44.758987140163484" lon="9.940548212358582"><ele>567.5</ele><time>2026-05-02T13:51:03.999Z</time></trkpt><trkpt lat="44.75901531894214" lon="9.940686978621141"><ele>566.25</ele><time>2026-05-02T13:51:04.999Z</time></trkpt><trkpt lat="44.75902315669112" lon="9.940836783249967"><ele>565.0</ele><time>2026-05-02T13:51:05.999Z</time></trkpt><trkpt lat="44.759008307513334" lon="9.940998773814131"><ele>562.75</ele><time>2026-05-02T13:51:06.999Z</time></trkpt><trkpt lat="44.75898476917696" lon="9.941164392176313"><ele>560.5</ele><time>2026-05-02T13:51:07.999Z</time></trkpt><trkpt lat="44.75895527397886" lon="9.941329742830778"><ele>558.25</ele><time>2026-05-02T13:51:08.999Z</time></trkpt><trkpt lat="44.758921316686234" lon="9.941497526738065"><ele>556.0</ele><time>2026-05-02T13:51:09.999Z</time></trkpt><trkpt lat="44.75888696938166" lon="9.9416681069195"><ele>554.0</ele><time>2026-05-02T13:51:10.999Z</time></trkpt><trkpt lat="44.75885532531361" lon="9.941843190928184"><ele>552.0</ele><time>2026-05-02T13:51:11.999Z</time></trkpt><trkpt lat="44.75883470292345" lon="9.942022365429489"><ele>550.0</ele><time>2026-05-02T13:51:12.999Z</time></trkpt><trkpt lat="44.75882844763323" lon="9.942210242879243"><ele>548.0</ele><time>2026-05-02T13:51:13.999Z</time></trkpt><trkpt lat="44.758842042311315" lon="9.942404481149579"><ele>547.4</ele><time>2026-05-02T13:51:14.999Z</time></trkpt><trkpt lat="44.758865357937985" lon="9.942577725058953"><ele>546.8</ele><time>2026-05-02T13:51:15.999Z</time></trkpt><trkpt lat="44.758890161961894" lon="9.94273268600898"><ele>546.2</ele><time>2026-05-02T13:51:16.999Z</time></trkpt><trkpt lat="44.758912402156994" lon="9.942862461143637"><ele>545.6</ele><time>2026-05-02T13:51:17.999Z</time></trkpt><trkpt lat="44.758929596890994" lon="9.942963028395456"><ele>545.0</ele><time>2026-05-02T13:51:18.999Z</time></trkpt><trkpt lat="44.75896986367185" lon="9.943068016856927"><ele>545.0</ele><time>2026-05-02T13:51:19.999Z</time></trkpt><trkpt lat="44.75905006051992" lon="9.94312930301993"><ele>545.0</ele><time>2026-05-02T13:51:20.999Z</time></trkpt><trkpt lat="44.75917152024822" lon="9.942995538803734"><ele>545.0</ele><time>2026-05-02T13:51:21.999Z</time></trkpt><trkpt lat="44.7591677548812" lon="9.942846771329418"><ele>545.0</ele><time>2026-05-02T13:51:22.999Z</time></trkpt><trkpt lat="44.75915356409955" lon="9.942738399710915"><ele>545.0</ele><time>2026-05-02T13:51:23.999Z</time></trkpt><trkpt lat="44.75915222974619" lon="9.94263362147427"><ele>545.5</ele><time>2026-05-02T13:51:24.999Z</time></trkpt><trkpt lat="44.759147181991935" lon="9.942517347641006"><ele>546.0</ele><time>2026-05-02T13:51:25.999Z</time></trkpt><trkpt lat="44.75914776381232" lon="9.942398877996121"><ele>546.5</ele><time>2026-05-02T13:51:26.999Z</time></trkpt><trkpt lat="44.759159286779415" lon="9.9422749736878"><ele>547.0</ele><time>2026-05-02T13:51:27.999Z</time></trkpt><trkpt lat="44.759186907617064" lon="9.942153579080342"><ele>547.5</ele><time>2026-05-02T13:51:28.999Z</time></trkpt><trkpt lat="44.759232600001205" lon="9.94203362735857"><ele>548.0</ele><time>2026-05-02T13:51:29.999Z</time></trkpt><trkpt lat="44.759288014961484" lon="9.941920032599327"><ele>548.0</ele><time>2026-05-02T13:51:30.999Z</time></trkpt><trkpt lat="44.75934340299541" lon="9.941808356432594"><ele>548.0</ele><time>2026-05-02T13:51:31.999Z</time></trkpt><trkpt lat="44.75940170145016" lon="9.941692090872037"><ele>548.0</ele><time>2026-05-02T13:51:32.999Z</time></trkpt><trkpt lat="44.759461163335565" lon="9.941572225187976"><ele>548.0</ele><time>2026-05-02T13:51:33.999Z</time></trkpt><trkpt lat="44.75952335102244" lon="9.941451456691604"><ele>548.0</ele><time>2026-05-02T13:51:34.998Z</time></trkpt><trkpt lat="44.75958277076124" lon="9.941327593393444"><ele>546.4</ele><time>2026-05-02T13:51:35.998Z</time></trkpt><trkpt lat="44.75964386726333" lon="9.94120313552712"><ele>544.8</ele><time>2026-05-02T13:51:36.998Z</time></trkpt><trkpt lat="44.759711526252474" lon="9.941078937599851"><ele>543.2</ele><time>2026-05-02T13:51:37.998Z</time></trkpt><trkpt lat="44.75978026921619" lon="9.940953978682407"><ele>541.6</ele><time>2026-05-02T13:51:38.998Z</time></trkpt><trkpt lat="44.75985476413025" lon="9.940834148829419"><ele>540.0</ele><time>2026-05-02T13:51:39.998Z</time></trkpt><trkpt lat="44.75993240335487" lon="9.940721288563891"><ele>540.0</ele><time>2026-05-02T13:51:40.998Z</time></trkpt><trkpt lat="44.760009628377645" lon="9.940600293052572"><ele>540.0</ele><time>2026-05-02T13:51:41.998Z</time></trkpt><trkpt lat="44.76008565489895" lon="9.940479812405318"><ele>540.0</ele><time>2026-05-02T13:51:42.998Z</time></trkpt><trkpt lat="44.760164374851136" lon="9.940369351697008"><ele>540.0</ele><time>2026-05-02T13:51:43.998Z</time></trkpt><trkpt lat="44.7602552121406" lon="9.940274300693504"><ele>536.5</ele><time>2026-05-02T13:51:44.998Z</time></trkpt><trkpt lat="44.76036117079032" lon="9.940216027611921"><ele>533.0</ele><time>2026-05-02T13:51:45.998Z</time></trkpt><trkpt lat="44.76047466289648" lon="9.940186758269379"><ele>529.5</ele><time>2026-05-02T13:51:46.998Z</time></trkpt><trkpt lat="44.76058751864568" lon="9.940145710039765"><ele>526.0</ele><time>2026-05-02T13:51:47.998Z</time></trkpt><trkpt lat="44.7606957857371" lon="9.940093914755625"><ele>526.0</ele><time>2026-05-02T13:51:48.998Z</time></trkpt><trkpt lat="44.760809183263504" lon="9.940097380788863"><ele>526.0</ele><time>2026-05-02T13:51:49.998Z</time></trkpt><trkpt lat="44.76089249551521" lon="9.940069435500856"><ele>526.0</ele><time>2026-05-02T13:51:50.998Z</time></trkpt><trkpt lat="44.760962610177224" lon="9.940072362644413"><ele>526.0</ele><time>2026-05-02T13:51:51.998Z</time></trkpt><trkpt lat="44.760996125582835" lon="9.940169562192935"><ele>526.0</ele><time>2026-05-02T13:51:53.998Z</time></trkpt><trkpt lat="44.76096820593596" lon="9.940308636992048"><ele>526.0</ele><time>2026-05-02T13:51:55.998Z</time></trkpt><trkpt lat="44.760925173010385" lon="9.940405501295544"><ele>526.0</ele><time>2026-05-02T13:51:56.998Z</time></trkpt><trkpt lat="44.76086543875021" lon="9.94049072109892"><ele>526.0</ele><time>2026-05-02T13:51:57.998Z</time></trkpt><trkpt lat="44.76080476376883" lon="9.940582146492583"><ele>526.0</ele><time>2026-05-02T13:51:58.998Z</time></trkpt><trkpt lat="44.76074167907302" lon="9.940674363386098"><ele>526.0</ele><time>2026-05-02T13:51:59.998Z</time></trkpt><trkpt lat="44.760679916292034" lon="9.940773787759275"><ele>526.0</ele><time>2026-05-02T13:52:00.998Z</time></trkpt><trkpt lat="44.760620282271795" lon="9.940884925477887"><ele>523.8</ele><time>2026-05-02T13:52:01.998Z</time></trkpt><trkpt lat="44.76054926430666" lon="9.940986511169314"><ele>521.6</ele><time>2026-05-02T13:52:02.998Z</time></trkpt><trkpt lat="44.76049780427145" lon="9.941124290957884"><ele>519.4</ele><time>2026-05-02T13:52:03.998Z</time></trkpt><trkpt lat="44.76045961669482" lon="9.941262809883037"><ele>517.2</ele><time>2026-05-02T13:52:04.998Z</time></trkpt><trkpt lat="44.760427381719175" lon="9.941406374679906"><ele>515.0</ele><time>2026-05-02T13:52:05.998Z</time></trkpt><trkpt lat="44.76039615463634" lon="9.941550180516895"><ele>515.0</ele><time>2026-05-02T13:52:06.998Z</time></trkpt><trkpt lat="44.76036642183927" lon="9.94169904138602"><ele>515.0</ele><time>2026-05-02T13:52:07.998Z</time></trkpt><trkpt lat="44.760337946794536" lon="9.941846491374333"><ele>515.0</ele><time>2026-05-02T13:52:08.998Z</time></trkpt><trkpt lat="44.76030943369884" lon="9.942000702201515"><ele>515.0</ele><time>2026-05-02T13:52:09.998Z</time></trkpt><trkpt lat="44.76028370903294" lon="9.942154188628445"><ele>515.0</ele><time>2026-05-02T13:52:10.998Z</time></trkpt><trkpt lat="44.76026115175935" lon="9.942304131985342"><ele>515.0</ele><time>2026-05-02T13:52:11.998Z</time></trkpt><trkpt lat="44.76024322528371" lon="9.942464762242338"><ele>515.0</ele><time>2026-05-02T13:52:12.998Z</time></trkpt><trkpt lat="44.76025468367758" lon="9.942640132159488"><ele>515.0</ele><time>2026-05-02T13:52:13.998Z</time></trkpt><trkpt lat="44.760332312320806" lon="9.94280081595789"><ele>515.0</ele><time>2026-05-02T13:52:14.998Z</time></trkpt><trkpt lat="44.76041024863193" lon="9.942925424366186"><ele>515.0</ele><time>2026-05-02T13:52:15.998Z</time></trkpt><trkpt lat="44.76047274686638" lon="9.943041890888999"><ele>515.0</ele><time>2026-05-02T13:52:16.998Z</time></trkpt><trkpt lat="44.76051621482851" lon="9.943161044712543"><ele>515.0</ele><time>2026-05-02T13:52:17.998Z</time></trkpt><trkpt lat="44.76055211508856" lon="9.943295552924349"><ele>515.0</ele><time>2026-05-02T13:52:18.998Z</time></trkpt><trkpt lat="44.76058621305994" lon="9.943445551012179"><ele>515.0</ele><time>2026-05-02T13:52:19.998Z</time></trkpt><trkpt lat="44.760620011097295" lon="9.943597336976486"><ele>514.0</ele><time>2026-05-02T13:52:20.998Z</time></trkpt><trkpt lat="44.76065498861646" lon="9.94374774204824"><ele>513.0</ele><time>2026-05-02T13:52:21.998Z</time></trkpt><trkpt lat="44.76069790590486" lon="9.94389183891998"><ele>512.0</ele><time>2026-05-02T13:52:22.998Z</time></trkpt><trkpt lat="44.76075740433009" lon="9.944018136848609"><ele>511.0</ele><time>2026-05-02T13:52:23.998Z</time></trkpt><trkpt lat="44.76084581968115" lon="9.944093913477948"><ele>510.0</ele><time>2026-05-02T13:52:24.998Z</time></trkpt><trkpt lat="44.76096049466128" lon="9.944059174071846"><ele>510.0</ele><time>2026-05-02T13:52:25.999Z</time></trkpt><trkpt lat="44.76101044178178" lon="9.943899695817722"><ele>510.0</ele><time>2026-05-02T13:52:26.999Z</time></trkpt><trkpt lat="44.761041484343295" lon="9.943791429908552"><ele>510.0</ele><time>2026-05-02T13:52:27.999Z</time></trkpt><trkpt lat="44.76105712340075" lon="9.943701301666163"><ele>510.0</ele><time>2026-05-02T13:52:28.999Z</time></trkpt><trkpt lat="44.76107701954868" lon="9.943595122488292"><ele>510.0</ele><time>2026-05-02T13:52:29.999Z</time></trkpt><trkpt lat="44.76108995930293" lon="9.943483385254332"><ele>510.0</ele><time>2026-05-02T13:52:30.999Z</time></trkpt><trkpt lat="44.76109667062913" lon="9.94336631153798"><ele>511.0</ele><time>2026-05-02T13:52:31.999Z</time></trkpt><trkpt lat="44.761087582591614" lon="9.943243336308193"><ele>512.0</ele><time>2026-05-02T13:52:32.999Z</time></trkpt><trkpt lat="44.761060906179715" lon="9.943123386880178"><ele>513.0</ele><time>2026-05-02T13:52:33.999Z</time></trkpt><trkpt lat="44.76102277490582" lon="9.943004180865188"><ele>514.0</ele><time>2026-05-02T13:52:34.999Z</time></trkpt><trkpt lat="44.760988623461515" lon="9.942881864089657"><ele>515.0</ele><time>2026-05-02T13:52:35.999Z</time></trkpt><trkpt lat="44.76098153741309" lon="9.942745647331343"><ele>515.0</ele><time>2026-05-02T13:52:36.999Z</time></trkpt><trkpt lat="44.760996566981355" lon="9.942608577288961"><ele>515.0</ele><time>2026-05-02T13:52:37.999Z</time></trkpt><trkpt lat="44.761034412107236" lon="9.942478897977054"><ele>515.0</ele><time>2026-05-02T13:52:38.999Z</time></trkpt><trkpt lat="44.761092719293174" lon="9.942354865044758"><ele>515.0</ele><time>2026-05-02T13:52:39.999Z</time></trkpt><trkpt lat="44.761161252404065" lon="9.942238161036848"><ele>515.0</ele><time>2026-05-02T13:52:40.999Z</time></trkpt><trkpt lat="44.76122947475766" lon="9.942115752920326"><ele>511.75</ele><time>2026-05-02T13:52:41.999Z</time></trkpt><trkpt lat="44.761296902521565" lon="9.941989179893206"><ele>508.5</ele><time>2026-05-02T13:52:42.999Z</time></trkpt><trkpt lat="44.76136762264814" lon="9.9418660450132"><ele>505.25</ele><time>2026-05-02T13:52:43.999Z</time></trkpt><trkpt lat="44.76146754328362" lon="9.941789977008414"><ele>502.0</ele><time>2026-05-02T13:52:44.999Z</time></trkpt><trkpt lat="44.761567895623486" lon="9.941715044020507"><ele>502.0</ele><time>2026-05-02T13:52:45.999Z</time></trkpt><trkpt lat="44.76167794536437" lon="9.941671225905502"><ele>502.00000000000006</ele><time>2026-05-02T13:52:46.999Z</time></trkpt><trkpt lat="44.761784744098584" lon="9.941661394850222"><ele>502.00000000000006</ele><time>2026-05-02T13:52:47.999Z</time></trkpt><trkpt lat="44.76188796298669" lon="9.941674876450806"><ele>502.0</ele><time>2026-05-02T13:52:48.999Z</time></trkpt><trkpt lat="44.761999534808865" lon="9.941689426072127"><ele>502.0</ele><time>2026-05-02T13:52:49.999Z</time></trkpt><trkpt lat="44.76211578589784" lon="9.94167706122238"><ele>499.25</ele><time>2026-05-02T13:52:50.999Z</time></trkpt><trkpt lat="44.76222661422835" lon="9.941600784207646"><ele>496.5</ele><time>2026-05-02T13:52:51.999Z</time></trkpt><trkpt lat="44.76230872969385" lon="9.94147917002138"><ele>493.75</ele><time>2026-05-02T13:52:52.999Z</time></trkpt><trkpt lat="44.76238419433938" lon="9.941361222712512"><ele>491.0</ele><time>2026-05-02T13:52:53.999Z</time></trkpt><trkpt lat="44.76245257410215" lon="9.941228009177726"><ele>491.0</ele><time>2026-05-02T13:52:54.999Z</time></trkpt><trkpt lat="44.76252121260285" lon="9.941105686019304"><ele>491.0</ele><time>2026-05-02T13:52:55.999Z</time></trkpt><trkpt lat="44.76260770220581" lon="9.94104065227845"><ele>491.0</ele><time>2026-05-02T13:52:56.999Z</time></trkpt><trkpt lat="44.76269395177211" lon="9.941011468740761"><ele>491.0</ele><time>2026-05-02T13:52:57.999Z</time></trkpt><trkpt lat="44.7627806330048" lon="9.941036579439213"><ele>491.0</ele><time>2026-05-02T13:52:58.999Z</time></trkpt><trkpt lat="44.762851362863984" lon="9.941097045781316"><ele>488.4</ele><time>2026-05-02T13:52:59.999Z</time></trkpt><trkpt lat="44.762949483998554" lon="9.941151874073158"><ele>485.8</ele><time>2026-05-02T13:53:00.999Z</time></trkpt><trkpt lat="44.76305224025607" lon="9.941193411029454"><ele>483.19999999999993</ele><time>2026-05-02T13:53:01.999Z</time></trkpt><trkpt lat="44.76316748790349" lon="9.941192364849591"><ele>480.59999999999997</ele><time>2026-05-02T13:53:02.999Z</time></trkpt><trkpt lat="44.76328036175472" lon="9.941132915394897"><ele>478.0</ele><time>2026-05-02T13:53:03.999Z</time></trkpt><trkpt lat="44.76338238214122" lon="9.94106335961597"><ele>478.0</ele><time>2026-05-02T13:53:04.999Z</time></trkpt><trkpt lat="44.763482026975616" lon="9.940999675909879"><ele>477.99999999999994</ele><time>2026-05-02T13:53:05.999Z</time></trkpt><trkpt lat="44.76358002211714" lon="9.940931293476872"><ele>477.99999999999994</ele><time>2026-05-02T13:53:06.999Z</time></trkpt><trkpt lat="44.763668211939965" lon="9.940833420469449"><ele>478.0</ele><time>2026-05-02T13:53:07.999Z</time></trkpt><trkpt lat="44.76374992062434" lon="9.940731529973785"><ele>478.0</ele><time>2026-05-02T13:53:08.999Z</time></trkpt><trkpt lat="44.76380869807842" lon="9.940610088671175"><ele>476.59999999999997</ele><time>2026-05-02T13:53:09.999Z</time></trkpt><trkpt lat="44.76385044919827" lon="9.94049333623206"><ele>475.19999999999993</ele><time>2026-05-02T13:53:10.999Z</time></trkpt><trkpt lat="44.763889375214795" lon="9.940414624240876"><ele>473.8</ele><time>2026-05-02T13:53:11.999Z</time></trkpt><trkpt lat="44.7639943496661" lon="9.940443701125485"><ele>472.4</ele><time>2026-05-02T13:53:13.999Z</time></trkpt><trkpt lat="44.763965203095395" lon="9.940542046242202"><ele>471.0</ele><time>2026-05-02T13:53:14.999Z</time></trkpt><trkpt lat="44.7639336538407" lon="9.940685135987042"><ele>471.0</ele><time>2026-05-02T13:53:16.999Z</time></trkpt><trkpt lat="44.76392019383221" lon="9.940790077527991"><ele>471.0</ele><time>2026-05-02T13:53:17.999Z</time></trkpt><trkpt lat="44.76387831024572" lon="9.940888540336971"><ele>471.0</ele><time>2026-05-02T13:53:18.999Z</time></trkpt><trkpt lat="44.763830470894476" lon="9.940986924826708"><ele>471.0</ele><time>2026-05-02T13:53:19.999Z</time></trkpt><trkpt lat="44.76377740332501" lon="9.941088157926984"><ele>471.0</ele><time>2026-05-02T13:53:20.999Z</time></trkpt><trkpt lat="44.76371827221038" lon="9.941189758401203"><ele>471.0</ele><time>2026-05-02T13:53:21.999Z</time></trkpt><trkpt lat="44.76365948640423" lon="9.941299630508942"><ele>470.0</ele><time>2026-05-02T13:53:22.999Z</time></trkpt><trkpt lat="44.76360234106238" lon="9.941414686438156"><ele>469.0</ele><time>2026-05-02T13:53:23.999Z</time></trkpt><trkpt lat="44.76352883749989" lon="9.94152011312079"><ele>468.0</ele><time>2026-05-02T13:53:24.999Z</time></trkpt><trkpt lat="44.763479645782084" lon="9.941657076433048"><ele>467.0</ele><time>2026-05-02T13:53:25.999Z</time></trkpt><trkpt lat="44.7634155492642" lon="9.94178222641938"><ele>466.0</ele><time>2026-05-02T13:53:26.999Z</time></trkpt><trkpt lat="44.763338494905454" lon="9.941899292930847"><ele>466.0</ele><time>2026-05-02T13:53:27.999Z</time></trkpt><trkpt lat="44.76327436319781" lon="9.942031847705275"><ele>466.0</ele><time>2026-05-02T13:53:28.999Z</time></trkpt><trkpt lat="44.76323162309983" lon="9.942177491089003"><ele>466.0</ele><time>2026-05-02T13:53:29.999Z</time></trkpt><trkpt lat="44.763176989923764" lon="9.942308405892458"><ele>466.0</ele><time>2026-05-02T13:53:30.999Z</time></trkpt><trkpt lat="44.763117850226216" lon="9.942412958872003"><ele>466.0</ele><time>2026-05-02T13:53:31.999Z</time></trkpt><trkpt lat="44.76308321213741" lon="9.942540758146642"><ele>465.5</ele><time>2026-05-02T13:53:32.999Z</time></trkpt><trkpt lat="44.763097577592234" lon="9.942684590358926"><ele>465.0</ele><time>2026-05-02T13:53:33.999Z</time></trkpt><trkpt lat="44.76320724184493" lon="9.942809823105533"><ele>464.5</ele><time>2026-05-02T13:53:34.999Z</time></trkpt><trkpt lat="44.76334865923295" lon="9.942781255555031"><ele>464.0</ele><time>2026-05-02T13:53:35.999Z</time></trkpt><trkpt lat="44.76345113716705" lon="9.942733456156224"><ele>462.2</ele><time>2026-05-02T13:53:36.999Z</time></trkpt><trkpt lat="44.76354705740673" lon="9.942690618850797"><ele>460.4</ele><time>2026-05-02T13:53:37.998Z</time></trkpt><trkpt lat="44.76364767975542" lon="9.942634344095218"><ele>458.6</ele><time>2026-05-02T13:53:38.998Z</time></trkpt><trkpt lat="44.76374777748034" lon="9.942565103602133"><ele>456.8</ele><time>2026-05-02T13:53:39.998Z</time></trkpt><trkpt lat="44.763843276008224" lon="9.942472254457746"><ele>455.0</ele><time>2026-05-02T13:53:40.998Z</time></trkpt><trkpt lat="44.76392644980644" lon="9.942355777928736"><ele>455.0</ele><time>2026-05-02T13:53:41.998Z</time></trkpt><trkpt lat="44.764019144558475" lon="9.942252206536207"><ele>455.0</ele><time>2026-05-02T13:53:42.998Z</time></trkpt><trkpt lat="44.76412772525623" lon="9.942176356395983"><ele>455.0</ele><time>2026-05-02T13:53:43.998Z</time></trkpt><trkpt lat="44.76423609997806" lon="9.942087691864906"><ele>455.0</ele><time>2026-05-02T13:53:44.998Z</time></trkpt><trkpt lat="44.76434605664531" lon="9.942002480521184"><ele>452.25</ele><time>2026-05-02T13:53:45.998Z</time></trkpt><trkpt lat="44.76446252920421" lon="9.941914286213484"><ele>449.5</ele><time>2026-05-02T13:53:46.998Z</time></trkpt><trkpt lat="44.76457901131183" lon="9.941826084688195"><ele>446.75</ele><time>2026-05-02T13:53:47.998Z</time></trkpt><trkpt lat="44.76469884896531" lon="9.941735342310555"><ele>444.0</ele><time>2026-05-02T13:53:48.998Z</time></trkpt><trkpt lat="44.76482001341663" lon="9.941643270993607"><ele>444.0</ele><time>2026-05-02T13:53:49.998Z</time></trkpt><trkpt lat="44.7649430281613" lon="9.941548902020301"><ele>444.0</ele><time>2026-05-02T13:53:50.998Z</time></trkpt><trkpt lat="44.76506419887101" lon="9.941455947618392"><ele>444.0</ele><time>2026-05-02T13:53:51.998Z</time></trkpt><trkpt lat="44.765187882240376" lon="9.941361065734"><ele>444.0</ele><time>2026-05-02T13:53:52.998Z</time></trkpt><trkpt lat="44.765310134670486" lon="9.941267281486837"><ele>441.0</ele><time>2026-05-02T13:53:53.998Z</time></trkpt><trkpt lat="44.765433024160785" lon="9.941173008585153"><ele>438.0</ele><time>2026-05-02T13:53:54.998Z</time></trkpt><trkpt lat="44.76555497430848" lon="9.941084596696818"><ele>435.0</ele><time>2026-05-02T13:53:55.998Z</time></trkpt><trkpt lat="44.76568017483896" lon="9.941006196163537"><ele>432.0</ele><time>2026-05-02T13:53:56.998Z</time></trkpt><trkpt lat="44.76580829171403" lon="9.940941631885288"><ele>432.0</ele><time>2026-05-02T13:53:57.998Z</time></trkpt><trkpt lat="44.7659409436498" lon="9.940883148061637"><ele>432.0</ele><time>2026-05-02T13:53:58.998Z</time></trkpt><trkpt lat="44.766070606367876" lon="9.940825982135872"><ele>432.0</ele><time>2026-05-02T13:53:59.998Z</time></trkpt><trkpt lat="44.766197414069346" lon="9.940770074998294"><ele>432.0</ele><time>2026-05-02T13:54:00.998Z</time></trkpt><trkpt lat="44.76632539117041" lon="9.940714122856132"><ele>432.0</ele><time>2026-05-02T13:54:01.998Z</time></trkpt><trkpt lat="44.76645560181821" lon="9.940657717519665"><ele>432.0</ele><time>2026-05-02T13:54:02.998Z</time></trkpt><trkpt lat="44.7665845591432" lon="9.940605767729481"><ele>432.0</ele><time>2026-05-02T13:54:03.998Z</time></trkpt><trkpt lat="44.76671678077079" lon="9.940561318781313"><ele>432.0</ele><time>2026-05-02T13:54:04.998Z</time></trkpt><trkpt lat="44.76684943311684" lon="9.940528591716136"><ele>431.25</ele><time>2026-05-02T13:54:05.998Z</time></trkpt><trkpt lat="44.76698743008485" lon="9.940497243630844"><ele>430.5</ele><time>2026-05-02T13:54:06.998Z</time></trkpt><trkpt lat="44.76712498741864" lon="9.940466662819727"><ele>429.75</ele><time>2026-05-02T13:54:07.998Z</time></trkpt><trkpt lat="44.76726238113177" lon="9.940436118387158"><ele>429.0</ele><time>2026-05-02T13:54:08.998Z</time></trkpt><trkpt lat="44.767397649370025" lon="9.940406089176573"><ele>429.0</ele><time>2026-05-02T13:54:09.998Z</time></trkpt><trkpt lat="44.76753081079083" lon="9.940377362716111"><ele>429.0</ele><time>2026-05-02T13:54:10.998Z</time></trkpt><trkpt lat="44.76766270610645" lon="9.940350013591084"><ele>429.0</ele><time>2026-05-02T13:54:11.998Z</time></trkpt><trkpt lat="44.767790047470456" lon="9.94033746801429"><ele>429.0</ele><time>2026-05-02T13:54:12.998Z</time></trkpt><trkpt lat="44.76791305098286" lon="9.940356506005314"><ele>428.0</ele><time>2026-05-02T13:54:13.998Z</time></trkpt><trkpt lat="44.76803537883891" lon="9.940396765333963"><ele>427.0</ele><time>2026-05-02T13:54:14.998Z</time></trkpt><trkpt lat="44.76814685309979" lon="9.940450912329291"><ele>426.0</ele><time>2026-05-02T13:54:15.998Z</time></trkpt><trkpt lat="44.76824947181038" lon="9.940518966000251"><ele>425.0</ele><time>2026-05-02T13:54:16.998Z</time></trkpt><trkpt lat="44.76834069747569" lon="9.94060222192466"><ele>425.0</ele><time>2026-05-02T13:54:17.998Z</time></trkpt><trkpt lat="44.768416224651304" lon="9.940707432233646"><ele>425.0</ele><time>2026-05-02T13:54:18.998Z</time></trkpt><trkpt lat="44.76846980214079" lon="9.940830873937017"><ele>425.0</ele><time>2026-05-02T13:54:19.998Z</time></trkpt><trkpt lat="44.7685082542191" lon="9.940969832008573"><ele>425.0</ele><time>2026-05-02T13:54:20.998Z</time></trkpt><trkpt lat="44.76854192406015" lon="9.941130861230791"><ele>425.0</ele><time>2026-05-02T13:54:21.998Z</time></trkpt><trkpt lat="44.76858233434608" lon="9.941304047371597"><ele>422.5</ele><time>2026-05-02T13:54:22.998Z</time></trkpt><trkpt lat="44.76865174460259" lon="9.94146618889696"><ele>420.0</ele><time>2026-05-02T13:54:23.998Z</time></trkpt><trkpt lat="44.76878106859427" lon="9.941583027761693"><ele>417.5</ele><time>2026-05-02T13:54:24.998Z</time></trkpt><trkpt lat="44.7689037135792" lon="9.941663113988877"><ele>415.0</ele><time>2026-05-02T13:54:25.998Z</time></trkpt><trkpt lat="44.769030583258875" lon="9.94172055275377"><ele>414.0</ele><time>2026-05-02T13:54:26.998Z</time></trkpt><trkpt lat="44.76915615209167" lon="9.941764006374205"><ele>413.0</ele><time>2026-05-02T13:54:27.998Z</time></trkpt><trkpt lat="44.76928631294796" lon="9.941792860497541"><ele>412.0</ele><time>2026-05-02T13:54:28.998Z</time></trkpt><trkpt lat="44.76942481495963" lon="9.941791027199264"><ele>411.0</ele><time>2026-05-02T13:54:29.998Z</time></trkpt><trkpt lat="44.769556350576025" lon="9.94174830038356"><ele>411.25</ele><time>2026-05-02T13:54:30.999Z</time></trkpt><trkpt lat="44.76968209677991" lon="9.94165553324705"><ele>411.5</ele><time>2026-05-02T13:54:31.999Z</time></trkpt><trkpt lat="44.76979043012619" lon="9.941552165353738"><ele>411.75</ele><time>2026-05-02T13:54:32.999Z</time></trkpt><trkpt lat="44.76988490153275" lon="9.941426773970612"><ele>412.0</ele><time>2026-05-02T13:54:33.999Z</time></trkpt><trkpt lat="44.76995095954913" lon="9.94126943073166"><ele>412.0</ele><time>2026-05-02T13:54:34.999Z</time></trkpt><trkpt lat="44.77002653620509" lon="9.941123820481899"><ele>412.0</ele><time>2026-05-02T13:54:35.999Z</time></trkpt><trkpt lat="44.77008733053437" lon="9.940965562354764"><ele>412.0</ele><time>2026-05-02T13:54:36.999Z</time></trkpt><trkpt lat="44.77014371676598" lon="9.940809840003006"><ele>412.0</ele><time>2026-05-02T13:54:37.999Z</time></trkpt><trkpt lat="44.77019968325322" lon="9.940658953593076"><ele>408.20000000000005</ele><time>2026-05-02T13:54:38.999Z</time></trkpt><trkpt lat="44.77025840383307" lon="9.940505046050644"><ele>404.4</ele><time>2026-05-02T13:54:39.999Z</time></trkpt><trkpt lat="44.77035401267491" lon="9.940425728712334"><ele>400.6</ele><time>2026-05-02T13:54:41Z</time></trkpt><trkpt lat="44.7704501293378" lon="9.940386764066103"><ele>396.79999999999995</ele><time>2026-05-02T13:54:41.999Z</time></trkpt><trkpt lat="44.77055693826266" lon="9.940357144601878"><ele>393.0</ele><time>2026-05-02T13:54:42.999Z</time></trkpt><trkpt lat="44.77067501316939" lon="9.940304259135708"><ele>393.0</ele><time>2026-05-02T13:54:44Z</time></trkpt><trkpt lat="44.770783791592976" lon="9.940230607741313"><ele>393.0</ele><time>2026-05-02T13:54:44.999Z</time></trkpt><trkpt lat="44.770889672344374" lon="9.940145078809737"><ele>393.0</ele><time>2026-05-02T13:54:45.999Z</time></trkpt><trkpt lat="44.770992691186606" lon="9.940060870027045"><ele>393.0</ele><time>2026-05-02T13:54:46.999Z</time></trkpt><trkpt lat="44.77110082465205" lon="9.939978481585857"><ele>389.25</ele><time>2026-05-02T13:54:47.999Z</time></trkpt><trkpt lat="44.771209538502596" lon="9.939900983337639"><ele>385.5</ele><time>2026-05-02T13:54:48.999Z</time></trkpt><trkpt lat="44.77131616203892" lon="9.93983684972873"><ele>381.75</ele><time>2026-05-02T13:54:49.999Z</time></trkpt><trkpt lat="44.77142432916603" lon="9.939781438663772"><ele>378.0</ele><time>2026-05-02T13:54:50.999Z</time></trkpt><trkpt lat="44.77152413748897" lon="9.939730309595248"><ele>378.0</ele><time>2026-05-02T13:54:51.999Z</time></trkpt><trkpt lat="44.77161970403627" lon="9.939662677224067"><ele>378.0</ele><time>2026-05-02T13:54:52.999Z</time></trkpt><trkpt lat="44.77169172725934" lon="9.939549884434628"><ele>378.0</ele><time>2026-05-02T13:54:53.999Z</time></trkpt><trkpt lat="44.771762903863554" lon="9.939443719055198"><ele>378.0</ele><time>2026-05-02T13:54:54.999Z</time></trkpt><trkpt lat="44.771810219577745" lon="9.939316122747066"><ele>378.0</ele><time>2026-05-02T13:54:55.999Z</time></trkpt><trkpt lat="44.77183601307814" lon="9.939173353617292"><ele>380.59999999999997</ele><time>2026-05-02T13:54:56.999Z</time></trkpt><trkpt lat="44.771836384231726" lon="9.939018962264766"><ele>383.2</ele><time>2026-05-02T13:54:57.999Z</time></trkpt><trkpt lat="44.771791278296774" lon="9.938882361635894"><ele>385.8</ele><time>2026-05-02T13:54:58.999Z</time></trkpt><trkpt lat="44.77174377214249" lon="9.938765874254111"><ele>388.4</ele><time>2026-05-02T13:54:59.999Z</time></trkpt><trkpt lat="44.77168355752734" lon="9.938662910138726"><ele>391.0</ele><time>2026-05-02T13:55:00.999Z</time></trkpt><trkpt lat="44.7716099834729" lon="9.938575987651578"><ele>391.0</ele><time>2026-05-02T13:55:01.999Z</time></trkpt><trkpt lat="44.771525286519" lon="9.938508692096434"><ele>391.0</ele><time>2026-05-02T13:55:02.999Z</time></trkpt><trkpt lat="44.77143139833781" lon="9.938476602253186"><ele>391.0</ele><time>2026-05-02T13:55:03.999Z</time></trkpt><trkpt lat="44.77132509306619" lon="9.938471640568304"><ele>391.0</ele><time>2026-05-02T13:55:04.999Z</time></trkpt><trkpt lat="44.77121510053469" lon="9.938522642783393"><ele>391.0</ele><time>2026-05-02T13:55:05.999Z</time></trkpt><trkpt lat="44.77110926665068" lon="9.938559774142302"><ele>390.8</ele><time>2026-05-02T13:55:06.999Z</time></trkpt><trkpt lat="44.771001546664614" lon="9.938589634588539"><ele>390.6</ele><time>2026-05-02T13:55:07.999Z</time></trkpt><trkpt lat="44.77090181685017" lon="9.938598289804894"><ele>390.4</ele><time>2026-05-02T13:55:08.999Z</time></trkpt><trkpt lat="44.77080579623805" lon="9.938597963248961"><ele>390.2</ele><time>2026-05-02T13:55:09.999Z</time></trkpt><trkpt lat="44.770709038230194" lon="9.938547356978269"><ele>390.0</ele><time>2026-05-02T13:55:10.999Z</time></trkpt><trkpt lat="44.77061449227265" lon="9.938471519819004"><ele>387.25</ele><time>2026-05-02T13:55:11.999Z</time></trkpt><trkpt lat="44.77053362627557" lon="9.938376505349511"><ele>384.5</ele><time>2026-05-02T13:55:12.999Z</time></trkpt><trkpt lat="44.77044247456518" lon="9.93828419210737"><ele>381.75</ele><time>2026-05-02T13:55:13.999Z</time></trkpt><trkpt lat="44.77034251130448" lon="9.938181543011147"><ele>379.0</ele><time>2026-05-02T13:55:14.999Z</time></trkpt><trkpt lat="44.770236078177085" lon="9.938096333887952"><ele>379.0</ele><time>2026-05-02T13:55:15.999Z</time></trkpt><trkpt lat="44.7701488007594" lon="9.937993464980474"><ele>379.0</ele><time>2026-05-02T13:55:16.999Z</time></trkpt><trkpt lat="44.77010219653315" lon="9.937882473122835"><ele>379.0</ele><time>2026-05-02T13:55:17.999Z</time></trkpt><trkpt lat="44.77009316110452" lon="9.93774672226142"><ele>379.0</ele><time>2026-05-02T13:55:18.999Z</time></trkpt><trkpt lat="44.77013272534889" lon="9.937625986742253"><ele>379.0</ele><time>2026-05-02T13:55:19.999Z</time></trkpt><trkpt lat="44.770209147147646" lon="9.937530743567295"><ele>379.0</ele><time>2026-05-02T13:55:20.999Z</time></trkpt><trkpt lat="44.770337382529185" lon="9.937585083860998"><ele>379.0</ele><time>2026-05-02T13:55:21.999Z</time></trkpt><trkpt lat="44.77040135090347" lon="9.93760512328313"><ele>379.0</ele><time>2026-05-02T13:55:22.999Z</time></trkpt><trkpt lat="44.77046422769012" lon="9.937636293151039"><ele>379.0</ele><time>2026-05-02T13:55:23.999Z</time></trkpt><trkpt lat="44.77052279200817" lon="9.937711613681628"><ele>379.0</ele><time>2026-05-02T13:55:24.999Z</time></trkpt><trkpt lat="44.770557516829896" lon="9.937812348857774"><ele>379.0</ele><time>2026-05-02T13:55:25.999Z</time></trkpt><trkpt lat="44.77061324539779" lon="9.937936642775558"><ele>379.0</ele><time>2026-05-02T13:55:26.999Z</time></trkpt><trkpt lat="44.7706958961436" lon="9.938042735831676"><ele>379.0</ele><time>2026-05-02T13:55:27.999Z</time></trkpt><trkpt lat="44.770827307974194" lon="9.938080582502257"><ele>379.0</ele><time>2026-05-02T13:55:28.999Z</time></trkpt><trkpt lat="44.77094591997737" lon="9.93803016359674"><ele>379.0</ele><time>2026-05-02T13:55:29.999Z</time></trkpt><trkpt lat="44.77103626470097" lon="9.937878268853309"><ele>378.79999999999995</ele><time>2026-05-02T13:55:30.999Z</time></trkpt><trkpt lat="44.77111116262949" lon="9.937777299895721"><ele>378.59999999999997</ele><time>2026-05-02T13:55:31.999Z</time></trkpt><trkpt lat="44.77119054743776" lon="9.937684885005165"><ele>378.4</ele><time>2026-05-02T13:55:32.999Z</time></trkpt><trkpt lat="44.77129872674446" lon="9.93761584546243"><ele>378.2</ele><time>2026-05-02T13:55:33.999Z</time></trkpt><trkpt lat="44.7713877490321" lon="9.937606532008814"><ele>378.0</ele><time>2026-05-02T13:55:34.999Z</time></trkpt><trkpt lat="44.771467436920396" lon="9.937636626761504"><ele>378.0</ele><time>2026-05-02T13:55:35.999Z</time></trkpt><trkpt lat="44.77155417018077" lon="9.937684166740455"><ele>378.0</ele><time>2026-05-02T13:55:36.999Z</time></trkpt><trkpt lat="44.77162802297334" lon="9.937710714167032"><ele>378.0</ele><time>2026-05-02T13:55:37.999Z</time></trkpt><trkpt lat="44.77170131242504" lon="9.937714121997208"><ele>378.0</ele><time>2026-05-02T13:55:38.999Z</time></trkpt><trkpt lat="44.771779877569315" lon="9.937606949400285"><ele>378.0</ele><time>2026-05-02T13:55:39.999Z</time></trkpt><trkpt lat="44.7717174387938" lon="9.937404165596766"><ele>375.42857142857144</ele><time>2026-05-02T13:55:40.999Z</time></trkpt><trkpt lat="44.77163455661811" lon="9.937353584418247"><ele>372.8571428571429</ele><time>2026-05-02T13:55:41.999Z</time></trkpt><trkpt lat="44.771563107531556" lon="9.937365222696904"><ele>370.2857142857143</ele><time>2026-05-02T13:55:42.999Z</time></trkpt><trkpt lat="44.77149389235567" lon="9.937347253288886"><ele>367.7142857142857</ele><time>2026-05-02T13:55:43.998Z</time></trkpt><trkpt lat="44.7714284451752" lon="9.937330831517192"><ele>365.14285714285717</ele><time>2026-05-02T13:55:44.998Z</time></trkpt><trkpt lat="44.771362510712905" lon="9.937312958688137"><ele>362.57142857142856</ele><time>2026-05-02T13:55:45.998Z</time></trkpt><trkpt lat="44.77128873476046" lon="9.937292960277304"><ele>360.0</ele><time>2026-05-02T13:55:46.998Z</time></trkpt><trkpt lat="44.77121727132083" lon="9.937251802478027"><ele>360.0</ele><time>2026-05-02T13:55:47.998Z</time></trkpt><trkpt lat="44.77115423613393" lon="9.937226622493666"><ele>360.0</ele><time>2026-05-02T13:55:48.998Z</time></trkpt><trkpt lat="44.77112001955024" lon="9.937072676404162"><ele>360.0</ele><time>2026-05-02T13:55:50.998Z</time></trkpt><trkpt lat="44.771174464792345" lon="9.936998199472095"><ele>360.0</ele><time>2026-05-02T13:55:51.998Z</time></trkpt><trkpt lat="44.771270652954456" lon="9.937115805367899"><ele>360.0</ele><time>2026-05-02T13:55:52.998Z</time></trkpt><trkpt lat="44.77133592910923" lon="9.93714822059909"><ele>360.0</ele><time>2026-05-02T13:55:53.998Z</time></trkpt><trkpt lat="44.77141153486995" lon="9.937170324810447"><ele>360.0</ele><time>2026-05-02T13:55:54.998Z</time></trkpt><trkpt lat="44.77149295366381" lon="9.93719426553358"><ele>360.0</ele><time>2026-05-02T13:55:55.998Z</time></trkpt><trkpt lat="44.77157840314335" lon="9.937219391464366"><ele>360.0</ele><time>2026-05-02T13:55:56.998Z</time></trkpt><trkpt lat="44.77166908999818" lon="9.937246057408819"><ele>360.0</ele><time>2026-05-02T13:55:57.998Z</time></trkpt><trkpt lat="44.77176374537729" lon="9.937273890279865"><ele>360.0</ele><time>2026-05-02T13:55:58.998Z</time></trkpt><trkpt lat="44.77186128948803" lon="9.93730257256636"><ele>358.2</ele><time>2026-05-02T13:55:59.998Z</time></trkpt><trkpt lat="44.771960653691806" lon="9.937332269336093"><ele>356.4</ele><time>2026-05-02T13:56:00.998Z</time></trkpt><trkpt lat="44.772064744415204" lon="9.937364414144279"><ele>354.6</ele><time>2026-05-02T13:56:01.998Z</time></trkpt><trkpt lat="44.77217001277758" lon="9.937398437131469"><ele>352.8</ele><time>2026-05-02T13:56:02.998Z</time></trkpt><trkpt lat="44.772275948154686" lon="9.937437773549805"><ele>351.0</ele><time>2026-05-02T13:56:03.998Z</time></trkpt><trkpt lat="44.77237922882835" lon="9.937483825362635"><ele>351.0</ele><time>2026-05-02T13:56:04.998Z</time></trkpt><trkpt lat="44.772482493377865" lon="9.937531624376089"><ele>351.0</ele><time>2026-05-02T13:56:05.998Z</time></trkpt><trkpt lat="44.77257820272796" lon="9.937576667435362"><ele>351.0</ele><time>2026-05-02T13:56:06.998Z</time></trkpt><trkpt lat="44.7726614499317" lon="9.937617588203237"><ele>351.0</ele><time>2026-05-02T13:56:07.998Z</time></trkpt><trkpt lat="44.77273955345688" lon="9.937653594945264"><ele>351.0</ele><time>2026-05-02T13:56:08.998Z</time></trkpt><trkpt lat="44.77281172410168" lon="9.93767918790426"><ele>348.20000000000005</ele><time>2026-05-02T13:56:09.998Z</time></trkpt><trkpt lat="44.77289892398516" lon="9.937641594277292"><ele>345.40000000000003</ele><time>2026-05-02T13:56:10.998Z</time></trkpt><trkpt lat="44.77294285186686" lon="9.937465387767602"><ele>342.6</ele><time>2026-05-02T13:56:11.998Z</time></trkpt><trkpt lat="44.77286981061344" lon="9.937314910852171"><ele>339.8</ele><time>2026-05-02T13:56:12.998Z</time></trkpt><trkpt lat="44.77278015275573" lon="9.937278213331574"><ele>337.0</ele><time>2026-05-02T13:56:13.998Z</time></trkpt><trkpt lat="44.772711912219116" lon="9.937231681363176"><ele>336.8333333333333</ele><time>2026-05-02T13:56:14.998Z</time></trkpt><trkpt lat="44.77265711418923" lon="9.937157207686177"><ele>336.66666666666663</ele><time>2026-05-02T13:56:15.998Z</time></trkpt><trkpt lat="44.77259611317845" lon="9.937103452558665"><ele>336.5</ele><time>2026-05-02T13:56:16.998Z</time></trkpt><trkpt lat="44.77255230520385" lon="9.93703029190686"><ele>336.3333333333333</ele><time>2026-05-02T13:56:17.998Z</time></trkpt><trkpt lat="44.77255046117437" lon="9.93692872765"><ele>336.1666666666667</ele><time>2026-05-02T13:56:18.998Z</time></trkpt><trkpt lat="44.772601851986494" lon="9.93684307473137"><ele>336.0</ele><time>2026-05-02T13:56:19.998Z</time></trkpt><trkpt lat="44.77271059397173" lon="9.93689818812668"><ele>336.0</ele><time>2026-05-02T13:56:20.998Z</time></trkpt><trkpt lat="44.77274621277826" lon="9.936999245155684"><ele>336.0</ele><time>2026-05-02T13:56:21.998Z</time></trkpt><trkpt lat="44.77280584438012" lon="9.937047387100947"><ele>336.0</ele><time>2026-05-02T13:56:22.998Z</time></trkpt><trkpt lat="44.77287638036576" lon="9.937091082921729"><ele>336.0</ele><time>2026-05-02T13:56:23.998Z</time></trkpt><trkpt lat="44.77294441731311" lon="9.937133230606138"><ele>336.0</ele><time>2026-05-02T13:56:24.998Z</time></trkpt><trkpt lat="44.77301437920752" lon="9.937175535711066"><ele>336.0</ele><time>2026-05-02T13:56:25.998Z</time></trkpt><trkpt lat="44.77307618528913" lon="9.937211899889457"><ele>336.0</ele><time>2026-05-02T13:56:26.998Z</time></trkpt><trkpt lat="44.77317032434053" lon="9.937267287484557"><ele>336.0</ele><time>2026-05-02T13:56:28.998Z</time></trkpt><trkpt lat="44.77326002470778" lon="9.937319709296274"><ele>336.0</ele><time>2026-05-02T13:56:30.998Z</time></trkpt><trkpt lat="44.77336289879874" lon="9.937379360626347"><ele>336.0</ele><time>2026-05-02T13:56:32.998Z</time></trkpt><trkpt lat="44.77347193287689" lon="9.937442075715936"><ele>336.0</ele><time>2026-05-02T13:56:34.998Z</time></trkpt><trkpt lat="44.773576732534764" lon="9.937501606192903"><ele>336.0</ele><time>2026-05-02T13:56:37Z</time></trkpt><trkpt lat="44.77367530816932" lon="9.937558182668369"><ele>335.8</ele><time>2026-05-02T13:56:39Z</time></trkpt><trkpt lat="44.77374475692778" lon="9.93761320387082"><ele>335.6</ele><time>2026-05-02T13:56:41Z</time></trkpt><trkpt lat="44.773874554537166" lon="9.937598537768036"><ele>335.4</ele><time>2026-05-02T13:56:45Z</time></trkpt><trkpt lat="44.77373867278178" lon="9.937578001506035"><ele>335.2</ele><time>2026-05-02T13:56:59.999Z</time></trkpt><trkpt lat="44.773676351956446" lon="9.937500872543895"><ele>335.0</ele><time>2026-05-02T13:58:00.999Z</time></trkpt><trkpt lat="44.773618765065734" lon="9.937463815794688"><ele>334.99999999999994</ele><time>2026-05-02T13:58:02.999Z</time></trkpt><trkpt lat="44.77355573368063" lon="9.937424344283285"><ele>335.0</ele><time>2026-05-02T13:58:04.999Z</time></trkpt><trkpt lat="44.77349609141221" lon="9.93738370078681"><ele>335.0</ele><time>2026-05-02T13:58:06.999Z</time></trkpt><trkpt lat="44.773435572927134" lon="9.937349003426577"><ele>335.0</ele><time>2026-05-02T13:58:08.999Z</time></trkpt><trkpt lat="44.77337616700105" lon="9.937315959612834"><ele>335.0</ele><time>2026-05-02T13:58:10.999Z</time></trkpt><trkpt lat="44.77331292972914" lon="9.937276063188184"><ele>334.99999999999994</ele><time>2026-05-02T13:58:12.999Z</time></trkpt><trkpt lat="44.773251542030536" lon="9.937240241478376"><ele>335.0</ele><time>2026-05-02T13:58:14.999Z</time></trkpt><trkpt lat="44.77317748823245" lon="9.937195456447634"><ele>335.1428571428571</ele><time>2026-05-02T13:58:17.999Z</time></trkpt><trkpt lat="44.77311345364475" lon="9.937161235902394"><ele>335.2857142857143</ele><time>2026-05-02T13:58:20.999Z</time></trkpt><trkpt lat="44.77305106286645" lon="9.937116838824688"><ele>335.42857142857144</ele><time>2026-05-02T13:58:23.999Z</time></trkpt><trkpt lat="44.77298916273479" lon="9.937077777942813"><ele>335.57142857142856</ele><time>2026-05-02T13:58:26.999Z</time></trkpt><trkpt lat="44.77292762400482" lon="9.937038029158677"><ele>335.7142857142857</ele><time>2026-05-02T13:58:29.999Z</time></trkpt><trkpt lat="44.772864981680556" lon="9.936995522847823"><ele>335.85714285714283</ele><time>2026-05-02T13:58:32.999Z</time></trkpt><trkpt lat="44.77280050543866" lon="9.936952939686092"><ele>336.0</ele><time>2026-05-02T13:58:35.999Z</time></trkpt><trkpt lat="44.77273978910123" lon="9.936918330444245"><ele>336.0</ele><time>2026-05-02T13:58:39.999Z</time></trkpt><trkpt lat="44.77266769674037" lon="9.936889834234275"><ele>336.0</ele><time>2026-05-02T13:58:44.001Z</time></trkpt><trkpt lat="44.772605725954605" lon="9.936909031189222"><ele>336.0</ele><time>2026-05-02T13:58:47.001Z</time></trkpt><trkpt lat="44.772561458682524" lon="9.936973550136733"><ele>336.0</ele><time>2026-05-02T13:58:50.001Z</time></trkpt><trkpt lat="44.77255508600057" lon="9.93706376520439"><ele>336.0</ele><time>2026-05-02T13:58:53.001Z</time></trkpt><trkpt lat="44.77260358348865" lon="9.937174453381795"><ele>336.0</ele><time>2026-05-02T13:58:56.001Z</time></trkpt><trkpt lat="44.77266933020734" lon="9.937215451623382"><ele>336.0</ele><time>2026-05-02T13:58:59Z</time></trkpt><trkpt lat="44.77272728503154" lon="9.937272253105554"><ele>336.0</ele><time>2026-05-02T13:59:02Z</time></trkpt><trkpt lat="44.77279372655279" lon="9.937332374098716"><ele>336.0</ele><time>2026-05-02T13:59:05Z</time></trkpt><trkpt lat="44.77284716256572" lon="9.937417877898866"><ele>336.0</ele><time>2026-05-02T13:59:09Z</time></trkpt><trkpt lat="44.77284675141543" lon="9.937508490416025"><ele>336.0</ele><time>2026-05-02T13:59:12Z</time></trkpt><trkpt lat="44.77277933464259" lon="9.937554309990485"><ele>336.0</ele><time>2026-05-02T13:59:16Z</time></trkpt><trkpt lat="44.77269782819321" lon="9.937502507365837"><ele>336.0</ele><time>2026-05-02T13:59:20Z</time></trkpt><trkpt lat="44.77262833457614" lon="9.937469401685478"><ele>338.14285714285717</ele><time>2026-05-02T13:59:24Z</time></trkpt><trkpt lat="44.7725662809096" lon="9.937435836243246"><ele>340.2857142857143</ele><time>2026-05-02T13:59:27Z</time></trkpt><trkpt lat="44.77249628412538" lon="9.937401210470085"><ele>342.42857142857144</ele><time>2026-05-02T13:59:30Z</time></trkpt><trkpt lat="44.772430459430524" lon="9.937374385517074"><ele>344.57142857142856</ele><time>2026-05-02T13:59:34Z</time></trkpt><trkpt lat="44.77236930964209" lon="9.937351430039696"><ele>346.7142857142857</ele><time>2026-05-02T13:59:37Z</time></trkpt><trkpt lat="44.77230473941471" lon="9.937323301445637"><ele>348.8571428571429</ele><time>2026-05-02T13:59:40Z</time></trkpt><trkpt lat="44.77224005560274" lon="9.937301637810458"><ele>351.0</ele><time>2026-05-02T13:59:43Z</time></trkpt><trkpt lat="44.77216710648125" lon="9.937273462314332"><ele>351.00000000000006</ele><time>2026-05-02T13:59:46Z</time></trkpt><trkpt lat="44.77209834498912" lon="9.937250648218463"><ele>351.0</ele><time>2026-05-02T13:59:50Z</time></trkpt><trkpt lat="44.77203830210795" lon="9.937221156066622"><ele>351.0</ele><time>2026-05-02T13:59:53Z</time></trkpt><trkpt lat="44.77197202930552" lon="9.937201652931696"><ele>351.0</ele><time>2026-05-02T13:59:55.999Z</time></trkpt><trkpt lat="44.77190434350375" lon="9.93718123517481"><ele>351.0</ele><time>2026-05-02T13:59:58.999Z</time></trkpt><trkpt lat="44.77183283959778" lon="9.93716315368409"><ele>351.00000000000006</ele><time>2026-05-02T14:00:02.999Z</time></trkpt><trkpt lat="44.77175131542694" lon="9.937140994274309"><ele>351.0</ele><time>2026-05-02T14:00:06.999Z</time></trkpt><trkpt lat="44.77166874020023" lon="9.937117783166654"><ele>352.28571428571433</ele><time>2026-05-02T14:00:10.999Z</time></trkpt><trkpt lat="44.771598669846725" lon="9.937097544406642"><ele>353.57142857142856</ele><time>2026-05-02T14:00:13.999Z</time></trkpt><trkpt lat="44.77153417311089" lon="9.937079860303921"><ele>354.8571428571429</ele><time>2026-05-02T14:00:16.999Z</time></trkpt><trkpt lat="44.77145200509928" lon="9.93706003822209"><ele>356.14285714285717</ele><time>2026-05-02T14:00:20.999Z</time></trkpt><trkpt lat="44.77137419325517" lon="9.937034473503966"><ele>357.42857142857144</ele><time>2026-05-02T14:00:24.999Z</time></trkpt><trkpt lat="44.77129315604329" lon="9.937013206356527"><ele>358.7142857142857</ele><time>2026-05-02T14:00:28.999Z</time></trkpt><trkpt lat="44.771228887748926" lon="9.937011334433592"><ele>360.0</ele><time>2026-05-02T14:00:31.999Z</time></trkpt><trkpt lat="44.77117135584812" lon="9.937054696516615"><ele>360.0</ele><time>2026-05-02T14:00:34.999Z</time></trkpt><trkpt lat="44.77114087929605" lon="9.937138188811918"><ele>360.0</ele><time>2026-05-02T14:00:37.999Z</time></trkpt><trkpt lat="44.77115689309369" lon="9.937225667725535"><ele>360.0</ele><time>2026-05-02T14:00:40.999Z</time></trkpt><trkpt lat="44.771209824244906" lon="9.937285632114287"><ele>360.0</ele><time>2026-05-02T14:00:43.999Z</time></trkpt><trkpt lat="44.77127398759742" lon="9.937314618663537"><ele>360.0</ele><time>2026-05-02T14:00:46.999Z</time></trkpt><trkpt lat="44.7713455357964" lon="9.937343453006033"><ele>360.0</ele><time>2026-05-02T14:00:50.001Z</time></trkpt><trkpt lat="44.77141252643501" lon="9.93736990539284"><ele>360.0</ele><time>2026-05-02T14:00:53.001Z</time></trkpt><trkpt lat="44.77149213044816" lon="9.937392559909357"><ele>360.0</ele><time>2026-05-02T14:00:57.001Z</time></trkpt><trkpt lat="44.771558358019725" lon="9.937424700003033"><ele>360.0</ele><time>2026-05-02T14:01:00.001Z</time></trkpt><trkpt lat="44.77161886710839" lon="9.937472839336305"><ele>360.0</ele><time>2026-05-02T14:01:03.001Z</time></trkpt><trkpt lat="44.771658315264986" lon="9.937563270531633"><ele>360.0</ele><time>2026-05-02T14:01:06Z</time></trkpt><trkpt lat="44.77159450296682" lon="9.937599936484968"><ele>360.0</ele><time>2026-05-02T14:01:10Z</time></trkpt><trkpt lat="44.771507318355994" lon="9.937563489264685"><ele>360.0</ele><time>2026-05-02T14:01:14Z</time></trkpt><trkpt lat="44.7714320286894" lon="9.937541675102393"><ele>360.0</ele><time>2026-05-02T14:01:18Z</time></trkpt><trkpt lat="44.771359734183065" lon="9.937539354469749"><ele>360.0</ele><time>2026-05-02T14:01:21Z</time></trkpt><trkpt lat="44.771288311672265" lon="9.937557369857343"><ele>360.0</ele><time>2026-05-02T14:01:24Z</time></trkpt><trkpt lat="44.77121205846439" lon="9.937604053781197"><ele>360.0</ele><time>2026-05-02T14:01:27Z</time></trkpt><trkpt lat="44.77114573059514" lon="9.937657572428797"><ele>360.0</ele><time>2026-05-02T14:01:31Z</time></trkpt><trkpt lat="44.77109085692707" lon="9.937722415730045"><ele>360.0</ele><time>2026-05-02T14:01:34Z</time></trkpt><trkpt lat="44.77103827798351" lon="9.937788112131898"><ele>360.0</ele><time>2026-05-02T14:01:37Z</time></trkpt><trkpt lat="44.77098301734434" lon="9.937854049145997"><ele>363.1666666666667</ele><time>2026-05-02T14:01:39Z</time></trkpt><trkpt lat="44.77091315893902" lon="9.937920773977982"><ele>366.3333333333333</ele><time>2026-05-02T14:01:42Z</time></trkpt><trkpt lat="44.77083738267426" lon="9.937962263194574"><ele>369.5</ele><time>2026-05-02T14:01:46Z</time></trkpt><trkpt lat="44.77075834892046" lon="9.937957387347115"><ele>372.66666666666663</ele><time>2026-05-02T14:01:49Z</time></trkpt><trkpt lat="44.77069292369756" lon="9.937911609996656"><ele>375.8333333333333</ele><time>2026-05-02T14:01:52Z</time></trkpt><trkpt lat="44.770642491295646" lon="9.93782142479786"><ele>379.0</ele><time>2026-05-02T14:01:55Z</time></trkpt><trkpt lat="44.770607159594284" lon="9.937746773200473"><ele>379.0</ele><time>2026-05-02T14:01:57.999Z</time></trkpt><trkpt lat="44.770562098379" lon="9.937656008842401"><ele>379.0</ele><time>2026-05-02T14:02:01.999Z</time></trkpt><trkpt lat="44.77051023394688" lon="9.937592355385734"><ele>379.0</ele><time>2026-05-02T14:02:04.999Z</time></trkpt><trkpt lat="44.770433813098315" lon="9.937554517703292"><ele>379.0</ele><time>2026-05-02T14:02:07.999Z</time></trkpt><trkpt lat="44.77033741806401" lon="9.937546507765521"><ele>379.0</ele><time>2026-05-02T14:02:10.999Z</time></trkpt><trkpt lat="44.77025513270661" lon="9.937597208099218"><ele>379.0</ele><time>2026-05-02T14:02:13.999Z</time></trkpt><trkpt lat="44.770186890037145" lon="9.937676594417397"><ele>379.0</ele><time>2026-05-02T14:02:15.999Z</time></trkpt><trkpt lat="44.77015412449063" lon="9.937766563263867"><ele>379.0</ele><time>2026-05-02T14:02:18.999Z</time></trkpt><trkpt lat="44.77014434669182" lon="9.937860418618616"><ele>379.0</ele><time>2026-05-02T14:02:20.999Z</time></trkpt><trkpt lat="44.770164092373804" lon="9.937990638424116"><ele>379.0</ele><time>2026-05-02T14:02:22.999Z</time></trkpt><trkpt lat="44.77020849497303" lon="9.938094771906004"><ele>379.0</ele><time>2026-05-02T14:02:24.999Z</time></trkpt><trkpt lat="44.77026338766271" lon="9.938160472492168"><ele>379.0</ele><time>2026-05-02T14:02:26.999Z</time></trkpt><trkpt lat="44.77031767304735" lon="9.938219343084397"><ele>379.0</ele><time>2026-05-02T14:02:29.999Z</time></trkpt><trkpt lat="44.77038394463985" lon="9.938285055237737"><ele>379.0</ele><time>2026-05-02T14:02:32.999Z</time></trkpt><trkpt lat="44.77045363374386" lon="9.938357474785416"><ele>379.0</ele><time>2026-05-02T14:02:35.999Z</time></trkpt><trkpt lat="44.77050475932755" lon="9.938425684358437"><ele>379.0</ele><time>2026-05-02T14:02:38.999Z</time></trkpt><trkpt lat="44.77056679275289" lon="9.93848210102982"><ele>379.0</ele><time>2026-05-02T14:02:41.999Z</time></trkpt><trkpt lat="44.770648801321904" lon="9.9385487758003"><ele>379.0</ele><time>2026-05-02T14:02:44.999Z</time></trkpt><trkpt lat="44.770708968101374" lon="9.938600225480945"><ele>380.8333333333333</ele><time>2026-05-02T14:02:47.999Z</time></trkpt><trkpt lat="44.770775538173304" lon="9.938638589788098"><ele>382.66666666666663</ele><time>2026-05-02T14:02:50.999Z</time></trkpt><trkpt lat="44.77086159293824" lon="9.938677381363757"><ele>384.5</ele><time>2026-05-02T14:02:55Z</time></trkpt><trkpt lat="44.77094076411106" lon="9.938662454238399"><ele>386.3333333333333</ele><time>2026-05-02T14:02:58Z</time></trkpt><trkpt lat="44.77102002860679" lon="9.938636534139075"><ele>388.1666666666667</ele><time>2026-05-02T14:03:01Z</time></trkpt><trkpt lat="44.77109870853601" lon="9.938606513261425"><ele>390.0</ele><time>2026-05-02T14:03:04Z</time></trkpt><trkpt lat="44.77116411760896" lon="9.938595662977988"><ele>390.1428571428571</ele><time>2026-05-02T14:03:07Z</time></trkpt><trkpt lat="44.77123266045975" lon="9.938575280187246"><ele>390.2857142857143</ele><time>2026-05-02T14:03:10Z</time></trkpt><trkpt lat="44.77130328902391" lon="9.938558485416388"><ele>390.42857142857144</ele><time>2026-05-02T14:03:13Z</time></trkpt><trkpt lat="44.77139099621961" lon="9.938555514479297"><ele>390.57142857142856</ele><time>2026-05-02T14:03:16Z</time></trkpt><trkpt lat="44.77145522202951" lon="9.938595562202586"><ele>390.7142857142857</ele><time>2026-05-02T14:03:19Z</time></trkpt><trkpt lat="44.77150863604647" lon="9.938644620098108"><ele>390.85714285714283</ele><time>2026-05-02T14:03:22Z</time></trkpt><trkpt lat="44.77156439336561" lon="9.938703009088615"><ele>391.0</ele><time>2026-05-02T14:03:25Z</time></trkpt><trkpt lat="44.77161273710154" lon="9.938773653948676"><ele>391.00000000000006</ele><time>2026-05-02T14:03:28Z</time></trkpt><trkpt lat="44.77166044582811" lon="9.938851567843368"><ele>391.0</ele><time>2026-05-02T14:03:31Z</time></trkpt><trkpt lat="44.77169713173917" lon="9.938957318459508"><ele>391.0</ele><time>2026-05-02T14:03:34Z</time></trkpt><trkpt lat="44.77171275089617" lon="9.939056276610648"><ele>391.0</ele><time>2026-05-02T14:03:38Z</time></trkpt><trkpt lat="44.77172502785649" lon="9.939175276662201"><ele>391.00000000000006</ele><time>2026-05-02T14:03:42Z</time></trkpt><trkpt lat="44.77171090417333" lon="9.939286232882957"><ele>391.0</ele><time>2026-05-02T14:03:45Z</time></trkpt><trkpt lat="44.77169054996577" lon="9.939384698103108"><ele>388.83333333333337</ele><time>2026-05-02T14:03:49Z</time></trkpt><trkpt lat="44.77164434885591" lon="9.93949943539544"><ele>386.6666666666667</ele><time>2026-05-02T14:03:53Z</time></trkpt><trkpt lat="44.771585804653625" lon="9.939575108871654"><ele>384.5</ele><time>2026-05-02T14:03:57Z</time></trkpt><trkpt lat="44.77152857018973" lon="9.939619282954899"><ele>382.33333333333337</ele><time>2026-05-02T14:03:59.999Z</time></trkpt><trkpt lat="44.77146672281312" lon="9.939662896738083"><ele>380.1666666666667</ele><time>2026-05-02T14:04:02.999Z</time></trkpt><trkpt lat="44.771396914896556" lon="9.93970539754163"><ele>378.0</ele><time>2026-05-02T14:04:05.999Z</time></trkpt><trkpt lat="44.7713350155528" lon="9.939747968087364"><ele>378.0</ele><time>2026-05-02T14:04:09.999Z</time></trkpt><trkpt lat="44.77127206572559" lon="9.93978049455324"><ele>378.0</ele><time>2026-05-02T14:04:12.999Z</time></trkpt><trkpt lat="44.77120402149073" lon="9.939820572595938"><ele>378.0</ele><time>2026-05-02T14:04:15.999Z</time></trkpt><trkpt lat="44.771136771714836" lon="9.939870010070152"><ele>378.0</ele><time>2026-05-02T14:04:18.999Z</time></trkpt><trkpt lat="44.771078447327874" lon="9.939909240537279"><ele>378.0</ele><time>2026-05-02T14:04:21.999Z</time></trkpt><trkpt lat="44.77101693849012" lon="9.939949316241188"><ele>378.0</ele><time>2026-05-02T14:04:24.999Z</time></trkpt><trkpt lat="44.77095816396565" lon="9.939999692534213"><ele>378.0</ele><time>2026-05-02T14:04:27.999Z</time></trkpt><trkpt lat="44.77089805012587" lon="9.940045191715456"><ele>380.14285714285717</ele><time>2026-05-02T14:04:30.999Z</time></trkpt><trkpt lat="44.770836699404285" lon="9.940092103348073"><ele>382.2857142857143</ele><time>2026-05-02T14:04:33.999Z</time></trkpt><trkpt lat="44.770775550300954" lon="9.940126049955675"><ele>384.42857142857144</ele><time>2026-05-02T14:04:36.999Z</time></trkpt><trkpt lat="44.77071300981529" lon="9.940165922159315"><ele>386.57142857142856</ele><time>2026-05-02T14:04:39.999Z</time></trkpt><trkpt lat="44.77064887450126" lon="9.940205000839715"><ele>388.7142857142857</ele><time>2026-05-02T14:04:42.999Z</time></trkpt><trkpt lat="44.77057857713321" lon="9.940243553758947"><ele>390.8571428571429</ele><time>2026-05-02T14:04:45.999Z</time></trkpt><trkpt lat="44.770515979689115" lon="9.940272788496891"><ele>393.0</ele><time>2026-05-02T14:04:48.999Z</time></trkpt><trkpt lat="44.770434987635994" lon="9.940308287203774"><ele>393.0</ele><time>2026-05-02T14:04:52.999Z</time></trkpt><trkpt lat="44.77036542828211" lon="9.940355364903642"><ele>393.0</ele><time>2026-05-02T14:04:55.998Z</time></trkpt><trkpt lat="44.77029028295887" lon="9.9404250687697"><ele>393.0</ele><time>2026-05-02T14:04:59Z</time></trkpt><trkpt lat="44.77023937646398" lon="9.94049118533059"><ele>393.0</ele><time>2026-05-02T14:05:02Z</time></trkpt><trkpt lat="44.770197954973696" lon="9.940570025020735"><ele>393.0</ele><time>2026-05-02T14:05:05Z</time></trkpt><trkpt lat="44.77015532662188" lon="9.940650619468535"><ele>393.0</ele><time>2026-05-02T14:05:08Z</time></trkpt><trkpt lat="44.770117112245465" lon="9.94073699970196"><ele>395.00000000000006</ele><time>2026-05-02T14:05:11Z</time></trkpt><trkpt lat="44.7700818223812" lon="9.94082229249005"><ele>397.0</ele><time>2026-05-02T14:05:14Z</time></trkpt><trkpt lat="44.77004570694734" lon="9.940910798902191"><ele>399.0</ele><time>2026-05-02T14:05:17Z</time></trkpt><trkpt lat="44.77001238738249" lon="9.940999744016468"><ele>401.0</ele><time>2026-05-02T14:05:20Z</time></trkpt><trkpt lat="44.76997728635867" lon="9.941086135658272"><ele>403.0</ele><time>2026-05-02T14:05:23Z</time></trkpt><trkpt lat="44.76994076625548" lon="9.941160849112284"><ele>405.00000000000006</ele><time>2026-05-02T14:05:26Z</time></trkpt><trkpt lat="44.76990097335461" lon="9.94124589703493"><ele>407.0</ele><time>2026-05-02T14:05:29Z</time></trkpt><trkpt lat="44.76985335298658" lon="9.94132154009532"><ele>407.7142857142857</ele><time>2026-05-02T14:05:32Z</time></trkpt><trkpt lat="44.769798246434675" lon="9.941389030132346"><ele>408.42857142857144</ele><time>2026-05-02T14:05:35Z</time></trkpt><trkpt lat="44.769741923394676" lon="9.94145042890304"><ele>409.1428571428571</ele><time>2026-05-02T14:05:38Z</time></trkpt><trkpt lat="44.769684899102536" lon="9.941512761361098"><ele>409.8571428571429</ele><time>2026-05-02T14:05:41Z</time></trkpt><trkpt lat="44.76962390724519" lon="9.941565402177652"><ele>410.57142857142856</ele><time>2026-05-02T14:05:44Z</time></trkpt><trkpt lat="44.76955983836603" lon="9.941606872770356"><ele>411.2857142857143</ele><time>2026-05-02T14:05:47Z</time></trkpt><trkpt lat="44.769498035308686" lon="9.941631087104668"><ele>412.0</ele><time>2026-05-02T14:05:50Z</time></trkpt><trkpt lat="44.769422504654486" lon="9.941648519083037"><ele>412.4285714285714</ele><time>2026-05-02T14:05:53Z</time></trkpt><trkpt lat="44.76934609815227" lon="9.941654765123108"><ele>412.85714285714283</ele><time>2026-05-02T14:05:56Z</time></trkpt><trkpt lat="44.76926940746648" lon="9.941648656239112"><ele>413.2857142857143</ele><time>2026-05-02T14:05:58.999Z</time></trkpt><trkpt lat="44.76919639274869" lon="9.941640842469248"><ele>413.71428571428567</ele><time>2026-05-02T14:06:01.999Z</time></trkpt><trkpt lat="44.769111504291686" lon="9.941613711130179"><ele>414.14285714285717</ele><time>2026-05-02T14:06:04.999Z</time></trkpt><trkpt lat="44.76904709756265" lon="9.941596704878148"><ele>414.57142857142856</ele><time>2026-05-02T14:06:07.999Z</time></trkpt><trkpt lat="44.76898539100333" lon="9.941568592452072"><ele>415.0</ele><time>2026-05-02T14:06:10.999Z</time></trkpt><trkpt lat="44.76892254386741" lon="9.941530448207363"><ele>415.0</ele><time>2026-05-02T14:06:13.999Z</time></trkpt><trkpt lat="44.768858744129545" lon="9.941493027188303"><ele>415.0</ele><time>2026-05-02T14:06:16.999Z</time></trkpt><trkpt lat="44.76879385913178" lon="9.941448054635547"><ele>415.0</ele><time>2026-05-02T14:06:19.999Z</time></trkpt><trkpt lat="44.7687370947663" lon="9.941386305586857"><ele>415.0</ele><time>2026-05-02T14:06:22.999Z</time></trkpt><trkpt lat="44.76868705627494" lon="9.94131432662777"><ele>415.0</ele><time>2026-05-02T14:06:25.999Z</time></trkpt><trkpt lat="44.76865272197598" lon="9.941209579990279"><ele>415.0</ele><time>2026-05-02T14:06:28.999Z</time></trkpt><trkpt lat="44.76863493182492" lon="9.941115738969108"><ele>415.0</ele><time>2026-05-02T14:06:31.999Z</time></trkpt><trkpt lat="44.7686134951119" lon="9.941029460582344"><ele>415.00000000000006</ele><time>2026-05-02T14:06:34.999Z</time></trkpt><trkpt lat="44.768592162992725" lon="9.940926452191624"><ele>415.0</ele><time>2026-05-02T14:06:37.999Z</time></trkpt><trkpt lat="44.76856325178621" lon="9.94081933806938"><ele>415.0</ele><time>2026-05-02T14:06:40.999Z</time></trkpt><trkpt lat="44.76851823056039" lon="9.940725922027958"><ele>415.0</ele><time>2026-05-02T14:06:43.999Z</time></trkpt><trkpt lat="44.768471760432426" lon="9.940638873096185"><ele>415.00000000000006</ele><time>2026-05-02T14:06:46.999Z</time></trkpt><trkpt lat="44.76842127941237" lon="9.940552094799813"><ele>415.0</ele><time>2026-05-02T14:06:49.999Z</time></trkpt><trkpt lat="44.76836136139855" lon="9.940491913921777"><ele>416.6666666666667</ele><time>2026-05-02T14:06:51.999Z</time></trkpt><trkpt lat="44.76828369030944" lon="9.940434257557659"><ele>418.33333333333337</ele><time>2026-05-02T14:06:54.998Z</time></trkpt><trkpt lat="44.76820374192927" lon="9.940382362290725"><ele>420.0</ele><time>2026-05-02T14:06:57.998Z</time></trkpt><trkpt lat="44.768141534696895" lon="9.940354674790152"><ele>421.66666666666663</ele><time>2026-05-02T14:06:59.998Z</time></trkpt><trkpt lat="44.76807825913314" lon="9.940332056825053"><ele>423.3333333333333</ele><time>2026-05-02T14:07:01.998Z</time></trkpt><trkpt lat="44.767996367419485" lon="9.940307810235257"><ele>425.0</ele><time>2026-05-02T14:07:05Z</time></trkpt><trkpt lat="44.767909092741526" lon="9.940290337116044"><ele>424.99999999999994</ele><time>2026-05-02T14:07:08Z</time></trkpt><trkpt lat="44.76783212641426" lon="9.940283619529342"><ele>425.0</ele><time>2026-05-02T14:07:11Z</time></trkpt><trkpt lat="44.76773970983032" lon="9.940291464705263"><ele>425.0</ele><time>2026-05-02T14:07:14Z</time></trkpt><trkpt lat="44.76766421142925" lon="9.940309872854614"><ele>425.0</ele><time>2026-05-02T14:07:17Z</time></trkpt><trkpt lat="44.76758235063316" lon="9.940326729348541"><ele>424.99999999999994</ele><time>2026-05-02T14:07:20Z</time></trkpt><trkpt lat="44.76750247110253" lon="9.940346499111842"><ele>425.0</ele><time>2026-05-02T14:07:23Z</time></trkpt><trkpt lat="44.76743518360198" lon="9.940363810558008"><ele>425.66666666666663</ele><time>2026-05-02T14:07:25Z</time></trkpt><trkpt lat="44.76735871285402" lon="9.940377051419818"><ele>426.3333333333333</ele><time>2026-05-02T14:07:28Z</time></trkpt><trkpt lat="44.76728677508869" lon="9.940383770856487"><ele>427.0</ele><time>2026-05-02T14:07:31Z</time></trkpt><trkpt lat="44.76720723865956" lon="9.940390441179318"><ele>427.66666666666663</ele><time>2026-05-02T14:07:34Z</time></trkpt><trkpt lat="44.76712527651484" lon="9.940406067296298"><ele>428.3333333333333</ele><time>2026-05-02T14:07:37Z</time></trkpt><trkpt lat="44.76703942263964" lon="9.94042223032035"><ele>429.0</ele><time>2026-05-02T14:07:40Z</time></trkpt><trkpt lat="44.76696558701094" lon="9.940435847474745"><ele>429.0</ele><time>2026-05-02T14:07:43Z</time></trkpt><trkpt lat="44.76688877915134" lon="9.940452890808357"><ele>429.0</ele><time>2026-05-02T14:07:46Z</time></trkpt><trkpt lat="44.76681152335736" lon="9.940465097457448"><ele>429.0</ele><time>2026-05-02T14:07:49Z</time></trkpt><trkpt lat="44.766738499313206" lon="9.940488120470972"><ele>429.0</ele><time>2026-05-02T14:07:52Z</time></trkpt><trkpt lat="44.76666551456764" lon="9.940509973387131"><ele>429.0</ele><time>2026-05-02T14:07:55Z</time></trkpt><trkpt lat="44.76659406903365" lon="9.940540611696019"><ele>429.0</ele><time>2026-05-02T14:07:58Z</time></trkpt><trkpt lat="44.766516433329336" lon="9.940570784453367"><ele>429.5</ele><time>2026-05-02T14:08:01Z</time></trkpt><trkpt lat="44.76644326643611" lon="9.940607881218485"><ele>430.0</ele><time>2026-05-02T14:08:03.999Z</time></trkpt><trkpt lat="44.76636654761299" lon="9.940636758513643"><ele>430.5</ele><time>2026-05-02T14:08:06.999Z</time></trkpt><trkpt lat="44.76628868395231" lon="9.940670894028466"><ele>431.0</ele><time>2026-05-02T14:08:09.999Z</time></trkpt><trkpt lat="44.76621337000416" lon="9.940701002280566"><ele>431.5</ele><time>2026-05-02T14:08:12.999Z</time></trkpt><trkpt lat="44.76613718690914" lon="9.94072774700081"><ele>432.0</ele><time>2026-05-02T14:08:15.999Z</time></trkpt><trkpt lat="44.766059138025604" lon="9.94076036929078"><ele>432.0</ele><time>2026-05-02T14:08:18.999Z</time></trkpt><trkpt lat="44.7659827179734" lon="9.940792349142445"><ele>432.0</ele><time>2026-05-02T14:08:21.999Z</time></trkpt><trkpt lat="44.765908029619276" lon="9.940822247673399"><ele>432.0</ele><time>2026-05-02T14:08:24.999Z</time></trkpt><trkpt lat="44.76583243555407" lon="9.940857663011245"><ele>432.0</ele><time>2026-05-02T14:08:27.999Z</time></trkpt><trkpt lat="44.76575666263268" lon="9.94089875488737"><ele>432.0</ele><time>2026-05-02T14:08:30.999Z</time></trkpt><trkpt lat="44.76568247848045" lon="9.940936833053646"><ele>432.0</ele><time>2026-05-02T14:08:33.999Z</time></trkpt><trkpt lat="44.76561382920182" lon="9.940979178024959"><ele>432.0</ele><time>2026-05-02T14:08:36.999Z</time></trkpt><trkpt lat="44.76554819358989" lon="9.941022391962342"><ele>432.0</ele><time>2026-05-02T14:08:39.999Z</time></trkpt><trkpt lat="44.76548088985768" lon="9.941072546656532"><ele>432.0</ele><time>2026-05-02T14:08:42.999Z</time></trkpt><trkpt lat="44.765415754794894" lon="9.94111645835978"><ele>432.0</ele><time>2026-05-02T14:08:45.999Z</time></trkpt><trkpt lat="44.765350857751336" lon="9.941167369249612"><ele>432.0</ele><time>2026-05-02T14:08:48.999Z</time></trkpt><trkpt lat="44.76528570724973" lon="9.941214831375818"><ele>432.0</ele><time>2026-05-02T14:08:51.999Z</time></trkpt><trkpt lat="44.76522176515489" lon="9.94126079458281"><ele>432.0</ele><time>2026-05-02T14:08:54.999Z</time></trkpt><trkpt lat="44.76515940601726" lon="9.9413127323852"><ele>433.7142857142857</ele><time>2026-05-02T14:08:57.999Z</time></trkpt><trkpt lat="44.765099762122475" lon="9.941358327121343"><ele>435.42857142857144</ele><time>2026-05-02T14:09:00.998Z</time></trkpt><trkpt lat="44.7650408967913" lon="9.941400325999911"><ele>437.1428571428571</ele><time>2026-05-02T14:09:03.998Z</time></trkpt><trkpt lat="44.76497662312573" lon="9.941441180840625"><ele>438.8571428571429</ele><time>2026-05-02T14:09:06.998Z</time></trkpt><trkpt lat="44.764916310354096" lon="9.94148278852001"><ele>440.5714285714286</ele><time>2026-05-02T14:09:10Z</time></trkpt><trkpt lat="44.76485857066081" lon="9.941531142517086"><ele>442.2857142857143</ele><time>2026-05-02T14:09:13Z</time></trkpt><trkpt lat="44.76479788355651" lon="9.941577583628112"><ele>444.0</ele><time>2026-05-02T14:09:16Z</time></trkpt><trkpt lat="44.76472506109394" lon="9.941632402015706"><ele>444.0</ele><time>2026-05-02T14:09:20Z</time></trkpt><trkpt lat="44.76466686105747" lon="9.941667959255527"><ele>444.0</ele><time>2026-05-02T14:09:23Z</time></trkpt><trkpt lat="44.76461163384492" lon="9.941711199132914"><ele>444.0</ele><time>2026-05-02T14:09:26Z</time></trkpt><trkpt lat="44.76454048819069" lon="9.941769581705534"><ele>444.0</ele><time>2026-05-02T14:09:30Z</time></trkpt><trkpt lat="44.76446614058972" lon="9.941823171387517"><ele>444.0</ele><time>2026-05-02T14:09:34Z</time></trkpt><trkpt lat="44.7643960198542" lon="9.94187572638166"><ele>444.0</ele><time>2026-05-02T14:09:38Z</time></trkpt><trkpt lat="44.76434017728761" lon="9.94191809282885"><ele>444.0</ele><time>2026-05-02T14:09:41Z</time></trkpt><trkpt lat="44.76426918537348" lon="9.941971603927119"><ele>445.8333333333333</ele><time>2026-05-02T14:09:45Z</time></trkpt><trkpt lat="44.76419917329755" lon="9.942030660332675"><ele>447.66666666666663</ele><time>2026-05-02T14:09:49Z</time></trkpt><trkpt lat="44.76413270331981" lon="9.942094714425023"><ele>449.5</ele><time>2026-05-02T14:09:53Z</time></trkpt><trkpt lat="44.76406843044864" lon="9.942161471891522"><ele>451.3333333333333</ele><time>2026-05-02T14:09:57Z</time></trkpt><trkpt lat="44.76400151995495" lon="9.942228897659922"><ele>453.16666666666663</ele><time>2026-05-02T14:10:01Z</time></trkpt><trkpt lat="44.763951486871605" lon="9.942285163000681"><ele>455.0</ele><time>2026-05-02T14:10:04Z</time></trkpt><trkpt lat="44.76389685007649" lon="9.942341212182733"><ele>454.99999999999994</ele><time>2026-05-02T14:10:07Z</time></trkpt><trkpt lat="44.76383033242817" lon="9.942409869023964"><ele>455.0</ele><time>2026-05-02T14:10:10.999Z</time></trkpt><trkpt lat="44.76376314751007" lon="9.942469550250173"><ele>455.0</ele><time>2026-05-02T14:10:14.999Z</time></trkpt><trkpt lat="44.763691467999756" lon="9.94252353219057"><ele>455.0</ele><time>2026-05-02T14:10:18.999Z</time></trkpt><trkpt lat="44.76363227977468" lon="9.942557644816784"><ele>454.99999999999994</ele><time>2026-05-02T14:10:21.999Z</time></trkpt><trkpt lat="44.76355600295981" lon="9.942591443783899"><ele>455.0</ele><time>2026-05-02T14:10:25.999Z</time></trkpt><trkpt lat="44.7634782750459" lon="9.942619508968374"><ele>456.49999999999994</ele><time>2026-05-02T14:10:29.999Z</time></trkpt><trkpt lat="44.76339877548195" lon="9.942648299316451"><ele>458.0</ele><time>2026-05-02T14:10:33.999Z</time></trkpt><trkpt lat="44.76332330709554" lon="9.942664475839077"><ele>459.5</ele><time>2026-05-02T14:10:37.999Z</time></trkpt><trkpt lat="44.76325548116332" lon="9.942634163027012"><ele>461.0</ele><time>2026-05-02T14:10:41.999Z</time></trkpt><trkpt lat="44.76322770964137" lon="9.942541528912594"><ele>462.49999999999994</ele><time>2026-05-02T14:10:45.999Z</time></trkpt><trkpt lat="44.76323671669243" lon="9.942437921534134"><ele>464.0</ele><time>2026-05-02T14:10:49.999Z</time></trkpt><trkpt lat="44.76327016652883" lon="9.942337476581939"><ele>464.3333333333333</ele><time>2026-05-02T14:10:53.999Z</time></trkpt><trkpt lat="44.76330537421669" lon="9.942248389390025"><ele>464.66666666666663</ele><time>2026-05-02T14:10:57.999Z</time></trkpt><trkpt lat="44.76334654755305" lon="9.942154963730708"><ele>465.0</ele><time>2026-05-02T14:11:01.999Z</time></trkpt><trkpt lat="44.76338282435348" lon="9.942063136140387"><ele>465.33333333333337</ele><time>2026-05-02T14:11:05.998Z</time></trkpt><trkpt lat="44.76342711696888" lon="9.941968043603481"><ele>465.6666666666667</ele><time>2026-05-02T14:11:09.998Z</time></trkpt><trkpt lat="44.763469838632375" lon="9.941882778708475"><ele>466.0</ele><time>2026-05-02T14:11:13.998Z</time></trkpt><trkpt lat="44.763513114272236" lon="9.941791534564322"><ele>465.1666666666667</ele><time>2026-05-02T14:11:18Z</time></trkpt><trkpt lat="44.76355834532773" lon="9.941703596748999"><ele>464.33333333333337</ele><time>2026-05-02T14:11:22Z</time></trkpt><trkpt lat="44.763609544800644" lon="9.941602432262014"><ele>463.5</ele><time>2026-05-02T14:11:26Z</time></trkpt><trkpt lat="44.76365720658188" lon="9.941509568682985"><ele>462.66666666666663</ele><time>2026-05-02T14:11:30Z</time></trkpt><trkpt lat="44.76371100089593" lon="9.941414602226672"><ele>461.8333333333333</ele><time>2026-05-02T14:11:34Z</time></trkpt><trkpt lat="44.7637587395338" lon="9.941324747179548"><ele>461.0</ele><time>2026-05-02T14:11:38Z</time></trkpt><trkpt lat="44.76380192735232" lon="9.941226607429936"><ele>461.0</ele><time>2026-05-02T14:11:42Z</time></trkpt><trkpt lat="44.76384645144076" lon="9.941129266616082"><ele>461.00000000000006</ele><time>2026-05-02T14:11:46Z</time></trkpt><trkpt lat="44.763881641638406" lon="9.941052018970431"><ele>461.0</ele><time>2026-05-02T14:11:49Z</time></trkpt><trkpt lat="44.76391864272172" lon="9.940977722494665"><ele>461.0</ele><time>2026-05-02T14:11:52Z</time></trkpt><trkpt lat="44.76394747905183" lon="9.940891695786084"><ele>461.00000000000006</ele><time>2026-05-02T14:11:55Z</time></trkpt><trkpt lat="44.76397369071759" lon="9.940805144713043"><ele>461.0</ele><time>2026-05-02T14:11:58Z</time></trkpt><trkpt lat="44.76399078920495" lon="9.940712863349862"><ele>461.0</ele><time>2026-05-02T14:12:01Z</time></trkpt><trkpt lat="44.763999257591166" lon="9.940611781434916"><ele>462.42857142857144</ele><time>2026-05-02T14:12:04Z</time></trkpt><trkpt lat="44.763968995664236" lon="9.94051723028028"><ele>463.8571428571429</ele><time>2026-05-02T14:12:07Z</time></trkpt><trkpt lat="44.76389957819858" lon="9.940484229159024"><ele>465.28571428571433</ele><time>2026-05-02T14:12:09.999Z</time></trkpt><trkpt lat="44.76383811508356" lon="9.940525157801956"><ele>466.7142857142858</ele><time>2026-05-02T14:12:12.999Z</time></trkpt><trkpt lat="44.763794953781684" lon="9.940591138812945"><ele>468.14285714285717</ele><time>2026-05-02T14:12:15.999Z</time></trkpt><trkpt lat="44.76375389108253" lon="9.940661393358385"><ele>469.57142857142867</ele><time>2026-05-02T14:12:18.999Z</time></trkpt><trkpt lat="44.763707144742256" lon="9.9407284429495"><ele>471.00000000000006</ele><time>2026-05-02T14:12:21.999Z</time></trkpt><trkpt lat="44.763647203126446" lon="9.940801570643613"><ele>471.00000000000006</ele><time>2026-05-02T14:12:24.999Z</time></trkpt><trkpt lat="44.76358262347643" lon="9.940857694853463"><ele>471.0</ele><time>2026-05-02T14:12:28.999Z</time></trkpt><trkpt lat="44.763505583916455" lon="9.940908497003571"><ele>471.00000000000006</ele><time>2026-05-02T14:12:32.999Z</time></trkpt><trkpt lat="44.76344370886184" lon="9.940940574613816"><ele>471.00000000000006</ele><time>2026-05-02T14:12:35.999Z</time></trkpt><trkpt lat="44.763386227708246" lon="9.940978546800116"><ele>471.0</ele><time>2026-05-02T14:12:38.999Z</time></trkpt><trkpt lat="44.763316662938685" lon="9.941019099548953"><ele>471.00000000000006</ele><time>2026-05-02T14:12:41.999Z</time></trkpt><trkpt lat="44.76324699666965" lon="9.941060335458612"><ele>471.00000000000006</ele><time>2026-05-02T14:12:44.999Z</time></trkpt><trkpt lat="44.763163225350596" lon="9.941088735921971"><ele>472.1666666666667</ele><time>2026-05-02T14:12:47.999Z</time></trkpt><trkpt lat="44.763089589449116" lon="9.941095696595488"><ele>473.33333333333337</ele><time>2026-05-02T14:12:51.999Z</time></trkpt><trkpt lat="44.763019931127594" lon="9.941087701332957"><ele>474.5</ele><time>2026-05-02T14:12:53.999Z</time></trkpt><trkpt lat="44.76294716437588" lon="9.941053849267854"><ele>475.6666666666667</ele><time>2026-05-02T14:12:56.999Z</time></trkpt><trkpt lat="44.76286919617604" lon="9.941011532859676"><ele>476.83333333333337</ele><time>2026-05-02T14:12:59.999Z</time></trkpt><trkpt lat="44.762784850469615" lon="9.940981619724944"><ele>478.0</ele><time>2026-05-02T14:13:02.999Z</time></trkpt><trkpt lat="44.76269848218764" lon="9.940981094462863"><ele>480.1666666666667</ele><time>2026-05-02T14:13:05.998Z</time></trkpt><trkpt lat="44.76261607815617" lon="9.941010723797902"><ele>482.33333333333337</ele><time>2026-05-02T14:13:08.998Z</time></trkpt><trkpt lat="44.76255402238218" lon="9.941063743296928"><ele>484.5</ele><time>2026-05-02T14:13:11.998Z</time></trkpt><trkpt lat="44.762494075079296" lon="9.941144865167105"><ele>486.66666666666663</ele><time>2026-05-02T14:13:14.998Z</time></trkpt><trkpt lat="44.76244308729807" lon="9.941224820987712"><ele>488.8333333333333</ele><time>2026-05-02T14:13:17.998Z</time></trkpt><trkpt lat="44.76239280578784" lon="9.941303506765037"><ele>491.0</ele><time>2026-05-02T14:13:21Z</time></trkpt><trkpt lat="44.762340624192234" lon="9.941379920755649"><ele>491.0</ele><time>2026-05-02T14:13:24Z</time></trkpt><trkpt lat="44.762286010949886" lon="9.941452743068622"><ele>490.99999999999994</ele><time>2026-05-02T14:13:27Z</time></trkpt><trkpt lat="44.76222274967866" lon="9.941517257627368"><ele>491.0</ele><time>2026-05-02T14:13:30Z</time></trkpt><trkpt lat="44.76216250063929" lon="9.941557586586452"><ele>491.0</ele><time>2026-05-02T14:13:33Z</time></trkpt><trkpt lat="44.76209051081581" lon="9.941586173220754"><ele>490.99999999999994</ele><time>2026-05-02T14:13:36Z</time></trkpt><trkpt lat="44.76202306077268" lon="9.941593454913342"><ele>491.0</ele><time>2026-05-02T14:13:39Z</time></trkpt><trkpt lat="44.76195864381643" lon="9.94159170273681"><ele>491.0</ele><time>2026-05-02T14:13:42Z</time></trkpt><trkpt lat="44.761882416949014" lon="9.941586180492882"><ele>491.66666666666663</ele><time>2026-05-02T14:13:45Z</time></trkpt><trkpt lat="44.76179135453196" lon="9.941592828468504"><ele>492.3333333333333</ele><time>2026-05-02T14:13:48Z</time></trkpt><trkpt lat="44.76171161169578" lon="9.941604093089131"><ele>493.0</ele><time>2026-05-02T14:13:51Z</time></trkpt><trkpt lat="44.76163372316205" lon="9.941637680696596"><ele>493.66666666666663</ele><time>2026-05-02T14:13:54Z</time></trkpt><trkpt lat="44.7615683533824" lon="9.941672124793007"><ele>494.3333333333333</ele><time>2026-05-02T14:13:57Z</time></trkpt><trkpt lat="44.7615059803776" lon="9.941716671712788"><ele>495.0</ele><time>2026-05-02T14:14:00Z</time></trkpt><trkpt lat="44.761439719179144" lon="9.941775521594128"><ele>495.0</ele><time>2026-05-02T14:14:03Z</time></trkpt><trkpt lat="44.7613713261866" lon="9.941846128098044"><ele>495.0</ele><time>2026-05-02T14:14:06Z</time></trkpt><trkpt lat="44.76131192380266" lon="9.941937087104575"><ele>495.0</ele><time>2026-05-02T14:14:09Z</time></trkpt><trkpt lat="44.76124963917635" lon="9.942030434478506"><ele>495.0</ele><time>2026-05-02T14:14:12Z</time></trkpt><trkpt lat="44.76119443730423" lon="9.942129292658164"><ele>495.0</ele><time>2026-05-02T14:14:14.999Z</time></trkpt><trkpt lat="44.76114716865633" lon="9.942206063763331"><ele>495.0</ele><time>2026-05-02T14:14:17.999Z</time></trkpt><trkpt lat="44.76110808719355" lon="9.942284264045032"><ele>495.0</ele><time>2026-05-02T14:14:20.999Z</time></trkpt><trkpt lat="44.761063985687805" lon="9.942373118037876"><ele>495.0</ele><time>2026-05-02T14:14:23.999Z</time></trkpt><trkpt lat="44.76102574189792" lon="9.942459989055743"><ele>495.0</ele><time>2026-05-02T14:14:26.999Z</time></trkpt><trkpt lat="44.76098821341604" lon="9.9425549542598"><ele>495.0</ele><time>2026-05-02T14:14:29.999Z</time></trkpt><trkpt lat="44.760967259562634" lon="9.942652490262496"><ele>495.0</ele><time>2026-05-02T14:14:32.999Z</time></trkpt><trkpt lat="44.76096141972712" lon="9.942758667838905"><ele>495.0</ele><time>2026-05-02T14:14:35.999Z</time></trkpt><trkpt lat="44.76097108864403" lon="9.942869208795319"><ele>494.8333333333333</ele><time>2026-05-02T14:14:38.999Z</time></trkpt><trkpt lat="44.76099466356741" lon="9.942979290689506"><ele>494.66666666666663</ele><time>2026-05-02T14:14:41.999Z</time></trkpt><trkpt lat="44.76102199648834" lon="9.943082737377889"><ele>494.5</ele><time>2026-05-02T14:14:44.999Z</time></trkpt><trkpt lat="44.761044506548295" lon="9.943186870564274"><ele>494.3333333333333</ele><time>2026-05-02T14:14:47.999Z</time></trkpt><trkpt lat="44.76105974033844" lon="9.943293664436226"><ele>494.16666666666663</ele><time>2026-05-02T14:14:50.999Z</time></trkpt><trkpt lat="44.761054284835865" lon="9.943407718467494"><ele>494.0</ele><time>2026-05-02T14:14:53.999Z</time></trkpt><trkpt lat="44.7610406500492" lon="9.943514371549982"><ele>496.66666666666663</ele><time>2026-05-02T14:14:56.999Z</time></trkpt><trkpt lat="44.761021756998645" lon="9.943625696073267"><ele>499.3333333333333</ele><time>2026-05-02T14:14:59.999Z</time></trkpt><trkpt lat="44.76099947632214" lon="9.943729043956266"><ele>502.0</ele><time>2026-05-02T14:15:02.999Z</time></trkpt><trkpt lat="44.760968031573235" lon="9.943834622087781"><ele>504.66666666666663</ele><time>2026-05-02T14:15:05.999Z</time></trkpt><trkpt lat="44.76090987634225" lon="9.943909431339696"><ele>507.3333333333333</ele><time>2026-05-02T14:15:08.999Z</time></trkpt><trkpt lat="44.76083562437944" lon="9.943903084947765"><ele>510.0</ele><time>2026-05-02T14:15:11.998Z</time></trkpt><trkpt lat="44.76079157083743" lon="9.943832574301313"><ele>510.0</ele><time>2026-05-02T14:15:14.998Z</time></trkpt><trkpt lat="44.760758011235914" lon="9.943738333322862"><ele>510.00000000000006</ele><time>2026-05-02T14:15:17.998Z</time></trkpt><trkpt lat="44.760724612239436" lon="9.94363282536053"><ele>510.0</ele><time>2026-05-02T14:15:21.998Z</time></trkpt><trkpt lat="44.76069953902819" lon="9.943550428083595"><ele>510.0</ele><time>2026-05-02T14:15:24.998Z</time></trkpt><trkpt lat="44.760672895258395" lon="9.94346026233779"><ele>510.00000000000006</ele><time>2026-05-02T14:15:28Z</time></trkpt><trkpt lat="44.760645020639096" lon="9.943354448648975"><ele>510.0</ele><time>2026-05-02T14:15:31Z</time></trkpt><trkpt lat="44.760626575344325" lon="9.943250937595257"><ele>510.0</ele><time>2026-05-02T14:15:34Z</time></trkpt><trkpt lat="44.76059354979212" lon="9.9431446815775"><ele>510.42857142857144</ele><time>2026-05-02T14:15:37Z</time></trkpt><trkpt lat="44.76055668640747" lon="9.943045338528247"><ele>510.8571428571429</ele><time>2026-05-02T14:15:40Z</time></trkpt><trkpt lat="44.76051700408123" lon="9.942970184230544"><ele>511.28571428571433</ele><time>2026-05-02T14:15:43Z</time></trkpt><trkpt lat="44.76047176385436" lon="9.942885472744955"><ele>511.7142857142858</ele><time>2026-05-02T14:15:46Z</time></trkpt><trkpt lat="44.76043146360108" lon="9.942815878050142"><ele>512.1428571428571</ele><time>2026-05-02T14:15:48Z</time></trkpt><trkpt lat="44.760389410041384" lon="9.942731706878538"><ele>512.5714285714287</ele><time>2026-05-02T14:15:51Z</time></trkpt><trkpt lat="44.76035352677425" lon="9.942645204562353"><ele>513.0</ele><time>2026-05-02T14:15:53Z</time></trkpt><trkpt lat="44.76033486805212" lon="9.942545836706051"><ele>513.0</ele><time>2026-05-02T14:15:56Z</time></trkpt><trkpt lat="44.76033453739798" lon="9.942427105982992"><ele>513.0</ele><time>2026-05-02T14:15:59Z</time></trkpt><trkpt lat="44.760341463817895" lon="9.942310173765808"><ele>513.0</ele><time>2026-05-02T14:16:02Z</time></trkpt><trkpt lat="44.760352716630734" lon="9.942196347614537"><ele>513.0</ele><time>2026-05-02T14:16:05Z</time></trkpt><trkpt lat="44.76036896144497" lon="9.942081143785385"><ele>513.0</ele><time>2026-05-02T14:16:08Z</time></trkpt><trkpt lat="44.76038537091719" lon="9.94197146569461"><ele>513.0</ele><time>2026-05-02T14:16:11Z</time></trkpt><trkpt lat="44.76040262501501" lon="9.941858813504766"><ele>513.0</ele><time>2026-05-02T14:16:14Z</time></trkpt><trkpt lat="44.76042461336606" lon="9.941740285940886"><ele>513.0</ele><time>2026-05-02T14:16:17Z</time></trkpt><trkpt lat="44.76044490410889" lon="9.941622467561473"><ele>513.0</ele><time>2026-05-02T14:16:19.999Z</time></trkpt><trkpt lat="44.76046567552682" lon="9.941510911554587"><ele>513.0</ele><time>2026-05-02T14:16:22.999Z</time></trkpt><trkpt lat="44.76048827134767" lon="9.941402344869392"><ele>513.0</ele><time>2026-05-02T14:16:25.999Z</time></trkpt><trkpt lat="44.76051130513154" lon="9.94129751045181"><ele>513.0</ele><time>2026-05-02T14:16:28.999Z</time></trkpt><trkpt lat="44.76053844055163" lon="9.941192360675537"><ele>513.3333333333334</ele><time>2026-05-02T14:16:31.999Z</time></trkpt><trkpt lat="44.760572154841185" lon="9.94109223140402"><ele>513.6666666666666</ele><time>2026-05-02T14:16:34.999Z</time></trkpt><trkpt lat="44.76061278054538" lon="9.94100130769325"><ele>514.0</ele><time>2026-05-02T14:16:37.999Z</time></trkpt><trkpt lat="44.76065844042055" lon="9.940913913026572"><ele>514.3333333333333</ele><time>2026-05-02T14:16:40.999Z</time></trkpt><trkpt lat="44.76070456206518" lon="9.940835013127181"><ele>514.6666666666666</ele><time>2026-05-02T14:16:43.999Z</time></trkpt><trkpt lat="44.76075978200303" lon="9.940747637322756"><ele>515.0</ele><time>2026-05-02T14:16:46.999Z</time></trkpt><trkpt lat="44.76082121868875" lon="9.940653208712227"><ele>516.5714285714286</ele><time>2026-05-02T14:16:49.999Z</time></trkpt><trkpt lat="44.76087011889152" lon="9.940576287722061"><ele>518.1428571428571</ele><time>2026-05-02T14:16:52.999Z</time></trkpt><trkpt lat="44.760923008656334" lon="9.940500074494832"><ele>519.7142857142857</ele><time>2026-05-02T14:16:55.999Z</time></trkpt><trkpt lat="44.760966189699786" lon="9.940427116431042"><ele>521.2857142857142</ele><time>2026-05-02T14:16:57.999Z</time></trkpt><trkpt lat="44.76100002971072" lon="9.94034125640575"><ele>522.8571428571428</ele><time>2026-05-02T14:17:00.999Z</time></trkpt><trkpt lat="44.76101700774288" lon="9.94024051605929"><ele>524.4285714285714</ele><time>2026-05-02T14:17:03.999Z</time></trkpt><trkpt lat="44.76099085366052" lon="9.940146053598935"><ele>526.0</ele><time>2026-05-02T14:17:06.999Z</time></trkpt><trkpt lat="44.76093041653787" lon="9.940088277599353"><ele>526.0</ele><time>2026-05-02T14:17:09.999Z</time></trkpt><trkpt lat="44.760859159359384" lon="9.940079593634367"><ele>526.0</ele><time>2026-05-02T14:17:12.999Z</time></trkpt><trkpt lat="44.76079412792938" lon="9.940099935302825"><ele>526.0</ele><time>2026-05-02T14:17:14.998Z</time></trkpt><trkpt lat="44.760731226905875" lon="9.940124087985467"><ele>526.0</ele><time>2026-05-02T14:17:17.998Z</time></trkpt><trkpt lat="44.760670371662755" lon="9.940150459973164"><ele>526.0</ele><time>2026-05-02T14:17:20.998Z</time></trkpt><trkpt lat="44.76060764711168" lon="9.940174356464027"><ele>526.0</ele><time>2026-05-02T14:17:22.998Z</time></trkpt><trkpt lat="44.760540054552244" lon="9.94018988451414"><ele>526.0</ele><time>2026-05-02T14:17:25.998Z</time></trkpt><trkpt lat="44.760469847806675" lon="9.940217682651207"><ele>526.0</ele><time>2026-05-02T14:17:28.998Z</time></trkpt><trkpt lat="44.76039433896893" lon="9.940243930181559"><ele>526.0</ele><time>2026-05-02T14:17:32Z</time></trkpt><trkpt lat="44.76031743800677" lon="9.940263947519773"><ele>526.0</ele><time>2026-05-02T14:17:35Z</time></trkpt><trkpt lat="44.76022910435325" lon="9.940305989465685"><ele>526.0</ele><time>2026-05-02T14:17:38Z</time></trkpt><trkpt lat="44.760164019097225" lon="9.940366497835312"><ele>526.0</ele><time>2026-05-02T14:17:41Z</time></trkpt><trkpt lat="44.76010861686868" lon="9.94042258553598"><ele>526.0</ele><time>2026-05-02T14:17:44Z</time></trkpt><trkpt lat="44.76005970902277" lon="9.940483179545945"><ele>527.0</ele><time>2026-05-02T14:17:47Z</time></trkpt><trkpt lat="44.760006214029886" lon="9.94056491318999"><ele>528.0</ele><time>2026-05-02T14:17:50Z</time></trkpt><trkpt lat="44.7599543609682" lon="9.94064270693712"><ele>529.0</ele><time>2026-05-02T14:17:53Z</time></trkpt><trkpt lat="44.75989951893921" lon="9.940723846347382"><ele>530.0</ele><time>2026-05-02T14:17:56Z</time></trkpt><trkpt lat="44.75984631191433" lon="9.940799409621349"><ele>531.0</ele><time>2026-05-02T14:17:59Z</time></trkpt><trkpt lat="44.759785896639414" lon="9.940894421841495"><ele>532.0</ele><time>2026-05-02T14:18:02Z</time></trkpt><trkpt lat="44.75973355620641" lon="9.940971795661726"><ele>532.0</ele><time>2026-05-02T14:18:05Z</time></trkpt><trkpt lat="44.759686920620844" lon="9.941053301704594"><ele>532.0</ele><time>2026-05-02T14:18:08Z</time></trkpt><trkpt lat="44.75964143986201" lon="9.941140617045926"><ele>532.0</ele><time>2026-05-02T14:18:11Z</time></trkpt><trkpt lat="44.75960092511959" lon="9.941210430787281"><ele>532.0</ele><time>2026-05-02T14:18:13Z</time></trkpt><trkpt lat="44.75956267488257" lon="9.941290112163937"><ele>532.0</ele><time>2026-05-02T14:18:16Z</time></trkpt><trkpt lat="44.75951885401039" lon="9.941371754899988"><ele>532.0</ele><time>2026-05-02T14:18:19Z</time></trkpt><trkpt lat="44.759473312057985" lon="9.94146399424945"><ele>532.0</ele><time>2026-05-02T14:18:22Z</time></trkpt><trkpt lat="44.75944013440449" lon="9.941550838481279"><ele>532.0</ele><time>2026-05-02T14:18:24.999Z</time></trkpt><trkpt lat="44.75939996439886" lon="9.941645988905327"><ele>532.0</ele><time>2026-05-02T14:18:27.999Z</time></trkpt><trkpt lat="44.75935866297166" lon="9.941725117543207"><ele>532.0</ele><time>2026-05-02T14:18:29.999Z</time></trkpt><trkpt lat="44.75931371101172" lon="9.941807054770429"><ele>532.0</ele><time>2026-05-02T14:18:32.999Z</time></trkpt><trkpt lat="44.759279950153065" lon="9.941897891094774"><ele>532.0</ele><time>2026-05-02T14:18:35.999Z</time></trkpt><trkpt lat="44.759239084994746" lon="9.941992396555747"><ele>532.0</ele><time>2026-05-02T14:18:38.999Z</time></trkpt><trkpt lat="44.75920326168354" lon="9.942070359843958"><ele>532.0</ele><time>2026-05-02T14:18:41.999Z</time></trkpt><trkpt lat="44.759172471539344" lon="9.94215481045788"><ele>534.1666666666667</ele><time>2026-05-02T14:18:44.999Z</time></trkpt><trkpt lat="44.75914977361797" lon="9.942255381030533"><ele>536.3333333333334</ele><time>2026-05-02T14:18:47.999Z</time></trkpt><trkpt lat="44.75913980702468" lon="9.942366872083003"><ele>538.5</ele><time>2026-05-02T14:18:50.999Z</time></trkpt><trkpt lat="44.7591317618399" lon="9.94247308091367"><ele>540.6666666666666</ele><time>2026-05-02T14:18:53.999Z</time></trkpt><trkpt lat="44.75912971245506" lon="9.942575704413901"><ele>542.8333333333333</ele><time>2026-05-02T14:18:56.999Z</time></trkpt><trkpt lat="44.759131199146545" lon="9.942696048044565"><ele>545.0</ele><time>2026-05-02T14:18:59.999Z</time></trkpt><trkpt lat="44.75912989442734" lon="9.942791682075082"><ele>545.0</ele><time>2026-05-02T14:19:02.999Z</time></trkpt><trkpt lat="44.75911848746047" lon="9.942890004859176"><ele>545.0</ele><time>2026-05-02T14:19:05.999Z</time></trkpt><trkpt lat="44.75905885162336" lon="9.942942151995968"><ele>545.0</ele><time>2026-05-02T14:19:08.999Z</time></trkpt><trkpt lat="44.75900305736354" lon="9.94289465785151"><ele>545.0</ele><time>2026-05-02T14:19:11.999Z</time></trkpt><trkpt lat="44.75898561556132" lon="9.942809280263145"><ele>545.0</ele><time>2026-05-02T14:19:14.999Z</time></trkpt><trkpt lat="44.75897228225176" lon="9.942718639400868"><ele>545.0</ele><time>2026-05-02T14:19:17.999Z</time></trkpt><trkpt lat="44.758955789787564" lon="9.942610795067205"><ele>545.0</ele><time>2026-05-02T14:19:20.998Z</time></trkpt><trkpt lat="44.75894341168289" lon="9.942507862176642"><ele>545.4285714285714</ele><time>2026-05-02T14:19:23.998Z</time></trkpt><trkpt lat="44.758935841240906" lon="9.942405249918519"><ele>545.8571428571429</ele><time>2026-05-02T14:19:27.998Z</time></trkpt><trkpt lat="44.75892184134711" lon="9.942295324259687"><ele>546.2857142857143</ele><time>2026-05-02T14:19:31.998Z</time></trkpt><trkpt lat="44.75891749100166" lon="9.942191383655244"><ele>546.7142857142858</ele><time>2026-05-02T14:19:34.998Z</time></trkpt><trkpt lat="44.75891994293244" lon="9.942095301630113"><ele>547.1428571428571</ele><time>2026-05-02T14:19:39Z</time></trkpt><trkpt lat="44.75892706084958" lon="9.941999830011367"><ele>547.5714285714287</ele><time>2026-05-02T14:19:42Z</time></trkpt><trkpt lat="44.758935565666135" lon="9.941883458513548"><ele>548.0</ele><time>2026-05-02T14:19:46Z</time></trkpt><trkpt lat="44.758951418836794" lon="9.941763222736231"><ele>549.1428571428572</ele><time>2026-05-02T14:19:50Z</time></trkpt><trkpt lat="44.75896559297696" lon="9.941674383115277"><ele>550.2857142857143</ele><time>2026-05-02T14:19:53Z</time></trkpt><trkpt lat="44.75898436551442" lon="9.941569192724126"><ele>551.4285714285714</ele><time>2026-05-02T14:19:56Z</time></trkpt><trkpt lat="44.75899896372588" lon="9.941467782758581"><ele>552.5714285714287</ele><time>2026-05-02T14:20:00Z</time></trkpt><trkpt lat="44.75901117726219" lon="9.941377348942634"><ele>553.7142857142858</ele><time>2026-05-02T14:20:03Z</time></trkpt><trkpt lat="44.759025683941765" lon="9.941280974171038"><ele>554.8571428571429</ele><time>2026-05-02T14:20:06Z</time></trkpt><trkpt lat="44.75904607115192" lon="9.941159536376231"><ele>556.0</ele><time>2026-05-02T14:20:09Z</time></trkpt><trkpt lat="44.75905884785532" lon="9.941065197836043"><ele>556.0</ele><time>2026-05-02T14:20:12Z</time></trkpt><trkpt lat="44.75906578710467" lon="9.940957607131626"><ele>556.0</ele><time>2026-05-02T14:20:16Z</time></trkpt><trkpt lat="44.75906843921861" lon="9.94085901505473"><ele>556.0</ele><time>2026-05-02T14:20:19Z</time></trkpt><trkpt lat="44.759061589346196" lon="9.940745105085782"><ele>556.0</ele><time>2026-05-02T14:20:22Z</time></trkpt><trkpt lat="44.75905236272513" lon="9.94064320016562"><ele>556.0</ele><time>2026-05-02T14:20:25Z</time></trkpt><trkpt lat="44.759029999168284" lon="9.940546732052006"><ele>556.0</ele><time>2026-05-02T14:20:27.999Z</time></trkpt><trkpt lat="44.75900786391272" lon="9.940442302689004"><ele>557.5</ele><time>2026-05-02T14:20:30.999Z</time></trkpt><trkpt lat="44.758999380660995" lon="9.940334070966172"><ele>559.0</ele><time>2026-05-02T14:20:34.999Z</time></trkpt><trkpt lat="44.759015376254915" lon="9.940235645305997"><ele>560.5</ele><time>2026-05-02T14:20:37.999Z</time></trkpt><trkpt lat="44.75905072242712" lon="9.940121616433904"><ele>562.0</ele><time>2026-05-02T14:20:40.999Z</time></trkpt><trkpt lat="44.75909181257668" lon="9.940033834007775"><ele>563.5</ele><time>2026-05-02T14:20:44.999Z</time></trkpt><trkpt lat="44.75912939145796" lon="9.93994587596726"><ele>565.0</ele><time>2026-05-02T14:20:47.999Z</time></trkpt><trkpt lat="44.75916329602053" lon="9.939851331048413"><ele>565.5714285714286</ele><time>2026-05-02T14:20:50.999Z</time></trkpt><trkpt lat="44.759186512589864" lon="9.939745669982782"><ele>566.1428571428571</ele><time>2026-05-02T14:20:53.999Z</time></trkpt><trkpt lat="44.759191658047776" lon="9.939647893539032"><ele>566.7142857142858</ele><time>2026-05-02T14:20:56.999Z</time></trkpt><trkpt lat="44.75918865051336" lon="9.939555563321141"><ele>567.2857142857142</ele><time>2026-05-02T14:20:58.999Z</time></trkpt><trkpt lat="44.759178591330496" lon="9.939456726787112"><ele>567.8571428571429</ele><time>2026-05-02T14:21:01.999Z</time></trkpt><trkpt lat="44.759161642391064" lon="9.939368592166215"><ele>568.4285714285714</ele><time>2026-05-02T14:21:04.999Z</time></trkpt><trkpt lat="44.75913708526132" lon="9.939270901177549"><ele>569.0</ele><time>2026-05-02T14:21:07.999Z</time></trkpt><trkpt lat="44.75911131721628" lon="9.93918272264086"><ele>569.0000000000001</ele><time>2026-05-02T14:21:10.999Z</time></trkpt><trkpt lat="44.75907166446056" lon="9.939092167124638"><ele>569.0</ele><time>2026-05-02T14:21:13.999Z</time></trkpt><trkpt lat="44.759022405534424" lon="9.939008260584"><ele>569.0</ele><time>2026-05-02T14:21:16.999Z</time></trkpt><trkpt lat="44.75896517803169" lon="9.93893964519144"><ele>569.0</ele><time>2026-05-02T14:21:19.999Z</time></trkpt><trkpt lat="44.7588920446384" lon="9.938884265846555"><ele>569.0</ele><time>2026-05-02T14:21:22.999Z</time></trkpt><trkpt lat="44.758825999208916" lon="9.938865263694519"><ele>569.0000000000001</ele><time>2026-05-02T14:21:25.998Z</time></trkpt><trkpt lat="44.75875676010673" lon="9.938855546398377"><ele>569.0</ele><time>2026-05-02T14:21:28.998Z</time></trkpt><trkpt lat="44.75868859713146" lon="9.93884806791157"><ele>569.0000000000001</ele><time>2026-05-02T14:21:31.998Z</time></trkpt><trkpt lat="44.75861673293369" lon="9.938839081600301"><ele>569.0</ele><time>2026-05-02T14:21:34.998Z</time></trkpt><trkpt lat="44.75854985621722" lon="9.938841672666964"><ele>569.0</ele><time>2026-05-02T14:21:37.998Z</time></trkpt><trkpt lat="44.758485632616406" lon="9.938806805036615"><ele>569.0</ele><time>2026-05-02T14:21:40.998Z</time></trkpt><trkpt lat="44.758424701267415" lon="9.938744815592504"><ele>569.0</ele><time>2026-05-02T14:21:44Z</time></trkpt><trkpt lat="44.75838804193751" lon="9.938667607191075"><ele>569.0000000000001</ele><time>2026-05-02T14:21:47Z</time></trkpt><trkpt lat="44.75835166654659" lon="9.938555404193178"><ele>569.0</ele><time>2026-05-02T14:21:50Z</time></trkpt><trkpt lat="44.758335648037416" lon="9.938451916426422"><ele>571.2857142857143</ele><time>2026-05-02T14:21:53Z</time></trkpt><trkpt lat="44.75832154476795" lon="9.938350064420822"><ele>573.5714285714286</ele><time>2026-05-02T14:21:56Z</time></trkpt><trkpt lat="44.75830975483682" lon="9.9382608944982"><ele>575.8571428571429</ele><time>2026-05-02T14:21:59Z</time></trkpt><trkpt lat="44.758288849082234" lon="9.938156806725953"><ele>578.1428571428571</ele><time>2026-05-02T14:22:02Z</time></trkpt><trkpt lat="44.758255919363805" lon="9.938067606584733"><ele>580.4285714285714</ele><time>2026-05-02T14:22:05Z</time></trkpt><trkpt lat="44.75820803473673" lon="9.937988639479364"><ele>582.7142857142858</ele><time>2026-05-02T14:22:08Z</time></trkpt><trkpt lat="44.75815807283838" lon="9.937918876330329"><ele>585.0</ele><time>2026-05-02T14:22:11Z</time></trkpt><trkpt lat="44.75811520490043" lon="9.93785134995889"><ele>585.0</ele><time>2026-05-02T14:22:13Z</time></trkpt><trkpt lat="44.75807833220163" lon="9.937775183592436"><ele>585.0</ele><time>2026-05-02T14:22:16Z</time></trkpt><trkpt lat="44.75805047953283" lon="9.937687176947954"><ele>585.0</ele><time>2026-05-02T14:22:19Z</time></trkpt><trkpt lat="44.75802641317952" lon="9.937596432029242"><ele>585.0</ele><time>2026-05-02T14:22:22Z</time></trkpt><trkpt lat="44.758007686744186" lon="9.937492974924357"><ele>585.0</ele><time>2026-05-02T14:22:25Z</time></trkpt><trkpt lat="44.75799938149081" lon="9.937388801463355"><ele>585.0</ele><time>2026-05-02T14:22:28Z</time></trkpt><trkpt lat="44.757996703984766" lon="9.93728386243204"><ele>585.0</ele><time>2026-05-02T14:22:31Z</time></trkpt><trkpt lat="44.75799939208251" lon="9.937180834428778"><ele>584.5714285714286</ele><time>2026-05-02T14:22:33.999Z</time></trkpt><trkpt lat="44.75800863839689" lon="9.937076095887683"><ele>584.1428571428571</ele><time>2026-05-02T14:22:36.999Z</time></trkpt><trkpt lat="44.75802610380731" lon="9.936955931897215"><ele>583.7142857142857</ele><time>2026-05-02T14:22:39.999Z</time></trkpt><trkpt lat="44.75804900784038" lon="9.936866255986068"><ele>583.2857142857142</ele><time>2026-05-02T14:22:42.999Z</time></trkpt><trkpt lat="44.758076969474175" lon="9.936784394684768"><ele>582.8571428571428</ele><time>2026-05-02T14:22:45.999Z</time></trkpt><trkpt lat="44.75811738637128" lon="9.936691483689657"><ele>582.4285714285714</ele><time>2026-05-02T14:22:48.999Z</time></trkpt><trkpt lat="44.75816102838541" lon="9.936607965493456"><ele>582.0</ele><time>2026-05-02T14:22:51.999Z</time></trkpt><trkpt lat="44.75820961067631" lon="9.936543945589111"><ele>582.8571428571429</ele><time>2026-05-02T14:22:54.999Z</time></trkpt><trkpt lat="44.75826669911416" lon="9.93648447022393"><ele>583.7142857142857</ele><time>2026-05-02T14:22:57.999Z</time></trkpt><trkpt lat="44.75833073313109" lon="9.93642995416122"><ele>584.5714285714286</ele><time>2026-05-02T14:23:00.999Z</time></trkpt><trkpt lat="44.75838524207339" lon="9.936362757717163"><ele>585.4285714285714</ele><time>2026-05-02T14:23:03.999Z</time></trkpt><trkpt lat="44.75841279714988" lon="9.936270262966545"><ele>586.2857142857142</ele><time>2026-05-02T14:23:06.999Z</time></trkpt><trkpt lat="44.75839760465662" lon="9.936162368772322"><ele>587.1428571428571</ele><time>2026-05-02T14:23:09.999Z</time></trkpt><trkpt lat="44.7583509712341" lon="9.936099569576113"><ele>588.0</ele><time>2026-05-02T14:23:12.999Z</time></trkpt><trkpt lat="44.75828876341559" lon="9.936054658549079"><ele>588.0</ele><time>2026-05-02T14:23:15.999Z</time></trkpt><trkpt lat="44.758220748538164" lon="9.93601871327413"><ele>588.0</ele><time>2026-05-02T14:23:18.999Z</time></trkpt><trkpt lat="44.75815701648987" lon="9.935995056516928"><ele>588.0</ele><time>2026-05-02T14:23:21.999Z</time></trkpt><trkpt lat="44.75809059791398" lon="9.935982424769563"><ele>588.0</ele><time>2026-05-02T14:23:24.999Z</time></trkpt><trkpt lat="44.7580207855927" lon="9.9359745401227"><ele>588.0</ele><time>2026-05-02T14:23:27.999Z</time></trkpt><trkpt lat="44.75795176928371" lon="9.935980972876775"><ele>588.0</ele><time>2026-05-02T14:23:30.998Z</time></trkpt><trkpt lat="44.757873995650286" lon="9.936026371444209"><ele>588.0</ele><time>2026-05-02T14:23:34.998Z</time></trkpt><trkpt lat="44.7578173077102" lon="9.936082553159062"><ele>588.0</ele><time>2026-05-02T14:23:37.998Z</time></trkpt><trkpt lat="44.757766316194925" lon="9.936146686425289"><ele>588.0</ele><time>2026-05-02T14:23:40.998Z</time></trkpt><trkpt lat="44.75772121810428" lon="9.936220132552885"><ele>588.0</ele><time>2026-05-02T14:23:43.998Z</time></trkpt><trkpt lat="44.7576770911128" lon="9.93630128630532"><ele>588.0</ele><time>2026-05-02T14:23:46.998Z</time></trkpt><trkpt lat="44.757632473830505" lon="9.936385863463187"><ele>588.0</ele><time>2026-05-02T14:23:50Z</time></trkpt><trkpt lat="44.757592101560036" lon="9.936479938121497"><ele>588.0</ele><time>2026-05-02T14:23:53Z</time></trkpt><trkpt lat="44.757553118974585" lon="9.936580263417275"><ele>588.0</ele><time>2026-05-02T14:23:56Z</time></trkpt><trkpt lat="44.757515348854625" lon="9.936656414613177"><ele>590.7142857142857</ele><time>2026-05-02T14:23:59Z</time></trkpt><trkpt lat="44.75748471534962" lon="9.936747469289317"><ele>593.4285714285714</ele><time>2026-05-02T14:24:02Z</time></trkpt><trkpt lat="44.75745563677992" lon="9.93684847504549"><ele>596.1428571428571</ele><time>2026-05-02T14:24:05Z</time></trkpt><trkpt lat="44.75742830107033" lon="9.936929536272537"><ele>598.8571428571429</ele><time>2026-05-02T14:24:07Z</time></trkpt><trkpt lat="44.75739388960989" lon="9.937038771319822"><ele>601.5714285714286</ele><time>2026-05-02T14:24:10Z</time></trkpt><trkpt lat="44.757364908188244" lon="9.937135228367735"><ele>604.2857142857142</ele><time>2026-05-02T14:24:12Z</time></trkpt><trkpt lat="44.75733313789369" lon="9.937214906208556"><ele>607.0</ele><time>2026-05-02T14:24:15Z</time></trkpt><trkpt lat="44.757303365648625" lon="9.937310671435322"><ele>607.0</ele><time>2026-05-02T14:24:18Z</time></trkpt><trkpt lat="44.75727292832118" lon="9.937393801072552"><ele>607.0</ele><time>2026-05-02T14:24:20Z</time></trkpt><trkpt lat="44.75724654532399" lon="9.93750529203272"><ele>607.0</ele><time>2026-05-02T14:24:23Z</time></trkpt><trkpt lat="44.757224512560896" lon="9.93762804946554"><ele>607.0</ele><time>2026-05-02T14:24:26Z</time></trkpt><trkpt lat="44.757230684187526" lon="9.937743508142574"><ele>607.0</ele><time>2026-05-02T14:24:29Z</time></trkpt><trkpt lat="44.75724512161617" lon="9.937857895550056"><ele>607.0</ele><time>2026-05-02T14:24:32Z</time></trkpt><trkpt lat="44.757284300876506" lon="9.937967387544132"><ele>607.6666666666667</ele><time>2026-05-02T14:24:35Z</time></trkpt><trkpt lat="44.75733110691221" lon="9.93805676325573"><ele>608.3333333333334</ele><time>2026-05-02T14:24:37.999Z</time></trkpt><trkpt lat="44.75739325122893" lon="9.938135970924183"><ele>609.0</ele><time>2026-05-02T14:24:40.999Z</time></trkpt><trkpt lat="44.757461376965814" lon="9.938216188884097"><ele>609.6666666666666</ele><time>2026-05-02T14:24:43.999Z</time></trkpt><trkpt lat="44.75753858750901" lon="9.938295315842653"><ele>610.3333333333333</ele><time>2026-05-02T14:24:46.999Z</time></trkpt><trkpt lat="44.75761130044476" lon="9.938389487247775"><ele>611.0</ele><time>2026-05-02T14:24:49.999Z</time></trkpt><trkpt lat="44.75765493474274" lon="9.938480936463526"><ele>611.0</ele><time>2026-05-02T14:24:51.999Z</time></trkpt><trkpt lat="44.757663711358454" lon="9.93860125796781"><ele>611.0</ele><time>2026-05-02T14:24:54.999Z</time></trkpt><trkpt lat="44.75765460562081" lon="9.938692523329967"><ele>611.0</ele><time>2026-05-02T14:24:57.999Z</time></trkpt><trkpt lat="44.757632182230026" lon="9.938779827490194"><ele>611.0</ele><time>2026-05-02T14:24:59.999Z</time></trkpt><trkpt lat="44.757587112530565" lon="9.938857722664478"><ele>611.0</ele><time>2026-05-02T14:25:02.999Z</time></trkpt><trkpt lat="44.75752253813775" lon="9.938916569753122"><ele>611.0</ele><time>2026-05-02T14:25:05.999Z</time></trkpt><trkpt lat="44.757439830898434" lon="9.93894464495257"><ele>611.0000000000001</ele><time>2026-05-02T14:25:08.999Z</time></trkpt><trkpt lat="44.757364017076895" lon="9.938943279957158"><ele>611.0</ele><time>2026-05-02T14:25:11.999Z</time></trkpt><trkpt lat="44.75729977044683" lon="9.93891521324387"><ele>611.0</ele><time>2026-05-02T14:25:13.999Z</time></trkpt><trkpt lat="44.757236429482035" lon="9.938861718455058"><ele>611.0</ele><time>2026-05-02T14:25:16.999Z</time></trkpt><trkpt lat="44.757182579048916" lon="9.93880297352329"><ele>611.0</ele><time>2026-05-02T14:25:19.999Z</time></trkpt><trkpt lat="44.757135260773886" lon="9.93872498956289"><ele>611.0000000000001</ele><time>2026-05-02T14:25:22.999Z</time></trkpt><trkpt lat="44.75709987849482" lon="9.9386299679739"><ele>611.0</ele><time>2026-05-02T14:25:25.999Z</time></trkpt><trkpt lat="44.75707396699396" lon="9.938538542175506"><ele>611.0</ele><time>2026-05-02T14:25:28.999Z</time></trkpt><trkpt lat="44.757053164086344" lon="9.938437394051325"><ele>611.0</ele><time>2026-05-02T14:25:31.999Z</time></trkpt><trkpt lat="44.75703383710922" lon="9.93833540029781"><ele>611.0</ele><time>2026-05-02T14:25:34.998Z</time></trkpt><trkpt lat="44.757017279010114" lon="9.938236813553607"><ele>611.0</ele><time>2026-05-02T14:25:37.998Z</time></trkpt><trkpt lat="44.75700126974414" lon="9.93812869711425"><ele>611.0</ele><time>2026-05-02T14:25:40.998Z</time></trkpt><trkpt lat="44.75698134614606" lon="9.938014651473729"><ele>611.0</ele><time>2026-05-02T14:25:43.998Z</time></trkpt><trkpt lat="44.75696143695954" lon="9.937898462666684"><ele>611.3333333333333</ele><time>2026-05-02T14:25:47.998Z</time></trkpt><trkpt lat="44.756944523845256" lon="9.93779003941698"><ele>611.6666666666666</ele><time>2026-05-02T14:25:50.998Z</time></trkpt><trkpt lat="44.75692411185074" lon="9.937673075580594"><ele>612.0</ele><time>2026-05-02T14:25:54Z</time></trkpt><trkpt lat="44.75690528624237" lon="9.937581470344174"><ele>612.3333333333334</ele><time>2026-05-02T14:25:57Z</time></trkpt><trkpt lat="44.75688893768613" lon="9.937478761537278"><ele>612.6666666666667</ele><time>2026-05-02T14:26:00Z</time></trkpt><trkpt lat="44.75687594936092" lon="9.937375681224266"><ele>613.0</ele><time>2026-05-02T14:26:03Z</time></trkpt><trkpt lat="44.75686832890174" lon="9.937269601249401"><ele>612.0</ele><time>2026-05-02T14:26:06Z</time></trkpt><trkpt lat="44.75686644932943" lon="9.937164923269943"><ele>611.0</ele><time>2026-05-02T14:26:09Z</time></trkpt><trkpt lat="44.75687170857213" lon="9.937062657467866"><ele>610.0</ele><time>2026-05-02T14:26:12Z</time></trkpt><trkpt lat="44.75688359993052" lon="9.936960504219927"><ele>609.0</ele><time>2026-05-02T14:26:15Z</time></trkpt><trkpt lat="44.75678898077961" lon="9.936985879565508"><ele>608.0</ele><time>2026-05-02T14:28:06Z</time></trkpt><trkpt lat="44.75677891403868" lon="9.937112290953937"><ele>607.0</ele><time>2026-05-02T14:28:09Z</time></trkpt><trkpt lat="44.75677762924774" lon="9.937215048289232"><ele>608.2</ele><time>2026-05-02T14:28:11Z</time></trkpt><trkpt lat="44.7567867685371" lon="9.937339879715081"><ele>609.4000000000001</ele><time>2026-05-02T14:28:13Z</time></trkpt><trkpt lat="44.75680507648643" lon="9.937477958376068"><ele>610.5999999999999</ele><time>2026-05-02T14:28:15Z</time></trkpt><trkpt lat="44.75683552881425" lon="9.937625234556831"><ele>611.8</ele><time>2026-05-02T14:28:17Z</time></trkpt><trkpt lat="44.756859674153176" lon="9.93776178351602"><ele>613.0</ele><time>2026-05-02T14:28:19Z</time></trkpt><trkpt lat="44.75687951392824" lon="9.937893291513165"><ele>613.0</ele><time>2026-05-02T14:28:21Z</time></trkpt><trkpt lat="44.75690115577459" lon="9.938031962592978"><ele>613.0</ele><time>2026-05-02T14:28:23Z</time></trkpt><trkpt lat="44.75692505055741" lon="9.938184984246108"><ele>613.0</ele><time>2026-05-02T14:28:25Z</time></trkpt><trkpt lat="44.75694768740933" lon="9.938345135717741"><ele>613.0</ele><time>2026-05-02T14:28:27Z</time></trkpt><trkpt lat="44.75697441267668" lon="9.938518796838592"><ele>612.6666666666667</ele><time>2026-05-02T14:28:29Z</time></trkpt><trkpt lat="44.756994496726094" lon="9.938605543030523"><ele>612.3333333333334</ele><time>2026-05-02T14:28:30Z</time></trkpt><trkpt lat="44.75702148188384" lon="9.93869667729022"><ele>612.0</ele><time>2026-05-02T14:28:31Z</time></trkpt><trkpt lat="44.757041321836766" lon="9.938802033096069"><ele>611.6666666666666</ele><time>2026-05-02T14:28:32Z</time></trkpt><trkpt lat="44.75709165832929" lon="9.938890410838676"><ele>611.3333333333333</ele><time>2026-05-02T14:28:33Z</time></trkpt><trkpt lat="44.757148084659434" lon="9.938965446525033"><ele>611.0</ele><time>2026-05-02T14:28:34Z</time></trkpt><trkpt lat="44.75722535398311" lon="9.93900347882813"><ele>611.0</ele><time>2026-05-02T14:28:35Z</time></trkpt><trkpt lat="44.757293107708854" lon="9.939060155988859"><ele>611.0</ele><time>2026-05-02T14:28:36Z</time></trkpt><trkpt lat="44.75737604155927" lon="9.939077863312956"><ele>611.0</ele><time>2026-05-02T14:28:37Z</time></trkpt><trkpt lat="44.75746009046422" lon="9.939071538281151"><ele>611.0</ele><time>2026-05-02T14:28:38Z</time></trkpt><trkpt lat="44.75753908993929" lon="9.939029149366467"><ele>611.0</ele><time>2026-05-02T14:28:39Z</time></trkpt><trkpt lat="44.75759325901996" lon="9.938936254766341"><ele>611.0</ele><time>2026-05-02T14:28:40Z</time></trkpt><trkpt lat="44.757637306247" lon="9.938836618236328"><ele>611.0</ele><time>2026-05-02T14:28:41Z</time></trkpt><trkpt lat="44.75765645957238" lon="9.938713410924429"><ele>611.0</ele><time>2026-05-02T14:28:42Z</time></trkpt><trkpt lat="44.75765170451173" lon="9.938585504678883"><ele>611.0</ele><time>2026-05-02T14:28:43Z</time></trkpt><trkpt lat="44.75761852389455" lon="9.938467771633459"><ele>611.0</ele><time>2026-05-02T14:28:44Z</time></trkpt><trkpt lat="44.75755589759071" lon="9.93836854463649"><ele>611.0</ele><time>2026-05-02T14:28:45Z</time></trkpt><trkpt lat="44.75747635832976" lon="9.938293336096168"><ele>611.4</ele><time>2026-05-02T14:28:45.999Z</time></trkpt><trkpt lat="44.75739316972008" lon="9.938231766965359"><ele>611.8</ele><time>2026-05-02T14:28:46.999Z</time></trkpt><trkpt lat="44.7573198408899" lon="9.93815344760751"><ele>612.1999999999999</ele><time>2026-05-02T14:28:47.999Z</time></trkpt><trkpt lat="44.75725638161396" lon="9.938052434296544"><ele>612.6</ele><time>2026-05-02T14:28:48.999Z</time></trkpt><trkpt lat="44.75720922521527" lon="9.937931931076776"><ele>613.0</ele><time>2026-05-02T14:28:49.999Z</time></trkpt><trkpt lat="44.75718670909087" lon="9.937798670417004"><ele>613.0</ele><time>2026-05-02T14:28:50.999Z</time></trkpt><trkpt lat="44.75719012804569" lon="9.937655458615476"><ele>613.0</ele><time>2026-05-02T14:28:51.999Z</time></trkpt><trkpt lat="44.75722581551823" lon="9.937517193058834"><ele>613.0</ele><time>2026-05-02T14:28:52.999Z</time></trkpt><trkpt lat="44.757279853472966" lon="9.937393407406715"><ele>613.0</ele><time>2026-05-02T14:28:53.999Z</time></trkpt><trkpt lat="44.757332135969875" lon="9.937267208981195"><ele>613.0</ele><time>2026-05-02T14:28:54.999Z</time></trkpt><trkpt lat="44.75737773390786" lon="9.937142796666885"><ele>612.8</ele><time>2026-05-02T14:28:55.999Z</time></trkpt><trkpt lat="44.757420745469304" lon="9.93700661519968"><ele>612.5999999999999</ele><time>2026-05-02T14:28:56.999Z</time></trkpt><trkpt lat="44.75746342144037" lon="9.93687595634395"><ele>612.4000000000001</ele><time>2026-05-02T14:28:57.999Z</time></trkpt><trkpt lat="44.757505960242014" lon="9.9367487397924"><ele>612.2</ele><time>2026-05-02T14:28:58.999Z</time></trkpt><trkpt lat="44.757548490063016" lon="9.936627738619352"><ele>612.0</ele><time>2026-05-02T14:28:59.999Z</time></trkpt><trkpt lat="44.75759325635966" lon="9.936505698249347"><ele>612.0</ele><time>2026-05-02T14:29:00.999Z</time></trkpt><trkpt lat="44.757639455716955" lon="9.936389964762032"><ele>612.0</ele><time>2026-05-02T14:29:01.999Z</time></trkpt><trkpt lat="44.75768598297467" lon="9.936284241500575"><ele>612.0</ele><time>2026-05-02T14:29:02.999Z</time></trkpt><trkpt lat="44.757741771485016" lon="9.936188401636198"><ele>612.0</ele><time>2026-05-02T14:29:03.999Z</time></trkpt><trkpt lat="44.75780202910482" lon="9.936100056902864"><ele>612.0</ele><time>2026-05-02T14:29:04.999Z</time></trkpt><trkpt lat="44.757873228078246" lon="9.936033900047788"><ele>612.0</ele><time>2026-05-02T14:29:05.999Z</time></trkpt><trkpt lat="44.75794895319783" lon="9.935987996143563"><ele>608.0</ele><time>2026-05-02T14:29:06.999Z</time></trkpt><trkpt lat="44.75803459885258" lon="9.935980282105797"><ele>604.0</ele><time>2026-05-02T14:29:07.999Z</time></trkpt><trkpt lat="44.75811775057974" lon="9.93600394616428"><ele>600.0</ele><time>2026-05-02T14:29:08.999Z</time></trkpt><trkpt lat="44.75818325083124" lon="9.936035831391429"><ele>596.0</ele><time>2026-05-02T14:29:09.999Z</time></trkpt><trkpt lat="44.758245282479876" lon="9.936070215031844"><ele>592.0</ele><time>2026-05-02T14:29:10.999Z</time></trkpt><trkpt lat="44.75830617194293" lon="9.936098108294132"><ele>588.0</ele><time>2026-05-02T14:29:11.999Z</time></trkpt><trkpt lat="44.75837105333146" lon="9.936242532587174"><ele>588.0</ele><time>2026-05-02T14:29:13.999Z</time></trkpt><trkpt lat="44.75834410325763" lon="9.93634706194738"><ele>588.0</ele><time>2026-05-02T14:29:14.999Z</time></trkpt><trkpt lat="44.75827018628121" lon="9.936424679869466"><ele>588.0</ele><time>2026-05-02T14:29:15.999Z</time></trkpt><trkpt lat="44.75820458540855" lon="9.936467243047225"><ele>588.0</ele><time>2026-05-02T14:29:16.999Z</time></trkpt><trkpt lat="44.758134593811874" lon="9.936524979072527"><ele>588.0</ele><time>2026-05-02T14:29:17.999Z</time></trkpt><trkpt lat="44.758070524047675" lon="9.936610107167827"><ele>588.0</ele><time>2026-05-02T14:29:18.999Z</time></trkpt><trkpt lat="44.75801775857192" lon="9.936715285553987"><ele>586.8</ele><time>2026-05-02T14:29:19.999Z</time></trkpt><trkpt lat="44.75797434991257" lon="9.936830350881532"><ele>585.5999999999999</ele><time>2026-05-02T14:29:20.999Z</time></trkpt><trkpt lat="44.75793736635917" lon="9.936953457031558"><ele>584.4000000000001</ele><time>2026-05-02T14:29:21.999Z</time></trkpt><trkpt lat="44.75791190269954" lon="9.93708672750328"><ele>583.2</ele><time>2026-05-02T14:29:22.999Z</time></trkpt><trkpt lat="44.75789480395391" lon="9.937227131034131"><ele>582.0</ele><time>2026-05-02T14:29:23.999Z</time></trkpt><trkpt lat="44.75788759556653" lon="9.937374461617917"><ele>582.0</ele><time>2026-05-02T14:29:24.999Z</time></trkpt><trkpt lat="44.75790116253467" lon="9.937522684326312"><ele>582.0</ele><time>2026-05-02T14:29:25.999Z</time></trkpt><trkpt lat="44.75792648019075" lon="9.937662019857363"><ele>582.0</ele><time>2026-05-02T14:29:26.999Z</time></trkpt><trkpt lat="44.75796716028902" lon="9.937792920523037"><ele>582.0</ele><time>2026-05-02T14:29:27.999Z</time></trkpt><trkpt lat="44.75802870180674" lon="9.937906137865882"><ele>582.0</ele><time>2026-05-02T14:29:28.999Z</time></trkpt><trkpt lat="44.75810407366204" lon="9.938004820748635"><ele>582.6</ele><time>2026-05-02T14:29:29.999Z</time></trkpt><trkpt lat="44.758172817475824" lon="9.93811215032167"><ele>583.2</ele><time>2026-05-02T14:29:30.999Z</time></trkpt><trkpt lat="44.758213992331044" lon="9.938240350071693"><ele>583.8</ele><time>2026-05-02T14:29:31.999Z</time></trkpt><trkpt lat="44.75823548995942" lon="9.938382293796064"><ele>584.4</ele><time>2026-05-02T14:29:32.999Z</time></trkpt><trkpt lat="44.75824899874299" lon="9.938514312275998"><ele>585.0</ele><time>2026-05-02T14:29:33.999Z</time></trkpt><trkpt lat="44.75827138796506" lon="9.938641019044336"><ele>586.4</ele><time>2026-05-02T14:29:34.999Z</time></trkpt><trkpt lat="44.75831780009147" lon="9.938747310876067"><ele>587.8</ele><time>2026-05-02T14:29:35.999Z</time></trkpt><trkpt lat="44.75839108084647" lon="9.938830918935867"><ele>589.2</ele><time>2026-05-02T14:29:36.999Z</time></trkpt><trkpt lat="44.75847993408136" lon="9.938877511363891"><ele>590.6</ele><time>2026-05-02T14:29:37.999Z</time></trkpt><trkpt lat="44.758575432554174" lon="9.938899082421658"><ele>592.0</ele><time>2026-05-02T14:29:38.999Z</time></trkpt><trkpt lat="44.75867810546317" lon="9.938896088496971"><ele>587.6</ele><time>2026-05-02T14:29:39.999Z</time></trkpt><trkpt lat="44.758782718690426" lon="9.938897677039598"><ele>583.2</ele><time>2026-05-02T14:29:40.999Z</time></trkpt><trkpt lat="44.7588836858333" lon="9.93891662171455"><ele>578.8</ele><time>2026-05-02T14:29:41.998Z</time></trkpt><trkpt lat="44.75897456857025" lon="9.93898058856867"><ele>574.4</ele><time>2026-05-02T14:29:42.998Z</time></trkpt><trkpt lat="44.75904355900396" lon="9.939091300611935"><ele>570.0</ele><time>2026-05-02T14:29:43.998Z</time></trkpt><trkpt lat="44.75909476979435" lon="9.939220133669428"><ele>570.0</ele><time>2026-05-02T14:29:44.998Z</time></trkpt><trkpt lat="44.759133398604654" lon="9.939357854432796"><ele>570.0</ele><time>2026-05-02T14:29:45.998Z</time></trkpt><trkpt lat="44.759158679419876" lon="9.939500027959355"><ele>570.0</ele><time>2026-05-02T14:29:46.998Z</time></trkpt><trkpt lat="44.75916804007414" lon="9.93963861246761"><ele>570.0</ele><time>2026-05-02T14:29:47.998Z</time></trkpt><trkpt lat="44.75915710532918" lon="9.939777652603343"><ele>570.0</ele><time>2026-05-02T14:29:48.998Z</time></trkpt><trkpt lat="44.75911360252586" lon="9.939904512219575"><ele>570.0</ele><time>2026-05-02T14:29:49.998Z</time></trkpt><trkpt lat="44.75905540454676" lon="9.940020837541738"><ele>570.0</ele><time>2026-05-02T14:29:50.998Z</time></trkpt><trkpt lat="44.75898381998003" lon="9.940126411749528"><ele>570.0</ele><time>2026-05-02T14:29:51.998Z</time></trkpt><trkpt lat="44.7589613620843" lon="9.940269856475066"><ele>570.0</ele><time>2026-05-02T14:29:52.998Z</time></trkpt><trkpt lat="44.75896122158911" lon="9.940412178507737"><ele>570.0</ele><time>2026-05-02T14:29:53.998Z</time></trkpt><trkpt lat="44.7589909671079" lon="9.940553386198282"><ele>569.0</ele><time>2026-05-02T14:29:54.998Z</time></trkpt><trkpt lat="44.75902650577477" lon="9.940693717070806"><ele>568.0</ele><time>2026-05-02T14:29:55.998Z</time></trkpt><trkpt lat="44.75903843320839" lon="9.940845223126823"><ele>567.0</ele><time>2026-05-02T14:29:56.998Z</time></trkpt><trkpt lat="44.759024896246316" lon="9.941000331071718"><ele>566.0</ele><time>2026-05-02T14:29:57.998Z</time></trkpt><trkpt lat="44.75899519645364" lon="9.941152250958382"><ele>565.0</ele><time>2026-05-02T14:29:58.998Z</time></trkpt><trkpt lat="44.75896759867838" lon="9.94131070150294"><ele>562.75</ele><time>2026-05-02T14:29:59.998Z</time></trkpt><trkpt lat="44.75893751569082" lon="9.941470646700614"><ele>560.5</ele><time>2026-05-02T14:30:00.998Z</time></trkpt><trkpt lat="44.758903615238516" lon="9.941627386456732"><ele>558.25</ele><time>2026-05-02T14:30:01.998Z</time></trkpt><trkpt lat="44.75887125756426" lon="9.941784689448157"><ele>556.0</ele><time>2026-05-02T14:30:02.998Z</time></trkpt><trkpt lat="44.758847586111905" lon="9.941952059334351"><ele>554.0</ele><time>2026-05-02T14:30:03.998Z</time></trkpt><trkpt lat="44.75883781852453" lon="9.942123090180072"><ele>552.0</ele><time>2026-05-02T14:30:04.998Z</time></trkpt><trkpt lat="44.758839844690435" lon="9.942296175403497"><ele>550.0</ele><time>2026-05-02T14:30:06Z</time></trkpt><trkpt lat="44.758853749337206" lon="9.942470208825833"><ele>548.0</ele><time>2026-05-02T14:30:07Z</time></trkpt><trkpt lat="44.75887903203966" lon="9.942632034688508"><ele>547.5</ele><time>2026-05-02T14:30:08Z</time></trkpt><trkpt lat="44.75890698336573" lon="9.942777986461113"><ele>547.0</ele><time>2026-05-02T14:30:09Z</time></trkpt><trkpt lat="44.758930463517885" lon="9.942910375367141"><ele>546.5</ele><time>2026-05-02T14:30:10Z</time></trkpt><trkpt lat="44.75895538380397" lon="9.94301601447668"><ele>546.0</ele><time>2026-05-02T14:30:11Z</time></trkpt><trkpt lat="44.75898472716059" lon="9.943097431280957"><ele>545.5</ele><time>2026-05-02T14:30:12Z</time></trkpt><trkpt lat="44.7590484311335" lon="9.943128083800016"><ele>545.0</ele><time>2026-05-02T14:30:13Z</time></trkpt><trkpt lat="44.759119765756274" lon="9.94304319633937"><ele>545.0</ele><time>2026-05-02T14:30:14Z</time></trkpt><trkpt lat="44.75914059060852" lon="9.942931413646628"><ele>545.0</ele><time>2026-05-02T14:30:15Z</time></trkpt><trkpt lat="44.75913376431595" lon="9.942820596299892"><ele>545.0</ele><time>2026-05-02T14:30:16Z</time></trkpt><trkpt lat="44.759122621195104" lon="9.942710116191682"><ele>545.0</ele><time>2026-05-02T14:30:17Z</time></trkpt><trkpt lat="44.759118840862925" lon="9.942593245783172"><ele>545.0</ele><time>2026-05-02T14:30:18Z</time></trkpt><trkpt lat="44.75911920255994" lon="9.9424718836615"><ele>545.0</ele><time>2026-05-02T14:30:19Z</time></trkpt><trkpt lat="44.75913174909085" lon="9.942348108865547"><ele>545.6</ele><time>2026-05-02T14:30:20Z</time></trkpt><trkpt lat="44.75916000961697" lon="9.942223195669122"><ele>546.2</ele><time>2026-05-02T14:30:21Z</time></trkpt><trkpt lat="44.759200467966785" lon="9.942100257098668"><ele>546.8</ele><time>2026-05-02T14:30:22Z</time></trkpt><trkpt lat="44.759254253504544" lon="9.941987367689615"><ele>547.4</ele><time>2026-05-02T14:30:23Z</time></trkpt><trkpt lat="44.75931338611288" lon="9.941874399664362"><ele>548.0</ele><time>2026-05-02T14:30:24Z</time></trkpt><trkpt lat="44.75937234051728" lon="9.94175490359425"><ele>544.8</ele><time>2026-05-02T14:30:25Z</time></trkpt><trkpt lat="44.759431172217184" lon="9.941634695702836"><ele>541.5999999999999</ele><time>2026-05-02T14:30:26Z</time></trkpt><trkpt lat="44.75948990074781" lon="9.941511225256288"><ele>538.4000000000001</ele><time>2026-05-02T14:30:27Z</time></trkpt><trkpt lat="44.75955332803523" lon="9.941385420617234"><ele>535.2</ele><time>2026-05-02T14:30:28Z</time></trkpt><trkpt lat="44.759617515532625" lon="9.94126001871679"><ele>532.0</ele><time>2026-05-02T14:30:29Z</time></trkpt><trkpt lat="44.759687055114135" lon="9.941135326678964"><ele>532.0</ele><time>2026-05-02T14:30:30Z</time></trkpt><trkpt lat="44.75975724062004" lon="9.941011644734125"><ele>532.0</ele><time>2026-05-02T14:30:31Z</time></trkpt><trkpt lat="44.759833640820545" lon="9.94089370775619"><ele>532.0</ele><time>2026-05-02T14:30:32Z</time></trkpt><trkpt lat="44.759911669834295" lon="9.940777450787142"><ele>532.0</ele><time>2026-05-02T14:30:33Z</time></trkpt><trkpt lat="44.75998627054457" lon="9.94065848094711"><ele>530.8000000000001</ele><time>2026-05-02T14:30:34Z</time></trkpt><trkpt lat="44.76005573290716" lon="9.9405462748623"><ele>529.6</ele><time>2026-05-02T14:30:35Z</time></trkpt><trkpt lat="44.76012774355286" lon="9.940439041171802"><ele>528.4000000000001</ele><time>2026-05-02T14:30:36Z</time></trkpt><trkpt lat="44.76021371628862" lon="9.940354091241868"><ele>527.2</ele><time>2026-05-02T14:30:37Z</time></trkpt><trkpt lat="44.760316772826435" lon="9.940302941667378"><ele>526.0</ele><time>2026-05-02T14:30:38Z</time></trkpt><trkpt lat="44.76042431156334" lon="9.9402736046597"><ele>526.0</ele><time>2026-05-02T14:30:39Z</time></trkpt><trkpt lat="44.760529677513496" lon="9.940235063703668"><ele>526.0</ele><time>2026-05-02T14:30:40Z</time></trkpt><trkpt lat="44.760633896925896" lon="9.940191010374088"><ele>526.0</ele><time>2026-05-02T14:30:41Z</time></trkpt><trkpt lat="44.76073634610675" lon="9.940143189234263"><ele>526.0</ele><time>2026-05-02T14:30:42Z</time></trkpt><trkpt lat="44.76082663792297" lon="9.940091129291723"><ele>526.0</ele><time>2026-05-02T14:30:43Z</time></trkpt><trkpt lat="44.760904003626415" lon="9.940067462030903"><ele>526.0</ele><time>2026-05-02T14:30:44Z</time></trkpt><trkpt lat="44.76097073843728" lon="9.94008971239202"><ele>526.0</ele><time>2026-05-02T14:30:45Z</time></trkpt><trkpt lat="44.76101428111951" lon="9.940158815167408"><ele>526.0</ele><time>2026-05-02T14:30:46Z</time></trkpt><trkpt lat="44.76101447316749" lon="9.940267064441004"><ele>526.0</ele><time>2026-05-02T14:30:47Z</time></trkpt><trkpt lat="44.760948331339414" lon="9.940353390126777"><ele>526.0</ele><time>2026-05-02T14:30:47.999Z</time></trkpt><trkpt lat="44.76091169688697" lon="9.940443911735258"><ele>526.0</ele><time>2026-05-02T14:30:48.999Z</time></trkpt><trkpt lat="44.76085632238503" lon="9.940526778248664"><ele>526.0</ele><time>2026-05-02T14:30:49.999Z</time></trkpt><trkpt lat="44.76079409960171" lon="9.940608173534706"><ele>526.0</ele><time>2026-05-02T14:30:50.999Z</time></trkpt><trkpt lat="44.76073202645026" lon="9.940695285250449"><ele>526.0</ele><time>2026-05-02T14:30:51.999Z</time></trkpt><trkpt lat="44.76067262735383" lon="9.940789702894879"><ele>526.0</ele><time>2026-05-02T14:30:52.999Z</time></trkpt><trkpt lat="44.760615404800305" lon="9.940893061812723"><ele>526.0</ele><time>2026-05-02T14:30:53.999Z</time></trkpt><trkpt lat="44.76055723381785" lon="9.941003979302774"><ele>523.8</ele><time>2026-05-02T14:30:54.999Z</time></trkpt><trkpt lat="44.76050562972944" lon="9.941127223964951"><ele>521.6</ele><time>2026-05-02T14:30:55.999Z</time></trkpt><trkpt lat="44.760466193353125" lon="9.941263509688575"><ele>519.4</ele><time>2026-05-02T14:30:56.999Z</time></trkpt><trkpt lat="44.760437553323634" lon="9.941406878669019"><ele>517.2</ele><time>2026-05-02T14:30:57.999Z</time></trkpt><trkpt lat="44.760405712666206" lon="9.941552147762092"><ele>515.0</ele><time>2026-05-02T14:30:58.999Z</time></trkpt><trkpt lat="44.760374858238464" lon="9.94169942279683"><ele>514.6</ele><time>2026-05-02T14:30:59.999Z</time></trkpt><trkpt lat="44.760343341303646" lon="9.94184824564915"><ele>514.2</ele><time>2026-05-02T14:31:00.999Z</time></trkpt><trkpt lat="44.76031453713179" lon="9.94199868272892"><ele>513.8</ele><time>2026-05-02T14:31:01.999Z</time></trkpt><trkpt lat="44.76028834777566" lon="9.942153271420592"><ele>513.4</ele><time>2026-05-02T14:31:02.999Z</time></trkpt><trkpt lat="44.76026618944682" lon="9.94230494002434"><ele>513.0</ele><time>2026-05-02T14:31:03.999Z</time></trkpt><trkpt lat="44.76025115082877" lon="9.942450977034152"><ele>513.4</ele><time>2026-05-02T14:31:04.999Z</time></trkpt><trkpt lat="44.760261269242335" lon="9.942594031201525"><ele>513.8</ele><time>2026-05-02T14:31:05.999Z</time></trkpt><trkpt lat="44.760303828613125" lon="9.94272694410921"><ele>514.2</ele><time>2026-05-02T14:31:06.999Z</time></trkpt><trkpt lat="44.76036520834453" lon="9.942847592738069"><ele>514.6</ele><time>2026-05-02T14:31:07.999Z</time></trkpt><trkpt lat="44.760431841643346" lon="9.942960315147252"><ele>515.0</ele><time>2026-05-02T14:31:08.999Z</time></trkpt><trkpt lat="44.76049369729436" lon="9.94307808635828"><ele>515.0</ele><time>2026-05-02T14:31:09.999Z</time></trkpt><trkpt lat="44.760537256378704" lon="9.943212431228124"><ele>515.0</ele><time>2026-05-02T14:31:10.999Z</time></trkpt><trkpt lat="44.760570469079454" lon="9.943355690807211"><ele>515.0</ele><time>2026-05-02T14:31:11.999Z</time></trkpt><trkpt lat="44.76060140733931" lon="9.943502305455905"><ele>515.0</ele><time>2026-05-02T14:31:12.999Z</time></trkpt><trkpt lat="44.76063487572498" lon="9.943649866239552"><ele>515.0</ele><time>2026-05-02T14:31:13.999Z</time></trkpt><trkpt lat="44.76066725880166" lon="9.943792825365925"><ele>514.1666666666666</ele><time>2026-05-02T14:31:14.999Z</time></trkpt><trkpt lat="44.76071002970655" lon="9.943921541379261"><ele>513.3333333333333</ele><time>2026-05-02T14:31:15.999Z</time></trkpt><trkpt lat="44.760765420781716" lon="9.944024551351772"><ele>512.5</ele><time>2026-05-02T14:31:16.999Z</time></trkpt><trkpt lat="44.76083087467297" lon="9.944082797802587"><ele>511.66666666666663</ele><time>2026-05-02T14:31:17.999Z</time></trkpt><trkpt lat="44.76089962936914" lon="9.944080653359523"><ele>510.8333333333333</ele><time>2026-05-02T14:31:18.999Z</time></trkpt><trkpt lat="44.76096354265083" lon="9.944018244350898"><ele>510.0</ele><time>2026-05-02T14:31:19.999Z</time></trkpt><trkpt lat="44.76099752133806" lon="9.943912160446919"><ele>510.0</ele><time>2026-05-02T14:31:20.999Z</time></trkpt><trkpt lat="44.761018415549934" lon="9.943805321415066"><ele>510.0</ele><time>2026-05-02T14:31:21.999Z</time></trkpt><trkpt lat="44.76104149892548" lon="9.943700626895586"><ele>510.0</ele><time>2026-05-02T14:31:22.999Z</time></trkpt><trkpt lat="44.76105790554587" lon="9.943590752937252"><ele>510.0</ele><time>2026-05-02T14:31:23.999Z</time></trkpt><trkpt lat="44.76106428646266" lon="9.943474121655449"><ele>510.0</ele><time>2026-05-02T14:31:24.999Z</time></trkpt><trkpt lat="44.76106078401856" lon="9.943356124051041"><ele>510.0</ele><time>2026-05-02T14:31:25.999Z</time></trkpt><trkpt lat="44.76104398416564" lon="9.94323454039024"><ele>511.0</ele><time>2026-05-02T14:31:26.999Z</time></trkpt><trkpt lat="44.761013424730756" lon="9.943114229430073"><ele>512.0</ele><time>2026-05-02T14:31:27.999Z</time></trkpt><trkpt lat="44.76097721538825" lon="9.942994921209888"><ele>513.0</ele><time>2026-05-02T14:31:28.999Z</time></trkpt><trkpt lat="44.76096172521704" lon="9.942866159084513"><ele>514.0</ele><time>2026-05-02T14:31:29.999Z</time></trkpt><trkpt lat="44.760967948473215" lon="9.942732693951022"><ele>515.0</ele><time>2026-05-02T14:31:30.999Z</time></trkpt><trkpt lat="44.76099520168607" lon="9.942600350112384"><ele>511.0</ele><time>2026-05-02T14:31:31.999Z</time></trkpt><trkpt lat="44.76105105245118" lon="9.942474870441062"><ele>507.0</ele><time>2026-05-02T14:31:32.999Z</time></trkpt><trkpt lat="44.76111264504098" lon="9.942356635069329"><ele>503.0</ele><time>2026-05-02T14:31:33.999Z</time></trkpt><trkpt lat="44.76117809586524" lon="9.942240919052537"><ele>499.0</ele><time>2026-05-02T14:31:34.999Z</time></trkpt><trkpt lat="44.76124581682061" lon="9.942121501069122"><ele>495.0</ele><time>2026-05-02T14:31:35.999Z</time></trkpt><trkpt lat="44.761313904584924" lon="9.942003226112353"><ele>495.0</ele><time>2026-05-02T14:31:36.999Z</time></trkpt><trkpt lat="44.76138628925471" lon="9.94189204142713"><ele>495.0</ele><time>2026-05-02T14:31:37.999Z</time></trkpt><trkpt lat="44.76147099728546" lon="9.94179717083224"><ele>495.0</ele><time>2026-05-02T14:31:38.999Z</time></trkpt><trkpt lat="44.76157149986417" lon="9.941726270782738"><ele>495.0</ele><time>2026-05-02T14:31:39.999Z</time></trkpt><trkpt lat="44.76167543180067" lon="9.941683800982956"><ele>495.0</ele><time>2026-05-02T14:31:40.999Z</time></trkpt><trkpt lat="44.76178062462788" lon="9.941662695535925"><ele>494.2</ele><time>2026-05-02T14:31:41.999Z</time></trkpt><trkpt lat="44.76188753070291" lon="9.94166964637439"><ele>493.4</ele><time>2026-05-02T14:31:42.999Z</time></trkpt><trkpt lat="44.76199292691694" lon="9.941687277167025"><ele>492.6</ele><time>2026-05-02T14:31:43.998Z</time></trkpt><trkpt lat="44.76209415369815" lon="9.94168497334379"><ele>491.8</ele><time>2026-05-02T14:31:44.998Z</time></trkpt><trkpt lat="44.76219027266538" lon="9.941644052594846"><ele>491.0</ele><time>2026-05-02T14:31:45.998Z</time></trkpt><trkpt lat="44.7622758398149" lon="9.941555062733736"><ele>491.0</ele><time>2026-05-02T14:31:46.998Z</time></trkpt><trkpt lat="44.76234994770407" lon="9.941442503473448"><ele>491.0</ele><time>2026-05-02T14:31:47.998Z</time></trkpt><trkpt lat="44.76242062345562" lon="9.941322842313859"><ele>491.0</ele><time>2026-05-02T14:31:48.998Z</time></trkpt><trkpt lat="44.76248463762822" lon="9.941204857207328"><ele>491.0</ele><time>2026-05-02T14:31:49.998Z</time></trkpt><trkpt lat="44.76255275253987" lon="9.941101220688102"><ele>491.0</ele><time>2026-05-02T14:31:50.998Z</time></trkpt><trkpt lat="44.76263591808999" lon="9.941029760639873"><ele>488.4</ele><time>2026-05-02T14:31:51.998Z</time></trkpt><trkpt lat="44.76273453951353" lon="9.941019331501298"><ele>485.8</ele><time>2026-05-02T14:31:52.998Z</time></trkpt><trkpt lat="44.76282928968971" lon="9.941065050552755"><ele>483.19999999999993</ele><time>2026-05-02T14:31:53.998Z</time></trkpt><trkpt lat="44.76291660654668" lon="9.941128269526702"><ele>480.59999999999997</ele><time>2026-05-02T14:31:54.998Z</time></trkpt><trkpt lat="44.76300938447288" lon="9.94117873553656"><ele>478.0</ele><time>2026-05-02T14:31:55.998Z</time></trkpt><trkpt lat="44.76310712335464" lon="9.941197608653136"><ele>478.0</ele><time>2026-05-02T14:31:56.998Z</time></trkpt><trkpt lat="44.76320678409836" lon="9.94118262873961"><ele>477.99999999999994</ele><time>2026-05-02T14:31:57.998Z</time></trkpt><trkpt lat="44.763305219604455" lon="9.94113516921904"><ele>477.99999999999994</ele><time>2026-05-02T14:31:58.998Z</time></trkpt><trkpt lat="44.763401568428456" lon="9.941067299913891"><ele>478.0</ele><time>2026-05-02T14:31:59.998Z</time></trkpt><trkpt lat="44.763498870858506" lon="9.941001370206132"><ele>478.0</ele><time>2026-05-02T14:32:00.998Z</time></trkpt><trkpt lat="44.763595614031935" lon="9.940934154400477"><ele>476.59999999999997</ele><time>2026-05-02T14:32:01.998Z</time></trkpt><trkpt lat="44.7636816032485" lon="9.940847498700597"><ele>475.19999999999993</ele><time>2026-05-02T14:32:02.998Z</time></trkpt><trkpt lat="44.76375246661144" lon="9.94073577848171"><ele>473.8</ele><time>2026-05-02T14:32:03.998Z</time></trkpt><trkpt lat="44.763803389857024" lon="9.940615705283466"><ele>472.4</ele><time>2026-05-02T14:32:04.998Z</time></trkpt><trkpt lat="44.76384116937247" lon="9.940519225446828"><ele>471.0</ele><time>2026-05-02T14:32:05.998Z</time></trkpt><trkpt lat="44.76394578189272" lon="9.940445691008167"><ele>471.0</ele><time>2026-05-02T14:32:07.998Z</time></trkpt><trkpt lat="44.763904685340854" lon="9.940820981454605"><ele>471.0</ele><time>2026-05-02T14:32:12Z</time></trkpt><trkpt lat="44.76386172593964" lon="9.940914596350504"><ele>471.0</ele><time>2026-05-02T14:32:13Z</time></trkpt><trkpt lat="44.76381600564218" lon="9.941010204968654"><ele>471.0</ele><time>2026-05-02T14:32:14Z</time></trkpt><trkpt lat="44.763763479614454" lon="9.941108785378468"><ele>472.4</ele><time>2026-05-02T14:32:15Z</time></trkpt><trkpt lat="44.763706132139035" lon="9.941212077420943"><ele>473.8</ele><time>2026-05-02T14:32:16Z</time></trkpt><trkpt lat="44.76364899816548" lon="9.941320330542476"><ele>475.19999999999993</ele><time>2026-05-02T14:32:17Z</time></trkpt><trkpt lat="44.763589875073876" lon="9.941432921959704"><ele>476.59999999999997</ele><time>2026-05-02T14:32:18Z</time></trkpt><trkpt lat="44.76353021124155" lon="9.941549108732476"><ele>478.0</ele><time>2026-05-02T14:32:19Z</time></trkpt><trkpt lat="44.76346665378858" lon="9.94167005851461"><ele>475.59999999999997</ele><time>2026-05-02T14:32:20Z</time></trkpt><trkpt lat="44.76340043251128" lon="9.941794374723779"><ele>473.19999999999993</ele><time>2026-05-02T14:32:21Z</time></trkpt><trkpt lat="44.76333833671936" lon="9.94192388364682"><ele>470.8</ele><time>2026-05-02T14:32:22Z</time></trkpt><trkpt lat="44.76327861310952" lon="9.94205409854158"><ele>468.4</ele><time>2026-05-02T14:32:23Z</time></trkpt><trkpt lat="44.76321695848349" lon="9.942187062965429"><ele>466.0</ele><time>2026-05-02T14:32:24Z</time></trkpt><trkpt lat="44.76316172331576" lon="9.94231992697075"><ele>466.00000000000006</ele><time>2026-05-02T14:32:25Z</time></trkpt><trkpt lat="44.76311555754852" lon="9.942448267476205"><ele>466.0</ele><time>2026-05-02T14:32:26Z</time></trkpt><trkpt lat="44.76308858236039" lon="9.942566379814117"><ele>466.0</ele><time>2026-05-02T14:32:27Z</time></trkpt><trkpt lat="44.76310069818042" lon="9.942681631716782"><ele>466.0</ele><time>2026-05-02T14:32:28Z</time></trkpt><trkpt lat="44.76315566888957" lon="9.942767983526927"><ele>466.00000000000006</ele><time>2026-05-02T14:32:29Z</time></trkpt><trkpt lat="44.76324241186106" lon="9.942802215865743"><ele>466.0</ele><time>2026-05-02T14:32:30Z</time></trkpt><trkpt lat="44.763335960930945" lon="9.942787598625266"><ele>465.6</ele><time>2026-05-02T14:32:31Z</time></trkpt><trkpt lat="44.76342768141013" lon="9.942751147321728"><ele>465.20000000000005</ele><time>2026-05-02T14:32:32Z</time></trkpt><trkpt lat="44.763522495937025" lon="9.942713730887261"><ele>464.79999999999995</ele><time>2026-05-02T14:32:33Z</time></trkpt><trkpt lat="44.76362113681608" lon="9.942663255984549"><ele>464.4</ele><time>2026-05-02T14:32:34Z</time></trkpt><trkpt lat="44.763721416263984" lon="9.94259090021847"><ele>464.0</ele><time>2026-05-02T14:32:35Z</time></trkpt><trkpt lat="44.76381801817494" lon="9.942505955469636"><ele>461.75</ele><time>2026-05-02T14:32:36Z</time></trkpt><trkpt lat="44.76391408260867" lon="9.942410090117347"><ele>459.5</ele><time>2026-05-02T14:32:37Z</time></trkpt><trkpt lat="44.76401501794929" lon="9.942306198424138"><ele>457.25</ele><time>2026-05-02T14:32:38Z</time></trkpt><trkpt lat="44.76411796411293" lon="9.942204060234923"><ele>455.0</ele><time>2026-05-02T14:32:39Z</time></trkpt><trkpt lat="44.764228321952295" lon="9.942114990679798"><ele>455.0</ele><time>2026-05-02T14:32:40Z</time></trkpt><trkpt lat="44.764341604277455" lon="9.942027998173279"><ele>455.0</ele><time>2026-05-02T14:32:41Z</time></trkpt><trkpt lat="44.76445587268239" lon="9.941939408009803"><ele>455.0</ele><time>2026-05-02T14:32:42Z</time></trkpt><trkpt lat="44.76457148658343" lon="9.941850669061948"><ele>455.0</ele><time>2026-05-02T14:32:43Z</time></trkpt><trkpt lat="44.76468618487376" lon="9.941763560887274"><ele>452.25</ele><time>2026-05-02T14:32:44Z</time></trkpt><trkpt lat="44.76480263157833" lon="9.941677347054378"><ele>449.5</ele><time>2026-05-02T14:32:45Z</time></trkpt><trkpt lat="44.764921398965434" lon="9.94158980688819"><ele>446.75</ele><time>2026-05-02T14:32:46Z</time></trkpt><trkpt lat="44.765037835942195" lon="9.941492935929608"><ele>444.0</ele><time>2026-05-02T14:32:47Z</time></trkpt><trkpt lat="44.76515533560025" lon="9.941401834547374"><ele>441.0</ele><time>2026-05-02T14:32:48Z</time></trkpt><trkpt lat="44.76527508680999" lon="9.941313727191842"><ele>438.0</ele><time>2026-05-02T14:32:49Z</time></trkpt><trkpt lat="44.76539385779247" lon="9.941219173458686"><ele>435.0</ele><time>2026-05-02T14:32:50Z</time></trkpt><trkpt lat="44.76551318168303" lon="9.94112727952415"><ele>432.0</ele><time>2026-05-02T14:32:50.999Z</time></trkpt><trkpt lat="44.765633274279104" lon="9.941040173616498"><ele>432.0</ele><time>2026-05-02T14:32:51.999Z</time></trkpt><trkpt lat="44.76575706536831" lon="9.940967528587581"><ele>432.0</ele><time>2026-05-02T14:32:52.999Z</time></trkpt><trkpt lat="44.765885185198826" lon="9.940910774671076"><ele>432.0</ele><time>2026-05-02T14:32:53.999Z</time></trkpt><trkpt lat="44.7660116817768" lon="9.940858127153936"><ele>432.0</ele><time>2026-05-02T14:32:54.999Z</time></trkpt><trkpt lat="44.76613851389287" lon="9.940801853856872"><ele>432.0</ele><time>2026-05-02T14:32:55.999Z</time></trkpt><trkpt lat="44.76626470499861" lon="9.94075239013645"><ele>432.0</ele><time>2026-05-02T14:32:56.999Z</time></trkpt><trkpt lat="44.76639094309193" lon="9.940697841668126"><ele>432.0</ele><time>2026-05-02T14:32:57.999Z</time></trkpt><trkpt lat="44.766516293600354" lon="9.940639189440255"><ele>432.0</ele><time>2026-05-02T14:32:58.999Z</time></trkpt><trkpt lat="44.76664248921216" lon="9.940588329279638"><ele>432.0</ele><time>2026-05-02T14:32:59.999Z</time></trkpt><trkpt lat="44.76677226028423" lon="9.940556243642556"><ele>432.0</ele><time>2026-05-02T14:33:00.999Z</time></trkpt><trkpt lat="44.766904671755356" lon="9.940528041124095"><ele>432.0</ele><time>2026-05-02T14:33:01.999Z</time></trkpt><trkpt lat="44.767039986145484" lon="9.940492465666084"><ele>432.0</ele><time>2026-05-02T14:33:02.999Z</time></trkpt><trkpt lat="44.76717322283831" lon="9.940461841054198"><ele>431.25</ele><time>2026-05-02T14:33:03.999Z</time></trkpt><trkpt lat="44.76730894732939" lon="9.940431882621185"><ele>430.5</ele><time>2026-05-02T14:33:04.999Z</time></trkpt><trkpt lat="44.767445237318256" lon="9.94039804736214"><ele>429.75</ele><time>2026-05-02T14:33:05.999Z</time></trkpt><trkpt lat="44.76758070224455" lon="9.940366957901121"><ele>429.0</ele><time>2026-05-02T14:33:06.999Z</time></trkpt><trkpt lat="44.7677162712568" lon="9.94034196164458"><ele>428.0</ele><time>2026-05-02T14:33:07.999Z</time></trkpt><trkpt lat="44.76785348511344" lon="9.94034692780881"><ele>427.0</ele><time>2026-05-02T14:33:08.999Z</time></trkpt><trkpt lat="44.76798808137978" lon="9.940380453063188"><ele>426.0</ele><time>2026-05-02T14:33:09.999Z</time></trkpt><trkpt lat="44.76811656178614" lon="9.94043583173696"><ele>425.0</ele><time>2026-05-02T14:33:10.999Z</time></trkpt><trkpt lat="44.76823036959273" lon="9.940503642040033"><ele>425.0</ele><time>2026-05-02T14:33:11.999Z</time></trkpt><trkpt lat="44.76833278835265" lon="9.94059398848828"><ele>425.0</ele><time>2026-05-02T14:33:12.999Z</time></trkpt><trkpt lat="44.76842263541687" lon="9.9407188306012"><ele>425.0</ele><time>2026-05-02T14:33:13.999Z</time></trkpt><trkpt lat="44.76849491000501" lon="9.940866837122977"><ele>425.0</ele><time>2026-05-02T14:33:14.999Z</time></trkpt><trkpt lat="44.76852414591659" lon="9.941044243718824"><ele>422.5</ele><time>2026-05-02T14:33:15.999Z</time></trkpt><trkpt lat="44.76857417883195" lon="9.941212679567109"><ele>420.0</ele><time>2026-05-02T14:33:16.999Z</time></trkpt><trkpt lat="44.76862058484398" lon="9.941376100787911"><ele>417.5</ele><time>2026-05-02T14:33:17.999Z</time></trkpt><trkpt lat="44.7687005149627" lon="9.941504848113281"><ele>415.0</ele><time>2026-05-02T14:33:18.999Z</time></trkpt><trkpt lat="44.76880728539663" lon="9.941596389163111"><ele>415.0</ele><time>2026-05-02T14:33:19.999Z</time></trkpt><trkpt lat="44.76892135290609" lon="9.941665776035224"><ele>415.0</ele><time>2026-05-02T14:33:20.999Z</time></trkpt><trkpt lat="44.76903874825369" lon="9.941726122714723"><ele>415.0</ele><time>2026-05-02T14:33:21.999Z</time></trkpt><trkpt lat="44.769161524558754" lon="9.941771388728567"><ele>415.0</ele><time>2026-05-02T14:33:22.999Z</time></trkpt><trkpt lat="44.769290153684686" lon="9.941793524899284"><ele>414.25</ele><time>2026-05-02T14:33:23.999Z</time></trkpt><trkpt lat="44.76941930269187" lon="9.94179173920831"><ele>413.5</ele><time>2026-05-02T14:33:24.999Z</time></trkpt><trkpt lat="44.76954640908859" lon="9.941752916225786"><ele>412.75</ele><time>2026-05-02T14:33:25.999Z</time></trkpt><trkpt lat="44.7696654307605" lon="9.941680249109865"><ele>412.0</ele><time>2026-05-02T14:33:26.999Z</time></trkpt><trkpt lat="44.76977270852071" lon="9.941577856950499"><ele>412.0</ele><time>2026-05-02T14:33:27.999Z</time></trkpt><trkpt lat="44.7698704989906" lon="9.941453650891873"><ele>412.0</ele><time>2026-05-02T14:33:28.999Z</time></trkpt><trkpt lat="44.769953875106914" lon="9.941305971525235"><ele>412.0</ele><time>2026-05-02T14:33:29.999Z</time></trkpt><trkpt lat="44.77002224024185" lon="9.941148067618979"><ele>412.0</ele><time>2026-05-02T14:33:30.999Z</time></trkpt><trkpt lat="44.77008072471108" lon="9.940983900637427"><ele>410.75</ele><time>2026-05-02T14:33:31.999Z</time></trkpt><trkpt lat="44.77013424599901" lon="9.940809535321035"><ele>409.5</ele><time>2026-05-02T14:33:32.999Z</time></trkpt><trkpt lat="44.77019496970789" lon="9.940648417599418"><ele>408.25</ele><time>2026-05-02T14:33:33.999Z</time></trkpt><trkpt lat="44.770270720529155" lon="9.94051166130077"><ele>407.0</ele><time>2026-05-02T14:33:34.999Z</time></trkpt><trkpt lat="44.77036607855016" lon="9.94041607484101"><ele>403.5</ele><time>2026-05-02T14:33:35.999Z</time></trkpt><trkpt lat="44.77047556524366" lon="9.940367974579923"><ele>400.0</ele><time>2026-05-02T14:33:36.999Z</time></trkpt><trkpt lat="44.77059541575764" lon="9.940342406236699"><ele>396.5</ele><time>2026-05-02T14:33:37.999Z</time></trkpt><trkpt lat="44.770714495520544" lon="9.940289719682248"><ele>393.0</ele><time>2026-05-02T14:33:38.999Z</time></trkpt><trkpt lat="44.77082468036354" lon="9.940213157619826"><ele>393.0</ele><time>2026-05-02T14:33:39.999Z</time></trkpt><trkpt lat="44.77092945423195" lon="9.940117342861782"><ele>393.0</ele><time>2026-05-02T14:33:40.999Z</time></trkpt><trkpt lat="44.771038140784015" lon="9.940030899686532"><ele>393.0</ele><time>2026-05-02T14:33:41.999Z</time></trkpt><trkpt lat="44.77115067337662" lon="9.939958015889747"><ele>393.0</ele><time>2026-05-02T14:33:42.999Z</time></trkpt><trkpt lat="44.77126126181906" lon="9.939889683524573"><ele>390.0</ele><time>2026-05-02T14:33:43.999Z</time></trkpt><trkpt lat="44.771363320262644" lon="9.939832489946419"><ele>387.0</ele><time>2026-05-02T14:33:44.999Z</time></trkpt><trkpt lat="44.77146336555099" lon="9.939785722922732"><ele>384.0</ele><time>2026-05-02T14:33:45.999Z</time></trkpt><trkpt lat="44.77156110084225" lon="9.939734675524573"><ele>381.0</ele><time>2026-05-02T14:33:46.999Z</time></trkpt><trkpt lat="44.771649955496784" lon="9.939663366874912"><ele>378.0</ele><time>2026-05-02T14:33:47.998Z</time></trkpt><trkpt lat="44.771721972746406" lon="9.93956531836232"><ele>378.0</ele><time>2026-05-02T14:33:48.998Z</time></trkpt><trkpt lat="44.77177124400719" lon="9.939439607171938"><ele>378.0</ele><time>2026-05-02T14:33:49.998Z</time></trkpt><trkpt lat="44.77180130354615" lon="9.939295439924363"><ele>378.0</ele><time>2026-05-02T14:33:50.998Z</time></trkpt><trkpt lat="44.7718087013008" lon="9.93914516914"><ele>378.0</ele><time>2026-05-02T14:33:51.998Z</time></trkpt><trkpt lat="44.771792712074344" lon="9.939000098198171"><ele>378.0</ele><time>2026-05-02T14:33:52.998Z</time></trkpt><trkpt lat="44.771757812471016" lon="9.938868762498947"><ele>380.59999999999997</ele><time>2026-05-02T14:33:53.998Z</time></trkpt><trkpt lat="44.7716980270723" lon="9.938762274461778"><ele>383.2</ele><time>2026-05-02T14:33:54.998Z</time></trkpt><trkpt lat="44.771619855773736" lon="9.93866342246642"><ele>385.8</ele><time>2026-05-02T14:33:55.998Z</time></trkpt><trkpt lat="44.77153289412917" lon="9.938583719054742"><ele>388.4</ele><time>2026-05-02T14:33:56.998Z</time></trkpt><trkpt lat="44.77143774041671" lon="9.938540601741714"><ele>391.0</ele><time>2026-05-02T14:33:57.998Z</time></trkpt><trkpt lat="44.771337426420295" lon="9.938546651306027"><ele>391.0</ele><time>2026-05-02T14:33:58.998Z</time></trkpt><trkpt lat="44.771239221797806" lon="9.93858836302426"><ele>391.0</ele><time>2026-05-02T14:33:59.998Z</time></trkpt><trkpt lat="44.77113224579082" lon="9.93861162323978"><ele>391.0</ele><time>2026-05-02T14:34:00.998Z</time></trkpt><trkpt lat="44.771031960894064" lon="9.938664177037387"><ele>391.0</ele><time>2026-05-02T14:34:01.998Z</time></trkpt><trkpt lat="44.77094149239079" lon="9.938686525234969"><ele>391.0</ele><time>2026-05-02T14:34:02.998Z</time></trkpt><trkpt lat="44.77086244362413" lon="9.938684730189593"><ele>390.83333333333337</ele><time>2026-05-02T14:34:03.998Z</time></trkpt><trkpt lat="44.77079491750724" lon="9.93865475422445"><ele>390.6666666666667</ele><time>2026-05-02T14:34:04.998Z</time></trkpt><trkpt lat="44.770733612333814" lon="9.938618354146037"><ele>390.5</ele><time>2026-05-02T14:34:05.998Z</time></trkpt><trkpt lat="44.770669681284524" lon="9.938565898960473"><ele>390.33333333333337</ele><time>2026-05-02T14:34:06.998Z</time></trkpt><trkpt lat="44.7706093086082" lon="9.938501259475693"><ele>390.1666666666667</ele><time>2026-05-02T14:34:07.998Z</time></trkpt><trkpt lat="44.77054331651" lon="9.938433056211057"><ele>390.0</ele><time>2026-05-02T14:34:08.998Z</time></trkpt><trkpt lat="44.77047637346817" lon="9.938363742443364"><ele>388.1666666666667</ele><time>2026-05-02T14:34:09.998Z</time></trkpt><trkpt lat="44.77040523992173" lon="9.938297553875937"><ele>386.3333333333333</ele><time>2026-05-02T14:34:10.998Z</time></trkpt><trkpt lat="44.77032847442162" lon="9.938233511728312"><ele>384.5</ele><time>2026-05-02T14:34:11.998Z</time></trkpt><trkpt lat="44.77025587423882" lon="9.938155041568667"><ele>382.66666666666663</ele><time>2026-05-02T14:34:12.998Z</time></trkpt><trkpt lat="44.77019495067842" lon="9.938066361112176"><ele>380.8333333333333</ele><time>2026-05-02T14:34:13.998Z</time></trkpt><trkpt lat="44.7701569528178" lon="9.93796269937058"><ele>379.0</ele><time>2026-05-02T14:34:14.998Z</time></trkpt><trkpt lat="44.77015414646174" lon="9.937850901496992"><ele>379.00000000000006</ele><time>2026-05-02T14:34:15.998Z</time></trkpt><trkpt lat="44.77018493233774" lon="9.937744312748846"><ele>379.0</ele><time>2026-05-02T14:34:16.998Z</time></trkpt><trkpt lat="44.77023322385557" lon="9.937653698591031"><ele>379.0</ele><time>2026-05-02T14:34:18Z</time></trkpt><trkpt lat="44.77029384250669" lon="9.937601661063606"><ele>379.0</ele><time>2026-05-02T14:34:19Z</time></trkpt><trkpt lat="44.770362487447315" lon="9.937582277434384"><ele>379.0</ele><time>2026-05-02T14:34:20Z</time></trkpt><trkpt lat="44.7704330713981" lon="9.937595729112465"><ele>379.00000000000006</ele><time>2026-05-02T14:34:21Z</time></trkpt><trkpt lat="44.7705002523767" lon="9.937638626485356"><ele>379.0</ele><time>2026-05-02T14:34:22Z</time></trkpt><trkpt lat="44.770543003675414" lon="9.937735867640486"><ele>379.0</ele><time>2026-05-02T14:34:23Z</time></trkpt><trkpt lat="44.7705678445658" lon="9.937838212490185"><ele>379.0</ele><time>2026-05-02T14:34:24Z</time></trkpt><trkpt lat="44.770613411689396" lon="9.937936964407335"><ele>379.0</ele><time>2026-05-02T14:34:25Z</time></trkpt><trkpt lat="44.770672749190354" lon="9.938026996179518"><ele>379.0</ele><time>2026-05-02T14:34:26Z</time></trkpt><trkpt lat="44.77076902148362" lon="9.93806735277943"><ele>379.0</ele><time>2026-05-02T14:34:27Z</time></trkpt><trkpt lat="44.77086558823122" lon="9.938078902742621"><ele>379.0</ele><time>2026-05-02T14:34:28Z</time></trkpt><trkpt lat="44.77095520623104" lon="9.938023589775602"><ele>378.79999999999995</ele><time>2026-05-02T14:34:29Z</time></trkpt><trkpt lat="44.77102871298173" lon="9.937931996722915"><ele>378.59999999999997</ele><time>2026-05-02T14:34:30Z</time></trkpt><trkpt lat="44.771087976497675" lon="9.937833136955097"><ele>378.4</ele><time>2026-05-02T14:34:31Z</time></trkpt><trkpt lat="44.771151016294716" lon="9.937737660846256"><ele>378.2</ele><time>2026-05-02T14:34:32Z</time></trkpt><trkpt lat="44.77122396826492" lon="9.937660832764347"><ele>378.0</ele><time>2026-05-02T14:34:33Z</time></trkpt><trkpt lat="44.771312491036596" lon="9.937607979339862"><ele>378.0</ele><time>2026-05-02T14:34:34Z</time></trkpt><trkpt lat="44.77141438797796" lon="9.937599094612866"><ele>378.0</ele><time>2026-05-02T14:34:35Z</time></trkpt><trkpt lat="44.77150714319197" lon="9.937661909829362"><ele>378.0</ele><time>2026-05-02T14:34:36Z</time></trkpt><trkpt lat="44.77159901541986" lon="9.937689094283863"><ele>378.0</ele><time>2026-05-02T14:34:37Z</time></trkpt><trkpt lat="44.77167178836069" lon="9.937712879482834"><ele>378.0</ele><time>2026-05-02T14:34:38Z</time></trkpt><trkpt lat="44.771742281305485" lon="9.93758188028393"><ele>375.42857142857144</ele><time>2026-05-02T14:34:40Z</time></trkpt><trkpt lat="44.77170228465708" lon="9.937482577469629"><ele>372.8571428571429</ele><time>2026-05-02T14:34:41Z</time></trkpt><trkpt lat="44.77163224391479" lon="9.937434029565873"><ele>370.2857142857143</ele><time>2026-05-02T14:34:42Z</time></trkpt><trkpt lat="44.77155868412553" lon="9.937419059207276"><ele>367.7142857142857</ele><time>2026-05-02T14:34:43Z</time></trkpt><trkpt lat="44.771494639998224" lon="9.937412838689772"><ele>365.14285714285717</ele><time>2026-05-02T14:34:44Z</time></trkpt><trkpt lat="44.77142932011905" lon="9.937404885259221"><ele>362.57142857142856</ele><time>2026-05-02T14:34:45Z</time></trkpt><trkpt lat="44.77136204073695" lon="9.937390969913752"><ele>360.0</ele><time>2026-05-02T14:34:46Z</time></trkpt><trkpt lat="44.77129325922543" lon="9.937369750639887"><ele>360.0</ele><time>2026-05-02T14:34:47Z</time></trkpt><trkpt lat="44.771221521255484" lon="9.937347701841613"><ele>360.0</ele><time>2026-05-02T14:34:48Z</time></trkpt><trkpt lat="44.77115599564571" lon="9.937317547814347"><ele>360.0</ele><time>2026-05-02T14:34:49Z</time></trkpt><trkpt lat="44.77112706695698" lon="9.937170278774104"><ele>360.0</ele><time>2026-05-02T14:34:51Z</time></trkpt><trkpt lat="44.771184474026334" lon="9.937091605791949"><ele>360.0</ele><time>2026-05-02T14:34:52Z</time></trkpt><trkpt lat="44.77127614666468" lon="9.93711502466399"><ele>360.0</ele><time>2026-05-02T14:34:53Z</time></trkpt><trkpt lat="44.77134849514981" lon="9.937152487236034"><ele>360.0</ele><time>2026-05-02T14:34:54Z</time></trkpt><trkpt lat="44.77142692621376" lon="9.937154649300076"><ele>360.0</ele><time>2026-05-02T14:34:55Z</time></trkpt><trkpt lat="44.77151007159957" lon="9.937184468978598"><ele>360.0</ele><time>2026-05-02T14:34:56Z</time></trkpt><trkpt lat="44.77159604487712" lon="9.937212441680312"><ele>360.0</ele><time>2026-05-02T14:34:56.999Z</time></trkpt><trkpt lat="44.7716862180676" lon="9.937243374240555"><ele>360.0</ele><time>2026-05-02T14:34:57.999Z</time></trkpt><trkpt lat="44.771782987462274" lon="9.937270991254897"><ele>360.0</ele><time>2026-05-02T14:34:58.999Z</time></trkpt><trkpt lat="44.771882691467574" lon="9.937300245375427"><ele>358.2</ele><time>2026-05-02T14:34:59.999Z</time></trkpt><trkpt lat="44.77198714187545" lon="9.937338304963507"><ele>356.4</ele><time>2026-05-02T14:35:00.999Z</time></trkpt><trkpt lat="44.77209456392889" lon="9.937378054224968"><ele>354.6</ele><time>2026-05-02T14:35:01.999Z</time></trkpt><trkpt lat="44.772207645988466" lon="9.937410392246763"><ele>352.8</ele><time>2026-05-02T14:35:02.999Z</time></trkpt><trkpt lat="44.77231858590866" lon="9.937445820410137"><ele>351.0</ele><time>2026-05-02T14:35:03.999Z</time></trkpt><trkpt lat="44.772421308487054" lon="9.937494425703917"><ele>351.0</ele><time>2026-05-02T14:35:04.999Z</time></trkpt><trkpt lat="44.77252539354157" lon="9.937547789804427"><ele>351.0</ele><time>2026-05-02T14:35:05.999Z</time></trkpt><trkpt lat="44.7726238219648" lon="9.937597631451398"><ele>351.0</ele><time>2026-05-02T14:35:06.999Z</time></trkpt><trkpt lat="44.772709699968374" lon="9.937640231416509"><ele>351.0</ele><time>2026-05-02T14:35:07.999Z</time></trkpt><trkpt lat="44.77278528179359" lon="9.937670598652826"><ele>351.0</ele><time>2026-05-02T14:35:08.999Z</time></trkpt><trkpt lat="44.772852807080874" lon="9.937661358601309"><ele>351.00000000000006</ele><time>2026-05-02T14:35:09.999Z</time></trkpt><trkpt lat="44.77289480097757" lon="9.937583714747198"><ele>351.0</ele><time>2026-05-02T14:35:10.999Z</time></trkpt><trkpt lat="44.77289396441558" lon="9.937478784325197"><ele>351.0</ele><time>2026-05-02T14:35:11.999Z</time></trkpt><trkpt lat="44.772848758139446" lon="9.937392029356277"><ele>351.0</ele><time>2026-05-02T14:35:12.999Z</time></trkpt><trkpt lat="44.772777610730536" lon="9.93733503396447"><ele>351.0</ele><time>2026-05-02T14:35:13.999Z</time></trkpt><trkpt lat="44.77271157750503" lon="9.937291674367021"><ele>351.00000000000006</ele><time>2026-05-02T14:35:14.999Z</time></trkpt><trkpt lat="44.772648654336194" lon="9.937237334482624"><ele>351.0</ele><time>2026-05-02T14:35:15.999Z</time></trkpt><trkpt lat="44.772588697120824" lon="9.937179047758292"><ele>351.0</ele><time>2026-05-02T14:35:16.999Z</time></trkpt><trkpt lat="44.7725528676654" lon="9.937102231077766"><ele>351.0</ele><time>2026-05-02T14:35:17.999Z</time></trkpt><trkpt lat="44.7725603171554" lon="9.937007839575436"><ele>351.0</ele><time>2026-05-02T14:35:18.999Z</time></trkpt><trkpt lat="44.772617071800205" lon="9.936935019576815"><ele>351.0</ele><time>2026-05-02T14:35:19.999Z</time></trkpt><trkpt lat="44.77269889628914" lon="9.936922544074829"><ele>351.0</ele><time>2026-05-02T14:35:20.999Z</time></trkpt><trkpt lat="44.77276815864039" lon="9.937024041427135"><ele>351.0</ele><time>2026-05-02T14:35:21.999Z</time></trkpt><trkpt lat="44.77284587523357" lon="9.937072185472186"><ele>348.0</ele><time>2026-05-02T14:35:22.999Z</time></trkpt><trkpt lat="44.77293062295209" lon="9.937102169362651"><ele>345.0</ele><time>2026-05-02T14:35:23.999Z</time></trkpt><trkpt lat="44.77301136323219" lon="9.937156049804813"><ele>342.0</ele><time>2026-05-02T14:35:24.999Z</time></trkpt><trkpt lat="44.773100046260524" lon="9.93720797037718"><ele>339.0</ele><time>2026-05-02T14:35:25.999Z</time></trkpt><trkpt lat="44.77318805011559" lon="9.937261265214074"><ele>336.0</ele><time>2026-05-02T14:35:26.999Z</time></trkpt><trkpt lat="44.773280360316946" lon="9.937319911789043"><ele>336.0</ele><time>2026-05-02T14:35:27.999Z</time></trkpt><trkpt lat="44.773376575592316" lon="9.937374123773537"><ele>336.0</ele><time>2026-05-02T14:35:28.999Z</time></trkpt><trkpt lat="44.77346966419714" lon="9.937427799081867"><ele>336.0</ele><time>2026-05-02T14:35:29.999Z</time></trkpt><trkpt lat="44.77355551348838" lon="9.937473586652446"><ele>336.0</ele><time>2026-05-02T14:35:30.999Z</time></trkpt><trkpt lat="44.773635287787975" lon="9.937519224511174"><ele>336.0</ele><time>2026-05-02T14:35:31.999Z</time></trkpt><trkpt lat="44.7737058770288" lon="9.937565639685259"><ele>335.8333333333333</ele><time>2026-05-02T14:35:32.999Z</time></trkpt><trkpt lat="44.77376363754389" lon="9.93760776328234"><ele>335.6666666666667</ele><time>2026-05-02T14:35:33.999Z</time></trkpt><trkpt lat="44.77383210259654" lon="9.937680908502234"><ele>335.5</ele><time>2026-05-02T14:35:35.999Z</time></trkpt><trkpt lat="44.773863345910115" lon="9.93759140493056"><ele>335.33333333333337</ele><time>2026-05-02T14:35:38.999Z</time></trkpt><trkpt lat="44.77378098383091" lon="9.937545577387079"><ele>335.1666666666667</ele><time>2026-05-02T14:36:14.998Z</time></trkpt><trkpt lat="44.77371838159014" lon="9.937513707546914"><ele>335.0</ele><time>2026-05-02T14:36:16.998Z</time></trkpt><trkpt lat="44.7736508677974" lon="9.937472941299184"><ele>335.0</ele><time>2026-05-02T14:36:18.998Z</time></trkpt><trkpt lat="44.773581330344996" lon="9.937429317817582"><ele>335.0</ele><time>2026-05-02T14:36:20.998Z</time></trkpt><trkpt lat="44.77350588509859" lon="9.937388816256455"><ele>335.0</ele><time>2026-05-02T14:36:22.998Z</time></trkpt><trkpt lat="44.77344053122436" lon="9.937345450406577"><ele>335.0</ele><time>2026-05-02T14:36:25Z</time></trkpt><trkpt lat="44.773361771346906" lon="9.937286516460968"><ele>335.0</ele><time>2026-05-02T14:36:28Z</time></trkpt><trkpt lat="44.7733006453299" lon="9.937265096874993"><ele>335.0</ele><time>2026-05-02T14:36:30Z</time></trkpt><trkpt lat="44.77321310237725" lon="9.93721371254046"><ele>335.1428571428571</ele><time>2026-05-02T14:36:33Z</time></trkpt><trkpt lat="44.77313563521869" lon="9.937167786006329"><ele>335.2857142857143</ele><time>2026-05-02T14:36:36Z</time></trkpt><trkpt lat="44.77307131044419" lon="9.937132702527729"><ele>335.42857142857144</ele><time>2026-05-02T14:36:39Z</time></trkpt><trkpt lat="44.77300391555582" lon="9.937087196557178"><ele>335.57142857142856</ele><time>2026-05-02T14:36:42Z</time></trkpt><trkpt lat="44.77293486709546" lon="9.937035538432625"><ele>335.7142857142857</ele><time>2026-05-02T14:36:45Z</time></trkpt><trkpt lat="44.77287038687772" lon="9.936990332420267"><ele>335.85714285714283</ele><time>2026-05-02T14:36:49Z</time></trkpt><trkpt lat="44.77280829473645" lon="9.936946788783379"><ele>336.0</ele><time>2026-05-02T14:36:52Z</time></trkpt><trkpt lat="44.772740498495885" lon="9.936919081336162"><ele>336.0</ele><time>2026-05-02T14:36:55Z</time></trkpt><trkpt lat="44.77267470514094" lon="9.936921002020147"><ele>336.0</ele><time>2026-05-02T14:36:58Z</time></trkpt><trkpt lat="44.772617909615455" lon="9.936972526074904"><ele>336.0</ele><time>2026-05-02T14:37:01Z</time></trkpt><trkpt lat="44.77260278819009" lon="9.937088834508735"><ele>336.0</ele><time>2026-05-02T14:37:04.999Z</time></trkpt><trkpt lat="44.7726329770649" lon="9.937169594643645"><ele>336.0</ele><time>2026-05-02T14:37:07.999Z</time></trkpt><trkpt lat="44.772677692301485" lon="9.937236602789804"><ele>336.0</ele><time>2026-05-02T14:37:10.999Z</time></trkpt><trkpt lat="44.77273048744848" lon="9.937297139822403"><ele>336.0</ele><time>2026-05-02T14:37:13.999Z</time></trkpt><trkpt lat="44.77278818349093" lon="9.937347378592488"><ele>336.0</ele><time>2026-05-02T14:37:16.999Z</time></trkpt><trkpt lat="44.77284853035134" lon="9.937418014760881"><ele>336.0</ele><time>2026-05-02T14:37:19.999Z</time></trkpt><trkpt lat="44.7728737145264" lon="9.937513466723477"><ele>336.0</ele><time>2026-05-02T14:37:22.999Z</time></trkpt><trkpt lat="44.77282673931076" lon="9.937594495529913"><ele>336.0</ele><time>2026-05-02T14:37:25.999Z</time></trkpt><trkpt lat="44.772752429615004" lon="9.93758173898882"><ele>336.0</ele><time>2026-05-02T14:37:28.999Z</time></trkpt><trkpt lat="44.77267856458506" lon="9.93753682728274"><ele>336.0</ele><time>2026-05-02T14:37:32.999Z</time></trkpt><trkpt lat="44.772617819281436" lon="9.937505463085651"><ele>336.0</ele><time>2026-05-02T14:37:35.999Z</time></trkpt><trkpt lat="44.77255479371387" lon="9.937474603175364"><ele>338.14285714285717</ele><time>2026-05-02T14:37:38.999Z</time></trkpt><trkpt lat="44.77249427340506" lon="9.937428265452578"><ele>340.2857142857143</ele><time>2026-05-02T14:37:41.999Z</time></trkpt><trkpt lat="44.77243166512218" lon="9.937402736570345"><ele>342.42857142857144</ele><time>2026-05-02T14:37:44.999Z</time></trkpt><trkpt lat="44.77236751411659" lon="9.937375066231322"><ele>344.57142857142856</ele><time>2026-05-02T14:37:47.999Z</time></trkpt><trkpt lat="44.77230518098205" lon="9.937348084313664"><ele>346.7142857142857</ele><time>2026-05-02T14:37:50.999Z</time></trkpt><trkpt lat="44.77223405132503" lon="9.937328195663044"><ele>348.8571428571429</ele><time>2026-05-02T14:37:54.999Z</time></trkpt><trkpt lat="44.77216640089825" lon="9.937305712826515"><ele>351.0</ele><time>2026-05-02T14:37:57.998Z</time></trkpt><trkpt lat="44.772101824859085" lon="9.937286057456657"><ele>351.00000000000006</ele><time>2026-05-02T14:38:00.998Z</time></trkpt><trkpt lat="44.772030119685326" lon="9.937268547174135"><ele>351.0</ele><time>2026-05-02T14:38:03.998Z</time></trkpt><trkpt lat="44.77195781030009" lon="9.937243992407284"><ele>351.0</ele><time>2026-05-02T14:38:07.998Z</time></trkpt><trkpt lat="44.7718927002231" lon="9.937221397204095"><ele>351.0</ele><time>2026-05-02T14:38:10.998Z</time></trkpt><trkpt lat="44.77183129824153" lon="9.937200365749286"><ele>351.0</ele><time>2026-05-02T14:38:13.998Z</time></trkpt><trkpt lat="44.77175123643442" lon="9.937181164397357"><ele>351.00000000000006</ele><time>2026-05-02T14:38:16.998Z</time></trkpt><trkpt lat="44.77167596381813" lon="9.937159671291303"><ele>351.0</ele><time>2026-05-02T14:38:20.998Z</time></trkpt><trkpt lat="44.77161221972073" lon="9.93714253694056"><ele>352.28571428571433</ele><time>2026-05-02T14:38:23.998Z</time></trkpt><trkpt lat="44.771546336954735" lon="9.937123014035295"><ele>353.57142857142856</ele><time>2026-05-02T14:38:26.998Z</time></trkpt><trkpt lat="44.77148254873284" lon="9.937100286681112"><ele>354.8571428571429</ele><time>2026-05-02T14:38:30Z</time></trkpt><trkpt lat="44.77140972378283" lon="9.937080057821566"><ele>356.14285714285717</ele><time>2026-05-02T14:38:33Z</time></trkpt><trkpt lat="44.77134182045669" lon="9.937068897970608"><ele>357.42857142857144</ele><time>2026-05-02T14:38:36Z</time></trkpt><trkpt lat="44.77126633228881" lon="9.937069360164013"><ele>358.7142857142857</ele><time>2026-05-02T14:38:40Z</time></trkpt><trkpt lat="44.77120265262539" lon="9.937100607787361"><ele>360.0</ele><time>2026-05-02T14:38:43Z</time></trkpt><trkpt lat="44.771168519742645" lon="9.937182084426382"><ele>360.0</ele><time>2026-05-02T14:38:46Z</time></trkpt><trkpt lat="44.77119671059184" lon="9.937287412643348"><ele>360.0</ele><time>2026-05-02T14:38:49Z</time></trkpt><trkpt lat="44.77126068153457" lon="9.937333338191609"><ele>360.0</ele><time>2026-05-02T14:38:53Z</time></trkpt><trkpt lat="44.77132368254963" lon="9.937366153536084"><ele>360.0</ele><time>2026-05-02T14:38:56Z</time></trkpt><trkpt lat="44.77138848835562" lon="9.937393144152239"><ele>360.0</ele><time>2026-05-02T14:38:59Z</time></trkpt><trkpt lat="44.7714529166854" lon="9.937426264162005"><ele>360.0</ele><time>2026-05-02T14:39:02Z</time></trkpt><trkpt lat="44.771534768018036" lon="9.937461467278311"><ele>360.0</ele><time>2026-05-02T14:39:05Z</time></trkpt><trkpt lat="44.771596869310144" lon="9.93749074605986"><ele>360.0</ele><time>2026-05-02T14:39:07.999Z</time></trkpt><trkpt lat="44.771655406590554" lon="9.93753234910507"><ele>360.0</ele><time>2026-05-02T14:39:10.999Z</time></trkpt><trkpt lat="44.77168004826891" lon="9.937622069097177"><ele>360.0</ele><time>2026-05-02T14:39:13.999Z</time></trkpt><trkpt lat="44.771623016126824" lon="9.937671111181842"><ele>360.0</ele><time>2026-05-02T14:39:16.999Z</time></trkpt><trkpt lat="44.77155471142804" lon="9.937649301546124"><ele>360.0</ele><time>2026-05-02T14:39:19.999Z</time></trkpt><trkpt lat="44.77147905852853" lon="9.93760764849848"><ele>360.0</ele><time>2026-05-02T14:39:22.999Z</time></trkpt><trkpt lat="44.7714172916519" lon="9.937587828005688"><ele>360.0</ele><time>2026-05-02T14:39:25.999Z</time></trkpt><trkpt lat="44.77132828242565" lon="9.937589890724542"><ele>363.0</ele><time>2026-05-02T14:39:29.999Z</time></trkpt><trkpt lat="44.7712520376" lon="9.937621128710914"><ele>366.0</ele><time>2026-05-02T14:39:32.999Z</time></trkpt><trkpt lat="44.77117626854115" lon="9.937683312485909"><ele>369.0</ele><time>2026-05-02T14:39:35.999Z</time></trkpt><trkpt lat="44.771126466016135" lon="9.937746399608926"><ele>372.0</ele><time>2026-05-02T14:39:38.999Z</time></trkpt><trkpt lat="44.771070776653346" lon="9.93781171089446"><ele>375.0</ele><time>2026-05-02T14:39:41.999Z</time></trkpt><trkpt lat="44.77102196999118" lon="9.937870574297376"><ele>378.0</ele><time>2026-05-02T14:39:43.999Z</time></trkpt><trkpt lat="44.77095879146973" lon="9.93794163333048"><ele>378.1666666666667</ele><time>2026-05-02T14:39:46.999Z</time></trkpt><trkpt lat="44.77088767858615" lon="9.937996550628425"><ele>378.3333333333333</ele><time>2026-05-02T14:39:49.999Z</time></trkpt><trkpt lat="44.770803224792395" lon="9.938011496744142"><ele>378.5</ele><time>2026-05-02T14:39:52.999Z</time></trkpt><trkpt lat="44.770740158410746" lon="9.937987833744696"><ele>378.66666666666663</ele><time>2026-05-02T14:39:54.999Z</time></trkpt><trkpt lat="44.77068121599945" lon="9.93792455752543"><ele>378.8333333333333</ele><time>2026-05-02T14:39:57.999Z</time></trkpt><trkpt lat="44.770624168235095" lon="9.937820544355928"><ele>379.0</ele><time>2026-05-02T14:40:00.998Z</time></trkpt><trkpt lat="44.77058494801541" lon="9.937737221490679"><ele>379.0</ele><time>2026-05-02T14:40:03.998Z</time></trkpt><trkpt lat="44.77053384753023" lon="9.937659336150489"><ele>379.0</ele><time>2026-05-02T14:40:07.998Z</time></trkpt><trkpt lat="44.770454665856306" lon="9.937590780372767"><ele>379.0</ele><time>2026-05-02T14:40:10.998Z</time></trkpt><trkpt lat="44.77038215982634" lon="9.937579595727257"><ele>379.0</ele><time>2026-05-02T14:40:13.998Z</time></trkpt><trkpt lat="44.770286009040525" lon="9.937609065206136"><ele>379.0</ele><time>2026-05-02T14:40:16.998Z</time></trkpt><trkpt lat="44.77021869455982" lon="9.937679826306242"><ele>379.0</ele><time>2026-05-02T14:40:19.998Z</time></trkpt><trkpt lat="44.77017148852156" lon="9.937783472078527"><ele>379.0</ele><time>2026-05-02T14:40:21.998Z</time></trkpt><trkpt lat="44.770158491364626" lon="9.937874849822782"><ele>379.0</ele><time>2026-05-02T14:40:23.998Z</time></trkpt><trkpt lat="44.77016331492193" lon="9.937983512505701"><ele>379.0</ele><time>2026-05-02T14:40:25.998Z</time></trkpt><trkpt lat="44.77019127918334" lon="9.93807603968591"><ele>379.0</ele><time>2026-05-02T14:40:27.998Z</time></trkpt><trkpt lat="44.770246696256585" lon="9.938179621734612"><ele>379.0</ele><time>2026-05-02T14:40:30.998Z</time></trkpt><trkpt lat="44.77032160623307" lon="9.938263757698767"><ele>379.0</ele><time>2026-05-02T14:40:33.998Z</time></trkpt><trkpt lat="44.77040049269535" lon="9.938343669350544"><ele>380.5714285714286</ele><time>2026-05-02T14:40:37Z</time></trkpt><trkpt lat="44.77046939701377" lon="9.938403196056965"><ele>382.14285714285717</ele><time>2026-05-02T14:40:40Z</time></trkpt><trkpt lat="44.77052124405616" lon="9.93845541463046"><ele>383.7142857142857</ele><time>2026-05-02T14:40:42Z</time></trkpt><trkpt lat="44.77058663612742" lon="9.938518582607148"><ele>385.28571428571433</ele><time>2026-05-02T14:40:45Z</time></trkpt><trkpt lat="44.77063955504048" lon="9.938567140970433"><ele>386.85714285714283</ele><time>2026-05-02T14:40:48Z</time></trkpt><trkpt lat="44.77069402124123" lon="9.93861730170753"><ele>388.42857142857144</ele><time>2026-05-02T14:40:50Z</time></trkpt><trkpt lat="44.7707581175984" lon="9.938677670495965"><ele>390.0</ele><time>2026-05-02T14:40:53Z</time></trkpt><trkpt lat="44.77082312825829" lon="9.938709644112254"><ele>390.0</ele><time>2026-05-02T14:40:56Z</time></trkpt><trkpt lat="44.77089655981549" lon="9.938729757198285"><ele>390.0</ele><time>2026-05-02T14:40:59Z</time></trkpt><trkpt lat="44.77096961457201" lon="9.93872420641421"><ele>390.0</ele><time>2026-05-02T14:41:02Z</time></trkpt><trkpt lat="44.77104097505175" lon="9.938707043401905"><ele>390.0</ele><time>2026-05-02T14:41:05Z</time></trkpt><trkpt lat="44.7711116113823" lon="9.938687947801135"><ele>390.0</ele><time>2026-05-02T14:41:08Z</time></trkpt><trkpt lat="44.771183424318096" lon="9.938667563294967"><ele>390.0</ele><time>2026-05-02T14:41:10.999Z</time></trkpt><trkpt lat="44.771257379740646" lon="9.938647354759789"><ele>390.0</ele><time>2026-05-02T14:41:13.999Z</time></trkpt><trkpt lat="44.77134458415065" lon="9.93862663031098"><ele>390.1428571428571</ele><time>2026-05-02T14:41:16.999Z</time></trkpt><trkpt lat="44.77141083676566" lon="9.938621688107581"><ele>390.2857142857143</ele><time>2026-05-02T14:41:19.999Z</time></trkpt><trkpt lat="44.77147408009526" lon="9.938642002425743"><ele>390.42857142857144</ele><time>2026-05-02T14:41:22.999Z</time></trkpt><trkpt lat="44.771537652656384" lon="9.938689057683705"><ele>390.57142857142856</ele><time>2026-05-02T14:41:25.999Z</time></trkpt><trkpt lat="44.77159787661186" lon="9.938746161034139"><ele>390.7142857142857</ele><time>2026-05-02T14:41:28.999Z</time></trkpt><trkpt lat="44.7716498959593" lon="9.938817292057541"><ele>390.85714285714283</ele><time>2026-05-02T14:41:31.999Z</time></trkpt><trkpt lat="44.77170059696697" lon="9.938906538274727"><ele>391.0</ele><time>2026-05-02T14:41:34.999Z</time></trkpt><trkpt lat="44.771732781408375" lon="9.939003414267237"><ele>390.99999999999994</ele><time>2026-05-02T14:41:38.999Z</time></trkpt><trkpt lat="44.77174884756165" lon="9.939096826553854"><ele>391.0</ele><time>2026-05-02T14:41:41.999Z</time></trkpt><trkpt lat="44.77175191032431" lon="9.939211424895664"><ele>391.0</ele><time>2026-05-02T14:41:44.999Z</time></trkpt><trkpt lat="44.77173956364486" lon="9.939318956040754"><ele>391.0</ele><time>2026-05-02T14:41:48.999Z</time></trkpt><trkpt lat="44.771718021856955" lon="9.939409065001195"><ele>391.0</ele><time>2026-05-02T14:41:51.999Z</time></trkpt><trkpt lat="44.77168596712847" lon="9.939488984276299"><ele>390.99999999999994</ele><time>2026-05-02T14:41:54.999Z</time></trkpt><trkpt lat="44.771641192916185" lon="9.939561975190578"><ele>391.0</ele><time>2026-05-02T14:41:57.999Z</time></trkpt><trkpt lat="44.77158561410516" lon="9.93962236911058"><ele>389.1428571428571</ele><time>2026-05-02T14:42:00.999Z</time></trkpt><trkpt lat="44.7715250626631" lon="9.939671381409175"><ele>387.2857142857143</ele><time>2026-05-02T14:42:03.998Z</time></trkpt><trkpt lat="44.771451126159555" lon="9.939714296645185"><ele>385.42857142857144</ele><time>2026-05-02T14:42:06.998Z</time></trkpt><trkpt lat="44.77137973586327" lon="9.939754211890039"><ele>383.57142857142856</ele><time>2026-05-02T14:42:10.998Z</time></trkpt><trkpt lat="44.771316326307456" lon="9.939786929579096"><ele>381.7142857142857</ele><time>2026-05-02T14:42:13.998Z</time></trkpt><trkpt lat="44.77124872492112" lon="9.939820138030013"><ele>379.85714285714283</ele><time>2026-05-02T14:42:16.998Z</time></trkpt><trkpt lat="44.77118618957598" lon="9.939864392297322"><ele>378.0</ele><time>2026-05-02T14:42:19.998Z</time></trkpt><trkpt lat="44.77110719246526" lon="9.939915330440893"><ele>378.0</ele><time>2026-05-02T14:42:23.998Z</time></trkpt><trkpt lat="44.77104429142239" lon="9.939963630137601"><ele>378.0</ele><time>2026-05-02T14:42:26.998Z</time></trkpt><trkpt lat="44.770983361332156" lon="9.940015532322617"><ele>378.0</ele><time>2026-05-02T14:42:29.998Z</time></trkpt><trkpt lat="44.77091400628597" lon="9.940072615999753"><ele>378.0</ele><time>2026-05-02T14:42:32.998Z</time></trkpt><trkpt lat="44.77085355338096" lon="9.94012228882936"><ele>378.0</ele><time>2026-05-02T14:42:35.998Z</time></trkpt><trkpt lat="44.77077927858876" lon="9.940179992074832"><ele>378.0</ele><time>2026-05-02T14:42:39.998Z</time></trkpt><trkpt lat="44.770712595201275" lon="9.940221403178377"><ele>380.14285714285717</ele><time>2026-05-02T14:42:43Z</time></trkpt><trkpt lat="44.77064406452184" lon="9.940256012258398"><ele>382.2857142857143</ele><time>2026-05-02T14:42:46Z</time></trkpt><trkpt lat="44.77056665875833" lon="9.940285852602402"><ele>384.42857142857144</ele><time>2026-05-02T14:42:50Z</time></trkpt><trkpt lat="44.77049636557645" lon="9.940307031451768"><ele>386.57142857142856</ele><time>2026-05-02T14:42:53Z</time></trkpt><trkpt lat="44.77042903705" lon="9.940331755615379"><ele>388.7142857142857</ele><time>2026-05-02T14:42:56Z</time></trkpt><trkpt lat="44.77035415061274" lon="9.940383328675011"><ele>390.8571428571429</ele><time>2026-05-02T14:42:59Z</time></trkpt><trkpt lat="44.77030353419411" lon="9.940436216993154"><ele>393.0</ele><time>2026-05-02T14:43:02Z</time></trkpt><trkpt lat="44.770248893449235" lon="9.940502481575699"><ele>393.0</ele><time>2026-05-02T14:43:05Z</time></trkpt><trkpt lat="44.77020095180469" lon="9.940586275670775"><ele>393.0</ele><time>2026-05-02T14:43:08Z</time></trkpt><trkpt lat="44.77015957013485" lon="9.940674932253197"><ele>393.0</ele><time>2026-05-02T14:43:11Z</time></trkpt><trkpt lat="44.7701247524886" lon="9.940768508033516"><ele>393.0</ele><time>2026-05-02T14:43:13.999Z</time></trkpt><trkpt lat="44.77008961858051" lon="9.940863196019391"><ele>393.0</ele><time>2026-05-02T14:43:16.999Z</time></trkpt><trkpt lat="44.77005133418945" lon="9.940955680186832"><ele>393.0</ele><time>2026-05-02T14:43:19.999Z</time></trkpt><trkpt lat="44.7700195057318" lon="9.941046583846303"><ele>396.1666666666667</ele><time>2026-05-02T14:43:22.999Z</time></trkpt><trkpt lat="44.769982769929484" lon="9.941139635975258"><ele>399.33333333333337</ele><time>2026-05-02T14:43:25.999Z</time></trkpt><trkpt lat="44.769939091320936" lon="9.941227314094288"><ele>402.5</ele><time>2026-05-02T14:43:28.999Z</time></trkpt><trkpt lat="44.76988676008876" lon="9.94131155728458"><ele>405.6666666666667</ele><time>2026-05-02T14:43:31.999Z</time></trkpt><trkpt lat="44.76983509486625" lon="9.941389369726068"><ele>408.83333333333337</ele><time>2026-05-02T14:43:34.999Z</time></trkpt><trkpt lat="44.76977549226803" lon="9.941460849542134"><ele>412.0</ele><time>2026-05-02T14:43:37.999Z</time></trkpt><trkpt lat="44.76971522925177" lon="9.941526562915769"><ele>412.00000000000006</ele><time>2026-05-02T14:43:40.999Z</time></trkpt><trkpt lat="44.76965006414145" lon="9.941579674912212"><ele>412.0</ele><time>2026-05-02T14:43:43.999Z</time></trkpt><trkpt lat="44.769583600967046" lon="9.941621836132615"><ele>412.0</ele><time>2026-05-02T14:43:46.999Z</time></trkpt><trkpt lat="44.76951333649366" lon="9.941656153896112"><ele>412.0</ele><time>2026-05-02T14:43:49.999Z</time></trkpt><trkpt lat="44.769443356915126" lon="9.941677541067344"><ele>412.00000000000006</ele><time>2026-05-02T14:43:52.999Z</time></trkpt><trkpt lat="44.7693633600526" lon="9.941687834433232"><ele>412.0</ele><time>2026-05-02T14:43:55.999Z</time></trkpt><trkpt lat="44.769286756100904" lon="9.941686507196462"><ele>412.4285714285714</ele><time>2026-05-02T14:43:58.999Z</time></trkpt><trkpt lat="44.769214753312205" lon="9.941674781069363"><ele>412.85714285714283</ele><time>2026-05-02T14:44:01.999Z</time></trkpt><trkpt lat="44.76914284823734" lon="9.941651692350446"><ele>413.2857142857143</ele><time>2026-05-02T14:44:04.999Z</time></trkpt><trkpt lat="44.769070621405554" lon="9.941629219307805"><ele>413.71428571428567</ele><time>2026-05-02T14:44:07.998Z</time></trkpt><trkpt lat="44.76900136320644" lon="9.941599232948189"><ele>414.14285714285717</ele><time>2026-05-02T14:44:10.998Z</time></trkpt><trkpt lat="44.76893210675684" lon="9.941565845966815"><ele>414.57142857142856</ele><time>2026-05-02T14:44:13.998Z</time></trkpt><trkpt lat="44.76886909426193" lon="9.941521602377545"><ele>415.0</ele><time>2026-05-02T14:44:16.998Z</time></trkpt><trkpt lat="44.768807619458855" lon="9.941470044871293"><ele>415.0</ele><time>2026-05-02T14:44:19.998Z</time></trkpt><trkpt lat="44.76874668384459" lon="9.94140716047421"><ele>415.0</ele><time>2026-05-02T14:44:22.998Z</time></trkpt><trkpt lat="44.768698202521534" lon="9.941326200598343"><ele>415.0</ele><time>2026-05-02T14:44:25.998Z</time></trkpt><trkpt lat="44.76866333693937" lon="9.941235866845366"><ele>415.0</ele><time>2026-05-02T14:44:28.998Z</time></trkpt><trkpt lat="44.768644150821366" lon="9.941138183014294"><ele>415.0</ele><time>2026-05-02T14:44:31.998Z</time></trkpt><trkpt lat="44.768622445640545" lon="9.941038157248235"><ele>415.0</ele><time>2026-05-02T14:44:34.998Z</time></trkpt><trkpt lat="44.768603398288704" lon="9.940938479310772"><ele>415.0</ele><time>2026-05-02T14:44:37.998Z</time></trkpt><trkpt lat="44.768575113806975" lon="9.940841706433655"><ele>413.6666666666667</ele><time>2026-05-02T14:44:40.998Z</time></trkpt><trkpt lat="44.7685363895621" lon="9.940752395662905"><ele>412.33333333333337</ele><time>2026-05-02T14:44:43.998Z</time></trkpt><trkpt lat="44.768491815676626" lon="9.94066430180597"><ele>411.0</ele><time>2026-05-02T14:44:46.998Z</time></trkpt><trkpt lat="44.7684415647071" lon="9.940579415895494"><ele>409.66666666666663</ele><time>2026-05-02T14:44:50Z</time></trkpt><trkpt lat="44.768386512969364" lon="9.940519422464705"><ele>408.3333333333333</ele><time>2026-05-02T14:44:53Z</time></trkpt><trkpt lat="44.76833130807344" lon="9.940455568227131"><ele>407.0</ele><time>2026-05-02T14:44:56Z</time></trkpt><trkpt lat="44.76825782724862" lon="9.940406971307246"><ele>409.99999999999994</ele><time>2026-05-02T14:44:59Z</time></trkpt><trkpt lat="44.768187616010515" lon="9.940361732858932"><ele>413.0</ele><time>2026-05-02T14:45:02Z</time></trkpt><trkpt lat="44.76810953871618" lon="9.940332197148251"><ele>416.0</ele><time>2026-05-02T14:45:05Z</time></trkpt><trkpt lat="44.76803284413899" lon="9.9403099501782"><ele>419.0</ele><time>2026-05-02T14:45:08Z</time></trkpt><trkpt lat="44.76795489495182" lon="9.940291698066147"><ele>421.99999999999994</ele><time>2026-05-02T14:45:11Z</time></trkpt><trkpt lat="44.767875367240684" lon="9.940279190488706"><ele>425.0</ele><time>2026-05-02T14:45:14Z</time></trkpt><trkpt lat="44.76779902478967" lon="9.94028432151621"><ele>424.99999999999994</ele><time>2026-05-02T14:45:16.999Z</time></trkpt><trkpt lat="44.7677062360004" lon="9.940290682540425"><ele>425.0</ele><time>2026-05-02T14:45:19.999Z</time></trkpt><trkpt lat="44.76763556752781" lon="9.940306135116963"><ele>425.0</ele><time>2026-05-02T14:45:22.999Z</time></trkpt><trkpt lat="44.76755857254371" lon="9.940325109996678"><ele>425.0</ele><time>2026-05-02T14:45:25.999Z</time></trkpt><trkpt lat="44.767481301870895" lon="9.940340588125919"><ele>424.99999999999994</ele><time>2026-05-02T14:45:28.999Z</time></trkpt><trkpt lat="44.76739896855775" lon="9.940359316221429"><ele>425.0</ele><time>2026-05-02T14:45:31.999Z</time></trkpt><trkpt lat="44.76731689133746" lon="9.940376862184987"><ele>425.66666666666663</ele><time>2026-05-02T14:45:34.999Z</time></trkpt><trkpt lat="44.7672324638797" lon="9.940391710981782"><ele>426.3333333333333</ele><time>2026-05-02T14:45:37.999Z</time></trkpt><trkpt lat="44.7671590921645" lon="9.940401820510209"><ele>427.0</ele><time>2026-05-02T14:45:40.999Z</time></trkpt><trkpt lat="44.76708342522767" lon="9.94042068901015"><ele>427.66666666666663</ele><time>2026-05-02T14:45:43.999Z</time></trkpt><trkpt lat="44.76700787580776" lon="9.940432468986172"><ele>428.3333333333333</ele><time>2026-05-02T14:45:46.999Z</time></trkpt><trkpt lat="44.76693295068106" lon="9.94045105567821"><ele>429.0</ele><time>2026-05-02T14:45:49.999Z</time></trkpt><trkpt lat="44.76685544067751" lon="9.94047204832217"><ele>429.42857142857144</ele><time>2026-05-02T14:45:52.999Z</time></trkpt><trkpt lat="44.766782872380546" lon="9.940495117893976"><ele>429.8571428571429</ele><time>2026-05-02T14:45:55.999Z</time></trkpt><trkpt lat="44.76670298593961" lon="9.940519689929893"><ele>430.2857142857143</ele><time>2026-05-02T14:45:58.999Z</time></trkpt><trkpt lat="44.766638443565895" lon="9.940547537025264"><ele>430.7142857142857</ele><time>2026-05-02T14:46:01.999Z</time></trkpt><trkpt lat="44.76656389111914" lon="9.940573421645135"><ele>431.1428571428571</ele><time>2026-05-02T14:46:04.999Z</time></trkpt><trkpt lat="44.76649331544845" lon="9.94060128942815"><ele>431.57142857142856</ele><time>2026-05-02T14:46:07.999Z</time></trkpt><trkpt lat="44.76642038615015" lon="9.94063023681684"><ele>432.0</ele><time>2026-05-02T14:46:10.998Z</time></trkpt><trkpt lat="44.766347442065474" lon="9.940662726715617"><ele>432.0</ele><time>2026-05-02T14:46:13.998Z</time></trkpt><trkpt lat="44.7662780174106" lon="9.940696817334747"><ele>432.0</ele><time>2026-05-02T14:46:16.998Z</time></trkpt><trkpt lat="44.7662087961815" lon="9.94072789344496"><ele>432.0</ele><time>2026-05-02T14:46:19.998Z</time></trkpt><trkpt lat="44.76614286938025" lon="9.940760173233997"><ele>432.0</ele><time>2026-05-02T14:46:22.998Z</time></trkpt><trkpt lat="44.766078164135564" lon="9.940792336418673"><ele>432.0</ele><time>2026-05-02T14:46:25.998Z</time></trkpt><trkpt lat="44.76600378706475" lon="9.940816516055747"><ele>432.0</ele><time>2026-05-02T14:46:29.998Z</time></trkpt><trkpt lat="44.76594063118581" lon="9.940827951253103"><ele>432.0</ele><time>2026-05-02T14:46:45.998Z</time></trkpt><trkpt lat="44.76587856627547" lon="9.94088162252628"><ele>432.0</ele><time>2026-05-02T14:46:49.998Z</time></trkpt><trkpt lat="44.76579877350879" lon="9.940906277608873"><ele>432.0</ele><time>2026-05-02T14:46:54Z</time></trkpt><trkpt lat="44.765737695292366" lon="9.9409354799944"><ele>432.0</ele><time>2026-05-02T14:46:57Z</time></trkpt><trkpt lat="44.765670372220704" lon="9.940970288337246"><ele>432.0</ele><time>2026-05-02T14:47:00Z</time></trkpt><trkpt lat="44.76561068532848" lon="9.941011223963026"><ele>432.0</ele><time>2026-05-02T14:47:03Z</time></trkpt><trkpt lat="44.76553980844683" lon="9.941056901873143"><ele>432.0</ele><time>2026-05-02T14:47:06Z</time></trkpt><trkpt lat="44.7654771529361" lon="9.94110451376547"><ele>432.0</ele><time>2026-05-02T14:47:09Z</time></trkpt><trkpt lat="44.7654057825444" lon="9.941158439681404"><ele>432.0</ele><time>2026-05-02T14:47:12Z</time></trkpt><trkpt lat="44.765346264582355" lon="9.941202272860087"><ele>432.0</ele><time>2026-05-02T14:47:15Z</time></trkpt><trkpt lat="44.765281330108074" lon="9.941252752199327"><ele>432.0</ele><time>2026-05-02T14:47:17.999Z</time></trkpt><trkpt lat="44.765217750542845" lon="9.94130590555895"><ele>432.0</ele><time>2026-05-02T14:47:20.999Z</time></trkpt><trkpt lat="44.76514346848007" lon="9.941359483801204"><ele>432.0</ele><time>2026-05-02T14:47:23.999Z</time></trkpt><trkpt lat="44.76507605335748" lon="9.941399794140857"><ele>432.0</ele><time>2026-05-02T14:47:26.999Z</time></trkpt><trkpt lat="44.76501432579568" lon="9.941446570890498"><ele>432.0</ele><time>2026-05-02T14:47:29.999Z</time></trkpt><trkpt lat="44.764949262368766" lon="9.94148528592909"><ele>432.85714285714283</ele><time>2026-05-02T14:47:32.999Z</time></trkpt><trkpt lat="44.764886487443405" lon="9.941530369881535"><ele>433.71428571428567</ele><time>2026-05-02T14:47:35.999Z</time></trkpt><trkpt lat="44.76482402159632" lon="9.94158313601425"><ele>434.57142857142856</ele><time>2026-05-02T14:47:38.999Z</time></trkpt><trkpt lat="44.764762084371476" lon="9.941626033181445"><ele>435.42857142857144</ele><time>2026-05-02T14:47:41.999Z</time></trkpt><trkpt lat="44.76470334790144" lon="9.941672547788272"><ele>436.2857142857143</ele><time>2026-05-02T14:47:44.999Z</time></trkpt><trkpt lat="44.764640956206456" lon="9.941716508970613"><ele>437.14285714285717</ele><time>2026-05-02T14:47:47.999Z</time></trkpt><trkpt lat="44.764565747721925" lon="9.9417730541629"><ele>438.0</ele><time>2026-05-02T14:47:51.999Z</time></trkpt><trkpt lat="44.764509266235855" lon="9.941814791400542"><ele>438.0</ele><time>2026-05-02T14:47:54.999Z</time></trkpt><trkpt lat="44.76443607342649" lon="9.941870146551373"><ele>438.0</ele><time>2026-05-02T14:47:58.999Z</time></trkpt><trkpt lat="44.76437311395808" lon="9.941920834878866"><ele>438.0</ele><time>2026-05-02T14:48:02.999Z</time></trkpt><trkpt lat="44.76430708885951" lon="9.941982072826557"><ele>438.0</ele><time>2026-05-02T14:48:06.999Z</time></trkpt><trkpt lat="44.76423433787628" lon="9.942032864405656"><ele>438.0</ele><time>2026-05-02T14:48:10.999Z</time></trkpt><trkpt lat="44.76417887270867" lon="9.942078897730942"><ele>438.0</ele><time>2026-05-02T14:48:13.998Z</time></trkpt><trkpt lat="44.76410736710677" lon="9.94213822446237"><ele>440.8333333333333</ele><time>2026-05-02T14:48:17.998Z</time></trkpt><trkpt lat="44.76404016669895" lon="9.94220312765596"><ele>443.66666666666663</ele><time>2026-05-02T14:48:21.998Z</time></trkpt><trkpt lat="44.763974145529424" lon="9.942275790515207"><ele>446.5</ele><time>2026-05-02T14:48:25.998Z</time></trkpt><trkpt lat="44.763920115168155" lon="9.942329174082342"><ele>449.3333333333333</ele><time>2026-05-02T14:48:28.998Z</time></trkpt><trkpt lat="44.76385706931858" lon="9.942403780008977"><ele>452.16666666666663</ele><time>2026-05-02T14:48:32.998Z</time></trkpt><trkpt lat="44.76379852232892" lon="9.942461134550241"><ele>455.0</ele><time>2026-05-02T14:48:35.998Z</time></trkpt><trkpt lat="44.763736471302735" lon="9.94250952676016"><ele>454.57142857142856</ele><time>2026-05-02T14:48:38.998Z</time></trkpt><trkpt lat="44.76367209950122" lon="9.94254989865012"><ele>454.1428571428571</ele><time>2026-05-02T14:48:41.998Z</time></trkpt><trkpt lat="44.76361429074922" lon="9.942592761973993"><ele>453.7142857142857</ele><time>2026-05-02T14:48:44.998Z</time></trkpt><trkpt lat="44.76355530356444" lon="9.942625998331861"><ele>453.2857142857143</ele><time>2026-05-02T14:48:47.998Z</time></trkpt><trkpt lat="44.76349546011812" lon="9.942657499025026"><ele>452.85714285714283</ele><time>2026-05-02T14:48:50.998Z</time></trkpt><trkpt lat="44.763435024209784" lon="9.94268386497635"><ele>452.42857142857144</ele><time>2026-05-02T14:48:53.998Z</time></trkpt><trkpt lat="44.763352940031936" lon="9.94270201572624"><ele>452.0</ele><time>2026-05-02T14:48:57.998Z</time></trkpt><trkpt lat="44.76327109541032" lon="9.942701344977493"><ele>453.99999999999994</ele><time>2026-05-02T14:49:02Z</time></trkpt><trkpt lat="44.76320802902473" lon="9.942633118719725"><ele>456.0</ele><time>2026-05-02T14:49:06Z</time></trkpt><trkpt lat="44.76318987616957" lon="9.942526357812145"><ele>458.0</ele><time>2026-05-02T14:49:10Z</time></trkpt><trkpt lat="44.76322012488228" lon="9.94242268345379"><ele>460.0</ele><time>2026-05-02T14:49:14Z</time></trkpt><trkpt lat="44.76325261607576" lon="9.942323350714718"><ele>461.99999999999994</ele><time>2026-05-02T14:49:18Z</time></trkpt><trkpt lat="44.76328682046008" lon="9.942217190780921"><ele>464.0</ele><time>2026-05-02T14:49:21.999Z</time></trkpt><trkpt lat="44.76332738282174" lon="9.942117880942051"><ele>464.3333333333333</ele><time>2026-05-02T14:49:25.999Z</time></trkpt><trkpt lat="44.76337088263426" lon="9.942023830911282"><ele>464.66666666666663</ele><time>2026-05-02T14:49:29.999Z</time></trkpt><trkpt lat="44.763415719191364" lon="9.941925388408162"><ele>465.0</ele><time>2026-05-02T14:49:33.999Z</time></trkpt><trkpt lat="44.763462990875496" lon="9.94182993396807"><ele>465.33333333333337</ele><time>2026-05-02T14:49:37.999Z</time></trkpt><trkpt lat="44.76351238487834" lon="9.9417352197773"><ele>465.6666666666667</ele><time>2026-05-02T14:49:41.999Z</time></trkpt><trkpt lat="44.76355238524393" lon="9.941662036082024"><ele>466.0</ele><time>2026-05-02T14:49:44.999Z</time></trkpt><trkpt lat="44.76359029415368" lon="9.941583490664451"><ele>465.28571428571433</ele><time>2026-05-02T14:49:47.999Z</time></trkpt><trkpt lat="44.76364072122111" lon="9.941486309880782"><ele>464.57142857142856</ele><time>2026-05-02T14:49:51.999Z</time></trkpt><trkpt lat="44.763685171338366" lon="9.941397134513442"><ele>463.8571428571429</ele><time>2026-05-02T14:49:54.999Z</time></trkpt><trkpt lat="44.76372239885831" lon="9.941325033677854"><ele>463.14285714285717</ele><time>2026-05-02T14:49:57.999Z</time></trkpt><trkpt lat="44.76375722904779" lon="9.941248555521534"><ele>462.42857142857144</ele><time>2026-05-02T14:50:00.999Z</time></trkpt><trkpt lat="44.76380223158349" lon="9.941168824113234"><ele>461.7142857142857</ele><time>2026-05-02T14:50:03.999Z</time></trkpt><trkpt lat="44.76384938413896" lon="9.941073279208064"><ele>461.0</ele><time>2026-05-02T14:50:07.999Z</time></trkpt><trkpt lat="44.76388609771844" lon="9.940995730777194"><ele>461.0</ele><time>2026-05-02T14:50:10.999Z</time></trkpt><trkpt lat="44.7639214600923" lon="9.940910679519618"><ele>461.00000000000006</ele><time>2026-05-02T14:50:13.999Z</time></trkpt><trkpt lat="44.7639520439297" lon="9.940821878707771"><ele>461.0</ele><time>2026-05-02T14:50:16.998Z</time></trkpt><trkpt lat="44.76397818362157" lon="9.940731694372401"><ele>461.0</ele><time>2026-05-02T14:50:19.998Z</time></trkpt><trkpt lat="44.76399927689419" lon="9.940616203599397"><ele>461.00000000000006</ele><time>2026-05-02T14:50:22.998Z</time></trkpt><trkpt lat="44.763986307243236" lon="9.940519768731683"><ele>461.0</ele><time>2026-05-02T14:50:25.998Z</time></trkpt><trkpt lat="44.76391797379275" lon="9.94047016289371"><ele>461.0</ele><time>2026-05-02T14:50:29.998Z</time></trkpt><trkpt lat="44.76385595173081" lon="9.940508404545183"><ele>461.0</ele><time>2026-05-02T14:50:32.998Z</time></trkpt><trkpt lat="44.763809232752166" lon="9.940583409285084"><ele>461.00000000000006</ele><time>2026-05-02T14:50:35.998Z</time></trkpt><trkpt lat="44.76376657553481" lon="9.940668539836885"><ele>461.0</ele><time>2026-05-02T14:50:38.998Z</time></trkpt><trkpt lat="44.76372587602883" lon="9.940736411330011"><ele>461.0</ele><time>2026-05-02T14:50:41.998Z</time></trkpt><trkpt lat="44.76367624956715" lon="9.94079855340431"><ele>461.00000000000006</ele><time>2026-05-02T14:50:44.998Z</time></trkpt><trkpt lat="44.76359652268265" lon="9.9408768310187"><ele>461.0</ele><time>2026-05-02T14:50:47.998Z</time></trkpt><trkpt lat="44.7635324796572" lon="9.940920626120448"><ele>461.0</ele><time>2026-05-02T14:50:50.998Z</time></trkpt><trkpt lat="44.76346160042307" lon="9.940965196943134"><ele>463.42857142857144</ele><time>2026-05-02T14:50:53.998Z</time></trkpt><trkpt lat="44.763389355188856" lon="9.941007839961866"><ele>465.8571428571429</ele><time>2026-05-02T14:50:56.998Z</time></trkpt><trkpt lat="44.76331961287048" lon="9.941045561889215"><ele>468.28571428571433</ele><time>2026-05-02T14:50:59.998Z</time></trkpt><trkpt lat="44.76324936870247" lon="9.941090284029633"><ele>470.7142857142858</ele><time>2026-05-02T14:51:02.998Z</time></trkpt><trkpt lat="44.763176755622865" lon="9.941118467555656"><ele>473.14285714285717</ele><time>2026-05-02T14:51:06Z</time></trkpt><trkpt lat="44.76311126731786" lon="9.94112343302285"><ele>475.57142857142867</ele><time>2026-05-02T14:51:08Z</time></trkpt><trkpt lat="44.76303871876148" lon="9.941109981803226"><ele>478.00000000000006</ele><time>2026-05-02T14:51:11Z</time></trkpt><trkpt lat="44.762969985888724" lon="9.941078446929167"><ele>478.00000000000006</ele><time>2026-05-02T14:51:14Z</time></trkpt><trkpt lat="44.762895712531204" lon="9.941040606388025"><ele>478.0</ele><time>2026-05-02T14:51:17Z</time></trkpt><trkpt lat="44.762821541295786" lon="9.941001133610852"><ele>478.0</ele><time>2026-05-02T14:51:20Z</time></trkpt><trkpt lat="44.762747632284075" lon="9.940973538757037"><ele>478.0</ele><time>2026-05-02T14:51:23Z</time></trkpt><trkpt lat="44.762683354632614" lon="9.940977225303346"><ele>478.00000000000006</ele><time>2026-05-02T14:51:25.999Z</time></trkpt><trkpt lat="44.762611529159564" lon="9.941012315620142"><ele>478.0</ele><time>2026-05-02T14:51:28.999Z</time></trkpt><trkpt lat="44.76254709431473" lon="9.94107886484803"><ele>480.1666666666667</ele><time>2026-05-02T14:51:31.999Z</time></trkpt><trkpt lat="44.76249596955172" lon="9.94115789331684"><ele>482.33333333333337</ele><time>2026-05-02T14:51:34.999Z</time></trkpt><trkpt lat="44.76244908844527" lon="9.94123792386034"><ele>484.5</ele><time>2026-05-02T14:51:37.999Z</time></trkpt><trkpt lat="44.762404538955685" lon="9.941310865066345"><ele>486.66666666666663</ele><time>2026-05-02T14:51:40.999Z</time></trkpt><trkpt lat="44.76234554258334" lon="9.94139969783581"><ele>488.8333333333333</ele><time>2026-05-02T14:51:44.999Z</time></trkpt><trkpt lat="44.76229759790133" lon="9.941469554012006"><ele>491.0</ele><time>2026-05-02T14:51:47.999Z</time></trkpt><trkpt lat="44.76223754132832" lon="9.941536085768215"><ele>490.99999999999994</ele><time>2026-05-02T14:51:50.999Z</time></trkpt><trkpt lat="44.762165945878856" lon="9.941586147114261"><ele>491.0</ele><time>2026-05-02T14:51:54.999Z</time></trkpt><trkpt lat="44.76209754262797" lon="9.9416090293677"><ele>491.0</ele><time>2026-05-02T14:51:57.999Z</time></trkpt><trkpt lat="44.762025431407565" lon="9.941608231364103"><ele>491.0</ele><time>2026-05-02T14:52:00.999Z</time></trkpt><trkpt lat="44.7619531961178" lon="9.941601145218113"><ele>490.99999999999994</ele><time>2026-05-02T14:52:03.999Z</time></trkpt><trkpt lat="44.76187637966662" lon="9.941594710043306"><ele>491.0</ele><time>2026-05-02T14:52:06.999Z</time></trkpt><trkpt lat="44.76178602620483" lon="9.941594483948734"><ele>491.57142857142856</ele><time>2026-05-02T14:52:09.999Z</time></trkpt><trkpt lat="44.76170395032482" lon="9.941611735506955"><ele>492.1428571428571</ele><time>2026-05-02T14:52:12.999Z</time></trkpt><trkpt lat="44.76163781656269" lon="9.941653369397205"><ele>492.71428571428567</ele><time>2026-05-02T14:52:15.999Z</time></trkpt><trkpt lat="44.76157086472268" lon="9.941694076812798"><ele>493.2857142857142</ele><time>2026-05-02T14:52:18.999Z</time></trkpt><trkpt lat="44.76151162436368" lon="9.941742825123262"><ele>493.85714285714283</ele><time>2026-05-02T14:52:21.998Z</time></trkpt><trkpt lat="44.76144754137137" lon="9.94180647681623"><ele>494.42857142857133</ele><time>2026-05-02T14:52:24.998Z</time></trkpt><trkpt lat="44.76139168129316" lon="9.941868809250938"><ele>494.99999999999994</ele><time>2026-05-02T14:52:27.998Z</time></trkpt><trkpt lat="44.76133626658348" lon="9.941947499462742"><ele>495.0</ele><time>2026-05-02T14:52:30.998Z</time></trkpt><trkpt lat="44.76128230714006" lon="9.942032536733905"><ele>495.0</ele><time>2026-05-02T14:52:33.998Z</time></trkpt><trkpt lat="44.76123586095759" lon="9.942119852113699"><ele>495.0</ele><time>2026-05-02T14:52:36.998Z</time></trkpt><trkpt lat="44.761190536361404" lon="9.942206768447342"><ele>495.0</ele><time>2026-05-02T14:52:39.998Z</time></trkpt><trkpt lat="44.76114544024211" lon="9.942290915372702"><ele>495.0</ele><time>2026-05-02T14:52:42.998Z</time></trkpt><trkpt lat="44.761098342863555" lon="9.942378114834494"><ele>495.0</ele><time>2026-05-02T14:52:45.998Z</time></trkpt><trkpt lat="44.76106178265583" lon="9.942458179982069"><ele>494.8571428571428</ele><time>2026-05-02T14:52:48.998Z</time></trkpt><trkpt lat="44.76102212978522" lon="9.942550923622486"><ele>494.71428571428567</ele><time>2026-05-02T14:52:51.998Z</time></trkpt><trkpt lat="44.76098996852922" lon="9.94263532455895"><ele>494.57142857142856</ele><time>2026-05-02T14:52:54.998Z</time></trkpt><trkpt lat="44.76097099736728" lon="9.942728362489653"><ele>494.4285714285714</ele><time>2026-05-02T14:52:57.998Z</time></trkpt><trkpt lat="44.760964718988205" lon="9.942847533504878"><ele>494.2857142857142</ele><time>2026-05-02T14:53:00.998Z</time></trkpt><trkpt lat="44.76098450106276" lon="9.942945876198694"><ele>494.14285714285717</ele><time>2026-05-02T14:53:03.998Z</time></trkpt><trkpt lat="44.76100741806062" lon="9.943041670721787"><ele>494.0</ele><time>2026-05-02T14:53:05.998Z</time></trkpt><trkpt lat="44.7610345250125" lon="9.943145525518483"><ele>494.0</ele><time>2026-05-02T14:53:08.998Z</time></trkpt><trkpt lat="44.76105724279522" lon="9.943243729245635"><ele>494.0</ele><time>2026-05-02T14:53:12Z</time></trkpt><trkpt lat="44.76106779313445" lon="9.943357889193205"><ele>494.0</ele><time>2026-05-02T14:53:15Z</time></trkpt><trkpt lat="44.761064384292766" lon="9.943468763642691"><ele>494.0</ele><time>2026-05-02T14:53:18Z</time></trkpt><trkpt lat="44.7610547413188" lon="9.943562572040467"><ele>494.0</ele><time>2026-05-02T14:53:20Z</time></trkpt><trkpt lat="44.761039797733105" lon="9.943662412540723"><ele>494.0</ele><time>2026-05-02T14:53:23Z</time></trkpt><trkpt lat="44.76102084043168" lon="9.943747723866606"><ele>494.0</ele><time>2026-05-02T14:53:25Z</time></trkpt><trkpt lat="44.760994701118456" lon="9.943845878876242"><ele>496.28571428571433</ele><time>2026-05-02T14:53:28Z</time></trkpt><trkpt lat="44.76095308137544" lon="9.943939390376622"><ele>498.57142857142856</ele><time>2026-05-02T14:53:30.999Z</time></trkpt><trkpt lat="44.760881444957796" lon="9.94398963015569"><ele>500.8571428571429</ele><time>2026-05-02T14:53:33.999Z</time></trkpt><trkpt lat="44.76081286596393" lon="9.943947595967956"><ele>503.14285714285717</ele><time>2026-05-02T14:53:36.999Z</time></trkpt><trkpt lat="44.76077500834452" lon="9.943872367232899"><ele>505.42857142857144</ele><time>2026-05-02T14:53:39.999Z</time></trkpt><trkpt lat="44.760741880842424" lon="9.943779365746659"><ele>507.7142857142857</ele><time>2026-05-02T14:53:42.999Z</time></trkpt><trkpt lat="44.76071250521261" lon="9.9436838561873"><ele>510.0</ele><time>2026-05-02T14:53:45.999Z</time></trkpt><trkpt lat="44.76068883362403" lon="9.94358451190844"><ele>510.0</ele><time>2026-05-02T14:53:48.999Z</time></trkpt><trkpt lat="44.760666902244935" lon="9.943485377566414"><ele>510.00000000000006</ele><time>2026-05-02T14:53:51.999Z</time></trkpt><trkpt lat="44.76064740924065" lon="9.943384091823292"><ele>510.0</ele><time>2026-05-02T14:53:54.999Z</time></trkpt><trkpt lat="44.76062757673317" lon="9.943281601526873"><ele>510.0</ele><time>2026-05-02T14:53:57.999Z</time></trkpt><trkpt lat="44.760603789350554" lon="9.943186066095011"><ele>510.00000000000006</ele><time>2026-05-02T14:54:00.999Z</time></trkpt><trkpt lat="44.76058142931426" lon="9.943086599206056"><ele>510.0</ele><time>2026-05-02T14:54:03.999Z</time></trkpt><trkpt lat="44.76055579478396" lon="9.942994641744425"><ele>510.0</ele><time>2026-05-02T14:54:06.999Z</time></trkpt><trkpt lat="44.7605093868039" lon="9.942896472825263"><ele>510.5</ele><time>2026-05-02T14:54:09.999Z</time></trkpt><trkpt lat="44.76045514326705" lon="9.942796784050422"><ele>511.0</ele><time>2026-05-02T14:54:12.999Z</time></trkpt><trkpt lat="44.76041244788013" lon="9.942695211017291"><ele>511.5</ele><time>2026-05-02T14:54:15.999Z</time></trkpt><trkpt lat="44.76038513741411" lon="9.942585632288191"><ele>512.0</ele><time>2026-05-02T14:54:18.999Z</time></trkpt><trkpt lat="44.7603776787491" lon="9.942484602938084"><ele>512.5</ele><time>2026-05-02T14:54:20.999Z</time></trkpt><trkpt lat="44.760388091697784" lon="9.942357112941322"><ele>513.0</ele><time>2026-05-02T14:54:23.999Z</time></trkpt><trkpt lat="44.760399240723444" lon="9.942264871103522"><ele>513.0</ele><time>2026-05-02T14:54:26.998Z</time></trkpt><trkpt lat="44.76041327443642" lon="9.942146389048247"><ele>513.0</ele><time>2026-05-02T14:54:29.998Z</time></trkpt><trkpt lat="44.76043705821006" lon="9.942015707009302"><ele>513.0</ele><time>2026-05-02T14:54:32.998Z</time></trkpt><trkpt lat="44.76045740189409" lon="9.9419079904049"><ele>513.0</ele><time>2026-05-02T14:54:35.998Z</time></trkpt><trkpt lat="44.76047653419264" lon="9.941818821233607"><ele>513.0</ele><time>2026-05-02T14:54:37.998Z</time></trkpt><trkpt lat="44.760499105534706" lon="9.941715026748916"><ele>513.0</ele><time>2026-05-02T14:54:40.998Z</time></trkpt><trkpt lat="44.76051320859965" lon="9.941615161709098"><ele>513.3333333333334</ele><time>2026-05-02T14:54:43.998Z</time></trkpt><trkpt lat="44.7605309300977" lon="9.941507406429132"><ele>513.6666666666666</ele><time>2026-05-02T14:54:46.998Z</time></trkpt><trkpt lat="44.760553429092596" lon="9.941394826973347"><ele>514.0</ele><time>2026-05-02T14:54:49.998Z</time></trkpt><trkpt lat="44.76057681683679" lon="9.941280471247055"><ele>514.3333333333333</ele><time>2026-05-02T14:54:52.998Z</time></trkpt><trkpt lat="44.760599713657854" lon="9.94116749375491"><ele>514.6666666666666</ele><time>2026-05-02T14:54:55.998Z</time></trkpt><trkpt lat="44.76063583644414" lon="9.941061135559067"><ele>515.0</ele><time>2026-05-02T14:54:58.998Z</time></trkpt><trkpt lat="44.76067575304852" lon="9.940965870746602"><ele>516.8333333333333</ele><time>2026-05-02T14:55:01.998Z</time></trkpt><trkpt lat="44.76071729573927" lon="9.940875543558914"><ele>518.6666666666666</ele><time>2026-05-02T14:55:04.998Z</time></trkpt><trkpt lat="44.76076005882959" lon="9.940797166631322"><ele>520.5</ele><time>2026-05-02T14:55:07.998Z</time></trkpt><trkpt lat="44.76081393292289" lon="9.94070943245219"><ele>522.3333333333334</ele><time>2026-05-02T14:55:10.998Z</time></trkpt><trkpt lat="44.76087301402135" lon="9.940614539958439"><ele>524.1666666666667</ele><time>2026-05-02T14:55:13.998Z</time></trkpt><trkpt lat="44.76091555547827" lon="9.94054066419709"><ele>526.0</ele><time>2026-05-02T14:55:17Z</time></trkpt><trkpt lat="44.760958378991454" lon="9.940463744277237"><ele>526.0</ele><time>2026-05-02T14:55:20Z</time></trkpt><trkpt lat="44.761002421282456" lon="9.940391430441041"><ele>526.0</ele><time>2026-05-02T14:55:22Z</time></trkpt><trkpt lat="44.76103319912133" lon="9.940299735454069"><ele>526.0</ele><time>2026-05-02T14:55:25Z</time></trkpt><trkpt lat="44.76103326359686" lon="9.940203082293861"><ele>526.0</ele><time>2026-05-02T14:55:28Z</time></trkpt><trkpt lat="44.76099455624739" lon="9.940124050048311"><ele>526.0</ele><time>2026-05-02T14:55:31Z</time></trkpt><trkpt lat="44.760927271344386" lon="9.94008644830272"><ele>526.0</ele><time>2026-05-02T14:55:33.999Z</time></trkpt><trkpt lat="44.76085565846598" lon="9.940089810157415"><ele>526.0</ele><time>2026-05-02T14:55:36.999Z</time></trkpt><trkpt lat="44.76078487142576" lon="9.940111451419675"><ele>526.0</ele><time>2026-05-02T14:55:39.999Z</time></trkpt><trkpt lat="44.7607098599309" lon="9.940140894579866"><ele>526.0</ele><time>2026-05-02T14:55:42.999Z</time></trkpt><trkpt lat="44.76062846577439" lon="9.940172393478205"><ele>526.0</ele><time>2026-05-02T14:55:45.999Z</time></trkpt><trkpt lat="44.76056549531905" lon="9.940195625361676"><ele>526.0</ele><time>2026-05-02T14:55:48.999Z</time></trkpt><trkpt lat="44.76049554795525" lon="9.940215805854208"><ele>526.0</ele><time>2026-05-02T14:55:51.999Z</time></trkpt><trkpt lat="44.76043069058076" lon="9.940238840739774"><ele>526.0</ele><time>2026-05-02T14:55:53.999Z</time></trkpt><trkpt lat="44.76036490168624" lon="9.940255639564905"><ele>526.0</ele><time>2026-05-02T14:55:56.999Z</time></trkpt><trkpt lat="44.76030116664268" lon="9.94028217396455"><ele>526.0</ele><time>2026-05-02T14:55:58.999Z</time></trkpt><trkpt lat="44.760228545113584" lon="9.940324346716073"><ele>526.0</ele><time>2026-05-02T14:56:01.999Z</time></trkpt><trkpt lat="44.760167045395775" lon="9.94037754994784"><ele>526.0</ele><time>2026-05-02T14:56:04.999Z</time></trkpt><trkpt lat="44.76010913911174" lon="9.940441990969225"><ele>526.0</ele><time>2026-05-02T14:56:07.999Z</time></trkpt><trkpt lat="44.76005875022034" lon="9.940513373526493"><ele>526.0</ele><time>2026-05-02T14:56:10.999Z</time></trkpt><trkpt lat="44.760002871005966" lon="9.940590507436934"><ele>526.0</ele><time>2026-05-02T14:56:13.999Z</time></trkpt><trkpt lat="44.75994697120655" lon="9.940670843343954"><ele>527.0</ele><time>2026-05-02T14:56:16.999Z</time></trkpt><trkpt lat="44.75989193162952" lon="9.94074811052805"><ele>528.0</ele><time>2026-05-02T14:56:19.999Z</time></trkpt><trkpt lat="44.75983832637518" lon="9.940828937316505"><ele>529.0</ele><time>2026-05-02T14:56:22.999Z</time></trkpt><trkpt lat="44.75978971711329" lon="9.940918321711859"><ele>530.0</ele><time>2026-05-02T14:56:25.999Z</time></trkpt><trkpt lat="44.75974077238594" lon="9.941007237810943"><ele>531.0</ele><time>2026-05-02T14:56:28.998Z</time></trkpt><trkpt lat="44.759691372375805" lon="9.941098397761436"><ele>532.0</ele><time>2026-05-02T14:56:31.998Z</time></trkpt><trkpt lat="44.759635915054346" lon="9.941205216632694"><ele>532.0</ele><time>2026-05-02T14:56:34.998Z</time></trkpt><trkpt lat="44.75959772214311" lon="9.941293612965584"><ele>532.0</ele><time>2026-05-02T14:56:37.998Z</time></trkpt><trkpt lat="44.759557066966664" lon="9.941381665234042"><ele>532.0</ele><time>2026-05-02T14:56:40.998Z</time></trkpt><trkpt lat="44.759517018152984" lon="9.94145707253498"><ele>532.0</ele><time>2026-05-02T14:56:42.998Z</time></trkpt><trkpt lat="44.7594775951922" lon="9.941544424428642"><ele>532.0</ele><time>2026-05-02T14:56:45.998Z</time></trkpt><trkpt lat="44.759441393505014" lon="9.941618243643422"><ele>532.0</ele><time>2026-05-02T14:56:47.998Z</time></trkpt><trkpt lat="44.759390803109895" lon="9.941710284200033"><ele>532.0</ele><time>2026-05-02T14:56:50.998Z</time></trkpt><trkpt lat="44.759345947548546" lon="9.941806828656127"><ele>534.2857142857143</ele><time>2026-05-02T14:56:53.998Z</time></trkpt><trkpt lat="44.759298595166136" lon="9.941898854081257"><ele>536.5714285714286</ele><time>2026-05-02T14:56:56.998Z</time></trkpt><trkpt lat="44.759255602059135" lon="9.941992312845326"><ele>538.8571428571429</ele><time>2026-05-02T14:56:59.998Z</time></trkpt><trkpt lat="44.759218018117934" lon="9.942087364653219"><ele>541.1428571428571</ele><time>2026-05-02T14:57:02.998Z</time></trkpt><trkpt lat="44.75919050043754" lon="9.942170060365934"><ele>543.4285714285714</ele><time>2026-05-02T14:57:05.998Z</time></trkpt><trkpt lat="44.75916009298039" lon="9.942261742300577"><ele>545.7142857142858</ele><time>2026-05-02T14:57:08.998Z</time></trkpt><trkpt lat="44.75914113487375" lon="9.942354371277444"><ele>548.0</ele><time>2026-05-02T14:57:11.998Z</time></trkpt><trkpt lat="44.75912732585894" lon="9.942455130459773"><ele>547.5</ele><time>2026-05-02T14:57:14.998Z</time></trkpt><trkpt lat="44.759123794793716" lon="9.942560931070107"><ele>547.0</ele><time>2026-05-02T14:57:17.998Z</time></trkpt><trkpt lat="44.75912001446242" lon="9.942666403140612"><ele>546.5</ele><time>2026-05-02T14:57:20.998Z</time></trkpt><trkpt lat="44.75912258540045" lon="9.942777331173488"><ele>546.0</ele><time>2026-05-02T14:57:23.999Z</time></trkpt><trkpt lat="44.75911616973359" lon="9.942893928282887"><ele>545.5</ele><time>2026-05-02T14:57:27Z</time></trkpt><trkpt lat="44.7590636651639" lon="9.94296585564212"><ele>545.0</ele><time>2026-05-02T14:57:30Z</time></trkpt><trkpt lat="44.75899869292557" lon="9.942924242014742"><ele>545.0</ele><time>2026-05-02T14:57:33Z</time></trkpt><trkpt lat="44.758972097254805" lon="9.94283850528257"><ele>545.0</ele><time>2026-05-02T14:57:36Z</time></trkpt><trkpt lat="44.75895402159215" lon="9.94273134534197"><ele>545.0</ele><time>2026-05-02T14:57:38.999Z</time></trkpt><trkpt lat="44.75893518947515" lon="9.942627159784472"><ele>545.0</ele><time>2026-05-02T14:57:42.999Z</time></trkpt><trkpt lat="44.758922658861664" lon="9.942534741101237"><ele>545.0</ele><time>2026-05-02T14:57:45.999Z</time></trkpt><trkpt lat="44.758909879133725" lon="9.942444584169305"><ele>545.0</ele><time>2026-05-02T14:57:48.999Z</time></trkpt><trkpt lat="44.75889701693329" lon="9.942351699103188"><ele>545.0</ele><time>2026-05-02T14:57:51.999Z</time></trkpt><trkpt lat="44.75888721338835" lon="9.942239979294028"><ele>545.4285714285714</ele><time>2026-05-02T14:57:54.999Z</time></trkpt><trkpt lat="44.75889281497837" lon="9.942133289664683"><ele>545.8571428571429</ele><time>2026-05-02T14:57:58.999Z</time></trkpt><trkpt lat="44.75889888792808" lon="9.942041180176089"><ele>546.2857142857143</ele><time>2026-05-02T14:58:01.999Z</time></trkpt><trkpt lat="44.758906636569044" lon="9.941942615634646"><ele>546.7142857142858</ele><time>2026-05-02T14:58:04.999Z</time></trkpt><trkpt lat="44.75892162616462" lon="9.941829218134698"><ele>547.1428571428571</ele><time>2026-05-02T14:58:07.999Z</time></trkpt><trkpt lat="44.75894461106054" lon="9.941739840463724"><ele>547.5714285714287</ele><time>2026-05-02T14:58:10.999Z</time></trkpt><trkpt lat="44.758958664830345" lon="9.941646257236313"><ele>548.0</ele><time>2026-05-02T14:58:13.999Z</time></trkpt><trkpt lat="44.75897759916974" lon="9.941532769033492"><ele>549.1428571428572</ele><time>2026-05-02T14:58:17.999Z</time></trkpt><trkpt lat="44.75899662147108" lon="9.941436631639247"><ele>550.2857142857143</ele><time>2026-05-02T14:58:20.999Z</time></trkpt><trkpt lat="44.759018928888146" lon="9.941328178285499"><ele>551.4285714285714</ele><time>2026-05-02T14:58:23.999Z</time></trkpt><trkpt lat="44.7590366733367" lon="9.941230430015166"><ele>552.5714285714287</ele><time>2026-05-02T14:58:26.999Z</time></trkpt><trkpt lat="44.759052590759154" lon="9.941142312621086"><ele>553.7142857142858</ele><time>2026-05-02T14:58:29.999Z</time></trkpt><trkpt lat="44.7590649511942" lon="9.941049652332916"><ele>554.8571428571429</ele><time>2026-05-02T14:58:32.999Z</time></trkpt><trkpt lat="44.75907305651731" lon="9.940951374113235"><ele>556.0</ele><time>2026-05-02T14:58:35.998Z</time></trkpt><trkpt lat="44.759074604935385" lon="9.940856420968545"><ele>557.2857142857142</ele><time>2026-05-02T14:58:38.998Z</time></trkpt><trkpt lat="44.75906984691316" lon="9.940755898569556"><ele>558.5714285714286</ele><time>2026-05-02T14:58:41.998Z</time></trkpt><trkpt lat="44.75906015974024" lon="9.940654008557317"><ele>559.8571428571429</ele><time>2026-05-02T14:58:44.998Z</time></trkpt><trkpt lat="44.759038639805894" lon="9.940536514050049"><ele>561.1428571428571</ele><time>2026-05-02T14:58:47.998Z</time></trkpt><trkpt lat="44.759018512468884" lon="9.940443242411964"><ele>562.4285714285714</ele><time>2026-05-02T14:58:50.998Z</time></trkpt><trkpt lat="44.75901259271189" lon="9.940349439478661"><ele>563.7142857142857</ele><time>2026-05-02T14:58:53.998Z</time></trkpt><trkpt lat="44.7590248199967" lon="9.940249402149371"><ele>565.0</ele><time>2026-05-02T14:58:56.998Z</time></trkpt><trkpt lat="44.75905653779036" lon="9.940153458441937"><ele>565.0</ele><time>2026-05-02T14:58:59.998Z</time></trkpt><trkpt lat="44.759092558877065" lon="9.940066377227074"><ele>565.0</ele><time>2026-05-02T14:59:02.998Z</time></trkpt><trkpt lat="44.75913311566783" lon="9.939977749318214"><ele>565.0</ele><time>2026-05-02T14:59:05.998Z</time></trkpt><trkpt lat="44.759182086898775" lon="9.939875047152455"><ele>565.0</ele><time>2026-05-02T14:59:08.998Z</time></trkpt><trkpt lat="44.759204769224326" lon="9.93977923820228"><ele>565.0</ele><time>2026-05-02T14:59:11.998Z</time></trkpt><trkpt lat="44.7592228767628" lon="9.939678859021729"><ele>565.0</ele><time>2026-05-02T14:59:14.998Z</time></trkpt><trkpt lat="44.759223180251205" lon="9.939577422505124"><ele>565.5714285714286</ele><time>2026-05-02T14:59:16.998Z</time></trkpt><trkpt lat="44.75921292618435" lon="9.939470538861142"><ele>566.1428571428571</ele><time>2026-05-02T14:59:19.998Z</time></trkpt><trkpt lat="44.75918831676911" lon="9.93938050167286"><ele>566.7142857142858</ele><time>2026-05-02T14:59:22.998Z</time></trkpt><trkpt lat="44.759163556423104" lon="9.939287939572209"><ele>567.2857142857142</ele><time>2026-05-02T14:59:25.998Z</time></trkpt><trkpt lat="44.75913330878367" lon="9.939191354656183"><ele>567.8571428571429</ele><time>2026-05-02T14:59:29Z</time></trkpt><trkpt lat="44.759089081951636" lon="9.939104106055419"><ele>568.4285714285714</ele><time>2026-05-02T14:59:32Z</time></trkpt><trkpt lat="44.75904450645477" lon="9.939024574655917"><ele>569.0</ele><time>2026-05-02T14:59:35Z</time></trkpt><trkpt lat="44.75899366635109" lon="9.938956064084904"><ele>569.0</ele><time>2026-05-02T14:59:38Z</time></trkpt><trkpt lat="44.75893162079621" lon="9.93890730081234"><ele>569.0</ele><time>2026-05-02T14:59:41Z</time></trkpt><trkpt lat="44.75886492805169" lon="9.938874135674013"><ele>569.0</ele><time>2026-05-02T14:59:43.999Z</time></trkpt><trkpt lat="44.758779559367575" lon="9.93885950832117"><ele>569.0</ele><time>2026-05-02T14:59:47.999Z</time></trkpt><trkpt lat="44.75871104209603" lon="9.938851206896363"><ele>569.0</ele><time>2026-05-02T14:59:50.999Z</time></trkpt><trkpt lat="44.75862560379276" lon="9.93884672054439"><ele>569.0</ele><time>2026-05-02T14:59:53.999Z</time></trkpt><trkpt lat="44.75855722154957" lon="9.938835762046134"><ele>571.6666666666666</ele><time>2026-05-02T14:59:56.999Z</time></trkpt><trkpt lat="44.758483479716325" lon="9.938792267940615"><ele>574.3333333333333</ele><time>2026-05-02T15:00:00.999Z</time></trkpt><trkpt lat="44.758426242288" lon="9.938723968977417"><ele>577.0</ele><time>2026-05-02T15:00:03.999Z</time></trkpt><trkpt lat="44.75838389395051" lon="9.938647390443425"><ele>579.6666666666666</ele><time>2026-05-02T15:00:05.999Z</time></trkpt><trkpt lat="44.75835048686099" lon="9.938536255308428"><ele>582.3333333333334</ele><time>2026-05-02T15:00:08.999Z</time></trkpt><trkpt lat="44.75833366649541" lon="9.938428474544505"><ele>585.0</ele><time>2026-05-02T15:00:12.999Z</time></trkpt><trkpt lat="44.758321342819315" lon="9.938330026135674"><ele>585.0</ele><time>2026-05-02T15:00:15.999Z</time></trkpt><trkpt lat="44.75830053688328" lon="9.9382177895108"><ele>585.0</ele><time>2026-05-02T15:00:18.999Z</time></trkpt><trkpt lat="44.7582695911467" lon="9.938117987875613"><ele>585.0</ele><time>2026-05-02T15:00:21.999Z</time></trkpt><trkpt lat="44.75821948571727" lon="9.938013941878324"><ele>585.0</ele><time>2026-05-02T15:00:24.999Z</time></trkpt><trkpt lat="44.758171565307855" lon="9.937944692238032"><ele>585.0</ele><time>2026-05-02T15:00:27.999Z</time></trkpt><trkpt lat="44.75812709542887" lon="9.937874656838723"><ele>585.0</ele><time>2026-05-02T15:00:30.999Z</time></trkpt><trkpt lat="44.7580909662986" lon="9.937794425158405"><ele>585.0</ele><time>2026-05-02T15:00:33.999Z</time></trkpt><trkpt lat="44.7580601564022" lon="9.937697652773657"><ele>585.0</ele><time>2026-05-02T15:00:36.999Z</time></trkpt><trkpt lat="44.75803886172325" lon="9.937599649645103"><ele>585.0</ele><time>2026-05-02T15:00:39.998Z</time></trkpt><trkpt lat="44.75802585692927" lon="9.937501722774392"><ele>585.0</ele><time>2026-05-02T15:00:42.998Z</time></trkpt><trkpt lat="44.75801858243845" lon="9.937399149456036"><ele>585.0</ele><time>2026-05-02T15:00:45.998Z</time></trkpt><trkpt lat="44.758018406601956" lon="9.937287758006168"><ele>585.0</ele><time>2026-05-02T15:00:48.998Z</time></trkpt><trkpt lat="44.75802423968471" lon="9.937188822869828"><ele>585.0</ele><time>2026-05-02T15:00:51.998Z</time></trkpt><trkpt lat="44.75803715272101" lon="9.937092267451291"><ele>584.5714285714286</ele><time>2026-05-02T15:00:54.998Z</time></trkpt><trkpt lat="44.75805552054968" lon="9.936993007041966"><ele>584.1428571428571</ele><time>2026-05-02T15:00:57.998Z</time></trkpt><trkpt lat="44.75808211092348" lon="9.93689428605971"><ele>583.7142857142857</ele><time>2026-05-02T15:01:00.998Z</time></trkpt><trkpt lat="44.758114141152056" lon="9.936804097292622"><ele>583.2857142857142</ele><time>2026-05-02T15:01:03.998Z</time></trkpt><trkpt lat="44.758153475476966" lon="9.936711377731562"><ele>582.8571428571428</ele><time>2026-05-02T15:01:06.998Z</time></trkpt><trkpt lat="44.758197157208414" lon="9.936630439266217"><ele>582.4285714285714</ele><time>2026-05-02T15:01:09.998Z</time></trkpt><trkpt lat="44.7582489616835" lon="9.936564778487337"><ele>582.0</ele><time>2026-05-02T15:01:12.998Z</time></trkpt><trkpt lat="44.758318275195855" lon="9.936499320952697"><ele>582.8571428571429</ele><time>2026-05-02T15:01:15.998Z</time></trkpt><trkpt lat="44.75837031363755" lon="9.936439998963682"><ele>583.7142857142857</ele><time>2026-05-02T15:01:18.998Z</time></trkpt><trkpt lat="44.75840741708517" lon="9.936358452504372"><ele>584.5714285714286</ele><time>2026-05-02T15:01:21.998Z</time></trkpt><trkpt lat="44.75842675307725" lon="9.936265767518591"><ele>585.4285714285714</ele><time>2026-05-02T15:01:24.998Z</time></trkpt><trkpt lat="44.75839590626651" lon="9.936174979955993"><ele>586.2857142857142</ele><time>2026-05-02T15:01:27.999Z</time></trkpt><trkpt lat="44.758339093180254" lon="9.936112937900829"><ele>587.1428571428571</ele><time>2026-05-02T15:01:30.999Z</time></trkpt><trkpt lat="44.758282215809935" lon="9.936074033169582"><ele>588.0</ele><time>2026-05-02T15:01:32.999Z</time></trkpt><trkpt lat="44.75821248021527" lon="9.936047347498306"><ele>588.0</ele><time>2026-05-02T15:01:36.001Z</time></trkpt><trkpt lat="44.75814434599572" lon="9.936028986009758"><ele>588.0</ele><time>2026-05-02T15:01:39.001Z</time></trkpt><trkpt lat="44.75808186760224" lon="9.936009197887389"><ele>588.0</ele><time>2026-05-02T15:01:42.001Z</time></trkpt><trkpt lat="44.75801303191782" lon="9.936001095691266"><ele>588.0</ele><time>2026-05-02T15:01:45.001Z</time></trkpt><trkpt lat="44.75794400733573" lon="9.93602138613434"><ele>588.0</ele><time>2026-05-02T15:01:48.001Z</time></trkpt><trkpt lat="44.7578846963416" lon="9.936064455005734"><ele>588.0</ele><time>2026-05-02T15:01:51Z</time></trkpt><trkpt lat="44.75780647961449" lon="9.93615426428169"><ele>588.0</ele><time>2026-05-02T15:01:55Z</time></trkpt><trkpt lat="44.75775921781814" lon="9.936230171502773"><ele>588.0</ele><time>2026-05-02T15:01:59Z</time></trkpt><trkpt lat="44.75771034422453" lon="9.936313213352799"><ele>588.0</ele><time>2026-05-02T15:02:02Z</time></trkpt><trkpt lat="44.75766635540315" lon="9.936400712481221"><ele>588.0</ele><time>2026-05-02T15:02:05Z</time></trkpt><trkpt lat="44.757620725843154" lon="9.936502904921195"><ele>588.0</ele><time>2026-05-02T15:02:08Z</time></trkpt><trkpt lat="44.75758818151051" lon="9.93659401615802"><ele>588.0</ele><time>2026-05-02T15:02:11Z</time></trkpt><trkpt lat="44.75756241562868" lon="9.936676911620177"><ele>588.0</ele><time>2026-05-02T15:02:14Z</time></trkpt><trkpt lat="44.75753357871062" lon="9.936769163747973"><ele>588.0</ele><time>2026-05-02T15:02:17Z</time></trkpt><trkpt lat="44.75749400615623" lon="9.93686086709365"><ele>590.7142857142857</ele><time>2026-05-02T15:02:20Z</time></trkpt><trkpt lat="44.75746154715225" lon="9.936939935627956"><ele>593.4285714285714</ele><time>2026-05-02T15:02:22Z</time></trkpt><trkpt lat="44.757425428393695" lon="9.937031858037479"><ele>596.1428571428571</ele><time>2026-05-02T15:02:25Z</time></trkpt><trkpt lat="44.757395239382944" lon="9.937111089707319"><ele>598.8571428571429</ele><time>2026-05-02T15:02:27Z</time></trkpt><trkpt lat="44.75736453947642" lon="9.937204615697974"><ele>601.5714285714286</ele><time>2026-05-02T15:02:30Z</time></trkpt><trkpt lat="44.757337555216054" lon="9.937293993416851"><ele>604.2857142857142</ele><time>2026-05-02T15:02:33Z</time></trkpt><trkpt lat="44.757308336383005" lon="9.937405928351849"><ele>607.0</ele><time>2026-05-02T15:02:36Z</time></trkpt><trkpt lat="44.75727809943526" lon="9.937514065189722"><ele>608.0</ele><time>2026-05-02T15:02:39Z</time></trkpt><trkpt lat="44.75725782106555" lon="9.93760946383666"><ele>609.0</ele><time>2026-05-02T15:02:41Z</time></trkpt><trkpt lat="44.757249024424446" lon="9.937720957877776"><ele>610.0</ele><time>2026-05-02T15:02:44Z</time></trkpt><trkpt lat="44.75724881670537" lon="9.937838486339905"><ele>611.0</ele><time>2026-05-02T15:02:46.999Z</time></trkpt><trkpt lat="44.75726257490318" lon="9.937944164771425"><ele>612.0</ele><time>2026-05-02T15:02:48.999Z</time></trkpt><trkpt lat="44.75730472342935" lon="9.93806698176461"><ele>613.0</ele><time>2026-05-02T15:02:51.999Z</time></trkpt><trkpt lat="44.757360697434464" lon="9.938166858329591"><ele>613.0</ele><time>2026-05-02T15:02:54.999Z</time></trkpt><trkpt lat="44.75743383567248" lon="9.938259256166676"><ele>613.0</ele><time>2026-05-02T15:02:57.999Z</time></trkpt><trkpt lat="44.757505446457124" lon="9.938345195924784"><ele>613.0</ele><time>2026-05-02T15:03:00.999Z</time></trkpt><trkpt lat="44.75755451121122" lon="9.938400899891056"><ele>613.0</ele><time>2026-05-02T15:03:02.999Z</time></trkpt><trkpt lat="44.75761635258566" lon="9.938496974074024"><ele>613.0</ele><time>2026-05-02T15:03:05.999Z</time></trkpt><trkpt lat="44.75763965480118" lon="9.93858287850144"><ele>613.0</ele><time>2026-05-02T15:03:07.999Z</time></trkpt><trkpt lat="44.757647046028296" lon="9.938671846975678"><ele>612.6666666666667</ele><time>2026-05-02T15:03:09.999Z</time></trkpt><trkpt lat="44.75763004708057" lon="9.938776831586368"><ele>612.3333333333334</ele><time>2026-05-02T15:03:12.999Z</time></trkpt><trkpt lat="44.757598127452795" lon="9.938875363003255"><ele>612.0</ele><time>2026-05-02T15:03:15.999Z</time></trkpt><trkpt lat="44.75754728686194" lon="9.938963931483183"><ele>611.6666666666666</ele><time>2026-05-02T15:03:18.999Z</time></trkpt><trkpt lat="44.757465428520675" lon="9.939014266844756"><ele>611.3333333333333</ele><time>2026-05-02T15:03:22.999Z</time></trkpt><trkpt lat="44.75737924270989" lon="9.939008560200788"><ele>611.0</ele><time>2026-05-02T15:03:25.999Z</time></trkpt><trkpt lat="44.75730439105623" lon="9.938978936229498"><ele>611.0000000000001</ele><time>2026-05-02T15:03:28.999Z</time></trkpt><trkpt lat="44.75723926297985" lon="9.938932621132185"><ele>611.0</ele><time>2026-05-02T15:03:31.999Z</time></trkpt><trkpt lat="44.75718391633624" lon="9.938882176416785"><ele>611.0</ele><time>2026-05-02T15:03:33.999Z</time></trkpt><trkpt lat="44.757135406217934" lon="9.938813573815116"><ele>611.0</ele><time>2026-05-02T15:03:36.999Z</time></trkpt><trkpt lat="44.75709900592801" lon="9.938728896051982"><ele>611.0</ele><time>2026-05-02T15:03:39.999Z</time></trkpt><trkpt lat="44.75706683272613" lon="9.938628835576482"><ele>611.0000000000001</ele><time>2026-05-02T15:03:43Z</time></trkpt><trkpt lat="44.75704289834158" lon="9.938525305166552"><ele>611.0</ele><time>2026-05-02T15:03:46Z</time></trkpt><trkpt lat="44.757021952907316" lon="9.938413026685755"><ele>611.3333333333333</ele><time>2026-05-02T15:03:49.001Z</time></trkpt><trkpt lat="44.757002282815115" lon="9.938308073184917"><ele>611.6666666666666</ele><time>2026-05-02T15:03:52Z</time></trkpt><trkpt lat="44.75698804185278" lon="9.938198606120729"><ele>612.0</ele><time>2026-05-02T15:03:55Z</time></trkpt><trkpt lat="44.75697172476715" lon="9.938072402512054"><ele>612.3333333333334</ele><time>2026-05-02T15:03:58Z</time></trkpt><trkpt lat="44.756957692242" lon="9.937966737995895"><ele>612.6666666666667</ele><time>2026-05-02T15:04:01Z</time></trkpt><trkpt lat="44.756938230453805" lon="9.937871654633836"><ele>613.0</ele><time>2026-05-02T15:04:04Z</time></trkpt><trkpt lat="44.75691489472335" lon="9.937758838530886"><ele>613.0</ele><time>2026-05-02T15:04:07Z</time></trkpt><trkpt lat="44.75689740771359" lon="9.93766857369169"><ele>613.0</ele><time>2026-05-02T15:04:09Z</time></trkpt><trkpt lat="44.7568799433371" lon="9.937572116822626"><ele>613.0</ele><time>2026-05-02T15:04:12Z</time></trkpt><trkpt lat="44.75686373016152" lon="9.937467315795095"><ele>613.0</ele><time>2026-05-02T15:04:15Z</time></trkpt><trkpt lat="44.75685746791726" lon="9.937360126174022"><ele>613.0</ele><time>2026-05-02T15:04:18Z</time></trkpt><trkpt lat="44.75685070885165" lon="9.937247890867944"><ele>613.0</ele><time>2026-05-02T15:04:21Z</time></trkpt><trkpt lat="44.75685305327202" lon="9.937142316719255"><ele>613.0</ele><time>2026-05-02T15:04:24Z</time></trkpt><trkpt lat="44.75685797800731" lon="9.937045932240228"><ele>612.1428571428571</ele><time>2026-05-02T15:04:27Z</time></trkpt><trkpt lat="44.75686909066539" lon="9.936958651364392"><ele>611.2857142857142</ele><time>2026-05-02T15:04:30Z</time></trkpt><trkpt lat="44.75688349674933" lon="9.936855683938177"><ele>610.4285714285713</ele><time>2026-05-02T15:04:35Z</time></trkpt><trkpt lat="44.75682164656782" lon="9.936820630063307"><ele>609.5714285714286</ele><time>2026-05-02T15:04:40Z</time></trkpt><trkpt lat="44.75682978626834" lon="9.936934389959493"><ele>608.7142857142857</ele><time>2026-05-02T15:05:45.998Z</time></trkpt><trkpt lat="44.756823492176544" lon="9.937032583363413"><ele>607.8571428571428</ele><time>2026-05-02T15:05:48Z</time></trkpt><trkpt lat="44.75681141104593" lon="9.937143210527983"><ele>607.0</ele><time>2026-05-02T15:05:50Z</time></trkpt><trkpt lat="44.75680290787832" lon="9.93726367334598"><ele>608.2</ele><time>2026-05-02T15:05:52Z</time></trkpt><trkpt lat="44.756809199601136" lon="9.937402884041209"><ele>609.4000000000001</ele><time>2026-05-02T15:05:54Z</time></trkpt><trkpt lat="44.756827703351824" lon="9.937550536623625"><ele>610.5999999999999</ele><time>2026-05-02T15:05:56Z</time></trkpt><trkpt lat="44.756832278023424" lon="9.937717931307791"><ele>611.8</ele><time>2026-05-02T15:05:58Z</time></trkpt><trkpt lat="44.756860947113495" lon="9.937886264563463"><ele>613.0</ele><time>2026-05-02T15:06:00Z</time></trkpt><trkpt lat="44.756891231878555" lon="9.938064590755015"><ele>613.0</ele><time>2026-05-02T15:06:02Z</time></trkpt><trkpt lat="44.75690752317269" lon="9.93816081075123"><ele>613.0</ele><time>2026-05-02T15:06:03Z</time></trkpt><trkpt lat="44.75692436931398" lon="9.938260307746265"><ele>613.0</ele><time>2026-05-02T15:06:04Z</time></trkpt><trkpt lat="44.756941410595864" lon="9.938360957276895"><ele>613.0</ele><time>2026-05-02T15:06:05Z</time></trkpt><trkpt lat="44.756958955004414" lon="9.938464578414473"><ele>613.0</ele><time>2026-05-02T15:06:06Z</time></trkpt><trkpt lat="44.75697685363551" lon="9.93857029180433"><ele>613.0</ele><time>2026-05-02T15:06:07Z</time></trkpt><trkpt lat="44.75701583719089" lon="9.938673802603503"><ele>612.6666666666667</ele><time>2026-05-02T15:06:08Z</time></trkpt><trkpt lat="44.75705037264719" lon="9.93878012240271"><ele>612.3333333333334</ele><time>2026-05-02T15:06:09Z</time></trkpt><trkpt lat="44.75710227202872" lon="9.938879195064862"><ele>612.0</ele><time>2026-05-02T15:06:10Z</time></trkpt><trkpt lat="44.75716916986253" lon="9.938964571167604"><ele>611.6666666666666</ele><time>2026-05-02T15:06:11Z</time></trkpt><trkpt lat="44.757245060281456" lon="9.939030225155683"><ele>611.3333333333333</ele><time>2026-05-02T15:06:12Z</time></trkpt><trkpt lat="44.75733028466253" lon="9.939069375954471"><ele>611.0</ele><time>2026-05-02T15:06:13Z</time></trkpt><trkpt lat="44.75742118873819" lon="9.93907603308474"><ele>611.0</ele><time>2026-05-02T15:06:14Z</time></trkpt><trkpt lat="44.757505816501215" lon="9.93905721689545"><ele>611.0</ele><time>2026-05-02T15:06:15Z</time></trkpt><trkpt lat="44.75757901434083" lon="9.938996414111847"><ele>611.0</ele><time>2026-05-02T15:06:16Z</time></trkpt><trkpt lat="44.757636061148915" lon="9.938893692288321"><ele>611.0</ele><time>2026-05-02T15:06:17Z</time></trkpt><trkpt lat="44.75766980015776" lon="9.938765443740236"><ele>611.0</ele><time>2026-05-02T15:06:18Z</time></trkpt><trkpt lat="44.75767562104992" lon="9.938631258911832"><ele>611.0</ele><time>2026-05-02T15:06:19Z</time></trkpt><trkpt lat="44.7576435279582" lon="9.938507171300127"><ele>611.0</ele><time>2026-05-02T15:06:20Z</time></trkpt><trkpt lat="44.75758218732371" lon="9.93840051838335"><ele>611.0</ele><time>2026-05-02T15:06:21Z</time></trkpt><trkpt lat="44.75749762250562" lon="9.9383328486531"><ele>611.0</ele><time>2026-05-02T15:06:22Z</time></trkpt><trkpt lat="44.75742182955006" lon="9.938267296483652"><ele>611.0</ele><time>2026-05-02T15:06:23Z</time></trkpt><trkpt lat="44.75734706116564" lon="9.938188776766763"><ele>611.4</ele><time>2026-05-02T15:06:24Z</time></trkpt><trkpt lat="44.75728413406504" lon="9.938092702042036"><ele>611.8</ele><time>2026-05-02T15:06:25Z</time></trkpt><trkpt lat="44.757238155046615" lon="9.937976227244397"><ele>612.1999999999999</ele><time>2026-05-02T15:06:26Z</time></trkpt><trkpt lat="44.75721583680942" lon="9.93784665448903"><ele>612.6</ele><time>2026-05-02T15:06:27Z</time></trkpt><trkpt lat="44.757217245852715" lon="9.93771340005195"><ele>613.0</ele><time>2026-05-02T15:06:28Z</time></trkpt><trkpt lat="44.75723670093385" lon="9.937583689550552"><ele>611.8</ele><time>2026-05-02T15:06:29Z</time></trkpt><trkpt lat="44.75727183119799" lon="9.937457330586364"><ele>610.5999999999999</ele><time>2026-05-02T15:06:30Z</time></trkpt><trkpt lat="44.75731591341318" lon="9.93733399118595"><ele>609.4000000000001</ele><time>2026-05-02T15:06:31Z</time></trkpt><trkpt lat="44.75736161860925" lon="9.937214442930298"><ele>608.2</ele><time>2026-05-02T15:06:32Z</time></trkpt><trkpt lat="44.757402056786404" lon="9.937089394968698"><ele>607.0</ele><time>2026-05-02T15:06:33Z</time></trkpt><trkpt lat="44.757444733376694" lon="9.936963496235592"><ele>607.0</ele><time>2026-05-02T15:06:34Z</time></trkpt><trkpt lat="44.757489961390014" lon="9.936838598114925"><ele>607.0</ele><time>2026-05-02T15:06:35Z</time></trkpt><trkpt lat="44.757531285129" lon="9.936711419381778"><ele>607.0</ele><time>2026-05-02T15:06:36Z</time></trkpt><trkpt lat="44.75757532602992" lon="9.936588048855342"><ele>607.0</ele><time>2026-05-02T15:06:37Z</time></trkpt><trkpt lat="44.75762079616035" lon="9.936464572224999"><ele>607.0</ele><time>2026-05-02T15:06:38Z</time></trkpt><trkpt lat="44.75766892121046" lon="9.936339407607715"><ele>603.2</ele><time>2026-05-02T15:06:39Z</time></trkpt><trkpt lat="44.7577264095729" lon="9.936218760365804"><ele>599.4000000000001</ele><time>2026-05-02T15:06:40Z</time></trkpt><trkpt lat="44.75779386424533" lon="9.936114135347305"><ele>595.5999999999999</ele><time>2026-05-02T15:06:41Z</time></trkpt><trkpt lat="44.75787092766126" lon="9.936039953493479"><ele>591.8</ele><time>2026-05-02T15:06:42Z</time></trkpt><trkpt lat="44.75795495157027" lon="9.935992695795976"><ele>588.0</ele><time>2026-05-02T15:06:43Z</time></trkpt><trkpt lat="44.75804735080979" lon="9.9359802994467"><ele>588.0</ele><time>2026-05-02T15:06:44Z</time></trkpt><trkpt lat="44.75814035142974" lon="9.936028516146013"><ele>588.0</ele><time>2026-05-02T15:06:45Z</time></trkpt><trkpt lat="44.75822730574338" lon="9.936062421847765"><ele>588.0</ele><time>2026-05-02T15:06:46Z</time></trkpt><trkpt lat="44.75829868119216" lon="9.93610313503576"><ele>588.0</ele><time>2026-05-02T15:06:47Z</time></trkpt><trkpt lat="44.758366336787006" lon="9.936226179754936"><ele>588.0</ele><time>2026-05-02T15:06:49Z</time></trkpt><trkpt lat="44.75835098808173" lon="9.936312192430455"><ele>588.0</ele><time>2026-05-02T15:06:50Z</time></trkpt><trkpt lat="44.75829968286509" lon="9.936381820648194"><ele>588.0</ele><time>2026-05-02T15:06:51Z</time></trkpt><trkpt lat="44.75822468927299" lon="9.936429574992998"><ele>588.0</ele><time>2026-05-02T15:06:52Z</time></trkpt><trkpt lat="44.75815474800096" lon="9.936508510170833"><ele>588.0</ele><time>2026-05-02T15:06:53Z</time></trkpt><trkpt lat="44.75809093159722" lon="9.93659997864039"><ele>588.0</ele><time>2026-05-02T15:06:53.999Z</time></trkpt><trkpt lat="44.75803411093465" lon="9.936703525520977"><ele>588.0</ele><time>2026-05-02T15:06:54.999Z</time></trkpt><trkpt lat="44.75798330214586" lon="9.936819237289965"><ele>586.8</ele><time>2026-05-02T15:06:55.999Z</time></trkpt><trkpt lat="44.75794567233937" lon="9.936948975574413"><ele>585.5999999999999</ele><time>2026-05-02T15:06:56.999Z</time></trkpt><trkpt lat="44.75792109849124" lon="9.937085697721045"><ele>584.4000000000001</ele><time>2026-05-02T15:06:57.999Z</time></trkpt><trkpt lat="44.75788527209848" lon="9.937224770657455"><ele>583.2</ele><time>2026-05-02T15:06:58.999Z</time></trkpt><trkpt lat="44.757896897457776" lon="9.937379812228592"><ele>582.0</ele><time>2026-05-02T15:06:59.999Z</time></trkpt><trkpt lat="44.7579044492354" lon="9.937531648837295"><ele>582.6</ele><time>2026-05-02T15:07:00.999Z</time></trkpt><trkpt lat="44.75793241635041" lon="9.937683665968523"><ele>583.2</ele><time>2026-05-02T15:07:01.999Z</time></trkpt><trkpt lat="44.75798216168726" lon="9.937823484636446"><ele>583.8</ele><time>2026-05-02T15:07:02.999Z</time></trkpt><trkpt lat="44.75805296216707" lon="9.937943451994506"><ele>584.4</ele><time>2026-05-02T15:07:03.999Z</time></trkpt><trkpt lat="44.7581397847092" lon="9.93804510927625"><ele>585.0</ele><time>2026-05-02T15:07:04.999Z</time></trkpt><trkpt lat="44.75819076038511" lon="9.938170724053455"><ele>585.0</ele><time>2026-05-02T15:07:05.999Z</time></trkpt><trkpt lat="44.75821707645938" lon="9.938309344461235"><ele>585.0</ele><time>2026-05-02T15:07:06.999Z</time></trkpt><trkpt lat="44.75823242446357" lon="9.938454669401164"><ele>585.0</ele><time>2026-05-02T15:07:07.999Z</time></trkpt><trkpt lat="44.758266278170886" lon="9.938601276540561"><ele>585.0</ele><time>2026-05-02T15:07:08.999Z</time></trkpt><trkpt lat="44.75829984437504" lon="9.938729003942544"><ele>585.0</ele><time>2026-05-02T15:07:09.999Z</time></trkpt><trkpt lat="44.7583724800995" lon="9.938825479542174"><ele>586.4</ele><time>2026-05-02T15:07:10.999Z</time></trkpt><trkpt lat="44.7584666876207" lon="9.938882979164877"><ele>587.8</ele><time>2026-05-02T15:07:11.999Z</time></trkpt><trkpt lat="44.75857005999345" lon="9.938906549807934"><ele>589.2</ele><time>2026-05-02T15:07:12.999Z</time></trkpt><trkpt lat="44.75867452924976" lon="9.938903221689467"><ele>590.6</ele><time>2026-05-02T15:07:13.999Z</time></trkpt><trkpt lat="44.75877878535511" lon="9.938896310247154"><ele>592.0</ele><time>2026-05-02T15:07:14.999Z</time></trkpt><trkpt lat="44.75887559610506" lon="9.938910603495211"><ele>587.6</ele><time>2026-05-02T15:07:15.999Z</time></trkpt><trkpt lat="44.75896914463217" lon="9.938967523815776"><ele>583.2</ele><time>2026-05-02T15:07:16.999Z</time></trkpt><trkpt lat="44.759040882012066" lon="9.93906683860581"><ele>578.8</ele><time>2026-05-02T15:07:17.999Z</time></trkpt><trkpt lat="44.75908376979605" lon="9.939206493184534"><ele>574.4</ele><time>2026-05-02T15:07:18.999Z</time></trkpt><trkpt lat="44.75912378140911" lon="9.93934293440142"><ele>570.0</ele><time>2026-05-02T15:07:19.999Z</time></trkpt><trkpt lat="44.75916514584058" lon="9.939480094668825"><ele>570.0</ele><time>2026-05-02T15:07:20.999Z</time></trkpt><trkpt lat="44.759175381163644" lon="9.939622667358838"><ele>570.0</ele><time>2026-05-02T15:07:21.999Z</time></trkpt><trkpt lat="44.75914833667089" lon="9.93976512458303"><ele>570.0</ele><time>2026-05-02T15:07:22.999Z</time></trkpt><trkpt lat="44.759104871633475" lon="9.939883432785345"><ele>570.0</ele><time>2026-05-02T15:07:23.999Z</time></trkpt><trkpt lat="44.75904600613101" lon="9.940000478910632"><ele>570.0</ele><time>2026-05-02T15:07:24.999Z</time></trkpt><trkpt lat="44.75898549786518" lon="9.940122695255445"><ele>569.0</ele><time>2026-05-02T15:07:25.999Z</time></trkpt><trkpt lat="44.758949766344635" lon="9.940263818342205"><ele>568.0</ele><time>2026-05-02T15:07:26.999Z</time></trkpt><trkpt lat="44.7589448970591" lon="9.940413262415795"><ele>567.0</ele><time>2026-05-02T15:07:27.999Z</time></trkpt><trkpt lat="44.75900319945713" lon="9.940555521624006"><ele>566.0</ele><time>2026-05-02T15:07:28.999Z</time></trkpt><trkpt lat="44.75901716580339" lon="9.940700344047421"><ele>565.0</ele><time>2026-05-02T15:07:29.999Z</time></trkpt><trkpt lat="44.759024702988576" lon="9.94084614593336"><ele>563.2</ele><time>2026-05-02T15:07:30.999Z</time></trkpt><trkpt lat="44.759008645759955" lon="9.940995714101849"><ele>561.4</ele><time>2026-05-02T15:07:31.999Z</time></trkpt><trkpt lat="44.75898710198673" lon="9.941148927294671"><ele>559.6</ele><time>2026-05-02T15:07:32.999Z</time></trkpt><trkpt lat="44.75896103876013" lon="9.941301264625375"><ele>557.8</ele><time>2026-05-02T15:07:33.999Z</time></trkpt><trkpt lat="44.758945000923084" lon="9.941463184003695"><ele>556.0</ele><time>2026-05-02T15:07:34.999Z</time></trkpt><trkpt lat="44.758907232189394" lon="9.941618012817163"><ele>554.0</ele><time>2026-05-02T15:07:35.999Z</time></trkpt><trkpt lat="44.75887077195889" lon="9.941777724400957"><ele>552.0</ele><time>2026-05-02T15:07:36.999Z</time></trkpt><trkpt lat="44.75884567274263" lon="9.941943611868222"><ele>550.0</ele><time>2026-05-02T15:07:37.999Z</time></trkpt><trkpt lat="44.758835751921154" lon="9.942111002948446"><ele>548.0</ele><time>2026-05-02T15:07:38.999Z</time></trkpt><trkpt lat="44.75883875996387" lon="9.94227962188063"><ele>548.0</ele><time>2026-05-02T15:07:39.999Z</time></trkpt><trkpt lat="44.75885248504696" lon="9.942452709370755"><ele>548.0</ele><time>2026-05-02T15:07:40.999Z</time></trkpt><trkpt lat="44.75887879878693" lon="9.942621000486875"><ele>548.0</ele><time>2026-05-02T15:07:41.999Z</time></trkpt><trkpt lat="44.758908862729" lon="9.942767880268386"><ele>548.0</ele><time>2026-05-02T15:07:42.999Z</time></trkpt><trkpt lat="44.75893158455652" lon="9.942900958221411"><ele>547.5</ele><time>2026-05-02T15:07:43.999Z</time></trkpt><trkpt lat="44.75895236657966" lon="9.943009061563641"><ele>547.0</ele><time>2026-05-02T15:07:44.999Z</time></trkpt><trkpt lat="44.758995536734375" lon="9.943081835280493"><ele>546.5</ele><time>2026-05-02T15:07:45.999Z</time></trkpt><trkpt lat="44.75912233317139" lon="9.943040908942299"><ele>546.0</ele><time>2026-05-02T15:07:47.999Z</time></trkpt><trkpt lat="44.759146829598826" lon="9.942930733903616"><ele>545.5</ele><time>2026-05-02T15:07:48.999Z</time></trkpt><trkpt lat="44.75913522019446" lon="9.942819032049249"><ele>545.0</ele><time>2026-05-02T15:07:49.998Z</time></trkpt><trkpt lat="44.75912509994259" lon="9.942711463132076"><ele>545.0</ele><time>2026-05-02T15:07:50.998Z</time></trkpt><trkpt lat="44.75912289067254" lon="9.94259556886287"><ele>545.0</ele><time>2026-05-02T15:07:51.998Z</time></trkpt><trkpt lat="44.7591251945162" lon="9.942475428671326"><ele>545.0</ele><time>2026-05-02T15:07:53Z</time></trkpt><trkpt lat="44.75913782869744" lon="9.942351515098963"><ele>545.0</ele><time>2026-05-02T15:07:54Z</time></trkpt><trkpt lat="44.75916661334346" lon="9.942227740960057"><ele>545.0</ele><time>2026-05-02T15:07:55Z</time></trkpt><trkpt lat="44.759207001028564" lon="9.9421074153191"><ele>545.0</ele><time>2026-05-02T15:07:56Z</time></trkpt><trkpt lat="44.759258005548695" lon="9.941991914477944"><ele>545.6</ele><time>2026-05-02T15:07:57Z</time></trkpt><trkpt lat="44.759314407114424" lon="9.941882564716051"><ele>546.2</ele><time>2026-05-02T15:07:58Z</time></trkpt><trkpt lat="44.759373459882426" lon="9.941769062209312"><ele>546.8</ele><time>2026-05-02T15:07:59Z</time></trkpt><trkpt lat="44.75943421559784" lon="9.941651417501804"><ele>547.4</ele><time>2026-05-02T15:08:00Z</time></trkpt><trkpt lat="44.75949424748307" lon="9.941531383542927"><ele>548.0</ele><time>2026-05-02T15:08:01Z</time></trkpt><trkpt lat="44.75955168916365" lon="9.94140727409285"><ele>546.4</ele><time>2026-05-02T15:08:02Z</time></trkpt><trkpt lat="44.75961216507158" lon="9.941283047809558"><ele>544.8</ele><time>2026-05-02T15:08:03Z</time></trkpt><trkpt lat="44.7596769597865" lon="9.941159819267337"><ele>543.2</ele><time>2026-05-02T15:08:04Z</time></trkpt><trkpt lat="44.75974445749305" lon="9.941039905407814"><ele>541.6</ele><time>2026-05-02T15:08:05Z</time></trkpt><trkpt lat="44.75981691413295" lon="9.940923821679537"><ele>540.0</ele><time>2026-05-02T15:08:06Z</time></trkpt><trkpt lat="44.759891569422244" lon="9.940809529805536"><ele>540.0</ele><time>2026-05-02T15:08:07Z</time></trkpt><trkpt lat="44.759967524884644" lon="9.940691966996079"><ele>540.0</ele><time>2026-05-02T15:08:08Z</time></trkpt><trkpt lat="44.760043197615715" lon="9.940571842048701"><ele>540.0</ele><time>2026-05-02T15:08:09Z</time></trkpt><trkpt lat="44.760113829217296" lon="9.940462313343488"><ele>540.0</ele><time>2026-05-02T15:08:10Z</time></trkpt><trkpt lat="44.760198657537536" lon="9.94036208793178"><ele>540.0</ele><time>2026-05-02T15:08:11Z</time></trkpt><trkpt lat="44.76030463797544" lon="9.940301838508358"><ele>536.5</ele><time>2026-05-02T15:08:12Z</time></trkpt><trkpt lat="44.760415487487094" lon="9.940267478540754"><ele>533.0</ele><time>2026-05-02T15:08:13Z</time></trkpt><trkpt lat="44.76052523198384" lon="9.9402319594011"><ele>529.5</ele><time>2026-05-02T15:08:14Z</time></trkpt><trkpt lat="44.760634640563" lon="9.940188064107975"><ele>526.0</ele><time>2026-05-02T15:08:15Z</time></trkpt><trkpt lat="44.760740447248644" lon="9.940135098267227"><ele>526.0</ele><time>2026-05-02T15:08:16Z</time></trkpt><trkpt lat="44.76083355247784" lon="9.94008227210219"><ele>526.0</ele><time>2026-05-02T15:08:17Z</time></trkpt><trkpt lat="44.7609170254126" lon="9.940058794933998"><ele>526.0</ele><time>2026-05-02T15:08:18Z</time></trkpt><trkpt lat="44.76098552512676" lon="9.940083661900687"><ele>526.0</ele><time>2026-05-02T15:08:19Z</time></trkpt><trkpt lat="44.76100784421822" lon="9.940178393957892"><ele>526.0</ele><time>2026-05-02T15:08:20Z</time></trkpt><trkpt lat="44.760961629312014" lon="9.940339901243794"><ele>526.0</ele><time>2026-05-02T15:08:22Z</time></trkpt><trkpt lat="44.760909272176704" lon="9.940407525496411"><ele>526.0</ele><time>2026-05-02T15:08:23Z</time></trkpt><trkpt lat="44.76085417085671" lon="9.940491139628513"><ele>526.0</ele><time>2026-05-02T15:08:24Z</time></trkpt><trkpt lat="44.7607972177882" lon="9.940577028288118"><ele>526.0</ele><time>2026-05-02T15:08:25Z</time></trkpt><trkpt lat="44.760747259430055" lon="9.940683067876977"><ele>526.0</ele><time>2026-05-02T15:08:26Z</time></trkpt><trkpt lat="44.76068474848749" lon="9.940774363091323"><ele>526.0</ele><time>2026-05-02T15:08:27Z</time></trkpt><trkpt lat="44.76061430656718" lon="9.94085861178572"><ele>523.8</ele><time>2026-05-02T15:08:28Z</time></trkpt><trkpt lat="44.76055792884964" lon="9.940967471020834"><ele>521.6</ele><time>2026-05-02T15:08:29Z</time></trkpt><trkpt lat="44.76050811447211" lon="9.94109132953035"><ele>519.4</ele><time>2026-05-02T15:08:30Z</time></trkpt><trkpt lat="44.76046825058208" lon="9.94122386300437"><ele>517.2</ele><time>2026-05-02T15:08:31Z</time></trkpt><trkpt lat="44.760451792540024" lon="9.941366233200613"><ele>515.0</ele><time>2026-05-02T15:08:32Z</time></trkpt><trkpt lat="44.76042074397297" lon="9.94150390687838"><ele>515.0</ele><time>2026-05-02T15:08:33Z</time></trkpt><trkpt lat="44.76039247593136" lon="9.941644570581925"><ele>515.0</ele><time>2026-05-02T15:08:34Z</time></trkpt><trkpt lat="44.76036521983367" lon="9.941785050968724"><ele>515.0</ele><time>2026-05-02T15:08:35Z</time></trkpt><trkpt lat="44.76033673048532" lon="9.941926239058544"><ele>515.0</ele><time>2026-05-02T15:08:36Z</time></trkpt><trkpt lat="44.76031313795004" lon="9.942074153677746"><ele>515.0</ele><time>2026-05-02T15:08:37Z</time></trkpt><trkpt lat="44.76028846651342" lon="9.94222028235645"><ele>515.0</ele><time>2026-05-02T15:08:38Z</time></trkpt><trkpt lat="44.76026694481755" lon="9.942367083540729"><ele>515.0</ele><time>2026-05-02T15:08:39Z</time></trkpt><trkpt lat="44.760240869389165" lon="9.942508767219914"><ele>515.0</ele><time>2026-05-02T15:08:40Z</time></trkpt><trkpt lat="44.76025702493119" lon="9.94265578185491"><ele>515.0</ele><time>2026-05-02T15:08:41Z</time></trkpt><trkpt lat="44.76033145134014" lon="9.942770665111393"><ele>515.0</ele><time>2026-05-02T15:08:42Z</time></trkpt><trkpt lat="44.7603960276309" lon="9.942881409530282"><ele>515.0</ele><time>2026-05-02T15:08:43Z</time></trkpt><trkpt lat="44.76045950695906" lon="9.942993833778683"><ele>515.0</ele><time>2026-05-02T15:08:44Z</time></trkpt><trkpt lat="44.760518195336516" lon="9.94311218921531"><ele>515.0</ele><time>2026-05-02T15:08:45Z</time></trkpt><trkpt lat="44.76054314338537" lon="9.943252573691211"><ele>515.0</ele><time>2026-05-02T15:08:46Z</time></trkpt><trkpt lat="44.760587825443054" lon="9.943387177816039"><ele>515.0</ele><time>2026-05-02T15:08:47Z</time></trkpt><trkpt lat="44.76061644640622" lon="9.943531378486751"><ele>514.0</ele><time>2026-05-02T15:08:48Z</time></trkpt><trkpt lat="44.760651103664976" lon="9.943675187302201"><ele>513.0</ele><time>2026-05-02T15:08:49Z</time></trkpt><trkpt lat="44.760685592147574" lon="9.94381808362593"><ele>512.0</ele><time>2026-05-02T15:08:50Z</time></trkpt><trkpt lat="44.76073146597017" lon="9.943945727342227"><ele>511.0</ele><time>2026-05-02T15:08:51Z</time></trkpt><trkpt lat="44.76078879127979" lon="9.94403855571677"><ele>510.0</ele><time>2026-05-02T15:08:52Z</time></trkpt><trkpt lat="44.76085253537588" lon="9.94408348585559"><ele>510.0</ele><time>2026-05-02T15:08:53Z</time></trkpt><trkpt lat="44.76092369972311" lon="9.944068933939961"><ele>510.0</ele><time>2026-05-02T15:08:54Z</time></trkpt><trkpt lat="44.76098225579714" lon="9.943991637509209"><ele>510.0</ele><time>2026-05-02T15:08:55Z</time></trkpt><trkpt lat="44.761014433649706" lon="9.943886604117104"><ele>510.0</ele><time>2026-05-02T15:08:56Z</time></trkpt><trkpt lat="44.76103657782274" lon="9.9437794831941"><ele>510.0</ele><time>2026-05-02T15:08:57Z</time></trkpt><trkpt lat="44.76105534808672" lon="9.943671202337207"><ele>510.0</ele><time>2026-05-02T15:08:57.999Z</time></trkpt><trkpt lat="44.761070374480646" lon="9.943558211232691"><ele>510.8333333333333</ele><time>2026-05-02T15:08:58.999Z</time></trkpt><trkpt lat="44.76107503756311" lon="9.943444338513538"><ele>511.66666666666663</ele><time>2026-05-02T15:08:59.999Z</time></trkpt><trkpt lat="44.76106865584705" lon="9.94332694292522"><ele>512.5</ele><time>2026-05-02T15:09:00.999Z</time></trkpt><trkpt lat="44.76104696067394" lon="9.943207135029612"><ele>513.3333333333333</ele><time>2026-05-02T15:09:01.999Z</time></trkpt><trkpt lat="44.76101382472736" lon="9.943089097377255"><ele>514.1666666666666</ele><time>2026-05-02T15:09:02.999Z</time></trkpt><trkpt lat="44.760983511895525" lon="9.942966266946225"><ele>515.0</ele><time>2026-05-02T15:09:03.999Z</time></trkpt><trkpt lat="44.760974170930886" lon="9.94283493283142"><ele>515.0</ele><time>2026-05-02T15:09:04.999Z</time></trkpt><trkpt lat="44.760983807114684" lon="9.942698654874743"><ele>515.0</ele><time>2026-05-02T15:09:05.999Z</time></trkpt><trkpt lat="44.76101740599559" lon="9.942566618135672"><ele>515.0</ele><time>2026-05-02T15:09:06.999Z</time></trkpt><trkpt lat="44.761070594200234" lon="9.942443433048556"><ele>515.0</ele><time>2026-05-02T15:09:07.999Z</time></trkpt><trkpt lat="44.7611336100797" lon="9.942328227852899"><ele>515.0</ele><time>2026-05-02T15:09:08.999Z</time></trkpt><trkpt lat="44.76119837728206" lon="9.942213503993772"><ele>512.4</ele><time>2026-05-02T15:09:09.999Z</time></trkpt><trkpt lat="44.7612666948198" lon="9.942093558878279"><ele>509.8</ele><time>2026-05-02T15:09:10.999Z</time></trkpt><trkpt lat="44.761334389023666" lon="9.941973562153233"><ele>507.20000000000005</ele><time>2026-05-02T15:09:11.999Z</time></trkpt><trkpt lat="44.76141033881724" lon="9.941862966956547"><ele>504.6</ele><time>2026-05-02T15:09:12.999Z</time></trkpt><trkpt lat="44.761501940028765" lon="9.941773287863684"><ele>502.0</ele><time>2026-05-02T15:09:13.999Z</time></trkpt><trkpt lat="44.761604594565256" lon="9.941704125470162"><ele>502.0</ele><time>2026-05-02T15:09:14.999Z</time></trkpt><trkpt lat="44.76171460202064" lon="9.941661508898695"><ele>502.00000000000006</ele><time>2026-05-02T15:09:15.999Z</time></trkpt><trkpt lat="44.76182432288202" lon="9.941650905560088"><ele>502.00000000000006</ele><time>2026-05-02T15:09:16.999Z</time></trkpt><trkpt lat="44.761931998973544" lon="9.94166699262409"><ele>502.0</ele><time>2026-05-02T15:09:17.999Z</time></trkpt><trkpt lat="44.76204188467868" lon="9.941684748735664"><ele>502.0</ele><time>2026-05-02T15:09:18.999Z</time></trkpt><trkpt lat="44.762144885744355" lon="9.941663217087648"><ele>499.8</ele><time>2026-05-02T15:09:19.999Z</time></trkpt><trkpt lat="44.76224065571811" lon="9.941595269239574"><ele>497.6</ele><time>2026-05-02T15:09:20.999Z</time></trkpt><trkpt lat="44.76232410916071" lon="9.941494171209488"><ele>495.40000000000003</ele><time>2026-05-02T15:09:21.999Z</time></trkpt><trkpt lat="44.76239454361752" lon="9.941370968188968"><ele>493.20000000000005</ele><time>2026-05-02T15:09:22.999Z</time></trkpt><trkpt lat="44.76245911199724" lon="9.941245911451936"><ele>491.0</ele><time>2026-05-02T15:09:23.999Z</time></trkpt><trkpt lat="44.762521342866904" lon="9.941136747877154"><ele>491.0</ele><time>2026-05-02T15:09:24.999Z</time></trkpt><trkpt lat="44.76259502999038" lon="9.941055769980947"><ele>491.0</ele><time>2026-05-02T15:09:25.999Z</time></trkpt><trkpt lat="44.762688912588565" lon="9.941020583902366"><ele>491.0</ele><time>2026-05-02T15:09:26.999Z</time></trkpt><trkpt lat="44.762786478790524" lon="9.94103761514917"><ele>491.0</ele><time>2026-05-02T15:09:27.999Z</time></trkpt><trkpt lat="44.76287814183012" lon="9.941095413227245"><ele>491.0</ele><time>2026-05-02T15:09:28.999Z</time></trkpt><trkpt lat="44.762966608924636" lon="9.941156112695163"><ele>488.4</ele><time>2026-05-02T15:09:29.999Z</time></trkpt><trkpt lat="44.76305905486305" lon="9.941195112232231"><ele>485.8</ele><time>2026-05-02T15:09:30.999Z</time></trkpt><trkpt lat="44.76315832240519" lon="9.941197979428468"><ele>483.19999999999993</ele><time>2026-05-02T15:09:31.999Z</time></trkpt><trkpt lat="44.76325812220244" lon="9.941162797491536"><ele>480.59999999999997</ele><time>2026-05-02T15:09:32.999Z</time></trkpt><trkpt lat="44.76335350990561" lon="9.941102100069871"><ele>478.0</ele><time>2026-05-02T15:09:33.999Z</time></trkpt><trkpt lat="44.763446923683176" lon="9.941039099587517"><ele>476.59999999999997</ele><time>2026-05-02T15:09:34.999Z</time></trkpt><trkpt lat="44.76354558039083" lon="9.94098008109365"><ele>475.19999999999993</ele><time>2026-05-02T15:09:35.999Z</time></trkpt><trkpt lat="44.763639673396824" lon="9.940905449535563"><ele>473.8</ele><time>2026-05-02T15:09:36.999Z</time></trkpt><trkpt lat="44.76372162873968" lon="9.940809066738192"><ele>472.4</ele><time>2026-05-02T15:09:37.999Z</time></trkpt><trkpt lat="44.763783156635775" lon="9.940694885004515"><ele>471.0</ele><time>2026-05-02T15:09:38.999Z</time></trkpt><trkpt lat="44.76382471315207" lon="9.940579278514786"><ele>471.0</ele><time>2026-05-02T15:09:39.999Z</time></trkpt><trkpt lat="44.76386215697563" lon="9.940489403113432"><ele>471.0</ele><time>2026-05-02T15:09:40.999Z</time></trkpt><trkpt lat="44.763968879735714" lon="9.940463349782565"><ele>471.0</ele><time>2026-05-02T15:09:42.999Z</time></trkpt><trkpt lat="44.76400469828804" lon="9.940559059355499"><ele>471.0</ele><time>2026-05-02T15:09:43.999Z</time></trkpt><trkpt lat="44.763946870517195" lon="9.940651434461444"><ele>471.0</ele><time>2026-05-02T15:09:44.999Z</time></trkpt><trkpt lat="44.76391808390688" lon="9.940740040669345"><ele>471.0</ele><time>2026-05-02T15:09:45.999Z</time></trkpt><trkpt lat="44.76389051106346" lon="9.94085655241586"><ele>469.3333333333333</ele><time>2026-05-02T15:09:46.999Z</time></trkpt><trkpt lat="44.763854213568706" lon="9.940956672942072"><ele>467.66666666666663</ele><time>2026-05-02T15:09:47.999Z</time></trkpt><trkpt lat="44.76379369819544" lon="9.941033916886507"><ele>466.0</ele><time>2026-05-02T15:09:48.999Z</time></trkpt><trkpt lat="44.76374761660559" lon="9.941145471411954"><ele>464.3333333333333</ele><time>2026-05-02T15:09:49.999Z</time></trkpt><trkpt lat="44.76368723477571" lon="9.941241569590888"><ele>462.66666666666663</ele><time>2026-05-02T15:09:50.999Z</time></trkpt><trkpt lat="44.763627864522924" lon="9.941357817111948"><ele>461.0</ele><time>2026-05-02T15:09:51.999Z</time></trkpt><trkpt lat="44.763572681976875" lon="9.941475960150443"><ele>462.0</ele><time>2026-05-02T15:09:52.998Z</time></trkpt><trkpt lat="44.76351339564286" lon="9.941590265225978"><ele>463.0</ele><time>2026-05-02T15:09:53.998Z</time></trkpt><trkpt lat="44.763450527170285" lon="9.941712931956914"><ele>464.0</ele><time>2026-05-02T15:09:54.998Z</time></trkpt><trkpt lat="44.76338502089804" lon="9.941840089385705"><ele>465.0</ele><time>2026-05-02T15:09:55.998Z</time></trkpt><trkpt lat="44.763317958940604" lon="9.941973718117985"><ele>466.0</ele><time>2026-05-02T15:09:56.998Z</time></trkpt><trkpt lat="44.763255989661516" lon="9.94210467154412"><ele>466.0</ele><time>2026-05-02T15:09:57.998Z</time></trkpt><trkpt lat="44.76319696296631" lon="9.942238614080694"><ele>466.0</ele><time>2026-05-02T15:09:59Z</time></trkpt><trkpt lat="44.76314252262277" lon="9.942368482417466"><ele>466.0</ele><time>2026-05-02T15:10:00Z</time></trkpt><trkpt lat="44.76310060452339" lon="9.942481748237066"><ele>466.0</ele><time>2026-05-02T15:10:01Z</time></trkpt><trkpt lat="44.76307766861042" lon="9.942611494096106"><ele>466.0</ele><time>2026-05-02T15:10:02Z</time></trkpt><trkpt lat="44.76309654284735" lon="9.942724503651478"><ele>465.6</ele><time>2026-05-02T15:10:03Z</time></trkpt><trkpt lat="44.76316522811426" lon="9.942803919893285"><ele>465.20000000000005</ele><time>2026-05-02T15:10:04Z</time></trkpt><trkpt lat="44.763228562509525" lon="9.942841182468197"><ele>464.79999999999995</ele><time>2026-05-02T15:10:05Z</time></trkpt><trkpt lat="44.763338517770606" lon="9.94282890177987"><ele>464.4</ele><time>2026-05-02T15:10:06Z</time></trkpt><trkpt lat="44.76343719026616" lon="9.942790478317514"><ele>464.0</ele><time>2026-05-02T15:10:07Z</time></trkpt><trkpt lat="44.763554352991385" lon="9.942682043324497"><ele>462.2</ele><time>2026-05-02T15:10:08Z</time></trkpt><trkpt lat="44.763651032450454" lon="9.942628400859936"><ele>460.4</ele><time>2026-05-02T15:10:09Z</time></trkpt><trkpt lat="44.763749160036255" lon="9.942561005170251"><ele>458.6</ele><time>2026-05-02T15:10:10Z</time></trkpt><trkpt lat="44.763845026457766" lon="9.942477102283801"><ele>456.8</ele><time>2026-05-02T15:10:11Z</time></trkpt><trkpt lat="44.7639394058068" lon="9.942380717270424"><ele>455.0</ele><time>2026-05-02T15:10:12Z</time></trkpt><trkpt lat="44.764030512864835" lon="9.94227684200647"><ele>455.0</ele><time>2026-05-02T15:10:13Z</time></trkpt><trkpt lat="44.76413043703158" lon="9.942176538266416"><ele>455.0</ele><time>2026-05-02T15:10:14Z</time></trkpt><trkpt lat="44.76423693733753" lon="9.942090748929301"><ele>455.0</ele><time>2026-05-02T15:10:15Z</time></trkpt><trkpt lat="44.76434953104378" lon="9.942010581398199"><ele>455.0</ele><time>2026-05-02T15:10:16Z</time></trkpt><trkpt lat="44.764463522114724" lon="9.941928872242046"><ele>452.25</ele><time>2026-05-02T15:10:17Z</time></trkpt><trkpt lat="44.76457695986807" lon="9.941840543376305"><ele>449.5</ele><time>2026-05-02T15:10:18Z</time></trkpt><trkpt lat="44.76469361204719" lon="9.941749709584903"><ele>446.75</ele><time>2026-05-02T15:10:19Z</time></trkpt><trkpt lat="44.764810503695244" lon="9.941661794124968"><ele>444.0</ele><time>2026-05-02T15:10:20Z</time></trkpt><trkpt lat="44.7649263013099" lon="9.941567690635406"><ele>444.0</ele><time>2026-05-02T15:10:21Z</time></trkpt><trkpt lat="44.765044093637854" lon="9.941473295349567"><ele>444.0</ele><time>2026-05-02T15:10:22Z</time></trkpt><trkpt lat="44.765166451904555" lon="9.941382336876687"><ele>444.0</ele><time>2026-05-02T15:10:23Z</time></trkpt><trkpt lat="44.76528857350425" lon="9.941294637674531"><ele>444.0</ele><time>2026-05-02T15:10:24Z</time></trkpt><trkpt lat="44.76540739295709" lon="9.9412019312143"><ele>441.0</ele><time>2026-05-02T15:10:25Z</time></trkpt><trkpt lat="44.76552799932262" lon="9.94111035495913"><ele>438.0</ele><time>2026-05-02T15:10:26Z</time></trkpt><trkpt lat="44.76565064566329" lon="9.941022148140707"><ele>435.0</ele><time>2026-05-02T15:10:27Z</time></trkpt><trkpt lat="44.765775998015286" lon="9.940944570510089"><ele>432.0</ele><time>2026-05-02T15:10:28Z</time></trkpt><trkpt lat="44.76590815083031" lon="9.94088355517951"><ele>432.0</ele><time>2026-05-02T15:10:29Z</time></trkpt><trkpt lat="44.76603774432569" lon="9.940839272875955"><ele>432.0</ele><time>2026-05-02T15:10:30Z</time></trkpt><trkpt lat="44.76616784534198" lon="9.94078823963384"><ele>432.0</ele><time>2026-05-02T15:10:31Z</time></trkpt><trkpt lat="44.76629552826336" lon="9.940729424513448"><ele>432.0</ele><time>2026-05-02T15:10:32Z</time></trkpt><trkpt lat="44.76642205838101" lon="9.940666837542743"><ele>432.0</ele><time>2026-05-02T15:10:33Z</time></trkpt><trkpt lat="44.76654632457248" lon="9.940610020127645"><ele>432.0</ele><time>2026-05-02T15:10:34Z</time></trkpt><trkpt lat="44.766678181552294" lon="9.940565313145902"><ele>432.0</ele><time>2026-05-02T15:10:35Z</time></trkpt><trkpt lat="44.766810033801534" lon="9.940536040554557"><ele>432.0</ele><time>2026-05-02T15:10:36Z</time></trkpt><trkpt lat="44.76694698357532" lon="9.940501623042334"><ele>431.25</ele><time>2026-05-02T15:10:37Z</time></trkpt><trkpt lat="44.76708083678675" lon="9.940473240942628"><ele>430.5</ele><time>2026-05-02T15:10:38Z</time></trkpt><trkpt lat="44.76721432804775" lon="9.940447048821495"><ele>429.75</ele><time>2026-05-02T15:10:39Z</time></trkpt><trkpt lat="44.767347795060225" lon="9.940416551639881"><ele>429.0</ele><time>2026-05-02T15:10:40Z</time></trkpt><trkpt lat="44.7674797348325" lon="9.940384870419681"><ele>429.0</ele><time>2026-05-02T15:10:41Z</time></trkpt><trkpt lat="44.76760780353282" lon="9.940354754482936"><ele>429.0</ele><time>2026-05-02T15:10:42Z</time></trkpt><trkpt lat="44.76773301687018" lon="9.940331549665622"><ele>429.0</ele><time>2026-05-02T15:10:43Z</time></trkpt><trkpt lat="44.7678552345646" lon="9.940323518377868"><ele>429.0</ele><time>2026-05-02T15:10:44Z</time></trkpt><trkpt lat="44.767972638207034" lon="9.940351751279174"><ele>428.0</ele><time>2026-05-02T15:10:45Z</time></trkpt><trkpt lat="44.76808910139915" lon="9.940399741984788"><ele>427.0</ele><time>2026-05-02T15:10:46Z</time></trkpt><trkpt lat="44.76820209070921" lon="9.9404609123657"><ele>426.0</ele><time>2026-05-02T15:10:47Z</time></trkpt><trkpt lat="44.76830945771245" lon="9.940541072480386"><ele>425.0</ele><time>2026-05-02T15:10:48Z</time></trkpt><trkpt lat="44.76839976969865" lon="9.9406473903034"><ele>425.0</ele><time>2026-05-02T15:10:49Z</time></trkpt><trkpt lat="44.76846038202496" lon="9.940804242015409"><ele>425.0</ele><time>2026-05-02T15:10:50Z</time></trkpt><trkpt lat="44.76850647383334" lon="9.940951861550339"><ele>425.0</ele><time>2026-05-02T15:10:51Z</time></trkpt><trkpt lat="44.768540106403755" lon="9.941121791892419"><ele>425.0</ele><time>2026-05-02T15:10:52Z</time></trkpt><trkpt lat="44.76857653432166" lon="9.941284211202777"><ele>422.5</ele><time>2026-05-02T15:10:53Z</time></trkpt><trkpt lat="44.7686425442505" lon="9.941427459362066"><ele>420.0</ele><time>2026-05-02T15:10:54Z</time></trkpt><trkpt lat="44.76872288990026" lon="9.941555539402568"><ele>417.5</ele><time>2026-05-02T15:10:55Z</time></trkpt><trkpt lat="44.76883226090516" lon="9.941639268276909"><ele>415.0</ele><time>2026-05-02T15:10:56Z</time></trkpt><trkpt lat="44.768951093546626" lon="9.941692074607216"><ele>414.0</ele><time>2026-05-02T15:10:57Z</time></trkpt><trkpt lat="44.76907062373701" lon="9.941739057576248"><ele>413.0</ele><time>2026-05-02T15:10:58Z</time></trkpt><trkpt lat="44.7691902638101" lon="9.941778516875683"><ele>412.0</ele><time>2026-05-02T15:10:59Z</time></trkpt><trkpt lat="44.76931205422816" lon="9.941801452574714"><ele>411.0</ele><time>2026-05-02T15:11:00Z</time></trkpt><trkpt lat="44.769438623966984" lon="9.941798864089415"><ele>411.25</ele><time>2026-05-02T15:11:00.999Z</time></trkpt><trkpt lat="44.76956244613174" lon="9.94176213340163"><ele>411.5</ele><time>2026-05-02T15:11:01.999Z</time></trkpt><trkpt lat="44.769675908024375" lon="9.941686558019327"><ele>411.75</ele><time>2026-05-02T15:11:02.999Z</time></trkpt><trkpt lat="44.76978009490628" lon="9.941579362665587"><ele>412.0</ele><time>2026-05-02T15:11:03.999Z</time></trkpt><trkpt lat="44.7698732607807" lon="9.941457180478915"><ele>412.0</ele><time>2026-05-02T15:11:04.999Z</time></trkpt><trkpt lat="44.76995774505972" lon="9.941317069353534"><ele>412.0</ele><time>2026-05-02T15:11:05.999Z</time></trkpt><trkpt lat="44.770022103339365" lon="9.941162954502134"><ele>412.0</ele><time>2026-05-02T15:11:06.999Z</time></trkpt><trkpt lat="44.77007723978426" lon="9.941000470901427"><ele>412.0</ele><time>2026-05-02T15:11:07.999Z</time></trkpt><trkpt lat="44.77012809881958" lon="9.94083769658998"><ele>410.75</ele><time>2026-05-02T15:11:08.999Z</time></trkpt><trkpt lat="44.770182106512145" lon="9.940678905858768"><ele>409.5</ele><time>2026-05-02T15:11:09.999Z</time></trkpt><trkpt lat="44.77024146432353" lon="9.940540930384426"><ele>408.25</ele><time>2026-05-02T15:11:10.999Z</time></trkpt><trkpt lat="44.770324465988985" lon="9.940435714970175"><ele>407.0</ele><time>2026-05-02T15:11:11.999Z</time></trkpt><trkpt lat="44.770438979879465" lon="9.940372477681729"><ele>403.5</ele><time>2026-05-02T15:11:12.999Z</time></trkpt><trkpt lat="44.77056559970858" lon="9.940338373678891"><ele>400.0</ele><time>2026-05-02T15:11:13.999Z</time></trkpt><trkpt lat="44.7706861718858" lon="9.940305913236385"><ele>396.5</ele><time>2026-05-02T15:11:14.999Z</time></trkpt><trkpt lat="44.7708017241993" lon="9.94024578154225"><ele>393.0</ele><time>2026-05-02T15:11:15.999Z</time></trkpt><trkpt lat="44.7709117263707" lon="9.940147575883897"><ele>393.5</ele><time>2026-05-02T15:11:16.999Z</time></trkpt><trkpt lat="44.77101636053157" lon="9.94004519543592"><ele>394.0</ele><time>2026-05-02T15:11:17.999Z</time></trkpt><trkpt lat="44.77112717162706" lon="9.93995264905159"><ele>394.5</ele><time>2026-05-02T15:11:18.999Z</time></trkpt><trkpt lat="44.7712462746867" lon="9.939882725093126"><ele>395.0</ele><time>2026-05-02T15:11:19.999Z</time></trkpt><trkpt lat="44.771357026957475" lon="9.939825083591321"><ele>391.6</ele><time>2026-05-02T15:11:20.999Z</time></trkpt><trkpt lat="44.77145941254457" lon="9.939782300992139"><ele>388.2</ele><time>2026-05-02T15:11:21.999Z</time></trkpt><trkpt lat="44.77155593950955" lon="9.939734360223401"><ele>384.79999999999995</ele><time>2026-05-02T15:11:22.999Z</time></trkpt><trkpt lat="44.7716454286872" lon="9.939672598261902"><ele>381.4</ele><time>2026-05-02T15:11:23.999Z</time></trkpt><trkpt lat="44.771722138601014" lon="9.939579085622352"><ele>378.0</ele><time>2026-05-02T15:11:24.999Z</time></trkpt><trkpt lat="44.77177785685554" lon="9.939452819183602"><ele>378.0</ele><time>2026-05-02T15:11:25.999Z</time></trkpt><trkpt lat="44.771811340524856" lon="9.939307281874903"><ele>378.0</ele><time>2026-05-02T15:11:26.999Z</time></trkpt><trkpt lat="44.771823873059475" lon="9.93914993818657"><ele>378.0</ele><time>2026-05-02T15:11:27.999Z</time></trkpt><trkpt lat="44.771808506785995" lon="9.93899580411029"><ele>378.0</ele><time>2026-05-02T15:11:28.999Z</time></trkpt><trkpt lat="44.77177162106775" lon="9.938860146525485"><ele>378.0</ele><time>2026-05-02T15:11:29.999Z</time></trkpt><trkpt lat="44.77171013301148" lon="9.938752889667454"><ele>380.59999999999997</ele><time>2026-05-02T15:11:30.999Z</time></trkpt><trkpt lat="44.771627132345124" lon="9.938661995711106"><ele>383.2</ele><time>2026-05-02T15:11:31.999Z</time></trkpt><trkpt lat="44.77153595910666" lon="9.938581330314882"><ele>385.8</ele><time>2026-05-02T15:11:32.999Z</time></trkpt><trkpt lat="44.771439878254256" lon="9.93853033123759"><ele>388.4</ele><time>2026-05-02T15:11:33.999Z</time></trkpt><trkpt lat="44.77133131007592" lon="9.938539258856563"><ele>391.0</ele><time>2026-05-02T15:11:34.999Z</time></trkpt><trkpt lat="44.771225364164486" lon="9.938590961234542"><ele>391.0</ele><time>2026-05-02T15:11:35.999Z</time></trkpt><trkpt lat="44.77111603619819" lon="9.938618283746285"><ele>391.0</ele><time>2026-05-02T15:11:36.999Z</time></trkpt><trkpt lat="44.77100990354167" lon="9.938653548437953"><ele>391.0</ele><time>2026-05-02T15:11:37.999Z</time></trkpt><trkpt lat="44.770905955677925" lon="9.938672644470609"><ele>391.0</ele><time>2026-05-02T15:11:38.999Z</time></trkpt><trkpt lat="44.77080781252123" lon="9.938669256265383"><ele>391.0</ele><time>2026-05-02T15:11:39.999Z</time></trkpt><trkpt lat="44.770727378824695" lon="9.938619084070144"><ele>390.8</ele><time>2026-05-02T15:11:40.999Z</time></trkpt><trkpt lat="44.77065017526361" lon="9.938545593326943"><ele>390.6</ele><time>2026-05-02T15:11:41.999Z</time></trkpt><trkpt lat="44.77055708227939" lon="9.938477425257478"><ele>390.4</ele><time>2026-05-02T15:11:42.999Z</time></trkpt><trkpt lat="44.77047188815108" lon="9.938386668678465"><ele>390.2</ele><time>2026-05-02T15:11:43.999Z</time></trkpt><trkpt lat="44.77037938712776" lon="9.93830929971687"><ele>390.0</ele><time>2026-05-02T15:11:44.999Z</time></trkpt><trkpt lat="44.770290525462435" lon="9.938225021187247"><ele>387.8</ele><time>2026-05-02T15:11:45.999Z</time></trkpt><trkpt lat="44.77020751157123" lon="9.93814197206597"><ele>385.6</ele><time>2026-05-02T15:11:46.999Z</time></trkpt><trkpt lat="44.770151138497106" lon="9.93803320769621"><ele>383.4</ele><time>2026-05-02T15:11:47.999Z</time></trkpt><trkpt lat="44.770131209866825" lon="9.93790869603391"><ele>381.2</ele><time>2026-05-02T15:11:48.999Z</time></trkpt><trkpt lat="44.77015173551122" lon="9.937783529865122"><ele>379.0</ele><time>2026-05-02T15:11:49.999Z</time></trkpt><trkpt lat="44.770215102386494" lon="9.93768030024375"><ele>379.0</ele><time>2026-05-02T15:11:50.999Z</time></trkpt><trkpt lat="44.770300247395504" lon="9.937619058607009"><ele>379.0</ele><time>2026-05-02T15:11:51.999Z</time></trkpt><trkpt lat="44.77039320570132" lon="9.937609562971778"><ele>379.0</ele><time>2026-05-02T15:11:52.999Z</time></trkpt><trkpt lat="44.77048517410667" lon="9.93764235469163"><ele>379.0</ele><time>2026-05-02T15:11:53.999Z</time></trkpt><trkpt lat="44.77055421534731" lon="9.937724501892847"><ele>379.0</ele><time>2026-05-02T15:11:54.999Z</time></trkpt><trkpt lat="44.77057606575924" lon="9.937864721970598"><ele>379.0</ele><time>2026-05-02T15:11:55.998Z</time></trkpt><trkpt lat="44.77063015100091" lon="9.937966190263545"><ele>379.0</ele><time>2026-05-02T15:11:56.998Z</time></trkpt><trkpt lat="44.77070437456636" lon="9.938046000579035"><ele>379.0</ele><time>2026-05-02T15:11:57.998Z</time></trkpt><trkpt lat="44.77079943286414" lon="9.938097751149973"><ele>379.0</ele><time>2026-05-02T15:11:58.998Z</time></trkpt><trkpt lat="44.77090426865682" lon="9.938081171642292"><ele>379.0</ele><time>2026-05-02T15:11:59.998Z</time></trkpt><trkpt lat="44.77099489305607" lon="9.938007620224713"><ele>378.79999999999995</ele><time>2026-05-02T15:12:00.998Z</time></trkpt><trkpt lat="44.77106406999267" lon="9.937905164180814"><ele>378.59999999999997</ele><time>2026-05-02T15:12:01.998Z</time></trkpt><trkpt lat="44.77112410969679" lon="9.937796434706426"><ele>378.4</ele><time>2026-05-02T15:12:02.998Z</time></trkpt><trkpt lat="44.771194160434995" lon="9.937705469002088"><ele>378.2</ele><time>2026-05-02T15:12:04Z</time></trkpt><trkpt lat="44.77128215525453" lon="9.937634463443953"><ele>378.0</ele><time>2026-05-02T15:12:05Z</time></trkpt><trkpt lat="44.77138438614274" lon="9.937604478288643"><ele>378.0</ele><time>2026-05-02T15:12:06Z</time></trkpt><trkpt lat="44.77148076031476" lon="9.937634159499492"><ele>378.0</ele><time>2026-05-02T15:12:07Z</time></trkpt><trkpt lat="44.77156997720057" lon="9.937686699625326"><ele>378.0</ele><time>2026-05-02T15:12:08Z</time></trkpt><trkpt lat="44.77164511741094" lon="9.937728385738835"><ele>378.0</ele><time>2026-05-02T15:12:09Z</time></trkpt><trkpt lat="44.771709084175924" lon="9.937714123978951"><ele>378.0</ele><time>2026-05-02T15:12:10Z</time></trkpt><trkpt lat="44.771744905151586" lon="9.9376324584088"><ele>378.0</ele><time>2026-05-02T15:12:11Z</time></trkpt><trkpt lat="44.77172778759062" lon="9.937529422609304"><ele>375.42857142857144</ele><time>2026-05-02T15:12:12Z</time></trkpt><trkpt lat="44.77166596170508" lon="9.93746033463816"><ele>372.8571428571429</ele><time>2026-05-02T15:12:13Z</time></trkpt><trkpt lat="44.77159153242318" lon="9.937433626121859"><ele>370.2857142857143</ele><time>2026-05-02T15:12:14Z</time></trkpt><trkpt lat="44.771521630533606" lon="9.937423276196991"><ele>367.7142857142857</ele><time>2026-05-02T15:12:15Z</time></trkpt><trkpt lat="44.77145593252548" lon="9.937413829805783"><ele>365.14285714285717</ele><time>2026-05-02T15:12:16Z</time></trkpt><trkpt lat="44.77138817466213" lon="9.937402028617157"><ele>362.57142857142856</ele><time>2026-05-02T15:12:17Z</time></trkpt><trkpt lat="44.77132245759228" lon="9.937361603860516"><ele>360.0</ele><time>2026-05-02T15:12:18Z</time></trkpt><trkpt lat="44.7712538734292" lon="9.93734301278045"><ele>360.0</ele><time>2026-05-02T15:12:19Z</time></trkpt><trkpt lat="44.771184191030756" lon="9.937319814494618"><ele>360.0</ele><time>2026-05-02T15:12:20Z</time></trkpt><trkpt lat="44.77112331684215" lon="9.937198182066565"><ele>360.0</ele><time>2026-05-02T15:12:22Z</time></trkpt><trkpt lat="44.771169230450106" lon="9.937116303067352"><ele>360.0</ele><time>2026-05-02T15:12:23Z</time></trkpt><trkpt lat="44.77125598049296" lon="9.937096736915183"><ele>360.0</ele><time>2026-05-02T15:12:24Z</time></trkpt><trkpt lat="44.771343091841224" lon="9.937128211615097"><ele>360.0</ele><time>2026-05-02T15:12:25Z</time></trkpt><trkpt lat="44.771423467697375" lon="9.937168846242292"><ele>360.0</ele><time>2026-05-02T15:12:26Z</time></trkpt><trkpt lat="44.77150572546151" lon="9.937197728404918"><ele>360.0</ele><time>2026-05-02T15:12:27Z</time></trkpt><trkpt lat="44.77159085029778" lon="9.937220795165072"><ele>360.0</ele><time>2026-05-02T15:12:28Z</time></trkpt><trkpt lat="44.77168305038759" lon="9.937254605543346"><ele>360.0</ele><time>2026-05-02T15:12:29Z</time></trkpt><trkpt lat="44.77177975916785" lon="9.93728330474139"><ele>360.0</ele><time>2026-05-02T15:12:30Z</time></trkpt><trkpt lat="44.77187465627842" lon="9.937309153196985"><ele>358.2</ele><time>2026-05-02T15:12:31Z</time></trkpt><trkpt lat="44.77197646981181" lon="9.937338614509269"><ele>356.4</ele><time>2026-05-02T15:12:32Z</time></trkpt><trkpt lat="44.7720826867395" lon="9.937374440033741"><ele>354.6</ele><time>2026-05-02T15:12:33Z</time></trkpt><trkpt lat="44.77218917351641" lon="9.937408420828499"><ele>352.8</ele><time>2026-05-02T15:12:34Z</time></trkpt><trkpt lat="44.772294696602195" lon="9.937442974407409"><ele>351.0</ele><time>2026-05-02T15:12:35Z</time></trkpt><trkpt lat="44.77239602962304" lon="9.937479858354362"><ele>351.0</ele><time>2026-05-02T15:12:36Z</time></trkpt><trkpt lat="44.772487743565996" lon="9.937527555751215"><ele>351.0</ele><time>2026-05-02T15:12:37Z</time></trkpt><trkpt lat="44.77257793845218" lon="9.937574939643815"><ele>351.0</ele><time>2026-05-02T15:12:38Z</time></trkpt><trkpt lat="44.77266785917426" lon="9.937617691816984"><ele>351.0</ele><time>2026-05-02T15:12:39Z</time></trkpt><trkpt lat="44.772747557179564" lon="9.937656566310766"><ele>351.0</ele><time>2026-05-02T15:12:40Z</time></trkpt><trkpt lat="44.77281771082327" lon="9.937679324402554"><ele>351.0</ele><time>2026-05-02T15:12:41Z</time></trkpt><trkpt lat="44.772913489354856" lon="9.937564592765996"><ele>351.00000000000006</ele><time>2026-05-02T15:12:43Z</time></trkpt><trkpt lat="44.77288636949626" lon="9.937452547012068"><ele>351.0</ele><time>2026-05-02T15:12:44Z</time></trkpt><trkpt lat="44.772830818122635" lon="9.93737819950561"><ele>351.0</ele><time>2026-05-02T15:12:45Z</time></trkpt><trkpt lat="44.77276220833559" lon="9.937337450128908"><ele>351.0</ele><time>2026-05-02T15:12:46Z</time></trkpt><trkpt lat="44.77270014810425" lon="9.937292633789793"><ele>351.0</ele><time>2026-05-02T15:12:47Z</time></trkpt><trkpt lat="44.772637980237064" lon="9.937239798488338"><ele>351.00000000000006</ele><time>2026-05-02T15:12:48Z</time></trkpt><trkpt lat="44.77258225434072" lon="9.937177681440318"><ele>351.0</ele><time>2026-05-02T15:12:49Z</time></trkpt><trkpt lat="44.77255935639129" lon="9.93708852476023"><ele>351.0</ele><time>2026-05-02T15:12:50Z</time></trkpt><trkpt lat="44.77258885097709" lon="9.93699660342979"><ele>351.0</ele><time>2026-05-02T15:12:51Z</time></trkpt><trkpt lat="44.77266016244556" lon="9.936956291366311"><ele>351.0</ele><time>2026-05-02T15:12:52Z</time></trkpt><trkpt lat="44.77274128247293" lon="9.936977776895777"><ele>351.0</ele><time>2026-05-02T15:12:53Z</time></trkpt><trkpt lat="44.77280974935923" lon="9.937025990751726"><ele>351.0</ele><time>2026-05-02T15:12:54Z</time></trkpt><trkpt lat="44.77288239494069" lon="9.937076806926902"><ele>351.0</ele><time>2026-05-02T15:12:55Z</time></trkpt><trkpt lat="44.77295645946753" lon="9.937130243984793"><ele>348.5</ele><time>2026-05-02T15:12:56Z</time></trkpt><trkpt lat="44.773027036605214" lon="9.937179523634914"><ele>346.0</ele><time>2026-05-02T15:12:57Z</time></trkpt><trkpt lat="44.77309631031703" lon="9.937222354741504"><ele>343.5</ele><time>2026-05-02T15:12:58Z</time></trkpt><trkpt lat="44.77319592224787" lon="9.937294383082115"><ele>341.0</ele><time>2026-05-02T15:13:00Z</time></trkpt><trkpt lat="44.7732359980059" lon="9.937371132579846"><ele>338.5</ele><time>2026-05-02T15:13:02Z</time></trkpt><trkpt lat="44.77332606208123" lon="9.937381937246826"><ele>336.0</ele><time>2026-05-02T15:22:21.998Z</time></trkpt><trkpt lat="44.773425490014" lon="9.937380142647902"><ele>336.0</ele><time>2026-05-02T15:23:02Z</time></trkpt><trkpt lat="44.7734877646426" lon="9.937421898622341"><ele>336.0</ele><time>2026-05-02T15:23:04Z</time></trkpt><trkpt lat="44.77355818632868" lon="9.93745682005625"><ele>336.0</ele><time>2026-05-02T15:23:06Z</time></trkpt><trkpt lat="44.77362430176178" lon="9.937496438876876"><ele>336.0</ele><time>2026-05-02T15:23:08Z</time></trkpt><trkpt lat="44.77368375272936" lon="9.937544176673088"><ele>336.0</ele><time>2026-05-02T15:23:10Z</time></trkpt><trkpt lat="44.77374488806744" lon="9.937583298372575"><ele>336.0</ele><time>2026-05-02T15:23:12Z</time></trkpt><trkpt lat="44.773806327999885" lon="9.937625430612446"><ele>336.0</ele><time>2026-05-02T15:23:14Z</time></trkpt><trkpt lat="44.7738538302175" lon="9.93769008844955"><ele>336.0</ele><time>2026-05-02T15:23:16Z</time></trkpt><trkpt lat="44.77386618543571" lon="9.937594862423314"><ele>336.0</ele><time>2026-05-02T15:23:20Z</time></trkpt><trkpt lat="44.77378162968825" lon="9.937559755914226"><ele>336.0</ele><time>2026-05-02T15:23:22.999Z</time></trkpt><trkpt lat="44.77372360994326" lon="9.937517257466192"><ele>336.0</ele><time>2026-05-02T15:23:24.999Z</time></trkpt><trkpt lat="44.77365874555742" lon="9.937481134778587"><ele>336.0</ele><time>2026-05-02T15:23:26.999Z</time></trkpt><trkpt lat="44.77359083786523" lon="9.937448197101093"><ele>336.0</ele><time>2026-05-02T15:23:28.999Z</time></trkpt><trkpt lat="44.77352696008458" lon="9.937405756880402"><ele>336.0</ele><time>2026-05-02T15:23:30.999Z</time></trkpt><trkpt lat="44.773467009508856" lon="9.937367883536531"><ele>336.0</ele><time>2026-05-02T15:23:32.999Z</time></trkpt><trkpt lat="44.77338862859925" lon="9.937319825062634"><ele>336.0</ele><time>2026-05-02T15:23:35.999Z</time></trkpt><trkpt lat="44.77330963697575" lon="9.93727600261002"><ele>336.0</ele><time>2026-05-02T15:23:38.999Z</time></trkpt><trkpt lat="44.77323426979453" lon="9.937233693847524"><ele>336.0</ele><time>2026-05-02T15:23:41.999Z</time></trkpt><trkpt lat="44.77316466953942" lon="9.937188359879295"><ele>336.0</ele><time>2026-05-02T15:23:44.999Z</time></trkpt><trkpt lat="44.77310294726741" lon="9.937144121284204"><ele>336.0</ele><time>2026-05-02T15:23:47.999Z</time></trkpt><trkpt lat="44.77302810596006" lon="9.937105480304961"><ele>336.0</ele><time>2026-05-02T15:23:50.999Z</time></trkpt><trkpt lat="44.772976564199126" lon="9.937044558448735"><ele>336.0</ele><time>2026-05-02T15:23:53.999Z</time></trkpt><trkpt lat="44.7729145869232" lon="9.93700740340126"><ele>336.0</ele><time>2026-05-02T15:23:56.999Z</time></trkpt><trkpt lat="44.77284602335446" lon="9.936963337197412"><ele>336.0</ele><time>2026-05-02T15:23:59.999Z</time></trkpt><trkpt lat="44.77277404834632" lon="9.93692934415166"><ele>336.0</ele><time>2026-05-02T15:24:03.999Z</time></trkpt><trkpt lat="44.772707833325775" lon="9.936911037609683"><ele>336.0</ele><time>2026-05-02T15:24:06.999Z</time></trkpt><trkpt lat="44.77263572069761" lon="9.936958932275532"><ele>336.0</ele><time>2026-05-02T15:24:10.999Z</time></trkpt><trkpt lat="44.77260622418642" lon="9.937044751909623"><ele>336.0</ele><time>2026-05-02T15:24:13.999Z</time></trkpt><trkpt lat="44.77260611867814" lon="9.937136480053292"><ele>336.0</ele><time>2026-05-02T15:24:16.998Z</time></trkpt><trkpt lat="44.77264135355214" lon="9.937222385071767"><ele>336.0</ele><time>2026-05-02T15:24:19.998Z</time></trkpt><trkpt lat="44.772692576061075" lon="9.937289346077126"><ele>336.0</ele><time>2026-05-02T15:24:22.998Z</time></trkpt><trkpt lat="44.77276268287514" lon="9.937350286571085"><ele>336.0</ele><time>2026-05-02T15:24:25.998Z</time></trkpt><trkpt lat="44.772824620389756" lon="9.937410270393205"><ele>336.0</ele><time>2026-05-02T15:24:28.998Z</time></trkpt><trkpt lat="44.77288009686472" lon="9.937494251429971"><ele>336.0</ele><time>2026-05-02T15:24:31.998Z</time></trkpt><trkpt lat="44.77285417443043" lon="9.937587551206997"><ele>336.14285714285717</ele><time>2026-05-02T15:24:35.998Z</time></trkpt><trkpt lat="44.77279049344202" lon="9.937602176165514"><ele>336.2857142857143</ele><time>2026-05-02T15:24:39Z</time></trkpt><trkpt lat="44.77272563118469" lon="9.93757076017241"><ele>336.42857142857144</ele><time>2026-05-02T15:24:42Z</time></trkpt><trkpt lat="44.772661237153436" lon="9.93754005830446"><ele>336.57142857142856</ele><time>2026-05-02T15:24:46Z</time></trkpt><trkpt lat="44.77259620788369" lon="9.937509693645515"><ele>336.7142857142857</ele><time>2026-05-02T15:24:49Z</time></trkpt><trkpt lat="44.7725329080562" lon="9.937470508325926"><ele>336.8571428571429</ele><time>2026-05-02T15:24:52Z</time></trkpt><trkpt lat="44.77246237671102" lon="9.93743763932125"><ele>337.0</ele><time>2026-05-02T15:24:56Z</time></trkpt><trkpt lat="44.772394931365184" lon="9.937402639815758"><ele>339.00000000000006</ele><time>2026-05-02T15:24:59Z</time></trkpt><trkpt lat="44.77232668977309" lon="9.93737145116782"><ele>341.0</ele><time>2026-05-02T15:25:02Z</time></trkpt><trkpt lat="44.77225738871449" lon="9.937345027290917"><ele>343.0</ele><time>2026-05-02T15:25:06Z</time></trkpt><trkpt lat="44.772193678397024" lon="9.937324698119886"><ele>345.0</ele><time>2026-05-02T15:25:09Z</time></trkpt><trkpt lat="44.77213009185467" lon="9.93730326351866"><ele>347.0</ele><time>2026-05-02T15:25:12Z</time></trkpt><trkpt lat="44.772060946824176" lon="9.937282716448342"><ele>349.00000000000006</ele><time>2026-05-02T15:25:15Z</time></trkpt><trkpt lat="44.77198561212562" lon="9.937258432590959"><ele>351.0</ele><time>2026-05-02T15:25:18Z</time></trkpt><trkpt lat="44.7719231331351" lon="9.937239759473703"><ele>352.28571428571433</ele><time>2026-05-02T15:25:21Z</time></trkpt><trkpt lat="44.77184297391065" lon="9.937224459688816"><ele>353.57142857142856</ele><time>2026-05-02T15:25:25Z</time></trkpt><trkpt lat="44.7717768279966" lon="9.93720409453171"><ele>354.8571428571429</ele><time>2026-05-02T15:25:27.999Z</time></trkpt><trkpt lat="44.77171302261016" lon="9.937179751764202"><ele>356.14285714285717</ele><time>2026-05-02T15:25:30.999Z</time></trkpt><trkpt lat="44.771637246948885" lon="9.93715914557371"><ele>357.42857142857144</ele><time>2026-05-02T15:25:34.999Z</time></trkpt><trkpt lat="44.771570387763724" lon="9.937140517235125"><ele>358.7142857142857</ele><time>2026-05-02T15:25:37.999Z</time></trkpt><trkpt lat="44.77149373362447" lon="9.937111153811996"><ele>360.0</ele><time>2026-05-02T15:25:40.999Z</time></trkpt><trkpt lat="44.771431618613896" lon="9.937094489460414"><ele>360.0</ele><time>2026-05-02T15:25:43.999Z</time></trkpt><trkpt lat="44.77135428020029" lon="9.937075973265438"><ele>360.0</ele><time>2026-05-02T15:25:47.999Z</time></trkpt><trkpt lat="44.771285497813025" lon="9.937063156112554"><ele>360.0</ele><time>2026-05-02T15:25:50.999Z</time></trkpt><trkpt lat="44.771215898608894" lon="9.93706785639501"><ele>360.0</ele><time>2026-05-02T15:25:53.999Z</time></trkpt><trkpt lat="44.77115627690201" lon="9.937114529290316"><ele>360.0</ele><time>2026-05-02T15:25:56.999Z</time></trkpt><trkpt lat="44.77112812698787" lon="9.937217420640465"><ele>360.0</ele><time>2026-05-02T15:26:00.999Z</time></trkpt><trkpt lat="44.77116672904735" lon="9.937294901371404"><ele>360.0</ele><time>2026-05-02T15:26:03.999Z</time></trkpt><trkpt lat="44.77122516079754" lon="9.937338681109544"><ele>360.0</ele><time>2026-05-02T15:26:06.999Z</time></trkpt><trkpt lat="44.77128590450392" lon="9.937369912713296"><ele>360.0</ele><time>2026-05-02T15:26:09.999Z</time></trkpt><trkpt lat="44.7713736040998" lon="9.937400575279295"><ele>360.0</ele><time>2026-05-02T15:26:13.999Z</time></trkpt><trkpt lat="44.771443708460104" lon="9.937424930641704"><ele>360.0</ele><time>2026-05-02T15:26:16.999Z</time></trkpt><trkpt lat="44.77151667360403" lon="9.93745501758616"><ele>360.0</ele><time>2026-05-02T15:26:19.999Z</time></trkpt><trkpt lat="44.77158009683074" lon="9.937483916861222"><ele>360.0</ele><time>2026-05-02T15:26:21.998Z</time></trkpt><trkpt lat="44.77163663036786" lon="9.937547327527776"><ele>360.0</ele><time>2026-05-02T15:26:24.998Z</time></trkpt><trkpt lat="44.77160173749931" lon="9.937645288453242"><ele>363.0</ele><time>2026-05-02T15:26:28.998Z</time></trkpt><trkpt lat="44.77153674195561" lon="9.937626711740736"><ele>366.0</ele><time>2026-05-02T15:26:31.998Z</time></trkpt><trkpt lat="44.77146726242593" lon="9.93759529513429"><ele>369.0</ele><time>2026-05-02T15:26:34.998Z</time></trkpt><trkpt lat="44.77138914569012" lon="9.9375692270189"><ele>372.0</ele><time>2026-05-02T15:26:38.998Z</time></trkpt><trkpt lat="44.7713156899195" lon="9.937568736825389"><ele>375.0</ele><time>2026-05-02T15:26:41.998Z</time></trkpt><trkpt lat="44.77124603021786" lon="9.93758987696317"><ele>378.0</ele><time>2026-05-02T15:26:45Z</time></trkpt><trkpt lat="44.77116716992578" lon="9.937640569219107"><ele>378.0</ele><time>2026-05-02T15:26:48Z</time></trkpt><trkpt lat="44.77111450736295" lon="9.937705783605315"><ele>378.0</ele><time>2026-05-02T15:26:51Z</time></trkpt><trkpt lat="44.77106564433289" lon="9.937775803002152"><ele>378.0</ele><time>2026-05-02T15:26:54Z</time></trkpt><trkpt lat="44.77101564089281" lon="9.937842242544551"><ele>378.0</ele><time>2026-05-02T15:26:57Z</time></trkpt><trkpt lat="44.77096785054094" lon="9.937901386284363"><ele>378.0</ele><time>2026-05-02T15:26:59Z</time></trkpt><trkpt lat="44.77090768886243" lon="9.937957985398526"><ele>378.0</ele><time>2026-05-02T15:27:02Z</time></trkpt><trkpt lat="44.77082988238082" lon="9.937981849671733"><ele>378.0</ele><time>2026-05-02T15:27:05Z</time></trkpt><trkpt lat="44.77074883076433" lon="9.937956542162794"><ele>378.1666666666667</ele><time>2026-05-02T15:27:08Z</time></trkpt><trkpt lat="44.7706912629985" lon="9.937885617064094"><ele>378.3333333333333</ele><time>2026-05-02T15:27:11Z</time></trkpt><trkpt lat="44.77064790851609" lon="9.93780730853917"><ele>378.5</ele><time>2026-05-02T15:27:14Z</time></trkpt><trkpt lat="44.770598502041686" lon="9.937707292501413"><ele>378.66666666666663</ele><time>2026-05-02T15:27:17Z</time></trkpt><trkpt lat="44.77054446375882" lon="9.937623853727098"><ele>378.8333333333333</ele><time>2026-05-02T15:27:21Z</time></trkpt><trkpt lat="44.770487062480605" lon="9.937581853883904"><ele>379.0</ele><time>2026-05-02T15:27:24Z</time></trkpt><trkpt lat="44.770413193688675" lon="9.93757201492941"><ele>379.0</ele><time>2026-05-02T15:27:27Z</time></trkpt><trkpt lat="44.77033296594164" lon="9.937601342233153"><ele>379.0</ele><time>2026-05-02T15:27:30Z</time></trkpt><trkpt lat="44.77040234701516" lon="9.937635319662897"><ele>379.0</ele><time>2026-05-02T15:27:31.999Z</time></trkpt><trkpt lat="44.77014305536247" lon="9.93777393198606"><ele>379.0</ele><time>2026-05-02T15:27:34.999Z</time></trkpt><trkpt lat="44.77013148829813" lon="9.937866993232532"><ele>379.00000000000006</ele><time>2026-05-02T15:27:36.999Z</time></trkpt><trkpt lat="44.770135646346056" lon="9.93797149717478"><ele>379.0</ele><time>2026-05-02T15:27:38.999Z</time></trkpt><trkpt lat="44.77016455841064" lon="9.938078728660214"><ele>379.0</ele><time>2026-05-02T15:27:40.999Z</time></trkpt><trkpt lat="44.77021270009358" lon="9.93816260698101"><ele>379.0</ele><time>2026-05-02T15:27:42.999Z</time></trkpt><trkpt lat="44.77026614304442" lon="9.938221821955203"><ele>379.0</ele><time>2026-05-02T15:27:44.999Z</time></trkpt><trkpt lat="44.770322475641485" lon="9.938278507507901"><ele>379.00000000000006</ele><time>2026-05-02T15:27:46.999Z</time></trkpt><trkpt lat="44.77037770033851" lon="9.9383268065479"><ele>379.0</ele><time>2026-05-02T15:27:48.999Z</time></trkpt><trkpt lat="44.770447825608194" lon="9.938401818597082"><ele>380.8333333333333</ele><time>2026-05-02T15:27:51.999Z</time></trkpt><trkpt lat="44.770518868849" lon="9.93845924159999"><ele>382.66666666666663</ele><time>2026-05-02T15:27:54.999Z</time></trkpt><trkpt lat="44.77058655633992" lon="9.938544081831681"><ele>384.5</ele><time>2026-05-02T15:27:57.999Z</time></trkpt><trkpt lat="44.77063361609414" lon="9.938603050328219"><ele>386.3333333333333</ele><time>2026-05-02T15:27:59.999Z</time></trkpt><trkpt lat="44.77070199378892" lon="9.938670912254722"><ele>388.1666666666667</ele><time>2026-05-02T15:28:03.999Z</time></trkpt><trkpt lat="44.77077010690417" lon="9.938694623106162"><ele>390.0</ele><time>2026-05-02T15:28:07.999Z</time></trkpt><trkpt lat="44.77084318713547" lon="9.938708470421487"><ele>390.0</ele><time>2026-05-02T15:28:11.999Z</time></trkpt><trkpt lat="44.7709175315373" lon="9.938709184924079"><ele>390.0</ele><time>2026-05-02T15:28:14.999Z</time></trkpt><trkpt lat="44.770986534109845" lon="9.938709015607301"><ele>390.0</ele><time>2026-05-02T15:28:16.999Z</time></trkpt><trkpt lat="44.77106255725462" lon="9.938689461750192"><ele>390.0</ele><time>2026-05-02T15:28:19.999Z</time></trkpt><trkpt lat="44.77113947709878" lon="9.938658827221705"><ele>390.0</ele><time>2026-05-02T15:28:22.999Z</time></trkpt><trkpt lat="44.77121546634909" lon="9.938631575171806"><ele>390.0</ele><time>2026-05-02T15:28:26.998Z</time></trkpt><trkpt lat="44.77128634713105" lon="9.938611454514799"><ele>390.1428571428571</ele><time>2026-05-02T15:28:29.998Z</time></trkpt><trkpt lat="44.77136934978674" lon="9.938598421273241"><ele>390.2857142857143</ele><time>2026-05-02T15:28:32.998Z</time></trkpt><trkpt lat="44.771436698169666" lon="9.938614496880271"><ele>390.42857142857144</ele><time>2026-05-02T15:28:35.998Z</time></trkpt><trkpt lat="44.77150245158991" lon="9.938659355515782"><ele>390.57142857142856</ele><time>2026-05-02T15:28:38.998Z</time></trkpt><trkpt lat="44.77156285073087" lon="9.93871212746415"><ele>390.7142857142857</ele><time>2026-05-02T15:28:41.998Z</time></trkpt><trkpt lat="44.77161529527487" lon="9.938786130121752"><ele>390.85714285714283</ele><time>2026-05-02T15:28:44.998Z</time></trkpt><trkpt lat="44.771662536782564" lon="9.93886102480416"><ele>391.0</ele><time>2026-05-02T15:28:47.998Z</time></trkpt><trkpt lat="44.771698132578344" lon="9.93894478306854"><ele>390.99999999999994</ele><time>2026-05-02T15:28:51Z</time></trkpt><trkpt lat="44.771716269328024" lon="9.939032792667588"><ele>391.0</ele><time>2026-05-02T15:28:54Z</time></trkpt><trkpt lat="44.771729210201606" lon="9.939123387397165"><ele>391.0</ele><time>2026-05-02T15:28:57Z</time></trkpt><trkpt lat="44.771725623073365" lon="9.939241982052732"><ele>391.0</ele><time>2026-05-02T15:29:00Z</time></trkpt><trkpt lat="44.77171224450598" lon="9.939346805933251"><ele>391.0</ele><time>2026-05-02T15:29:04Z</time></trkpt><trkpt lat="44.771682360673864" lon="9.939428028922585"><ele>390.99999999999994</ele><time>2026-05-02T15:29:07Z</time></trkpt><trkpt lat="44.77164851417752" lon="9.939511325659721"><ele>391.0</ele><time>2026-05-02T15:29:10Z</time></trkpt><trkpt lat="44.771586836788806" lon="9.939588731409515"><ele>389.1428571428571</ele><time>2026-05-02T15:29:14Z</time></trkpt><trkpt lat="44.77153054645266" lon="9.939631560096052"><ele>387.2857142857143</ele><time>2026-05-02T15:29:16Z</time></trkpt><trkpt lat="44.77147332879444" lon="9.939682711778495"><ele>385.42857142857144</ele><time>2026-05-02T15:29:19Z</time></trkpt><trkpt lat="44.771406426472204" lon="9.939746810349911"><ele>383.57142857142856</ele><time>2026-05-02T15:29:23Z</time></trkpt><trkpt lat="44.771331485654095" lon="9.939788379481348"><ele>381.7142857142857</ele><time>2026-05-02T15:29:27Z</time></trkpt><trkpt lat="44.771268620158985" lon="9.939827075003372"><ele>379.85714285714283</ele><time>2026-05-02T15:29:30Z</time></trkpt><trkpt lat="44.77120415206556" lon="9.939872830247467"><ele>378.0</ele><time>2026-05-02T15:29:32.999Z</time></trkpt><trkpt lat="44.771140478510254" lon="9.939913984893996"><ele>378.0</ele><time>2026-05-02T15:29:35.999Z</time></trkpt><trkpt lat="44.771069333452814" lon="9.939962658307419"><ele>378.0</ele><time>2026-05-02T15:29:38.999Z</time></trkpt><trkpt lat="44.77100256777358" lon="9.940020020951282"><ele>378.0</ele><time>2026-05-02T15:29:41.999Z</time></trkpt><trkpt lat="44.770942841947694" lon="9.940070210307729"><ele>378.0</ele><time>2026-05-02T15:29:44.999Z</time></trkpt><trkpt lat="44.7708829629558" lon="9.940118149307011"><ele>378.0</ele><time>2026-05-02T15:29:47.999Z</time></trkpt><trkpt lat="44.770819364314065" lon="9.940157294968305"><ele>378.0</ele><time>2026-05-02T15:29:50.999Z</time></trkpt><trkpt lat="44.7707571434771" lon="9.9401995294634"><ele>378.0</ele><time>2026-05-02T15:29:53.999Z</time></trkpt><trkpt lat="44.77069169492293" lon="9.940239028361093"><ele>380.5</ele><time>2026-05-02T15:29:56.999Z</time></trkpt><trkpt lat="44.770612088846455" lon="9.940272954342637"><ele>383.0</ele><time>2026-05-02T15:29:59.999Z</time></trkpt><trkpt lat="44.77054645338281" lon="9.940292407072564"><ele>385.5</ele><time>2026-05-02T15:30:02.999Z</time></trkpt><trkpt lat="44.77046563542488" lon="9.940329641594055"><ele>388.0</ele><time>2026-05-02T15:30:06.999Z</time></trkpt><trkpt lat="44.77039831132472" lon="9.94037119241198"><ele>390.5</ele><time>2026-05-02T15:30:09.999Z</time></trkpt><trkpt lat="44.77033189402963" lon="9.940425814232517"><ele>393.0</ele><time>2026-05-02T15:30:12.999Z</time></trkpt><trkpt lat="44.77028655619846" lon="9.940490080225779"><ele>393.00000000000006</ele><time>2026-05-02T15:30:15.999Z</time></trkpt><trkpt lat="44.770242010157055" lon="9.940571928244466"><ele>393.0</ele><time>2026-05-02T15:30:18.999Z</time></trkpt><trkpt lat="44.7702040599986" lon="9.94065752470343"><ele>393.0</ele><time>2026-05-02T15:30:21.999Z</time></trkpt><trkpt lat="44.77016610809732" lon="9.940746487958725"><ele>393.0</ele><time>2026-05-02T15:30:24.999Z</time></trkpt><trkpt lat="44.770130117155496" lon="9.940837420058825"><ele>393.0</ele><time>2026-05-02T15:30:27.998Z</time></trkpt><trkpt lat="44.77009683064175" lon="9.940932725498673"><ele>393.00000000000006</ele><time>2026-05-02T15:30:30.998Z</time></trkpt><trkpt lat="44.7700659479878" lon="9.941022597075106"><ele>393.0</ele><time>2026-05-02T15:30:33.998Z</time></trkpt><trkpt lat="44.770033441272815" lon="9.94111079084901"><ele>395.7142857142857</ele><time>2026-05-02T15:30:36.998Z</time></trkpt><trkpt lat="44.76999431717908" lon="9.941196191376822"><ele>398.42857142857144</ele><time>2026-05-02T15:30:39.998Z</time></trkpt><trkpt lat="44.769948523347956" lon="9.94126930263641"><ele>401.1428571428571</ele><time>2026-05-02T15:30:42.998Z</time></trkpt><trkpt lat="44.769902417893476" lon="9.941344744424534"><ele>403.8571428571429</ele><time>2026-05-02T15:30:45.998Z</time></trkpt><trkpt lat="44.76985100371563" lon="9.941412320481986"><ele>406.57142857142856</ele><time>2026-05-02T15:30:48.998Z</time></trkpt><trkpt lat="44.76980033718936" lon="9.941479584090652"><ele>409.2857142857143</ele><time>2026-05-02T15:30:51.998Z</time></trkpt><trkpt lat="44.76974211982492" lon="9.941533157916876"><ele>412.0</ele><time>2026-05-02T15:30:54.998Z</time></trkpt><trkpt lat="44.76967266243308" lon="9.941580086398895"><ele>411.99999999999994</ele><time>2026-05-02T15:30:58Z</time></trkpt><trkpt lat="44.76960662500975" lon="9.941619540374303"><ele>412.0</ele><time>2026-05-02T15:31:01Z</time></trkpt><trkpt lat="44.769536455652094" lon="9.941648253418029"><ele>412.0</ele><time>2026-05-02T15:31:04Z</time></trkpt><trkpt lat="44.76946377578" lon="9.941665923910774"><ele>412.0</ele><time>2026-05-02T15:31:07Z</time></trkpt><trkpt lat="44.769390925754166" lon="9.94166761127618"><ele>412.0</ele><time>2026-05-02T15:31:10Z</time></trkpt><trkpt lat="44.76932023505098" lon="9.941659756050631"><ele>411.99999999999994</ele><time>2026-05-02T15:31:13Z</time></trkpt><trkpt lat="44.76925163034528" lon="9.941643876690241"><ele>412.0</ele><time>2026-05-02T15:31:16Z</time></trkpt><trkpt lat="44.76918208770987" lon="9.941622729979"><ele>412.4285714285714</ele><time>2026-05-02T15:31:19Z</time></trkpt><trkpt lat="44.769115182084775" lon="9.941595318132832"><ele>412.85714285714283</ele><time>2026-05-02T15:31:22Z</time></trkpt><trkpt lat="44.76904874206178" lon="9.941564701137526"><ele>413.2857142857143</ele><time>2026-05-02T15:31:25Z</time></trkpt><trkpt lat="44.768982307038875" lon="9.941531621414473"><ele>413.71428571428567</ele><time>2026-05-02T15:31:28Z</time></trkpt><trkpt lat="44.76891780408526" lon="9.941490135014691"><ele>414.14285714285717</ele><time>2026-05-02T15:31:31Z</time></trkpt><trkpt lat="44.768859279462454" lon="9.941434574061812"><ele>414.57142857142856</ele><time>2026-05-02T15:31:34Z</time></trkpt><trkpt lat="44.768804977837426" lon="9.941372550952984"><ele>415.0</ele><time>2026-05-02T15:31:37Z</time></trkpt><trkpt lat="44.76875623509313" lon="9.941297786201098"><ele>415.0</ele><time>2026-05-02T15:31:39.999Z</time></trkpt><trkpt lat="44.76872693712899" lon="9.941208892812815"><ele>415.0</ele><time>2026-05-02T15:31:42.999Z</time></trkpt><trkpt lat="44.76870727467363" lon="9.941120058750286"><ele>415.0</ele><time>2026-05-02T15:31:45.999Z</time></trkpt><trkpt lat="44.7686864811963" lon="9.941029613768448"><ele>415.0</ele><time>2026-05-02T15:31:48.999Z</time></trkpt><trkpt lat="44.7686583484612" lon="9.94093859417905"><ele>415.0</ele><time>2026-05-02T15:31:51.999Z</time></trkpt><trkpt lat="44.76863083153755" lon="9.94084465762074"><ele>415.0</ele><time>2026-05-02T15:31:54.999Z</time></trkpt><trkpt lat="44.76859207167875" lon="9.940759661716955"><ele>415.0</ele><time>2026-05-02T15:31:57.999Z</time></trkpt><trkpt lat="44.76854356234119" lon="9.94068370256767"><ele>416.42857142857144</ele><time>2026-05-02T15:32:00.999Z</time></trkpt><trkpt lat="44.76848954320996" lon="9.94061417092371"><ele>417.8571428571429</ele><time>2026-05-02T15:32:03.999Z</time></trkpt><trkpt lat="44.76843937603032" lon="9.940550322760425"><ele>419.2857142857143</ele><time>2026-05-02T15:32:06.999Z</time></trkpt><trkpt lat="44.76837148993882" lon="9.940479168343709"><ele>420.7142857142857</ele><time>2026-05-02T15:32:09.999Z</time></trkpt><trkpt lat="44.76830297228567" lon="9.940441721826977"><ele>422.1428571428571</ele><time>2026-05-02T15:32:12.999Z</time></trkpt><trkpt lat="44.768228502807645" lon="9.940408633721475"><ele>423.57142857142856</ele><time>2026-05-02T15:32:15.999Z</time></trkpt><trkpt lat="44.7681635338982" lon="9.940375634626267"><ele>425.0</ele><time>2026-05-02T15:32:17.999Z</time></trkpt><trkpt lat="44.768088077287054" lon="9.940345368959637"><ele>424.99999999999994</ele><time>2026-05-02T15:32:20.999Z</time></trkpt><trkpt lat="44.76801806128465" lon="9.940324057558602"><ele>425.0</ele><time>2026-05-02T15:32:22.999Z</time></trkpt><trkpt lat="44.76793555237852" lon="9.94031256666813"><ele>425.0</ele><time>2026-05-02T15:32:25.999Z</time></trkpt><trkpt lat="44.76785898292941" lon="9.940313450965856"><ele>425.0</ele><time>2026-05-02T15:32:28.999Z</time></trkpt><trkpt lat="44.76776232733012" lon="9.940321949291555"><ele>424.99999999999994</ele><time>2026-05-02T15:32:31.999Z</time></trkpt><trkpt lat="44.76768542021464" lon="9.940336837697878"><ele>425.0</ele><time>2026-05-02T15:32:34.998Z</time></trkpt><trkpt lat="44.767605684886895" lon="9.940355480802031"><ele>425.66666666666663</ele><time>2026-05-02T15:32:37.998Z</time></trkpt><trkpt lat="44.76752939186136" lon="9.940374145683643"><ele>426.3333333333333</ele><time>2026-05-02T15:32:40.998Z</time></trkpt><trkpt lat="44.767452183052505" lon="9.940393052206552"><ele>427.0</ele><time>2026-05-02T15:32:43.998Z</time></trkpt><trkpt lat="44.767375874340786" lon="9.940407213050797"><ele>427.66666666666663</ele><time>2026-05-02T15:32:46.998Z</time></trkpt><trkpt lat="44.76730131260469" lon="9.94042046107318"><ele>428.3333333333333</ele><time>2026-05-02T15:32:49.998Z</time></trkpt><trkpt lat="44.76723053030074" lon="9.940427271927234"><ele>429.0</ele><time>2026-05-02T15:32:52.998Z</time></trkpt><trkpt lat="44.76715136693862" lon="9.940442106161298"><ele>429.0</ele><time>2026-05-02T15:32:55.998Z</time></trkpt><trkpt lat="44.767073958283895" lon="9.94045895371079"><ele>429.0</ele><time>2026-05-02T15:32:58.998Z</time></trkpt><trkpt lat="44.766992316288366" lon="9.940472947193115"><ele>429.0</ele><time>2026-05-02T15:33:02Z</time></trkpt><trkpt lat="44.766921896820946" lon="9.940488451282715"><ele>429.0</ele><time>2026-05-02T15:33:05Z</time></trkpt><trkpt lat="44.766847954109025" lon="9.940510799682459"><ele>429.0</ele><time>2026-05-02T15:33:08Z</time></trkpt><trkpt lat="44.7667852677434" lon="9.940536491592654"><ele>429.0</ele><time>2026-05-02T15:33:11Z</time></trkpt><trkpt lat="44.76671796827991" lon="9.940558599522273"><ele>429.0</ele><time>2026-05-02T15:33:14Z</time></trkpt><trkpt lat="44.766649078296055" lon="9.940583225002698"><ele>429.5</ele><time>2026-05-02T15:33:17Z</time></trkpt><trkpt lat="44.766564172677114" lon="9.94061026217022"><ele>430.0</ele><time>2026-05-02T15:33:20Z</time></trkpt><trkpt lat="44.76648948057976" lon="9.94064028825377"><ele>430.5</ele><time>2026-05-02T15:33:23Z</time></trkpt><trkpt lat="44.766412015866166" lon="9.940676202119601"><ele>431.0</ele><time>2026-05-02T15:33:26Z</time></trkpt><trkpt lat="44.766346341068946" lon="9.940708421853644"><ele>431.5</ele><time>2026-05-02T15:33:29Z</time></trkpt><trkpt lat="44.766273257175094" lon="9.940738955567996"><ele>432.0</ele><time>2026-05-02T15:33:32Z</time></trkpt><trkpt lat="44.7661981571604" lon="9.940768627990886"><ele>432.0</ele><time>2026-05-02T15:33:35Z</time></trkpt><trkpt lat="44.76612479218353" lon="9.940796595997744"><ele>432.0</ele><time>2026-05-02T15:33:38Z</time></trkpt><trkpt lat="44.76605398972835" lon="9.940825955736603"><ele>432.0</ele><time>2026-05-02T15:33:41Z</time></trkpt><trkpt lat="44.76598090364488" lon="9.940856498826316"><ele>432.0</ele><time>2026-05-02T15:33:43.999Z</time></trkpt><trkpt lat="44.76590862970811" lon="9.940888310036112"><ele>432.0</ele><time>2026-05-02T15:33:46.999Z</time></trkpt><trkpt lat="44.765838075166826" lon="9.94092189559806"><ele>432.0</ele><time>2026-05-02T15:33:49.999Z</time></trkpt><trkpt lat="44.76576799950239" lon="9.940960179821902"><ele>432.0</ele><time>2026-05-02T15:33:52.999Z</time></trkpt><trkpt lat="44.765699596133395" lon="9.940997900876305"><ele>432.0</ele><time>2026-05-02T15:33:55.999Z</time></trkpt><trkpt lat="44.76563609516125" lon="9.94103640228631"><ele>432.0</ele><time>2026-05-02T15:33:58.999Z</time></trkpt><trkpt lat="44.765571895397564" lon="9.941076258349327"><ele>432.0</ele><time>2026-05-02T15:34:01.999Z</time></trkpt><trkpt lat="44.76550713084627" lon="9.941119603367675"><ele>432.0</ele><time>2026-05-02T15:34:04.999Z</time></trkpt><trkpt lat="44.76544401080755" lon="9.941167393244216"><ele>432.0</ele><time>2026-05-02T15:34:07.999Z</time></trkpt><trkpt lat="44.76537985605823" lon="9.941214187561979"><ele>432.0</ele><time>2026-05-02T15:34:10.999Z</time></trkpt><trkpt lat="44.76531736271697" lon="9.941263647071452"><ele>432.0</ele><time>2026-05-02T15:34:13.999Z</time></trkpt><trkpt lat="44.76525823256123" lon="9.941306320445092"><ele>432.0</ele><time>2026-05-02T15:34:16.999Z</time></trkpt><trkpt lat="44.765188676601" lon="9.941356336766644"><ele>432.0</ele><time>2026-05-02T15:34:19.999Z</time></trkpt><trkpt lat="44.765115617481776" lon="9.941410757442094"><ele>432.0</ele><time>2026-05-02T15:34:22.999Z</time></trkpt><trkpt lat="44.76504625015624" lon="9.941459980091805"><ele>432.0</ele><time>2026-05-02T15:34:25.999Z</time></trkpt><trkpt lat="44.76498313595257" lon="9.941506109787646"><ele>432.0</ele><time>2026-05-02T15:34:28.999Z</time></trkpt><trkpt lat="44.764923583082414" lon="9.94155822622742"><ele>432.0</ele><time>2026-05-02T15:34:31.999Z</time></trkpt><trkpt lat="44.76486127313344" lon="9.941607089771226"><ele>432.85714285714283</ele><time>2026-05-02T15:34:34.999Z</time></trkpt><trkpt lat="44.76480029799999" lon="9.941650878068266"><ele>433.71428571428567</ele><time>2026-05-02T15:34:37.998Z</time></trkpt><trkpt lat="44.76474131971381" lon="9.94170044218837"><ele>434.57142857142856</ele><time>2026-05-02T15:34:40.998Z</time></trkpt><trkpt lat="44.76468136358096" lon="9.941745032119876"><ele>435.42857142857144</ele><time>2026-05-02T15:34:43.998Z</time></trkpt><trkpt lat="44.76461999705663" lon="9.941790263423087"><ele>436.2857142857143</ele><time>2026-05-02T15:34:46.998Z</time></trkpt><trkpt lat="44.764559496169966" lon="9.941834197904175"><ele>437.14285714285717</ele><time>2026-05-02T15:34:49.998Z</time></trkpt><trkpt lat="44.764498171142186" lon="9.941882185484928"><ele>438.0</ele><time>2026-05-02T15:34:52.998Z</time></trkpt><trkpt lat="44.764436277152406" lon="9.94192780529734"><ele>438.0</ele><time>2026-05-02T15:34:55.998Z</time></trkpt><trkpt lat="44.76437639284581" lon="9.94197548939264"><ele>438.0</ele><time>2026-05-02T15:34:58.998Z</time></trkpt><trkpt lat="44.76431085182285" lon="9.942022436377803"><ele>438.0</ele><time>2026-05-02T15:35:02.998Z</time></trkpt><trkpt lat="44.764254725901" lon="9.942065717443473"><ele>438.0</ele><time>2026-05-02T15:35:05.998Z</time></trkpt><trkpt lat="44.76420052332555" lon="9.942117261758174"><ele>438.0</ele><time>2026-05-02T15:35:09Z</time></trkpt><trkpt lat="44.76413380751243" lon="9.94218096780843"><ele>438.0</ele><time>2026-05-02T15:35:13Z</time></trkpt><trkpt lat="44.76408319390197" lon="9.942233890487042"><ele>438.0</ele><time>2026-05-02T15:35:16Z</time></trkpt><trkpt lat="44.76401503006042" lon="9.942296097508121"><ele>440.0</ele><time>2026-05-02T15:35:20Z</time></trkpt><trkpt lat="44.763961919980936" lon="9.942354622118119"><ele>442.0</ele><time>2026-05-02T15:35:23Z</time></trkpt><trkpt lat="44.76390937454737" lon="9.942413665350788"><ele>444.0</ele><time>2026-05-02T15:35:26Z</time></trkpt><trkpt lat="44.76384954942366" lon="9.942461551320207"><ele>446.0</ele><time>2026-05-02T15:35:29Z</time></trkpt><trkpt lat="44.76379388643046" lon="9.94250618861594"><ele>448.0</ele><time>2026-05-02T15:35:32Z</time></trkpt><trkpt lat="44.76373360277938" lon="9.942543723774522"><ele>450.0</ele><time>2026-05-02T15:35:35Z</time></trkpt><trkpt lat="44.763674742221426" lon="9.942575371895467"><ele>452.0</ele><time>2026-05-02T15:35:38Z</time></trkpt><trkpt lat="44.76361004548784" lon="9.94260454623635"><ele>452.0</ele><time>2026-05-02T15:35:41Z</time></trkpt><trkpt lat="44.7635462731476" lon="9.942629346421414"><ele>452.0</ele><time>2026-05-02T15:35:44Z</time></trkpt><trkpt lat="44.76347184596475" lon="9.942659110180529"><ele>452.0</ele><time>2026-05-02T15:35:47.999Z</time></trkpt><trkpt lat="44.76339380248988" lon="9.94268273561207"><ele>452.0</ele><time>2026-05-02T15:35:51.999Z</time></trkpt><trkpt lat="44.76332484618939" lon="9.942652424814158"><ele>452.0</ele><time>2026-05-02T15:35:55.999Z</time></trkpt><trkpt lat="44.763277665092225" lon="9.942589254110239"><ele>452.0</ele><time>2026-05-02T15:35:59.999Z</time></trkpt><trkpt lat="44.76328317319412" lon="9.942493945696528"><ele>452.0</ele><time>2026-05-02T15:36:03.999Z</time></trkpt><trkpt lat="44.76331125426353" lon="9.942401454056847"><ele>452.42857142857144</ele><time>2026-05-02T15:36:07.999Z</time></trkpt><trkpt lat="44.763337817343846" lon="9.942304754571492"><ele>452.85714285714283</ele><time>2026-05-02T15:36:11.999Z</time></trkpt><trkpt lat="44.76336974059489" lon="9.942208840065597"><ele>453.2857142857143</ele><time>2026-05-02T15:36:15.999Z</time></trkpt><trkpt lat="44.76340365981663" lon="9.942119337306549"><ele>453.7142857142857</ele><time>2026-05-02T15:36:19.999Z</time></trkpt><trkpt lat="44.763436651894935" lon="9.942032135934095"><ele>454.1428571428571</ele><time>2026-05-02T15:36:23.999Z</time></trkpt><trkpt lat="44.76348091098643" lon="9.941942659715746"><ele>454.57142857142856</ele><time>2026-05-02T15:36:27.999Z</time></trkpt><trkpt lat="44.763526280820145" lon="9.941851855932367"><ele>455.0</ele><time>2026-05-02T15:36:31.999Z</time></trkpt><trkpt lat="44.763572147011324" lon="9.941757563435145"><ele>455.8571428571429</ele><time>2026-05-02T15:36:35.999Z</time></trkpt><trkpt lat="44.76360925969411" lon="9.941683430247195"><ele>456.7142857142857</ele><time>2026-05-02T15:36:38.999Z</time></trkpt><trkpt lat="44.763645341481514" lon="9.941606954170938"><ele>457.57142857142856</ele><time>2026-05-02T15:36:41.998Z</time></trkpt><trkpt lat="44.76368525724726" lon="9.941532512174406"><ele>458.42857142857144</ele><time>2026-05-02T15:36:44.998Z</time></trkpt><trkpt lat="44.76372877914503" lon="9.941461622060503"><ele>459.28571428571433</ele><time>2026-05-02T15:36:47.998Z</time></trkpt><trkpt lat="44.76376811792862" lon="9.941389303657663"><ele>460.14285714285717</ele><time>2026-05-02T15:36:50.998Z</time></trkpt><trkpt lat="44.76380371276115" lon="9.941314245455876"><ele>461.0</ele><time>2026-05-02T15:36:53.998Z</time></trkpt><trkpt lat="44.763843151703426" lon="9.941238688855666"><ele>461.0</ele><time>2026-05-02T15:36:56.998Z</time></trkpt><trkpt lat="44.76388307819635" lon="9.941162859631444"><ele>461.00000000000006</ele><time>2026-05-02T15:36:59.998Z</time></trkpt><trkpt lat="44.763921244318844" lon="9.941084017075749"><ele>461.0</ele><time>2026-05-02T15:37:02.998Z</time></trkpt><trkpt lat="44.76395449411864" lon="9.940997363743758"><ele>461.0</ele><time>2026-05-02T15:37:05.998Z</time></trkpt><trkpt lat="44.763985052013744" lon="9.940903129776366"><ele>461.00000000000006</ele><time>2026-05-02T15:37:08.998Z</time></trkpt><trkpt lat="44.76400919376854" lon="9.940810116899385"><ele>461.0</ele><time>2026-05-02T15:37:11.998Z</time></trkpt><trkpt lat="44.76401715715508" lon="9.940714965958602"><ele>461.0</ele><time>2026-05-02T15:37:15Z</time></trkpt><trkpt lat="44.76399051183005" lon="9.940624941669778"><ele>461.0</ele><time>2026-05-02T15:37:18Z</time></trkpt><trkpt lat="44.763921528810386" lon="9.940593369493984"><ele>461.00000000000006</ele><time>2026-05-02T15:37:21Z</time></trkpt><trkpt lat="44.763860211941875" lon="9.940646330033385"><ele>461.0</ele><time>2026-05-02T15:37:24Z</time></trkpt><trkpt lat="44.76381825777892" lon="9.940719368098819"><ele>461.0</ele><time>2026-05-02T15:37:27Z</time></trkpt><trkpt lat="44.76377583102218" lon="9.94079850775549"><ele>461.00000000000006</ele><time>2026-05-02T15:37:30Z</time></trkpt><trkpt lat="44.76373407228005" lon="9.940870293607988"><ele>461.0</ele><time>2026-05-02T15:37:33Z</time></trkpt><trkpt lat="44.76367961893807" lon="9.94093100013361"><ele>461.0</ele><time>2026-05-02T15:37:36Z</time></trkpt><trkpt lat="44.76362092106856" lon="9.94098190077703"><ele>461.0</ele><time>2026-05-02T15:37:39Z</time></trkpt><trkpt lat="44.76355270364048" lon="9.941020099321051"><ele>461.00000000000006</ele><time>2026-05-02T15:37:42Z</time></trkpt><trkpt lat="44.76348619276653" lon="9.941062264497775"><ele>461.0</ele><time>2026-05-02T15:37:45Z</time></trkpt><trkpt lat="44.76342655637457" lon="9.94110017707855"><ele>461.0</ele><time>2026-05-02T15:37:48Z</time></trkpt><trkpt lat="44.76336606836517" lon="9.941135020098155"><ele>461.00000000000006</ele><time>2026-05-02T15:37:50.999Z</time></trkpt><trkpt lat="44.763303818374574" lon="9.941172917640877"><ele>461.0</ele><time>2026-05-02T15:37:53.999Z</time></trkpt><trkpt lat="44.76323531549101" lon="9.94119692733441"><ele>461.0</ele><time>2026-05-02T15:37:56.999Z</time></trkpt><trkpt lat="44.763169175663585" lon="9.941205303049134"><ele>463.42857142857144</ele><time>2026-05-02T15:37:59.999Z</time></trkpt><trkpt lat="44.763099930528135" lon="9.941195789445517"><ele>465.8571428571429</ele><time>2026-05-02T15:38:02.999Z</time></trkpt><trkpt lat="44.76301623430078" lon="9.941163744796334"><ele>468.28571428571433</ele><time>2026-05-02T15:38:05.999Z</time></trkpt><trkpt lat="44.762948655301216" lon="9.94113111710779"><ele>470.7142857142858</ele><time>2026-05-02T15:38:08.999Z</time></trkpt><trkpt lat="44.76287998439651" lon="9.94109972566223"><ele>473.14285714285717</ele><time>2026-05-02T15:38:11.999Z</time></trkpt><trkpt lat="44.76281795022944" lon="9.941073787626747"><ele>475.57142857142867</ele><time>2026-05-02T15:38:13.999Z</time></trkpt><trkpt lat="44.762739303043965" lon="9.941071393981357"><ele>478.00000000000006</ele><time>2026-05-02T15:38:16.999Z</time></trkpt><trkpt lat="44.76266821314862" lon="9.941102785434207"><ele>480.1666666666667</ele><time>2026-05-02T15:38:19.999Z</time></trkpt><trkpt lat="44.762597875382546" lon="9.941155282557983"><ele>482.33333333333337</ele><time>2026-05-02T15:38:22.999Z</time></trkpt><trkpt lat="44.762548343752066" lon="9.941216910785228"><ele>484.5</ele><time>2026-05-02T15:38:24.999Z</time></trkpt><trkpt lat="44.76248486916242" lon="9.94130660567432"><ele>486.66666666666663</ele><time>2026-05-02T15:38:27.999Z</time></trkpt><trkpt lat="44.76242992505296" lon="9.941390179970876"><ele>488.8333333333333</ele><time>2026-05-02T15:38:30.999Z</time></trkpt><trkpt lat="44.76237058927173" lon="9.941479362888424"><ele>491.0</ele><time>2026-05-02T15:38:33.999Z</time></trkpt><trkpt lat="44.762309520128106" lon="9.941560422043695"><ele>490.99999999999994</ele><time>2026-05-02T15:38:37.999Z</time></trkpt><trkpt lat="44.76225086030119" lon="9.941616886517393"><ele>491.0</ele><time>2026-05-02T15:38:40.999Z</time></trkpt><trkpt lat="44.76217507116878" lon="9.941653396856431"><ele>491.0</ele><time>2026-05-02T15:38:44.999Z</time></trkpt><trkpt lat="44.76210158019507" lon="9.941667004569352"><ele>491.0</ele><time>2026-05-02T15:38:47.998Z</time></trkpt><trkpt lat="44.76202398522495" lon="9.941665378349017"><ele>490.99999999999994</ele><time>2026-05-02T15:38:50.998Z</time></trkpt><trkpt lat="44.761939332449785" lon="9.941652370285189"><ele>491.0</ele><time>2026-05-02T15:38:53.998Z</time></trkpt><trkpt lat="44.761875637865806" lon="9.941645452518067"><ele>491.66666666666663</ele><time>2026-05-02T15:38:56.998Z</time></trkpt><trkpt lat="44.76180549390078" lon="9.941648107258255"><ele>492.3333333333333</ele><time>2026-05-02T15:38:59.998Z</time></trkpt><trkpt lat="44.76172691899957" lon="9.941676057953057"><ele>493.0</ele><time>2026-05-02T15:39:02.998Z</time></trkpt><trkpt lat="44.76165114714139" lon="9.941716400179045"><ele>493.66666666666663</ele><time>2026-05-02T15:39:05.998Z</time></trkpt><trkpt lat="44.76157514769738" lon="9.941757809131165"><ele>494.3333333333333</ele><time>2026-05-02T15:39:08.998Z</time></trkpt><trkpt lat="44.761507923633424" lon="9.941807563513713"><ele>495.0</ele><time>2026-05-02T15:39:11.998Z</time></trkpt><trkpt lat="44.761443022519884" lon="9.941865723833882"><ele>495.0</ele><time>2026-05-02T15:39:14.998Z</time></trkpt><trkpt lat="44.761383475376896" lon="9.9419433184061"><ele>495.0</ele><time>2026-05-02T15:39:17.998Z</time></trkpt><trkpt lat="44.76132720788712" lon="9.942027122954817"><ele>495.0</ele><time>2026-05-02T15:39:21Z</time></trkpt><trkpt lat="44.76127554300272" lon="9.942116841649145"><ele>495.0</ele><time>2026-05-02T15:39:24Z</time></trkpt><trkpt lat="44.76122656603709" lon="9.94221807189249"><ele>495.0</ele><time>2026-05-02T15:39:27Z</time></trkpt><trkpt lat="44.761187361902415" lon="9.942289652105911"><ele>495.0</ele><time>2026-05-02T15:39:30Z</time></trkpt><trkpt lat="44.76114164513118" lon="9.94237201052366"><ele>495.0</ele><time>2026-05-02T15:39:33Z</time></trkpt><trkpt lat="44.761102631216666" lon="9.94246100721372"><ele>495.0</ele><time>2026-05-02T15:39:36Z</time></trkpt><trkpt lat="44.76105960029771" lon="9.942551377453812"><ele>495.0</ele><time>2026-05-02T15:39:39Z</time></trkpt><trkpt lat="44.761026624694544" lon="9.9426329896581"><ele>495.0</ele><time>2026-05-02T15:39:41Z</time></trkpt><trkpt lat="44.760999591531125" lon="9.942737116925558"><ele>495.0</ele><time>2026-05-02T15:39:44Z</time></trkpt><trkpt lat="44.76099612187445" lon="9.942853499075266"><ele>495.0</ele><time>2026-05-02T15:39:47Z</time></trkpt><trkpt lat="44.76100580602755" lon="9.94296170308916"><ele>494.8333333333333</ele><time>2026-05-02T15:39:50Z</time></trkpt><trkpt lat="44.76103512807387" lon="9.94306624512549"><ele>494.66666666666663</ele><time>2026-05-02T15:39:53Z</time></trkpt><trkpt lat="44.761055857405395" lon="9.943175885275718"><ele>494.5</ele><time>2026-05-02T15:39:55.999Z</time></trkpt><trkpt lat="44.761074949686446" lon="9.943280203346173"><ele>494.3333333333333</ele><time>2026-05-02T15:39:58.999Z</time></trkpt><trkpt lat="44.761076714529494" lon="9.943397296267069"><ele>494.16666666666663</ele><time>2026-05-02T15:40:01.999Z</time></trkpt><trkpt lat="44.76106763068824" lon="9.943513708169693"><ele>494.0</ele><time>2026-05-02T15:40:04.999Z</time></trkpt><trkpt lat="44.761046287373084" lon="9.943622505675567"><ele>496.28571428571433</ele><time>2026-05-02T15:40:07.999Z</time></trkpt><trkpt lat="44.761027435163705" lon="9.94370816972024"><ele>498.57142857142856</ele><time>2026-05-02T15:40:10.999Z</time></trkpt><trkpt lat="44.76100558855015" lon="9.943810333176984"><ele>500.8571428571429</ele><time>2026-05-02T15:40:13.999Z</time></trkpt><trkpt lat="44.7609719743901" lon="9.943917123714925"><ele>503.14285714285717</ele><time>2026-05-02T15:40:16.999Z</time></trkpt><trkpt lat="44.76091484030684" lon="9.943986084825806"><ele>505.42857142857144</ele><time>2026-05-02T15:40:19.999Z</time></trkpt><trkpt lat="44.76083924428061" lon="9.943975673815979"><ele>507.7142857142857</ele><time>2026-05-02T15:40:22.999Z</time></trkpt><trkpt lat="44.76079517955469" lon="9.943908920161444"><ele>510.0</ele><time>2026-05-02T15:40:25.999Z</time></trkpt><trkpt lat="44.76076739040163" lon="9.943825725540684"><ele>510.0</ele><time>2026-05-02T15:40:28.999Z</time></trkpt><trkpt lat="44.76074798743419" lon="9.943740871462799"><ele>510.00000000000006</ele><time>2026-05-02T15:40:31.999Z</time></trkpt><trkpt lat="44.76072565202296" lon="9.943656999345833"><ele>510.0</ele><time>2026-05-02T15:40:34.999Z</time></trkpt><trkpt lat="44.76070289901683" lon="9.94356585192732"><ele>510.0</ele><time>2026-05-02T15:40:37.999Z</time></trkpt><trkpt lat="44.76068009154334" lon="9.94347579533188"><ele>510.00000000000006</ele><time>2026-05-02T15:40:40.999Z</time></trkpt><trkpt lat="44.760662051766566" lon="9.943379913952478"><ele>510.0</ele><time>2026-05-02T15:40:43.999Z</time></trkpt><trkpt lat="44.76064354051554" lon="9.943289382145602"><ele>510.0</ele><time>2026-05-02T15:40:46.999Z</time></trkpt><trkpt lat="44.76061410449545" lon="9.943189880998132"><ele>510.8333333333333</ele><time>2026-05-02T15:40:49.998Z</time></trkpt><trkpt lat="44.7605742874768" lon="9.943090590474215"><ele>511.66666666666663</ele><time>2026-05-02T15:40:52.998Z</time></trkpt><trkpt lat="44.7605312784945" lon="9.94300563093027"><ele>512.5</ele><time>2026-05-02T15:40:55.998Z</time></trkpt><trkpt lat="44.76049079012708" lon="9.942920995584226"><ele>513.3333333333333</ele><time>2026-05-02T15:40:58.998Z</time></trkpt><trkpt lat="44.76043427456959" lon="9.9428244078466"><ele>514.1666666666666</ele><time>2026-05-02T15:41:01.998Z</time></trkpt><trkpt lat="44.76039614295352" lon="9.942740620253048"><ele>515.0</ele><time>2026-05-02T15:41:04.998Z</time></trkpt><trkpt lat="44.760369136764226" lon="9.9426409044506"><ele>514.6666666666666</ele><time>2026-05-02T15:41:07.998Z</time></trkpt><trkpt lat="44.76036286433675" lon="9.942529096068819"><ele>514.3333333333333</ele><time>2026-05-02T15:41:10.998Z</time></trkpt><trkpt lat="44.76037156880045" lon="9.942413174320992"><ele>514.0</ele><time>2026-05-02T15:41:13.998Z</time></trkpt><trkpt lat="44.760383255496464" lon="9.942325561765035"><ele>513.6666666666666</ele><time>2026-05-02T15:41:15.998Z</time></trkpt><trkpt lat="44.76039855038969" lon="9.942213858059363"><ele>513.3333333333334</ele><time>2026-05-02T15:41:18.998Z</time></trkpt><trkpt lat="44.76041105031499" lon="9.942099008897008"><ele>513.0</ele><time>2026-05-02T15:41:21.998Z</time></trkpt><trkpt lat="44.76043535146099" lon="9.942002086849168"><ele>513.0</ele><time>2026-05-02T15:41:23.998Z</time></trkpt><trkpt lat="44.76046097743935" lon="9.941892983236315"><ele>513.0</ele><time>2026-05-02T15:41:27Z</time></trkpt><trkpt lat="44.760478796908615" lon="9.941787064226993"><ele>513.0</ele><time>2026-05-02T15:41:30Z</time></trkpt><trkpt lat="44.76049487686578" lon="9.94167745004152"><ele>513.0</ele><time>2026-05-02T15:41:33Z</time></trkpt><trkpt lat="44.76051227690558" lon="9.941573218323397"><ele>513.0</ele><time>2026-05-02T15:41:36Z</time></trkpt><trkpt lat="44.760528286801325" lon="9.941484660187129"><ele>513.0</ele><time>2026-05-02T15:41:39Z</time></trkpt><trkpt lat="44.76055169873322" lon="9.9413879553482"><ele>513.2857142857143</ele><time>2026-05-02T15:41:42Z</time></trkpt><trkpt lat="44.760577308019066" lon="9.94128519325439"><ele>513.5714285714286</ele><time>2026-05-02T15:41:45Z</time></trkpt><trkpt lat="44.76060655758417" lon="9.94119328417697"><ele>513.8571428571429</ele><time>2026-05-02T15:41:47Z</time></trkpt><trkpt lat="44.760650784621866" lon="9.941099739112026"><ele>514.1428571428571</ele><time>2026-05-02T15:41:51Z</time></trkpt><trkpt lat="44.76068894900259" lon="9.94102504637294"><ele>514.4285714285714</ele><time>2026-05-02T15:41:54Z</time></trkpt><trkpt lat="44.760734002444174" lon="9.940951195106368"><ele>514.7142857142858</ele><time>2026-05-02T15:41:57Z</time></trkpt><trkpt lat="44.760781911145884" lon="9.940878619147933"><ele>515.0</ele><time>2026-05-02T15:41:59.999Z</time></trkpt><trkpt lat="44.760831610480885" lon="9.940804970939835"><ele>514.8333333333333</ele><time>2026-05-02T15:42:02.999Z</time></trkpt><trkpt lat="44.76088596356879" lon="9.94071571560858"><ele>514.6666666666666</ele><time>2026-05-02T15:42:05.999Z</time></trkpt><trkpt lat="44.760928007252446" lon="9.940649457467195"><ele>514.5</ele><time>2026-05-02T15:42:08.999Z</time></trkpt><trkpt lat="44.760973147150686" lon="9.940569521866083"><ele>514.3333333333334</ele><time>2026-05-02T15:42:11.999Z</time></trkpt><trkpt lat="44.76103112934591" lon="9.94047069199631"><ele>514.1666666666667</ele><time>2026-05-02T15:42:14.999Z</time></trkpt><trkpt lat="44.76104862420099" lon="9.940359065209039"><ele>514.0</ele><time>2026-05-02T15:42:17.999Z</time></trkpt><trkpt lat="44.76102341864899" lon="9.940243447707655"><ele>516.0</ele><time>2026-05-02T15:42:20.999Z</time></trkpt><trkpt lat="44.76096758782977" lon="9.9401658047018"><ele>518.0</ele><time>2026-05-02T15:42:23.999Z</time></trkpt><trkpt lat="44.76089206812262" lon="9.940147925473362"><ele>520.0</ele><time>2026-05-02T15:42:26.999Z</time></trkpt><trkpt lat="44.76081982400948" lon="9.94017290081787"><ele>522.0</ele><time>2026-05-02T15:42:29.999Z</time></trkpt><trkpt lat="44.76075134618534" lon="9.940201382423924"><ele>524.0</ele><time>2026-05-02T15:42:32.999Z</time></trkpt><trkpt lat="44.76066832377828" lon="9.940217829672049"><ele>526.0</ele><time>2026-05-02T15:42:36.999Z</time></trkpt><trkpt lat="44.76058208420766" lon="9.94023962707171"><ele>526.0</ele><time>2026-05-02T15:42:40.999Z</time></trkpt><trkpt lat="44.76051325141865" lon="9.94025577011192"><ele>526.0</ele><time>2026-05-02T15:42:43.999Z</time></trkpt><trkpt lat="44.760432123671436" lon="9.940277885324717"><ele>526.0</ele><time>2026-05-02T15:42:46.999Z</time></trkpt><trkpt lat="44.76035344268931" lon="9.940301006305175"><ele>526.0</ele><time>2026-05-02T15:42:50.999Z</time></trkpt><trkpt lat="44.7602819219679" lon="9.940328073769761"><ele>526.0</ele><time>2026-05-02T15:42:53.999Z</time></trkpt><trkpt lat="44.76021258442649" lon="9.940376964413014"><ele>526.0</ele><time>2026-05-02T15:42:56.998Z</time></trkpt><trkpt lat="44.76014919133944" lon="9.940441845650229"><ele>526.8571428571429</ele><time>2026-05-02T15:42:59.998Z</time></trkpt><trkpt lat="44.760089553392355" lon="9.940521769474357"><ele>527.7142857142857</ele><time>2026-05-02T15:43:03.998Z</time></trkpt><trkpt lat="44.760036490915" lon="9.940593403835429"><ele>528.5714285714286</ele><time>2026-05-02T15:43:06.998Z</time></trkpt><trkpt lat="44.759984868020496" lon="9.940668355029393"><ele>529.4285714285714</ele><time>2026-05-02T15:43:09.998Z</time></trkpt><trkpt lat="44.759931483253354" lon="9.940753924267666"><ele>530.2857142857142</ele><time>2026-05-02T15:43:12.998Z</time></trkpt><trkpt lat="44.75988939415209" lon="9.94082120703251"><ele>531.1428571428571</ele><time>2026-05-02T15:43:15.998Z</time></trkpt><trkpt lat="44.75984126348246" lon="9.940884298440142"><ele>532.0</ele><time>2026-05-02T15:43:18.998Z</time></trkpt><trkpt lat="44.75979508646071" lon="9.940948011969445"><ele>532.0</ele><time>2026-05-02T15:43:21.998Z</time></trkpt><trkpt lat="44.759748247817086" lon="9.941024144913625"><ele>532.0</ele><time>2026-05-02T15:43:24.998Z</time></trkpt><trkpt lat="44.75970136841058" lon="9.941109290433797"><ele>532.0</ele><time>2026-05-02T15:43:27.998Z</time></trkpt><trkpt lat="44.759660109505504" lon="9.941194494657106"><ele>532.0</ele><time>2026-05-02T15:43:31Z</time></trkpt><trkpt lat="44.759620930189776" lon="9.941277409168897"><ele>532.0</ele><time>2026-05-02T15:43:34Z</time></trkpt><trkpt lat="44.75957694579629" lon="9.941357759532814"><ele>532.0</ele><time>2026-05-02T15:43:37Z</time></trkpt><trkpt lat="44.75953879559387" lon="9.941443557519449"><ele>532.0</ele><time>2026-05-02T15:43:40Z</time></trkpt><trkpt lat="44.75950038106034" lon="9.941526532463833"><ele>532.0</ele><time>2026-05-02T15:43:43Z</time></trkpt><trkpt lat="44.75945587434835" lon="9.941619537344925"><ele>532.0</ele><time>2026-05-02T15:43:46Z</time></trkpt><trkpt lat="44.759414239988274" lon="9.941700516014524"><ele>532.0</ele><time>2026-05-02T15:43:49Z</time></trkpt><trkpt lat="44.759380366766266" lon="9.941776851666232"><ele>532.0</ele><time>2026-05-02T15:43:52Z</time></trkpt><trkpt lat="44.75934552993472" lon="9.941858513680899"><ele>532.0</ele><time>2026-05-02T15:43:55Z</time></trkpt><trkpt lat="44.759308216125504" lon="9.941946912358398"><ele>532.0</ele><time>2026-05-02T15:43:58Z</time></trkpt><trkpt lat="44.75927276605822" lon="9.942035741047228"><ele>532.0</ele><time>2026-05-02T15:44:01Z</time></trkpt><trkpt lat="44.759240642376284" lon="9.942131646541823"><ele>533.8571428571429</ele><time>2026-05-02T15:44:03.999Z</time></trkpt><trkpt lat="44.75920828024386" lon="9.942235906361683"><ele>535.7142857142858</ele><time>2026-05-02T15:44:06.999Z</time></trkpt><trkpt lat="44.759190626755945" lon="9.942329171589453"><ele>537.5714285714286</ele><time>2026-05-02T15:44:09.999Z</time></trkpt><trkpt lat="44.759176257605134" lon="9.942432690272062"><ele>539.4285714285714</ele><time>2026-05-02T15:44:12.999Z</time></trkpt><trkpt lat="44.75917261592146" lon="9.942532293611789"><ele>541.2857142857143</ele><time>2026-05-02T15:44:15.999Z</time></trkpt><trkpt lat="44.75917296370146" lon="9.94263211890914"><ele>543.1428571428571</ele><time>2026-05-02T15:44:18.999Z</time></trkpt><trkpt lat="44.759173422333355" lon="9.942738904690266"><ele>545.0</ele><time>2026-05-02T15:44:21.999Z</time></trkpt><trkpt lat="44.759166984324395" lon="9.942839941667746"><ele>545.0</ele><time>2026-05-02T15:44:24.999Z</time></trkpt><trkpt lat="44.759115443003964" lon="9.942911637326706"><ele>545.0</ele><time>2026-05-02T15:44:27.999Z</time></trkpt><trkpt lat="44.759051994193605" lon="9.942852965724239"><ele>545.0</ele><time>2026-05-02T15:44:31.999Z</time></trkpt><trkpt lat="44.75903522257208" lon="9.942757164987555"><ele>545.0</ele><time>2026-05-02T15:44:35.999Z</time></trkpt><trkpt lat="44.759016327878804" lon="9.94266222945568"><ele>545.0</ele><time>2026-05-02T15:44:39.999Z</time></trkpt><trkpt lat="44.75899023797626" lon="9.942556369051836"><ele>545.0</ele><time>2026-05-02T15:44:43.999Z</time></trkpt><trkpt lat="44.75897754896798" lon="9.942453487243878"><ele>545.0</ele><time>2026-05-02T15:44:47.999Z</time></trkpt><trkpt lat="44.75895445132079" lon="9.942359257440238"><ele>545.4285714285714</ele><time>2026-05-02T15:44:51.999Z</time></trkpt><trkpt lat="44.75893970261912" lon="9.94225794481874"><ele>545.8571428571429</ele><time>2026-05-02T15:44:55.999Z</time></trkpt><trkpt lat="44.758933869903636" lon="9.942157559583736"><ele>546.2857142857143</ele><time>2026-05-02T15:44:58.999Z</time></trkpt><trkpt lat="44.75894148808751" lon="9.94206407615328"><ele>546.7142857142858</ele><time>2026-05-02T15:45:02.998Z</time></trkpt><trkpt lat="44.75894891223687" lon="9.941974095036255"><ele>547.1428571428571</ele><time>2026-05-02T15:45:05.998Z</time></trkpt><trkpt lat="44.758963395630744" lon="9.941883036781645"><ele>547.5714285714287</ele><time>2026-05-02T15:45:08.998Z</time></trkpt><trkpt lat="44.75898162166605" lon="9.941782501437174"><ele>548.0</ele><time>2026-05-02T15:45:11.998Z</time></trkpt><trkpt lat="44.758997315751344" lon="9.941696035902064"><ele>549.1428571428572</ele><time>2026-05-02T15:45:14.998Z</time></trkpt><trkpt lat="44.759012593444616" lon="9.941594667316133"><ele>550.2857142857143</ele><time>2026-05-02T15:45:18.998Z</time></trkpt><trkpt lat="44.759030301524824" lon="9.941500032767937"><ele>551.4285714285714</ele><time>2026-05-02T15:45:21.998Z</time></trkpt><trkpt lat="44.75904868583406" lon="9.941404158979608"><ele>552.5714285714287</ele><time>2026-05-02T15:45:24.998Z</time></trkpt><trkpt lat="44.75906552264441" lon="9.941295541628445"><ele>553.7142857142858</ele><time>2026-05-02T15:45:28.998Z</time></trkpt><trkpt lat="44.75908151677568" lon="9.941200534399805"><ele>554.8571428571429</ele><time>2026-05-02T15:45:31.998Z</time></trkpt><trkpt lat="44.7590949064434" lon="9.941101335013913"><ele>556.0</ele><time>2026-05-02T15:45:34.998Z</time></trkpt><trkpt lat="44.759104797921204" lon="9.9409971413467"><ele>557.2857142857142</ele><time>2026-05-02T15:45:38Z</time></trkpt><trkpt lat="44.759102552087015" lon="9.940879113291604"><ele>558.5714285714286</ele><time>2026-05-02T15:45:42Z</time></trkpt><trkpt lat="44.75908857442087" lon="9.940773917234715"><ele>559.8571428571429</ele><time>2026-05-02T15:45:45Z</time></trkpt><trkpt lat="44.75906990273231" lon="9.94066783811071"><ele>561.1428571428571</ele><time>2026-05-02T15:45:48Z</time></trkpt><trkpt lat="44.75904420628107" lon="9.9405802840037"><ele>562.4285714285714</ele><time>2026-05-02T15:45:51Z</time></trkpt><trkpt lat="44.75903535033659" lon="9.940488208671564"><ele>563.7142857142857</ele><time>2026-05-02T15:45:54Z</time></trkpt><trkpt lat="44.75904464514233" lon="9.94039223428885"><ele>565.0</ele><time>2026-05-02T15:45:57Z</time></trkpt><trkpt lat="44.7590597046218" lon="9.940293623099596"><ele>565.0</ele><time>2026-05-02T15:46:00Z</time></trkpt><trkpt lat="44.7590860096652" lon="9.940206715454803"><ele>565.0</ele><time>2026-05-02T15:46:03Z</time></trkpt><trkpt lat="44.75913160051641" lon="9.940107393364043"><ele>565.0</ele><time>2026-05-02T15:46:06Z</time></trkpt><trkpt lat="44.759166440018774" lon="9.940009170587818"><ele>565.0</ele><time>2026-05-02T15:46:09.999Z</time></trkpt><trkpt lat="44.75919099402544" lon="9.939909701484652"><ele>565.0</ele><time>2026-05-02T15:46:12.999Z</time></trkpt><trkpt lat="44.759206248042645" lon="9.939804099383577"><ele>565.0</ele><time>2026-05-02T15:46:15.999Z</time></trkpt><trkpt lat="44.75920586979528" lon="9.939694510774665"><ele>565.6666666666667</ele><time>2026-05-02T15:46:18.999Z</time></trkpt><trkpt lat="44.759183307981374" lon="9.939566932024261"><ele>566.3333333333334</ele><time>2026-05-02T15:46:21.999Z</time></trkpt><trkpt lat="44.75916566157529" lon="9.939472443909352"><ele>567.0</ele><time>2026-05-02T15:46:24.999Z</time></trkpt><trkpt lat="44.75914392570906" lon="9.93937554705484"><ele>567.6666666666666</ele><time>2026-05-02T15:46:27.999Z</time></trkpt><trkpt lat="44.759116127174615" lon="9.939284500549908"><ele>568.3333333333333</ele><time>2026-05-02T15:46:30.999Z</time></trkpt><trkpt lat="44.75907796741585" lon="9.939195007475512"><ele>569.0</ele><time>2026-05-02T15:46:33.999Z</time></trkpt><trkpt lat="44.759029723629226" lon="9.939115646733615"><ele>569.0000000000001</ele><time>2026-05-02T15:46:36.999Z</time></trkpt><trkpt lat="44.7589751723122" lon="9.939042881445673"><ele>569.0</ele><time>2026-05-02T15:46:39.999Z</time></trkpt><trkpt lat="44.758914335357176" lon="9.938987371461474"><ele>569.0</ele><time>2026-05-02T15:46:42.999Z</time></trkpt><trkpt lat="44.75883410305385" lon="9.938952529039298"><ele>569.0</ele><time>2026-05-02T15:46:45.999Z</time></trkpt><trkpt lat="44.758768735855064" lon="9.93893768516329"><ele>569.0</ele><time>2026-05-02T15:46:48.999Z</time></trkpt><trkpt lat="44.75869623302613" lon="9.93892914840236"><ele>569.0000000000001</ele><time>2026-05-02T15:46:51.999Z</time></trkpt><trkpt lat="44.75863147237372" lon="9.938917701986087"><ele>569.0</ele><time>2026-05-02T15:46:54.999Z</time></trkpt><trkpt lat="44.75854994385991" lon="9.938906536212876"><ele>571.2857142857143</ele><time>2026-05-02T15:46:58.999Z</time></trkpt><trkpt lat="44.75848353956663" lon="9.938872340635225"><ele>573.5714285714286</ele><time>2026-05-02T15:47:01.999Z</time></trkpt><trkpt lat="44.7584280888835" lon="9.938817427636998"><ele>575.8571428571429</ele><time>2026-05-02T15:47:04.998Z</time></trkpt><trkpt lat="44.75837807133381" lon="9.938724108836881"><ele>578.1428571428571</ele><time>2026-05-02T15:47:07.998Z</time></trkpt><trkpt lat="44.75835660033792" lon="9.938615876935616"><ele>580.4285714285714</ele><time>2026-05-02T15:47:11.998Z</time></trkpt><trkpt lat="44.75834532002754" lon="9.938518994516631"><ele>582.7142857142858</ele><time>2026-05-02T15:47:14.998Z</time></trkpt><trkpt lat="44.75833363522324" lon="9.93841982213779"><ele>585.0</ele><time>2026-05-02T15:47:17.998Z</time></trkpt><trkpt lat="44.758310241460265" lon="9.938305623107933"><ele>585.0</ele><time>2026-05-02T15:47:20.998Z</time></trkpt><trkpt lat="44.75827451412806" lon="9.938210823425349"><ele>585.0</ele><time>2026-05-02T15:47:23.998Z</time></trkpt><trkpt lat="44.758234738369104" lon="9.93812534375534"><ele>585.0</ele><time>2026-05-02T15:47:26.998Z</time></trkpt><trkpt lat="44.75818717483465" lon="9.938047008000648"><ele>585.0</ele><time>2026-05-02T15:47:29.998Z</time></trkpt><trkpt lat="44.758140820685185" lon="9.93797512087989"><ele>585.0</ele><time>2026-05-02T15:47:32.998Z</time></trkpt><trkpt lat="44.758098530238655" lon="9.93789033287524"><ele>585.0</ele><time>2026-05-02T15:47:35.998Z</time></trkpt><trkpt lat="44.7580640355485" lon="9.937798969258484"><ele>585.0</ele><time>2026-05-02T15:47:38.998Z</time></trkpt><trkpt lat="44.758035872189616" lon="9.937701983783295"><ele>585.0</ele><time>2026-05-02T15:47:41.998Z</time></trkpt><trkpt lat="44.758013403773184" lon="9.937606267431233"><ele>585.0</ele><time>2026-05-02T15:47:45Z</time></trkpt><trkpt lat="44.75800325935436" lon="9.937487642764559"><ele>585.0</ele><time>2026-05-02T15:47:48Z</time></trkpt><trkpt lat="44.75800054444989" lon="9.937396602264615"><ele>585.0</ele><time>2026-05-02T15:47:51Z</time></trkpt><trkpt lat="44.758001561326" lon="9.937286916343272"><ele>585.0</ele><time>2026-05-02T15:47:54Z</time></trkpt><trkpt lat="44.758014177089635" lon="9.937174659109996"><ele>585.0</ele><time>2026-05-02T15:47:58Z</time></trkpt><trkpt lat="44.75802507265718" lon="9.937081383824824"><ele>585.0</ele><time>2026-05-02T15:48:01Z</time></trkpt><trkpt lat="44.758055965844264" lon="9.936969472770924"><ele>584.5714285714286</ele><time>2026-05-02T15:48:04Z</time></trkpt><trkpt lat="44.75808763114925" lon="9.936866538788356"><ele>584.1428571428571</ele><time>2026-05-02T15:48:08Z</time></trkpt><trkpt lat="44.75813120332034" lon="9.936769617523296"><ele>583.7142857142857</ele><time>2026-05-02T15:48:12Z</time></trkpt><trkpt lat="44.75817864239773" lon="9.936688704549228"><ele>583.2857142857142</ele><time>2026-05-02T15:48:14.999Z</time></trkpt><trkpt lat="44.75823681517328" lon="9.936625482899585"><ele>582.8571428571428</ele><time>2026-05-02T15:48:18.999Z</time></trkpt><trkpt lat="44.7582954970088" lon="9.93658217028835"><ele>582.4285714285714</ele><time>2026-05-02T15:48:21.999Z</time></trkpt><trkpt lat="44.75835488299876" lon="9.936524946611993"><ele>582.0</ele><time>2026-05-02T15:48:24.999Z</time></trkpt><trkpt lat="44.758405284654366" lon="9.936428616642097"><ele>582.8571428571429</ele><time>2026-05-02T15:48:27.999Z</time></trkpt><trkpt lat="44.75840937665975" lon="9.936319751032771"><ele>583.7142857142857</ele><time>2026-05-02T15:48:31.999Z</time></trkpt><trkpt lat="44.75837814038527" lon="9.936236283162133"><ele>584.5714285714286</ele><time>2026-05-02T15:48:34.999Z</time></trkpt><trkpt lat="44.758325864500286" lon="9.936170417239287"><ele>585.4285714285714</ele><time>2026-05-02T15:48:37.999Z</time></trkpt><trkpt lat="44.75826191392867" lon="9.936133789881161"><ele>586.2857142857142</ele><time>2026-05-02T15:48:40.999Z</time></trkpt><trkpt lat="44.75819373425117" lon="9.936104343891726"><ele>587.1428571428571</ele><time>2026-05-02T15:48:43.999Z</time></trkpt><trkpt lat="44.758121153208144" lon="9.93607811561057"><ele>588.0</ele><time>2026-05-02T15:48:46.999Z</time></trkpt><trkpt lat="44.758042799648464" lon="9.936057781858015"><ele>588.0</ele><time>2026-05-02T15:48:50.999Z</time></trkpt><trkpt lat="44.75797892834367" lon="9.936054611307293"><ele>588.0</ele><time>2026-05-02T15:48:53.999Z</time></trkpt><trkpt lat="44.75791639069394" lon="9.93607625679706"><ele>588.0</ele><time>2026-05-02T15:48:56.999Z</time></trkpt><trkpt lat="44.75784205428927" lon="9.936128927354495"><ele>588.0</ele><time>2026-05-02T15:49:00.999Z</time></trkpt><trkpt lat="44.75778706021238" lon="9.936187321503235"><ele>588.0</ele><time>2026-05-02T15:49:03.999Z</time></trkpt><trkpt lat="44.757736933140116" lon="9.936270207440833"><ele>588.0</ele><time>2026-05-02T15:49:07.998Z</time></trkpt><trkpt lat="44.75770239763044" lon="9.936348417542009"><ele>588.0</ele><time>2026-05-02T15:49:10.998Z</time></trkpt><trkpt lat="44.75765872311608" lon="9.936441502255402"><ele>590.7142857142857</ele><time>2026-05-02T15:49:13.998Z</time></trkpt><trkpt lat="44.757624450939225" lon="9.936523021402333"><ele>593.4285714285714</ele><time>2026-05-02T15:49:16.998Z</time></trkpt><trkpt lat="44.7575878634077" lon="9.936596078073693"><ele>596.1428571428571</ele><time>2026-05-02T15:49:19.998Z</time></trkpt><trkpt lat="44.75755061726006" lon="9.936678475859043"><ele>598.8571428571429</ele><time>2026-05-02T15:49:22.998Z</time></trkpt><trkpt lat="44.75752077866303" lon="9.936769552711313"><ele>601.5714285714286</ele><time>2026-05-02T15:49:25.998Z</time></trkpt><trkpt lat="44.75748750074805" lon="9.936858900368136"><ele>604.2857142857142</ele><time>2026-05-02T15:49:28.998Z</time></trkpt><trkpt lat="44.757444140780954" lon="9.936965442236867"><ele>607.0</ele><time>2026-05-02T15:49:31.998Z</time></trkpt><trkpt lat="44.75741476676697" lon="9.937048299530304"><ele>607.0</ele><time>2026-05-02T15:49:34.998Z</time></trkpt><trkpt lat="44.75737314306595" lon="9.93714935920664"><ele>607.0</ele><time>2026-05-02T15:49:38.998Z</time></trkpt><trkpt lat="44.757340784415874" lon="9.937241832714438"><ele>607.0</ele><time>2026-05-02T15:49:41.998Z</time></trkpt><trkpt lat="44.75730127858134" lon="9.937339990523872"><ele>607.0</ele><time>2026-05-02T15:49:44.998Z</time></trkpt><trkpt lat="44.75727105102443" lon="9.937439176509432"><ele>607.0</ele><time>2026-05-02T15:49:47.998Z</time></trkpt><trkpt lat="44.75724958089306" lon="9.93754051039124"><ele>607.0</ele><time>2026-05-02T15:49:51Z</time></trkpt><trkpt lat="44.75723499689308" lon="9.937638182984628"><ele>608.0</ele><time>2026-05-02T15:49:54Z</time></trkpt><trkpt lat="44.75723499701166" lon="9.937742655977154"><ele>609.0</ele><time>2026-05-02T15:49:57Z</time></trkpt><trkpt lat="44.75725070896178" lon="9.937855653466594"><ele>610.0</ele><time>2026-05-02T15:50:00Z</time></trkpt><trkpt lat="44.75728495812983" lon="9.937958189283098"><ele>611.0</ele><time>2026-05-02T15:50:03Z</time></trkpt><trkpt lat="44.75733637509022" lon="9.938047755205789"><ele>612.0</ele><time>2026-05-02T15:50:06Z</time></trkpt><trkpt lat="44.75739795708258" lon="9.938146471207592"><ele>613.0</ele><time>2026-05-02T15:50:09Z</time></trkpt><trkpt lat="44.75744858312326" lon="9.938225464761635"><ele>613.0</ele><time>2026-05-02T15:50:12Z</time></trkpt><trkpt lat="44.75749847109309" lon="9.938291841851285"><ele>613.0</ele><time>2026-05-02T15:50:14Z</time></trkpt><trkpt lat="44.75755906236829" lon="9.93836069962322"><ele>613.0</ele><time>2026-05-02T15:50:17Z</time></trkpt><trkpt lat="44.75760412947273" lon="9.938446744555586"><ele>613.0</ele><time>2026-05-02T15:50:19.999Z</time></trkpt><trkpt lat="44.757627631126574" lon="9.938553877287868"><ele>613.0</ele><time>2026-05-02T15:50:22.999Z</time></trkpt><trkpt lat="44.757621006794636" lon="9.938653770085946"><ele>613.0</ele><time>2026-05-02T15:50:25.999Z</time></trkpt><trkpt lat="44.757585680860814" lon="9.938741469997046"><ele>613.0</ele><time>2026-05-02T15:50:28.999Z</time></trkpt><trkpt lat="44.75754171619171" lon="9.938825069740416"><ele>612.7142857142858</ele><time>2026-05-02T15:50:31.999Z</time></trkpt><trkpt lat="44.75748310233769" lon="9.938885527563693"><ele>612.4285714285714</ele><time>2026-05-02T15:50:33.999Z</time></trkpt><trkpt lat="44.75740989472147" lon="9.938921006741593"><ele>612.1428571428571</ele><time>2026-05-02T15:50:36.999Z</time></trkpt><trkpt lat="44.757345420874444" lon="9.93892383004426"><ele>611.8571428571429</ele><time>2026-05-02T15:50:39.999Z</time></trkpt><trkpt lat="44.75727858991302" lon="9.938893459142138"><ele>611.5714285714286</ele><time>2026-05-02T15:50:42.999Z</time></trkpt><trkpt lat="44.75720823618714" lon="9.938847978706352"><ele>611.2857142857143</ele><time>2026-05-02T15:50:45.999Z</time></trkpt><trkpt lat="44.75715372251342" lon="9.938778103763552"><ele>611.0</ele><time>2026-05-02T15:50:48.999Z</time></trkpt><trkpt lat="44.75710925761069" lon="9.938697279872468"><ele>611.0</ele><time>2026-05-02T15:50:51.999Z</time></trkpt><trkpt lat="44.757083852463005" lon="9.938596654948595"><ele>611.0</ele><time>2026-05-02T15:50:55.999Z</time></trkpt><trkpt lat="44.757062272395906" lon="9.93850107948413"><ele>611.0</ele><time>2026-05-02T15:50:58.999Z</time></trkpt><trkpt lat="44.757045591606555" lon="9.938397132382345"><ele>611.0</ele><time>2026-05-02T15:51:01.999Z</time></trkpt><trkpt lat="44.75702553116217" lon="9.93828272927278"><ele>611.0</ele><time>2026-05-02T15:51:04.999Z</time></trkpt><trkpt lat="44.75700771387844" lon="9.938180237674928"><ele>611.0</ele><time>2026-05-02T15:51:07.999Z</time></trkpt><trkpt lat="44.75699163015823" lon="9.938076719387865"><ele>611.2857142857143</ele><time>2026-05-02T15:51:10.999Z</time></trkpt><trkpt lat="44.756973740847634" lon="9.937976841329972"><ele>611.5714285714286</ele><time>2026-05-02T15:51:13.998Z</time></trkpt><trkpt lat="44.75695569336917" lon="9.937885805001546"><ele>611.8571428571429</ele><time>2026-05-02T15:51:16.998Z</time></trkpt><trkpt lat="44.756937337992994" lon="9.937790300543078"><ele>612.1428571428571</ele><time>2026-05-02T15:51:19.998Z</time></trkpt><trkpt lat="44.75691816566145" lon="9.93767891681199"><ele>612.4285714285714</ele><time>2026-05-02T15:51:22.998Z</time></trkpt><trkpt lat="44.756901668830636" lon="9.937574191501401"><ele>612.7142857142858</ele><time>2026-05-02T15:51:25.998Z</time></trkpt><trkpt lat="44.756881985737984" lon="9.937464714613998"><ele>613.0</ele><time>2026-05-02T15:51:28.998Z</time></trkpt><trkpt lat="44.7568743588352" lon="9.937342882784892"><ele>612.1428571428571</ele><time>2026-05-02T15:51:31.998Z</time></trkpt><trkpt lat="44.75687444475827" lon="9.937241650780816"><ele>611.2857142857142</ele><time>2026-05-02T15:51:34.998Z</time></trkpt><trkpt lat="44.75688545205037" lon="9.937134791412431"><ele>610.4285714285713</ele><time>2026-05-02T15:51:37.998Z</time></trkpt><trkpt lat="44.75689012357217" lon="9.937044739167868"><ele>609.5714285714286</ele><time>2026-05-02T15:51:40.998Z</time></trkpt><trkpt lat="44.75689653854313" lon="9.9369514191838"><ele>608.7142857142857</ele><time>2026-05-02T15:51:43.998Z</time></trkpt><trkpt lat="44.7568330992381" lon="9.936933979153912"><ele>607.8571428571428</ele><time>2026-05-02T15:51:49.998Z</time></trkpt><trkpt lat="44.756807693456935" lon="9.937048167936014"><ele>607.0</ele><time>2026-05-02T15:54:23.999Z</time></trkpt><trkpt lat="44.75680004817185" lon="9.937180500988251"><ele>608.0</ele><time>2026-05-02T15:54:26.999Z</time></trkpt><trkpt lat="44.756798851830276" lon="9.937290804302595"><ele>609.0</ele><time>2026-05-02T15:54:28.999Z</time></trkpt><trkpt lat="44.75680805937198" lon="9.93740998887697"><ele>610.0</ele><time>2026-05-02T15:54:30.999Z</time></trkpt><trkpt lat="44.75682428855167" lon="9.937532873197988"><ele>611.0</ele><time>2026-05-02T15:54:32.999Z</time></trkpt><trkpt lat="44.756844554798285" lon="9.937657258427762"><ele>612.0</ele><time>2026-05-02T15:54:34.999Z</time></trkpt><trkpt lat="44.75686635435982" lon="9.937782216513533"><ele>613.0</ele><time>2026-05-02T15:54:36.999Z</time></trkpt><trkpt lat="44.75688553425938" lon="9.937909483346909"><ele>613.0</ele><time>2026-05-02T15:54:38.999Z</time></trkpt><trkpt lat="44.75691031278807" lon="9.938041620299492"><ele>613.0</ele><time>2026-05-02T15:54:40.999Z</time></trkpt><trkpt lat="44.75693183134518" lon="9.938182093327766"><ele>613.0</ele><time>2026-05-02T15:54:42.999Z</time></trkpt><trkpt lat="44.75695323094885" lon="9.93832426774428"><ele>613.0</ele><time>2026-05-02T15:54:44.999Z</time></trkpt><trkpt lat="44.75697574617618" lon="9.938465257603779"><ele>613.0</ele><time>2026-05-02T15:54:46.999Z</time></trkpt><trkpt lat="44.75699123917535" lon="9.938613067431131"><ele>612.6</ele><time>2026-05-02T15:54:48.999Z</time></trkpt><trkpt lat="44.75703388330731" lon="9.938778563627702"><ele>612.1999999999999</ele><time>2026-05-02T15:54:50.999Z</time></trkpt><trkpt lat="44.757117321564216" lon="9.938925022519221"><ele>611.8</ele><time>2026-05-02T15:54:52.999Z</time></trkpt><trkpt lat="44.75716770406602" lon="9.938986721719834"><ele>611.4</ele><time>2026-05-02T15:54:53.999Z</time></trkpt><trkpt lat="44.75722649887797" lon="9.939030695131729"><ele>611.0</ele><time>2026-05-02T15:54:54.999Z</time></trkpt><trkpt lat="44.757287293777786" lon="9.939071790115667"><ele>611.0000000000001</ele><time>2026-05-02T15:54:55.999Z</time></trkpt><trkpt lat="44.75735588496794" lon="9.939093909326118"><ele>611.0</ele><time>2026-05-02T15:54:56.999Z</time></trkpt><trkpt lat="44.75743018576401" lon="9.939090655848839"><ele>611.0</ele><time>2026-05-02T15:54:57.999Z</time></trkpt><trkpt lat="44.757495657353594" lon="9.939070528181636"><ele>611.0</ele><time>2026-05-02T15:54:58.999Z</time></trkpt><trkpt lat="44.75755894414337" lon="9.939025008226606"><ele>611.0</ele><time>2026-05-02T15:54:59.999Z</time></trkpt><trkpt lat="44.75761206148738" lon="9.938954005367634"><ele>611.0000000000001</ele><time>2026-05-02T15:55:00.999Z</time></trkpt><trkpt lat="44.75765105323469" lon="9.93885465563425"><ele>611.0</ele><time>2026-05-02T15:55:01.999Z</time></trkpt><trkpt lat="44.75767268796163" lon="9.938742367650992"><ele>611.0</ele><time>2026-05-02T15:55:02.999Z</time></trkpt><trkpt lat="44.757672425805715" lon="9.938629384735467"><ele>611.0</ele><time>2026-05-02T15:55:03.999Z</time></trkpt><trkpt lat="44.75764993589429" lon="9.938524459315438"><ele>611.0</ele><time>2026-05-02T15:55:04.999Z</time></trkpt><trkpt lat="44.757603258458445" lon="9.93843440457619"><ele>611.0</ele><time>2026-05-02T15:55:05.999Z</time></trkpt><trkpt lat="44.75754087411541" lon="9.938361132460658"><ele>611.0</ele><time>2026-05-02T15:55:06.999Z</time></trkpt><trkpt lat="44.757474413408765" lon="9.938297658367608"><ele>611.0</ele><time>2026-05-02T15:55:07.999Z</time></trkpt><trkpt lat="44.757406628949894" lon="9.938239028785306"><ele>611.3333333333333</ele><time>2026-05-02T15:55:08.999Z</time></trkpt><trkpt lat="44.75734171339671" lon="9.93817585396111"><ele>611.6666666666666</ele><time>2026-05-02T15:55:09.999Z</time></trkpt><trkpt lat="44.757283818946725" lon="9.93809559578268"><ele>612.0</ele><time>2026-05-02T15:55:10.999Z</time></trkpt><trkpt lat="44.757236446132275" lon="9.938000631033976"><ele>612.3333333333334</ele><time>2026-05-02T15:55:11.999Z</time></trkpt><trkpt lat="44.75721210688231" lon="9.937891731662125"><ele>612.6666666666667</ele><time>2026-05-02T15:55:12.999Z</time></trkpt><trkpt lat="44.757198543205845" lon="9.937776940411569"><ele>613.0</ele><time>2026-05-02T15:55:13.999Z</time></trkpt><trkpt lat="44.75720750887787" lon="9.937660454390102"><ele>612.0</ele><time>2026-05-02T15:55:14.998Z</time></trkpt><trkpt lat="44.75723755080301" lon="9.93754653872058"><ele>611.0</ele><time>2026-05-02T15:55:15.998Z</time></trkpt><trkpt lat="44.75727588856299" lon="9.937433107428534"><ele>610.0</ele><time>2026-05-02T15:55:16.998Z</time></trkpt><trkpt lat="44.75731468615191" lon="9.937323836676615"><ele>609.0</ele><time>2026-05-02T15:55:17.998Z</time></trkpt><trkpt lat="44.75735576057706" lon="9.937216687756163"><ele>608.0</ele><time>2026-05-02T15:55:18.998Z</time></trkpt><trkpt lat="44.75739463949661" lon="9.937105270200943"><ele>607.0</ele><time>2026-05-02T15:55:19.998Z</time></trkpt><trkpt lat="44.757435819621186" lon="9.936989564196312"><ele>607.0</ele><time>2026-05-02T15:55:20.998Z</time></trkpt><trkpt lat="44.75747404239643" lon="9.936871740188984"><ele>607.0</ele><time>2026-05-02T15:55:21.998Z</time></trkpt><trkpt lat="44.75751178095666" lon="9.93675122901156"><ele>607.0</ele><time>2026-05-02T15:55:22.998Z</time></trkpt><trkpt lat="44.75754423266634" lon="9.936642029482513"><ele>607.0</ele><time>2026-05-02T15:55:23.998Z</time></trkpt><trkpt lat="44.7575768301745" lon="9.936551177478952"><ele>607.0</ele><time>2026-05-02T15:55:24.998Z</time></trkpt><trkpt lat="44.757612098428496" lon="9.936453989092863"><ele>607.0</ele><time>2026-05-02T15:55:25.998Z</time></trkpt><trkpt lat="44.75765040334801" lon="9.936354954075592"><ele>607.7142857142857</ele><time>2026-05-02T15:55:26.998Z</time></trkpt><trkpt lat="44.75769221712089" lon="9.936262333726765"><ele>608.4285714285714</ele><time>2026-05-02T15:55:27.998Z</time></trkpt><trkpt lat="44.75773780158743" lon="9.936178129559496"><ele>609.1428571428571</ele><time>2026-05-02T15:55:28.998Z</time></trkpt><trkpt lat="44.757787338045915" lon="9.936106134528105"><ele>609.8571428571429</ele><time>2026-05-02T15:55:29.998Z</time></trkpt><trkpt lat="44.75784445544993" lon="9.936048309582683"><ele>610.5714285714286</ele><time>2026-05-02T15:55:30.998Z</time></trkpt><trkpt lat="44.7579077841816" lon="9.936002010112418"><ele>611.2857142857142</ele><time>2026-05-02T15:55:31.998Z</time></trkpt><trkpt lat="44.75797479676555" lon="9.935974470300993"><ele>612.0</ele><time>2026-05-02T15:55:32.998Z</time></trkpt><trkpt lat="44.758043532177716" lon="9.9359989624314"><ele>608.0</ele><time>2026-05-02T15:55:33.998Z</time></trkpt><trkpt lat="44.75810619880758" lon="9.936018104153202"><ele>604.0</ele><time>2026-05-02T15:55:34.998Z</time></trkpt><trkpt lat="44.758171995344156" lon="9.936037993039964"><ele>600.0</ele><time>2026-05-02T15:55:35.998Z</time></trkpt><trkpt lat="44.75823423017639" lon="9.936065402219318"><ele>596.0</ele><time>2026-05-02T15:55:36.998Z</time></trkpt><trkpt lat="44.75833631426442" lon="9.936135693853672"><ele>592.0</ele><time>2026-05-02T15:55:38.998Z</time></trkpt><trkpt lat="44.75836500637582" lon="9.93625535910994"><ele>588.0</ele><time>2026-05-02T15:55:40.998Z</time></trkpt><trkpt lat="44.75829860974967" lon="9.936417329541094"><ele>588.0</ele><time>2026-05-02T15:55:42.998Z</time></trkpt><trkpt lat="44.75821110160047" lon="9.936435974079947"><ele>588.0</ele><time>2026-05-02T15:55:43.998Z</time></trkpt><trkpt lat="44.758151636562175" lon="9.936503852477797"><ele>588.0</ele><time>2026-05-02T15:55:44.998Z</time></trkpt><trkpt lat="44.75809085235972" lon="9.936576332995326"><ele>588.0</ele><time>2026-05-02T15:55:45.998Z</time></trkpt><trkpt lat="44.758043062958485" lon="9.93667736106425"><ele>588.0</ele><time>2026-05-02T15:55:46.998Z</time></trkpt><trkpt lat="44.75799956712299" lon="9.9367870388272"><ele>588.0</ele><time>2026-05-02T15:55:47.998Z</time></trkpt><trkpt lat="44.75796101002977" lon="9.93690096144212"><ele>587.4</ele><time>2026-05-02T15:55:48.998Z</time></trkpt><trkpt lat="44.757929013636044" lon="9.937022535737484"><ele>586.8</ele><time>2026-05-02T15:55:49.998Z</time></trkpt><trkpt lat="44.75790743831463" lon="9.937154551222235"><ele>586.2</ele><time>2026-05-02T15:55:50.998Z</time></trkpt><trkpt lat="44.75789439152732" lon="9.937292823299039"><ele>585.6</ele><time>2026-05-02T15:55:51.998Z</time></trkpt><trkpt lat="44.7578983802928" lon="9.937432117787058"><ele>585.0</ele><time>2026-05-02T15:55:52.998Z</time></trkpt><trkpt lat="44.757916891629705" lon="9.937570681817549"><ele>585.0</ele><time>2026-05-02T15:55:53.998Z</time></trkpt><trkpt lat="44.75794401544086" lon="9.937702800381802"><ele>585.0</ele><time>2026-05-02T15:55:54.998Z</time></trkpt><trkpt lat="44.75797204632642" lon="9.937836892885661"><ele>585.0</ele><time>2026-05-02T15:55:55.998Z</time></trkpt><trkpt lat="44.758052286681796" lon="9.937934626609277"><ele>585.0</ele><time>2026-05-02T15:55:56.998Z</time></trkpt><trkpt lat="44.75813290358252" lon="9.938029536392834"><ele>585.0</ele><time>2026-05-02T15:55:57.998Z</time></trkpt><trkpt lat="44.75818917051798" lon="9.938152479424394"><ele>585.0</ele><time>2026-05-02T15:55:58.998Z</time></trkpt><trkpt lat="44.758218925121675" lon="9.938284484061692"><ele>585.0</ele><time>2026-05-02T15:55:59.998Z</time></trkpt><trkpt lat="44.75822927801601" lon="9.938427768121356"><ele>585.0</ele><time>2026-05-02T15:56:00.998Z</time></trkpt><trkpt lat="44.758265983200786" lon="9.938571183456357"><ele>585.0</ele><time>2026-05-02T15:56:01.998Z</time></trkpt><trkpt lat="44.75829232854592" lon="9.938717828553632"><ele>585.0</ele><time>2026-05-02T15:56:02.998Z</time></trkpt><trkpt lat="44.75835280489299" lon="9.938813067502997"><ele>586.4</ele><time>2026-05-02T15:56:03.998Z</time></trkpt><trkpt lat="44.75843107614491" lon="9.938877708370702"><ele>587.8</ele><time>2026-05-02T15:56:05Z</time></trkpt><trkpt lat="44.7585264893056" lon="9.938914833565105"><ele>589.2</ele><time>2026-05-02T15:56:06Z</time></trkpt><trkpt lat="44.75862508747208" lon="9.938920202105049"><ele>590.6</ele><time>2026-05-02T15:56:07Z</time></trkpt><trkpt lat="44.75872746314858" lon="9.938910121472453"><ele>592.0</ele><time>2026-05-02T15:56:08Z</time></trkpt><trkpt lat="44.75883135582725" lon="9.938900836551666"><ele>587.6</ele><time>2026-05-02T15:56:09Z</time></trkpt><trkpt lat="44.75892904953394" lon="9.938922810838775"><ele>583.2</ele><time>2026-05-02T15:56:10Z</time></trkpt><trkpt lat="44.75900242824288" lon="9.93902774785855"><ele>578.8</ele><time>2026-05-02T15:56:11Z</time></trkpt><trkpt lat="44.759059683834735" lon="9.939144706576881"><ele>574.4</ele><time>2026-05-02T15:56:12Z</time></trkpt><trkpt lat="44.759108269078894" lon="9.939284591889331"><ele>570.0</ele><time>2026-05-02T15:56:13Z</time></trkpt><trkpt lat="44.75914177627149" lon="9.939429053278676"><ele>570.0</ele><time>2026-05-02T15:56:14Z</time></trkpt><trkpt lat="44.759159841644525" lon="9.939569324657466"><ele>570.0</ele><time>2026-05-02T15:56:15Z</time></trkpt><trkpt lat="44.75916580219681" lon="9.939706205595431"><ele>570.0</ele><time>2026-05-02T15:56:16Z</time></trkpt><trkpt lat="44.75914007758848" lon="9.939825401274227"><ele>570.0</ele><time>2026-05-02T15:56:17Z</time></trkpt><trkpt lat="44.759086703584394" lon="9.939928633181113"><ele>570.0</ele><time>2026-05-02T15:56:18Z</time></trkpt><trkpt lat="44.75902193682139" lon="9.940041982778736"><ele>569.0</ele><time>2026-05-02T15:56:19Z</time></trkpt><trkpt lat="44.758968058552284" lon="9.940161323268509"><ele>568.0</ele><time>2026-05-02T15:56:20Z</time></trkpt><trkpt lat="44.75895447752376" lon="9.940309981693993"><ele>567.0</ele><time>2026-05-02T15:56:21Z</time></trkpt><trkpt lat="44.7589434050521" lon="9.940455336467304"><ele>566.0</ele><time>2026-05-02T15:56:22Z</time></trkpt><trkpt lat="44.758999485841834" lon="9.940599464724874"><ele>565.0</ele><time>2026-05-02T15:56:23Z</time></trkpt><trkpt lat="44.759030425889385" lon="9.94083812866116"><ele>563.2</ele><time>2026-05-02T15:56:24Z</time></trkpt><trkpt lat="44.759009642821724" lon="9.940986693750926"><ele>561.4</ele><time>2026-05-02T15:56:25Z</time></trkpt><trkpt lat="44.75898908762845" lon="9.941134610538194"><ele>559.6</ele><time>2026-05-02T15:56:26Z</time></trkpt><trkpt lat="44.75896627025772" lon="9.941279063831773"><ele>557.8</ele><time>2026-05-02T15:56:27Z</time></trkpt><trkpt lat="44.75893454758062" lon="9.941432132149833"><ele>556.0</ele><time>2026-05-02T15:56:27.999Z</time></trkpt><trkpt lat="44.75890327594288" lon="9.941587123058177"><ele>554.0</ele><time>2026-05-02T15:56:28.999Z</time></trkpt><trkpt lat="44.75887152670735" lon="9.941744800449248"><ele>552.0</ele><time>2026-05-02T15:56:29.999Z</time></trkpt><trkpt lat="44.75886221465938" lon="9.941907490191241"><ele>550.0</ele><time>2026-05-02T15:56:30.999Z</time></trkpt><trkpt lat="44.75883358087963" lon="9.942072107167816"><ele>548.0</ele><time>2026-05-02T15:56:31.999Z</time></trkpt><trkpt lat="44.75881890696091" lon="9.942239692262044"><ele>548.0</ele><time>2026-05-02T15:56:32.999Z</time></trkpt><trkpt lat="44.75881723961005" lon="9.94241007361749"><ele>548.0</ele><time>2026-05-02T15:56:33.999Z</time></trkpt><trkpt lat="44.75882389167093" lon="9.942582694679418"><ele>548.0</ele><time>2026-05-02T15:56:34.999Z</time></trkpt><trkpt lat="44.758850370243586" lon="9.942744465144113"><ele>548.0</ele><time>2026-05-02T15:56:35.999Z</time></trkpt><trkpt lat="44.758879662053666" lon="9.942894198936312"><ele>547.4</ele><time>2026-05-02T15:56:36.999Z</time></trkpt><trkpt lat="44.758908984941556" lon="9.943020929997541"><ele>546.8</ele><time>2026-05-02T15:56:37.999Z</time></trkpt><trkpt lat="44.75892896107708" lon="9.943129967298349"><ele>546.2</ele><time>2026-05-02T15:56:38.999Z</time></trkpt><trkpt lat="44.75901794589749" lon="9.943213888477853"><ele>545.6</ele><time>2026-05-02T15:56:40.999Z</time></trkpt><trkpt lat="44.759104650857964" lon="9.943131899527055"><ele>545.0</ele><time>2026-05-02T15:56:42.999Z</time></trkpt><trkpt lat="44.75912918709282" lon="9.943043856328979"><ele>545.0</ele><time>2026-05-02T15:56:43.999Z</time></trkpt><trkpt lat="44.75911825550604" lon="9.942926701227973"><ele>545.0</ele><time>2026-05-02T15:56:44.999Z</time></trkpt><trkpt lat="44.75912348264727" lon="9.942814266194"><ele>545.0</ele><time>2026-05-02T15:56:45.999Z</time></trkpt><trkpt lat="44.75910280028512" lon="9.942699723056242"><ele>545.0</ele><time>2026-05-02T15:56:46.999Z</time></trkpt><trkpt lat="44.75910773205816" lon="9.942574938052937"><ele>545.0</ele><time>2026-05-02T15:56:47.999Z</time></trkpt><trkpt lat="44.759119955824914" lon="9.942449359831567"><ele>545.0</ele><time>2026-05-02T15:56:48.999Z</time></trkpt><trkpt lat="44.75914969725951" lon="9.942322076691324"><ele>545.6</ele><time>2026-05-02T15:56:49.999Z</time></trkpt><trkpt lat="44.75919754650417" lon="9.942200834410063"><ele>546.2</ele><time>2026-05-02T15:56:50.999Z</time></trkpt><trkpt lat="44.759256858300475" lon="9.942087053143066"><ele>546.8</ele><time>2026-05-02T15:56:51.999Z</time></trkpt><trkpt lat="44.759322335244676" lon="9.94197739623168"><ele>547.4</ele><time>2026-05-02T15:56:52.999Z</time></trkpt><trkpt lat="44.759381417791346" lon="9.941854373317264"><ele>548.0</ele><time>2026-05-02T15:56:53.999Z</time></trkpt><trkpt lat="44.75943849668837" lon="9.941734050174425"><ele>544.8</ele><time>2026-05-02T15:56:54.999Z</time></trkpt><trkpt lat="44.75949787071989" lon="9.94160908054378"><ele>541.5999999999999</ele><time>2026-05-02T15:56:55.999Z</time></trkpt><trkpt lat="44.75956090055699" lon="9.941483634708657"><ele>538.4000000000001</ele><time>2026-05-02T15:56:56.999Z</time></trkpt><trkpt lat="44.759626486723576" lon="9.941359735002862"><ele>535.2</ele><time>2026-05-02T15:56:57.999Z</time></trkpt><trkpt lat="44.759691285783695" lon="9.94123144962634"><ele>532.0</ele><time>2026-05-02T15:56:58.999Z</time></trkpt><trkpt lat="44.7597546877884" lon="9.941106172070652"><ele>532.0</ele><time>2026-05-02T15:56:59.999Z</time></trkpt><trkpt lat="44.759828364423775" lon="9.940990019826812"><ele>532.0</ele><time>2026-05-02T15:57:00.999Z</time></trkpt><trkpt lat="44.75990454608102" lon="9.940875244103607"><ele>532.0</ele><time>2026-05-02T15:57:01.999Z</time></trkpt><trkpt lat="44.759978049495004" lon="9.940758343085328"><ele>532.0</ele><time>2026-05-02T15:57:02.999Z</time></trkpt><trkpt lat="44.76005091585058" lon="9.940646199138063"><ele>532.0</ele><time>2026-05-02T15:57:03.999Z</time></trkpt><trkpt lat="44.76012735513696" lon="9.940539657360558"><ele>530.5</ele><time>2026-05-02T15:57:04.999Z</time></trkpt><trkpt lat="44.760200645602296" lon="9.940422338356196"><ele>529.0</ele><time>2026-05-02T15:57:05.999Z</time></trkpt><trkpt lat="44.76031023778262" lon="9.940354879108305"><ele>527.5</ele><time>2026-05-02T15:57:06.999Z</time></trkpt><trkpt lat="44.76043021740354" lon="9.940321301418509"><ele>526.0</ele><time>2026-05-02T15:57:07.999Z</time></trkpt><trkpt lat="44.76054670715411" lon="9.940336726013339"><ele>526.0</ele><time>2026-05-02T15:57:08.999Z</time></trkpt><trkpt lat="44.760653950098536" lon="9.94029333507434"><ele>526.0</ele><time>2026-05-02T15:57:09.999Z</time></trkpt><trkpt lat="44.76075159658186" lon="9.940244872950725"><ele>526.0</ele><time>2026-05-02T15:57:10.999Z</time></trkpt><trkpt lat="44.76083654832744" lon="9.940201657873146"><ele>526.0</ele><time>2026-05-02T15:57:11.999Z</time></trkpt><trkpt lat="44.760905890720714" lon="9.940125370035586"><ele>526.0</ele><time>2026-05-02T15:57:12.999Z</time></trkpt><trkpt lat="44.76097695601181" lon="9.940130769397582"><ele>526.0</ele><time>2026-05-02T15:57:13.999Z</time></trkpt><trkpt lat="44.76103001262284" lon="9.940251713897183"><ele>526.0</ele><time>2026-05-02T15:57:14.999Z</time></trkpt><trkpt lat="44.76101476030674" lon="9.940383856311236"><ele>526.0</ele><time>2026-05-02T15:57:15.999Z</time></trkpt><trkpt lat="44.760904401468444" lon="9.94041524205304"><ele>526.0</ele><time>2026-05-02T15:57:16.999Z</time></trkpt><trkpt lat="44.76084668990934" lon="9.940502421327977"><ele>526.0</ele><time>2026-05-02T15:57:17.999Z</time></trkpt><trkpt lat="44.76079122727443" lon="9.940586062323419"><ele>526.0</ele><time>2026-05-02T15:57:18.999Z</time></trkpt><trkpt lat="44.76073321976582" lon="9.940673541205708"><ele>526.0</ele><time>2026-05-02T15:57:19.999Z</time></trkpt><trkpt lat="44.76067567686589" lon="9.940760319414629"><ele>526.0</ele><time>2026-05-02T15:57:20.999Z</time></trkpt><trkpt lat="44.76061597458676" lon="9.940854021000872"><ele>526.0</ele><time>2026-05-02T15:57:21.999Z</time></trkpt><trkpt lat="44.760558459323086" lon="9.940963434556512"><ele>526.0</ele><time>2026-05-02T15:57:22.998Z</time></trkpt><trkpt lat="44.76050708543852" lon="9.941084927847115"><ele>523.8</ele><time>2026-05-02T15:57:23.998Z</time></trkpt><trkpt lat="44.76046850188646" lon="9.941222991127033"><ele>521.6</ele><time>2026-05-02T15:57:24.998Z</time></trkpt><trkpt lat="44.76043737567955" lon="9.941360351094426"><ele>519.4</ele><time>2026-05-02T15:57:25.998Z</time></trkpt><trkpt lat="44.760406755121956" lon="9.941501363351085"><ele>517.2</ele><time>2026-05-02T15:57:26.998Z</time></trkpt><trkpt lat="44.76037662551873" lon="9.941646415869712"><ele>515.0</ele><time>2026-05-02T15:57:27.998Z</time></trkpt><trkpt lat="44.7603484394878" lon="9.941792157984406"><ele>515.0</ele><time>2026-05-02T15:57:28.998Z</time></trkpt><trkpt lat="44.76032056241314" lon="9.941938498214128"><ele>515.0</ele><time>2026-05-02T15:57:29.998Z</time></trkpt><trkpt lat="44.76029398694137" lon="9.942087041964013"><ele>515.0</ele><time>2026-05-02T15:57:30.998Z</time></trkpt><trkpt lat="44.76027062085207" lon="9.942241188827245"><ele>515.0</ele><time>2026-05-02T15:57:31.998Z</time></trkpt><trkpt lat="44.76025018823695" lon="9.94239563655946"><ele>515.0</ele><time>2026-05-02T15:57:32.998Z</time></trkpt><trkpt lat="44.76023867104213" lon="9.942549829153537"><ele>515.0</ele><time>2026-05-02T15:57:33.998Z</time></trkpt><trkpt lat="44.76025232964512" lon="9.942701099293924"><ele>515.0</ele><time>2026-05-02T15:57:34.998Z</time></trkpt><trkpt lat="44.760286360673625" lon="9.942847953922032"><ele>515.0</ele><time>2026-05-02T15:57:35.998Z</time></trkpt><trkpt lat="44.76037445088499" lon="9.942956335468573"><ele>515.0</ele><time>2026-05-02T15:57:36.998Z</time></trkpt><trkpt lat="44.76043375404339" lon="9.943086919301885"><ele>515.0</ele><time>2026-05-02T15:57:37.998Z</time></trkpt><trkpt lat="44.760502656986986" lon="9.943210291675573"><ele>515.0</ele><time>2026-05-02T15:57:38.998Z</time></trkpt><trkpt lat="44.760553164267634" lon="9.943341659745194"><ele>515.0</ele><time>2026-05-02T15:57:39.998Z</time></trkpt><trkpt lat="44.76058274897438" lon="9.94349325786385"><ele>515.0</ele><time>2026-05-02T15:57:40.998Z</time></trkpt><trkpt lat="44.760607376029846" lon="9.94364585561448"><ele>515.0</ele><time>2026-05-02T15:57:41.998Z</time></trkpt><trkpt lat="44.7606399071933" lon="9.943790335658107"><ele>515.0</ele><time>2026-05-02T15:57:42.998Z</time></trkpt><trkpt lat="44.760674612621365" lon="9.943921335288568"><ele>514.0</ele><time>2026-05-02T15:57:43.998Z</time></trkpt><trkpt lat="44.760708374103025" lon="9.944042073620185"><ele>513.0</ele><time>2026-05-02T15:57:44.998Z</time></trkpt><trkpt lat="44.76076556835403" lon="9.944127438350014"><ele>512.0</ele><time>2026-05-02T15:57:45.998Z</time></trkpt><trkpt lat="44.76083279145389" lon="9.944168226908983"><ele>511.0</ele><time>2026-05-02T15:57:46.998Z</time></trkpt><trkpt lat="44.760938312299" lon="9.944125543792033"><ele>510.0</ele><time>2026-05-02T15:57:48.998Z</time></trkpt><trkpt lat="44.761024781916234" lon="9.943972116864382"><ele>507.3333333333333</ele><time>2026-05-02T15:57:50.998Z</time></trkpt><trkpt lat="44.761043344355926" lon="9.943863155740582"><ele>504.66666666666663</ele><time>2026-05-02T15:57:51.998Z</time></trkpt><trkpt lat="44.76106031027197" lon="9.943751877044333"><ele>502.0</ele><time>2026-05-02T15:57:52.998Z</time></trkpt><trkpt lat="44.76107143301662" lon="9.943636543750806"><ele>499.3333333333333</ele><time>2026-05-02T15:57:53.998Z</time></trkpt><trkpt lat="44.76107468581492" lon="9.943518259268233"><ele>496.66666666666663</ele><time>2026-05-02T15:57:54.998Z</time></trkpt><trkpt lat="44.7610587615108" lon="9.943394339487922"><ele>494.0</ele><time>2026-05-02T15:57:55.998Z</time></trkpt><trkpt lat="44.76105497890073" lon="9.943262844365961"><ele>498.2</ele><time>2026-05-02T15:57:56.998Z</time></trkpt><trkpt lat="44.76102062947057" lon="9.943132786794855"><ele>502.4</ele><time>2026-05-02T15:57:57.998Z</time></trkpt><trkpt lat="44.76098603937956" lon="9.943013610222303"><ele>506.6</ele><time>2026-05-02T15:57:58.998Z</time></trkpt><trkpt lat="44.760955859763435" lon="9.942888740844761"><ele>510.8</ele><time>2026-05-02T15:57:59.998Z</time></trkpt><trkpt lat="44.76097913755303" lon="9.942760331359777"><ele>515.0</ele><time>2026-05-02T15:58:00.998Z</time></trkpt><trkpt lat="44.76102433627413" lon="9.942641293263982"><ele>511.0</ele><time>2026-05-02T15:58:01.998Z</time></trkpt><trkpt lat="44.76108200917112" lon="9.942523433609566"><ele>507.0</ele><time>2026-05-02T15:58:02.998Z</time></trkpt><trkpt lat="44.76114289430209" lon="9.9424063418321"><ele>503.0</ele><time>2026-05-02T15:58:03.998Z</time></trkpt><trkpt lat="44.761209786142096" lon="9.942291148470947"><ele>499.0</ele><time>2026-05-02T15:58:04.998Z</time></trkpt><trkpt lat="44.76126115493819" lon="9.94215843714499"><ele>495.0</ele><time>2026-05-02T15:58:05.998Z</time></trkpt><trkpt lat="44.76132963049715" lon="9.942034421535594"><ele>495.0</ele><time>2026-05-02T15:58:06.998Z</time></trkpt><trkpt lat="44.76140290924355" lon="9.94192500201531"><ele>495.0</ele><time>2026-05-02T15:58:07.998Z</time></trkpt><trkpt lat="44.76149962941766" lon="9.941830387696436"><ele>495.0</ele><time>2026-05-02T15:58:08.998Z</time></trkpt><trkpt lat="44.761615976402766" lon="9.941753036745508"><ele>495.0</ele><time>2026-05-02T15:58:10Z</time></trkpt><trkpt lat="44.76174300381042" lon="9.941717766575008"><ele>494.0</ele><time>2026-05-02T15:58:11Z</time></trkpt><trkpt lat="44.76187599671449" lon="9.941731819768146"><ele>493.0</ele><time>2026-05-02T15:58:12Z</time></trkpt><trkpt lat="44.76198999613654" lon="9.941747208806758"><ele>492.0</ele><time>2026-05-02T15:58:13Z</time></trkpt><trkpt lat="44.76210257299999" lon="9.94174205526223"><ele>491.0</ele><time>2026-05-02T15:58:14Z</time></trkpt><trkpt lat="44.76219763878198" lon="9.941691687904086"><ele>491.0</ele><time>2026-05-02T15:58:15Z</time></trkpt><trkpt lat="44.7622884316042" lon="9.941604268878775"><ele>491.0</ele><time>2026-05-02T15:58:16Z</time></trkpt><trkpt lat="44.762367114567176" lon="9.941481270200978"><ele>491.0</ele><time>2026-05-02T15:58:17Z</time></trkpt><trkpt lat="44.76244245208562" lon="9.941351396424801"><ele>491.0</ele><time>2026-05-02T15:58:18Z</time></trkpt><trkpt lat="44.76250614027615" lon="9.94123939349556"><ele>491.0</ele><time>2026-05-02T15:58:19Z</time></trkpt><trkpt lat="44.76257164469996" lon="9.941138351589835"><ele>491.0</ele><time>2026-05-02T15:58:20Z</time></trkpt><trkpt lat="44.7626761848262" lon="9.941080839036722"><ele>491.0</ele><time>2026-05-02T15:58:21Z</time></trkpt><trkpt lat="44.76279919256191" lon="9.94109618124296"><ele>491.0</ele><time>2026-05-02T15:58:22Z</time></trkpt><trkpt lat="44.76290775049142" lon="9.941192344746883"><ele>491.0</ele><time>2026-05-02T15:58:23Z</time></trkpt><trkpt lat="44.76299996121418" lon="9.941235861349307"><ele>488.4</ele><time>2026-05-02T15:58:24Z</time></trkpt><trkpt lat="44.7630922581791" lon="9.941253136021887"><ele>485.8</ele><time>2026-05-02T15:58:25Z</time></trkpt><trkpt lat="44.76319168512473" lon="9.941250776706385"><ele>483.19999999999993</ele><time>2026-05-02T15:58:26Z</time></trkpt><trkpt lat="44.76327601569742" lon="9.94119637807384"><ele>480.59999999999997</ele><time>2026-05-02T15:58:27Z</time></trkpt><trkpt lat="44.76337373174002" lon="9.94113307026412"><ele>478.0</ele><time>2026-05-02T15:58:28Z</time></trkpt><trkpt lat="44.76347468329747" lon="9.941068551449243"><ele>476.59999999999997</ele><time>2026-05-02T15:58:29Z</time></trkpt><trkpt lat="44.763578498096855" lon="9.940998612425012"><ele>475.19999999999993</ele><time>2026-05-02T15:58:30Z</time></trkpt><trkpt lat="44.763668241274736" lon="9.940923548371343"><ele>473.8</ele><time>2026-05-02T15:58:30.999Z</time></trkpt><trkpt lat="44.76373140016485" lon="9.94084015331084"><ele>472.4</ele><time>2026-05-02T15:58:31.999Z</time></trkpt><trkpt lat="44.76378392275833" lon="9.940750688547036"><ele>471.0</ele><time>2026-05-02T15:58:32.999Z</time></trkpt><trkpt lat="44.76381598368968" lon="9.940672773422987"><ele>471.0</ele><time>2026-05-02T15:58:33.999Z</time></trkpt><trkpt lat="44.76386397813376" lon="9.940556552136007"><ele>471.0</ele><time>2026-05-02T15:58:35.999Z</time></trkpt><trkpt lat="44.763976922234605" lon="9.94050352365593"><ele>471.0</ele><time>2026-05-02T15:58:37.999Z</time></trkpt><trkpt lat="44.76397887360539" lon="9.940696829354136"><ele>471.0</ele><time>2026-05-02T15:58:38.999Z</time></trkpt><trkpt lat="44.76392288380276" lon="9.940751551630601"><ele>471.0</ele><time>2026-05-02T15:58:39.999Z</time></trkpt><trkpt lat="44.763859400882914" lon="9.940906201008609"><ele>469.3333333333333</ele><time>2026-05-02T15:58:41.999Z</time></trkpt><trkpt lat="44.763820971701165" lon="9.940983537092045"><ele>467.66666666666663</ele><time>2026-05-02T15:58:42.999Z</time></trkpt><trkpt lat="44.76377298292959" lon="9.941072139104177"><ele>466.0</ele><time>2026-05-02T15:58:43.999Z</time></trkpt><trkpt lat="44.763721262898464" lon="9.941164055091056"><ele>464.3333333333333</ele><time>2026-05-02T15:58:44.999Z</time></trkpt><trkpt lat="44.763665900747746" lon="9.94126405226659"><ele>462.66666666666663</ele><time>2026-05-02T15:58:45.999Z</time></trkpt><trkpt lat="44.76361074692491" lon="9.94136730807512"><ele>461.0</ele><time>2026-05-02T15:58:46.999Z</time></trkpt><trkpt lat="44.76355593341316" lon="9.941469926835456"><ele>462.0</ele><time>2026-05-02T15:58:47.999Z</time></trkpt><trkpt lat="44.763499398188316" lon="9.94157861794321"><ele>463.0</ele><time>2026-05-02T15:58:48.999Z</time></trkpt><trkpt lat="44.76344411425386" lon="9.941688483652806"><ele>464.0</ele><time>2026-05-02T15:58:49.999Z</time></trkpt><trkpt lat="44.76338704302373" lon="9.941802156287743"><ele>465.0</ele><time>2026-05-02T15:58:50.999Z</time></trkpt><trkpt lat="44.76332967649247" lon="9.941916937150083"><ele>466.0</ele><time>2026-05-02T15:58:51.999Z</time></trkpt><trkpt lat="44.763270254873206" lon="9.942041628340855"><ele>466.0</ele><time>2026-05-02T15:58:52.999Z</time></trkpt><trkpt lat="44.76321939571709" lon="9.942163371013955"><ele>466.0</ele><time>2026-05-02T15:58:53.999Z</time></trkpt><trkpt lat="44.76316901451018" lon="9.942283969591404"><ele>466.0</ele><time>2026-05-02T15:58:54.999Z</time></trkpt><trkpt lat="44.763122792961205" lon="9.942398337917355"><ele>466.0</ele><time>2026-05-02T15:58:55.999Z</time></trkpt><trkpt lat="44.76308418364341" lon="9.942525610224319"><ele>466.0</ele><time>2026-05-02T15:58:56.999Z</time></trkpt><trkpt lat="44.76306422444384" lon="9.942649182214357"><ele>465.6666666666667</ele><time>2026-05-02T15:58:57.999Z</time></trkpt><trkpt lat="44.76310156775428" lon="9.942784722643745"><ele>465.33333333333337</ele><time>2026-05-02T15:58:58.999Z</time></trkpt><trkpt lat="44.76316286785468" lon="9.942870528608834"><ele>465.0</ele><time>2026-05-02T15:58:59.999Z</time></trkpt><trkpt lat="44.76324817908037" lon="9.942866853716037"><ele>464.66666666666663</ele><time>2026-05-02T15:59:00.999Z</time></trkpt><trkpt lat="44.76332520067149" lon="9.942843113884823"><ele>464.3333333333333</ele><time>2026-05-02T15:59:01.999Z</time></trkpt><trkpt lat="44.763404808099686" lon="9.94281332610751"><ele>464.0</ele><time>2026-05-02T15:59:02.999Z</time></trkpt><trkpt lat="44.7634940832529" lon="9.942776029964037"><ele>462.2</ele><time>2026-05-02T15:59:03.999Z</time></trkpt><trkpt lat="44.763585875790085" lon="9.942733551531903"><ele>460.4</ele><time>2026-05-02T15:59:04.999Z</time></trkpt><trkpt lat="44.763676331030176" lon="9.942680380945733"><ele>458.6</ele><time>2026-05-02T15:59:05.999Z</time></trkpt><trkpt lat="44.76377312505928" lon="9.942612442656046"><ele>456.8</ele><time>2026-05-02T15:59:06.999Z</time></trkpt><trkpt lat="44.7638604241018" lon="9.942526698798261"><ele>455.0</ele><time>2026-05-02T15:59:07.999Z</time></trkpt><trkpt lat="44.76394958456752" lon="9.942425452023851"><ele>455.0</ele><time>2026-05-02T15:59:08.999Z</time></trkpt><trkpt lat="44.764047299137324" lon="9.94231967483828"><ele>455.0</ele><time>2026-05-02T15:59:09.999Z</time></trkpt><trkpt lat="44.76415712732365" lon="9.942219766447081"><ele>455.0</ele><time>2026-05-02T15:59:10.999Z</time></trkpt><trkpt lat="44.76427090381034" lon="9.942127293252817"><ele>455.0</ele><time>2026-05-02T15:59:11.999Z</time></trkpt><trkpt lat="44.76439227145218" lon="9.942033856337035"><ele>452.25</ele><time>2026-05-02T15:59:12.999Z</time></trkpt><trkpt lat="44.76451064752431" lon="9.94194422068789"><ele>449.5</ele><time>2026-05-02T15:59:13.999Z</time></trkpt><trkpt lat="44.76463264819042" lon="9.941851840444732"><ele>446.75</ele><time>2026-05-02T15:59:14.999Z</time></trkpt><trkpt lat="44.764756222399015" lon="9.941758268701678"><ele>444.0</ele><time>2026-05-02T15:59:15.999Z</time></trkpt><trkpt lat="44.764882159892004" lon="9.941662163545436"><ele>444.0</ele><time>2026-05-02T15:59:16.999Z</time></trkpt><trkpt lat="44.76500941510349" lon="9.941564541552717"><ele>444.0</ele><time>2026-05-02T15:59:17.999Z</time></trkpt><trkpt lat="44.76513678065138" lon="9.941466834921366"><ele>444.0</ele><time>2026-05-02T15:59:18.999Z</time></trkpt><trkpt lat="44.76526435605254" lon="9.941368967281031"><ele>444.0</ele><time>2026-05-02T15:59:19.999Z</time></trkpt><trkpt lat="44.76539298858748" lon="9.941270288677686"><ele>441.0</ele><time>2026-05-02T15:59:20.999Z</time></trkpt><trkpt lat="44.765521703496695" lon="9.941173636135181"><ele>438.0</ele><time>2026-05-02T15:59:21.999Z</time></trkpt><trkpt lat="44.76565545519234" lon="9.941084281593884"><ele>435.0</ele><time>2026-05-02T15:59:22.999Z</time></trkpt><trkpt lat="44.76578808071053" lon="9.941011007079744"><ele>432.0</ele><time>2026-05-02T15:59:23.999Z</time></trkpt><trkpt lat="44.765924734692845" lon="9.940951520465887"><ele>432.0</ele><time>2026-05-02T15:59:24.998Z</time></trkpt><trkpt lat="44.76605830162529" lon="9.940892633257544"><ele>432.0</ele><time>2026-05-02T15:59:25.998Z</time></trkpt><trkpt lat="44.76618962361844" lon="9.940834742457126"><ele>432.0</ele><time>2026-05-02T15:59:26.998Z</time></trkpt><trkpt lat="44.766323590493734" lon="9.940776040561788"><ele>432.0</ele><time>2026-05-02T15:59:27.998Z</time></trkpt><trkpt lat="44.76645673818963" lon="9.940718362683418"><ele>432.0</ele><time>2026-05-02T15:59:28.998Z</time></trkpt><trkpt lat="44.766594235551594" lon="9.94066259022332"><ele>432.0</ele><time>2026-05-02T15:59:29.998Z</time></trkpt><trkpt lat="44.76673338260545" lon="9.940616509290189"><ele>432.0</ele><time>2026-05-02T15:59:30.998Z</time></trkpt><trkpt lat="44.766874138683114" lon="9.940582018559454"><ele>432.0</ele><time>2026-05-02T15:59:31.998Z</time></trkpt><trkpt lat="44.76701739739103" lon="9.940549726879043"><ele>431.25</ele><time>2026-05-02T15:59:32.998Z</time></trkpt><trkpt lat="44.76715984321726" lon="9.940518059269893"><ele>430.5</ele><time>2026-05-02T15:59:33.998Z</time></trkpt><trkpt lat="44.767303840453934" lon="9.940486046797796"><ele>429.75</ele><time>2026-05-02T15:59:34.998Z</time></trkpt><trkpt lat="44.76744789229794" lon="9.94045435356675"><ele>429.0</ele><time>2026-05-02T15:59:35.998Z</time></trkpt><trkpt lat="44.767590604458256" lon="9.940423566742163"><ele>428.0</ele><time>2026-05-02T15:59:36.998Z</time></trkpt><trkpt lat="44.767731061577045" lon="9.940397964078828"><ele>427.0</ele><time>2026-05-02T15:59:37.998Z</time></trkpt><trkpt lat="44.7678740258595" lon="9.940405306924564"><ele>426.0</ele><time>2026-05-02T15:59:38.998Z</time></trkpt><trkpt lat="44.76800776037655" lon="9.940467242340295"><ele>425.0</ele><time>2026-05-02T15:59:39.998Z</time></trkpt><trkpt lat="44.76813544890295" lon="9.94051758723285"><ele>425.0</ele><time>2026-05-02T15:59:40.998Z</time></trkpt><trkpt lat="44.768247571370985" lon="9.940590265855924"><ele>425.0</ele><time>2026-05-02T15:59:41.998Z</time></trkpt><trkpt lat="44.76835215186969" lon="9.9406833391198"><ele>425.0</ele><time>2026-05-02T15:59:42.998Z</time></trkpt><trkpt lat="44.7684401995679" lon="9.940801739726322"><ele>425.0</ele><time>2026-05-02T15:59:43.998Z</time></trkpt><trkpt lat="44.768511910362584" lon="9.940945566420002"><ele>422.5</ele><time>2026-05-02T15:59:44.998Z</time></trkpt><trkpt lat="44.768538773512546" lon="9.941115141445394"><ele>420.0</ele><time>2026-05-02T15:59:45.998Z</time></trkpt><trkpt lat="44.768591410356514" lon="9.941273917360988"><ele>417.5</ele><time>2026-05-02T15:59:46.998Z</time></trkpt><trkpt lat="44.7686318141401" lon="9.94144232457819"><ele>415.0</ele><time>2026-05-02T15:59:47.998Z</time></trkpt><trkpt lat="44.76869572665245" lon="9.941587406067791"><ele>415.0</ele><time>2026-05-02T15:59:48.998Z</time></trkpt><trkpt lat="44.76880433207446" lon="9.941663302192216"><ele>415.0</ele><time>2026-05-02T15:59:49.998Z</time></trkpt><trkpt lat="44.768913826471774" lon="9.941733104550556"><ele>415.0</ele><time>2026-05-02T15:59:50.998Z</time></trkpt><trkpt lat="44.76902930773717" lon="9.941780761840164"><ele>415.0</ele><time>2026-05-02T15:59:51.998Z</time></trkpt><trkpt lat="44.769149316069104" lon="9.941821709091519"><ele>414.0</ele><time>2026-05-02T15:59:52.998Z</time></trkpt><trkpt lat="44.76927184395923" lon="9.941848921660759"><ele>413.0</ele><time>2026-05-02T15:59:53.998Z</time></trkpt><trkpt lat="44.76939595764177" lon="9.941855264954501"><ele>412.0</ele><time>2026-05-02T15:59:54.998Z</time></trkpt><trkpt lat="44.7695141659607" lon="9.94182542322574"><ele>411.0</ele><time>2026-05-02T15:59:55.998Z</time></trkpt><trkpt lat="44.76962673536005" lon="9.941765760655665"><ele>411.25</ele><time>2026-05-02T15:59:56.998Z</time></trkpt><trkpt lat="44.769729894086716" lon="9.94168146258368"><ele>411.5</ele><time>2026-05-02T15:59:57.998Z</time></trkpt><trkpt lat="44.76983066726993" lon="9.941582831725578"><ele>411.75</ele><time>2026-05-02T15:59:58.998Z</time></trkpt><trkpt lat="44.76991835512351" lon="9.94146239763487"><ele>412.0</ele><time>2026-05-02T15:59:59.998Z</time></trkpt><trkpt lat="44.770003711838655" lon="9.941333751956574"><ele>412.0</ele><time>2026-05-02T16:00:00.998Z</time></trkpt><trkpt lat="44.77006598851728" lon="9.941173639296736"><ele>412.0</ele><time>2026-05-02T16:00:01.998Z</time></trkpt><trkpt lat="44.77011364806772" lon="9.941005376572065"><ele>412.0</ele><time>2026-05-02T16:00:02.998Z</time></trkpt><trkpt lat="44.77016969482553" lon="9.940849677669643"><ele>412.0</ele><time>2026-05-02T16:00:03.998Z</time></trkpt><trkpt lat="44.77023659515738" lon="9.940713273527834"><ele>407.25</ele><time>2026-05-02T16:00:04.998Z</time></trkpt><trkpt lat="44.7702898691257" lon="9.940576416120118"><ele>402.5</ele><time>2026-05-02T16:00:05.998Z</time></trkpt><trkpt lat="44.77039597224073" lon="9.940477579379428"><ele>397.75</ele><time>2026-05-02T16:00:06.998Z</time></trkpt><trkpt lat="44.77052160898023" lon="9.940430636857366"><ele>393.0</ele><time>2026-05-02T16:00:07.998Z</time></trkpt><trkpt lat="44.7706379848563" lon="9.940384872819585"><ele>393.0</ele><time>2026-05-02T16:00:08.998Z</time></trkpt><trkpt lat="44.770750883045515" lon="9.94032122583846"><ele>393.0</ele><time>2026-05-02T16:00:09.998Z</time></trkpt><trkpt lat="44.77085361643226" lon="9.940241999600918"><ele>393.0</ele><time>2026-05-02T16:00:10.998Z</time></trkpt><trkpt lat="44.77096098587021" lon="9.940154032204369"><ele>393.0</ele><time>2026-05-02T16:00:11.998Z</time></trkpt><trkpt lat="44.77107389456842" lon="9.94006512032478"><ele>389.25</ele><time>2026-05-02T16:00:12.998Z</time></trkpt><trkpt lat="44.771187715011195" lon="9.939981421857594"><ele>385.5</ele><time>2026-05-02T16:00:13.998Z</time></trkpt><trkpt lat="44.77129870161595" lon="9.939909068522116"><ele>381.75</ele><time>2026-05-02T16:00:14.998Z</time></trkpt><trkpt lat="44.77140646606119" lon="9.939852780064923"><ele>378.0</ele><time>2026-05-02T16:00:16Z</time></trkpt><trkpt lat="44.77151139023313" lon="9.939799030345377"><ele>378.0</ele><time>2026-05-02T16:00:17Z</time></trkpt><trkpt lat="44.77160322957062" lon="9.939743954140756"><ele>378.0</ele><time>2026-05-02T16:00:18Z</time></trkpt><trkpt lat="44.77167558952837" lon="9.939669639247677"><ele>378.0</ele><time>2026-05-02T16:00:19Z</time></trkpt><trkpt lat="44.77174098241828" lon="9.939571910779673"><ele>378.0</ele><time>2026-05-02T16:00:20Z</time></trkpt><trkpt lat="44.77179107017144" lon="9.939447621815354"><ele>378.0</ele><time>2026-05-02T16:00:21Z</time></trkpt><trkpt lat="44.7718262647159" lon="9.939312157431246"><ele>380.59999999999997</ele><time>2026-05-02T16:00:22Z</time></trkpt><trkpt lat="44.77181637060309" lon="9.939170527798055"><ele>383.2</ele><time>2026-05-02T16:00:23Z</time></trkpt><trkpt lat="44.771788259223776" lon="9.939034735491699"><ele>385.8</ele><time>2026-05-02T16:00:24Z</time></trkpt><trkpt lat="44.771741208674875" lon="9.938912450293627"><ele>388.4</ele><time>2026-05-02T16:00:25Z</time></trkpt><trkpt lat="44.77169868748112" lon="9.93878174767845"><ele>391.0</ele><time>2026-05-02T16:00:26Z</time></trkpt><trkpt lat="44.77162718812046" lon="9.938673518574294"><ele>391.0</ele><time>2026-05-02T16:00:27Z</time></trkpt><trkpt lat="44.771539033013255" lon="9.938586599479219"><ele>391.0</ele><time>2026-05-02T16:00:28Z</time></trkpt><trkpt lat="44.771418976515044" lon="9.938532966691929"><ele>391.0</ele><time>2026-05-02T16:00:29Z</time></trkpt><trkpt lat="44.77128728219656" lon="9.938550039432572"><ele>391.0</ele><time>2026-05-02T16:00:30Z</time></trkpt><trkpt lat="44.77117543881531" lon="9.938593875710165"><ele>391.0</ele><time>2026-05-02T16:00:31Z</time></trkpt><trkpt lat="44.77107968029553" lon="9.93863209503459"><ele>391.0</ele><time>2026-05-02T16:00:32Z</time></trkpt><trkpt lat="44.77098126345895" lon="9.938659813621198"><ele>391.0</ele><time>2026-05-02T16:00:33Z</time></trkpt><trkpt lat="44.77088782070835" lon="9.938675055391943"><ele>391.0</ele><time>2026-05-02T16:00:34Z</time></trkpt><trkpt lat="44.770816182068934" lon="9.938659609362023"><ele>391.0</ele><time>2026-05-02T16:00:34.999Z</time></trkpt><trkpt lat="44.77073538011598" lon="9.938623216922215"><ele>390.8</ele><time>2026-05-02T16:00:35.999Z</time></trkpt><trkpt lat="44.77066087331305" lon="9.938556099422007"><ele>390.6</ele><time>2026-05-02T16:00:36.999Z</time></trkpt><trkpt lat="44.7705711466486" lon="9.93846932735738"><ele>390.4</ele><time>2026-05-02T16:00:37.999Z</time></trkpt><trkpt lat="44.770478955918" lon="9.938383027944228"><ele>390.2</ele><time>2026-05-02T16:00:38.999Z</time></trkpt><trkpt lat="44.77038550483142" lon="9.938295548743248"><ele>390.0</ele><time>2026-05-02T16:00:39.999Z</time></trkpt><trkpt lat="44.7702951887874" lon="9.938209964681818"><ele>387.8</ele><time>2026-05-02T16:00:40.999Z</time></trkpt><trkpt lat="44.770222826677866" lon="9.938133278600374"><ele>385.6</ele><time>2026-05-02T16:00:41.999Z</time></trkpt><trkpt lat="44.77016246288095" lon="9.938045092499257"><ele>383.4</ele><time>2026-05-02T16:00:42.999Z</time></trkpt><trkpt lat="44.77016818100059" lon="9.937914438694259"><ele>381.2</ele><time>2026-05-02T16:00:43.999Z</time></trkpt><trkpt lat="44.7701965447262" lon="9.937784907626675"><ele>379.0</ele><time>2026-05-02T16:00:44.999Z</time></trkpt><trkpt lat="44.770253565262855" lon="9.937680359498613"><ele>379.0</ele><time>2026-05-02T16:00:45.999Z</time></trkpt><trkpt lat="44.770365789108666" lon="9.937651168053405"><ele>379.0</ele><time>2026-05-02T16:00:46.999Z</time></trkpt><trkpt lat="44.77046050229858" lon="9.937703361057855"><ele>379.0</ele><time>2026-05-02T16:00:47.999Z</time></trkpt><trkpt lat="44.77053669321709" lon="9.93775808716509"><ele>379.0</ele><time>2026-05-02T16:00:48.999Z</time></trkpt><trkpt lat="44.7705860919611" lon="9.937862740583617"><ele>379.0</ele><time>2026-05-02T16:00:49.999Z</time></trkpt><trkpt lat="44.77062360170264" lon="9.937976635697492"><ele>379.0</ele><time>2026-05-02T16:00:50.999Z</time></trkpt><trkpt lat="44.77068187991692" lon="9.938068290082493"><ele>379.0</ele><time>2026-05-02T16:00:51.999Z</time></trkpt><trkpt lat="44.77076360800912" lon="9.93812782379504"><ele>379.0</ele><time>2026-05-02T16:00:52.999Z</time></trkpt><trkpt lat="44.77085296914222" lon="9.938142920958349"><ele>379.0</ele><time>2026-05-02T16:00:53.999Z</time></trkpt><trkpt lat="44.770933193596946" lon="9.938093807235568"><ele>379.0</ele><time>2026-05-02T16:00:54.999Z</time></trkpt><trkpt lat="44.77101004792099" lon="9.938045755846655"><ele>379.0</ele><time>2026-05-02T16:00:55.999Z</time></trkpt><trkpt lat="44.77106857691019" lon="9.937947437104668"><ele>378.8333333333333</ele><time>2026-05-02T16:00:56.999Z</time></trkpt><trkpt lat="44.771125412896986" lon="9.937849372405749"><ele>378.66666666666663</ele><time>2026-05-02T16:00:57.999Z</time></trkpt><trkpt lat="44.77119364792017" lon="9.937763345190588"><ele>378.5</ele><time>2026-05-02T16:00:58.999Z</time></trkpt><trkpt lat="44.77127125502427" lon="9.93769810073889"><ele>378.3333333333333</ele><time>2026-05-02T16:00:59.999Z</time></trkpt><trkpt lat="44.77135602406422" lon="9.93765869768713"><ele>378.1666666666667</ele><time>2026-05-02T16:01:00.999Z</time></trkpt><trkpt lat="44.771442097121415" lon="9.937666786195154"><ele>378.0</ele><time>2026-05-02T16:01:01.999Z</time></trkpt><trkpt lat="44.77152176105833" lon="9.937701874832035"><ele>378.0</ele><time>2026-05-02T16:01:02.999Z</time></trkpt><trkpt lat="44.77158848673594" lon="9.937737553854083"><ele>378.0</ele><time>2026-05-02T16:01:03.999Z</time></trkpt><trkpt lat="44.771678659086426" lon="9.937760723721599"><ele>378.0</ele><time>2026-05-02T16:01:05.999Z</time></trkpt><trkpt lat="44.771738167466594" lon="9.93765971316993"><ele>378.0</ele><time>2026-05-02T16:01:07.999Z</time></trkpt><trkpt lat="44.77168618999609" lon="9.937522529784813"><ele>378.0</ele><time>2026-05-02T16:01:09.999Z</time></trkpt><trkpt lat="44.77164133339253" lon="9.937457473941059"><ele>378.0</ele><time>2026-05-02T16:01:10.999Z</time></trkpt><trkpt lat="44.77157686644244" lon="9.937430498097035"><ele>374.4</ele><time>2026-05-02T16:01:11.999Z</time></trkpt><trkpt lat="44.77145822246298" lon="9.937397794127502"><ele>370.79999999999995</ele><time>2026-05-02T16:01:13.999Z</time></trkpt><trkpt lat="44.771333401934065" lon="9.93736457045578"><ele>367.2</ele><time>2026-05-02T16:01:15.999Z</time></trkpt><trkpt lat="44.771265096467616" lon="9.93734605488312"><ele>363.6</ele><time>2026-05-02T16:01:16.999Z</time></trkpt><trkpt lat="44.77120010132196" lon="9.937325571669911"><ele>360.0</ele><time>2026-05-02T16:01:17.999Z</time></trkpt><trkpt lat="44.771131519185" lon="9.937248298862535"><ele>360.0</ele><time>2026-05-02T16:01:19.999Z</time></trkpt><trkpt lat="44.771160452650165" lon="9.937157085206916"><ele>360.0</ele><time>2026-05-02T16:01:20.999Z</time></trkpt><trkpt lat="44.77122864771024" lon="9.937113849350016"><ele>360.0</ele><time>2026-05-02T16:01:21.999Z</time></trkpt><trkpt lat="44.771316938174955" lon="9.937129870873669"><ele>360.0</ele><time>2026-05-02T16:01:22.999Z</time></trkpt><trkpt lat="44.77139518829472" lon="9.937169511446625"><ele>360.0</ele><time>2026-05-02T16:01:23.999Z</time></trkpt><trkpt lat="44.77147372760142" lon="9.93720195247041"><ele>360.0</ele><time>2026-05-02T16:01:24.999Z</time></trkpt><trkpt lat="44.77155565368054" lon="9.937231567582817"><ele>360.0</ele><time>2026-05-02T16:01:25.999Z</time></trkpt><trkpt lat="44.77164619707497" lon="9.937260505826384"><ele>360.0</ele><time>2026-05-02T16:01:26.999Z</time></trkpt><trkpt lat="44.771740159642725" lon="9.937285448658285"><ele>360.0</ele><time>2026-05-02T16:01:27.999Z</time></trkpt><trkpt lat="44.77183695999582" lon="9.937309393746842"><ele>360.0</ele><time>2026-05-02T16:01:28.998Z</time></trkpt><trkpt lat="44.77193863200189" lon="9.93734090454387"><ele>360.0</ele><time>2026-05-02T16:01:29.998Z</time></trkpt><trkpt lat="44.77204385822158" lon="9.937377215220424"><ele>357.75</ele><time>2026-05-02T16:01:30.998Z</time></trkpt><trkpt lat="44.772152517895876" lon="9.937409107788266"><ele>355.5</ele><time>2026-05-02T16:01:31.998Z</time></trkpt><trkpt lat="44.772264036887094" lon="9.937446025702434"><ele>353.25</ele><time>2026-05-02T16:01:32.998Z</time></trkpt><trkpt lat="44.77237781565567" lon="9.937488673964014"><ele>351.0</ele><time>2026-05-02T16:01:33.998Z</time></trkpt><trkpt lat="44.77248155591434" lon="9.93753642556847"><ele>348.6666666666667</ele><time>2026-05-02T16:01:34.998Z</time></trkpt><trkpt lat="44.77258387734194" lon="9.937587448803667"><ele>346.3333333333333</ele><time>2026-05-02T16:01:35.998Z</time></trkpt><trkpt lat="44.772674832201346" lon="9.937628379764286"><ele>344.0</ele><time>2026-05-02T16:01:36.998Z</time></trkpt><trkpt lat="44.7727483091408" lon="9.937666773251223"><ele>341.66666666666663</ele><time>2026-05-02T16:01:37.998Z</time></trkpt><trkpt lat="44.77281542204211" lon="9.937685497043937"><ele>339.3333333333333</ele><time>2026-05-02T16:01:38.998Z</time></trkpt><trkpt lat="44.77287550710747" lon="9.93765683632672"><ele>337.0</ele><time>2026-05-02T16:01:39.998Z</time></trkpt><trkpt lat="44.77290305716107" lon="9.937568948070362"><ele>336.8571428571429</ele><time>2026-05-02T16:01:40.998Z</time></trkpt><trkpt lat="44.77288842864376" lon="9.937472610765305"><ele>336.7142857142857</ele><time>2026-05-02T16:01:41.998Z</time></trkpt><trkpt lat="44.77282894559518" lon="9.937399484906633"><ele>336.57142857142856</ele><time>2026-05-02T16:01:42.998Z</time></trkpt><trkpt lat="44.77276509143947" lon="9.93735339035665"><ele>336.42857142857144</ele><time>2026-05-02T16:01:43.998Z</time></trkpt><trkpt lat="44.772702515691265" lon="9.937300204484167"><ele>336.2857142857143</ele><time>2026-05-02T16:01:44.998Z</time></trkpt><trkpt lat="44.77264137759753" lon="9.937251130266711"><ele>336.14285714285717</ele><time>2026-05-02T16:01:45.998Z</time></trkpt><trkpt lat="44.772587008726646" lon="9.937190491480477"><ele>336.0</ele><time>2026-05-02T16:01:46.998Z</time></trkpt><trkpt lat="44.77258402635434" lon="9.937022720563126"><ele>336.0</ele><time>2026-05-02T16:01:48.998Z</time></trkpt><trkpt lat="44.772639791982044" lon="9.936957861432361"><ele>336.0</ele><time>2026-05-02T16:01:49.998Z</time></trkpt><trkpt lat="44.772716347163296" lon="9.93696036010819"><ele>336.0</ele><time>2026-05-02T16:01:50.998Z</time></trkpt><trkpt lat="44.77277661228581" lon="9.937029278344914"><ele>336.0</ele><time>2026-05-02T16:01:51.998Z</time></trkpt><trkpt lat="44.772852877407935" lon="9.93705835196374"><ele>336.0</ele><time>2026-05-02T16:01:52.998Z</time></trkpt><trkpt lat="44.77292894288495" lon="9.937108507689985"><ele>336.0</ele><time>2026-05-02T16:01:53.998Z</time></trkpt><trkpt lat="44.773010433345014" lon="9.937162593270966"><ele>336.0</ele><time>2026-05-02T16:01:54.998Z</time></trkpt><trkpt lat="44.77309597431468" lon="9.937216599733517"><ele>336.0</ele><time>2026-05-02T16:01:55.998Z</time></trkpt><trkpt lat="44.77318280947536" lon="9.937268264581087"><ele>336.0</ele><time>2026-05-02T16:01:56.998Z</time></trkpt><trkpt lat="44.773274206727066" lon="9.937319736684147"><ele>336.0</ele><time>2026-05-02T16:01:57.998Z</time></trkpt><trkpt lat="44.77336725743426" lon="9.937370356471511"><ele>336.0</ele><time>2026-05-02T16:01:58.998Z</time></trkpt><trkpt lat="44.77345866897765" lon="9.937424206801158"><ele>335.8333333333333</ele><time>2026-05-02T16:01:59.998Z</time></trkpt><trkpt lat="44.77354124577676" lon="9.937474914718138"><ele>335.6666666666667</ele><time>2026-05-02T16:02:00.998Z</time></trkpt><trkpt lat="44.77361306606055" lon="9.937518750619741"><ele>335.5</ele><time>2026-05-02T16:02:01.998Z</time></trkpt><trkpt lat="44.77367346097172" lon="9.937551018371911"><ele>335.33333333333337</ele><time>2026-05-02T16:02:02.998Z</time></trkpt><trkpt lat="44.77374940919455" lon="9.937619706606178"><ele>335.1666666666667</ele><time>2026-05-02T16:02:04.998Z</time></trkpt><trkpt lat="44.773802428373116" lon="9.937712316136096"><ele>335.0</ele><time>2026-05-02T16:02:07.998Z</time></trkpt><trkpt lat="44.77384135154541" lon="9.937624421910296"><ele>334.99999999999994</ele><time>2026-05-02T16:02:12.998Z</time></trkpt><trkpt lat="44.77377590107696" lon="9.937580944361331"><ele>335.0</ele><time>2026-05-02T16:03:52.998Z</time></trkpt><trkpt lat="44.77371351829868" lon="9.937524413749196"><ele>335.0</ele><time>2026-05-02T16:03:55.998Z</time></trkpt><trkpt lat="44.77365300768743" lon="9.937487587068604"><ele>335.0</ele><time>2026-05-02T16:03:57.998Z</time></trkpt><trkpt lat="44.77358758800703" lon="9.9374503831749"><ele>335.0</ele><time>2026-05-02T16:03:59.998Z</time></trkpt><trkpt lat="44.77351622055297" lon="9.937411007795466"><ele>334.99999999999994</ele><time>2026-05-02T16:04:01.998Z</time></trkpt><trkpt lat="44.77344194591296" lon="9.93736270486701"><ele>335.0</ele><time>2026-05-02T16:04:03.998Z</time></trkpt><trkpt lat="44.77337103199265" lon="9.93732695801187"><ele>335.1666666666667</ele><time>2026-05-02T16:04:05.998Z</time></trkpt><trkpt lat="44.77330379826528" lon="9.937282880707729"><ele>335.33333333333337</ele><time>2026-05-02T16:04:07.998Z</time></trkpt><trkpt lat="44.77324200804215" lon="9.937250605865176"><ele>335.5</ele><time>2026-05-02T16:04:09.998Z</time></trkpt><trkpt lat="44.77316383355274" lon="9.937214652852495"><ele>335.6666666666667</ele><time>2026-05-02T16:04:12.998Z</time></trkpt><trkpt lat="44.77308584547781" lon="9.937164124153671"><ele>335.8333333333333</ele><time>2026-05-02T16:04:15.998Z</time></trkpt><trkpt lat="44.77301904405572" lon="9.937117489312323"><ele>336.0</ele><time>2026-05-02T16:04:18.998Z</time></trkpt><trkpt lat="44.772948064113415" lon="9.937078191177452"><ele>336.0</ele><time>2026-05-02T16:04:21.998Z</time></trkpt><trkpt lat="44.77288824629312" lon="9.93703919921651"><ele>336.0</ele><time>2026-05-02T16:04:24.998Z</time></trkpt><trkpt lat="44.772821245442074" lon="9.93700082679556"><ele>336.0</ele><time>2026-05-02T16:04:28Z</time></trkpt><trkpt lat="44.772759659258554" lon="9.936953763804"><ele>336.0</ele><time>2026-05-02T16:04:31Z</time></trkpt><trkpt lat="44.77269774230727" lon="9.936925790069976"><ele>336.0</ele><time>2026-05-02T16:04:34Z</time></trkpt><trkpt lat="44.7726272040395" lon="9.936940002209647"><ele>336.0</ele><time>2026-05-02T16:04:38Z</time></trkpt><trkpt lat="44.772572501922106" lon="9.936999015886721"><ele>336.0</ele><time>2026-05-02T16:04:41Z</time></trkpt><trkpt lat="44.77256428247089" lon="9.937109983426984"><ele>336.0</ele><time>2026-05-02T16:04:43.999Z</time></trkpt><trkpt lat="44.77260543637404" lon="9.937199370316177"><ele>336.0</ele><time>2026-05-02T16:04:47.999Z</time></trkpt><trkpt lat="44.772657732118184" lon="9.937258560352763"><ele>336.0</ele><time>2026-05-02T16:04:50.999Z</time></trkpt><trkpt lat="44.772716544484226" lon="9.937310911065596"><ele>336.0</ele><time>2026-05-02T16:04:53.999Z</time></trkpt><trkpt lat="44.772776676081925" lon="9.937372216824794"><ele>336.0</ele><time>2026-05-02T16:04:56.999Z</time></trkpt><trkpt lat="44.77284071095168" lon="9.937458766621763"><ele>336.0</ele><time>2026-05-02T16:04:59.999Z</time></trkpt><trkpt lat="44.77283209374965" lon="9.937550063551859"><ele>336.0</ele><time>2026-05-02T16:05:02.999Z</time></trkpt><trkpt lat="44.77276061889135" lon="9.93758896262997"><ele>336.14285714285717</ele><time>2026-05-02T16:05:06.999Z</time></trkpt><trkpt lat="44.77269623353631" lon="9.937564017245732"><ele>336.2857142857143</ele><time>2026-05-02T16:05:09.999Z</time></trkpt><trkpt lat="44.77263153357094" lon="9.937535611755392"><ele>336.42857142857144</ele><time>2026-05-02T16:05:12.999Z</time></trkpt><trkpt lat="44.77256341692127" lon="9.93749895883247"><ele>336.57142857142856</ele><time>2026-05-02T16:05:15.999Z</time></trkpt><trkpt lat="44.77249414936118" lon="9.937466811894904"><ele>336.7142857142857</ele><time>2026-05-02T16:05:18.999Z</time></trkpt><trkpt lat="44.77241808213131" lon="9.937427699352929"><ele>336.8571428571429</ele><time>2026-05-02T16:05:22.999Z</time></trkpt><trkpt lat="44.772349062643045" lon="9.937394589882588"><ele>337.0</ele><time>2026-05-02T16:05:26Z</time></trkpt><trkpt lat="44.77228253145854" lon="9.937371874748333"><ele>339.00000000000006</ele><time>2026-05-02T16:05:29Z</time></trkpt><trkpt lat="44.772217369240394" lon="9.93734508857754"><ele>341.0</ele><time>2026-05-02T16:05:32Z</time></trkpt><trkpt lat="44.772137520286364" lon="9.937319315870216"><ele>343.0</ele><time>2026-05-02T16:05:36Z</time></trkpt><trkpt lat="44.77207382272621" lon="9.937295043673084"><ele>345.0</ele><time>2026-05-02T16:05:38.999Z</time></trkpt><trkpt lat="44.772005867004495" lon="9.937271406880445"><ele>347.0</ele><time>2026-05-02T16:05:41.999Z</time></trkpt><trkpt lat="44.77193572530243" lon="9.937246731626963"><ele>349.00000000000006</ele><time>2026-05-02T16:05:44.999Z</time></trkpt><trkpt lat="44.77185683241394" lon="9.937224279521066"><ele>351.0</ele><time>2026-05-02T16:05:48.999Z</time></trkpt><trkpt lat="44.77178913015175" lon="9.937201241798672"><ele>352.5</ele><time>2026-05-02T16:05:51.999Z</time></trkpt><trkpt lat="44.77171518035974" lon="9.937183384387017"><ele>354.0</ele><time>2026-05-02T16:05:54.999Z</time></trkpt><trkpt lat="44.771632881703084" lon="9.93716025230944"><ele>355.5</ele><time>2026-05-02T16:05:58.999Z</time></trkpt><trkpt lat="44.77156063553305" lon="9.937134352023389"><ele>357.0</ele><time>2026-05-02T16:06:01.999Z</time></trkpt><trkpt lat="44.77148468564899" lon="9.937118325333257"><ele>358.5</ele><time>2026-05-02T16:06:04.999Z</time></trkpt><trkpt lat="44.771406415713564" lon="9.937097447612057"><ele>360.0</ele><time>2026-05-02T16:06:08.999Z</time></trkpt><trkpt lat="44.771341004249585" lon="9.937078176236417"><ele>360.0</ele><time>2026-05-02T16:06:10.999Z</time></trkpt><trkpt lat="44.77127470881914" lon="9.937068383654658"><ele>360.0</ele><time>2026-05-02T16:06:13.999Z</time></trkpt><trkpt lat="44.77119961789195" lon="9.937063011500749"><ele>360.0</ele><time>2026-05-02T16:06:17.999Z</time></trkpt><trkpt lat="44.771137487668575" lon="9.937105293332364"><ele>360.0</ele><time>2026-05-02T16:06:20.999Z</time></trkpt><trkpt lat="44.77110793368007" lon="9.937203250293079"><ele>360.0</ele><time>2026-05-02T16:06:23.999Z</time></trkpt><trkpt lat="44.77113756520908" lon="9.937295197127247"><ele>360.0</ele><time>2026-05-02T16:06:26.999Z</time></trkpt><trkpt lat="44.77119985044581" lon="9.93734631767487"><ele>360.0</ele><time>2026-05-02T16:06:29.999Z</time></trkpt><trkpt lat="44.77126724258948" lon="9.937378365152098"><ele>360.0</ele><time>2026-05-02T16:06:32.998Z</time></trkpt><trkpt lat="44.77133620073486" lon="9.937396830844284"><ele>360.0</ele><time>2026-05-02T16:06:36Z</time></trkpt><trkpt lat="44.77141305814474" lon="9.937419271518591"><ele>360.0</ele><time>2026-05-02T16:06:39Z</time></trkpt><trkpt lat="44.77148929012712" lon="9.937448508041996"><ele>360.0</ele><time>2026-05-02T16:06:42Z</time></trkpt><trkpt lat="44.771568237844775" lon="9.937481420949295"><ele>360.0</ele><time>2026-05-02T16:06:45Z</time></trkpt><trkpt lat="44.77164199512054" lon="9.937533342703489"><ele>360.0</ele><time>2026-05-02T16:06:48Z</time></trkpt><trkpt lat="44.771648496239244" lon="9.93764156890831"><ele>362.57142857142856</ele><time>2026-05-02T16:06:51Z</time></trkpt><trkpt lat="44.771583984574065" lon="9.937630676523336"><ele>365.14285714285717</ele><time>2026-05-02T16:06:54Z</time></trkpt><trkpt lat="44.77152263651106" lon="9.937599981063888"><ele>367.7142857142857</ele><time>2026-05-02T16:06:57Z</time></trkpt><trkpt lat="44.77145103703941" lon="9.937579331957716"><ele>370.2857142857143</ele><time>2026-05-02T16:07:00Z</time></trkpt><trkpt lat="44.77137465474352" lon="9.937567978682162"><ele>372.8571428571429</ele><time>2026-05-02T16:07:03Z</time></trkpt><trkpt lat="44.771293644556145" lon="9.937578372002372"><ele>375.42857142857144</ele><time>2026-05-02T16:07:06Z</time></trkpt><trkpt lat="44.771223041035704" lon="9.93761718080582"><ele>378.0</ele><time>2026-05-02T16:07:09Z</time></trkpt><trkpt lat="44.77115828168826" lon="9.937685827023333"><ele>378.0</ele><time>2026-05-02T16:07:12Z</time></trkpt><trkpt lat="44.77108428367978" lon="9.93776439699281"><ele>378.0</ele><time>2026-05-02T16:07:15Z</time></trkpt><trkpt lat="44.77103220720917" lon="9.937834476338688"><ele>378.0</ele><time>2026-05-02T16:07:18Z</time></trkpt><trkpt lat="44.77097611408497" lon="9.937900649576918"><ele>378.0</ele><time>2026-05-02T16:07:21Z</time></trkpt><trkpt lat="44.77090506045179" lon="9.93796085840954"><ele>378.0</ele><time>2026-05-02T16:07:24Z</time></trkpt><trkpt lat="44.77081817265657" lon="9.937981604844627"><ele>378.0</ele><time>2026-05-02T16:07:27Z</time></trkpt><trkpt lat="44.770737465706574" lon="9.937951986247889"><ele>378.14285714285717</ele><time>2026-05-02T16:07:30Z</time></trkpt><trkpt lat="44.77068427647215" lon="9.937895396588011"><ele>378.2857142857143</ele><time>2026-05-02T16:07:32Z</time></trkpt><trkpt lat="44.77064183798929" lon="9.937810268006512"><ele>378.42857142857144</ele><time>2026-05-02T16:07:35Z</time></trkpt><trkpt lat="44.77060157508466" lon="9.937727617556078"><ele>378.57142857142856</ele><time>2026-05-02T16:07:38Z</time></trkpt><trkpt lat="44.770555719109225" lon="9.937652212940618"><ele>378.7142857142857</ele><time>2026-05-02T16:07:40.999Z</time></trkpt><trkpt lat="44.770493066688914" lon="9.937590471976556"><ele>378.8571428571429</ele><time>2026-05-02T16:07:43.999Z</time></trkpt><trkpt lat="44.770429911898546" lon="9.937557065419119"><ele>379.0</ele><time>2026-05-02T16:07:45.999Z</time></trkpt><trkpt lat="44.77034605904502" lon="9.93756463030438"><ele>379.0</ele><time>2026-05-02T16:07:48.999Z</time></trkpt><trkpt lat="44.770263393427264" lon="9.937597325847417"><ele>379.0</ele><time>2026-05-02T16:07:50.999Z</time></trkpt><trkpt lat="44.77019946707484" lon="9.937691618197968"><ele>379.0</ele><time>2026-05-02T16:07:53.999Z</time></trkpt><trkpt lat="44.77025360420871" lon="9.937804374955055"><ele>379.0</ele><time>2026-05-02T16:07:55.999Z</time></trkpt><trkpt lat="44.77022369618191" lon="9.937900163564544"><ele>379.0</ele><time>2026-05-02T16:07:57.999Z</time></trkpt><trkpt lat="44.770130867657" lon="9.937981201988126"><ele>379.00000000000006</ele><time>2026-05-02T16:07:58.999Z</time></trkpt><trkpt lat="44.77016215822454" lon="9.938083499172107"><ele>379.0</ele><time>2026-05-02T16:08:00.999Z</time></trkpt><trkpt lat="44.77021354224043" lon="9.938160111941038"><ele>379.0</ele><time>2026-05-02T16:08:02.999Z</time></trkpt><trkpt lat="44.77026609753362" lon="9.938217327066937"><ele>379.0</ele><time>2026-05-02T16:08:04.999Z</time></trkpt><trkpt lat="44.77032106242831" lon="9.938268772067985"><ele>379.0</ele><time>2026-05-02T16:08:06.999Z</time></trkpt><trkpt lat="44.77037583005388" lon="9.93832440945698"><ele>379.00000000000006</ele><time>2026-05-02T16:08:08.999Z</time></trkpt><trkpt lat="44.770449772566174" lon="9.938388049921205"><ele>379.0</ele><time>2026-05-02T16:08:11.999Z</time></trkpt><trkpt lat="44.77051961264018" lon="9.938447522984315"><ele>380.8333333333333</ele><time>2026-05-02T16:08:14.999Z</time></trkpt><trkpt lat="44.770591811395086" lon="9.938515524685366"><ele>382.66666666666663</ele><time>2026-05-02T16:08:17.999Z</time></trkpt><trkpt lat="44.770657368100586" lon="9.938583658214954"><ele>384.5</ele><time>2026-05-02T16:08:20.999Z</time></trkpt><trkpt lat="44.770734520898536" lon="9.938643433487545"><ele>386.3333333333333</ele><time>2026-05-02T16:08:24.999Z</time></trkpt><trkpt lat="44.77079875639694" lon="9.93868436031802"><ele>388.1666666666667</ele><time>2026-05-02T16:08:27.999Z</time></trkpt><trkpt lat="44.77087206191159" lon="9.938699411854401"><ele>390.0</ele><time>2026-05-02T16:08:30.999Z</time></trkpt><trkpt lat="44.770944327318055" lon="9.938703257403033"><ele>390.0</ele><time>2026-05-02T16:08:33.999Z</time></trkpt><trkpt lat="44.77101615335456" lon="9.938692261535525"><ele>390.0</ele><time>2026-05-02T16:08:36.998Z</time></trkpt><trkpt lat="44.771101416278256" lon="9.938670981805165"><ele>390.0</ele><time>2026-05-02T16:08:41Z</time></trkpt><trkpt lat="44.77116708225873" lon="9.93864942818593"><ele>390.0</ele><time>2026-05-02T16:08:44Z</time></trkpt><trkpt lat="44.771231838711444" lon="9.93862532845553"><ele>390.0</ele><time>2026-05-02T16:08:47Z</time></trkpt><trkpt lat="44.77130183298372" lon="9.938608820804678"><ele>390.0</ele><time>2026-05-02T16:08:50Z</time></trkpt><trkpt lat="44.77137529668695" lon="9.93859958222493"><ele>390.0</ele><time>2026-05-02T16:08:53Z</time></trkpt><trkpt lat="44.771444231336645" lon="9.938617251219524"><ele>390.1428571428571</ele><time>2026-05-02T16:08:56Z</time></trkpt><trkpt lat="44.77151800937103" lon="9.938651979454406"><ele>390.2857142857143</ele><time>2026-05-02T16:08:59Z</time></trkpt><trkpt lat="44.77157042895453" lon="9.938708335398957"><ele>390.42857142857144</ele><time>2026-05-02T16:09:02Z</time></trkpt><trkpt lat="44.77162152606272" lon="9.938773440279562"><ele>390.57142857142856</ele><time>2026-05-02T16:09:05Z</time></trkpt><trkpt lat="44.77166965472431" lon="9.938845414361278"><ele>390.7142857142857</ele><time>2026-05-02T16:09:08Z</time></trkpt><trkpt lat="44.771707231481244" lon="9.938930661993085"><ele>390.85714285714283</ele><time>2026-05-02T16:09:11Z</time></trkpt><trkpt lat="44.771732490169434" lon="9.939021158690664"><ele>391.0</ele><time>2026-05-02T16:09:14Z</time></trkpt><trkpt lat="44.77174568029041" lon="9.939120768344639"><ele>389.1428571428571</ele><time>2026-05-02T16:09:17Z</time></trkpt><trkpt lat="44.771745172932135" lon="9.939243407016276"><ele>387.2857142857143</ele><time>2026-05-02T16:09:20Z</time></trkpt><trkpt lat="44.771726231818086" lon="9.939330285884516"><ele>385.42857142857144</ele><time>2026-05-02T16:09:23Z</time></trkpt><trkpt lat="44.77170283161677" lon="9.939419351704235"><ele>383.57142857142856</ele><time>2026-05-02T16:09:26Z</time></trkpt><trkpt lat="44.77166603135963" lon="9.939495920608021"><ele>381.7142857142857</ele><time>2026-05-02T16:09:29Z</time></trkpt><trkpt lat="44.77162091215332" lon="9.939567814495872"><ele>379.85714285714283</ele><time>2026-05-02T16:09:32Z</time></trkpt><trkpt lat="44.77156204053639" lon="9.939620351828024"><ele>378.0</ele><time>2026-05-02T16:09:35Z</time></trkpt><trkpt lat="44.771499863128625" lon="9.939660868385593"><ele>378.0</ele><time>2026-05-02T16:09:38Z</time></trkpt><trkpt lat="44.771434095574186" lon="9.939703112966242"><ele>378.0</ele><time>2026-05-02T16:09:41Z</time></trkpt><trkpt lat="44.771368958317055" lon="9.939750691901299"><ele>378.0</ele><time>2026-05-02T16:09:43.999Z</time></trkpt><trkpt lat="44.77129834129439" lon="9.939783719611716"><ele>378.0</ele><time>2026-05-02T16:09:47.999Z</time></trkpt><trkpt lat="44.771231122299355" lon="9.939813430163179"><ele>378.0</ele><time>2026-05-02T16:09:49.999Z</time></trkpt><trkpt lat="44.77116466069464" lon="9.939859943203473"><ele>378.0</ele><time>2026-05-02T16:09:52.999Z</time></trkpt><trkpt lat="44.77109637480963" lon="9.939898521023267"><ele>378.0</ele><time>2026-05-02T16:09:55.999Z</time></trkpt><trkpt lat="44.77102790661714" lon="9.939953411663117"><ele>380.14285714285717</ele><time>2026-05-02T16:09:58.999Z</time></trkpt><trkpt lat="44.77097209668784" lon="9.939997259621064"><ele>382.2857142857143</ele><time>2026-05-02T16:10:01.999Z</time></trkpt><trkpt lat="44.77091510235074" lon="9.94003793482821"><ele>384.42857142857144</ele><time>2026-05-02T16:10:04.999Z</time></trkpt><trkpt lat="44.77085226043351" lon="9.940088284812319"><ele>386.57142857142856</ele><time>2026-05-02T16:10:07.999Z</time></trkpt><trkpt lat="44.770787384881466" lon="9.940136226584045"><ele>388.7142857142857</ele><time>2026-05-02T16:10:10.999Z</time></trkpt><trkpt lat="44.77072236193504" lon="9.940178523860325"><ele>390.8571428571429</ele><time>2026-05-02T16:10:13.999Z</time></trkpt><trkpt lat="44.770645952699475" lon="9.94022371067144"><ele>393.0</ele><time>2026-05-02T16:10:16.999Z</time></trkpt><trkpt lat="44.7705749818253" lon="9.940253092019724"><ele>393.0</ele><time>2026-05-02T16:10:20.999Z</time></trkpt><trkpt lat="44.77050287949348" lon="9.940283803011997"><ele>393.0</ele><time>2026-05-02T16:10:23.999Z</time></trkpt><trkpt lat="44.77042580338876" lon="9.940313020941133"><ele>393.0</ele><time>2026-05-02T16:10:26.999Z</time></trkpt><trkpt lat="44.7703530863627" lon="9.940358181188767"><ele>393.0</ele><time>2026-05-02T16:10:29.999Z</time></trkpt><trkpt lat="44.77029113979213" lon="9.940413318005513"><ele>393.0</ele><time>2026-05-02T16:10:32.999Z</time></trkpt><trkpt lat="44.77023998534798" lon="9.94048523789307"><ele>393.0</ele><time>2026-05-02T16:10:35.999Z</time></trkpt><trkpt lat="44.77019079112676" lon="9.940566607059486"><ele>395.3333333333333</ele><time>2026-05-02T16:10:38.998Z</time></trkpt><trkpt lat="44.77014819761382" lon="9.940659266252345"><ele>397.66666666666663</ele><time>2026-05-02T16:10:41.998Z</time></trkpt><trkpt lat="44.77011023000126" lon="9.940750079983397"><ele>400.0</ele><time>2026-05-02T16:10:44.998Z</time></trkpt><trkpt lat="44.77007165098412" lon="9.940852848345264"><ele>402.3333333333333</ele><time>2026-05-02T16:10:48Z</time></trkpt><trkpt lat="44.77003628297146" lon="9.940949448655394"><ele>404.66666666666663</ele><time>2026-05-02T16:10:51Z</time></trkpt><trkpt lat="44.76999830390252" lon="9.941043605218928"><ele>407.0</ele><time>2026-05-02T16:10:54Z</time></trkpt><trkpt lat="44.76996018529095" lon="9.941140305056722"><ele>407.8333333333333</ele><time>2026-05-02T16:10:57Z</time></trkpt><trkpt lat="44.76991592696564" lon="9.941228092959115"><ele>408.66666666666663</ele><time>2026-05-02T16:11:00Z</time></trkpt><trkpt lat="44.7698693747684" lon="9.941318246357225"><ele>409.5</ele><time>2026-05-02T16:11:03Z</time></trkpt><trkpt lat="44.76981500584714" lon="9.941400792891526"><ele>410.33333333333337</ele><time>2026-05-02T16:11:06Z</time></trkpt><trkpt lat="44.76975953469775" lon="9.941475637111324"><ele>411.1666666666667</ele><time>2026-05-02T16:11:09Z</time></trkpt><trkpt lat="44.769693580740835" lon="9.941538623623213"><ele>412.0</ele><time>2026-05-02T16:11:12Z</time></trkpt><trkpt lat="44.769625974075545" lon="9.941591413498115"><ele>412.00000000000006</ele><time>2026-05-02T16:11:15Z</time></trkpt><trkpt lat="44.7695555461242" lon="9.941633714912198"><ele>412.0</ele><time>2026-05-02T16:11:18Z</time></trkpt><trkpt lat="44.769479351296724" lon="9.941669578060115"><ele>412.0</ele><time>2026-05-02T16:11:21Z</time></trkpt><trkpt lat="44.769398192267964" lon="9.941683498517865"><ele>412.0</ele><time>2026-05-02T16:11:24Z</time></trkpt><trkpt lat="44.76931718627592" lon="9.941685094124063"><ele>412.00000000000006</ele><time>2026-05-02T16:11:27Z</time></trkpt><trkpt lat="44.769241107041516" lon="9.941678408371413"><ele>412.0</ele><time>2026-05-02T16:11:30Z</time></trkpt><trkpt lat="44.769162344224874" lon="9.941661233962364"><ele>412.50000000000006</ele><time>2026-05-02T16:11:33Z</time></trkpt><trkpt lat="44.769079146915864" lon="9.941634299494975"><ele>413.0</ele><time>2026-05-02T16:11:36Z</time></trkpt><trkpt lat="44.769003348855534" lon="9.941615464012733"><ele>413.5</ele><time>2026-05-02T16:11:39Z</time></trkpt><trkpt lat="44.768934482216736" lon="9.941576656288902"><ele>414.0</ele><time>2026-05-02T16:11:42Z</time></trkpt><trkpt lat="44.76886355746412" lon="9.941524846434847"><ele>414.50000000000006</ele><time>2026-05-02T16:11:45Z</time></trkpt><trkpt lat="44.76879332365279" lon="9.941459679746517"><ele>415.0</ele><time>2026-05-02T16:11:47.999Z</time></trkpt><trkpt lat="44.768724334528805" lon="9.941388907902718"><ele>415.00000000000006</ele><time>2026-05-02T16:11:50.999Z</time></trkpt><trkpt lat="44.768672810651694" lon="9.941297461421547"><ele>415.0</ele><time>2026-05-02T16:11:53.999Z</time></trkpt><trkpt lat="44.76864470167439" lon="9.9412118345578"><ele>415.0</ele><time>2026-05-02T16:11:55.999Z</time></trkpt><trkpt lat="44.76862471832662" lon="9.941123370968011"><ele>415.0</ele><time>2026-05-02T16:11:57.999Z</time></trkpt><trkpt lat="44.76859952005746" lon="9.941014520832903"><ele>415.00000000000006</ele><time>2026-05-02T16:12:00.999Z</time></trkpt><trkpt lat="44.76856822187147" lon="9.940902211745302"><ele>415.0</ele><time>2026-05-02T16:12:03.999Z</time></trkpt><trkpt lat="44.768530796453696" lon="9.94079358429291"><ele>416.6666666666667</ele><time>2026-05-02T16:12:06.999Z</time></trkpt><trkpt lat="44.768482933094035" lon="9.940696518185636"><ele>418.33333333333337</ele><time>2026-05-02T16:12:09.999Z</time></trkpt><trkpt lat="44.768433495368605" lon="9.940632745621981"><ele>420.0</ele><time>2026-05-02T16:12:12.999Z</time></trkpt><trkpt lat="44.76838031620663" lon="9.940566499664916"><ele>421.66666666666663</ele><time>2026-05-02T16:12:15.999Z</time></trkpt><trkpt lat="44.76831757090875" lon="9.94050701598348"><ele>423.3333333333333</ele><time>2026-05-02T16:12:18.999Z</time></trkpt><trkpt lat="44.768247423923185" lon="9.940451334256453"><ele>425.0</ele><time>2026-05-02T16:12:21.999Z</time></trkpt><trkpt lat="44.76817464128063" lon="9.940404010881815"><ele>424.99999999999994</ele><time>2026-05-02T16:12:24.999Z</time></trkpt><trkpt lat="44.768097175543055" lon="9.940363757559389"><ele>425.0</ele><time>2026-05-02T16:12:27.999Z</time></trkpt><trkpt lat="44.76801960463136" lon="9.940327665089116"><ele>425.0</ele><time>2026-05-02T16:12:30.999Z</time></trkpt><trkpt lat="44.76792800296573" lon="9.940303294641275"><ele>425.0</ele><time>2026-05-02T16:12:33.999Z</time></trkpt><trkpt lat="44.767848952627126" lon="9.940293933758143"><ele>424.99999999999994</ele><time>2026-05-02T16:12:36.999Z</time></trkpt><trkpt lat="44.76777177676115" lon="9.940288068368137"><ele>425.0</ele><time>2026-05-02T16:12:39.999Z</time></trkpt><trkpt lat="44.767696552343196" lon="9.94029270094554"><ele>425.66666666666663</ele><time>2026-05-02T16:12:42.998Z</time></trkpt><trkpt lat="44.767618719375186" lon="9.940299168114912"><ele>426.3333333333333</ele><time>2026-05-02T16:12:45.998Z</time></trkpt><trkpt lat="44.76754036058343" lon="9.940311864598831"><ele>427.0</ele><time>2026-05-02T16:12:48.998Z</time></trkpt><trkpt lat="44.76745976863466" lon="9.94032752474755"><ele>427.66666666666663</ele><time>2026-05-02T16:12:52Z</time></trkpt><trkpt lat="44.76737926531709" lon="9.94034820854199"><ele>428.3333333333333</ele><time>2026-05-02T16:12:55Z</time></trkpt><trkpt lat="44.76729656363575" lon="9.940358502483475"><ele>429.0</ele><time>2026-05-02T16:12:58Z</time></trkpt><trkpt lat="44.76721655638842" lon="9.940372730826642"><ele>429.0</ele><time>2026-05-02T16:13:01Z</time></trkpt><trkpt lat="44.767153344399645" lon="9.940383164954914"><ele>429.0</ele><time>2026-05-02T16:13:03Z</time></trkpt><trkpt lat="44.76708171598568" lon="9.940403500989259"><ele>429.0</ele><time>2026-05-02T16:13:06Z</time></trkpt><trkpt lat="44.76699967454608" lon="9.940423073293962"><ele>429.0</ele><time>2026-05-02T16:13:09Z</time></trkpt><trkpt lat="44.76691267068683" lon="9.94044116462704"><ele>429.0</ele><time>2026-05-02T16:13:12Z</time></trkpt><trkpt lat="44.7668362696852" lon="9.94046788857284"><ele>429.0</ele><time>2026-05-02T16:13:15Z</time></trkpt><trkpt lat="44.766760688422536" lon="9.940490283369318"><ele>429.5</ele><time>2026-05-02T16:13:18Z</time></trkpt><trkpt lat="44.766688004727264" lon="9.940515831992068"><ele>430.0</ele><time>2026-05-02T16:13:21Z</time></trkpt><trkpt lat="44.76661645128642" lon="9.940538577041771"><ele>430.5</ele><time>2026-05-02T16:13:24Z</time></trkpt><trkpt lat="44.766543287868586" lon="9.94057004694478"><ele>431.0</ele><time>2026-05-02T16:13:27Z</time></trkpt><trkpt lat="44.76646046203465" lon="9.940603997862862"><ele>431.5</ele><time>2026-05-02T16:13:30Z</time></trkpt><trkpt lat="44.766380227639374" lon="9.940638999309574"><ele>432.0</ele><time>2026-05-02T16:13:33Z</time></trkpt><trkpt lat="44.766301744775944" lon="9.940675825781042"><ele>432.0</ele><time>2026-05-02T16:13:36Z</time></trkpt><trkpt lat="44.766226173971646" lon="9.940708201964968"><ele>432.0</ele><time>2026-05-02T16:13:39Z</time></trkpt><trkpt lat="44.76615580954012" lon="9.940731816286002"><ele>432.0</ele><time>2026-05-02T16:13:42Z</time></trkpt><trkpt lat="44.76607727725213" lon="9.940766258691445"><ele>432.0</ele><time>2026-05-02T16:13:45Z</time></trkpt><trkpt lat="44.7660048085863" lon="9.940802640380234"><ele>432.0</ele><time>2026-05-02T16:13:48Z</time></trkpt><trkpt lat="44.76593033297572" lon="9.940837283162633"><ele>432.0</ele><time>2026-05-02T16:13:50.999Z</time></trkpt><trkpt lat="44.7658542224423" lon="9.940872363467506"><ele>432.0</ele><time>2026-05-02T16:13:53.999Z</time></trkpt><trkpt lat="44.76577630960955" lon="9.940910693864932"><ele>432.0</ele><time>2026-05-02T16:13:56.999Z</time></trkpt><trkpt lat="44.76570229535996" lon="9.940951463791961"><ele>432.0</ele><time>2026-05-02T16:13:59.999Z</time></trkpt><trkpt lat="44.765629367032304" lon="9.940992506336125"><ele>432.0</ele><time>2026-05-02T16:14:02.999Z</time></trkpt><trkpt lat="44.765558867311555" lon="9.941040705041765"><ele>432.0</ele><time>2026-05-02T16:14:05.999Z</time></trkpt><trkpt lat="44.76548748863281" lon="9.941092016412464"><ele>432.0</ele><time>2026-05-02T16:14:08.999Z</time></trkpt><trkpt lat="44.765418096508185" lon="9.941142144928477"><ele>432.0</ele><time>2026-05-02T16:14:11.999Z</time></trkpt><trkpt lat="44.76535523797609" lon="9.941188003775391"><ele>432.0</ele><time>2026-05-02T16:14:14.999Z</time></trkpt><trkpt lat="44.76528947658991" lon="9.94123090453525"><ele>432.0</ele><time>2026-05-02T16:14:17.999Z</time></trkpt><trkpt lat="44.76522736731605" lon="9.941289281974424"><ele>432.0</ele><time>2026-05-02T16:14:20.999Z</time></trkpt><trkpt lat="44.76516219023213" lon="9.941336674582494"><ele>432.0</ele><time>2026-05-02T16:14:23.999Z</time></trkpt><trkpt lat="44.765095760287124" lon="9.941383842529424"><ele>432.0</ele><time>2026-05-02T16:14:26.999Z</time></trkpt><trkpt lat="44.765031720778516" lon="9.941434886546327"><ele>432.0</ele><time>2026-05-02T16:14:29.999Z</time></trkpt><trkpt lat="44.764964944565364" lon="9.941487417843488"><ele>432.85714285714283</ele><time>2026-05-02T16:14:32.999Z</time></trkpt><trkpt lat="44.76489959024967" lon="9.941538288310394"><ele>433.71428571428567</ele><time>2026-05-02T16:14:35.999Z</time></trkpt><trkpt lat="44.764840395535735" lon="9.941576598257125"><ele>434.57142857142856</ele><time>2026-05-02T16:14:37.999Z</time></trkpt><trkpt lat="44.76477915497196" lon="9.941623143954422"><ele>435.42857142857144</ele><time>2026-05-02T16:14:40.999Z</time></trkpt><trkpt lat="44.76471628753487" lon="9.941673096850273"><ele>436.2857142857143</ele><time>2026-05-02T16:14:44.998Z</time></trkpt><trkpt lat="44.76465631520685" lon="9.941722471612888"><ele>437.14285714285717</ele><time>2026-05-02T16:14:47.998Z</time></trkpt><trkpt lat="44.76459329031564" lon="9.941765923326175"><ele>438.0</ele><time>2026-05-02T16:14:50.998Z</time></trkpt><trkpt lat="44.764531942825855" lon="9.941813961257413"><ele>438.0</ele><time>2026-05-02T16:14:53.998Z</time></trkpt><trkpt lat="44.76446876655644" lon="9.941863559821"><ele>438.0</ele><time>2026-05-02T16:14:57Z</time></trkpt><trkpt lat="44.76440723046691" lon="9.941908254401842"><ele>438.0</ele><time>2026-05-02T16:15:00Z</time></trkpt><trkpt lat="44.7643507582919" lon="9.94195056054741"><ele>438.0</ele><time>2026-05-02T16:15:03Z</time></trkpt><trkpt lat="44.76428874544007" lon="9.941992030233594"><ele>438.0</ele><time>2026-05-02T16:15:06Z</time></trkpt><trkpt lat="44.76422548837547" lon="9.942042240226197"><ele>438.0</ele><time>2026-05-02T16:15:09Z</time></trkpt><trkpt lat="44.76416720677419" lon="9.942090997980273"><ele>438.0</ele><time>2026-05-02T16:15:12Z</time></trkpt><trkpt lat="44.76411101562416" lon="9.942139305138635"><ele>440.42857142857144</ele><time>2026-05-02T16:15:15Z</time></trkpt><trkpt lat="44.76404128120026" lon="9.942206080230532"><ele>442.85714285714283</ele><time>2026-05-02T16:15:19Z</time></trkpt><trkpt lat="44.763986064099655" lon="9.942262907313426"><ele>445.2857142857143</ele><time>2026-05-02T16:15:22Z</time></trkpt><trkpt lat="44.76393191363147" lon="9.94231816705873"><ele>447.7142857142857</ele><time>2026-05-02T16:15:25Z</time></trkpt><trkpt lat="44.76388024800951" lon="9.942378992595136"><ele>450.1428571428571</ele><time>2026-05-02T16:15:28Z</time></trkpt><trkpt lat="44.76382518048281" lon="9.942433875169371"><ele>452.57142857142856</ele><time>2026-05-02T16:15:31Z</time></trkpt><trkpt lat="44.76376924694041" lon="9.942481582031933"><ele>455.0</ele><time>2026-05-02T16:15:34Z</time></trkpt><trkpt lat="44.76371250850769" lon="9.942526201373957"><ele>454.49999999999994</ele><time>2026-05-02T16:15:37Z</time></trkpt><trkpt lat="44.76363668022491" lon="9.942578283280094"><ele>454.0</ele><time>2026-05-02T16:15:41Z</time></trkpt><trkpt lat="44.76357708331128" lon="9.942610368738766"><ele>453.5</ele><time>2026-05-02T16:15:44Z</time></trkpt><trkpt lat="44.763514428570026" lon="9.94263915988955"><ele>453.0</ele><time>2026-05-02T16:15:47Z</time></trkpt><trkpt lat="44.76343644670322" lon="9.942674911148295"><ele>452.49999999999994</ele><time>2026-05-02T16:15:51Z</time></trkpt><trkpt lat="44.76335546449738" lon="9.94269746178275"><ele>452.0</ele><time>2026-05-02T16:15:54.999Z</time></trkpt><trkpt lat="44.76327344037158" lon="9.942709291335277"><ele>453.99999999999994</ele><time>2026-05-02T16:15:58.999Z</time></trkpt><trkpt lat="44.76319821661963" lon="9.942658690115444"><ele>456.0</ele><time>2026-05-02T16:16:02.999Z</time></trkpt><trkpt lat="44.763159116131305" lon="9.942557847614527"><ele>458.0</ele><time>2026-05-02T16:16:05.999Z</time></trkpt><trkpt lat="44.76317086653377" lon="9.942465357857433"><ele>460.0</ele><time>2026-05-02T16:16:08.999Z</time></trkpt><trkpt lat="44.76320282243116" lon="9.942381189119258"><ele>461.99999999999994</ele><time>2026-05-02T16:16:11.999Z</time></trkpt><trkpt lat="44.76324090968307" lon="9.9422957856537"><ele>464.0</ele><time>2026-05-02T16:16:15.999Z</time></trkpt><trkpt lat="44.76328152007013" lon="9.942196154528679"><ele>464.28571428571433</ele><time>2026-05-02T16:16:19.999Z</time></trkpt><trkpt lat="44.76332185007498" lon="9.942100735147877"><ele>464.57142857142856</ele><time>2026-05-02T16:16:23.999Z</time></trkpt><trkpt lat="44.76336287201472" lon="9.941999879378795"><ele>464.8571428571429</ele><time>2026-05-02T16:16:27.999Z</time></trkpt><trkpt lat="44.76340781187436" lon="9.941901763399219"><ele>465.14285714285717</ele><time>2026-05-02T16:16:31.999Z</time></trkpt><trkpt lat="44.76344347515816" lon="9.941827146099799"><ele>465.42857142857144</ele><time>2026-05-02T16:16:34.999Z</time></trkpt><trkpt lat="44.763481508320524" lon="9.941755888488348"><ele>465.7142857142857</ele><time>2026-05-02T16:16:37.999Z</time></trkpt><trkpt lat="44.7635207539929" lon="9.941681683983887"><ele>466.0</ele><time>2026-05-02T16:16:40.999Z</time></trkpt><trkpt lat="44.76356315275334" lon="9.941603905610545"><ele>465.28571428571433</ele><time>2026-05-02T16:16:43.999Z</time></trkpt><trkpt lat="44.763599195934326" lon="9.941529899537267"><ele>464.57142857142856</ele><time>2026-05-02T16:16:46.999Z</time></trkpt><trkpt lat="44.76364245093524" lon="9.941449667840827"><ele>463.8571428571429</ele><time>2026-05-02T16:16:49.998Z</time></trkpt><trkpt lat="44.763685167190786" lon="9.941371263437658"><ele>463.14285714285717</ele><time>2026-05-02T16:16:52.998Z</time></trkpt><trkpt lat="44.763727934211246" lon="9.941291711358328"><ele>462.42857142857144</ele><time>2026-05-02T16:16:55.998Z</time></trkpt><trkpt lat="44.76376846792469" lon="9.941220119784072"><ele>461.7142857142857</ele><time>2026-05-02T16:16:58.998Z</time></trkpt><trkpt lat="44.76381602672855" lon="9.941123658955807"><ele>461.0</ele><time>2026-05-02T16:17:03Z</time></trkpt><trkpt lat="44.76385328944884" lon="9.941051056783174"><ele>461.0</ele><time>2026-05-02T16:17:06Z</time></trkpt><trkpt lat="44.76389262516471" lon="9.94097421297607"><ele>461.00000000000006</ele><time>2026-05-02T16:17:09Z</time></trkpt><trkpt lat="44.76392588916145" lon="9.940891784083696"><ele>461.0</ele><time>2026-05-02T16:17:12Z</time></trkpt><trkpt lat="44.76395528391566" lon="9.940805847477671"><ele>461.0</ele><time>2026-05-02T16:17:15Z</time></trkpt><trkpt lat="44.76398131308908" lon="9.940714123573839"><ele>461.00000000000006</ele><time>2026-05-02T16:17:18Z</time></trkpt><trkpt lat="44.76399441962038" lon="9.94061960020801"><ele>461.0</ele><time>2026-05-02T16:17:21Z</time></trkpt><trkpt lat="44.76398593652266" lon="9.940522762888294"><ele>461.0</ele><time>2026-05-02T16:17:24Z</time></trkpt><trkpt lat="44.76394058959782" lon="9.940455518703509"><ele>462.42857142857144</ele><time>2026-05-02T16:17:27Z</time></trkpt><trkpt lat="44.76387765757301" lon="9.940471991578056"><ele>463.8571428571429</ele><time>2026-05-02T16:17:30Z</time></trkpt><trkpt lat="44.76382844698488" lon="9.940533443455715"><ele>465.28571428571433</ele><time>2026-05-02T16:17:33Z</time></trkpt><trkpt lat="44.76379023839059" lon="9.94060992166349"><ele>466.7142857142858</ele><time>2026-05-02T16:17:36Z</time></trkpt><trkpt lat="44.76375086781662" lon="9.940687885147325"><ele>468.14285714285717</ele><time>2026-05-02T16:17:39Z</time></trkpt><trkpt lat="44.76370551128383" lon="9.940758736838417"><ele>469.57142857142867</ele><time>2026-05-02T16:17:42Z</time></trkpt><trkpt lat="44.76365327673721" lon="9.940820021158897"><ele>471.00000000000006</ele><time>2026-05-02T16:17:45Z</time></trkpt><trkpt lat="44.763596544487065" lon="9.940876219000494"><ele>472.00000000000006</ele><time>2026-05-02T16:17:48Z</time></trkpt><trkpt lat="44.76353341058453" lon="9.940924231459404"><ele>473.0</ele><time>2026-05-02T16:17:51Z</time></trkpt><trkpt lat="44.763471379576565" lon="9.940962344771853"><ele>474.00000000000006</ele><time>2026-05-02T16:17:54Z</time></trkpt><trkpt lat="44.76340295285808" lon="9.94100199489121"><ele>475.00000000000006</ele><time>2026-05-02T16:17:57Z</time></trkpt><trkpt lat="44.763335283991964" lon="9.9410420235072"><ele>476.0</ele><time>2026-05-02T16:17:59.999Z</time></trkpt><trkpt lat="44.76325878572357" lon="9.941085286635873"><ele>477.00000000000006</ele><time>2026-05-02T16:18:02.999Z</time></trkpt><trkpt lat="44.76319335725435" lon="9.9411084741671"><ele>478.00000000000006</ele><time>2026-05-02T16:18:05.999Z</time></trkpt><trkpt lat="44.7631224560967" lon="9.941120024193179"><ele>478.00000000000006</ele><time>2026-05-02T16:18:08.999Z</time></trkpt><trkpt lat="44.76304643783848" lon="9.941111335301908"><ele>478.0</ele><time>2026-05-02T16:18:11.999Z</time></trkpt><trkpt lat="44.76298056970437" lon="9.941083673505156"><ele>478.0</ele><time>2026-05-02T16:18:14.999Z</time></trkpt><trkpt lat="44.76291271632429" lon="9.941044764893947"><ele>478.0</ele><time>2026-05-02T16:18:17.999Z</time></trkpt><trkpt lat="44.762835989566135" lon="9.941010361898565"><ele>478.00000000000006</ele><time>2026-05-02T16:18:20.999Z</time></trkpt><trkpt lat="44.76275880687241" lon="9.940991630211284"><ele>478.0</ele><time>2026-05-02T16:18:23.999Z</time></trkpt><trkpt lat="44.762660952926005" lon="9.941010502858708"><ele>480.1666666666667</ele><time>2026-05-02T16:18:26.999Z</time></trkpt><trkpt lat="44.76258639679693" lon="9.941055961871527"><ele>482.33333333333337</ele><time>2026-05-02T16:18:29.999Z</time></trkpt><trkpt lat="44.76252102515991" lon="9.94112722773182"><ele>484.5</ele><time>2026-05-02T16:18:32.999Z</time></trkpt><trkpt lat="44.76246018353977" lon="9.941215456341533"><ele>486.66666666666663</ele><time>2026-05-02T16:18:35.999Z</time></trkpt><trkpt lat="44.76240659839282" lon="9.941302406474744"><ele>488.8333333333333</ele><time>2026-05-02T16:18:38.999Z</time></trkpt><trkpt lat="44.76235138319284" lon="9.941387345126543"><ele>491.0</ele><time>2026-05-02T16:18:41.999Z</time></trkpt><trkpt lat="44.76229679102538" lon="9.941463140300451"><ele>491.0</ele><time>2026-05-02T16:18:44.999Z</time></trkpt><trkpt lat="44.7622494311142" lon="9.941528609570438"><ele>490.99999999999994</ele><time>2026-05-02T16:18:47.999Z</time></trkpt><trkpt lat="44.76218092297273" lon="9.941574602061705"><ele>491.0</ele><time>2026-05-02T16:18:50.999Z</time></trkpt><trkpt lat="44.76211802506091" lon="9.941600546459439"><ele>491.0</ele><time>2026-05-02T16:18:53.998Z</time></trkpt><trkpt lat="44.76205333557289" lon="9.941612893496016"><ele>490.99999999999994</ele><time>2026-05-02T16:18:56.998Z</time></trkpt><trkpt lat="44.76198442308976" lon="9.941610997907825"><ele>491.0</ele><time>2026-05-02T16:18:59.998Z</time></trkpt><trkpt lat="44.761911490270734" lon="9.941603425299"><ele>491.0</ele><time>2026-05-02T16:19:02.998Z</time></trkpt><trkpt lat="44.76183833654745" lon="9.941603178215734"><ele>491.66666666666663</ele><time>2026-05-02T16:19:05.998Z</time></trkpt><trkpt lat="44.76176267355904" lon="9.9416026667043"><ele>492.3333333333333</ele><time>2026-05-02T16:19:09Z</time></trkpt><trkpt lat="44.76168399713964" lon="9.941618421652487"><ele>493.0</ele><time>2026-05-02T16:19:12Z</time></trkpt><trkpt lat="44.76160444805866" lon="9.941655464081887"><ele>493.66666666666663</ele><time>2026-05-02T16:19:15Z</time></trkpt><trkpt lat="44.7615421684856" lon="9.941696848372894"><ele>494.3333333333333</ele><time>2026-05-02T16:19:18Z</time></trkpt><trkpt lat="44.76147878730091" lon="9.941750308530677"><ele>495.0</ele><time>2026-05-02T16:19:21Z</time></trkpt><trkpt lat="44.76142078958204" lon="9.941804203853893"><ele>495.0</ele><time>2026-05-02T16:19:24Z</time></trkpt><trkpt lat="44.76136135055618" lon="9.941872390444562"><ele>495.0</ele><time>2026-05-02T16:19:27Z</time></trkpt><trkpt lat="44.76131183722406" lon="9.941949743120633"><ele>495.0</ele><time>2026-05-02T16:19:30Z</time></trkpt><trkpt lat="44.761258880432194" lon="9.942030269735046"><ele>495.0</ele><time>2026-05-02T16:19:33Z</time></trkpt><trkpt lat="44.76121088815377" lon="9.942115997363963"><ele>495.0</ele><time>2026-05-02T16:19:36Z</time></trkpt><trkpt lat="44.761167437176326" lon="9.942198920621811"><ele>495.0</ele><time>2026-05-02T16:19:39Z</time></trkpt><trkpt lat="44.76112116715673" lon="9.942292541261919"><ele>494.99999999999994</ele><time>2026-05-02T16:19:42Z</time></trkpt><trkpt lat="44.76107516583627" lon="9.942375089579365"><ele>495.0</ele><time>2026-05-02T16:19:45Z</time></trkpt><trkpt lat="44.76103568182233" lon="9.942462770382352"><ele>494.99999999999994</ele><time>2026-05-02T16:19:48Z</time></trkpt><trkpt lat="44.76100011310506" lon="9.942553922263212"><ele>494.99999999999994</ele><time>2026-05-02T16:19:51Z</time></trkpt><trkpt lat="44.76097101399809" lon="9.942648677015839"><ele>495.0</ele><time>2026-05-02T16:19:54Z</time></trkpt><trkpt lat="44.760954301221126" lon="9.942751313472645"><ele>494.99999999999994</ele><time>2026-05-02T16:19:57Z</time></trkpt><trkpt lat="44.76094931486225" lon="9.942858870723304"><ele>494.99999999999994</ele><time>2026-05-02T16:20:00Z</time></trkpt><trkpt lat="44.76096707038879" lon="9.942968536111827"><ele>494.8333333333333</ele><time>2026-05-02T16:20:02.999Z</time></trkpt><trkpt lat="44.760992772370756" lon="9.943073568302985"><ele>494.66666666666663</ele><time>2026-05-02T16:20:05.999Z</time></trkpt><trkpt lat="44.7610216568922" lon="9.943190143237002"><ele>494.5</ele><time>2026-05-02T16:20:08.999Z</time></trkpt><trkpt lat="44.7610393378922" lon="9.943289287176665"><ele>494.3333333333333</ele><time>2026-05-02T16:20:11.999Z</time></trkpt><trkpt lat="44.7610472063643" lon="9.943395006857111"><ele>494.16666666666663</ele><time>2026-05-02T16:20:14.999Z</time></trkpt><trkpt lat="44.761037435043015" lon="9.943507862975517"><ele>494.0</ele><time>2026-05-02T16:20:17.999Z</time></trkpt><trkpt lat="44.7610220874839" lon="9.943615476464334"><ele>496.28571428571433</ele><time>2026-05-02T16:20:20.999Z</time></trkpt><trkpt lat="44.761003207199835" lon="9.943724509065495"><ele>498.57142857142856</ele><time>2026-05-02T16:20:23.999Z</time></trkpt><trkpt lat="44.76098371971981" lon="9.943809064606134"><ele>500.8571428571429</ele><time>2026-05-02T16:20:25.999Z</time></trkpt><trkpt lat="44.760953733936965" lon="9.943909342545687"><ele>503.14285714285717</ele><time>2026-05-02T16:20:28.999Z</time></trkpt><trkpt lat="44.76090179200939" lon="9.943986031542744"><ele>505.42857142857144</ele><time>2026-05-02T16:20:31.999Z</time></trkpt><trkpt lat="44.76083309769566" lon="9.943998359966132"><ele>507.7142857142857</ele><time>2026-05-02T16:20:34.999Z</time></trkpt><trkpt lat="44.7607715947497" lon="9.943944383879582"><ele>510.0</ele><time>2026-05-02T16:20:37.999Z</time></trkpt><trkpt lat="44.760734998606644" lon="9.943858722119623"><ele>510.0</ele><time>2026-05-02T16:20:40.999Z</time></trkpt><trkpt lat="44.760704266877134" lon="9.943764455359414"><ele>510.0</ele><time>2026-05-02T16:20:43.999Z</time></trkpt><trkpt lat="44.76068044775372" lon="9.943660175083066"><ele>510.0</ele><time>2026-05-02T16:20:46.999Z</time></trkpt><trkpt lat="44.76065526284172" lon="9.943557053994246"><ele>510.0</ele><time>2026-05-02T16:20:49.999Z</time></trkpt><trkpt lat="44.760644296831465" lon="9.943449135552392"><ele>510.0</ele><time>2026-05-02T16:20:53.999Z</time></trkpt><trkpt lat="44.760617997716714" lon="9.943326771041885"><ele>510.0</ele><time>2026-05-02T16:20:56.998Z</time></trkpt><trkpt lat="44.76059336516924" lon="9.943223995776462"><ele>510.8333333333333</ele><time>2026-05-02T16:20:59.998Z</time></trkpt><trkpt lat="44.760560388684624" lon="9.943124332804976"><ele>511.66666666666663</ele><time>2026-05-02T16:21:02.998Z</time></trkpt><trkpt lat="44.76051787667349" lon="9.943032768527273"><ele>512.5</ele><time>2026-05-02T16:21:05.998Z</time></trkpt><trkpt lat="44.76047373827504" lon="9.942938279872482"><ele>513.3333333333333</ele><time>2026-05-02T16:21:08.998Z</time></trkpt><trkpt lat="44.760420096496965" lon="9.942847405070484"><ele>514.1666666666666</ele><time>2026-05-02T16:21:11.998Z</time></trkpt><trkpt lat="44.76036627091484" lon="9.942751509863617"><ele>515.0</ele><time>2026-05-02T16:21:15Z</time></trkpt><trkpt lat="44.760333616855625" lon="9.942666220129466"><ele>514.6666666666666</ele><time>2026-05-02T16:21:18Z</time></trkpt><trkpt lat="44.76031550708057" lon="9.942547736781496"><ele>514.3333333333333</ele><time>2026-05-02T16:21:21Z</time></trkpt><trkpt lat="44.76031791717573" lon="9.942413042218194"><ele>514.0</ele><time>2026-05-02T16:21:24Z</time></trkpt><trkpt lat="44.76032943385851" lon="9.94230705027226"><ele>513.6666666666666</ele><time>2026-05-02T16:21:27Z</time></trkpt><trkpt lat="44.760348417625" lon="9.942189290834142"><ele>513.3333333333334</ele><time>2026-05-02T16:21:30Z</time></trkpt><trkpt lat="44.76036779144149" lon="9.942075474752611"><ele>513.0</ele><time>2026-05-02T16:21:33Z</time></trkpt><trkpt lat="44.76038614515992" lon="9.941979101344268"><ele>513.0</ele><time>2026-05-02T16:21:35Z</time></trkpt><trkpt lat="44.76040463218767" lon="9.941876078973271"><ele>513.0</ele><time>2026-05-02T16:21:38Z</time></trkpt><trkpt lat="44.76042094274597" lon="9.941766835578557"><ele>513.0</ele><time>2026-05-02T16:21:41Z</time></trkpt><trkpt lat="44.76044202091049" lon="9.94166013863674"><ele>513.0</ele><time>2026-05-02T16:21:44Z</time></trkpt><trkpt lat="44.76046067491936" lon="9.94154070968895"><ele>513.0</ele><time>2026-05-02T16:21:47Z</time></trkpt><trkpt lat="44.760479068063184" lon="9.941431996642402"><ele>513.0</ele><time>2026-05-02T16:21:50Z</time></trkpt><trkpt lat="44.76050573392539" lon="9.941327272493304"><ele>513.2857142857143</ele><time>2026-05-02T16:21:53Z</time></trkpt><trkpt lat="44.76052655686556" lon="9.94124276047121"><ele>513.5714285714286</ele><time>2026-05-02T16:21:55Z</time></trkpt><trkpt lat="44.76054947218882" lon="9.941156951053278"><ele>513.8571428571429</ele><time>2026-05-02T16:21:57Z</time></trkpt><trkpt lat="44.76058187161662" lon="9.941071233123875"><ele>514.1428571428571</ele><time>2026-05-02T16:21:59Z</time></trkpt><trkpt lat="44.76063562820289" lon="9.940969553965918"><ele>514.4285714285714</ele><time>2026-05-02T16:22:02Z</time></trkpt><trkpt lat="44.76068109671832" lon="9.940904266113948"><ele>514.7142857142858</ele><time>2026-05-02T16:22:05Z</time></trkpt><trkpt lat="44.76072957771931" lon="9.94082464890369"><ele>515.0</ele><time>2026-05-02T16:22:07.999Z</time></trkpt><trkpt lat="44.76077398596298" lon="9.940740312471823"><ele>516.8333333333333</ele><time>2026-05-02T16:22:10.999Z</time></trkpt><trkpt lat="44.76082769656648" lon="9.940661721087228"><ele>518.6666666666666</ele><time>2026-05-02T16:22:13.999Z</time></trkpt><trkpt lat="44.7608786722653" lon="9.940575470165692"><ele>520.5</ele><time>2026-05-02T16:22:16.999Z</time></trkpt><trkpt lat="44.76093370825345" lon="9.940492345784765"><ele>522.3333333333334</ele><time>2026-05-02T16:22:19.999Z</time></trkpt><trkpt lat="44.76098861800402" lon="9.94040568248371"><ele>524.1666666666667</ele><time>2026-05-02T16:22:22.999Z</time></trkpt><trkpt lat="44.76101899896765" lon="9.940319089103648"><ele>526.0</ele><time>2026-05-02T16:22:25.999Z</time></trkpt><trkpt lat="44.7610243117188" lon="9.940214395222494"><ele>526.0</ele><time>2026-05-02T16:22:28.999Z</time></trkpt><trkpt lat="44.76099445385544" lon="9.94012133632228"><ele>526.0</ele><time>2026-05-02T16:22:31.999Z</time></trkpt><trkpt lat="44.7609329291781" lon="9.940075342546084"><ele>526.0</ele><time>2026-05-02T16:22:34.999Z</time></trkpt><trkpt lat="44.76086190158491" lon="9.940074917475371"><ele>526.0</ele><time>2026-05-02T16:22:37.999Z</time></trkpt><trkpt lat="44.7607799220584" lon="9.940103568627482"><ele>526.0</ele><time>2026-05-02T16:22:40.999Z</time></trkpt><trkpt lat="44.76071825732303" lon="9.940127495613543"><ele>526.0</ele><time>2026-05-02T16:22:43.999Z</time></trkpt><trkpt lat="44.76065403591018" lon="9.9401519390346"><ele>526.0</ele><time>2026-05-02T16:22:46.999Z</time></trkpt><trkpt lat="44.7605847458966" lon="9.940179113634864"><ele>526.0</ele><time>2026-05-02T16:22:49.999Z</time></trkpt><trkpt lat="44.7605088424146" lon="9.940204252684284"><ele>526.0</ele><time>2026-05-02T16:22:52.999Z</time></trkpt><trkpt lat="44.76043222202121" lon="9.940231343941244"><ele>526.0</ele><time>2026-05-02T16:22:55.999Z</time></trkpt><trkpt lat="44.76034614133642" lon="9.940257084949675"><ele>526.0</ele><time>2026-05-02T16:22:58.999Z</time></trkpt><trkpt lat="44.76027872111724" lon="9.940284008275388"><ele>526.0</ele><time>2026-05-02T16:23:01.999Z</time></trkpt><trkpt lat="44.760206793857414" lon="9.940329792299263"><ele>526.0</ele><time>2026-05-02T16:23:04.998Z</time></trkpt><trkpt lat="44.76013987433447" lon="9.94039293731577"><ele>526.8571428571429</ele><time>2026-05-02T16:23:07.998Z</time></trkpt><trkpt lat="44.760086649478104" lon="9.94045713268974"><ele>527.7142857142857</ele><time>2026-05-02T16:23:09.998Z</time></trkpt><trkpt lat="44.76003701271077" lon="9.940528562707883"><ele>528.5714285714286</ele><time>2026-05-02T16:23:12.998Z</time></trkpt><trkpt lat="44.75997681652993" lon="9.940611692002843"><ele>529.4285714285714</ele><time>2026-05-02T16:23:15.998Z</time></trkpt><trkpt lat="44.75993125144364" lon="9.94068057566509"><ele>530.2857142857142</ele><time>2026-05-02T16:23:17.998Z</time></trkpt><trkpt lat="44.759881728441485" lon="9.940762695172388"><ele>531.1428571428571</ele><time>2026-05-02T16:23:21Z</time></trkpt><trkpt lat="44.75983569468846" lon="9.94084163137934"><ele>532.0</ele><time>2026-05-02T16:23:24Z</time></trkpt><trkpt lat="44.75978921365071" lon="9.94090742491057"><ele>532.0</ele><time>2026-05-02T16:23:26Z</time></trkpt><trkpt lat="44.759737925043474" lon="9.940984725602256"><ele>532.0</ele><time>2026-05-02T16:23:29Z</time></trkpt><trkpt lat="44.75969274193413" lon="9.941064366704884"><ele>532.0</ele><time>2026-05-02T16:23:32Z</time></trkpt><trkpt lat="44.75964958523" lon="9.941141086075747"><ele>532.0</ele><time>2026-05-02T16:23:34Z</time></trkpt><trkpt lat="44.75960166696885" lon="9.941222363084828"><ele>532.0</ele><time>2026-05-02T16:23:37Z</time></trkpt><trkpt lat="44.759557821539325" lon="9.941303096161898"><ele>532.0</ele><time>2026-05-02T16:23:40Z</time></trkpt><trkpt lat="44.75951890722" lon="9.941374664830366"><ele>532.0</ele><time>2026-05-02T16:23:42Z</time></trkpt><trkpt lat="44.75948067581329" lon="9.941457114462427"><ele>532.0</ele><time>2026-05-02T16:23:45Z</time></trkpt><trkpt lat="44.759438660641884" lon="9.941544877830008"><ele>532.0</ele><time>2026-05-02T16:23:48Z</time></trkpt><trkpt lat="44.759399415494606" lon="9.941638782407487"><ele>532.0</ele><time>2026-05-02T16:23:51Z</time></trkpt><trkpt lat="44.759350726779466" lon="9.94173258427726"><ele>532.0</ele><time>2026-05-02T16:23:54Z</time></trkpt><trkpt lat="44.75930391229752" lon="9.94182366328541"><ele>532.0</ele><time>2026-05-02T16:23:57Z</time></trkpt><trkpt lat="44.75926478238906" lon="9.941922497732815"><ele>532.0</ele><time>2026-05-02T16:24:00Z</time></trkpt><trkpt lat="44.759222664037374" lon="9.942018227276025"><ele>533.8571428571429</ele><time>2026-05-02T16:24:03Z</time></trkpt><trkpt lat="44.75918188200981" lon="9.942108894788136"><ele>535.7142857142858</ele><time>2026-05-02T16:24:06Z</time></trkpt><trkpt lat="44.75915323270757" lon="9.942199445583162"><ele>537.5714285714286</ele><time>2026-05-02T16:24:09Z</time></trkpt><trkpt lat="44.75913229067305" lon="9.942305875037036"><ele>539.4285714285714</ele><time>2026-05-02T16:24:11.999Z</time></trkpt><trkpt lat="44.759115880689556" lon="9.94240838514208"><ele>541.2857142857143</ele><time>2026-05-02T16:24:14.999Z</time></trkpt><trkpt lat="44.759105479397995" lon="9.942503703883093"><ele>543.1428571428571</ele><time>2026-05-02T16:24:17.999Z</time></trkpt><trkpt lat="44.759103063024625" lon="9.942596204430226"><ele>545.0</ele><time>2026-05-02T16:24:19.999Z</time></trkpt><trkpt lat="44.75910335669914" lon="9.942719446378954"><ele>545.0</ele><time>2026-05-02T16:24:22.999Z</time></trkpt><trkpt lat="44.759107537534476" lon="9.942829112774069"><ele>545.0</ele><time>2026-05-02T16:24:25.999Z</time></trkpt><trkpt lat="44.75908613183755" lon="9.942949962720702"><ele>545.0</ele><time>2026-05-02T16:24:29.999Z</time></trkpt><trkpt lat="44.75902460396354" lon="9.943002631566252"><ele>545.0</ele><time>2026-05-02T16:24:32.999Z</time></trkpt><trkpt lat="44.75896762038657" lon="9.94294192545103"><ele>545.0</ele><time>2026-05-02T16:24:35.999Z</time></trkpt><trkpt lat="44.75895116770846" lon="9.942843306800421"><ele>545.0</ele><time>2026-05-02T16:24:39.999Z</time></trkpt><trkpt lat="44.758938561527124" lon="9.942755883898714"><ele>545.0</ele><time>2026-05-02T16:24:42.999Z</time></trkpt><trkpt lat="44.758922985535776" lon="9.942667705393934"><ele>545.0</ele><time>2026-05-02T16:24:45.999Z</time></trkpt><trkpt lat="44.75890653616658" lon="9.942554931583894"><ele>545.0</ele><time>2026-05-02T16:24:48.999Z</time></trkpt><trkpt lat="44.75890821453718" lon="9.942450674458158"><ele>545.0</ele><time>2026-05-02T16:24:52.999Z</time></trkpt><trkpt lat="44.75889851753961" lon="9.942324884881648"><ele>545.0</ele><time>2026-05-02T16:24:55.999Z</time></trkpt><trkpt lat="44.75889322546643" lon="9.942216503619855"><ele>545.0</ele><time>2026-05-02T16:24:58.999Z</time></trkpt><trkpt lat="44.75890135427375" lon="9.942115324742295"><ele>545.0</ele><time>2026-05-02T16:25:01.999Z</time></trkpt><trkpt lat="44.75890678665033" lon="9.94200596841437"><ele>545.4285714285714</ele><time>2026-05-02T16:25:05.998Z</time></trkpt><trkpt lat="44.75891756685937" lon="9.941909932829777"><ele>545.8571428571429</ele><time>2026-05-02T16:25:08.998Z</time></trkpt><trkpt lat="44.758932381789435" lon="9.941811541033001"><ele>546.2857142857143</ele><time>2026-05-02T16:25:11.998Z</time></trkpt><trkpt lat="44.758942769635105" lon="9.941706498006607"><ele>546.7142857142858</ele><time>2026-05-02T16:25:14.998Z</time></trkpt><trkpt lat="44.758961224248154" lon="9.94161303020006"><ele>547.1428571428571</ele><time>2026-05-02T16:25:17.998Z</time></trkpt><trkpt lat="44.758981091768696" lon="9.941503801986737"><ele>547.5714285714287</ele><time>2026-05-02T16:25:21.998Z</time></trkpt><trkpt lat="44.75900441587652" lon="9.941405633019647"><ele>548.0</ele><time>2026-05-02T16:25:24.998Z</time></trkpt><trkpt lat="44.75902447694542" lon="9.941299047602703"><ele>549.1428571428572</ele><time>2026-05-02T16:25:28Z</time></trkpt><trkpt lat="44.75903956486513" lon="9.941186412896254"><ele>550.2857142857143</ele><time>2026-05-02T16:25:32Z</time></trkpt><trkpt lat="44.75905414477525" lon="9.941085210187365"><ele>551.4285714285714</ele><time>2026-05-02T16:25:35Z</time></trkpt><trkpt lat="44.759069352738635" lon="9.94096863929824"><ele>552.5714285714287</ele><time>2026-05-02T16:25:38Z</time></trkpt><trkpt lat="44.759072799230694" lon="9.940878625304697"><ele>553.7142857142858</ele><time>2026-05-02T16:25:41Z</time></trkpt><trkpt lat="44.75906914204569" lon="9.940787617262037"><ele>554.8571428571429</ele><time>2026-05-02T16:25:44Z</time></trkpt><trkpt lat="44.75906388626137" lon="9.940683427885192"><ele>556.0</ele><time>2026-05-02T16:25:47Z</time></trkpt><trkpt lat="44.759046951152165" lon="9.940580976789809"><ele>557.2857142857142</ele><time>2026-05-02T16:25:50Z</time></trkpt><trkpt lat="44.75902031647308" lon="9.94045881067899"><ele>558.5714285714286</ele><time>2026-05-02T16:25:53Z</time></trkpt><trkpt lat="44.75901312165787" lon="9.940357175842518"><ele>559.8571428571429</ele><time>2026-05-02T16:25:56Z</time></trkpt><trkpt lat="44.75902469464875" lon="9.940263107246555"><ele>561.1428571428571</ele><time>2026-05-02T16:25:59Z</time></trkpt><trkpt lat="44.75905233257874" lon="9.940175014081063"><ele>562.4285714285714</ele><time>2026-05-02T16:26:02Z</time></trkpt><trkpt lat="44.75908544895855" lon="9.940089005707994"><ele>563.7142857142857</ele><time>2026-05-02T16:26:05Z</time></trkpt><trkpt lat="44.759123720428455" lon="9.940005413707162"><ele>565.0</ele><time>2026-05-02T16:26:08Z</time></trkpt><trkpt lat="44.759163810342635" lon="9.939914568534055"><ele>565.5714285714286</ele><time>2026-05-02T16:26:11Z</time></trkpt><trkpt lat="44.75919743968072" lon="9.939794074893383"><ele>566.1428571428571</ele><time>2026-05-02T16:26:14Z</time></trkpt><trkpt lat="44.75920570922312" lon="9.939689872871712"><ele>566.7142857142858</ele><time>2026-05-02T16:26:16.999Z</time></trkpt><trkpt lat="44.75920607164003" lon="9.939599308462197"><ele>567.2857142857142</ele><time>2026-05-02T16:26:19.999Z</time></trkpt><trkpt lat="44.7591988288454" lon="9.939499491951612"><ele>567.8571428571429</ele><time>2026-05-02T16:26:22.999Z</time></trkpt><trkpt lat="44.759180784678776" lon="9.939402472238893"><ele>568.4285714285714</ele><time>2026-05-02T16:26:25.999Z</time></trkpt><trkpt lat="44.75915630769421" lon="9.939304181224236"><ele>569.0</ele><time>2026-05-02T16:26:28.999Z</time></trkpt><trkpt lat="44.75912534142643" lon="9.93921204921074"><ele>569.0000000000001</ele><time>2026-05-02T16:26:31.999Z</time></trkpt><trkpt lat="44.75908676704144" lon="9.939119473860105"><ele>569.0</ele><time>2026-05-02T16:26:34.999Z</time></trkpt><trkpt lat="44.75904404302859" lon="9.939026486050574"><ele>569.0</ele><time>2026-05-02T16:26:37.999Z</time></trkpt><trkpt lat="44.758984359707746" lon="9.938962520613048"><ele>569.0</ele><time>2026-05-02T16:26:40.999Z</time></trkpt><trkpt lat="44.75892174334776" lon="9.93891313217233"><ele>569.0</ele><time>2026-05-02T16:26:43.999Z</time></trkpt><trkpt lat="44.75885007720986" lon="9.938887819391132"><ele>569.0000000000001</ele><time>2026-05-02T16:26:46.999Z</time></trkpt><trkpt lat="44.758786811800626" lon="9.938870845288934"><ele>569.0</ele><time>2026-05-02T16:26:49.999Z</time></trkpt><trkpt lat="44.758709110987134" lon="9.93886111843835"><ele>569.0</ele><time>2026-05-02T16:26:52.999Z</time></trkpt><trkpt lat="44.75863298428298" lon="9.938864944835643"><ele>569.0</ele><time>2026-05-02T16:26:55.999Z</time></trkpt><trkpt lat="44.758557427301874" lon="9.938858387762052"><ele>569.0</ele><time>2026-05-02T16:26:58.999Z</time></trkpt><trkpt lat="44.758484607524146" lon="9.9388389194729"><ele>569.0</ele><time>2026-05-02T16:27:01.999Z</time></trkpt><trkpt lat="44.75841463632311" lon="9.93879241522987"><ele>569.0</ele><time>2026-05-02T16:27:04.999Z</time></trkpt><trkpt lat="44.75835710329689" lon="9.938708338221119"><ele>569.0</ele><time>2026-05-02T16:27:07.999Z</time></trkpt><trkpt lat="44.758322578460415" lon="9.938609461130731"><ele>571.2857142857143</ele><time>2026-05-02T16:27:10.998Z</time></trkpt><trkpt lat="44.75830340886186" lon="9.938511789463375"><ele>573.5714285714286</ele><time>2026-05-02T16:27:13.998Z</time></trkpt><trkpt lat="44.758295733776045" lon="9.938423567310474"><ele>575.8571428571429</ele><time>2026-05-02T16:27:15.998Z</time></trkpt><trkpt lat="44.75828422667109" lon="9.938316907002516"><ele>578.1428571428571</ele><time>2026-05-02T16:27:18.998Z</time></trkpt><trkpt lat="44.75826391194814" lon="9.938215164390922"><ele>580.4285714285714</ele><time>2026-05-02T16:27:21.998Z</time></trkpt><trkpt lat="44.75823247078255" lon="9.938128261448433"><ele>582.7142857142858</ele><time>2026-05-02T16:27:24.998Z</time></trkpt><trkpt lat="44.758188864930865" lon="9.938045392960817"><ele>585.0</ele><time>2026-05-02T16:27:27.998Z</time></trkpt><trkpt lat="44.75813493393184" lon="9.937969608138147"><ele>585.0</ele><time>2026-05-02T16:27:30.998Z</time></trkpt><trkpt lat="44.758080065993575" lon="9.937894357773132"><ele>585.0</ele><time>2026-05-02T16:27:34Z</time></trkpt><trkpt lat="44.758042655131916" lon="9.937807636404733"><ele>585.0</ele><time>2026-05-02T16:27:37Z</time></trkpt><trkpt lat="44.758015634454146" lon="9.937713871886439"><ele>585.0</ele><time>2026-05-02T16:27:40Z</time></trkpt><trkpt lat="44.757989514860824" lon="9.937611915374353"><ele>585.0</ele><time>2026-05-02T16:27:43Z</time></trkpt><trkpt lat="44.757973111865866" lon="9.937508700177498"><ele>585.0</ele><time>2026-05-02T16:27:46Z</time></trkpt><trkpt lat="44.757961469128624" lon="9.937397713208513"><ele>584.5</ele><time>2026-05-02T16:27:49Z</time></trkpt><trkpt lat="44.757960785865485" lon="9.937281100867798"><ele>584.0</ele><time>2026-05-02T16:27:52Z</time></trkpt><trkpt lat="44.75796974481656" lon="9.937152666347302"><ele>583.5</ele><time>2026-05-02T16:27:55Z</time></trkpt><trkpt lat="44.757971052629614" lon="9.937056842014181"><ele>583.0</ele><time>2026-05-02T16:27:58Z</time></trkpt><trkpt lat="44.757993513068755" lon="9.936936690064572"><ele>582.5</ele><time>2026-05-02T16:28:01Z</time></trkpt><trkpt lat="44.75802159544268" lon="9.93683611923236"><ele>582.0</ele><time>2026-05-02T16:28:04Z</time></trkpt><trkpt lat="44.75806310904621" lon="9.936747237344445"><ele>583.0</ele><time>2026-05-02T16:28:07Z</time></trkpt><trkpt lat="44.758109987137686" lon="9.936648517209335"><ele>584.0</ele><time>2026-05-02T16:28:10Z</time></trkpt><trkpt lat="44.75816085898949" lon="9.936574685842839"><ele>585.0</ele><time>2026-05-02T16:28:13Z</time></trkpt><trkpt lat="44.758228962829804" lon="9.936507826367274"><ele>586.0</ele><time>2026-05-02T16:28:16Z</time></trkpt><trkpt lat="44.75829502568232" lon="9.93646128150483"><ele>587.0</ele><time>2026-05-02T16:28:19Z</time></trkpt><trkpt lat="44.7583550350874" lon="9.936394091438443"><ele>588.0</ele><time>2026-05-02T16:28:21.999Z</time></trkpt><trkpt lat="44.758385025343124" lon="9.93630249532344"><ele>588.0</ele><time>2026-05-02T16:28:24.999Z</time></trkpt><trkpt lat="44.75838220000264" lon="9.936189798500221"><ele>588.0</ele><time>2026-05-02T16:28:28.999Z</time></trkpt><trkpt lat="44.75834171270764" lon="9.936115426684728"><ele>588.0</ele><time>2026-05-02T16:28:31.999Z</time></trkpt><trkpt lat="44.75828258353122" lon="9.936063801952743"><ele>588.0</ele><time>2026-05-02T16:28:34.999Z</time></trkpt><trkpt lat="44.7582150799207" lon="9.93603053509613"><ele>588.0</ele><time>2026-05-02T16:28:37.999Z</time></trkpt><trkpt lat="44.75814804100117" lon="9.936010538697714"><ele>588.0</ele><time>2026-05-02T16:28:40.999Z</time></trkpt><trkpt lat="44.758084617646915" lon="9.935993124701021"><ele>588.0</ele><time>2026-05-02T16:28:43.999Z</time></trkpt><trkpt lat="44.758018133178076" lon="9.935987281551757"><ele>588.0</ele><time>2026-05-02T16:28:46.999Z</time></trkpt><trkpt lat="44.75794848925719" lon="9.935989269494065"><ele>588.0</ele><time>2026-05-02T16:28:49.999Z</time></trkpt><trkpt lat="44.75788275183009" lon="9.936018499182019"><ele>588.0</ele><time>2026-05-02T16:28:52.999Z</time></trkpt><trkpt lat="44.75782111787174" lon="9.93606933668627"><ele>588.0</ele><time>2026-05-02T16:28:55.999Z</time></trkpt><trkpt lat="44.75776159107284" lon="9.93613326918079"><ele>588.0</ele><time>2026-05-02T16:28:58.999Z</time></trkpt><trkpt lat="44.75770821949279" lon="9.936196641725614"><ele>588.0</ele><time>2026-05-02T16:29:00.999Z</time></trkpt><trkpt lat="44.75765392233274" lon="9.93629222440646"><ele>588.0</ele><time>2026-05-02T16:29:03.999Z</time></trkpt><trkpt lat="44.75760661533047" lon="9.936388029731425"><ele>591.1666666666666</ele><time>2026-05-02T16:29:07.999Z</time></trkpt><trkpt lat="44.75756404225186" lon="9.936480721286868"><ele>594.3333333333334</ele><time>2026-05-02T16:29:10.999Z</time></trkpt><trkpt lat="44.75752200298124" lon="9.936590650176637"><ele>597.5</ele><time>2026-05-02T16:29:13.999Z</time></trkpt><trkpt lat="44.75748608827498" lon="9.93668415146196"><ele>600.6666666666667</ele><time>2026-05-02T16:29:16.998Z</time></trkpt><trkpt lat="44.75745270862328" lon="9.936776042213943"><ele>603.8333333333334</ele><time>2026-05-02T16:29:19.998Z</time></trkpt><trkpt lat="44.757423874310696" lon="9.93687194923365"><ele>607.0</ele><time>2026-05-02T16:29:21.998Z</time></trkpt><trkpt lat="44.75739410725629" lon="9.93696881511399"><ele>607.0</ele><time>2026-05-02T16:29:24.998Z</time></trkpt><trkpt lat="44.757355479561866" lon="9.937077552055628"><ele>607.0</ele><time>2026-05-02T16:29:27.998Z</time></trkpt><trkpt lat="44.75732570814932" lon="9.937169588306563"><ele>607.0</ele><time>2026-05-02T16:29:30.998Z</time></trkpt><trkpt lat="44.757288380708275" lon="9.937290523082735"><ele>607.0</ele><time>2026-05-02T16:29:33.998Z</time></trkpt><trkpt lat="44.757254740162125" lon="9.937383133276024"><ele>607.0</ele><time>2026-05-02T16:29:36.998Z</time></trkpt><trkpt lat="44.757215754332826" lon="9.937490461919948"><ele>607.0</ele><time>2026-05-02T16:29:40Z</time></trkpt><trkpt lat="44.75718310754993" lon="9.937601543127062"><ele>608.0</ele><time>2026-05-02T16:29:43Z</time></trkpt><trkpt lat="44.7571662964147" lon="9.93773292545332"><ele>609.0</ele><time>2026-05-02T16:29:46Z</time></trkpt><trkpt lat="44.75717377615089" lon="9.937853649271688"><ele>610.0</ele><time>2026-05-02T16:29:49Z</time></trkpt><trkpt lat="44.757191665038974" lon="9.937964533845225"><ele>611.0</ele><time>2026-05-02T16:29:52Z</time></trkpt><trkpt lat="44.75722335073519" lon="9.938058675668103"><ele>612.0</ele><time>2026-05-02T16:29:54Z</time></trkpt><trkpt lat="44.75728106291291" lon="9.938153649452296"><ele>613.0</ele><time>2026-05-02T16:29:57Z</time></trkpt><trkpt lat="44.757342105973805" lon="9.9382331242404"><ele>613.0</ele><time>2026-05-02T16:30:00Z</time></trkpt><trkpt lat="44.75741146853853" lon="9.938309585662354"><ele>613.0</ele><time>2026-05-02T16:30:03Z</time></trkpt><trkpt lat="44.75747838977928" lon="9.938381642621959"><ele>613.0</ele><time>2026-05-02T16:30:06Z</time></trkpt><trkpt lat="44.75753259847387" lon="9.9384493299575"><ele>613.0</ele><time>2026-05-02T16:30:08Z</time></trkpt><trkpt lat="44.757580134640484" lon="9.938545860418262"><ele>613.0</ele><time>2026-05-02T16:30:11Z</time></trkpt><trkpt lat="44.75759991536158" lon="9.938661937463241"><ele>613.0</ele><time>2026-05-02T16:30:14Z</time></trkpt><trkpt lat="44.757592635288916" lon="9.938782482383333"><ele>612.7142857142858</ele><time>2026-05-02T16:30:17Z</time></trkpt><trkpt lat="44.75756161031118" lon="9.938870014521996"><ele>612.4285714285714</ele><time>2026-05-02T16:30:20Z</time></trkpt><trkpt lat="44.75751353268749" lon="9.938946062045533"><ele>612.1428571428571</ele><time>2026-05-02T16:30:23Z</time></trkpt><trkpt lat="44.757456804738815" lon="9.939009658030567"><ele>611.8571428571429</ele><time>2026-05-02T16:30:25.999Z</time></trkpt><trkpt lat="44.7573852403367" lon="9.939022351008868"><ele>611.5714285714286</ele><time>2026-05-02T16:30:27.999Z</time></trkpt><trkpt lat="44.757303345288385" lon="9.939003920095839"><ele>611.2857142857143</ele><time>2026-05-02T16:30:30.999Z</time></trkpt><trkpt lat="44.75722986941806" lon="9.938961143840467"><ele>611.0</ele><time>2026-05-02T16:30:33.999Z</time></trkpt><trkpt lat="44.75716366375156" lon="9.93890444750329"><ele>611.0</ele><time>2026-05-02T16:30:36.999Z</time></trkpt><trkpt lat="44.75710824554927" lon="9.938827385956829"><ele>611.0</ele><time>2026-05-02T16:30:39.999Z</time></trkpt><trkpt lat="44.757066329315464" lon="9.938735711910516"><ele>611.0</ele><time>2026-05-02T16:30:42.999Z</time></trkpt><trkpt lat="44.75703990417372" lon="9.938621419923319"><ele>611.0</ele><time>2026-05-02T16:30:46.999Z</time></trkpt><trkpt lat="44.75701747741123" lon="9.938517316503567"><ele>611.0</ele><time>2026-05-02T16:30:49.999Z</time></trkpt><trkpt lat="44.7569977604771" lon="9.938405858095052"><ele>611.0</ele><time>2026-05-02T16:30:52.999Z</time></trkpt><trkpt lat="44.756981233733114" lon="9.93828752717519"><ele>611.2857142857143</ele><time>2026-05-02T16:30:55.999Z</time></trkpt><trkpt lat="44.756968211217725" lon="9.938187997058275"><ele>611.5714285714286</ele><time>2026-05-02T16:30:58.999Z</time></trkpt><trkpt lat="44.756956395500744" lon="9.938076422640322"><ele>611.8571428571429</ele><time>2026-05-02T16:31:00.999Z</time></trkpt><trkpt lat="44.7569371421567" lon="9.937981028763234"><ele>612.1428571428571</ele><time>2026-05-02T16:31:03.999Z</time></trkpt><trkpt lat="44.75691736407433" lon="9.937888297788458"><ele>612.4285714285714</ele><time>2026-05-02T16:31:05.999Z</time></trkpt><trkpt lat="44.756897551649125" lon="9.937793867097653"><ele>612.7142857142858</ele><time>2026-05-02T16:31:08.999Z</time></trkpt><trkpt lat="44.7568794556972" lon="9.937693116969166"><ele>613.0</ele><time>2026-05-02T16:31:11.999Z</time></trkpt><trkpt lat="44.75686577459456" lon="9.937597642641817"><ele>614.0</ele><time>2026-05-02T16:31:13.999Z</time></trkpt><trkpt lat="44.75684815567308" lon="9.937501620868819"><ele>615.0</ele><time>2026-05-02T16:31:16.999Z</time></trkpt><trkpt lat="44.75684042951707" lon="9.937402553739721"><ele>616.0</ele><time>2026-05-02T16:31:19.999Z</time></trkpt><trkpt lat="44.75683232961978" lon="9.937299933788674"><ele>617.0</ele><time>2026-05-02T16:31:22.998Z</time></trkpt><trkpt lat="44.75683374082263" lon="9.937189073403953"><ele>618.0</ele><time>2026-05-02T16:31:25.998Z</time></trkpt><trkpt lat="44.75684106766997" lon="9.9370771834445"><ele>619.0</ele><time>2026-05-02T16:31:28.998Z</time></trkpt><trkpt lat="44.75685024750147" lon="9.936972549844034"><ele>620.0</ele><time>2026-05-02T16:31:31.998Z</time></trkpt><trkpt lat="44.75681965487968" lon="9.936884202442489"><ele>620.0</ele><time>2026-05-02T16:31:35.998Z</time></trkpt><trkpt lat="44.75680289098343" lon="9.936795904155156"><ele>620.0</ele><time>2026-05-02T16:32:15Z</time></trkpt><trkpt lat="44.7567966240645" lon="9.936898540218895"><ele>620.0</ele><time>2026-05-02T16:34:02Z</time></trkpt><trkpt lat="44.75678804458876" lon="9.936990349386646"><ele>620.0</ele><time>2026-05-02T16:34:04Z</time></trkpt><trkpt lat="44.756776079357024" lon="9.937093217187543"><ele>620.0</ele><time>2026-05-02T16:34:06Z</time></trkpt><trkpt lat="44.75676977218004" lon="9.937210105876265"><ele>620.0</ele><time>2026-05-02T16:34:08Z</time></trkpt><trkpt lat="44.75678055962625" lon="9.937343516803672"><ele>620.0</ele><time>2026-05-02T16:34:10Z</time></trkpt><trkpt lat="44.756807887353716" lon="9.937476419806794"><ele>620.0</ele><time>2026-05-02T16:34:12Z</time></trkpt><trkpt lat="44.75682925085024" lon="9.937611919299272"><ele>620.0</ele><time>2026-05-02T16:34:14Z</time></trkpt><trkpt lat="44.756851107322085" lon="9.937750334466722"><ele>620.0</ele><time>2026-05-02T16:34:16Z</time></trkpt><trkpt lat="44.75687213836551" lon="9.937895256487105"><ele>620.0</ele><time>2026-05-02T16:34:18Z</time></trkpt><trkpt lat="44.75689074609959" lon="9.93804768072979"><ele>618.8333333333333</ele><time>2026-05-02T16:34:20Z</time></trkpt><trkpt lat="44.756916028714606" lon="9.938210092974776"><ele>617.6666666666666</ele><time>2026-05-02T16:34:22Z</time></trkpt><trkpt lat="44.75694050132389" lon="9.93837357353179"><ele>616.5</ele><time>2026-05-02T16:34:24Z</time></trkpt><trkpt lat="44.75695220397434" lon="9.938464255843652"><ele>615.3333333333334</ele><time>2026-05-02T16:34:25Z</time></trkpt><trkpt lat="44.75696625999339" lon="9.938558429875393"><ele>614.1666666666667</ele><time>2026-05-02T16:34:26Z</time></trkpt><trkpt lat="44.75698655910776" lon="9.938652786814398"><ele>613.0</ele><time>2026-05-02T16:34:27Z</time></trkpt><trkpt lat="44.75701636570294" lon="9.938750058151042"><ele>612.6666666666667</ele><time>2026-05-02T16:34:28Z</time></trkpt><trkpt lat="44.75705787765902" lon="9.938841135630696"><ele>612.3333333333334</ele><time>2026-05-02T16:34:29Z</time></trkpt><trkpt lat="44.75711494057017" lon="9.938920922417157"><ele>612.0</ele><time>2026-05-02T16:34:30Z</time></trkpt><trkpt lat="44.75718096285866" lon="9.938985491045672"><ele>611.6666666666666</ele><time>2026-05-02T16:34:31Z</time></trkpt><trkpt lat="44.75725244429356" lon="9.939028276028589"><ele>611.3333333333333</ele><time>2026-05-02T16:34:32Z</time></trkpt><trkpt lat="44.757328971455905" lon="9.939054988939292"><ele>611.0</ele><time>2026-05-02T16:34:33Z</time></trkpt><trkpt lat="44.757409399136435" lon="9.93905486720571"><ele>611.0</ele><time>2026-05-02T16:34:33.999Z</time></trkpt><trkpt lat="44.7574906794885" lon="9.93905537487331"><ele>611.0</ele><time>2026-05-02T16:34:34.999Z</time></trkpt><trkpt lat="44.7575654932197" lon="9.938992145300368"><ele>611.0</ele><time>2026-05-02T16:34:35.999Z</time></trkpt><trkpt lat="44.75760905987626" lon="9.938881543012176"><ele>611.0</ele><time>2026-05-02T16:34:36.999Z</time></trkpt><trkpt lat="44.75764314853571" lon="9.938764777249405"><ele>611.0</ele><time>2026-05-02T16:34:37.999Z</time></trkpt><trkpt lat="44.75765093482454" lon="9.9386461112059"><ele>611.0</ele><time>2026-05-02T16:34:38.999Z</time></trkpt><trkpt lat="44.75763005651488" lon="9.938535771281686"><ele>611.0</ele><time>2026-05-02T16:34:39.999Z</time></trkpt><trkpt lat="44.757585934848336" lon="9.938432131624102"><ele>611.0</ele><time>2026-05-02T16:34:40.999Z</time></trkpt><trkpt lat="44.75752300010448" lon="9.9383459309532"><ele>611.0</ele><time>2026-05-02T16:34:41.999Z</time></trkpt><trkpt lat="44.75744984015089" lon="9.938281380936528"><ele>611.0</ele><time>2026-05-02T16:34:42.999Z</time></trkpt><trkpt lat="44.75737531198335" lon="9.938222741591257"><ele>611.0</ele><time>2026-05-02T16:34:43.999Z</time></trkpt><trkpt lat="44.75730395655944" lon="9.938152280588325"><ele>611.0</ele><time>2026-05-02T16:34:44.999Z</time></trkpt><trkpt lat="44.75724485989816" lon="9.938061496439978"><ele>611.3333333333333</ele><time>2026-05-02T16:34:45.999Z</time></trkpt><trkpt lat="44.75720530764405" lon="9.937958005835675"><ele>611.6666666666666</ele><time>2026-05-02T16:34:46.999Z</time></trkpt><trkpt lat="44.75718334513724" lon="9.937848805786002"><ele>612.0</ele><time>2026-05-02T16:34:47.999Z</time></trkpt><trkpt lat="44.757185063773356" lon="9.937729779156447"><ele>612.3333333333334</ele><time>2026-05-02T16:34:48.999Z</time></trkpt><trkpt lat="44.757200090507425" lon="9.93760581500348"><ele>612.6666666666667</ele><time>2026-05-02T16:34:49.999Z</time></trkpt><trkpt lat="44.757233447775086" lon="9.937489687430062"><ele>613.0</ele><time>2026-05-02T16:34:50.999Z</time></trkpt><trkpt lat="44.757277120698326" lon="9.937382207097954"><ele>611.8</ele><time>2026-05-02T16:34:51.999Z</time></trkpt><trkpt lat="44.757317466079066" lon="9.937271478011985"><ele>610.5999999999999</ele><time>2026-05-02T16:34:52.999Z</time></trkpt><trkpt lat="44.75735699089411" lon="9.937156298615657"><ele>609.4000000000001</ele><time>2026-05-02T16:34:53.999Z</time></trkpt><trkpt lat="44.757397806625455" lon="9.937038597363031"><ele>608.2</ele><time>2026-05-02T16:34:54.999Z</time></trkpt><trkpt lat="44.75743777015643" lon="9.936920933519376"><ele>607.0</ele><time>2026-05-02T16:34:55.999Z</time></trkpt><trkpt lat="44.75747985891301" lon="9.93679936618552"><ele>608.0</ele><time>2026-05-02T16:34:56.999Z</time></trkpt><trkpt lat="44.75752060649167" lon="9.936676760066907"><ele>609.0</ele><time>2026-05-02T16:34:57.999Z</time></trkpt><trkpt lat="44.757565894313714" lon="9.936556735763745"><ele>610.0</ele><time>2026-05-02T16:34:58.999Z</time></trkpt><trkpt lat="44.75761339537109" lon="9.936436875337657"><ele>611.0</ele><time>2026-05-02T16:34:59.999Z</time></trkpt><trkpt lat="44.757663816902074" lon="9.9363172883537"><ele>612.0</ele><time>2026-05-02T16:35:00.999Z</time></trkpt><trkpt lat="44.757725296554185" lon="9.93620592259352"><ele>607.2</ele><time>2026-05-02T16:35:01.999Z</time></trkpt><trkpt lat="44.757796301539464" lon="9.936104984081023"><ele>602.4000000000001</ele><time>2026-05-02T16:35:02.999Z</time></trkpt><trkpt lat="44.75787536104764" lon="9.936031688401535"><ele>597.5999999999999</ele><time>2026-05-02T16:35:03.999Z</time></trkpt><trkpt lat="44.7579624764435" lon="9.935995799721496"><ele>592.8</ele><time>2026-05-02T16:35:04.999Z</time></trkpt><trkpt lat="44.75805404327908" lon="9.935993377827007"><ele>588.0</ele><time>2026-05-02T16:35:05.999Z</time></trkpt><trkpt lat="44.75814885219021" lon="9.936014611121111"><ele>588.0</ele><time>2026-05-02T16:35:06.999Z</time></trkpt><trkpt lat="44.758232213951494" lon="9.936064534333736"><ele>588.0</ele><time>2026-05-02T16:35:07.999Z</time></trkpt><trkpt lat="44.75830239206691" lon="9.936105459768402"><ele>588.0</ele><time>2026-05-02T16:35:08.999Z</time></trkpt><trkpt lat="44.758369314118795" lon="9.936235007939395"><ele>588.0</ele><time>2026-05-02T16:35:10.999Z</time></trkpt><trkpt lat="44.75836439969856" lon="9.936327251562345"><ele>588.0</ele><time>2026-05-02T16:35:11.999Z</time></trkpt><trkpt lat="44.75830054247708" lon="9.936406418681216"><ele>588.0</ele><time>2026-05-02T16:35:12.999Z</time></trkpt><trkpt lat="44.75822068486133" lon="9.936450373344723"><ele>588.0</ele><time>2026-05-02T16:35:13.999Z</time></trkpt><trkpt lat="44.75814609295388" lon="9.936500279854803"><ele>588.0</ele><time>2026-05-02T16:35:14.999Z</time></trkpt><trkpt lat="44.75808488755376" lon="9.936588381266594"><ele>588.0</ele><time>2026-05-02T16:35:15.999Z</time></trkpt><trkpt lat="44.75803211083703" lon="9.936696707907169"><ele>588.0</ele><time>2026-05-02T16:35:16.999Z</time></trkpt><trkpt lat="44.75798423045111" lon="9.93681211071717"><ele>588.0</ele><time>2026-05-02T16:35:17.999Z</time></trkpt><trkpt lat="44.75794698434128" lon="9.936937338260961"><ele>587.4</ele><time>2026-05-02T16:35:18.999Z</time></trkpt><trkpt lat="44.757924007934676" lon="9.937069525147146"><ele>586.8</ele><time>2026-05-02T16:35:19.999Z</time></trkpt><trkpt lat="44.75790171441717" lon="9.937207203468908"><ele>586.2</ele><time>2026-05-02T16:35:20.999Z</time></trkpt><trkpt lat="44.75789045175203" lon="9.937349545020243"><ele>585.6</ele><time>2026-05-02T16:35:21.999Z</time></trkpt><trkpt lat="44.75789756823793" lon="9.937495829149533"><ele>585.0</ele><time>2026-05-02T16:35:22.999Z</time></trkpt><trkpt lat="44.7579198102004" lon="9.937641330292944"><ele>585.0</ele><time>2026-05-02T16:35:23.999Z</time></trkpt><trkpt lat="44.757960604249796" lon="9.937779907598681"><ele>585.0</ele><time>2026-05-02T16:35:24.999Z</time></trkpt><trkpt lat="44.75802363775622" lon="9.9378993273219"><ele>585.0</ele><time>2026-05-02T16:35:25.999Z</time></trkpt><trkpt lat="44.75810113687501" lon="9.938002675963652"><ele>585.0</ele><time>2026-05-02T16:35:26.998Z</time></trkpt><trkpt lat="44.75816967613878" lon="9.93811264632002"><ele>585.0</ele><time>2026-05-02T16:35:27.998Z</time></trkpt><trkpt lat="44.75821413874619" lon="9.938241512731297"><ele>585.0</ele><time>2026-05-02T16:35:28.998Z</time></trkpt><trkpt lat="44.75823527679067" lon="9.9383842542457"><ele>585.0</ele><time>2026-05-02T16:35:29.998Z</time></trkpt><trkpt lat="44.758249390286636" lon="9.938527162409699"><ele>585.0</ele><time>2026-05-02T16:35:30.998Z</time></trkpt><trkpt lat="44.75827288191038" lon="9.938658528750413"><ele>585.0</ele><time>2026-05-02T16:35:31.998Z</time></trkpt><trkpt lat="44.75832405411671" lon="9.938768164728588"><ele>585.0</ele><time>2026-05-02T16:35:32.998Z</time></trkpt><trkpt lat="44.75839986679464" lon="9.938850594846762"><ele>586.4</ele><time>2026-05-02T16:35:33.998Z</time></trkpt><trkpt lat="44.75849140986034" lon="9.938893808995951"><ele>587.8</ele><time>2026-05-02T16:35:34.998Z</time></trkpt><trkpt lat="44.75859087157839" lon="9.938905555941602"><ele>589.2</ele><time>2026-05-02T16:35:35.998Z</time></trkpt><trkpt lat="44.758692153100945" lon="9.938905461075905"><ele>590.6</ele><time>2026-05-02T16:35:36.998Z</time></trkpt><trkpt lat="44.75879422462706" lon="9.938906629645373"><ele>592.0</ele><time>2026-05-02T16:35:37.998Z</time></trkpt><trkpt lat="44.75889070694906" lon="9.938933410283225"><ele>587.6</ele><time>2026-05-02T16:35:38.998Z</time></trkpt><trkpt lat="44.758979310872164" lon="9.939001138892841"><ele>583.2</ele><time>2026-05-02T16:35:39.998Z</time></trkpt><trkpt lat="44.75904954242629" lon="9.939100522728447"><ele>578.8</ele><time>2026-05-02T16:35:40.998Z</time></trkpt><trkpt lat="44.75910154733729" lon="9.9392308897995"><ele>574.4</ele><time>2026-05-02T16:35:41.998Z</time></trkpt><trkpt lat="44.759137347517246" lon="9.939374010940575"><ele>570.0</ele><time>2026-05-02T16:35:42.998Z</time></trkpt><trkpt lat="44.759159909213615" lon="9.939518614608854"><ele>570.0</ele><time>2026-05-02T16:35:43.998Z</time></trkpt><trkpt lat="44.759170697061776" lon="9.939667453863677"><ele>570.0</ele><time>2026-05-02T16:35:44.998Z</time></trkpt><trkpt lat="44.75914206637503" lon="9.939810887444496"><ele>570.0</ele><time>2026-05-02T16:35:45.998Z</time></trkpt><trkpt lat="44.75908775998491" lon="9.9399260054875"><ele>570.0</ele><time>2026-05-02T16:35:46.998Z</time></trkpt><trkpt lat="44.75902600598171" lon="9.94003860524672"><ele>570.0</ele><time>2026-05-02T16:35:47.998Z</time></trkpt><trkpt lat="44.75896758216226" lon="9.94016237901299"><ele>569.0</ele><time>2026-05-02T16:35:48.998Z</time></trkpt><trkpt lat="44.758945433885586" lon="9.940316481702732"><ele>568.0</ele><time>2026-05-02T16:35:49.998Z</time></trkpt><trkpt lat="44.75897630285338" lon="9.940465551761092"><ele>567.0</ele><time>2026-05-02T16:35:50.998Z</time></trkpt><trkpt lat="44.75900875285129" lon="9.940606058371793"><ele>566.0</ele><time>2026-05-02T16:35:51.998Z</time></trkpt><trkpt lat="44.759034774859536" lon="9.940748518283062"><ele>565.0</ele><time>2026-05-02T16:35:52.998Z</time></trkpt><trkpt lat="44.75903317960209" lon="9.940899700833766"><ele>563.2</ele><time>2026-05-02T16:35:53.998Z</time></trkpt><trkpt lat="44.75901556741365" lon="9.94105253029232"><ele>561.4</ele><time>2026-05-02T16:35:55Z</time></trkpt><trkpt lat="44.75898774754929" lon="9.941202966816835"><ele>559.6</ele><time>2026-05-02T16:35:56Z</time></trkpt><trkpt lat="44.75896094005533" lon="9.94135749224257"><ele>557.8</ele><time>2026-05-02T16:35:57Z</time></trkpt><trkpt lat="44.75893358566289" lon="9.941510443261173"><ele>556.0</ele><time>2026-05-02T16:35:58Z</time></trkpt><trkpt lat="44.75890010432978" lon="9.941662961224402"><ele>554.0</ele><time>2026-05-02T16:35:59Z</time></trkpt><trkpt lat="44.758867081746985" lon="9.941818609703107"><ele>552.0</ele><time>2026-05-02T16:36:00Z</time></trkpt><trkpt lat="44.75883548595575" lon="9.941974041519961"><ele>550.0</ele><time>2026-05-02T16:36:01Z</time></trkpt><trkpt lat="44.75883613865434" lon="9.942143418427449"><ele>548.0</ele><time>2026-05-02T16:36:02Z</time></trkpt><trkpt lat="44.75884017822003" lon="9.94231174495752"><ele>548.0</ele><time>2026-05-02T16:36:03Z</time></trkpt><trkpt lat="44.758855351455864" lon="9.9424796575449"><ele>548.0</ele><time>2026-05-02T16:36:04Z</time></trkpt><trkpt lat="44.75888191272775" lon="9.942641881755423"><ele>548.0</ele><time>2026-05-02T16:36:05Z</time></trkpt><trkpt lat="44.75891239990637" lon="9.942791490625844"><ele>548.0</ele><time>2026-05-02T16:36:06Z</time></trkpt><trkpt lat="44.75893389734555" lon="9.942918880930781"><ele>548.0</ele><time>2026-05-02T16:36:07Z</time></trkpt><trkpt lat="44.7589574321839" lon="9.943020120948727"><ele>547.5</ele><time>2026-05-02T16:36:08Z</time></trkpt><trkpt lat="44.75900506572937" lon="9.943085439581552"><ele>547.0</ele><time>2026-05-02T16:36:09Z</time></trkpt><trkpt lat="44.75912251063538" lon="9.943036512478375"><ele>546.5</ele><time>2026-05-02T16:36:11Z</time></trkpt><trkpt lat="44.7591423311608" lon="9.942928982131745"><ele>546.0</ele><time>2026-05-02T16:36:12Z</time></trkpt><trkpt lat="44.759132832022324" lon="9.942824717552302"><ele>545.5</ele><time>2026-05-02T16:36:13Z</time></trkpt><trkpt lat="44.759126293235816" lon="9.942718319698882"><ele>545.0</ele><time>2026-05-02T16:36:14Z</time></trkpt><trkpt lat="44.75912420775127" lon="9.942603730720784"><ele>545.6</ele><time>2026-05-02T16:36:15Z</time></trkpt><trkpt lat="44.759124466614104" lon="9.942485302708382"><ele>546.2</ele><time>2026-05-02T16:36:16Z</time></trkpt><trkpt lat="44.75913298053034" lon="9.942364137763834"><ele>546.8</ele><time>2026-05-02T16:36:17Z</time></trkpt><trkpt lat="44.75915870000982" lon="9.942240887654286"><ele>547.4</ele><time>2026-05-02T16:36:18Z</time></trkpt><trkpt lat="44.7591983274648" lon="9.942123220367334"><ele>548.0</ele><time>2026-05-02T16:36:19Z</time></trkpt><trkpt lat="44.75924980215145" lon="9.942009504634985"><ele>548.0</ele><time>2026-05-02T16:36:20Z</time></trkpt><trkpt lat="44.75930593663251" lon="9.941900250284965"><ele>548.0</ele><time>2026-05-02T16:36:21Z</time></trkpt><trkpt lat="44.75936132171668" lon="9.941785851686522"><ele>548.0</ele><time>2026-05-02T16:36:22Z</time></trkpt><trkpt lat="44.75941917838521" lon="9.941671621477338"><ele>548.0</ele><time>2026-05-02T16:36:23Z</time></trkpt><trkpt lat="44.75947895162965" lon="9.941556442654075"><ele>548.0</ele><time>2026-05-02T16:36:24Z</time></trkpt><trkpt lat="44.75953794906885" lon="9.94143815739476"><ele>546.4</ele><time>2026-05-02T16:36:25Z</time></trkpt><trkpt lat="44.75959681081612" lon="9.941308770346346"><ele>544.8</ele><time>2026-05-02T16:36:26Z</time></trkpt><trkpt lat="44.75965489059442" lon="9.941182324069104"><ele>543.2</ele><time>2026-05-02T16:36:27Z</time></trkpt><trkpt lat="44.75972245649975" lon="9.941062848343718"><ele>541.6</ele><time>2026-05-02T16:36:28Z</time></trkpt><trkpt lat="44.75979804290365" lon="9.94095197510922"><ele>540.0</ele><time>2026-05-02T16:36:29Z</time></trkpt><trkpt lat="44.759876473543095" lon="9.940842374393153"><ele>540.0</ele><time>2026-05-02T16:36:30Z</time></trkpt><trkpt lat="44.75995253087605" lon="9.940731991790509"><ele>540.0</ele><time>2026-05-02T16:36:31Z</time></trkpt><trkpt lat="44.76002305922087" lon="9.940617543559188"><ele>540.0</ele><time>2026-05-02T16:36:32Z</time></trkpt><trkpt lat="44.7600892950806" lon="9.94050532139154"><ele>540.0</ele><time>2026-05-02T16:36:33Z</time></trkpt><trkpt lat="44.760162442856576" lon="9.940403377807575"><ele>540.0</ele><time>2026-05-02T16:36:34Z</time></trkpt><trkpt lat="44.76025426338626" lon="9.94033182088825"><ele>537.2</ele><time>2026-05-02T16:36:35Z</time></trkpt><trkpt lat="44.760357808434115" lon="9.940286625559638"><ele>534.4</ele><time>2026-05-02T16:36:36Z</time></trkpt><trkpt lat="44.76046260140051" lon="9.940252359970517"><ele>531.6</ele><time>2026-05-02T16:36:36.999Z</time></trkpt><trkpt lat="44.76056711596105" lon="9.940216222918755"><ele>528.8</ele><time>2026-05-02T16:36:37.999Z</time></trkpt><trkpt lat="44.76067185941128" lon="9.940172031037543"><ele>526.0</ele><time>2026-05-02T16:36:38.999Z</time></trkpt><trkpt lat="44.760771034287615" lon="9.940116707648153"><ele>526.0</ele><time>2026-05-02T16:36:39.999Z</time></trkpt><trkpt lat="44.76086198784177" lon="9.940078616671542"><ele>526.0</ele><time>2026-05-02T16:36:40.999Z</time></trkpt><trkpt lat="44.76093851768599" lon="9.940073477070895"><ele>526.0</ele><time>2026-05-02T16:36:41.999Z</time></trkpt><trkpt lat="44.76099878209518" lon="9.940116115310333"><ele>526.0</ele><time>2026-05-02T16:36:42.999Z</time></trkpt><trkpt lat="44.761012668389284" lon="9.940209265463693"><ele>526.0</ele><time>2026-05-02T16:36:43.999Z</time></trkpt><trkpt lat="44.76098623976425" lon="9.940293502436932"><ele>526.0</ele><time>2026-05-02T16:36:44.999Z</time></trkpt><trkpt lat="44.76093983067245" lon="9.940360651223077"><ele>526.0</ele><time>2026-05-02T16:36:45.999Z</time></trkpt><trkpt lat="44.76090496836544" lon="9.940459694864971"><ele>526.0</ele><time>2026-05-02T16:36:46.999Z</time></trkpt><trkpt lat="44.760846152348954" lon="9.940538267867469"><ele>526.0</ele><time>2026-05-02T16:36:47.999Z</time></trkpt><trkpt lat="44.76078794878481" lon="9.94062045936909"><ele>526.0</ele><time>2026-05-02T16:36:48.999Z</time></trkpt><trkpt lat="44.760730546012404" lon="9.940710818013132"><ele>526.0</ele><time>2026-05-02T16:36:49.999Z</time></trkpt><trkpt lat="44.76067114474354" lon="9.940802447265702"><ele>526.0</ele><time>2026-05-02T16:36:50.999Z</time></trkpt><trkpt lat="44.76061349470865" lon="9.940898831407507"><ele>526.0</ele><time>2026-05-02T16:36:51.999Z</time></trkpt><trkpt lat="44.76056024026885" lon="9.941008645537414"><ele>523.8</ele><time>2026-05-02T16:36:52.999Z</time></trkpt><trkpt lat="44.76051403150448" lon="9.941127248253634"><ele>521.6</ele><time>2026-05-02T16:36:53.999Z</time></trkpt><trkpt lat="44.76047541459962" lon="9.941253957089328"><ele>519.4</ele><time>2026-05-02T16:36:54.999Z</time></trkpt><trkpt lat="44.76044344195624" lon="9.941385519078835"><ele>517.2</ele><time>2026-05-02T16:36:55.999Z</time></trkpt><trkpt lat="44.76041475173218" lon="9.941521980570725"><ele>515.0</ele><time>2026-05-02T16:36:56.999Z</time></trkpt><trkpt lat="44.760385034843786" lon="9.941659462473137"><ele>514.6</ele><time>2026-05-02T16:36:57.999Z</time></trkpt><trkpt lat="44.76035664642096" lon="9.941799750237855"><ele>514.2</ele><time>2026-05-02T16:36:58.999Z</time></trkpt><trkpt lat="44.76032955832004" lon="9.941941620544686"><ele>513.8</ele><time>2026-05-02T16:36:59.999Z</time></trkpt><trkpt lat="44.760305757152494" lon="9.942088500282054"><ele>513.4</ele><time>2026-05-02T16:37:00.999Z</time></trkpt><trkpt lat="44.7602815724631" lon="9.942236431115353"><ele>513.0</ele><time>2026-05-02T16:37:01.999Z</time></trkpt><trkpt lat="44.76025966563964" lon="9.94238219209934"><ele>513.0</ele><time>2026-05-02T16:37:02.999Z</time></trkpt><trkpt lat="44.76023998621886" lon="9.942525264074805"><ele>513.0</ele><time>2026-05-02T16:37:03.999Z</time></trkpt><trkpt lat="44.760260020379256" lon="9.942675804077249"><ele>513.0</ele><time>2026-05-02T16:37:04.999Z</time></trkpt><trkpt lat="44.760339692074254" lon="9.942796225195249"><ele>513.0</ele><time>2026-05-02T16:37:05.999Z</time></trkpt><trkpt lat="44.76040673648188" lon="9.942912277672024"><ele>513.0</ele><time>2026-05-02T16:37:06.999Z</time></trkpt><trkpt lat="44.760473900703715" lon="9.943027882136251"><ele>513.4</ele><time>2026-05-02T16:37:07.999Z</time></trkpt><trkpt lat="44.76052430562882" lon="9.943158945263113"><ele>513.8</ele><time>2026-05-02T16:37:08.999Z</time></trkpt><trkpt lat="44.76056094992898" lon="9.943302756778504"><ele>514.2</ele><time>2026-05-02T16:37:09.999Z</time></trkpt><trkpt lat="44.760593215740684" lon="9.943447284610464"><ele>514.6</ele><time>2026-05-02T16:37:10.999Z</time></trkpt><trkpt lat="44.760623437706094" lon="9.943594140243567"><ele>515.0</ele><time>2026-05-02T16:37:11.999Z</time></trkpt><trkpt lat="44.76065692319643" lon="9.943738568860887"><ele>514.1666666666666</ele><time>2026-05-02T16:37:12.999Z</time></trkpt><trkpt lat="44.76069566583757" lon="9.94387415235197"><ele>513.3333333333333</ele><time>2026-05-02T16:37:13.999Z</time></trkpt><trkpt lat="44.76074679372809" lon="9.943993647586982"><ele>512.5</ele><time>2026-05-02T16:37:14.999Z</time></trkpt><trkpt lat="44.76081011971553" lon="9.944074167173"><ele>511.66666666666663</ele><time>2026-05-02T16:37:15.999Z</time></trkpt><trkpt lat="44.76087887769362" lon="9.944095721800528"><ele>510.8333333333333</ele><time>2026-05-02T16:37:16.999Z</time></trkpt><trkpt lat="44.76094992414005" lon="9.944048822385712"><ele>510.0</ele><time>2026-05-02T16:37:17.999Z</time></trkpt><trkpt lat="44.76099329641628" lon="9.94394709042025"><ele>510.0</ele><time>2026-05-02T16:37:18.999Z</time></trkpt><trkpt lat="44.76101579191389" lon="9.943840993057076"><ele>510.0</ele><time>2026-05-02T16:37:19.999Z</time></trkpt><trkpt lat="44.76103920683647" lon="9.943736086442172"><ele>510.0</ele><time>2026-05-02T16:37:20.999Z</time></trkpt><trkpt lat="44.76105720830689" lon="9.943626461750476"><ele>510.0</ele><time>2026-05-02T16:37:21.999Z</time></trkpt><trkpt lat="44.76106625942999" lon="9.943510736698949"><ele>510.0</ele><time>2026-05-02T16:37:22.999Z</time></trkpt><trkpt lat="44.76106744224958" lon="9.943391843887673"><ele>510.0</ele><time>2026-05-02T16:37:23.999Z</time></trkpt><trkpt lat="44.76105481641086" lon="9.943270104192901"><ele>511.0</ele><time>2026-05-02T16:37:24.999Z</time></trkpt><trkpt lat="44.76102990314" lon="9.94315113521125"><ele>512.0</ele><time>2026-05-02T16:37:25.999Z</time></trkpt><trkpt lat="44.76099680861729" lon="9.943031060257102"><ele>513.0</ele><time>2026-05-02T16:37:26.999Z</time></trkpt><trkpt lat="44.760973614689995" lon="9.942905509613832"><ele>514.0</ele><time>2026-05-02T16:37:27.999Z</time></trkpt><trkpt lat="44.760968713311556" lon="9.942772641036184"><ele>515.0</ele><time>2026-05-02T16:37:28.999Z</time></trkpt><trkpt lat="44.76098683453552" lon="9.94264351647756"><ele>514.6</ele><time>2026-05-02T16:37:29.998Z</time></trkpt><trkpt lat="44.761031068689306" lon="9.942517993735947"><ele>514.2</ele><time>2026-05-02T16:37:30.998Z</time></trkpt><trkpt lat="44.76109092303405" lon="9.942404013750268"><ele>513.8</ele><time>2026-05-02T16:37:31.998Z</time></trkpt><trkpt lat="44.76115387562212" lon="9.942290441745758"><ele>513.4</ele><time>2026-05-02T16:37:32.998Z</time></trkpt><trkpt lat="44.76121476593282" lon="9.942174630215364"><ele>513.0</ele><time>2026-05-02T16:37:33.998Z</time></trkpt><trkpt lat="44.76127872119358" lon="9.942055653836649"><ele>510.79999999999995</ele><time>2026-05-02T16:37:34.998Z</time></trkpt><trkpt lat="44.7613462520417" lon="9.941936632646176"><ele>508.59999999999997</ele><time>2026-05-02T16:37:35.998Z</time></trkpt><trkpt lat="44.761430385653455" lon="9.94184312675806"><ele>506.40000000000003</ele><time>2026-05-02T16:37:36.998Z</time></trkpt><trkpt lat="44.76152745037256" lon="9.941765042187082"><ele>504.20000000000005</ele><time>2026-05-02T16:37:37.998Z</time></trkpt><trkpt lat="44.761628485415244" lon="9.94170236918595"><ele>502.0</ele><time>2026-05-02T16:37:38.998Z</time></trkpt><trkpt lat="44.7617398030807" lon="9.941675193852806"><ele>502.0</ele><time>2026-05-02T16:37:39.998Z</time></trkpt><trkpt lat="44.761852090987674" lon="9.941673200311186"><ele>502.00000000000006</ele><time>2026-05-02T16:37:40.998Z</time></trkpt><trkpt lat="44.761962800627416" lon="9.941687240013051"><ele>502.00000000000006</ele><time>2026-05-02T16:37:41.998Z</time></trkpt><trkpt lat="44.76207198002134" lon="9.941694727396841"><ele>502.0</ele><time>2026-05-02T16:37:42.998Z</time></trkpt><trkpt lat="44.762176719573525" lon="9.94165672927959"><ele>502.0</ele><time>2026-05-02T16:37:43.998Z</time></trkpt><trkpt lat="44.76226976667006" lon="9.941576022331377"><ele>499.8</ele><time>2026-05-02T16:37:44.998Z</time></trkpt><trkpt lat="44.76234904460704" lon="9.941461435352563"><ele>497.6</ele><time>2026-05-02T16:37:45.998Z</time></trkpt><trkpt lat="44.76242062187968" lon="9.941334187976311"><ele>495.40000000000003</ele><time>2026-05-02T16:37:46.998Z</time></trkpt><trkpt lat="44.76248457713173" lon="9.941218333822448"><ele>493.20000000000005</ele><time>2026-05-02T16:37:47.998Z</time></trkpt><trkpt lat="44.76254923707353" lon="9.94111628521577"><ele>491.0</ele><time>2026-05-02T16:37:48.998Z</time></trkpt><trkpt lat="44.76262948154843" lon="9.941048783542179"><ele>488.4</ele><time>2026-05-02T16:37:49.998Z</time></trkpt><trkpt lat="44.762728413822835" lon="9.941025177497686"><ele>485.8</ele><time>2026-05-02T16:37:50.998Z</time></trkpt><trkpt lat="44.76282390898362" lon="9.941063703094953"><ele>483.19999999999993</ele><time>2026-05-02T16:37:51.998Z</time></trkpt><trkpt lat="44.762912943211525" lon="9.941124904218224"><ele>480.59999999999997</ele><time>2026-05-02T16:37:52.998Z</time></trkpt><trkpt lat="44.7630026483327" lon="9.941178175772032"><ele>478.0</ele><time>2026-05-02T16:37:53.998Z</time></trkpt><trkpt lat="44.763099565030345" lon="9.941201608263945"><ele>478.0</ele><time>2026-05-02T16:37:54.998Z</time></trkpt><trkpt lat="44.76320005898893" lon="9.941191178667115"><ele>477.99999999999994</ele><time>2026-05-02T16:37:55.998Z</time></trkpt><trkpt lat="44.76330011844979" lon="9.94114912344374"><ele>477.99999999999994</ele><time>2026-05-02T16:37:56.998Z</time></trkpt><trkpt lat="44.76339576434978" lon="9.941085338140512"><ele>478.0</ele><time>2026-05-02T16:37:57.998Z</time></trkpt><trkpt lat="44.763491177400525" lon="9.941016055622601"><ele>478.0</ele><time>2026-05-02T16:37:58.998Z</time></trkpt><trkpt lat="44.76359012174612" lon="9.94094808416731"><ele>476.59999999999997</ele><time>2026-05-02T16:37:59.998Z</time></trkpt><trkpt lat="44.76368409753956" lon="9.940862921744081"><ele>475.19999999999993</ele><time>2026-05-02T16:38:01Z</time></trkpt><trkpt lat="44.763755573826074" lon="9.940752479642644"><ele>473.8</ele><time>2026-05-02T16:38:02Z</time></trkpt><trkpt lat="44.76380695219046" lon="9.940632140777655"><ele>472.4</ele><time>2026-05-02T16:38:03Z</time></trkpt><trkpt lat="44.76384685094706" lon="9.940532707402939"><ele>471.0</ele><time>2026-05-02T16:38:04Z</time></trkpt><trkpt lat="44.76395006940771" lon="9.940469033457871"><ele>471.0</ele><time>2026-05-02T16:38:06Z</time></trkpt><trkpt lat="44.76395425367503" lon="9.940637072539879"><ele>471.0</ele><time>2026-05-02T16:38:08Z</time></trkpt><trkpt lat="44.763895565661876" lon="9.940808777346382"><ele>471.0</ele><time>2026-05-02T16:38:10Z</time></trkpt><trkpt lat="44.76385973419918" lon="9.940905342397587"><ele>471.0</ele><time>2026-05-02T16:38:11Z</time></trkpt><trkpt lat="44.76381286198222" lon="9.940999225488115"><ele>471.0</ele><time>2026-05-02T16:38:12Z</time></trkpt><trkpt lat="44.76375962879973" lon="9.941096134329044"><ele>472.4</ele><time>2026-05-02T16:38:13Z</time></trkpt><trkpt lat="44.76370219589525" lon="9.941197773068794"><ele>473.8</ele><time>2026-05-02T16:38:14Z</time></trkpt><trkpt lat="44.763643637933" lon="9.941305731500178"><ele>475.19999999999993</ele><time>2026-05-02T16:38:15Z</time></trkpt><trkpt lat="44.763584051198656" lon="9.941417286410456"><ele>476.59999999999997</ele><time>2026-05-02T16:38:16Z</time></trkpt><trkpt lat="44.76352195446496" lon="9.941533791979564"><ele>478.0</ele><time>2026-05-02T16:38:17Z</time></trkpt><trkpt lat="44.7634609636207" lon="9.941654999017604"><ele>475.59999999999997</ele><time>2026-05-02T16:38:18Z</time></trkpt><trkpt lat="44.763397884414964" lon="9.941780464570874"><ele>473.19999999999993</ele><time>2026-05-02T16:38:19Z</time></trkpt><trkpt lat="44.76333476204019" lon="9.941906761912385"><ele>470.8</ele><time>2026-05-02T16:38:20Z</time></trkpt><trkpt lat="44.76327208863996" lon="9.94203726486859"><ele>468.4</ele><time>2026-05-02T16:38:21Z</time></trkpt><trkpt lat="44.763214413296886" lon="9.942175297626996"><ele>466.0</ele><time>2026-05-02T16:38:22Z</time></trkpt><trkpt lat="44.76315859018752" lon="9.942308922632652"><ele>466.0</ele><time>2026-05-02T16:38:23Z</time></trkpt><trkpt lat="44.76310968239069" lon="9.94243604385697"><ele>466.0</ele><time>2026-05-02T16:38:24Z</time></trkpt><trkpt lat="44.763079162318895" lon="9.942565575443304"><ele>466.0</ele><time>2026-05-02T16:38:25Z</time></trkpt><trkpt lat="44.76309166238368" lon="9.942692842442765"><ele>466.0</ele><time>2026-05-02T16:38:26Z</time></trkpt><trkpt lat="44.76316902606821" lon="9.94277590427877"><ele>466.0</ele><time>2026-05-02T16:38:27Z</time></trkpt><trkpt lat="44.763254728721584" lon="9.942809109213318"><ele>465.6</ele><time>2026-05-02T16:38:28Z</time></trkpt><trkpt lat="44.76334981701585" lon="9.942792213783466"><ele>465.20000000000005</ele><time>2026-05-02T16:38:29Z</time></trkpt><trkpt lat="44.76344277923927" lon="9.942751863263606"><ele>464.79999999999995</ele><time>2026-05-02T16:38:30Z</time></trkpt><trkpt lat="44.76353741643255" lon="9.942710274218442"><ele>464.4</ele><time>2026-05-02T16:38:31Z</time></trkpt><trkpt lat="44.7636365004865" lon="9.94266131544082"><ele>464.0</ele><time>2026-05-02T16:38:32Z</time></trkpt><trkpt lat="44.76373607109099" lon="9.942591552962622"><ele>461.75</ele><time>2026-05-02T16:38:33Z</time></trkpt><trkpt lat="44.76383223198985" lon="9.942508079495934"><ele>459.5</ele><time>2026-05-02T16:38:34Z</time></trkpt><trkpt lat="44.76392850633861" lon="9.942410967227383"><ele>457.25</ele><time>2026-05-02T16:38:35Z</time></trkpt><trkpt lat="44.76402645908637" lon="9.942306825428236"><ele>455.0</ele><time>2026-05-02T16:38:36Z</time></trkpt><trkpt lat="44.76412755471974" lon="9.942207069836936"><ele>455.0</ele><time>2026-05-02T16:38:37Z</time></trkpt><trkpt lat="44.76423512416633" lon="9.942113841656727"><ele>455.0</ele><time>2026-05-02T16:38:38Z</time></trkpt><trkpt lat="44.76434920853126" lon="9.942023107356674"><ele>455.0</ele><time>2026-05-02T16:38:39Z</time></trkpt><trkpt lat="44.76446657025899" lon="9.941934383161561"><ele>455.0</ele><time>2026-05-02T16:38:40Z</time></trkpt><trkpt lat="44.76458655315209" lon="9.941845848906324"><ele>452.25</ele><time>2026-05-02T16:38:41Z</time></trkpt><trkpt lat="44.76470859189153" lon="9.941755871617419"><ele>449.5</ele><time>2026-05-02T16:38:41.999Z</time></trkpt><trkpt lat="44.764832000430765" lon="9.941659715397662"><ele>446.75</ele><time>2026-05-02T16:38:42.999Z</time></trkpt><trkpt lat="44.764954589641306" lon="9.941564575512384"><ele>444.0</ele><time>2026-05-02T16:38:43.999Z</time></trkpt><trkpt lat="44.76507844587449" lon="9.941468721406238"><ele>441.0</ele><time>2026-05-02T16:38:44.999Z</time></trkpt><trkpt lat="44.76520424977635" lon="9.941377188570623"><ele>438.0</ele><time>2026-05-02T16:38:45.999Z</time></trkpt><trkpt lat="44.76532849707291" lon="9.941286537774978"><ele>435.0</ele><time>2026-05-02T16:38:46.999Z</time></trkpt><trkpt lat="44.76545192454325" lon="9.941192513712373"><ele>432.0</ele><time>2026-05-02T16:38:47.999Z</time></trkpt><trkpt lat="44.76557568905079" lon="9.94110077680682"><ele>432.0</ele><time>2026-05-02T16:38:48.999Z</time></trkpt><trkpt lat="44.765700843028355" lon="9.94101205355807"><ele>432.0</ele><time>2026-05-02T16:38:49.999Z</time></trkpt><trkpt lat="44.76583318224678" lon="9.940942425826417"><ele>432.0</ele><time>2026-05-02T16:38:50.999Z</time></trkpt><trkpt lat="44.76596858104536" lon="9.940886606611885"><ele>432.0</ele><time>2026-05-02T16:38:51.999Z</time></trkpt><trkpt lat="44.766100089434765" lon="9.940832691231984"><ele>432.0</ele><time>2026-05-02T16:38:52.999Z</time></trkpt><trkpt lat="44.7662333897736" lon="9.940775701932411"><ele>432.0</ele><time>2026-05-02T16:38:53.999Z</time></trkpt><trkpt lat="44.76636720164598" lon="9.940718649972885"><ele>432.0</ele><time>2026-05-02T16:38:54.999Z</time></trkpt><trkpt lat="44.76650070973561" lon="9.940660500872895"><ele>432.0</ele><time>2026-05-02T16:38:55.999Z</time></trkpt><trkpt lat="44.76663598579171" lon="9.94060601745457"><ele>432.0</ele><time>2026-05-02T16:38:56.999Z</time></trkpt><trkpt lat="44.76677424062868" lon="9.940560487003644"><ele>432.0</ele><time>2026-05-02T16:38:57.999Z</time></trkpt><trkpt lat="44.76691454132988" lon="9.940528477737015"><ele>432.0</ele><time>2026-05-02T16:38:58.999Z</time></trkpt><trkpt lat="44.767056135386966" lon="9.940500378887632"><ele>432.0</ele><time>2026-05-02T16:38:59.999Z</time></trkpt><trkpt lat="44.76719657551631" lon="9.940466946414999"><ele>431.25</ele><time>2026-05-02T16:39:00.999Z</time></trkpt><trkpt lat="44.767335637072236" lon="9.94043763301056"><ele>430.5</ele><time>2026-05-02T16:39:01.999Z</time></trkpt><trkpt lat="44.76747236073428" lon="9.940404359574474"><ele>429.75</ele><time>2026-05-02T16:39:02.999Z</time></trkpt><trkpt lat="44.767599678973404" lon="9.94037548696653"><ele>429.0</ele><time>2026-05-02T16:39:03.999Z</time></trkpt><trkpt lat="44.76772102854158" lon="9.940348439847288"><ele>428.0</ele><time>2026-05-02T16:39:04.999Z</time></trkpt><trkpt lat="44.7678454325781" lon="9.94034903038519"><ele>427.0</ele><time>2026-05-02T16:39:05.999Z</time></trkpt><trkpt lat="44.76796408619981" lon="9.940370982049377"><ele>426.0</ele><time>2026-05-02T16:39:06.999Z</time></trkpt><trkpt lat="44.768083679062414" lon="9.940409399141858"><ele>425.0</ele><time>2026-05-02T16:39:07.999Z</time></trkpt><trkpt lat="44.76819506362357" lon="9.940468258689938"><ele>425.0</ele><time>2026-05-02T16:39:08.999Z</time></trkpt><trkpt lat="44.768299674186025" lon="9.940547652589443"><ele>425.0</ele><time>2026-05-02T16:39:09.999Z</time></trkpt><trkpt lat="44.76839216455266" lon="9.940644142957565"><ele>425.0</ele><time>2026-05-02T16:39:10.999Z</time></trkpt><trkpt lat="44.76845024649066" lon="9.940783363530402"><ele>425.0</ele><time>2026-05-02T16:39:11.999Z</time></trkpt><trkpt lat="44.76849906684812" lon="9.94092684345063"><ele>422.5</ele><time>2026-05-02T16:39:12.999Z</time></trkpt><trkpt lat="44.768532126788465" lon="9.941081802671476"><ele>420.0</ele><time>2026-05-02T16:39:13.999Z</time></trkpt><trkpt lat="44.768565148420755" lon="9.941242763597657"><ele>417.5</ele><time>2026-05-02T16:39:14.999Z</time></trkpt><trkpt lat="44.768615309504405" lon="9.941396073817522"><ele>415.0</ele><time>2026-05-02T16:39:15.999Z</time></trkpt><trkpt lat="44.76871135801726" lon="9.941506358078039"><ele>415.0</ele><time>2026-05-02T16:39:16.999Z</time></trkpt><trkpt lat="44.76881155823968" lon="9.9415960651882"><ele>415.0</ele><time>2026-05-02T16:39:17.999Z</time></trkpt><trkpt lat="44.76892106498293" lon="9.941661948990687"><ele>415.0</ele><time>2026-05-02T16:39:18.999Z</time></trkpt><trkpt lat="44.76903483128272" lon="9.941717491838762"><ele>415.0</ele><time>2026-05-02T16:39:19.999Z</time></trkpt><trkpt lat="44.76915180896511" lon="9.941766376560015"><ele>414.0</ele><time>2026-05-02T16:39:20.999Z</time></trkpt><trkpt lat="44.769273480063404" lon="9.941797461559013"><ele>413.0</ele><time>2026-05-02T16:39:21.999Z</time></trkpt><trkpt lat="44.769398046185856" lon="9.941808444769185"><ele>412.0</ele><time>2026-05-02T16:39:22.999Z</time></trkpt><trkpt lat="44.76952208073738" lon="9.94178292040656"><ele>411.0</ele><time>2026-05-02T16:39:23.999Z</time></trkpt><trkpt lat="44.769639589127905" lon="9.941720632161184"><ele>411.25</ele><time>2026-05-02T16:39:24.999Z</time></trkpt><trkpt lat="44.76974462956275" lon="9.941624651271662"><ele>411.5</ele><time>2026-05-02T16:39:25.999Z</time></trkpt><trkpt lat="44.76984327790233" lon="9.941514510600415"><ele>411.75</ele><time>2026-05-02T16:39:26.999Z</time></trkpt><trkpt lat="44.769929442454796" lon="9.941385062908887"><ele>412.0</ele><time>2026-05-02T16:39:27.999Z</time></trkpt><trkpt lat="44.76999988465622" lon="9.941235737802575"><ele>412.0</ele><time>2026-05-02T16:39:28.999Z</time></trkpt><trkpt lat="44.770061557369964" lon="9.941079653615514"><ele>412.0</ele><time>2026-05-02T16:39:29.999Z</time></trkpt><trkpt lat="44.77012281057853" lon="9.9409254531989"><ele>412.0</ele><time>2026-05-02T16:39:30.999Z</time></trkpt><trkpt lat="44.770180556427306" lon="9.94076876969008"><ele>412.0</ele><time>2026-05-02T16:39:31.999Z</time></trkpt><trkpt lat="44.770237694886525" lon="9.940624185351"><ele>407.25</ele><time>2026-05-02T16:39:32.999Z</time></trkpt><trkpt lat="44.77031022052664" lon="9.940507389639672"><ele>402.5</ele><time>2026-05-02T16:39:33.999Z</time></trkpt><trkpt lat="44.770412375508286" lon="9.940420667119735"><ele>397.75</ele><time>2026-05-02T16:39:34.998Z</time></trkpt><trkpt lat="44.77052957803049" lon="9.940370736004333"><ele>393.0</ele><time>2026-05-02T16:39:35.998Z</time></trkpt><trkpt lat="44.7706506776201" lon="9.940332526307929"><ele>393.0</ele><time>2026-05-02T16:39:36.998Z</time></trkpt><trkpt lat="44.77076724183766" lon="9.940267686444493"><ele>393.0</ele><time>2026-05-02T16:39:37.998Z</time></trkpt><trkpt lat="44.770876576520465" lon="9.940179343830788"><ele>393.0</ele><time>2026-05-02T16:39:38.998Z</time></trkpt><trkpt lat="44.77098258062082" lon="9.940091402631401"><ele>393.0</ele><time>2026-05-02T16:39:39.998Z</time></trkpt><trkpt lat="44.771095626161674" lon="9.94001001908381"><ele>389.25</ele><time>2026-05-02T16:39:40.998Z</time></trkpt><trkpt lat="44.771212589040545" lon="9.939933604321908"><ele>385.5</ele><time>2026-05-02T16:39:41.998Z</time></trkpt><trkpt lat="44.771321262130925" lon="9.939867448340214"><ele>381.75</ele><time>2026-05-02T16:39:42.998Z</time></trkpt><trkpt lat="44.77142895882732" lon="9.939810578980742"><ele>378.0</ele><time>2026-05-02T16:39:43.998Z</time></trkpt><trkpt lat="44.771531667642826" lon="9.939764036340494"><ele>378.0</ele><time>2026-05-02T16:39:44.998Z</time></trkpt><trkpt lat="44.771621997896844" lon="9.939705990524045"><ele>378.0</ele><time>2026-05-02T16:39:45.998Z</time></trkpt><trkpt lat="44.77169775314984" lon="9.939620953785635"><ele>378.0</ele><time>2026-05-02T16:39:46.998Z</time></trkpt><trkpt lat="44.77176029021799" lon="9.939500566011963"><ele>378.0</ele><time>2026-05-02T16:39:47.998Z</time></trkpt><trkpt lat="44.77180130591838" lon="9.939374950078037"><ele>378.0</ele><time>2026-05-02T16:39:48.998Z</time></trkpt><trkpt lat="44.77181720100349" lon="9.93923886256129"><ele>380.59999999999997</ele><time>2026-05-02T16:39:49.998Z</time></trkpt><trkpt lat="44.771814421770465" lon="9.93909861267102"><ele>383.2</ele><time>2026-05-02T16:39:50.998Z</time></trkpt><trkpt lat="44.771789936827204" lon="9.938962047896194"><ele>385.8</ele><time>2026-05-02T16:39:51.998Z</time></trkpt><trkpt lat="44.771750868529715" lon="9.938838124911397"><ele>388.4</ele><time>2026-05-02T16:39:52.998Z</time></trkpt><trkpt lat="44.77168786155155" lon="9.938729824661563"><ele>391.0</ele><time>2026-05-02T16:39:53.998Z</time></trkpt><trkpt lat="44.77161097848638" lon="9.938642888937322"><ele>391.0</ele><time>2026-05-02T16:39:54.998Z</time></trkpt><trkpt lat="44.771526427978756" lon="9.938578751405323"><ele>391.0</ele><time>2026-05-02T16:39:55.998Z</time></trkpt><trkpt lat="44.77142904452127" lon="9.938548352054442"><ele>391.0</ele><time>2026-05-02T16:39:56.998Z</time></trkpt><trkpt lat="44.771327464858935" lon="9.938558356136323"><ele>391.0</ele><time>2026-05-02T16:39:57.998Z</time></trkpt><trkpt lat="44.77122437864496" lon="9.938574844832806"><ele>391.0</ele><time>2026-05-02T16:39:58.998Z</time></trkpt><trkpt lat="44.771125429124254" lon="9.938614424282603"><ele>391.0</ele><time>2026-05-02T16:39:59.998Z</time></trkpt><trkpt lat="44.771029461455" lon="9.938669239292205"><ele>391.0</ele><time>2026-05-02T16:40:00.998Z</time></trkpt><trkpt lat="44.77092748972272" lon="9.93868469562732"><ele>391.0</ele><time>2026-05-02T16:40:01.998Z</time></trkpt><trkpt lat="44.77083417813499" lon="9.938674964797466"><ele>391.0</ele><time>2026-05-02T16:40:02.998Z</time></trkpt><trkpt lat="44.77074148923685" lon="9.938637549836962"><ele>391.0</ele><time>2026-05-02T16:40:03.998Z</time></trkpt><trkpt lat="44.77065415056824" lon="9.938561950786415"><ele>390.8</ele><time>2026-05-02T16:40:04.998Z</time></trkpt><trkpt lat="44.770572097632254" lon="9.938470966429692"><ele>390.6</ele><time>2026-05-02T16:40:05.998Z</time></trkpt><trkpt lat="44.770485161565084" lon="9.93838368085555"><ele>390.4</ele><time>2026-05-02T16:40:07Z</time></trkpt><trkpt lat="44.7703937263066" lon="9.938296286109793"><ele>390.2</ele><time>2026-05-02T16:40:08Z</time></trkpt><trkpt lat="44.77030076035075" lon="9.938212079370954"><ele>390.0</ele><time>2026-05-02T16:40:09Z</time></trkpt><trkpt lat="44.770221046946794" lon="9.938130621723483"><ele>387.8</ele><time>2026-05-02T16:40:10Z</time></trkpt><trkpt lat="44.770167569875326" lon="9.9380257833498"><ele>385.6</ele><time>2026-05-02T16:40:11Z</time></trkpt><trkpt lat="44.77015037845105" lon="9.937895971905213"><ele>383.4</ele><time>2026-05-02T16:40:12Z</time></trkpt><trkpt lat="44.77017445755802" lon="9.937775722473152"><ele>381.2</ele><time>2026-05-02T16:40:13Z</time></trkpt><trkpt lat="44.77023005334053" lon="9.937674382686914"><ele>379.0</ele><time>2026-05-02T16:40:14Z</time></trkpt><trkpt lat="44.77030847374496" lon="9.937613688281626"><ele>379.0</ele><time>2026-05-02T16:40:15Z</time></trkpt><trkpt lat="44.770396360775536" lon="9.937601900894167"><ele>379.0</ele><time>2026-05-02T16:40:16Z</time></trkpt><trkpt lat="44.7704822681867" lon="9.937635232824702"><ele>379.0</ele><time>2026-05-02T16:40:17Z</time></trkpt><trkpt lat="44.77054514877711" lon="9.937717251894178"><ele>379.0</ele><time>2026-05-02T16:40:18Z</time></trkpt><trkpt lat="44.77056950893958" lon="9.937842380451876"><ele>379.0</ele><time>2026-05-02T16:40:19Z</time></trkpt><trkpt lat="44.770629047823356" lon="9.937939974423385"><ele>379.0</ele><time>2026-05-02T16:40:20Z</time></trkpt><trkpt lat="44.77069678847628" lon="9.938032172903636"><ele>379.0</ele><time>2026-05-02T16:40:21Z</time></trkpt><trkpt lat="44.7707895661527" lon="9.938078382402672"><ele>379.0</ele><time>2026-05-02T16:40:22Z</time></trkpt><trkpt lat="44.77088931722874" lon="9.938067706782483"><ele>379.0</ele><time>2026-05-02T16:40:23Z</time></trkpt><trkpt lat="44.7709765161319" lon="9.938004452994607"><ele>379.0</ele><time>2026-05-02T16:40:24Z</time></trkpt><trkpt lat="44.771048110431884" lon="9.937915066587205"><ele>379.0</ele><time>2026-05-02T16:40:25Z</time></trkpt><trkpt lat="44.77111263648183" lon="9.937812238307625"><ele>378.79999999999995</ele><time>2026-05-02T16:40:26Z</time></trkpt><trkpt lat="44.77118003190159" lon="9.937715686103614"><ele>378.59999999999997</ele><time>2026-05-02T16:40:27Z</time></trkpt><trkpt lat="44.77126788701964" lon="9.937645593606598"><ele>378.4</ele><time>2026-05-02T16:40:28Z</time></trkpt><trkpt lat="44.77136917431006" lon="9.937613050386643"><ele>378.2</ele><time>2026-05-02T16:40:29Z</time></trkpt><trkpt lat="44.77147577531253" lon="9.937631259784743"><ele>378.0</ele><time>2026-05-02T16:40:30Z</time></trkpt><trkpt lat="44.771568391239136" lon="9.93768660188567"><ele>378.0</ele><time>2026-05-02T16:40:31Z</time></trkpt><trkpt lat="44.77164204973141" lon="9.9377275936392"><ele>378.0</ele><time>2026-05-02T16:40:32Z</time></trkpt><trkpt lat="44.77173788900022" lon="9.93764475339359"><ele>378.0</ele><time>2026-05-02T16:40:34Z</time></trkpt><trkpt lat="44.7717234743168" lon="9.937544707549826"><ele>378.0</ele><time>2026-05-02T16:40:35Z</time></trkpt><trkpt lat="44.771667604130776" lon="9.937467444450194"><ele>378.0</ele><time>2026-05-02T16:40:36Z</time></trkpt><trkpt lat="44.77159657480991" lon="9.937438617536593"><ele>378.0</ele><time>2026-05-02T16:40:37Z</time></trkpt><trkpt lat="44.77152935244481" lon="9.937426268495749"><ele>375.42857142857144</ele><time>2026-05-02T16:40:38Z</time></trkpt><trkpt lat="44.771465929101694" lon="9.937414289501227"><ele>372.8571428571429</ele><time>2026-05-02T16:40:39Z</time></trkpt><trkpt lat="44.77140231692936" lon="9.937401402453455"><ele>370.2857142857143</ele><time>2026-05-02T16:40:40Z</time></trkpt><trkpt lat="44.771335482407544" lon="9.937384497457435"><ele>367.7142857142857</ele><time>2026-05-02T16:40:41Z</time></trkpt><trkpt lat="44.77126679302457" lon="9.937346514898199"><ele>365.14285714285717</ele><time>2026-05-02T16:40:42Z</time></trkpt><trkpt lat="44.7711980110759" lon="9.937324815360794"><ele>362.57142857142856</ele><time>2026-05-02T16:40:43Z</time></trkpt><trkpt lat="44.77112034564796" lon="9.937226881241676"><ele>360.0</ele><time>2026-05-02T16:40:45Z</time></trkpt><trkpt lat="44.77114544560862" lon="9.937135337646062"><ele>360.0</ele><time>2026-05-02T16:40:45.999Z</time></trkpt><trkpt lat="44.77121558415725" lon="9.937091391460779"><ele>360.0</ele><time>2026-05-02T16:40:46.999Z</time></trkpt><trkpt lat="44.771297146434854" lon="9.937140210246035"><ele>360.0</ele><time>2026-05-02T16:40:47.999Z</time></trkpt><trkpt lat="44.771381121885724" lon="9.937150951943213"><ele>360.0</ele><time>2026-05-02T16:40:48.999Z</time></trkpt><trkpt lat="44.771455722905216" lon="9.93718638287825"><ele>360.0</ele><time>2026-05-02T16:40:49.999Z</time></trkpt><trkpt lat="44.77153932078269" lon="9.93721537179135"><ele>360.0</ele><time>2026-05-02T16:40:50.999Z</time></trkpt><trkpt lat="44.77162698315021" lon="9.937241976423637"><ele>360.0</ele><time>2026-05-02T16:40:51.999Z</time></trkpt><trkpt lat="44.77171754907988" lon="9.937271837806652"><ele>360.0</ele><time>2026-05-02T16:40:52.999Z</time></trkpt><trkpt lat="44.77181301496367" lon="9.937301318420273"><ele>360.0</ele><time>2026-05-02T16:40:53.999Z</time></trkpt><trkpt lat="44.77191255670333" lon="9.93733243857902"><ele>360.0</ele><time>2026-05-02T16:40:54.999Z</time></trkpt><trkpt lat="44.77201409144971" lon="9.937363250212949"><ele>360.0</ele><time>2026-05-02T16:40:55.999Z</time></trkpt><trkpt lat="44.772120047883774" lon="9.937391295835278"><ele>361.4</ele><time>2026-05-02T16:40:56.999Z</time></trkpt><trkpt lat="44.772221982599355" lon="9.937421868031528"><ele>362.8</ele><time>2026-05-02T16:40:57.999Z</time></trkpt><trkpt lat="44.77232001753309" lon="9.93746400154799"><ele>364.20000000000005</ele><time>2026-05-02T16:40:58.999Z</time></trkpt><trkpt lat="44.77241310394753" lon="9.937511951113613"><ele>365.6</ele><time>2026-05-02T16:40:59.999Z</time></trkpt><trkpt lat="44.77250721989572" lon="9.937560303858925"><ele>367.0</ele><time>2026-05-02T16:41:00.999Z</time></trkpt><trkpt lat="44.77259960699854" lon="9.93759972686405"><ele>367.0</ele><time>2026-05-02T16:41:01.999Z</time></trkpt><trkpt lat="44.77268935248392" lon="9.937634124093652"><ele>367.0</ele><time>2026-05-02T16:41:02.999Z</time></trkpt><trkpt lat="44.77275891078008" lon="9.937670892428232"><ele>367.0</ele><time>2026-05-02T16:41:03.999Z</time></trkpt><trkpt lat="44.77282749681632" lon="9.937676541690516"><ele>367.0</ele><time>2026-05-02T16:41:04.999Z</time></trkpt><trkpt lat="44.77289036172022" lon="9.937535403580464"><ele>367.0</ele><time>2026-05-02T16:41:06.999Z</time></trkpt><trkpt lat="44.772863042155926" lon="9.937441078883758"><ele>367.0</ele><time>2026-05-02T16:41:07.999Z</time></trkpt><trkpt lat="44.77280595516088" lon="9.937378284041996"><ele>363.8</ele><time>2026-05-02T16:41:08.999Z</time></trkpt><trkpt lat="44.77274228610571" lon="9.937334668725173"><ele>360.6</ele><time>2026-05-02T16:41:09.999Z</time></trkpt><trkpt lat="44.772681808578525" lon="9.937283365662017"><ele>357.40000000000003</ele><time>2026-05-02T16:41:10.999Z</time></trkpt><trkpt lat="44.772621407199296" lon="9.937229836023128"><ele>354.20000000000005</ele><time>2026-05-02T16:41:11.999Z</time></trkpt><trkpt lat="44.77256024333095" lon="9.937092579552134"><ele>351.0</ele><time>2026-05-02T16:41:13.999Z</time></trkpt><trkpt lat="44.77263581205988" lon="9.936957040760195"><ele>348.5</ele><time>2026-05-02T16:41:15.999Z</time></trkpt><trkpt lat="44.772714064443406" lon="9.936962867806063"><ele>346.0</ele><time>2026-05-02T16:41:16.999Z</time></trkpt><trkpt lat="44.7727783016633" lon="9.937030324728433"><ele>343.5</ele><time>2026-05-02T16:41:17.999Z</time></trkpt><trkpt lat="44.77285871876863" lon="9.937060913741597"><ele>341.0</ele><time>2026-05-02T16:41:18.999Z</time></trkpt><trkpt lat="44.77293487495814" lon="9.937108754645756"><ele>338.5</ele><time>2026-05-02T16:41:19.999Z</time></trkpt><trkpt lat="44.77301312416036" lon="9.93716152140233"><ele>336.0</ele><time>2026-05-02T16:41:20.999Z</time></trkpt><trkpt lat="44.77309391809067" lon="9.93721505773847"><ele>336.0</ele><time>2026-05-02T16:41:21.999Z</time></trkpt><trkpt lat="44.77317846414248" lon="9.937276066170144"><ele>336.0</ele><time>2026-05-02T16:41:22.999Z</time></trkpt><trkpt lat="44.77326579030063" lon="9.937330060242832"><ele>336.0</ele><time>2026-05-02T16:41:23.999Z</time></trkpt><trkpt lat="44.773356331463" lon="9.93738184003595"><ele>336.0</ele><time>2026-05-02T16:41:24.999Z</time></trkpt><trkpt lat="44.773445997666876" lon="9.937436041651084"><ele>336.0</ele><time>2026-05-02T16:41:25.999Z</time></trkpt><trkpt lat="44.773533858659626" lon="9.93749021663225"><ele>335.8333333333333</ele><time>2026-05-02T16:41:26.999Z</time></trkpt><trkpt lat="44.77361954950309" lon="9.937541826182713"><ele>335.6666666666667</ele><time>2026-05-02T16:41:27.999Z</time></trkpt><trkpt lat="44.77369617051365" lon="9.937586927096616"><ele>335.5</ele><time>2026-05-02T16:41:28.999Z</time></trkpt><trkpt lat="44.77378639855897" lon="9.937660316623376"><ele>335.33333333333337</ele><time>2026-05-02T16:41:30.999Z</time></trkpt><trkpt lat="44.77384153425018" lon="9.937716772777023"><ele>335.1666666666667</ele><time>2026-05-02T16:41:33.999Z</time></trkpt><trkpt lat="44.773861114807914" lon="9.937613751712236"><ele>335.0</ele><time>2026-05-02T16:41:35.999Z</time></trkpt><trkpt lat="44.773784063387595" lon="9.937574065503831"><ele>335.0</ele><time>2026-05-02T16:41:38.998Z</time></trkpt><trkpt lat="44.773726287200354" lon="9.937537826355324"><ele>335.0</ele><time>2026-05-02T16:41:41.998Z</time></trkpt><trkpt lat="44.7736544607241" lon="9.937492138227478"><ele>335.0</ele><time>2026-05-02T16:41:44.998Z</time></trkpt><trkpt lat="44.77358235138408" lon="9.937444081925266"><ele>335.0</ele><time>2026-05-02T16:41:47.998Z</time></trkpt><trkpt lat="44.77351024119798" lon="9.937395324284804"><ele>335.0</ele><time>2026-05-02T16:41:50.998Z</time></trkpt><trkpt lat="44.77343767233569" lon="9.93734592474801"><ele>335.0</ele><time>2026-05-02T16:41:53.998Z</time></trkpt><trkpt lat="44.77337318666922" lon="9.937303192932667"><ele>335.1428571428571</ele><time>2026-05-02T16:41:57.998Z</time></trkpt><trkpt lat="44.77330423265174" lon="9.937263987112198"><ele>335.2857142857143</ele><time>2026-05-02T16:42:02.998Z</time></trkpt><trkpt lat="44.77323105847188" lon="9.937229746533157"><ele>335.42857142857144</ele><time>2026-05-02T16:43:05.999Z</time></trkpt><trkpt lat="44.77315592778846" lon="9.937178562412907"><ele>335.57142857142856</ele><time>2026-05-02T16:43:09.999Z</time></trkpt><trkpt lat="44.773099607192265" lon="9.937132552123092"><ele>335.7142857142857</ele><time>2026-05-02T16:43:12.999Z</time></trkpt><trkpt lat="44.773030613049976" lon="9.937107393450948"><ele>335.85714285714283</ele><time>2026-05-02T16:43:15.999Z</time></trkpt><trkpt lat="44.77296696412181" lon="9.937079057096154"><ele>336.0</ele><time>2026-05-02T16:43:18.999Z</time></trkpt><trkpt lat="44.77290446845295" lon="9.937030003929689"><ele>336.0</ele><time>2026-05-02T16:43:22.999Z</time></trkpt><trkpt lat="44.77283923916276" lon="9.936983205739704"><ele>336.0</ele><time>2026-05-02T16:43:26.999Z</time></trkpt><trkpt lat="44.772760977547605" lon="9.936937975969908"><ele>336.0</ele><time>2026-05-02T16:43:30.999Z</time></trkpt><trkpt lat="44.772687145456054" lon="9.936919220005585"><ele>336.0</ele><time>2026-05-02T16:43:34.999Z</time></trkpt><trkpt lat="44.7726070448501" lon="9.936947525853856"><ele>336.0</ele><time>2026-05-02T16:43:38.999Z</time></trkpt><trkpt lat="44.772562319500004" lon="9.937011548547506"><ele>336.0</ele><time>2026-05-02T16:43:41.998Z</time></trkpt><trkpt lat="44.77256119040795" lon="9.93710848375712"><ele>336.0</ele><time>2026-05-02T16:43:44.998Z</time></trkpt><trkpt lat="44.77258345572053" lon="9.937200272304645"><ele>336.0</ele><time>2026-05-02T16:43:47.998Z</time></trkpt><trkpt lat="44.772643827833555" lon="9.937281437857425"><ele>336.0</ele><time>2026-05-02T16:43:50.998Z</time></trkpt><trkpt lat="44.77271012672099" lon="9.937348589234833"><ele>336.0</ele><time>2026-05-02T16:43:53.998Z</time></trkpt><trkpt lat="44.77277415205413" lon="9.937401822230065"><ele>336.0</ele><time>2026-05-02T16:43:56.998Z</time></trkpt><trkpt lat="44.77283148505406" lon="9.937479080176805"><ele>336.0</ele><time>2026-05-02T16:44:00.998Z</time></trkpt><trkpt lat="44.7728298054963" lon="9.937590241581999"><ele>336.0</ele><time>2026-05-02T16:44:04.998Z</time></trkpt><trkpt lat="44.772762563699494" lon="9.937617445910512"><ele>336.14285714285717</ele><time>2026-05-02T16:44:07.998Z</time></trkpt><trkpt lat="44.77269469124217" lon="9.937586355479253"><ele>336.2857142857143</ele><time>2026-05-02T16:44:11.998Z</time></trkpt><trkpt lat="44.772634668269795" lon="9.937556283201094"><ele>336.42857142857144</ele><time>2026-05-02T16:44:14.998Z</time></trkpt><trkpt lat="44.77257190450738" lon="9.93752808007413"><ele>336.57142857142856</ele><time>2026-05-02T16:44:17.998Z</time></trkpt><trkpt lat="44.77249426616224" lon="9.937489939007682"><ele>336.7142857142857</ele><time>2026-05-02T16:44:22Z</time></trkpt><trkpt lat="44.7724184597202" lon="9.937451978920299"><ele>336.8571428571429</ele><time>2026-05-02T16:44:26Z</time></trkpt><trkpt lat="44.77235504137366" lon="9.937420179788827"><ele>337.0</ele><time>2026-05-02T16:44:29Z</time></trkpt><trkpt lat="44.772280340722084" lon="9.9373921166542"><ele>339.00000000000006</ele><time>2026-05-02T16:44:32Z</time></trkpt><trkpt lat="44.77221645936447" lon="9.937368952174824"><ele>341.0</ele><time>2026-05-02T16:44:35Z</time></trkpt><trkpt lat="44.77215348202476" lon="9.937353516588583"><ele>343.0</ele><time>2026-05-02T16:44:38Z</time></trkpt><trkpt lat="44.77208515986754" lon="9.937327370618442"><ele>345.0</ele><time>2026-05-02T16:44:42Z</time></trkpt><trkpt lat="44.77202116922558" lon="9.937302659752794"><ele>347.0</ele><time>2026-05-02T16:44:45Z</time></trkpt><trkpt lat="44.771939936726426" lon="9.937279339117678"><ele>349.00000000000006</ele><time>2026-05-02T16:44:48Z</time></trkpt><trkpt lat="44.771872795386905" lon="9.937250517441269"><ele>351.0</ele><time>2026-05-02T16:44:52Z</time></trkpt><trkpt lat="44.7718003257858" lon="9.937235074925884"><ele>352.28571428571433</ele><time>2026-05-02T16:44:54.999Z</time></trkpt><trkpt lat="44.77173390154803" lon="9.937211467807542"><ele>353.57142857142856</ele><time>2026-05-02T16:44:58.999Z</time></trkpt><trkpt lat="44.771669167879104" lon="9.937193935512312"><ele>354.8571428571429</ele><time>2026-05-02T16:45:00.999Z</time></trkpt><trkpt lat="44.77160536976075" lon="9.93717225612068"><ele>356.14285714285717</ele><time>2026-05-02T16:45:03.999Z</time></trkpt><trkpt lat="44.771530478196254" lon="9.937150497007607"><ele>357.42857142857144</ele><time>2026-05-02T16:45:07.999Z</time></trkpt><trkpt lat="44.77145396486762" lon="9.937126256526321"><ele>358.7142857142857</ele><time>2026-05-02T16:45:11.999Z</time></trkpt><trkpt lat="44.77137684747026" lon="9.937107519395884"><ele>360.0</ele><time>2026-05-02T16:45:14.999Z</time></trkpt><trkpt lat="44.77129594936037" lon="9.937088575787602"><ele>360.0</ele><time>2026-05-02T16:45:18.999Z</time></trkpt><trkpt lat="44.771231688332364" lon="9.937078895530426"><ele>360.0</ele><time>2026-05-02T16:45:21.999Z</time></trkpt><trkpt lat="44.77116732926846" lon="9.937093732123293"><ele>360.0</ele><time>2026-05-02T16:45:24.999Z</time></trkpt><trkpt lat="44.77111330372571" lon="9.9371447081864"><ele>360.0</ele><time>2026-05-02T16:45:27.999Z</time></trkpt><trkpt lat="44.77110921881751" lon="9.937254164943484"><ele>360.0</ele><time>2026-05-02T16:45:31.999Z</time></trkpt><trkpt lat="44.771164157159866" lon="9.937338841891572"><ele>360.0</ele><time>2026-05-02T16:45:35.999Z</time></trkpt><trkpt lat="44.77122584886052" lon="9.937373052773333"><ele>360.0</ele><time>2026-05-02T16:45:38.999Z</time></trkpt><trkpt lat="44.77128979230847" lon="9.93739734996406"><ele>360.0</ele><time>2026-05-02T16:45:41.999Z</time></trkpt><trkpt lat="44.77136533829042" lon="9.937413202697716"><ele>360.0</ele><time>2026-05-02T16:45:44.999Z</time></trkpt><trkpt lat="44.77144901726882" lon="9.937437808046939"><ele>360.0</ele><time>2026-05-02T16:45:47.998Z</time></trkpt><trkpt lat="44.77153134198952" lon="9.93747138275819"><ele>360.0</ele><time>2026-05-02T16:45:51.998Z</time></trkpt><trkpt lat="44.77160452461535" lon="9.937513716974957"><ele>360.0</ele><time>2026-05-02T16:45:54.998Z</time></trkpt><trkpt lat="44.7716527408529" lon="9.937592872315722"><ele>360.0</ele><time>2026-05-02T16:45:57.998Z</time></trkpt><trkpt lat="44.77161646008901" lon="9.937672413247384"><ele>362.57142857142856</ele><time>2026-05-02T16:46:00.998Z</time></trkpt><trkpt lat="44.77155414738014" lon="9.937650901864748"><ele>365.14285714285717</ele><time>2026-05-02T16:46:03.998Z</time></trkpt><trkpt lat="44.771477022452224" lon="9.937617276683193"><ele>367.7142857142857</ele><time>2026-05-02T16:46:07.998Z</time></trkpt><trkpt lat="44.771410004119105" lon="9.937596608571354"><ele>370.2857142857143</ele><time>2026-05-02T16:46:10.998Z</time></trkpt><trkpt lat="44.771335428232405" lon="9.937594154743838"><ele>372.8571428571429</ele><time>2026-05-02T16:46:13.998Z</time></trkpt><trkpt lat="44.77125914742645" lon="9.937620225282688"><ele>375.42857142857144</ele><time>2026-05-02T16:46:16.998Z</time></trkpt><trkpt lat="44.77119651836188" lon="9.937660537623353"><ele>378.0</ele><time>2026-05-02T16:46:19.998Z</time></trkpt><trkpt lat="44.77114301573074" lon="9.937718396708583"><ele>378.0</ele><time>2026-05-02T16:46:22.998Z</time></trkpt><trkpt lat="44.77109085576946" lon="9.93778483787358"><ele>378.0</ele><time>2026-05-02T16:46:26Z</time></trkpt><trkpt lat="44.77104011303671" lon="9.937857149030432"><ele>378.0</ele><time>2026-05-02T16:46:29Z</time></trkpt><trkpt lat="44.77098433971983" lon="9.937925054365632"><ele>378.0</ele><time>2026-05-02T16:46:32Z</time></trkpt><trkpt lat="44.770922139224524" lon="9.93798764847657"><ele>378.0</ele><time>2026-05-02T16:46:35Z</time></trkpt><trkpt lat="44.77084611712346" lon="9.938026010196152"><ele>378.0</ele><time>2026-05-02T16:46:38Z</time></trkpt><trkpt lat="44.770751885300164" lon="9.938020445593665"><ele>378.1666666666667</ele><time>2026-05-02T16:46:41Z</time></trkpt><trkpt lat="44.77069263638121" lon="9.937973420890803"><ele>378.3333333333333</ele><time>2026-05-02T16:46:44Z</time></trkpt><trkpt lat="44.77065236334348" lon="9.937898856712374"><ele>378.5</ele><time>2026-05-02T16:46:47Z</time></trkpt><trkpt lat="44.770604066724914" lon="9.937800742291305"><ele>378.66666666666663</ele><time>2026-05-02T16:46:51Z</time></trkpt><trkpt lat="44.77055166859126" lon="9.937707366519188"><ele>378.8333333333333</ele><time>2026-05-02T16:46:54Z</time></trkpt><trkpt lat="44.77049306304418" lon="9.937635459743582"><ele>379.0</ele><time>2026-05-02T16:46:57.999Z</time></trkpt><trkpt lat="44.7704179615032" lon="9.93760119481303"><ele>379.0</ele><time>2026-05-02T16:47:00.999Z</time></trkpt><trkpt lat="44.770321718776785" lon="9.937611889034295"><ele>379.0</ele><time>2026-05-02T16:47:03.999Z</time></trkpt><trkpt lat="44.770241135813436" lon="9.937660130400053"><ele>379.0</ele><time>2026-05-02T16:47:06.999Z</time></trkpt><trkpt lat="44.770184210062354" lon="9.937736362793363"><ele>379.0</ele><time>2026-05-02T16:47:08.999Z</time></trkpt><trkpt lat="44.77015604596647" lon="9.937840909226527"><ele>379.0</ele><time>2026-05-02T16:47:11.999Z</time></trkpt><trkpt lat="44.77014029516296" lon="9.937969805087736"><ele>379.0</ele><time>2026-05-02T16:47:13.999Z</time></trkpt><trkpt lat="44.77016279620737" lon="9.938066689517077"><ele>379.00000000000006</ele><time>2026-05-02T16:47:15.999Z</time></trkpt><trkpt lat="44.77020202020951" lon="9.93814907928814"><ele>379.0</ele><time>2026-05-02T16:47:17.999Z</time></trkpt><trkpt lat="44.7702539844079" lon="9.938212705771338"><ele>379.0</ele><time>2026-05-02T16:47:19.999Z</time></trkpt><trkpt lat="44.77030897621071" lon="9.938269053028725"><ele>379.0</ele><time>2026-05-02T16:47:21.999Z</time></trkpt><trkpt lat="44.77036679872859" lon="9.93832829242416"><ele>379.0</ele><time>2026-05-02T16:47:23.999Z</time></trkpt><trkpt lat="44.77043662751028" lon="9.938384145929161"><ele>379.00000000000006</ele><time>2026-05-02T16:47:26.999Z</time></trkpt><trkpt lat="44.770500295520385" lon="9.938446260290805"><ele>379.0</ele><time>2026-05-02T16:47:29.999Z</time></trkpt><trkpt lat="44.770546304767045" lon="9.938540610376156"><ele>380.8333333333333</ele><time>2026-05-02T16:47:32.999Z</time></trkpt><trkpt lat="44.770635838970016" lon="9.938596131106394"><ele>382.66666666666663</ele><time>2026-05-02T16:47:36.999Z</time></trkpt><trkpt lat="44.77069257301938" lon="9.938651867631297"><ele>384.5</ele><time>2026-05-02T16:47:39.999Z</time></trkpt><trkpt lat="44.77075857917865" lon="9.938703259352264"><ele>386.3333333333333</ele><time>2026-05-02T16:47:42.999Z</time></trkpt><trkpt lat="44.77082920443175" lon="9.938735934874785"><ele>388.1666666666667</ele><time>2026-05-02T16:47:45.999Z</time></trkpt><trkpt lat="44.770910796348716" lon="9.93874779109444"><ele>390.0</ele><time>2026-05-02T16:47:48.999Z</time></trkpt><trkpt lat="44.770993956806336" lon="9.93873368621291"><ele>390.1666666666667</ele><time>2026-05-02T16:47:51.998Z</time></trkpt><trkpt lat="44.77107389623018" lon="9.938713492034415"><ele>390.33333333333337</ele><time>2026-05-02T16:47:54.998Z</time></trkpt><trkpt lat="44.77114619879465" lon="9.938688549874954"><ele>390.5</ele><time>2026-05-02T16:47:57.998Z</time></trkpt><trkpt lat="44.77121700766875" lon="9.938666572964141"><ele>390.6666666666667</ele><time>2026-05-02T16:48:00.998Z</time></trkpt><trkpt lat="44.771291823036144" lon="9.93865041462808"><ele>390.83333333333337</ele><time>2026-05-02T16:48:03.998Z</time></trkpt><trkpt lat="44.771368838540525" lon="9.938639411979501"><ele>391.0</ele><time>2026-05-02T16:48:06.998Z</time></trkpt><trkpt lat="44.771441547113795" lon="9.938655440605086"><ele>390.99999999999994</ele><time>2026-05-02T16:48:09.998Z</time></trkpt><trkpt lat="44.77151083683447" lon="9.938692422772899"><ele>391.0</ele><time>2026-05-02T16:48:12.998Z</time></trkpt><trkpt lat="44.77156365326658" lon="9.938743847839923"><ele>391.0</ele><time>2026-05-02T16:48:15.998Z</time></trkpt><trkpt lat="44.771613351099994" lon="9.938812979202082"><ele>391.0</ele><time>2026-05-02T16:48:18.998Z</time></trkpt><trkpt lat="44.77166015377996" lon="9.938887273931927"><ele>391.0</ele><time>2026-05-02T16:48:21.998Z</time></trkpt><trkpt lat="44.77169637171529" lon="9.938975922162038"><ele>390.99999999999994</ele><time>2026-05-02T16:48:24.998Z</time></trkpt><trkpt lat="44.77172332088779" lon="9.939091089626704"><ele>391.0</ele><time>2026-05-02T16:48:27.998Z</time></trkpt><trkpt lat="44.77173071197006" lon="9.939190120192837"><ele>389.1428571428571</ele><time>2026-05-02T16:48:31Z</time></trkpt><trkpt lat="44.77172758318241" lon="9.939279034115895"><ele>387.2857142857143</ele><time>2026-05-02T16:48:34Z</time></trkpt><trkpt lat="44.77171193668156" lon="9.939377416649688"><ele>385.42857142857144</ele><time>2026-05-02T16:48:37Z</time></trkpt><trkpt lat="44.77168572024585" lon="9.939460140878559"><ele>383.57142857142856</ele><time>2026-05-02T16:48:40Z</time></trkpt><trkpt lat="44.771650794628854" lon="9.93953425000897"><ele>381.7142857142857</ele><time>2026-05-02T16:48:43Z</time></trkpt><trkpt lat="44.77160512499527" lon="9.939600429037034"><ele>379.85714285714283</ele><time>2026-05-02T16:48:46Z</time></trkpt><trkpt lat="44.77154970105561" lon="9.939655040520282"><ele>378.0</ele><time>2026-05-02T16:48:49Z</time></trkpt><trkpt lat="44.771488997082905" lon="9.939692466642137"><ele>378.0</ele><time>2026-05-02T16:48:52Z</time></trkpt><trkpt lat="44.77142703127014" lon="9.939730580374603"><ele>378.0</ele><time>2026-05-02T16:48:55Z</time></trkpt><trkpt lat="44.771358808976984" lon="9.939761941046942"><ele>378.0</ele><time>2026-05-02T16:48:58Z</time></trkpt><trkpt lat="44.77129009227609" lon="9.939799905099658"><ele>378.0</ele><time>2026-05-02T16:49:01.999Z</time></trkpt><trkpt lat="44.77122413306754" lon="9.939829672755419"><ele>378.0</ele><time>2026-05-02T16:49:04.999Z</time></trkpt><trkpt lat="44.77115880601617" lon="9.939874551658177"><ele>378.0</ele><time>2026-05-02T16:49:07.999Z</time></trkpt><trkpt lat="44.77108587547552" lon="9.939926332837334"><ele>378.0</ele><time>2026-05-02T16:49:10.999Z</time></trkpt><trkpt lat="44.77102976233533" lon="9.93997053622123"><ele>380.14285714285717</ele><time>2026-05-02T16:49:13.999Z</time></trkpt><trkpt lat="44.77096852427641" lon="9.940024471558093"><ele>382.2857142857143</ele><time>2026-05-02T16:49:16.999Z</time></trkpt><trkpt lat="44.77091122241358" lon="9.940074308631512"><ele>384.42857142857144</ele><time>2026-05-02T16:49:19.999Z</time></trkpt><trkpt lat="44.770851733171035" lon="9.940127938706993"><ele>386.57142857142856</ele><time>2026-05-02T16:49:22.999Z</time></trkpt><trkpt lat="44.77078866040638" lon="9.94017773404065"><ele>388.7142857142857</ele><time>2026-05-02T16:49:25.999Z</time></trkpt><trkpt lat="44.77072762080766" lon="9.940218372293996"><ele>390.8571428571429</ele><time>2026-05-02T16:49:28.999Z</time></trkpt><trkpt lat="44.770661791476634" lon="9.940256814702893"><ele>393.0</ele><time>2026-05-02T16:49:31.999Z</time></trkpt><trkpt lat="44.77059628023652" lon="9.940289802050339"><ele>393.00000000000006</ele><time>2026-05-02T16:49:34.999Z</time></trkpt><trkpt lat="44.77051688232416" lon="9.94032481210033"><ele>393.0</ele><time>2026-05-02T16:49:38.999Z</time></trkpt><trkpt lat="44.77044762122284" lon="9.940358402283879"><ele>393.0</ele><time>2026-05-02T16:49:41.999Z</time></trkpt><trkpt lat="44.77037942050575" lon="9.940388315364205"><ele>393.0</ele><time>2026-05-02T16:49:44.999Z</time></trkpt><trkpt lat="44.77031641511584" lon="9.940438116073347"><ele>393.0</ele><time>2026-05-02T16:49:47.999Z</time></trkpt><trkpt lat="44.77025637401224" lon="9.940496677218833"><ele>393.00000000000006</ele><time>2026-05-02T16:49:50.999Z</time></trkpt><trkpt lat="44.770205722428265" lon="9.940573813447589"><ele>393.0</ele><time>2026-05-02T16:49:53.999Z</time></trkpt><trkpt lat="44.77015964269051" lon="9.94065953981709"><ele>395.00000000000006</ele><time>2026-05-02T16:49:56.998Z</time></trkpt><trkpt lat="44.77012006006025" lon="9.940748609140137"><ele>397.0</ele><time>2026-05-02T16:49:59.998Z</time></trkpt><trkpt lat="44.770084504367205" lon="9.940841793536691"><ele>399.0</ele><time>2026-05-02T16:50:02.998Z</time></trkpt><trkpt lat="44.770050864787265" lon="9.940933320773775"><ele>401.0</ele><time>2026-05-02T16:50:05.998Z</time></trkpt><trkpt lat="44.77001920449852" lon="9.941024437707192"><ele>403.0</ele><time>2026-05-02T16:50:08.998Z</time></trkpt><trkpt lat="44.76998239928483" lon="9.941114843513875"><ele>405.00000000000006</ele><time>2026-05-02T16:50:11.998Z</time></trkpt><trkpt lat="44.769940937521675" lon="9.941205650168635"><ele>407.0</ele><time>2026-05-02T16:50:14.998Z</time></trkpt><trkpt lat="44.76989509012365" lon="9.94129318202954"><ele>407.8333333333333</ele><time>2026-05-02T16:50:17.998Z</time></trkpt><trkpt lat="44.76984635742719" lon="9.941375646057443"><ele>408.66666666666663</ele><time>2026-05-02T16:50:20.998Z</time></trkpt><trkpt lat="44.76979359713353" lon="9.941452613317203"><ele>409.5</ele><time>2026-05-02T16:50:23.998Z</time></trkpt><trkpt lat="44.76973631357039" lon="9.941522554735743"><ele>410.33333333333337</ele><time>2026-05-02T16:50:26.998Z</time></trkpt><trkpt lat="44.76967513969065" lon="9.941580261808017"><ele>411.1666666666667</ele><time>2026-05-02T16:50:29.998Z</time></trkpt><trkpt lat="44.769611244598934" lon="9.94163145981845"><ele>412.0</ele><time>2026-05-02T16:50:32.998Z</time></trkpt><trkpt lat="44.769542793198475" lon="9.941676893337528"><ele>411.99999999999994</ele><time>2026-05-02T16:50:35.998Z</time></trkpt><trkpt lat="44.76947137380061" lon="9.941706313608782"><ele>412.0</ele><time>2026-05-02T16:50:39Z</time></trkpt><trkpt lat="44.76939900722782" lon="9.94172430002951"><ele>412.0</ele><time>2026-05-02T16:50:42Z</time></trkpt><trkpt lat="44.769326090239545" lon="9.941723652914028"><ele>412.0</ele><time>2026-05-02T16:50:45Z</time></trkpt><trkpt lat="44.76925518333695" lon="9.941717099369017"><ele>412.0</ele><time>2026-05-02T16:50:48Z</time></trkpt><trkpt lat="44.769184200253655" lon="9.941707470206092"><ele>411.99999999999994</ele><time>2026-05-02T16:50:51Z</time></trkpt><trkpt lat="44.769114013519435" lon="9.941681014434185"><ele>412.0</ele><time>2026-05-02T16:50:54Z</time></trkpt><trkpt lat="44.769046828523706" lon="9.941656389914979"><ele>412.4285714285714</ele><time>2026-05-02T16:50:57Z</time></trkpt><trkpt lat="44.7689795945299" lon="9.941631524460172"><ele>412.85714285714283</ele><time>2026-05-02T16:51:00Z</time></trkpt><trkpt lat="44.76891623152542" lon="9.941599379824796"><ele>413.2857142857143</ele><time>2026-05-02T16:51:03Z</time></trkpt><trkpt lat="44.76885457176492" lon="9.94155691202337"><ele>413.71428571428567</ele><time>2026-05-02T16:51:06Z</time></trkpt><trkpt lat="44.76879698807598" lon="9.941507759375114"><ele>414.14285714285717</ele><time>2026-05-02T16:51:08.999Z</time></trkpt><trkpt lat="44.768735547254714" lon="9.941447376144245"><ele>414.57142857142856</ele><time>2026-05-02T16:51:11.999Z</time></trkpt><trkpt lat="44.76868092569569" lon="9.941370529471278"><ele>415.0</ele><time>2026-05-02T16:51:14.999Z</time></trkpt><trkpt lat="44.76865088469381" lon="9.941283603114528"><ele>415.0</ele><time>2026-05-02T16:51:17.999Z</time></trkpt><trkpt lat="44.76863436638119" lon="9.94119284399942"><ele>415.0</ele><time>2026-05-02T16:51:20.999Z</time></trkpt><trkpt lat="44.768615542822666" lon="9.941104029103778"><ele>415.0</ele><time>2026-05-02T16:51:23.999Z</time></trkpt><trkpt lat="44.768594511308514" lon="9.94101386991502"><ele>415.0</ele><time>2026-05-02T16:51:26.999Z</time></trkpt><trkpt lat="44.76857131646922" lon="9.940926602404828"><ele>415.0</ele><time>2026-05-02T16:51:29.999Z</time></trkpt><trkpt lat="44.76854329329104" lon="9.940837743583677"><ele>415.0</ele><time>2026-05-02T16:51:32.999Z</time></trkpt><trkpt lat="44.768507472890654" lon="9.940755347827977"><ele>415.0</ele><time>2026-05-02T16:51:35.999Z</time></trkpt><trkpt lat="44.76846168055767" lon="9.94068187931134"><ele>416.42857142857144</ele><time>2026-05-02T16:51:38.999Z</time></trkpt><trkpt lat="44.76840822141732" lon="9.940616352897782"><ele>417.8571428571429</ele><time>2026-05-02T16:51:41.999Z</time></trkpt><trkpt lat="44.76835081310382" lon="9.940560147945087"><ele>419.2857142857143</ele><time>2026-05-02T16:51:44.999Z</time></trkpt><trkpt lat="44.768292483573404" lon="9.940500161250368"><ele>420.7142857142857</ele><time>2026-05-02T16:51:47.999Z</time></trkpt><trkpt lat="44.768227763074364" lon="9.940453686192551"><ele>422.1428571428571</ele><time>2026-05-02T16:51:50.999Z</time></trkpt><trkpt lat="44.76815530703118" lon="9.94041606973784"><ele>423.57142857142856</ele><time>2026-05-02T16:51:53.999Z</time></trkpt><trkpt lat="44.768079597377145" lon="9.940385735089949"><ele>425.0</ele><time>2026-05-02T16:51:56.999Z</time></trkpt><trkpt lat="44.76800022286314" lon="9.940353217176632"><ele>424.99999999999994</ele><time>2026-05-02T16:51:59.998Z</time></trkpt><trkpt lat="44.7679213212651" lon="9.940329391953798"><ele>425.0</ele><time>2026-05-02T16:52:02.998Z</time></trkpt><trkpt lat="44.76784098971044" lon="9.940317199860365"><ele>425.0</ele><time>2026-05-02T16:52:05.998Z</time></trkpt><trkpt lat="44.76776788829212" lon="9.940322307837695"><ele>425.0</ele><time>2026-05-02T16:52:08.998Z</time></trkpt><trkpt lat="44.76768975633116" lon="9.940339921349594"><ele>424.99999999999994</ele><time>2026-05-02T16:52:11.998Z</time></trkpt><trkpt lat="44.76761405623684" lon="9.940359078099979"><ele>425.0</ele><time>2026-05-02T16:52:14.998Z</time></trkpt><trkpt lat="44.767537043230305" lon="9.940367543741477"><ele>425.66666666666663</ele><time>2026-05-02T16:52:17.998Z</time></trkpt><trkpt lat="44.76745915653273" lon="9.940376316423798"><ele>426.3333333333333</ele><time>2026-05-02T16:52:20.998Z</time></trkpt><trkpt lat="44.76738402851049" lon="9.940389729637134"><ele>427.0</ele><time>2026-05-02T16:52:23.998Z</time></trkpt><trkpt lat="44.76730581367597" lon="9.940397936820236"><ele>427.66666666666663</ele><time>2026-05-02T16:52:26.998Z</time></trkpt><trkpt lat="44.76722482083577" lon="9.940406110945332"><ele>428.3333333333333</ele><time>2026-05-02T16:52:29.998Z</time></trkpt><trkpt lat="44.76714185790585" lon="9.940425260204874"><ele>429.0</ele><time>2026-05-02T16:52:32.998Z</time></trkpt><trkpt lat="44.76707614931975" lon="9.940439880570356"><ele>429.0</ele><time>2026-05-02T16:52:34.998Z</time></trkpt><trkpt lat="44.76699717802701" lon="9.940470183644411"><ele>429.0</ele><time>2026-05-02T16:52:37.998Z</time></trkpt><trkpt lat="44.766917216787455" lon="9.940482094072602"><ele>429.0</ele><time>2026-05-02T16:52:40.998Z</time></trkpt><trkpt lat="44.7668377601773" lon="9.940501874604763"><ele>429.0</ele><time>2026-05-02T16:52:44Z</time></trkpt><trkpt lat="44.76676104810013" lon="9.940522399264998"><ele>429.0</ele><time>2026-05-02T16:52:47Z</time></trkpt><trkpt lat="44.766685457137505" lon="9.940542864379367"><ele>429.0</ele><time>2026-05-02T16:52:50Z</time></trkpt><trkpt lat="44.76661701322292" lon="9.940570690601692"><ele>429.42857142857144</ele><time>2026-05-02T16:52:53Z</time></trkpt><trkpt lat="44.76655428981509" lon="9.94059129477335"><ele>429.8571428571429</ele><time>2026-05-02T16:52:56Z</time></trkpt><trkpt lat="44.7664849131079" lon="9.940623340023862"><ele>430.2857142857143</ele><time>2026-05-02T16:52:59Z</time></trkpt><trkpt lat="44.766415728555344" lon="9.940661511979238"><ele>430.7142857142857</ele><time>2026-05-02T16:53:02Z</time></trkpt><trkpt lat="44.766343163540014" lon="9.940695812873827"><ele>431.1428571428571</ele><time>2026-05-02T16:53:05Z</time></trkpt><trkpt lat="44.76627196700658" lon="9.94072963214579"><ele>431.57142857142856</ele><time>2026-05-02T16:53:08Z</time></trkpt><trkpt lat="44.766201437007446" lon="9.940752450555982"><ele>432.0</ele><time>2026-05-02T16:53:10.999Z</time></trkpt><trkpt lat="44.76612343794818" lon="9.94077529706426"><ele>432.0</ele><time>2026-05-02T16:53:13.999Z</time></trkpt><trkpt lat="44.76603591334327" lon="9.940814413441286"><ele>432.0</ele><time>2026-05-02T16:53:16.999Z</time></trkpt><trkpt lat="44.76596819337775" lon="9.94084917254647"><ele>432.0</ele><time>2026-05-02T16:53:19.999Z</time></trkpt><trkpt lat="44.76590193824778" lon="9.9408794782006"><ele>432.0</ele><time>2026-05-02T16:53:22.999Z</time></trkpt><trkpt lat="44.76583097666627" lon="9.940908193998654"><ele>432.0</ele><time>2026-05-02T16:53:25.999Z</time></trkpt><trkpt lat="44.76575896455285" lon="9.940940666815766"><ele>432.0</ele><time>2026-05-02T16:53:28.999Z</time></trkpt><trkpt lat="44.76568814231054" lon="9.940980289502736"><ele>432.0</ele><time>2026-05-02T16:53:31.999Z</time></trkpt><trkpt lat="44.76561734326354" lon="9.941022247510055"><ele>432.0</ele><time>2026-05-02T16:53:34.999Z</time></trkpt><trkpt lat="44.76554861768586" lon="9.941068874350856"><ele>432.0</ele><time>2026-05-02T16:53:37.999Z</time></trkpt><trkpt lat="44.76548747088987" lon="9.941111245288704"><ele>432.0</ele><time>2026-05-02T16:53:39.999Z</time></trkpt><trkpt lat="44.7654082982711" lon="9.941173715797913"><ele>432.0</ele><time>2026-05-02T16:53:42.999Z</time></trkpt><trkpt lat="44.76532954585935" lon="9.941220853492132"><ele>432.0</ele><time>2026-05-02T16:53:46.999Z</time></trkpt><trkpt lat="44.76526207304123" lon="9.94125887991755"><ele>432.0</ele><time>2026-05-02T16:53:49.999Z</time></trkpt><trkpt lat="44.7651968844334" lon="9.941307070593366"><ele>432.0</ele><time>2026-05-02T16:53:52.999Z</time></trkpt><trkpt lat="44.76513440528681" lon="9.941363858119827"><ele>432.0</ele><time>2026-05-02T16:53:55.999Z</time></trkpt><trkpt lat="44.765063636614414" lon="9.941410523662615"><ele>432.0</ele><time>2026-05-02T16:53:58.999Z</time></trkpt><trkpt lat="44.76500063753964" lon="9.941460367172686"><ele>432.0</ele><time>2026-05-02T16:54:01.999Z</time></trkpt><trkpt lat="44.764937061668476" lon="9.941509981837639"><ele>432.0</ele><time>2026-05-02T16:54:04.998Z</time></trkpt><trkpt lat="44.76487091421503" lon="9.94156001377638"><ele>432.0</ele><time>2026-05-02T16:54:07.998Z</time></trkpt><trkpt lat="44.76481262047639" lon="9.941606581839457"><ele>432.85714285714283</ele><time>2026-05-02T16:54:10.998Z</time></trkpt><trkpt lat="44.764753656559684" lon="9.941661816262318"><ele>433.71428571428567</ele><time>2026-05-02T16:54:13.998Z</time></trkpt><trkpt lat="44.764690668832095" lon="9.941703625410849"><ele>434.57142857142856</ele><time>2026-05-02T16:54:16.998Z</time></trkpt><trkpt lat="44.76461754606545" lon="9.941755058051115"><ele>435.42857142857144</ele><time>2026-05-02T16:54:19.998Z</time></trkpt><trkpt lat="44.76455155228516" lon="9.941805203088752"><ele>436.2857142857143</ele><time>2026-05-02T16:54:23.998Z</time></trkpt><trkpt lat="44.764493012549906" lon="9.941855293212774"><ele>437.14285714285717</ele><time>2026-05-02T16:54:26.998Z</time></trkpt><trkpt lat="44.76443344312861" lon="9.941903213332589"><ele>438.0</ele><time>2026-05-02T16:54:29.998Z</time></trkpt><trkpt lat="44.76437743543799" lon="9.941948677335768"><ele>440.42857142857144</ele><time>2026-05-02T16:54:32.998Z</time></trkpt><trkpt lat="44.76432102379302" lon="9.941992543220806"><ele>442.85714285714283</ele><time>2026-05-02T16:54:35.998Z</time></trkpt><trkpt lat="44.76426431286792" lon="9.942034727614509"><ele>445.2857142857143</ele><time>2026-05-02T16:54:38.998Z</time></trkpt><trkpt lat="44.76418860466045" lon="9.94208699375558"><ele>447.7142857142857</ele><time>2026-05-02T16:54:42.998Z</time></trkpt><trkpt lat="44.764131498116" lon="9.942137816055125"><ele>450.1428571428571</ele><time>2026-05-02T16:54:45.998Z</time></trkpt><trkpt lat="44.76408080097637" lon="9.942192996958878"><ele>452.57142857142856</ele><time>2026-05-02T16:54:49Z</time></trkpt><trkpt lat="44.764028402529675" lon="9.942246436759577"><ele>455.0</ele><time>2026-05-02T16:54:52Z</time></trkpt><trkpt lat="44.76397730233759" lon="9.94229945827297"><ele>455.0</ele><time>2026-05-02T16:54:55Z</time></trkpt><trkpt lat="44.763925746461936" lon="9.942351084547067"><ele>455.0</ele><time>2026-05-02T16:54:58Z</time></trkpt><trkpt lat="44.763873358380245" lon="9.942406571884442"><ele>455.0</ele><time>2026-05-02T16:55:01Z</time></trkpt><trkpt lat="44.76382171361976" lon="9.942465544306026"><ele>455.0</ele><time>2026-05-02T16:55:04Z</time></trkpt><trkpt lat="44.76376768077288" lon="9.942511489952592"><ele>455.0</ele><time>2026-05-02T16:55:07Z</time></trkpt><trkpt lat="44.763705704896495" lon="9.942548282154911"><ele>455.0</ele><time>2026-05-02T16:55:10Z</time></trkpt><trkpt lat="44.7636447911895" lon="9.94258693159525"><ele>455.0</ele><time>2026-05-02T16:55:13Z</time></trkpt><trkpt lat="44.763581203026284" lon="9.942622153618933"><ele>456.2857142857143</ele><time>2026-05-02T16:55:15.999Z</time></trkpt><trkpt lat="44.76351910016844" lon="9.94264822530421"><ele>457.57142857142856</ele><time>2026-05-02T16:55:18.999Z</time></trkpt><trkpt lat="44.763457810461794" lon="9.94267682545767"><ele>458.8571428571429</ele><time>2026-05-02T16:55:21.999Z</time></trkpt><trkpt lat="44.76339436984249" lon="9.942697218133919"><ele>460.14285714285717</ele><time>2026-05-02T16:55:24.999Z</time></trkpt><trkpt lat="44.76333272981088" lon="9.942717475202144"><ele>461.42857142857144</ele><time>2026-05-02T16:55:27.999Z</time></trkpt><trkpt lat="44.76325179037117" lon="9.94271672695106"><ele>462.7142857142858</ele><time>2026-05-02T16:55:31.999Z</time></trkpt><trkpt lat="44.76319150703493" lon="9.942644364707123"><ele>464.00000000000006</ele><time>2026-05-02T16:55:35.999Z</time></trkpt><trkpt lat="44.76318403618773" lon="9.942533121713087"><ele>464.28571428571433</ele><time>2026-05-02T16:55:39.999Z</time></trkpt><trkpt lat="44.763205688653024" lon="9.94242339152151"><ele>464.57142857142856</ele><time>2026-05-02T16:55:43.999Z</time></trkpt><trkpt lat="44.7632462655448" lon="9.942325412411948"><ele>464.8571428571429</ele><time>2026-05-02T16:55:47.999Z</time></trkpt><trkpt lat="44.763277604774096" lon="9.942247661151546"><ele>465.14285714285717</ele><time>2026-05-02T16:55:50.999Z</time></trkpt><trkpt lat="44.763310204456374" lon="9.942171389568305"><ele>465.42857142857144</ele><time>2026-05-02T16:55:53.999Z</time></trkpt><trkpt lat="44.76334117358261" lon="9.942091958257285"><ele>465.7142857142857</ele><time>2026-05-02T16:55:56.999Z</time></trkpt><trkpt lat="44.7633870612405" lon="9.941995076019147"><ele>466.0</ele><time>2026-05-02T16:56:00.999Z</time></trkpt><trkpt lat="44.76343392458801" lon="9.941897346448833"><ele>466.0</ele><time>2026-05-02T16:56:04.999Z</time></trkpt><trkpt lat="44.7634749751421" lon="9.941827157038617"><ele>466.0</ele><time>2026-05-02T16:56:07.999Z</time></trkpt><trkpt lat="44.76351378317249" lon="9.94175194204151"><ele>466.0</ele><time>2026-05-02T16:56:10.998Z</time></trkpt><trkpt lat="44.763552754147284" lon="9.941676464004452"><ele>466.0</ele><time>2026-05-02T16:56:13.998Z</time></trkpt><trkpt lat="44.763590879423035" lon="9.94160550953459"><ele>466.0</ele><time>2026-05-02T16:56:16.998Z</time></trkpt><trkpt lat="44.76364308106148" lon="9.941512155135957"><ele>466.0</ele><time>2026-05-02T16:56:20.998Z</time></trkpt><trkpt lat="44.76368287860577" lon="9.941440651197285"><ele>466.0</ele><time>2026-05-02T16:56:23.998Z</time></trkpt><trkpt lat="44.76372337530358" lon="9.941367468706684"><ele>465.28571428571433</ele><time>2026-05-02T16:56:26.998Z</time></trkpt><trkpt lat="44.763760270506424" lon="9.94129165756706"><ele>464.57142857142856</ele><time>2026-05-02T16:56:29.998Z</time></trkpt><trkpt lat="44.76379605856586" lon="9.94121171029285"><ele>463.8571428571429</ele><time>2026-05-02T16:56:32.998Z</time></trkpt><trkpt lat="44.76383330948055" lon="9.9411365131677"><ele>463.14285714285717</ele><time>2026-05-02T16:56:35.998Z</time></trkpt><trkpt lat="44.763873524347126" lon="9.941059499950413"><ele>462.42857142857144</ele><time>2026-05-02T16:56:38.998Z</time></trkpt><trkpt lat="44.76390790643197" lon="9.940973627753465"><ele>461.7142857142857</ele><time>2026-05-02T16:56:41.998Z</time></trkpt><trkpt lat="44.76393818511718" lon="9.940883601994566"><ele>461.0</ele><time>2026-05-02T16:56:44.998Z</time></trkpt><trkpt lat="44.76396326220374" lon="9.940793462026612"><ele>462.42857142857144</ele><time>2026-05-02T16:56:47.998Z</time></trkpt><trkpt lat="44.7639827482793" lon="9.94070156708966"><ele>463.8571428571429</ele><time>2026-05-02T16:56:50.998Z</time></trkpt><trkpt lat="44.76398162854246" lon="9.940604679645693"><ele>465.28571428571433</ele><time>2026-05-02T16:56:53.998Z</time></trkpt><trkpt lat="44.76393776978091" lon="9.940535462380023"><ele>466.7142857142858</ele><time>2026-05-02T16:56:57Z</time></trkpt><trkpt lat="44.7638739162846" lon="9.940552808588091"><ele>468.14285714285717</ele><time>2026-05-02T16:57:00Z</time></trkpt><trkpt lat="44.76379963378114" lon="9.940650677108694"><ele>469.57142857142867</ele><time>2026-05-02T16:57:04Z</time></trkpt><trkpt lat="44.76375970042219" lon="9.94073590982519"><ele>471.00000000000006</ele><time>2026-05-02T16:57:08Z</time></trkpt><trkpt lat="44.76371327000596" lon="9.940815541348579"><ele>472.1666666666667</ele><time>2026-05-02T16:57:11Z</time></trkpt><trkpt lat="44.76365324802616" lon="9.940885261689516"><ele>473.33333333333337</ele><time>2026-05-02T16:57:14Z</time></trkpt><trkpt lat="44.763580494817184" lon="9.94094989739041"><ele>474.5</ele><time>2026-05-02T16:57:17Z</time></trkpt><trkpt lat="44.76350593680802" lon="9.940988279204667"><ele>475.6666666666667</ele><time>2026-05-02T16:57:20.999Z</time></trkpt><trkpt lat="44.763438395701954" lon="9.941031448512057"><ele>476.83333333333337</ele><time>2026-05-02T16:57:23.999Z</time></trkpt><trkpt lat="44.76336705949631" lon="9.941069886195793"><ele>478.0</ele><time>2026-05-02T16:57:26.999Z</time></trkpt><trkpt lat="44.76329971175177" lon="9.941092864580668"><ele>478.00000000000006</ele><time>2026-05-02T16:57:29.999Z</time></trkpt><trkpt lat="44.76323514230976" lon="9.941129107701334"><ele>478.0</ele><time>2026-05-02T16:57:31.999Z</time></trkpt><trkpt lat="44.763156245807785" lon="9.941149767080274"><ele>478.0</ele><time>2026-05-02T16:57:34.999Z</time></trkpt><trkpt lat="44.76307880115872" lon="9.941153153700602"><ele>478.0</ele><time>2026-05-02T16:57:37.999Z</time></trkpt><trkpt lat="44.763005838645675" lon="9.94113373856624"><ele>478.00000000000006</ele><time>2026-05-02T16:57:40.999Z</time></trkpt><trkpt lat="44.76293121858696" lon="9.941091647593648"><ele>478.0</ele><time>2026-05-02T16:57:43.999Z</time></trkpt><trkpt lat="44.76285986340419" lon="9.941051563208932"><ele>478.00000000000006</ele><time>2026-05-02T16:57:46.999Z</time></trkpt><trkpt lat="44.76278117347276" lon="9.941012793499551"><ele>478.0</ele><time>2026-05-02T16:57:49.999Z</time></trkpt><trkpt lat="44.76269914878828" lon="9.941003876911635"><ele>478.0</ele><time>2026-05-02T16:57:52.999Z</time></trkpt><trkpt lat="44.76261746362525" lon="9.94103317379006"><ele>478.0</ele><time>2026-05-02T16:57:55.999Z</time></trkpt><trkpt lat="44.76254966230635" lon="9.941103473799073"><ele>478.00000000000006</ele><time>2026-05-02T16:57:58.999Z</time></trkpt><trkpt lat="44.76249147078192" lon="9.941183747609845"><ele>478.0</ele><time>2026-05-02T16:58:01.999Z</time></trkpt><trkpt lat="44.76243510507843" lon="9.94127248638959"><ele>480.1666666666667</ele><time>2026-05-02T16:58:04.999Z</time></trkpt><trkpt lat="44.76238160552029" lon="9.94135969406024"><ele>482.33333333333337</ele><time>2026-05-02T16:58:07.999Z</time></trkpt><trkpt lat="44.762326590486545" lon="9.941448435051527"><ele>484.5</ele><time>2026-05-02T16:58:10.999Z</time></trkpt><trkpt lat="44.762273400743446" lon="9.941529195875107"><ele>486.66666666666663</ele><time>2026-05-02T16:58:13.998Z</time></trkpt><trkpt lat="44.76221204253937" lon="9.941594420051407"><ele>488.8333333333333</ele><time>2026-05-02T16:58:16.998Z</time></trkpt><trkpt lat="44.76215114281691" lon="9.941632433870799"><ele>491.0</ele><time>2026-05-02T16:58:19.998Z</time></trkpt><trkpt lat="44.76208427406991" lon="9.941648325243007"><ele>491.0</ele><time>2026-05-02T16:58:22.998Z</time></trkpt><trkpt lat="44.76201252764263" lon="9.941652083043921"><ele>490.99999999999994</ele><time>2026-05-02T16:58:25.998Z</time></trkpt><trkpt lat="44.76194317939096" lon="9.941646922577307"><ele>491.0</ele><time>2026-05-02T16:58:28.998Z</time></trkpt><trkpt lat="44.761869253615934" lon="9.941633651558208"><ele>491.0</ele><time>2026-05-02T16:58:31.998Z</time></trkpt><trkpt lat="44.76179583098219" lon="9.941637869054016"><ele>490.99999999999994</ele><time>2026-05-02T16:58:34.998Z</time></trkpt><trkpt lat="44.761718495636444" lon="9.941642867343646"><ele>491.0</ele><time>2026-05-02T16:58:37.998Z</time></trkpt><trkpt lat="44.76164225586877" lon="9.941672539202798"><ele>491.0</ele><time>2026-05-02T16:58:40.998Z</time></trkpt><trkpt lat="44.76156201512956" lon="9.94171962098373"><ele>491.66666666666663</ele><time>2026-05-02T16:58:43.998Z</time></trkpt><trkpt lat="44.76150118504354" lon="9.941770248232041"><ele>492.3333333333333</ele><time>2026-05-02T16:58:46.998Z</time></trkpt><trkpt lat="44.76143326839565" lon="9.941831900351485"><ele>493.0</ele><time>2026-05-02T16:58:49.998Z</time></trkpt><trkpt lat="44.76137148099763" lon="9.941898256907633"><ele>493.66666666666663</ele><time>2026-05-02T16:58:52.998Z</time></trkpt><trkpt lat="44.76131267839505" lon="9.941974533738222"><ele>494.3333333333333</ele><time>2026-05-02T16:58:55.998Z</time></trkpt><trkpt lat="44.761257956242986" lon="9.942063249039794"><ele>495.0</ele><time>2026-05-02T16:58:58.998Z</time></trkpt><trkpt lat="44.76120876651065" lon="9.94215305738334"><ele>494.99999999999994</ele><time>2026-05-02T16:59:02Z</time></trkpt><trkpt lat="44.76116247447038" lon="9.942238227375777"><ele>495.0</ele><time>2026-05-02T16:59:05Z</time></trkpt><trkpt lat="44.76111729375795" lon="9.942321929840839"><ele>494.99999999999994</ele><time>2026-05-02T16:59:08Z</time></trkpt><trkpt lat="44.761073261346425" lon="9.942414289901501"><ele>494.99999999999994</ele><time>2026-05-02T16:59:11Z</time></trkpt><trkpt lat="44.761033792361516" lon="9.942498083255925"><ele>495.0</ele><time>2026-05-02T16:59:14Z</time></trkpt><trkpt lat="44.76099448202616" lon="9.942586293717252"><ele>494.99999999999994</ele><time>2026-05-02T16:59:17Z</time></trkpt><trkpt lat="44.76096829138356" lon="9.94268381989049"><ele>494.99999999999994</ele><time>2026-05-02T16:59:20Z</time></trkpt><trkpt lat="44.76095667448939" lon="9.94279083279419"><ele>494.8333333333333</ele><time>2026-05-02T16:59:23Z</time></trkpt><trkpt lat="44.760958295234296" lon="9.942908737095914"><ele>494.66666666666663</ele><time>2026-05-02T16:59:25.999Z</time></trkpt><trkpt lat="44.76097012399243" lon="9.943018752302793"><ele>494.5</ele><time>2026-05-02T16:59:28.999Z</time></trkpt><trkpt lat="44.76100102863661" lon="9.943131486252726"><ele>494.3333333333333</ele><time>2026-05-02T16:59:31.999Z</time></trkpt><trkpt lat="44.76102466016574" lon="9.943232218394119"><ele>494.16666666666663</ele><time>2026-05-02T16:59:34.999Z</time></trkpt><trkpt lat="44.761038208365065" lon="9.943337564089845"><ele>494.0</ele><time>2026-05-02T16:59:37.999Z</time></trkpt><trkpt lat="44.7610381455207" lon="9.943443113019068"><ele>496.66666666666663</ele><time>2026-05-02T16:59:40.999Z</time></trkpt><trkpt lat="44.761028396659185" lon="9.943531745015543"><ele>499.3333333333333</ele><time>2026-05-02T16:59:42.999Z</time></trkpt><trkpt lat="44.76101622253449" lon="9.943644072971205"><ele>502.0</ele><time>2026-05-02T16:59:45.999Z</time></trkpt><trkpt lat="44.76099586598467" lon="9.943758522478078"><ele>504.66666666666663</ele><time>2026-05-02T16:59:48.999Z</time></trkpt><trkpt lat="44.76096930953168" lon="9.943867522667876"><ele>507.3333333333333</ele><time>2026-05-02T16:59:51.999Z</time></trkpt><trkpt lat="44.76093651496211" lon="9.943954297914688"><ele>510.0</ele><time>2026-05-02T16:59:53.999Z</time></trkpt><trkpt lat="44.760876371073756" lon="9.94402035416468"><ele>510.0</ele><time>2026-05-02T16:59:56.999Z</time></trkpt><trkpt lat="44.760802902177645" lon="9.943998912037406"><ele>510.0</ele><time>2026-05-02T16:59:59.999Z</time></trkpt><trkpt lat="44.760744552104086" lon="9.943903457081934"><ele>510.0</ele><time>2026-05-02T17:00:02.999Z</time></trkpt><trkpt lat="44.76072134658827" lon="9.94380645126894"><ele>510.0</ele><time>2026-05-02T17:00:05.999Z</time></trkpt><trkpt lat="44.76069769721915" lon="9.943711375964929"><ele>510.0</ele><time>2026-05-02T17:00:08.999Z</time></trkpt><trkpt lat="44.760668579050204" lon="9.94362122027458"><ele>510.0</ele><time>2026-05-02T17:00:11.999Z</time></trkpt><trkpt lat="44.76064132708726" lon="9.943506004574086"><ele>510.0</ele><time>2026-05-02T17:00:14.999Z</time></trkpt><trkpt lat="44.760618809927934" lon="9.943397246651289"><ele>510.0</ele><time>2026-05-02T17:00:17.998Z</time></trkpt><trkpt lat="44.76059635239558" lon="9.943291865527945"><ele>510.0</ele><time>2026-05-02T17:00:20.998Z</time></trkpt><trkpt lat="44.760566332081254" lon="9.943179861447696"><ele>510.0</ele><time>2026-05-02T17:00:23.998Z</time></trkpt><trkpt lat="44.76052944770754" lon="9.943078160119066"><ele>510.0</ele><time>2026-05-02T17:00:26.998Z</time></trkpt><trkpt lat="44.76049099638689" lon="9.942998177616953"><ele>510.0</ele><time>2026-05-02T17:00:29.998Z</time></trkpt><trkpt lat="44.76044923232141" lon="9.942913473099074"><ele>510.5</ele><time>2026-05-02T17:00:32.998Z</time></trkpt><trkpt lat="44.760397781761505" lon="9.942820727202148"><ele>511.0</ele><time>2026-05-02T17:00:35.998Z</time></trkpt><trkpt lat="44.7603520427016" lon="9.942728170477933"><ele>511.5</ele><time>2026-05-02T17:00:38.998Z</time></trkpt><trkpt lat="44.760321778018174" lon="9.942633219827359"><ele>512.0</ele><time>2026-05-02T17:00:41.998Z</time></trkpt><trkpt lat="44.760309510705206" lon="9.94249150280813"><ele>512.5</ele><time>2026-05-02T17:00:44.998Z</time></trkpt><trkpt lat="44.76032318992728" lon="9.94236712284077"><ele>513.0</ele><time>2026-05-02T17:00:47.998Z</time></trkpt><trkpt lat="44.760339856996474" lon="9.942246943120628"><ele>513.0</ele><time>2026-05-02T17:00:50.998Z</time></trkpt><trkpt lat="44.76036025661698" lon="9.942125942093888"><ele>513.0</ele><time>2026-05-02T17:00:53.998Z</time></trkpt><trkpt lat="44.76038273351352" lon="9.942010998476134"><ele>513.0</ele><time>2026-05-02T17:00:56.998Z</time></trkpt><trkpt lat="44.76040599677586" lon="9.941897122957783"><ele>513.0</ele><time>2026-05-02T17:00:59.998Z</time></trkpt><trkpt lat="44.76042703922828" lon="9.941783749101779"><ele>513.0</ele><time>2026-05-02T17:01:02.998Z</time></trkpt><trkpt lat="44.76044909845482" lon="9.941674832709918"><ele>513.0</ele><time>2026-05-02T17:01:05.998Z</time></trkpt><trkpt lat="44.76047044309265" lon="9.941562662922092"><ele>513.3333333333334</ele><time>2026-05-02T17:01:09Z</time></trkpt><trkpt lat="44.76049157074278" lon="9.941452629149659"><ele>513.6666666666666</ele><time>2026-05-02T17:01:12Z</time></trkpt><trkpt lat="44.76051413331338" lon="9.941339724432659"><ele>514.0</ele><time>2026-05-02T17:01:15Z</time></trkpt><trkpt lat="44.76054170720662" lon="9.94122928653975"><ele>514.3333333333333</ele><time>2026-05-02T17:01:18Z</time></trkpt><trkpt lat="44.76057412095485" lon="9.94111818646632"><ele>514.6666666666666</ele><time>2026-05-02T17:01:21Z</time></trkpt><trkpt lat="44.760609632461595" lon="9.941041322851271"><ele>515.0</ele><time>2026-05-02T17:01:24Z</time></trkpt><trkpt lat="44.760658249976494" lon="9.940947305486699"><ele>516.5714285714286</ele><time>2026-05-02T17:01:27Z</time></trkpt><trkpt lat="44.760700028083306" lon="9.940878175073415"><ele>518.1428571428571</ele><time>2026-05-02T17:01:29.999Z</time></trkpt><trkpt lat="44.76074883167489" lon="9.940804911117677"><ele>519.7142857142857</ele><time>2026-05-02T17:01:32.999Z</time></trkpt><trkpt lat="44.76079652342547" lon="9.940733938367474"><ele>521.2857142857142</ele><time>2026-05-02T17:01:35.999Z</time></trkpt><trkpt lat="44.760839827979744" lon="9.940668020381604"><ele>522.8571428571428</ele><time>2026-05-02T17:01:37.999Z</time></trkpt><trkpt lat="44.76088295248158" lon="9.940597439675937"><ele>524.4285714285714</ele><time>2026-05-02T17:01:39.999Z</time></trkpt><trkpt lat="44.76093582800645" lon="9.940509568690429"><ele>526.0</ele><time>2026-05-02T17:01:42.999Z</time></trkpt><trkpt lat="44.76099222416685" lon="9.940425980899029"><ele>526.0</ele><time>2026-05-02T17:01:45.999Z</time></trkpt><trkpt lat="44.761029827567306" lon="9.940327506309444"><ele>526.0</ele><time>2026-05-02T17:01:48.999Z</time></trkpt><trkpt lat="44.761030285613266" lon="9.940220499956114"><ele>526.0</ele><time>2026-05-02T17:01:51.999Z</time></trkpt><trkpt lat="44.760988489497244" lon="9.940130054982376"><ele>526.0</ele><time>2026-05-02T17:01:54.999Z</time></trkpt><trkpt lat="44.760919000408954" lon="9.940093515014798"><ele>526.0</ele><time>2026-05-02T17:01:57.999Z</time></trkpt><trkpt lat="44.760843690484734" lon="9.940102119749078"><ele>526.0</ele><time>2026-05-02T17:02:00.999Z</time></trkpt><trkpt lat="44.76076766699262" lon="9.940128398845168"><ele>526.0</ele><time>2026-05-02T17:02:04.999Z</time></trkpt><trkpt lat="44.76069769129205" lon="9.94015822999752"><ele>526.0</ele><time>2026-05-02T17:02:07.999Z</time></trkpt><trkpt lat="44.7606289479471" lon="9.940183018488872"><ele>526.0</ele><time>2026-05-02T17:02:10.999Z</time></trkpt><trkpt lat="44.76055328859763" lon="9.940205935005373"><ele>526.0</ele><time>2026-05-02T17:02:13.999Z</time></trkpt><trkpt lat="44.76047442755637" lon="9.940233542977342"><ele>526.0</ele><time>2026-05-02T17:02:16.999Z</time></trkpt><trkpt lat="44.760408836245176" lon="9.940260012010091"><ele>526.0</ele><time>2026-05-02T17:02:19.999Z</time></trkpt><trkpt lat="44.760335231185024" lon="9.94028349921117"><ele>526.0</ele><time>2026-05-02T17:02:22.998Z</time></trkpt><trkpt lat="44.76026723811548" lon="9.940310580813987"><ele>528.3333333333334</ele><time>2026-05-02T17:02:25.998Z</time></trkpt><trkpt lat="44.760195785918675" lon="9.940355360817769"><ele>530.6666666666667</ele><time>2026-05-02T17:02:28.998Z</time></trkpt><trkpt lat="44.760131792164856" lon="9.940421771528834"><ele>533.0</ele><time>2026-05-02T17:02:31.998Z</time></trkpt><trkpt lat="44.76007151552166" lon="9.94050033048053"><ele>535.3333333333334</ele><time>2026-05-02T17:02:34.998Z</time></trkpt><trkpt lat="44.760005407575285" lon="9.940599860898748"><ele>537.6666666666666</ele><time>2026-05-02T17:02:37.998Z</time></trkpt><trkpt lat="44.75995603686985" lon="9.940669647272209"><ele>540.0</ele><time>2026-05-02T17:02:40.998Z</time></trkpt><trkpt lat="44.759898126556564" lon="9.940751159227618"><ele>540.0</ele><time>2026-05-02T17:02:43.998Z</time></trkpt><trkpt lat="44.75984702053077" lon="9.940821060946108"><ele>540.0</ele><time>2026-05-02T17:02:46.998Z</time></trkpt><trkpt lat="44.75979708130186" lon="9.94088902490599"><ele>540.0</ele><time>2026-05-02T17:02:49.998Z</time></trkpt><trkpt lat="44.75973927379452" lon="9.940972413167394"><ele>540.0</ele><time>2026-05-02T17:02:52.998Z</time></trkpt><trkpt lat="44.75968430485558" lon="9.941060806906629"><ele>540.0</ele><time>2026-05-02T17:02:55.998Z</time></trkpt><trkpt lat="44.75963436004871" lon="9.941149672929528"><ele>540.0</ele><time>2026-05-02T17:02:58.998Z</time></trkpt><trkpt lat="44.759580192133114" lon="9.941254762984096"><ele>538.8571428571429</ele><time>2026-05-02T17:03:01.998Z</time></trkpt><trkpt lat="44.75953710456967" lon="9.941328995244703"><ele>537.7142857142857</ele><time>2026-05-02T17:03:04.998Z</time></trkpt><trkpt lat="44.75949231109675" lon="9.941402531925483"><ele>536.5714285714286</ele><time>2026-05-02T17:03:07.998Z</time></trkpt><trkpt lat="44.759455385706566" lon="9.941489971479992"><ele>535.4285714285714</ele><time>2026-05-02T17:03:10.998Z</time></trkpt><trkpt lat="44.7594137083877" lon="9.941575204037274"><ele>534.2857142857142</ele><time>2026-05-02T17:03:14Z</time></trkpt><trkpt lat="44.75937066730579" lon="9.94166502921524"><ele>533.1428571428571</ele><time>2026-05-02T17:03:17Z</time></trkpt><trkpt lat="44.75932325531378" lon="9.941753061672989"><ele>532.0</ele><time>2026-05-02T17:03:20Z</time></trkpt><trkpt lat="44.759279440470905" lon="9.941844010411423"><ele>534.2857142857143</ele><time>2026-05-02T17:03:23Z</time></trkpt><trkpt lat="44.75924073155165" lon="9.941949833892561"><ele>536.5714285714286</ele><time>2026-05-02T17:03:26Z</time></trkpt><trkpt lat="44.759205934159674" lon="9.94203244132718"><ele>538.8571428571429</ele><time>2026-05-02T17:03:29Z</time></trkpt><trkpt lat="44.75917108073314" lon="9.94211943048941"><ele>541.1428571428571</ele><time>2026-05-02T17:03:31.999Z</time></trkpt><trkpt lat="44.75913954108159" lon="9.942210766832984"><ele>543.4285714285714</ele><time>2026-05-02T17:03:34.999Z</time></trkpt><trkpt lat="44.75911926069208" lon="9.94231043491047"><ele>545.7142857142858</ele><time>2026-05-02T17:03:37.999Z</time></trkpt><trkpt lat="44.75910883954377" lon="9.942418356451482"><ele>548.0</ele><time>2026-05-02T17:03:40.999Z</time></trkpt><trkpt lat="44.75910220995032" lon="9.942528022181468"><ele>547.5</ele><time>2026-05-02T17:03:43.999Z</time></trkpt><trkpt lat="44.75909809118103" lon="9.942640609573019"><ele>547.0</ele><time>2026-05-02T17:03:46.999Z</time></trkpt><trkpt lat="44.75910015769995" lon="9.942751133371141"><ele>546.5</ele><time>2026-05-02T17:03:49.999Z</time></trkpt><trkpt lat="44.75910212778268" lon="9.942863437756436"><ele>546.0</ele><time>2026-05-02T17:03:52.999Z</time></trkpt><trkpt lat="44.75907919915296" lon="9.942960551161928"><ele>545.5</ele><time>2026-05-02T17:03:55.999Z</time></trkpt><trkpt lat="44.75900788866933" lon="9.942997590716466"><ele>545.0</ele><time>2026-05-02T17:03:58.999Z</time></trkpt><trkpt lat="44.75896276602036" lon="9.942906798922278"><ele>545.0</ele><time>2026-05-02T17:04:02.999Z</time></trkpt><trkpt lat="44.758951178132186" lon="9.942781148611104"><ele>545.0</ele><time>2026-05-02T17:04:06.999Z</time></trkpt><trkpt lat="44.75892999592394" lon="9.942673841228894"><ele>545.0</ele><time>2026-05-02T17:04:10.999Z</time></trkpt><trkpt lat="44.758916178007595" lon="9.942571547645793"><ele>545.0</ele><time>2026-05-02T17:04:13.999Z</time></trkpt><trkpt lat="44.7589089241711" lon="9.94246875488373"><ele>545.0</ele><time>2026-05-02T17:04:16.999Z</time></trkpt><trkpt lat="44.75889586909115" lon="9.942375923253245"><ele>545.0</ele><time>2026-05-02T17:04:19.999Z</time></trkpt><trkpt lat="44.75888794481753" lon="9.942280798030888"><ele>545.4285714285714</ele><time>2026-05-02T17:04:22.999Z</time></trkpt><trkpt lat="44.758887096370316" lon="9.942179756829297"><ele>545.8571428571429</ele><time>2026-05-02T17:04:25.998Z</time></trkpt><trkpt lat="44.75889688050906" lon="9.942082243323187"><ele>546.2857142857143</ele><time>2026-05-02T17:04:28.998Z</time></trkpt><trkpt lat="44.75890630493527" lon="9.941986802981084"><ele>546.7142857142858</ele><time>2026-05-02T17:04:31.998Z</time></trkpt><trkpt lat="44.75891800385535" lon="9.941890514255256"><ele>547.1428571428571</ele><time>2026-05-02T17:04:34.998Z</time></trkpt><trkpt lat="44.758944330805896" lon="9.941759619033053"><ele>547.5714285714287</ele><time>2026-05-02T17:04:38.998Z</time></trkpt><trkpt lat="44.75896154974395" lon="9.941659188982877"><ele>548.0</ele><time>2026-05-02T17:04:42.998Z</time></trkpt><trkpt lat="44.75897586827385" lon="9.941566557499673"><ele>549.3333333333333</ele><time>2026-05-02T17:04:45.998Z</time></trkpt><trkpt lat="44.758995728801615" lon="9.941467017823282"><ele>550.6666666666666</ele><time>2026-05-02T17:04:48.998Z</time></trkpt><trkpt lat="44.75901682198435" lon="9.941350651156643"><ele>552.0</ele><time>2026-05-02T17:04:51.998Z</time></trkpt><trkpt lat="44.759034482579466" lon="9.941245833395547"><ele>553.3333333333334</ele><time>2026-05-02T17:04:55.998Z</time></trkpt><trkpt lat="44.75905177140255" lon="9.941147637305042"><ele>554.6666666666667</ele><time>2026-05-02T17:04:58.998Z</time></trkpt><trkpt lat="44.75906191393699" lon="9.941045881139006"><ele>556.0</ele><time>2026-05-02T17:05:01.998Z</time></trkpt><trkpt lat="44.75906740053932" lon="9.940943763170226"><ele>557.5</ele><time>2026-05-02T17:05:04.998Z</time></trkpt><trkpt lat="44.75906739618146" lon="9.940834464647637"><ele>559.0</ele><time>2026-05-02T17:05:07.998Z</time></trkpt><trkpt lat="44.759061355352685" lon="9.94071781891741"><ele>560.5</ele><time>2026-05-02T17:05:11.998Z</time></trkpt><trkpt lat="44.75904315714691" lon="9.940612680665446"><ele>562.0</ele><time>2026-05-02T17:05:14.998Z</time></trkpt><trkpt lat="44.7590211324593" lon="9.940510591163122"><ele>563.5</ele><time>2026-05-02T17:05:18Z</time></trkpt><trkpt lat="44.75900824896186" lon="9.940388525427625"><ele>565.0</ele><time>2026-05-02T17:05:21Z</time></trkpt><trkpt lat="44.759020612478714" lon="9.94030050089054"><ele>564.9999999999999</ele><time>2026-05-02T17:05:24Z</time></trkpt><trkpt lat="44.75904752641225" lon="9.940210222719413"><ele>565.0</ele><time>2026-05-02T17:05:27Z</time></trkpt><trkpt lat="44.75907938709682" lon="9.94012318297769"><ele>565.0</ele><time>2026-05-02T17:05:30Z</time></trkpt><trkpt lat="44.7591159669858" lon="9.940041643714151"><ele>565.0</ele><time>2026-05-02T17:05:33Z</time></trkpt><trkpt lat="44.75915060132578" lon="9.939955400364079"><ele>565.0</ele><time>2026-05-02T17:05:35.999Z</time></trkpt><trkpt lat="44.7591811051692" lon="9.93985693560511"><ele>564.9999999999999</ele><time>2026-05-02T17:05:38.999Z</time></trkpt><trkpt lat="44.75919744026581" lon="9.93975280129458"><ele>565.0</ele><time>2026-05-02T17:05:41.999Z</time></trkpt><trkpt lat="44.75919535140223" lon="9.939635892910282"><ele>565.5714285714286</ele><time>2026-05-02T17:05:44.999Z</time></trkpt><trkpt lat="44.75919065800411" lon="9.939532913349169"><ele>566.1428571428571</ele><time>2026-05-02T17:05:47.999Z</time></trkpt><trkpt lat="44.75917239255953" lon="9.939429950490085"><ele>566.7142857142858</ele><time>2026-05-02T17:05:50.999Z</time></trkpt><trkpt lat="44.75914745778533" lon="9.939331471602296"><ele>567.2857142857142</ele><time>2026-05-02T17:05:53.999Z</time></trkpt><trkpt lat="44.75911531252328" lon="9.939229110607409"><ele>567.8571428571429</ele><time>2026-05-02T17:05:56.999Z</time></trkpt><trkpt lat="44.75908465569972" lon="9.939138201719592"><ele>568.4285714285714</ele><time>2026-05-02T17:05:59.999Z</time></trkpt><trkpt lat="44.75904095935296" lon="9.939064110383312"><ele>569.0</ele><time>2026-05-02T17:06:02.999Z</time></trkpt><trkpt lat="44.75898905539876" lon="9.938996805261507"><ele>569.0000000000001</ele><time>2026-05-02T17:06:05.999Z</time></trkpt><trkpt lat="44.75893074649164" lon="9.938956734074482"><ele>569.0</ele><time>2026-05-02T17:06:08.999Z</time></trkpt><trkpt lat="44.758859835258086" lon="9.938931209635063"><ele>569.0</ele><time>2026-05-02T17:06:11.999Z</time></trkpt><trkpt lat="44.758789068039476" lon="9.938918710566304"><ele>569.0</ele><time>2026-05-02T17:06:14.999Z</time></trkpt><trkpt lat="44.7587154876302" lon="9.938907988098475"><ele>569.0</ele><time>2026-05-02T17:06:17.999Z</time></trkpt><trkpt lat="44.758640019493214" lon="9.93889261059159"><ele>569.0000000000001</ele><time>2026-05-02T17:06:20.999Z</time></trkpt><trkpt lat="44.758572309515785" lon="9.938876645786664"><ele>569.0</ele><time>2026-05-02T17:06:23.999Z</time></trkpt><trkpt lat="44.75849600894721" lon="9.938845834617346"><ele>571.6666666666666</ele><time>2026-05-02T17:06:26.999Z</time></trkpt><trkpt lat="44.75842165513317" lon="9.938800640966463"><ele>574.3333333333333</ele><time>2026-05-02T17:06:29.998Z</time></trkpt><trkpt lat="44.75836780510004" lon="9.938730140450025"><ele>577.0</ele><time>2026-05-02T17:06:32.998Z</time></trkpt><trkpt lat="44.75832881432166" lon="9.938633610084887"><ele>579.6666666666666</ele><time>2026-05-02T17:06:35.998Z</time></trkpt><trkpt lat="44.75830451768803" lon="9.938531112016417"><ele>582.3333333333334</ele><time>2026-05-02T17:06:38.998Z</time></trkpt><trkpt lat="44.75828847359781" lon="9.938429695868226"><ele>585.0</ele><time>2026-05-02T17:06:41.998Z</time></trkpt><trkpt lat="44.758276162619225" lon="9.938312129346489"><ele>585.0</ele><time>2026-05-02T17:06:45.998Z</time></trkpt><trkpt lat="44.758255116772474" lon="9.938219791504032"><ele>585.0</ele><time>2026-05-02T17:06:48.998Z</time></trkpt><trkpt lat="44.75822056169543" lon="9.938128838523596"><ele>585.0</ele><time>2026-05-02T17:06:51.998Z</time></trkpt><trkpt lat="44.758177793798325" lon="9.938046109087516"><ele>585.0</ele><time>2026-05-02T17:06:54.998Z</time></trkpt><trkpt lat="44.758123656394275" lon="9.937971953983945"><ele>585.0</ele><time>2026-05-02T17:06:57.998Z</time></trkpt><trkpt lat="44.75807500689476" lon="9.937894037468363"><ele>585.0</ele><time>2026-05-02T17:07:00.998Z</time></trkpt><trkpt lat="44.75803566396709" lon="9.937804387390091"><ele>585.0</ele><time>2026-05-02T17:07:03.998Z</time></trkpt><trkpt lat="44.75800411623275" lon="9.937710477369889"><ele>585.0</ele><time>2026-05-02T17:07:06.998Z</time></trkpt><trkpt lat="44.75797931753304" lon="9.93761306631034"><ele>585.0</ele><time>2026-05-02T17:07:09.998Z</time></trkpt><trkpt lat="44.757966351352096" lon="9.937513432829391"><ele>585.0</ele><time>2026-05-02T17:07:12.998Z</time></trkpt><trkpt lat="44.7579626805117" lon="9.937394473977106"><ele>585.0</ele><time>2026-05-02T17:07:15.998Z</time></trkpt><trkpt lat="44.75796090920712" lon="9.937298606415554"><ele>585.0</ele><time>2026-05-02T17:07:18.998Z</time></trkpt><trkpt lat="44.75796909135802" lon="9.937194657587751"><ele>585.0</ele><time>2026-05-02T17:07:21.997Z</time></trkpt><trkpt lat="44.75797881416137" lon="9.937097153082272"><ele>585.0</ele><time>2026-05-02T17:07:25Z</time></trkpt><trkpt lat="44.75799667757702" lon="9.937000814071876"><ele>584.5</ele><time>2026-05-02T17:07:28Z</time></trkpt><trkpt lat="44.758029622836155" lon="9.93689206624381"><ele>584.0</ele><time>2026-05-02T17:07:31Z</time></trkpt><trkpt lat="44.75807465067783" lon="9.936793707893585"><ele>583.5</ele><time>2026-05-02T17:07:34Z</time></trkpt><trkpt lat="44.758124961010836" lon="9.936702358482618"><ele>583.0</ele><time>2026-05-02T17:07:37Z</time></trkpt><trkpt lat="44.75817718567301" lon="9.936628243255315"><ele>582.5</ele><time>2026-05-02T17:07:39.999Z</time></trkpt><trkpt lat="44.75823621752389" lon="9.936566591245244"><ele>582.0</ele><time>2026-05-02T17:07:42.999Z</time></trkpt><trkpt lat="44.75829313626849" lon="9.936510248980102"><ele>582.8571428571429</ele><time>2026-05-02T17:07:45.999Z</time></trkpt><trkpt lat="44.758357192599476" lon="9.936433042156121"><ele>583.7142857142857</ele><time>2026-05-02T17:07:48.999Z</time></trkpt><trkpt lat="44.758385872692884" lon="9.936346688996998"><ele>584.5714285714286</ele><time>2026-05-02T17:07:51.999Z</time></trkpt><trkpt lat="44.75838744814262" lon="9.936251410897246"><ele>585.4285714285714</ele><time>2026-05-02T17:07:54.999Z</time></trkpt><trkpt lat="44.758351596255146" lon="9.936166996787728"><ele>586.2857142857142</ele><time>2026-05-02T17:07:57.999Z</time></trkpt><trkpt lat="44.75829348999864" lon="9.93611366208878"><ele>587.1428571428571</ele><time>2026-05-02T17:08:00.999Z</time></trkpt><trkpt lat="44.75822294736093" lon="9.93607976895288"><ele>588.0</ele><time>2026-05-02T17:08:03.999Z</time></trkpt><trkpt lat="44.75815354667378" lon="9.936056152708439"><ele>588.0</ele><time>2026-05-02T17:08:06.999Z</time></trkpt><trkpt lat="44.75808460371616" lon="9.936039974055008"><ele>588.0</ele><time>2026-05-02T17:08:09.999Z</time></trkpt><trkpt lat="44.75801434578903" lon="9.936026698767911"><ele>588.0</ele><time>2026-05-02T17:08:12.999Z</time></trkpt><trkpt lat="44.75794295512082" lon="9.93603405971208"><ele>588.0</ele><time>2026-05-02T17:08:15.999Z</time></trkpt><trkpt lat="44.75787664104727" lon="9.936065792548188"><ele>588.0</ele><time>2026-05-02T17:08:18.999Z</time></trkpt><trkpt lat="44.75781433332523" lon="9.936127574622347"><ele>588.0</ele><time>2026-05-02T17:08:21.999Z</time></trkpt><trkpt lat="44.75775692709627" lon="9.936195488216553"><ele>588.0</ele><time>2026-05-02T17:08:24.999Z</time></trkpt><trkpt lat="44.757705101663035" lon="9.936269693063908"><ele>591.1666666666666</ele><time>2026-05-02T17:08:27.999Z</time></trkpt><trkpt lat="44.757655091636686" lon="9.936349054276636"><ele>594.3333333333334</ele><time>2026-05-02T17:08:30.999Z</time></trkpt><trkpt lat="44.75761238986117" lon="9.93643851185317"><ele>597.5</ele><time>2026-05-02T17:08:33.998Z</time></trkpt><trkpt lat="44.75756921095223" lon="9.936534290864453"><ele>600.6666666666667</ele><time>2026-05-02T17:08:36.998Z</time></trkpt><trkpt lat="44.757529549604165" lon="9.936633652337253"><ele>603.8333333333334</ele><time>2026-05-02T17:08:39.998Z</time></trkpt><trkpt lat="44.75749173614573" lon="9.936743473924121"><ele>607.0</ele><time>2026-05-02T17:08:42.998Z</time></trkpt><trkpt lat="44.75745077781176" lon="9.936860957338357"><ele>607.0</ele><time>2026-05-02T17:08:45.998Z</time></trkpt><trkpt lat="44.75740684679085" lon="9.936966495659123"><ele>607.0</ele><time>2026-05-02T17:08:48.998Z</time></trkpt><trkpt lat="44.75736941837506" lon="9.937088649336838"><ele>607.0</ele><time>2026-05-02T17:08:51.998Z</time></trkpt><trkpt lat="44.75733185051725" lon="9.937191381194928"><ele>607.0</ele><time>2026-05-02T17:08:54.998Z</time></trkpt><trkpt lat="44.75729258596763" lon="9.93729475860635"><ele>607.0</ele><time>2026-05-02T17:08:57.998Z</time></trkpt><trkpt lat="44.75725388341312" lon="9.937404790976242"><ele>607.0</ele><time>2026-05-02T17:09:00.998Z</time></trkpt><trkpt lat="44.75722358563411" lon="9.937497911470993"><ele>608.0</ele><time>2026-05-02T17:09:02.998Z</time></trkpt><trkpt lat="44.75719986693387" lon="9.937612079098146"><ele>609.0</ele><time>2026-05-02T17:09:05.998Z</time></trkpt><trkpt lat="44.757186236468215" lon="9.937722080301436"><ele>610.0</ele><time>2026-05-02T17:09:08.998Z</time></trkpt><trkpt lat="44.75718447470627" lon="9.937829272366708"><ele>611.0</ele><time>2026-05-02T17:09:11.998Z</time></trkpt><trkpt lat="44.7571982133338" lon="9.937953069146847"><ele>612.0</ele><time>2026-05-02T17:09:14.998Z</time></trkpt><trkpt lat="44.757223638864545" lon="9.938067257839037"><ele>613.0</ele><time>2026-05-02T17:09:16.998Z</time></trkpt><trkpt lat="44.757276523853726" lon="9.938134545682122"><ele>613.0</ele><time>2026-05-02T17:09:18.998Z</time></trkpt><trkpt lat="44.75731924090087" lon="9.938202400763554"><ele>613.0</ele><time>2026-05-02T17:09:20.998Z</time></trkpt><trkpt lat="44.75738585730173" lon="9.938293050514226"><ele>613.0</ele><time>2026-05-02T17:09:23.998Z</time></trkpt><trkpt lat="44.75745995251726" lon="9.938377968255834"><ele>613.0</ele><time>2026-05-02T17:09:26.997Z</time></trkpt><trkpt lat="44.75753163835085" lon="9.938468819676187"><ele>613.0</ele><time>2026-05-02T17:09:30Z</time></trkpt><trkpt lat="44.75757888278739" lon="9.938576204748308"><ele>613.0</ele><time>2026-05-02T17:09:33Z</time></trkpt><trkpt lat="44.757594886479545" lon="9.938697348254218"><ele>612.7142857142858</ele><time>2026-05-02T17:09:36Z</time></trkpt><trkpt lat="44.75758489646709" lon="9.938799801970212"><ele>612.4285714285714</ele><time>2026-05-02T17:09:39Z</time></trkpt><trkpt lat="44.757554806674165" lon="9.938892004517689"><ele>612.1428571428571</ele><time>2026-05-02T17:09:42Z</time></trkpt><trkpt lat="44.75749519685421" lon="9.93896882823991"><ele>611.8571428571429</ele><time>2026-05-02T17:09:44.999Z</time></trkpt><trkpt lat="44.75742688050097" lon="9.938999859315373"><ele>611.5714285714286</ele><time>2026-05-02T17:09:47.999Z</time></trkpt><trkpt lat="44.757356268466125" lon="9.938999459735442"><ele>611.2857142857143</ele><time>2026-05-02T17:09:50.999Z</time></trkpt><trkpt lat="44.75728946111147" lon="9.938970310354302"><ele>611.0</ele><time>2026-05-02T17:09:53.999Z</time></trkpt><trkpt lat="44.75722533106972" lon="9.938918555821353"><ele>611.0</ele><time>2026-05-02T17:09:56.999Z</time></trkpt><trkpt lat="44.75716156797154" lon="9.938853353757226"><ele>611.0</ele><time>2026-05-02T17:09:59.999Z</time></trkpt><trkpt lat="44.7571124383692" lon="9.938768357463227"><ele>611.0</ele><time>2026-05-02T17:10:03Z</time></trkpt><trkpt lat="44.757077014391356" lon="9.938674254301086"><ele>611.0</ele><time>2026-05-02T17:10:06Z</time></trkpt><trkpt lat="44.757050116280176" lon="9.938573302263844"><ele>611.0</ele><time>2026-05-02T17:10:09Z</time></trkpt><trkpt lat="44.757028517090205" lon="9.93846512508601"><ele>611.0</ele><time>2026-05-02T17:10:12Z</time></trkpt><trkpt lat="44.75700880444069" lon="9.938355956031852"><ele>611.3333333333333</ele><time>2026-05-02T17:10:15Z</time></trkpt><trkpt lat="44.756987163939485" lon="9.938246911751367"><ele>611.6666666666666</ele><time>2026-05-02T17:10:18Z</time></trkpt><trkpt lat="44.756971669161125" lon="9.938150386335476"><ele>612.0</ele><time>2026-05-02T17:10:21Z</time></trkpt><trkpt lat="44.756958714253386" lon="9.93805500488326"><ele>612.3333333333334</ele><time>2026-05-02T17:10:23Z</time></trkpt><trkpt lat="44.756939576570375" lon="9.937943218037976"><ele>612.6666666666667</ele><time>2026-05-02T17:10:26Z</time></trkpt><trkpt lat="44.756917969456566" lon="9.937828596406003"><ele>613.0</ele><time>2026-05-02T17:10:29Z</time></trkpt><trkpt lat="44.75690132439702" lon="9.93771371402004"><ele>613.0</ele><time>2026-05-02T17:10:32Z</time></trkpt><trkpt lat="44.756883511476" lon="9.937604320014069"><ele>613.0</ele><time>2026-05-02T17:10:34.999Z</time></trkpt><trkpt lat="44.75686559771795" lon="9.93749658284433"><ele>613.0</ele><time>2026-05-02T17:10:37.999Z</time></trkpt><trkpt lat="44.756852327918075" lon="9.937379419715638"><ele>613.0</ele><time>2026-05-02T17:10:40.999Z</time></trkpt><trkpt lat="44.756845857934614" lon="9.937265976518432"><ele>613.0</ele><time>2026-05-02T17:10:43.999Z</time></trkpt><trkpt lat="44.75684979811002" lon="9.937157431948775"><ele>613.0</ele><time>2026-05-02T17:10:46.999Z</time></trkpt><trkpt lat="44.75685956701212" lon="9.937048915924974"><ele>614.1666666666667</ele><time>2026-05-02T17:10:49.999Z</time></trkpt><trkpt lat="44.75686920513782" lon="9.9369579350087"><ele>615.3333333333334</ele><time>2026-05-02T17:10:52.999Z</time></trkpt><trkpt lat="44.75681095355106" lon="9.937018526972324"><ele>616.5</ele><time>2026-05-02T17:10:58.999Z</time></trkpt><trkpt lat="44.75679226388405" lon="9.93711342553831"><ele>617.6666666666666</ele><time>2026-05-02T17:12:19Z</time></trkpt><trkpt lat="44.756788988726385" lon="9.937246747309185"><ele>618.8333333333333</ele><time>2026-05-02T17:12:22Z</time></trkpt><trkpt lat="44.75678473713434" lon="9.937352073762584"><ele>620.0</ele><time>2026-05-02T17:12:24Z</time></trkpt><trkpt lat="44.756799892251955" lon="9.937474134378597"><ele>618.75</ele><time>2026-05-02T17:12:26Z</time></trkpt><trkpt lat="44.75682186135561" lon="9.937611271567077"><ele>617.5</ele><time>2026-05-02T17:12:28Z</time></trkpt><trkpt lat="44.75684180125896" lon="9.937758154777429"><ele>616.25</ele><time>2026-05-02T17:12:30Z</time></trkpt><trkpt lat="44.756871012731864" lon="9.937919548861535"><ele>615.0</ele><time>2026-05-02T17:12:32Z</time></trkpt><trkpt lat="44.75690083117263" lon="9.938094113307761"><ele>614.7142857142857</ele><time>2026-05-02T17:12:34Z</time></trkpt><trkpt lat="44.756914650097904" lon="9.93818801408123"><ele>614.4285714285714</ele><time>2026-05-02T17:12:35Z</time></trkpt><trkpt lat="44.75692786134151" lon="9.938285913429455"><ele>614.1428571428571</ele><time>2026-05-02T17:12:36Z</time></trkpt><trkpt lat="44.75694240259901" lon="9.938385162978415"><ele>613.8571428571429</ele><time>2026-05-02T17:12:37Z</time></trkpt><trkpt lat="44.7569624118254" lon="9.938487513605644"><ele>613.5714285714286</ele><time>2026-05-02T17:12:38Z</time></trkpt><trkpt lat="44.756980987726266" lon="9.93859227124808"><ele>613.2857142857143</ele><time>2026-05-02T17:12:39Z</time></trkpt><trkpt lat="44.757001722192975" lon="9.938698277905772"><ele>613.0</ele><time>2026-05-02T17:12:39.999Z</time></trkpt><trkpt lat="44.75703414129762" lon="9.93880293369706"><ele>612.6666666666667</ele><time>2026-05-02T17:12:40.999Z</time></trkpt><trkpt lat="44.75708156666426" lon="9.938897779575427"><ele>612.3333333333334</ele><time>2026-05-02T17:12:41.999Z</time></trkpt><trkpt lat="44.75714382844895" lon="9.938978731878125"><ele>612.0</ele><time>2026-05-02T17:12:42.999Z</time></trkpt><trkpt lat="44.75721509712935" lon="9.939040586006424"><ele>611.6666666666666</ele><time>2026-05-02T17:12:43.999Z</time></trkpt><trkpt lat="44.75729560125405" lon="9.939076487390162"><ele>611.3333333333333</ele><time>2026-05-02T17:12:44.999Z</time></trkpt><trkpt lat="44.75737678327266" lon="9.939097346951495"><ele>611.0</ele><time>2026-05-02T17:12:45.999Z</time></trkpt><trkpt lat="44.7574597210079" lon="9.939083269075574"><ele>611.0</ele><time>2026-05-02T17:12:46.999Z</time></trkpt><trkpt lat="44.7575339441807" lon="9.93903719339223"><ele>611.0</ele><time>2026-05-02T17:12:47.999Z</time></trkpt><trkpt lat="44.75759301734566" lon="9.938955143035209"><ele>611.0</ele><time>2026-05-02T17:12:48.999Z</time></trkpt><trkpt lat="44.757638075865415" lon="9.938849512343282"><ele>611.0</ele><time>2026-05-02T17:12:49.999Z</time></trkpt><trkpt lat="44.757654321330946" lon="9.93872557485566"><ele>611.0</ele><time>2026-05-02T17:12:50.999Z</time></trkpt><trkpt lat="44.757646362940264" lon="9.938609725046875"><ele>611.0</ele><time>2026-05-02T17:12:51.999Z</time></trkpt><trkpt lat="44.75760916503243" lon="9.938498371090022"><ele>611.0</ele><time>2026-05-02T17:12:52.999Z</time></trkpt><trkpt lat="44.75755157402895" lon="9.938403720229646"><ele>611.0</ele><time>2026-05-02T17:12:53.999Z</time></trkpt><trkpt lat="44.7574812704458" lon="9.938329115722528"><ele>611.0</ele><time>2026-05-02T17:12:54.999Z</time></trkpt><trkpt lat="44.757402573575796" lon="9.938265765221011"><ele>611.0</ele><time>2026-05-02T17:12:55.999Z</time></trkpt><trkpt lat="44.75733232629437" lon="9.938194400087697"><ele>611.0</ele><time>2026-05-02T17:12:56.999Z</time></trkpt><trkpt lat="44.75726775668777" lon="9.938109591800677"><ele>611.0</ele><time>2026-05-02T17:12:57.999Z</time></trkpt><trkpt lat="44.757218198247585" lon="9.938008493085775"><ele>611.3333333333333</ele><time>2026-05-02T17:12:58.999Z</time></trkpt><trkpt lat="44.75718899270364" lon="9.937892462847136"><ele>611.6666666666666</ele><time>2026-05-02T17:12:59.999Z</time></trkpt><trkpt lat="44.75717718566948" lon="9.93777419489065"><ele>612.0</ele><time>2026-05-02T17:13:00.999Z</time></trkpt><trkpt lat="44.75719128488838" lon="9.937647474329864"><ele>612.3333333333334</ele><time>2026-05-02T17:13:01.999Z</time></trkpt><trkpt lat="44.75722597002382" lon="9.937530326678303"><ele>612.6666666666667</ele><time>2026-05-02T17:13:02.999Z</time></trkpt><trkpt lat="44.75726367075648" lon="9.93741468603999"><ele>613.0</ele><time>2026-05-02T17:13:03.999Z</time></trkpt><trkpt lat="44.75730689007678" lon="9.937303957677031"><ele>612.8</ele><time>2026-05-02T17:13:04.999Z</time></trkpt><trkpt lat="44.7573487730241" lon="9.93719051983821"><ele>612.5999999999999</ele><time>2026-05-02T17:13:05.999Z</time></trkpt><trkpt lat="44.75738965847537" lon="9.937072722583702"><ele>612.4000000000001</ele><time>2026-05-02T17:13:06.999Z</time></trkpt><trkpt lat="44.75742834460191" lon="9.936951426463947"><ele>612.2</ele><time>2026-05-02T17:13:07.999Z</time></trkpt><trkpt lat="44.7574687822212" lon="9.936832519700793"><ele>612.0</ele><time>2026-05-02T17:13:08.999Z</time></trkpt><trkpt lat="44.75750944277147" lon="9.936717904452605"><ele>612.0</ele><time>2026-05-02T17:13:09.999Z</time></trkpt><trkpt lat="44.7575498260762" lon="9.936607689361937"><ele>612.0</ele><time>2026-05-02T17:13:10.999Z</time></trkpt><trkpt lat="44.757593056979594" lon="9.936498555265478"><ele>612.0</ele><time>2026-05-02T17:13:11.999Z</time></trkpt><trkpt lat="44.75763492659788" lon="9.936386414643652"><ele>612.0</ele><time>2026-05-02T17:13:12.999Z</time></trkpt><trkpt lat="44.75768118968202" lon="9.936277945820096"><ele>612.0</ele><time>2026-05-02T17:13:13.999Z</time></trkpt><trkpt lat="44.75774108944643" lon="9.93617414190862"><ele>608.0</ele><time>2026-05-02T17:13:14.999Z</time></trkpt><trkpt lat="44.75780963571935" lon="9.936085697862183"><ele>604.0</ele><time>2026-05-02T17:13:15.999Z</time></trkpt><trkpt lat="44.757884762628514" lon="9.936024307494934"><ele>600.0</ele><time>2026-05-02T17:13:16.999Z</time></trkpt><trkpt lat="44.75796446166829" lon="9.935997425634858"><ele>596.0</ele><time>2026-05-02T17:13:17.999Z</time></trkpt><trkpt lat="44.75804949126803" lon="9.936005857453912"><ele>592.0</ele><time>2026-05-02T17:13:18.999Z</time></trkpt><trkpt lat="44.75813533015443" lon="9.936027941198686"><ele>588.0</ele><time>2026-05-02T17:13:19.999Z</time></trkpt><trkpt lat="44.758215969974536" lon="9.936047902362203"><ele>588.0</ele><time>2026-05-02T17:13:20.999Z</time></trkpt><trkpt lat="44.758284699108515" lon="9.936093213903284"><ele>588.0</ele><time>2026-05-02T17:13:21.999Z</time></trkpt><trkpt lat="44.75834759617496" lon="9.936127545304512"><ele>588.0</ele><time>2026-05-02T17:13:22.999Z</time></trkpt><trkpt lat="44.75837767503609" lon="9.936216350180706"><ele>588.0</ele><time>2026-05-02T17:13:23.999Z</time></trkpt><trkpt lat="44.75836754501996" lon="9.936322332411113"><ele>588.0</ele><time>2026-05-02T17:13:24.999Z</time></trkpt><trkpt lat="44.75829475999593" lon="9.9363893736866"><ele>588.0</ele><time>2026-05-02T17:13:25.999Z</time></trkpt><trkpt lat="44.758222635689336" lon="9.936431006880326"><ele>588.0</ele><time>2026-05-02T17:13:26.999Z</time></trkpt><trkpt lat="44.758146898021856" lon="9.93649411435198"><ele>588.0</ele><time>2026-05-02T17:13:27.999Z</time></trkpt><trkpt lat="44.758090764344466" lon="9.936597791294009"><ele>588.0</ele><time>2026-05-02T17:13:28.999Z</time></trkpt><trkpt lat="44.758035177707335" lon="9.936701121265228"><ele>588.0</ele><time>2026-05-02T17:13:29.999Z</time></trkpt><trkpt lat="44.757986032005505" lon="9.93681226986997"><ele>588.0</ele><time>2026-05-02T17:13:30.999Z</time></trkpt><trkpt lat="44.75794635208021" lon="9.936933833797756"><ele>587.4</ele><time>2026-05-02T17:13:31.999Z</time></trkpt><trkpt lat="44.7579176433792" lon="9.937065504988457"><ele>586.8</ele><time>2026-05-02T17:13:32.998Z</time></trkpt><trkpt lat="44.757900687619866" lon="9.93720373003619"><ele>586.2</ele><time>2026-05-02T17:13:33.998Z</time></trkpt><trkpt lat="44.757889823503135" lon="9.93734875790755"><ele>585.6</ele><time>2026-05-02T17:13:34.998Z</time></trkpt><trkpt lat="44.75789100504308" lon="9.937495398176964"><ele>585.0</ele><time>2026-05-02T17:13:35.998Z</time></trkpt><trkpt lat="44.75791225550427" lon="9.93764033430752"><ele>585.0</ele><time>2026-05-02T17:13:36.998Z</time></trkpt><trkpt lat="44.757953910586515" lon="9.937777781694031"><ele>585.0</ele><time>2026-05-02T17:13:37.998Z</time></trkpt><trkpt lat="44.75801126444187" lon="9.937901215502468"><ele>585.0</ele><time>2026-05-02T17:13:38.998Z</time></trkpt><trkpt lat="44.75808657596768" lon="9.93800808664231"><ele>585.0</ele><time>2026-05-02T17:13:39.998Z</time></trkpt><trkpt lat="44.758158458141935" lon="9.938116381242681"><ele>585.0</ele><time>2026-05-02T17:13:41Z</time></trkpt><trkpt lat="44.75820643308687" lon="9.938244906432125"><ele>586.4</ele><time>2026-05-02T17:13:42Z</time></trkpt><trkpt lat="44.75822769787745" lon="9.938392170882846"><ele>587.8</ele><time>2026-05-02T17:13:43Z</time></trkpt><trkpt lat="44.758243156677565" lon="9.93853918359589"><ele>589.2</ele><time>2026-05-02T17:13:44Z</time></trkpt><trkpt lat="44.75826907925431" lon="9.938676357535096"><ele>590.6</ele><time>2026-05-02T17:13:45Z</time></trkpt><trkpt lat="44.75831697453091" lon="9.93878570763227"><ele>592.0</ele><time>2026-05-02T17:13:46Z</time></trkpt><trkpt lat="44.75839047548762" lon="9.93886309025256"><ele>592.0</ele><time>2026-05-02T17:13:47Z</time></trkpt><trkpt lat="44.75848135504691" lon="9.938909884538052"><ele>592.0</ele><time>2026-05-02T17:13:48Z</time></trkpt><trkpt lat="44.75857936703774" lon="9.93892714065772"><ele>592.0</ele><time>2026-05-02T17:13:49Z</time></trkpt><trkpt lat="44.75868097899831" lon="9.938926726639435"><ele>592.0</ele><time>2026-05-02T17:13:50Z</time></trkpt><trkpt lat="44.75878479975915" lon="9.938926715835258"><ele>592.0</ele><time>2026-05-02T17:13:51Z</time></trkpt><trkpt lat="44.758880848994686" lon="9.938950384240409"><ele>587.6</ele><time>2026-05-02T17:13:52Z</time></trkpt><trkpt lat="44.75896985654154" lon="9.939020974614975"><ele>583.2</ele><time>2026-05-02T17:13:53Z</time></trkpt><trkpt lat="44.75903993351631" lon="9.939121714487259"><ele>578.8</ele><time>2026-05-02T17:13:54Z</time></trkpt><trkpt lat="44.7590956268746" lon="9.939253313976018"><ele>574.4</ele><time>2026-05-02T17:13:55Z</time></trkpt><trkpt lat="44.7591336967048" lon="9.939396596118511"><ele>570.0</ele><time>2026-05-02T17:13:56Z</time></trkpt><trkpt lat="44.759159007669275" lon="9.939547402253146"><ele>570.0</ele><time>2026-05-02T17:13:57Z</time></trkpt><trkpt lat="44.75916886942664" lon="9.939697556287491"><ele>570.0</ele><time>2026-05-02T17:13:58Z</time></trkpt><trkpt lat="44.75913328362763" lon="9.939839799663082"><ele>570.0</ele><time>2026-05-02T17:13:59Z</time></trkpt><trkpt lat="44.7590718020893" lon="9.939950994319002"><ele>570.0</ele><time>2026-05-02T17:14:00Z</time></trkpt><trkpt lat="44.759007833038225" lon="9.940073248399608"><ele>570.0</ele><time>2026-05-02T17:14:01Z</time></trkpt><trkpt lat="44.758960089913295" lon="9.940210691778256"><ele>569.0</ele><time>2026-05-02T17:14:02Z</time></trkpt><trkpt lat="44.75895485313597" lon="9.9403637229637"><ele>568.0</ele><time>2026-05-02T17:14:03Z</time></trkpt><trkpt lat="44.758971321850794" lon="9.940511527503606"><ele>567.0</ele><time>2026-05-02T17:14:04Z</time></trkpt><trkpt lat="44.75900781499738" lon="9.940654872895635"><ele>566.0</ele><time>2026-05-02T17:14:05Z</time></trkpt><trkpt lat="44.75903460036964" lon="9.940800429434022"><ele>565.0</ele><time>2026-05-02T17:14:06Z</time></trkpt><trkpt lat="44.759027439201546" lon="9.940953933104849"><ele>562.75</ele><time>2026-05-02T17:14:07Z</time></trkpt><trkpt lat="44.759004532368664" lon="9.941107954040977"><ele>560.5</ele><time>2026-05-02T17:14:08Z</time></trkpt><trkpt lat="44.758983748424484" lon="9.941264147789797"><ele>558.25</ele><time>2026-05-02T17:14:09Z</time></trkpt><trkpt lat="44.75893814449733" lon="9.941414363402158"><ele>556.0</ele><time>2026-05-02T17:14:10Z</time></trkpt><trkpt lat="44.758920970147216" lon="9.94157733603763"><ele>554.0</ele><time>2026-05-02T17:14:11Z</time></trkpt><trkpt lat="44.75888135434494" lon="9.941736981253557"><ele>552.0</ele><time>2026-05-02T17:14:12Z</time></trkpt><trkpt lat="44.75885333188443" lon="9.94190209520172"><ele>550.0</ele><time>2026-05-02T17:14:13Z</time></trkpt><trkpt lat="44.75883687619999" lon="9.942071966997261"><ele>548.0</ele><time>2026-05-02T17:14:14Z</time></trkpt><trkpt lat="44.758833571650676" lon="9.942248166985108"><ele>548.0</ele><time>2026-05-02T17:14:15Z</time></trkpt><trkpt lat="44.75884297484665" lon="9.94242175624729"><ele>548.0</ele><time>2026-05-02T17:14:16Z</time></trkpt><trkpt lat="44.758865032537244" lon="9.942589989765116"><ele>548.0</ele><time>2026-05-02T17:14:17Z</time></trkpt><trkpt lat="44.75889104066644" lon="9.942744770391753"><ele>548.0</ele><time>2026-05-02T17:14:18Z</time></trkpt><trkpt lat="44.75891641999507" lon="9.942879999299302"><ele>547.5714285714287</ele><time>2026-05-02T17:14:19Z</time></trkpt><trkpt lat="44.75893707492577" lon="9.942994843419324"><ele>547.1428571428571</ele><time>2026-05-02T17:14:20Z</time></trkpt><trkpt lat="44.758968482270774" lon="9.943087602046527"><ele>546.7142857142858</ele><time>2026-05-02T17:14:21Z</time></trkpt><trkpt lat="44.75902183947934" lon="9.94313506467531"><ele>546.2857142857143</ele><time>2026-05-02T17:14:22Z</time></trkpt><trkpt lat="44.75908602647913" lon="9.94312142708713"><ele>545.8571428571429</ele><time>2026-05-02T17:14:23Z</time></trkpt><trkpt lat="44.75913063950167" lon="9.943037662770648"><ele>545.4285714285714</ele><time>2026-05-02T17:14:24Z</time></trkpt><trkpt lat="44.75913436962004" lon="9.942926269344925"><ele>545.0</ele><time>2026-05-02T17:14:25Z</time></trkpt><trkpt lat="44.75911897974248" lon="9.942819994222296"><ele>545.0</ele><time>2026-05-02T17:14:26Z</time></trkpt><trkpt lat="44.75910975314843" lon="9.942711111848917"><ele>545.0</ele><time>2026-05-02T17:14:27Z</time></trkpt><trkpt lat="44.75911089215043" lon="9.942597611533197"><ele>545.0</ele><time>2026-05-02T17:14:28Z</time></trkpt><trkpt lat="44.75911665871171" lon="9.942479450797018"><ele>545.0</ele><time>2026-05-02T17:14:29Z</time></trkpt><trkpt lat="44.75913117920171" lon="9.942358290097786"><ele>545.0</ele><time>2026-05-02T17:14:30Z</time></trkpt><trkpt lat="44.75916168764882" lon="9.942238036102236"><ele>545.0</ele><time>2026-05-02T17:14:31Z</time></trkpt><trkpt lat="44.75920637430502" lon="9.942122327746864"><ele>545.6</ele><time>2026-05-02T17:14:32Z</time></trkpt><trkpt lat="44.7592592199075" lon="9.942012105800814"><ele>546.2</ele><time>2026-05-02T17:14:33Z</time></trkpt><trkpt lat="44.75931659754174" lon="9.94190067450775"><ele>546.8</ele><time>2026-05-02T17:14:34Z</time></trkpt><trkpt lat="44.75937452631407" lon="9.941786626429966"><ele>547.4</ele><time>2026-05-02T17:14:35Z</time></trkpt><trkpt lat="44.75943180044321" lon="9.941671302395186"><ele>548.0</ele><time>2026-05-02T17:14:36Z</time></trkpt><trkpt lat="44.75949208210087" lon="9.941554700956754"><ele>544.8</ele><time>2026-05-02T17:14:37Z</time></trkpt><trkpt lat="44.759549080285325" lon="9.94143324080158"><ele>541.5999999999999</ele><time>2026-05-02T17:14:38Z</time></trkpt><trkpt lat="44.75960986881683" lon="9.941310813031139"><ele>538.4000000000001</ele><time>2026-05-02T17:14:39Z</time></trkpt><trkpt lat="44.759671629946844" lon="9.941188130160972"><ele>535.2</ele><time>2026-05-02T17:14:40Z</time></trkpt><trkpt lat="44.7597367319334" lon="9.941068907423965"><ele>532.0</ele><time>2026-05-02T17:14:41Z</time></trkpt><trkpt lat="44.75980984987037" lon="9.94095241915424"><ele>533.6</ele><time>2026-05-02T17:14:42Z</time></trkpt><trkpt lat="44.7598847431771" lon="9.940839472002365"><ele>535.2</ele><time>2026-05-02T17:14:42.999Z</time></trkpt><trkpt lat="44.759958498180225" lon="9.940724086193397"><ele>536.8</ele><time>2026-05-02T17:14:43.999Z</time></trkpt><trkpt lat="44.760029749536095" lon="9.940609694334544"><ele>538.4</ele><time>2026-05-02T17:14:44.999Z</time></trkpt><trkpt lat="44.760100524736934" lon="9.940499648554711"><ele>540.0</ele><time>2026-05-02T17:14:45.999Z</time></trkpt><trkpt lat="44.76018112394504" lon="9.940398800639198"><ele>537.2</ele><time>2026-05-02T17:14:46.999Z</time></trkpt><trkpt lat="44.76028294424402" lon="9.940337240643844"><ele>534.4</ele><time>2026-05-02T17:14:47.999Z</time></trkpt><trkpt lat="44.760392250260885" lon="9.940300203823481"><ele>531.6</ele><time>2026-05-02T17:14:48.999Z</time></trkpt><trkpt lat="44.76050165832976" lon="9.940266263555952"><ele>528.8</ele><time>2026-05-02T17:14:49.999Z</time></trkpt><trkpt lat="44.76060539297299" lon="9.940227149021286"><ele>526.0</ele><time>2026-05-02T17:14:50.999Z</time></trkpt><trkpt lat="44.760704686435425" lon="9.940174032603297"><ele>526.0</ele><time>2026-05-02T17:14:51.999Z</time></trkpt><trkpt lat="44.7607978077449" lon="9.940125196337728"><ele>526.0</ele><time>2026-05-02T17:14:52.999Z</time></trkpt><trkpt lat="44.76088206638158" lon="9.940093225550756"><ele>526.0</ele><time>2026-05-02T17:14:53.999Z</time></trkpt><trkpt lat="44.76095318263418" lon="9.940096174334391"><ele>526.0</ele><time>2026-05-02T17:14:54.999Z</time></trkpt><trkpt lat="44.761006675169924" lon="9.940144167526887"><ele>526.0</ele><time>2026-05-02T17:14:55.999Z</time></trkpt><trkpt lat="44.76101143640458" lon="9.940243514721391"><ele>526.0</ele><time>2026-05-02T17:14:56.999Z</time></trkpt><trkpt lat="44.760975702469224" lon="9.940326970118017"><ele>526.0</ele><time>2026-05-02T17:14:57.999Z</time></trkpt><trkpt lat="44.76092337277841" lon="9.940385186869396"><ele>526.0</ele><time>2026-05-02T17:14:58.999Z</time></trkpt><trkpt lat="44.76087027584038" lon="9.940466852349285"><ele>526.0</ele><time>2026-05-02T17:14:59.999Z</time></trkpt><trkpt lat="44.7608465086181" lon="9.940596415352388"><ele>526.0</ele><time>2026-05-02T17:15:00.999Z</time></trkpt><trkpt lat="44.76078193782647" lon="9.940676488950135"><ele>526.0</ele><time>2026-05-02T17:15:01.999Z</time></trkpt><trkpt lat="44.76071731516472" lon="9.940760748640662"><ele>526.0</ele><time>2026-05-02T17:15:02.999Z</time></trkpt><trkpt lat="44.760655862185956" lon="9.940855576510087"><ele>523.8</ele><time>2026-05-02T17:15:03.999Z</time></trkpt><trkpt lat="44.760597619529214" lon="9.940958429017599"><ele>521.6</ele><time>2026-05-02T17:15:04.999Z</time></trkpt><trkpt lat="44.76052047457336" lon="9.941053451701231"><ele>519.4</ele><time>2026-05-02T17:15:05.999Z</time></trkpt><trkpt lat="44.76047863194117" lon="9.941187854777265"><ele>517.2</ele><time>2026-05-02T17:15:06.999Z</time></trkpt><trkpt lat="44.760444378931155" lon="9.94132632236679"><ele>515.0</ele><time>2026-05-02T17:15:07.999Z</time></trkpt><trkpt lat="44.76041405656462" lon="9.941467739265821"><ele>515.0</ele><time>2026-05-02T17:15:08.999Z</time></trkpt><trkpt lat="44.760384146010246" lon="9.94160989626106"><ele>515.0</ele><time>2026-05-02T17:15:09.999Z</time></trkpt><trkpt lat="44.76035547385821" lon="9.941755732599628"><ele>515.0</ele><time>2026-05-02T17:15:10.999Z</time></trkpt><trkpt lat="44.7603275822111" lon="9.941900161618594"><ele>515.0</ele><time>2026-05-02T17:15:11.999Z</time></trkpt><trkpt lat="44.760300789255204" lon="9.942049020536889"><ele>515.0</ele><time>2026-05-02T17:15:12.999Z</time></trkpt><trkpt lat="44.76027658929911" lon="9.942201515362553"><ele>515.0</ele><time>2026-05-02T17:15:13.999Z</time></trkpt><trkpt lat="44.76025500003719" lon="9.942352768000543"><ele>515.0</ele><time>2026-05-02T17:15:14.999Z</time></trkpt><trkpt lat="44.76024139418787" lon="9.942498965060095"><ele>515.0</ele><time>2026-05-02T17:15:15.999Z</time></trkpt><trkpt lat="44.76025600688707" lon="9.94264897672122"><ele>515.0</ele><time>2026-05-02T17:15:16.999Z</time></trkpt><trkpt lat="44.760322615375" lon="9.942770999838825"><ele>515.0</ele><time>2026-05-02T17:15:17.999Z</time></trkpt><trkpt lat="44.760384940130216" lon="9.942887298785115"><ele>515.0</ele><time>2026-05-02T17:15:18.999Z</time></trkpt><trkpt lat="44.76045229496539" lon="9.943001170098087"><ele>515.0</ele><time>2026-05-02T17:15:19.999Z</time></trkpt><trkpt lat="44.760510847866776" lon="9.943121782419865"><ele>515.0</ele><time>2026-05-02T17:15:20.999Z</time></trkpt><trkpt lat="44.76055341388959" lon="9.94325876545608"><ele>515.0</ele><time>2026-05-02T17:15:21.999Z</time></trkpt><trkpt lat="44.760585447936535" lon="9.943403186999497"><ele>515.0</ele><time>2026-05-02T17:15:22.999Z</time></trkpt><trkpt lat="44.76061776140554" lon="9.943549883371137"><ele>514.0</ele><time>2026-05-02T17:15:23.999Z</time></trkpt><trkpt lat="44.760651047556706" lon="9.943693165360932"><ele>513.0</ele><time>2026-05-02T17:15:24.999Z</time></trkpt><trkpt lat="44.76068422737974" lon="9.943827535997803"><ele>512.0</ele><time>2026-05-02T17:15:25.999Z</time></trkpt><trkpt lat="44.760723222832894" lon="9.943951672486548"><ele>511.0</ele><time>2026-05-02T17:15:26.999Z</time></trkpt><trkpt lat="44.760774560341446" lon="9.944052684981425"><ele>510.0</ele><time>2026-05-02T17:15:27.999Z</time></trkpt><trkpt lat="44.760841347104424" lon="9.944109412400236"><ele>510.0</ele><time>2026-05-02T17:15:28.999Z</time></trkpt><trkpt lat="44.7609094375206" lon="9.944107779206501"><ele>510.0</ele><time>2026-05-02T17:15:29.999Z</time></trkpt><trkpt lat="44.76097193011003" lon="9.944042279427117"><ele>510.0</ele><time>2026-05-02T17:15:30.999Z</time></trkpt><trkpt lat="44.76100196225373" lon="9.943944230542678"><ele>510.0</ele><time>2026-05-02T17:15:31.999Z</time></trkpt><trkpt lat="44.761024139547104" lon="9.9438427445306"><ele>510.0</ele><time>2026-05-02T17:15:32.999Z</time></trkpt><trkpt lat="44.761045476654886" lon="9.943741069147308"><ele>510.0</ele><time>2026-05-02T17:15:33.999Z</time></trkpt><trkpt lat="44.76106280639133" lon="9.943635110214297"><ele>510.8333333333333</ele><time>2026-05-02T17:15:34.999Z</time></trkpt><trkpt lat="44.761074989941676" lon="9.943523950815177"><ele>511.66666666666663</ele><time>2026-05-02T17:15:35.998Z</time></trkpt><trkpt lat="44.76107292958504" lon="9.943409907134834"><ele>512.5</ele><time>2026-05-02T17:15:36.998Z</time></trkpt><trkpt lat="44.76105998685668" lon="9.943292169750421"><ele>513.3333333333333</ele><time>2026-05-02T17:15:37.998Z</time></trkpt><trkpt lat="44.761036862244936" lon="9.943174453333803"><ele>514.1666666666666</ele><time>2026-05-02T17:15:38.998Z</time></trkpt><trkpt lat="44.761002244260695" lon="9.943059969829374"><ele>515.0</ele><time>2026-05-02T17:15:39.998Z</time></trkpt><trkpt lat="44.76097535194026" lon="9.942940464203593"><ele>515.0</ele><time>2026-05-02T17:15:40.998Z</time></trkpt><trkpt lat="44.760970650161454" lon="9.942809884167831"><ele>515.0</ele><time>2026-05-02T17:15:41.998Z</time></trkpt><trkpt lat="44.760985480620405" lon="9.942681134374078"><ele>515.0</ele><time>2026-05-02T17:15:42.998Z</time></trkpt><trkpt lat="44.76102478054606" lon="9.942559844409795"><ele>515.0</ele><time>2026-05-02T17:15:43.998Z</time></trkpt><trkpt lat="44.76108188234911" lon="9.942448702596884"><ele>515.0</ele><time>2026-05-02T17:15:44.998Z</time></trkpt><trkpt lat="44.761139131391715" lon="9.942335989461466"><ele>511.0</ele><time>2026-05-02T17:15:45.998Z</time></trkpt><trkpt lat="44.761199502814414" lon="9.94222095726413"><ele>507.0</ele><time>2026-05-02T17:15:47Z</time></trkpt><trkpt lat="44.76126161859666" lon="9.942104368495276"><ele>503.0</ele><time>2026-05-02T17:15:48Z</time></trkpt><trkpt lat="44.76132228067832" lon="9.941988795070428"><ele>499.0</ele><time>2026-05-02T17:15:49Z</time></trkpt><trkpt lat="44.761398273419324" lon="9.941890640855364"><ele>495.0</ele><time>2026-05-02T17:15:50Z</time></trkpt><trkpt lat="44.76148794371381" lon="9.941807071000929"><ele>495.0</ele><time>2026-05-02T17:15:51Z</time></trkpt><trkpt lat="44.761583715469975" lon="9.941734466252177"><ele>495.0</ele><time>2026-05-02T17:15:52Z</time></trkpt><trkpt lat="44.76168677401971" lon="9.94169562345616"><ele>495.0</ele><time>2026-05-02T17:15:53Z</time></trkpt><trkpt lat="44.761793272224004" lon="9.94167679681672"><ele>495.0</ele><time>2026-05-02T17:15:54Z</time></trkpt><trkpt lat="44.761898787877" lon="9.941683320425549"><ele>495.0</ele><time>2026-05-02T17:15:55Z</time></trkpt><trkpt lat="44.76200259418423" lon="9.941703285277814"><ele>494.2</ele><time>2026-05-02T17:15:56Z</time></trkpt><trkpt lat="44.76210713504166" lon="9.941698912496783"><ele>493.4</ele><time>2026-05-02T17:15:57Z</time></trkpt><trkpt lat="44.76220653705101" lon="9.941645540111002"><ele>492.6</ele><time>2026-05-02T17:15:58Z</time></trkpt><trkpt lat="44.762294652459794" lon="9.941553193481028"><ele>491.8</ele><time>2026-05-02T17:15:59Z</time></trkpt><trkpt lat="44.76236894447827" lon="9.941439212938313"><ele>491.0</ele><time>2026-05-02T17:16:00Z</time></trkpt><trkpt lat="44.7624365090359" lon="9.941317730802448"><ele>491.0</ele><time>2026-05-02T17:16:01Z</time></trkpt><trkpt lat="44.76249856951599" lon="9.941200123928537"><ele>491.0</ele><time>2026-05-02T17:16:02Z</time></trkpt><trkpt lat="44.7625662417395" lon="9.941102611147207"><ele>491.0</ele><time>2026-05-02T17:16:03Z</time></trkpt><trkpt lat="44.76265511028848" lon="9.941048226492766"><ele>491.0</ele><time>2026-05-02T17:16:04Z</time></trkpt><trkpt lat="44.762756614109314" lon="9.941045308358378"><ele>491.0</ele><time>2026-05-02T17:16:05Z</time></trkpt><trkpt lat="44.762852487364725" lon="9.941092596858532"><ele>488.4</ele><time>2026-05-02T17:16:06Z</time></trkpt><trkpt lat="44.76293959814399" lon="9.941156698725287"><ele>485.8</ele><time>2026-05-02T17:16:07Z</time></trkpt><trkpt lat="44.7630317898454" lon="9.941203618091757"><ele>483.19999999999993</ele><time>2026-05-02T17:16:08Z</time></trkpt><trkpt lat="44.76312903051871" lon="9.941214381762606"><ele>480.59999999999997</ele><time>2026-05-02T17:16:09Z</time></trkpt><trkpt lat="44.76323119206756" lon="9.941194108451949"><ele>478.0</ele><time>2026-05-02T17:16:10Z</time></trkpt><trkpt lat="44.763330540434694" lon="9.941147998373497"><ele>478.0</ele><time>2026-05-02T17:16:11Z</time></trkpt><trkpt lat="44.76342694803588" lon="9.941083133956859"><ele>477.99999999999994</ele><time>2026-05-02T17:16:12Z</time></trkpt><trkpt lat="44.76352319481623" lon="9.94101621110763"><ele>477.99999999999994</ele><time>2026-05-02T17:16:13Z</time></trkpt><trkpt lat="44.76362132880133" lon="9.940939767342616"><ele>478.0</ele><time>2026-05-02T17:16:14Z</time></trkpt><trkpt lat="44.76370904252696" lon="9.940851856942523"><ele>478.0</ele><time>2026-05-02T17:16:15Z</time></trkpt><trkpt lat="44.76377609602925" lon="9.940743164448753"><ele>476.83333333333337</ele><time>2026-05-02T17:16:16Z</time></trkpt><trkpt lat="44.76382313163833" lon="9.940621791193426"><ele>475.6666666666667</ele><time>2026-05-02T17:16:17Z</time></trkpt><trkpt lat="44.76386089000158" lon="9.940526127412404"><ele>474.5</ele><time>2026-05-02T17:16:18Z</time></trkpt><trkpt lat="44.76396580729462" lon="9.940483451428344"><ele>473.33333333333337</ele><time>2026-05-02T17:16:20Z</time></trkpt><trkpt lat="44.76400445868105" lon="9.940559185362849"><ele>472.1666666666667</ele><time>2026-05-02T17:16:21Z</time></trkpt><trkpt lat="44.763946639317176" lon="9.940653965711567"><ele>471.0</ele><time>2026-05-02T17:16:22Z</time></trkpt><trkpt lat="44.763892441345206" lon="9.940817791003239"><ele>469.3333333333333</ele><time>2026-05-02T17:16:24Z</time></trkpt><trkpt lat="44.76385814600263" lon="9.940908845507192"><ele>467.66666666666663</ele><time>2026-05-02T17:16:25Z</time></trkpt><trkpt lat="44.76381113787611" lon="9.941001738542985"><ele>466.0</ele><time>2026-05-02T17:16:26Z</time></trkpt><trkpt lat="44.76375909840458" lon="9.94109707330803"><ele>464.3333333333333</ele><time>2026-05-02T17:16:27Z</time></trkpt><trkpt lat="44.76370282202557" lon="9.941196666732202"><ele>462.66666666666663</ele><time>2026-05-02T17:16:28Z</time></trkpt><trkpt lat="44.763644738486136" lon="9.941303671100867"><ele>461.0</ele><time>2026-05-02T17:16:29Z</time></trkpt><trkpt lat="44.76358606858277" lon="9.941413509558906"><ele>462.0</ele><time>2026-05-02T17:16:30Z</time></trkpt><trkpt lat="44.763525697759015" lon="9.941526532387924"><ele>463.0</ele><time>2026-05-02T17:16:31Z</time></trkpt><trkpt lat="44.763464679005246" lon="9.941647615446403"><ele>464.0</ele><time>2026-05-02T17:16:32Z</time></trkpt><trkpt lat="44.76340262330397" lon="9.941770982845597"><ele>465.0</ele><time>2026-05-02T17:16:33Z</time></trkpt><trkpt lat="44.763340771812416" lon="9.941894737339865"><ele>466.0</ele><time>2026-05-02T17:16:34Z</time></trkpt><trkpt lat="44.76327926737222" lon="9.94201779754595"><ele>466.0</ele><time>2026-05-02T17:16:35Z</time></trkpt><trkpt lat="44.76322508443862" lon="9.942149753888451"><ele>466.0</ele><time>2026-05-02T17:16:36Z</time></trkpt><trkpt lat="44.76317209933988" lon="9.942276585498451"><ele>466.0</ele><time>2026-05-02T17:16:37Z</time></trkpt><trkpt lat="44.763121144179316" lon="9.942402457587882"><ele>466.0</ele><time>2026-05-02T17:16:38Z</time></trkpt><trkpt lat="44.76308403526578" lon="9.942526153258342"><ele>466.0</ele><time>2026-05-02T17:16:39Z</time></trkpt><trkpt lat="44.76307654752124" lon="9.942653706690681"><ele>465.6</ele><time>2026-05-02T17:16:40Z</time></trkpt><trkpt lat="44.763138172688095" lon="9.94275854375074"><ele>465.20000000000005</ele><time>2026-05-02T17:16:41Z</time></trkpt><trkpt lat="44.7632127050672" lon="9.942814482250036"><ele>464.79999999999995</ele><time>2026-05-02T17:16:42Z</time></trkpt><trkpt lat="44.76330712055455" lon="9.942822832951169"><ele>464.4</ele><time>2026-05-02T17:16:43Z</time></trkpt><trkpt lat="44.7634015030244" lon="9.942795228026073"><ele>464.0</ele><time>2026-05-02T17:16:44Z</time></trkpt><trkpt lat="44.763496639785" lon="9.942751204522905"><ele>462.2</ele><time>2026-05-02T17:16:45Z</time></trkpt><trkpt lat="44.76359317863524" lon="9.942702256320386"><ele>460.4</ele><time>2026-05-02T17:16:46Z</time></trkpt><trkpt lat="44.76369106168584" lon="9.942643110427579"><ele>458.6</ele><time>2026-05-02T17:16:47Z</time></trkpt><trkpt lat="44.76379038793745" lon="9.942568092198202"><ele>456.8</ele><time>2026-05-02T17:16:48Z</time></trkpt><trkpt lat="44.76388709411093" lon="9.942475485638544"><ele>455.0</ele><time>2026-05-02T17:16:48.999Z</time></trkpt><trkpt lat="44.763978913078084" lon="9.942374245914205"><ele>455.0</ele><time>2026-05-02T17:16:49.999Z</time></trkpt><trkpt lat="44.76407152319187" lon="9.942276004903448"><ele>455.0</ele><time>2026-05-02T17:16:50.999Z</time></trkpt><trkpt lat="44.76417102526478" lon="9.942188570171096"><ele>455.0</ele><time>2026-05-02T17:16:51.999Z</time></trkpt><trkpt lat="44.76427654820117" lon="9.942110086880684"><ele>455.0</ele><time>2026-05-02T17:16:52.999Z</time></trkpt><trkpt lat="44.764382943216184" lon="9.94202873709208"><ele>452.25</ele><time>2026-05-02T17:16:53.999Z</time></trkpt><trkpt lat="44.76449186916514" lon="9.941942723579226"><ele>449.5</ele><time>2026-05-02T17:16:54.999Z</time></trkpt><trkpt lat="44.764601143381356" lon="9.941858003486457"><ele>446.75</ele><time>2026-05-02T17:16:55.999Z</time></trkpt><trkpt lat="44.76471272584734" lon="9.941770690285336"><ele>444.0</ele><time>2026-05-02T17:16:56.999Z</time></trkpt><trkpt lat="44.76482867622027" lon="9.941679746292163"><ele>444.0</ele><time>2026-05-02T17:16:57.999Z</time></trkpt><trkpt lat="44.76494738249477" lon="9.941587361311706"><ele>444.0</ele><time>2026-05-02T17:16:58.999Z</time></trkpt><trkpt lat="44.76506720676492" lon="9.941494174410403"><ele>444.0</ele><time>2026-05-02T17:16:59.999Z</time></trkpt><trkpt lat="44.76519189494257" lon="9.941402028645161"><ele>444.0</ele><time>2026-05-02T17:17:00.999Z</time></trkpt><trkpt lat="44.76531778492471" lon="9.941311765030271"><ele>441.0</ele><time>2026-05-02T17:17:01.999Z</time></trkpt><trkpt lat="44.76544294766997" lon="9.941217985527178"><ele>438.0</ele><time>2026-05-02T17:17:02.999Z</time></trkpt><trkpt lat="44.76556872546239" lon="9.94112264237989"><ele>435.0</ele><time>2026-05-02T17:17:03.999Z</time></trkpt><trkpt lat="44.76569774056354" lon="9.941036089101974"><ele>432.0</ele><time>2026-05-02T17:17:04.999Z</time></trkpt><trkpt lat="44.765829184147094" lon="9.940967724084269"><ele>432.0</ele><time>2026-05-02T17:17:05.999Z</time></trkpt><trkpt lat="44.76596311654033" lon="9.940908105546034"><ele>432.0</ele><time>2026-05-02T17:17:06.999Z</time></trkpt><trkpt lat="44.76609622834536" lon="9.940858772177684"><ele>432.0</ele><time>2026-05-02T17:17:07.999Z</time></trkpt><trkpt lat="44.76623165031477" lon="9.94080561281719"><ele>432.0</ele><time>2026-05-02T17:17:08.999Z</time></trkpt><trkpt lat="44.76636537874343" lon="9.940746671700666"><ele>432.0</ele><time>2026-05-02T17:17:09.999Z</time></trkpt><trkpt lat="44.76650044765105" lon="9.940684705692208"><ele>432.0</ele><time>2026-05-02T17:17:10.999Z</time></trkpt><trkpt lat="44.76663417867856" lon="9.940628239493766"><ele>432.0</ele><time>2026-05-02T17:17:11.999Z</time></trkpt><trkpt lat="44.766772728620936" lon="9.940584675143112"><ele>432.0</ele><time>2026-05-02T17:17:12.999Z</time></trkpt><trkpt lat="44.76691244963222" lon="9.940548093835362"><ele>431.25</ele><time>2026-05-02T17:17:13.999Z</time></trkpt><trkpt lat="44.76705381559137" lon="9.940514057930528"><ele>430.5</ele><time>2026-05-02T17:17:14.999Z</time></trkpt><trkpt lat="44.76719358187378" lon="9.940481702653402"><ele>429.75</ele><time>2026-05-02T17:17:15.999Z</time></trkpt><trkpt lat="44.7673337121275" lon="9.940452446712525"><ele>429.0</ele><time>2026-05-02T17:17:16.999Z</time></trkpt><trkpt lat="44.76747319010976" lon="9.940418996374435"><ele>429.0</ele><time>2026-05-02T17:17:17.999Z</time></trkpt><trkpt lat="44.767608550293765" lon="9.94038543685016"><ele>429.0</ele><time>2026-05-02T17:17:18.999Z</time></trkpt><trkpt lat="44.76773764787518" lon="9.940362992049133"><ele>429.0</ele><time>2026-05-02T17:17:19.999Z</time></trkpt><trkpt lat="44.76786218828003" lon="9.940361990500401"><ele>429.0</ele><time>2026-05-02T17:17:20.999Z</time></trkpt><trkpt lat="44.7679801668908" lon="9.940393620465372"><ele>428.0</ele><time>2026-05-02T17:17:21.999Z</time></trkpt><trkpt lat="44.76809462597749" lon="9.940442004260046"><ele>427.0</ele><time>2026-05-02T17:17:22.999Z</time></trkpt><trkpt lat="44.768203778771486" lon="9.940495988821356"><ele>426.0</ele><time>2026-05-02T17:17:23.999Z</time></trkpt><trkpt lat="44.768306019097714" lon="9.940571511991408"><ele>425.0</ele><time>2026-05-02T17:17:24.999Z</time></trkpt><trkpt lat="44.768399875268265" lon="9.94067157054745"><ele>425.0</ele><time>2026-05-02T17:17:25.999Z</time></trkpt><trkpt lat="44.768462872233144" lon="9.940809371715577"><ele>425.0</ele><time>2026-05-02T17:17:26.999Z</time></trkpt><trkpt lat="44.76850450929101" lon="9.940954583175644"><ele>425.0</ele><time>2026-05-02T17:17:27.999Z</time></trkpt><trkpt lat="44.76853787279981" lon="9.941110647191602"><ele>425.0</ele><time>2026-05-02T17:17:28.999Z</time></trkpt><trkpt lat="44.76857111296242" lon="9.941270892695433"><ele>422.5</ele><time>2026-05-02T17:17:29.999Z</time></trkpt><trkpt lat="44.76862393576053" lon="9.941419093215494"><ele>420.0</ele><time>2026-05-02T17:17:30.999Z</time></trkpt><trkpt lat="44.76871146321245" lon="9.941525245956681"><ele>417.5</ele><time>2026-05-02T17:17:31.999Z</time></trkpt><trkpt lat="44.76880608805662" lon="9.941612155588103"><ele>415.0</ele><time>2026-05-02T17:17:32.999Z</time></trkpt><trkpt lat="44.76891087661796" lon="9.9416765447913"><ele>414.0</ele><time>2026-05-02T17:17:33.999Z</time></trkpt><trkpt lat="44.769019427316024" lon="9.94173348292119"><ele>413.0</ele><time>2026-05-02T17:17:34.999Z</time></trkpt><trkpt lat="44.76913208628395" lon="9.941785050647358"><ele>412.0</ele><time>2026-05-02T17:17:35.999Z</time></trkpt><trkpt lat="44.76925019680047" lon="9.941819797801262"><ele>411.0</ele><time>2026-05-02T17:17:36.999Z</time></trkpt><trkpt lat="44.769370543334105" lon="9.941832949605303"><ele>411.25</ele><time>2026-05-02T17:17:37.999Z</time></trkpt><trkpt lat="44.76949235301377" lon="9.941813250372102"><ele>411.5</ele><time>2026-05-02T17:17:38.999Z</time></trkpt><trkpt lat="44.76960936045798" lon="9.941760340850246"><ele>411.75</ele><time>2026-05-02T17:17:39.999Z</time></trkpt><trkpt lat="44.769715780733485" lon="9.94167316590475"><ele>412.0</ele><time>2026-05-02T17:17:40.999Z</time></trkpt><trkpt lat="44.76981511036669" lon="9.94156715929295"><ele>412.0</ele><time>2026-05-02T17:17:41.998Z</time></trkpt><trkpt lat="44.76990638321804" lon="9.94144619866547"><ele>412.0</ele><time>2026-05-02T17:17:42.998Z</time></trkpt><trkpt lat="44.76998279231229" lon="9.941304593766631"><ele>412.0</ele><time>2026-05-02T17:17:43.998Z</time></trkpt><trkpt lat="44.77004344447638" lon="9.941151970146814"><ele>412.0</ele><time>2026-05-02T17:17:44.998Z</time></trkpt><trkpt lat="44.7701006145867" lon="9.94099001390413"><ele>410.75</ele><time>2026-05-02T17:17:45.998Z</time></trkpt><trkpt lat="44.7701546703476" lon="9.940824542413965"><ele>409.5</ele><time>2026-05-02T17:17:46.998Z</time></trkpt><trkpt lat="44.7702081660925" lon="9.940671800832376"><ele>408.25</ele><time>2026-05-02T17:17:47.998Z</time></trkpt><trkpt lat="44.770273202034645" lon="9.940554193715327"><ele>407.0</ele><time>2026-05-02T17:17:48.998Z</time></trkpt><trkpt lat="44.77036305831936" lon="9.940461376349763"><ele>403.5</ele><time>2026-05-02T17:17:49.998Z</time></trkpt><trkpt lat="44.77047195217876" lon="9.940406302488999"><ele>400.0</ele><time>2026-05-02T17:17:50.998Z</time></trkpt><trkpt lat="44.770588958971246" lon="9.940373740959291"><ele>396.5</ele><time>2026-05-02T17:17:52Z</time></trkpt><trkpt lat="44.77070459159742" lon="9.940328013045153"><ele>393.0</ele><time>2026-05-02T17:17:53Z</time></trkpt><trkpt lat="44.77081532378228" lon="9.940250398713898"><ele>393.0</ele><time>2026-05-02T17:17:54Z</time></trkpt><trkpt lat="44.77091997546024" lon="9.940161543157776"><ele>393.0</ele><time>2026-05-02T17:17:55Z</time></trkpt><trkpt lat="44.771025731937286" lon="9.940075669927122"><ele>393.0</ele><time>2026-05-02T17:17:56Z</time></trkpt><trkpt lat="44.77113181219952" lon="9.939996490342068"><ele>393.0</ele><time>2026-05-02T17:17:57Z</time></trkpt><trkpt lat="44.77124349824731" lon="9.939927683558205"><ele>390.0</ele><time>2026-05-02T17:17:58Z</time></trkpt><trkpt lat="44.771345140688204" lon="9.939867966331219"><ele>387.0</ele><time>2026-05-02T17:17:59Z</time></trkpt><trkpt lat="44.77144489058251" lon="9.939820580965012"><ele>384.0</ele><time>2026-05-02T17:18:00Z</time></trkpt><trkpt lat="44.77154088646371" lon="9.939772560320453"><ele>381.0</ele><time>2026-05-02T17:18:01Z</time></trkpt><trkpt lat="44.771630164053676" lon="9.939714042399505"><ele>378.0</ele><time>2026-05-02T17:18:02Z</time></trkpt><trkpt lat="44.771704572490904" lon="9.939633712287987"><ele>378.0</ele><time>2026-05-02T17:18:03Z</time></trkpt><trkpt lat="44.77175996098459" lon="9.939520281662668"><ele>378.0</ele><time>2026-05-02T17:18:04Z</time></trkpt><trkpt lat="44.77179800955573" lon="9.939395445891602"><ele>378.0</ele><time>2026-05-02T17:18:05Z</time></trkpt><trkpt lat="44.771816383005934" lon="9.93925918878578"><ele>378.0</ele><time>2026-05-02T17:18:06Z</time></trkpt><trkpt lat="44.771813839900055" lon="9.939116457181335"><ele>378.0</ele><time>2026-05-02T17:18:07Z</time></trkpt><trkpt lat="44.771793890409306" lon="9.938980008525927"><ele>380.59999999999997</ele><time>2026-05-02T17:18:08Z</time></trkpt><trkpt lat="44.771754929660524" lon="9.938856051209541"><ele>383.2</ele><time>2026-05-02T17:18:09Z</time></trkpt><trkpt lat="44.77169007736084" lon="9.938750823573306"><ele>385.8</ele><time>2026-05-02T17:18:10Z</time></trkpt><trkpt lat="44.77161581587802" lon="9.938659916890996"><ele>388.4</ele><time>2026-05-02T17:18:11Z</time></trkpt><trkpt lat="44.77152792236172" lon="9.938599355944719"><ele>391.0</ele><time>2026-05-02T17:18:12Z</time></trkpt><trkpt lat="44.771435368028996" lon="9.93853409565698"><ele>391.0</ele><time>2026-05-02T17:18:13Z</time></trkpt><trkpt lat="44.771326150169656" lon="9.938538350201897"><ele>391.0</ele><time>2026-05-02T17:18:14Z</time></trkpt><trkpt lat="44.771220237907116" lon="9.93857641163799"><ele>391.0</ele><time>2026-05-02T17:18:15Z</time></trkpt><trkpt lat="44.77111848868169" lon="9.938617275994773"><ele>391.0</ele><time>2026-05-02T17:18:16Z</time></trkpt><trkpt lat="44.77101783184245" lon="9.938651110798235"><ele>391.0</ele><time>2026-05-02T17:18:17Z</time></trkpt><trkpt lat="44.77092324681678" lon="9.938670345800773"><ele>390.8</ele><time>2026-05-02T17:18:18Z</time></trkpt><trkpt lat="44.77083552430504" lon="9.938670095960193"><ele>390.6</ele><time>2026-05-02T17:18:19Z</time></trkpt><trkpt lat="44.77075052522872" lon="9.938634801312762"><ele>390.4</ele><time>2026-05-02T17:18:20Z</time></trkpt><trkpt lat="44.770671289462676" lon="9.93856640773623"><ele>390.2</ele><time>2026-05-02T17:18:21Z</time></trkpt><trkpt lat="44.77058539369074" lon="9.938482663959654"><ele>390.0</ele><time>2026-05-02T17:18:22Z</time></trkpt><trkpt lat="44.7704891713247" lon="9.938414008555062"><ele>387.8</ele><time>2026-05-02T17:18:23Z</time></trkpt><trkpt lat="44.77039797973727" lon="9.938326540791488"><ele>385.6</ele><time>2026-05-02T17:18:24Z</time></trkpt><trkpt lat="44.77030294876089" lon="9.93824437749059"><ele>383.4</ele><time>2026-05-02T17:18:25Z</time></trkpt><trkpt lat="44.77022096666262" lon="9.938155501929435"><ele>381.2</ele><time>2026-05-02T17:18:26Z</time></trkpt><trkpt lat="44.77016352839319" lon="9.938046088806487"><ele>379.0</ele><time>2026-05-02T17:18:27Z</time></trkpt><trkpt lat="44.77014439214198" lon="9.93792196648117"><ele>379.0</ele><time>2026-05-02T17:18:28Z</time></trkpt><trkpt lat="44.77016439367142" lon="9.937799961940577"><ele>379.0</ele><time>2026-05-02T17:18:29Z</time></trkpt><trkpt lat="44.77021720442634" lon="9.93769260679011"><ele>379.0</ele><time>2026-05-02T17:18:30Z</time></trkpt><trkpt lat="44.77029438875294" lon="9.937621583466811"><ele>379.0</ele><time>2026-05-02T17:18:31Z</time></trkpt><trkpt lat="44.77037978745887" lon="9.937601340410037"><ele>379.0</ele><time>2026-05-02T17:18:32Z</time></trkpt><trkpt lat="44.77046150247014" lon="9.937630348019626"><ele>379.0</ele><time>2026-05-02T17:18:33Z</time></trkpt><trkpt lat="44.77053020498956" lon="9.9377094301131"><ele>379.0</ele><time>2026-05-02T17:18:34Z</time></trkpt><trkpt lat="44.77057331561941" lon="9.937821085057989"><ele>379.0</ele><time>2026-05-02T17:18:35Z</time></trkpt><trkpt lat="44.77061878709548" lon="9.937929190271234"><ele>379.0</ele><time>2026-05-02T17:18:36Z</time></trkpt><trkpt lat="44.77068091522262" lon="9.938025154588756"><ele>379.0</ele><time>2026-05-02T17:18:37Z</time></trkpt><trkpt lat="44.77076622350213" lon="9.938082945269013"><ele>379.0</ele><time>2026-05-02T17:18:38Z</time></trkpt><trkpt lat="44.770864764701585" lon="9.93807813740084"><ele>379.0</ele><time>2026-05-02T17:18:39Z</time></trkpt><trkpt lat="44.77095055671566" lon="9.938024513104006"><ele>379.0</ele><time>2026-05-02T17:18:40Z</time></trkpt><trkpt lat="44.771019473749234" lon="9.937933271718467"><ele>379.0</ele><time>2026-05-02T17:18:41Z</time></trkpt><trkpt lat="44.771082039658324" lon="9.937836003761763"><ele>379.0</ele><time>2026-05-02T17:18:42Z</time></trkpt><trkpt lat="44.771150187332616" lon="9.937750786280992"><ele>379.0</ele><time>2026-05-02T17:18:43Z</time></trkpt><trkpt lat="44.771231452826434" lon="9.93767827301955"><ele>378.79999999999995</ele><time>2026-05-02T17:18:44Z</time></trkpt><trkpt lat="44.77132461946633" lon="9.937630571477195"><ele>378.59999999999997</ele><time>2026-05-02T17:18:45Z</time></trkpt><trkpt lat="44.7714291171457" lon="9.937633717148053"><ele>378.4</ele><time>2026-05-02T17:18:46Z</time></trkpt><trkpt lat="44.77152699388045" lon="9.937668453786323"><ele>378.2</ele><time>2026-05-02T17:18:47Z</time></trkpt><trkpt lat="44.77160825118683" lon="9.93771474252221"><ele>378.0</ele><time>2026-05-02T17:18:48Z</time></trkpt><trkpt lat="44.77167457657256" lon="9.937731332853794"><ele>378.0</ele><time>2026-05-02T17:18:49Z</time></trkpt><trkpt lat="44.7717329269209" lon="9.937589868492456"><ele>378.0</ele><time>2026-05-02T17:18:51Z</time></trkpt><trkpt lat="44.77169019712037" lon="9.937497972724158"><ele>378.0</ele><time>2026-05-02T17:18:52Z</time></trkpt><trkpt lat="44.77162028565173" lon="9.937445311971445"><ele>378.0</ele><time>2026-05-02T17:18:52.999Z</time></trkpt><trkpt lat="44.77154694940097" lon="9.93742975764351"><ele>378.0</ele><time>2026-05-02T17:18:53.999Z</time></trkpt><trkpt lat="44.77148125054359" lon="9.937403457174849"><ele>378.0</ele><time>2026-05-02T17:18:54.999Z</time></trkpt><trkpt lat="44.771417625184554" lon="9.937387400841558"><ele>375.0</ele><time>2026-05-02T17:18:55.999Z</time></trkpt><trkpt lat="44.7713520014272" lon="9.937369612238083"><ele>372.0</ele><time>2026-05-02T17:18:56.999Z</time></trkpt><trkpt lat="44.77128311810895" lon="9.937350940073337"><ele>369.0</ele><time>2026-05-02T17:18:57.999Z</time></trkpt><trkpt lat="44.77121338279396" lon="9.937330377677908"><ele>366.0</ele><time>2026-05-02T17:18:58.999Z</time></trkpt><trkpt lat="44.7711197438507" lon="9.937275319213706"><ele>363.0</ele><time>2026-05-02T17:19:00.999Z</time></trkpt><trkpt lat="44.77116595256178" lon="9.937123170942357"><ele>360.0</ele><time>2026-05-02T17:19:02.999Z</time></trkpt><trkpt lat="44.77124877221349" lon="9.937113507523714"><ele>360.0</ele><time>2026-05-02T17:19:03.999Z</time></trkpt><trkpt lat="44.771323589091416" lon="9.937136796350034"><ele>360.0</ele><time>2026-05-02T17:19:04.999Z</time></trkpt><trkpt lat="44.771400814419415" lon="9.937171286698362"><ele>360.0</ele><time>2026-05-02T17:19:05.999Z</time></trkpt><trkpt lat="44.771478340417076" lon="9.937203831558945"><ele>360.0</ele><time>2026-05-02T17:19:06.999Z</time></trkpt><trkpt lat="44.77155910981657" lon="9.937237719706978"><ele>360.0</ele><time>2026-05-02T17:19:07.999Z</time></trkpt><trkpt lat="44.77164501629162" lon="9.937266404397246"><ele>360.0</ele><time>2026-05-02T17:19:08.999Z</time></trkpt><trkpt lat="44.77173822690381" lon="9.93729270049993"><ele>360.0</ele><time>2026-05-02T17:19:09.999Z</time></trkpt><trkpt lat="44.771832021628526" lon="9.937312934195367"><ele>360.0</ele><time>2026-05-02T17:19:10.999Z</time></trkpt><trkpt lat="44.77192476433213" lon="9.93733823624327"><ele>360.0</ele><time>2026-05-02T17:19:11.999Z</time></trkpt><trkpt lat="44.77202038794969" lon="9.937376046781313"><ele>360.0</ele><time>2026-05-02T17:19:12.999Z</time></trkpt><trkpt lat="44.77211710384138" lon="9.937408280921112"><ele>360.0</ele><time>2026-05-02T17:19:13.999Z</time></trkpt><trkpt lat="44.77221190006168" lon="9.937434169011029"><ele>361.4</ele><time>2026-05-02T17:19:14.999Z</time></trkpt><trkpt lat="44.772305829558235" lon="9.937468769581146"><ele>362.8</ele><time>2026-05-02T17:19:15.999Z</time></trkpt><trkpt lat="44.77239473343006" lon="9.937510363528025"><ele>364.20000000000005</ele><time>2026-05-02T17:19:16.999Z</time></trkpt><trkpt lat="44.77248149712677" lon="9.937548320127666"><ele>365.6</ele><time>2026-05-02T17:19:17.999Z</time></trkpt><trkpt lat="44.772570922840266" lon="9.937591292993897"><ele>367.0</ele><time>2026-05-02T17:19:18.999Z</time></trkpt><trkpt lat="44.77264577000954" lon="9.937629519694879"><ele>362.0</ele><time>2026-05-02T17:19:19.999Z</time></trkpt><trkpt lat="44.77272705441301" lon="9.937674342692558"><ele>357.0</ele><time>2026-05-02T17:19:20.999Z</time></trkpt><trkpt lat="44.772803540031305" lon="9.93768643858576"><ele>352.0</ele><time>2026-05-02T17:19:21.999Z</time></trkpt><trkpt lat="44.772864036199074" lon="9.937660997952669"><ele>347.0</ele><time>2026-05-02T17:19:22.999Z</time></trkpt><trkpt lat="44.77288034204729" lon="9.93748902978135"><ele>342.0</ele><time>2026-05-02T17:19:24.999Z</time></trkpt><trkpt lat="44.77282575395899" lon="9.937410473572575"><ele>337.0</ele><time>2026-05-02T17:19:25.999Z</time></trkpt><trkpt lat="44.77276355342566" lon="9.937363980376887"><ele>336.8333333333333</ele><time>2026-05-02T17:19:26.999Z</time></trkpt><trkpt lat="44.77270093948137" lon="9.937316563203478"><ele>336.66666666666663</ele><time>2026-05-02T17:19:27.999Z</time></trkpt><trkpt lat="44.77264767982066" lon="9.937245478398804"><ele>336.5</ele><time>2026-05-02T17:19:28.999Z</time></trkpt><trkpt lat="44.7725844832499" lon="9.937212422628352"><ele>336.3333333333333</ele><time>2026-05-02T17:19:29.999Z</time></trkpt><trkpt lat="44.772558376322344" lon="9.9370511944787"><ele>336.1666666666667</ele><time>2026-05-02T17:19:31.999Z</time></trkpt><trkpt lat="44.772605262719814" lon="9.936980619387832"><ele>336.0</ele><time>2026-05-02T17:19:32.999Z</time></trkpt><trkpt lat="44.77268140434824" lon="9.936973336088469"><ele>336.0</ele><time>2026-05-02T17:19:33.999Z</time></trkpt><trkpt lat="44.77275305535565" lon="9.937015762553392"><ele>336.0</ele><time>2026-05-02T17:19:34.999Z</time></trkpt><trkpt lat="44.77282273438966" lon="9.937066017906055"><ele>336.0</ele><time>2026-05-02T17:19:35.999Z</time></trkpt><trkpt lat="44.7728956126893" lon="9.937115080302984"><ele>336.0</ele><time>2026-05-02T17:19:36.999Z</time></trkpt><trkpt lat="44.772962914276356" lon="9.937166172034996"><ele>336.0</ele><time>2026-05-02T17:19:37.999Z</time></trkpt><trkpt lat="44.7730280088397" lon="9.937211923567927"><ele>336.0</ele><time>2026-05-02T17:19:38.999Z</time></trkpt><trkpt lat="44.77308835468705" lon="9.937245306034086"><ele>336.0</ele><time>2026-05-02T17:19:39.999Z</time></trkpt><trkpt lat="44.77318347199238" lon="9.937309409903197"><ele>336.0</ele><time>2026-05-02T17:19:41.999Z</time></trkpt><trkpt lat="44.773236366842156" lon="9.937392767974233"><ele>336.0</ele><time>2026-05-02T17:19:44.999Z</time></trkpt><trkpt lat="44.77327366163074" lon="9.937469373082173"><ele>336.0</ele><time>2026-05-02T17:48:28.999Z</time></trkpt><trkpt lat="44.77324405532289" lon="9.937389599847561"><ele>336.0</ele><time>2026-05-02T17:53:09.998Z</time></trkpt><trkpt lat="44.77334775084713" lon="9.93739201105606"><ele>336.0</ele><time>2026-05-02T17:53:32Z</time></trkpt><trkpt lat="44.77341487285608" lon="9.937426876088276"><ele>336.0</ele><time>2026-05-02T17:53:34Z</time></trkpt><trkpt lat="44.77349264132433" lon="9.937471959573019"><ele>336.0</ele><time>2026-05-02T17:53:36Z</time></trkpt><trkpt lat="44.77357216908879" lon="9.937517379994574"><ele>336.0</ele><time>2026-05-02T17:53:38Z</time></trkpt><trkpt lat="44.77364352205444" lon="9.937559758754873"><ele>336.0</ele><time>2026-05-02T17:53:40Z</time></trkpt><trkpt lat="44.773710423021186" lon="9.937596439249349"><ele>336.0</ele><time>2026-05-02T17:53:42Z</time></trkpt><trkpt lat="44.773760005404235" lon="9.937656326985861"><ele>336.0</ele><time>2026-05-02T17:53:44Z</time></trkpt><trkpt lat="44.773833553608156" lon="9.937654438434791"><ele>336.0</ele><time>2026-05-02T17:53:47Z</time></trkpt><trkpt lat="44.77379114427398" lon="9.937572905678987"><ele>336.0</ele><time>2026-05-02T17:53:50Z</time></trkpt><trkpt lat="44.77370622302766" lon="9.937542153299574"><ele>336.0</ele><time>2026-05-02T17:53:53Z</time></trkpt><trkpt lat="44.77364318270585" lon="9.93750595709868"><ele>336.0</ele><time>2026-05-02T17:53:55Z</time></trkpt><trkpt lat="44.7735775892039" lon="9.937476544963967"><ele>336.0</ele><time>2026-05-02T17:53:57Z</time></trkpt><trkpt lat="44.773510914029366" lon="9.937433393233912"><ele>336.0</ele><time>2026-05-02T17:53:59Z</time></trkpt><trkpt lat="44.77344087933259" lon="9.93738953931068"><ele>336.0</ele><time>2026-05-02T17:54:00.999Z</time></trkpt><trkpt lat="44.77337225637127" lon="9.937346255527935"><ele>336.0</ele><time>2026-05-02T17:54:02.999Z</time></trkpt><trkpt lat="44.773305760254" lon="9.937313821493584"><ele>336.0</ele><time>2026-05-02T17:54:04.999Z</time></trkpt><trkpt lat="44.77324594765202" lon="9.93728151790002"><ele>336.0</ele><time>2026-05-02T17:54:06.999Z</time></trkpt><trkpt lat="44.77316602310516" lon="9.937241229259977"><ele>336.0</ele><time>2026-05-02T17:54:09.999Z</time></trkpt><trkpt lat="44.77309126607648" lon="9.93719324122752"><ele>336.0</ele><time>2026-05-02T17:54:12.999Z</time></trkpt><trkpt lat="44.77301913258011" lon="9.937150083100077"><ele>336.0</ele><time>2026-05-02T17:54:15.999Z</time></trkpt><trkpt lat="44.772949653094095" lon="9.93710843044858"><ele>336.0</ele><time>2026-05-02T17:54:18.999Z</time></trkpt><trkpt lat="44.77288335558733" lon="9.937066076722157"><ele>336.0</ele><time>2026-05-02T17:54:21.999Z</time></trkpt><trkpt lat="44.7728170553591" lon="9.937020430473929"><ele>336.0</ele><time>2026-05-02T17:54:24.999Z</time></trkpt><trkpt lat="44.77275040738928" lon="9.93697255747793"><ele>336.0</ele><time>2026-05-02T17:54:27.999Z</time></trkpt><trkpt lat="44.77268593016141" lon="9.936935971786538"><ele>336.0</ele><time>2026-05-02T17:54:30.999Z</time></trkpt><trkpt lat="44.772619240320324" lon="9.936923475855922"><ele>336.0</ele><time>2026-05-02T17:54:33.999Z</time></trkpt><trkpt lat="44.772558495770475" lon="9.936959319710489"><ele>336.0</ele><time>2026-05-02T17:54:36.999Z</time></trkpt><trkpt lat="44.77252622623734" lon="9.937042095308833"><ele>336.0</ele><time>2026-05-02T17:54:39.999Z</time></trkpt><trkpt lat="44.772532351802646" lon="9.937140018576235"><ele>336.0</ele><time>2026-05-02T17:54:42.999Z</time></trkpt><trkpt lat="44.77257134558342" lon="9.937230053809046"><ele>336.0</ele><time>2026-05-02T17:54:45.999Z</time></trkpt><trkpt lat="44.77263234093244" lon="9.937292167576002"><ele>336.0</ele><time>2026-05-02T17:54:48.999Z</time></trkpt><trkpt lat="44.77269840137331" lon="9.937349594663006"><ele>336.0</ele><time>2026-05-02T17:54:51.999Z</time></trkpt><trkpt lat="44.772767641183854" lon="9.937404409394933"><ele>336.0</ele><time>2026-05-02T17:54:54.999Z</time></trkpt><trkpt lat="44.772824630688035" lon="9.937477481254902"><ele>336.14285714285717</ele><time>2026-05-02T17:54:57.998Z</time></trkpt><trkpt lat="44.772828457724756" lon="9.93756848402005"><ele>336.2857142857143</ele><time>2026-05-02T17:55:00.998Z</time></trkpt><trkpt lat="44.77275632985739" lon="9.93761561696799"><ele>336.42857142857144</ele><time>2026-05-02T17:55:04.998Z</time></trkpt><trkpt lat="44.77269350118939" lon="9.937583215132523"><ele>336.57142857142856</ele><time>2026-05-02T17:55:07.998Z</time></trkpt><trkpt lat="44.77263118348878" lon="9.937554991724422"><ele>336.7142857142857</ele><time>2026-05-02T17:55:10.998Z</time></trkpt><trkpt lat="44.77256875632275" lon="9.93752679343225"><ele>336.8571428571429</ele><time>2026-05-02T17:55:13.998Z</time></trkpt><trkpt lat="44.77250318252796" lon="9.937485838375427"><ele>337.0</ele><time>2026-05-02T17:55:16.998Z</time></trkpt><trkpt lat="44.7724372515326" lon="9.937459171374277"><ele>339.00000000000006</ele><time>2026-05-02T17:55:19.998Z</time></trkpt><trkpt lat="44.77237496407632" lon="9.93742988747362"><ele>341.0</ele><time>2026-05-02T17:55:22.998Z</time></trkpt><trkpt lat="44.77229389978691" lon="9.9373927481768"><ele>343.0</ele><time>2026-05-02T17:55:26.998Z</time></trkpt><trkpt lat="44.772231058543525" lon="9.937373272154247"><ele>345.0</ele><time>2026-05-02T17:55:29.998Z</time></trkpt><trkpt lat="44.77216913998864" lon="9.937348642117879"><ele>347.0</ele><time>2026-05-02T17:55:32.998Z</time></trkpt><trkpt lat="44.77210567455085" lon="9.937328049639307"><ele>349.00000000000006</ele><time>2026-05-02T17:55:36Z</time></trkpt><trkpt lat="44.77203886098171" lon="9.937310762248806"><ele>351.0</ele><time>2026-05-02T17:55:39Z</time></trkpt><trkpt lat="44.771973246747415" lon="9.937286381065785"><ele>351.00000000000006</ele><time>2026-05-02T17:55:42Z</time></trkpt><trkpt lat="44.77190666332969" lon="9.937263249993558"><ele>351.0</ele><time>2026-05-02T17:55:45Z</time></trkpt><trkpt lat="44.77184166805877" lon="9.937242482302425"><ele>351.0</ele><time>2026-05-02T17:55:48Z</time></trkpt><trkpt lat="44.771777590780914" lon="9.937226126464752"><ele>351.0</ele><time>2026-05-02T17:55:51Z</time></trkpt><trkpt lat="44.77171120439961" lon="9.937207384252178"><ele>351.0</ele><time>2026-05-02T17:55:54Z</time></trkpt><trkpt lat="44.771645117282745" lon="9.937185179105835"><ele>351.00000000000006</ele><time>2026-05-02T17:55:57Z</time></trkpt><trkpt lat="44.7715800572447" lon="9.937173677317908"><ele>351.0</ele><time>2026-05-02T17:56:00Z</time></trkpt><trkpt lat="44.771518332012434" lon="9.937146993607808"><ele>352.28571428571433</ele><time>2026-05-02T17:56:03Z</time></trkpt><trkpt lat="44.77145532774363" lon="9.937130328076297"><ele>353.57142857142856</ele><time>2026-05-02T17:56:05.999Z</time></trkpt><trkpt lat="44.771392851098234" lon="9.937116074200897"><ele>354.8571428571429</ele><time>2026-05-02T17:56:08.999Z</time></trkpt><trkpt lat="44.77131317014826" lon="9.937097488901076"><ele>356.14285714285717</ele><time>2026-05-02T17:56:12.999Z</time></trkpt><trkpt lat="44.77123726513973" lon="9.937079460060762"><ele>357.42857142857144</ele><time>2026-05-02T17:56:16.999Z</time></trkpt><trkpt lat="44.77116318444512" lon="9.937092436952799"><ele>358.7142857142857</ele><time>2026-05-02T17:56:20.999Z</time></trkpt><trkpt lat="44.77111215318152" lon="9.937149472859058"><ele>360.0</ele><time>2026-05-02T17:56:24.999Z</time></trkpt><trkpt lat="44.771101089755106" lon="9.937246346557155"><ele>360.0</ele><time>2026-05-02T17:56:28.999Z</time></trkpt><trkpt lat="44.771133101811266" lon="9.937334682555209"><ele>360.0</ele><time>2026-05-02T17:56:32.999Z</time></trkpt><trkpt lat="44.77119934696024" lon="9.9373788466882"><ele>360.0</ele><time>2026-05-02T17:56:36.999Z</time></trkpt><trkpt lat="44.77127517736765" lon="9.937401742012362"><ele>360.0</ele><time>2026-05-02T17:56:40.999Z</time></trkpt><trkpt lat="44.77135151348016" lon="9.93742447722415"><ele>360.0</ele><time>2026-05-02T17:56:44.999Z</time></trkpt><trkpt lat="44.77142964447782" lon="9.937440501378118"><ele>360.0</ele><time>2026-05-02T17:56:48.999Z</time></trkpt><trkpt lat="44.77150738949987" lon="9.93746330483067"><ele>360.0</ele><time>2026-05-02T17:56:52.999Z</time></trkpt><trkpt lat="44.77158959169536" lon="9.937483230512996"><ele>360.0</ele><time>2026-05-02T17:56:56.999Z</time></trkpt><trkpt lat="44.77165093998049" lon="9.93755404873662"><ele>360.0</ele><time>2026-05-02T17:57:00.999Z</time></trkpt><trkpt lat="44.77163761390401" lon="9.937656798001445"><ele>360.0</ele><time>2026-05-02T17:57:05.998Z</time></trkpt><trkpt lat="44.7715624584137" lon="9.937633716811476"><ele>360.0</ele><time>2026-05-02T17:57:09.998Z</time></trkpt><trkpt lat="44.771490588112286" lon="9.937595996914345"><ele>360.0</ele><time>2026-05-02T17:57:13.998Z</time></trkpt><trkpt lat="44.77142863723875" lon="9.937577590123189"><ele>362.57142857142856</ele><time>2026-05-02T17:57:16.998Z</time></trkpt><trkpt lat="44.77136203349989" lon="9.9375704140233"><ele>365.14285714285717</ele><time>2026-05-02T17:57:19.998Z</time></trkpt><trkpt lat="44.77129267228801" lon="9.937583323644828"><ele>367.7142857142857</ele><time>2026-05-02T17:57:22.998Z</time></trkpt><trkpt lat="44.77122680517436" lon="9.937616581001032"><ele>370.2857142857143</ele><time>2026-05-02T17:57:25.998Z</time></trkpt><trkpt lat="44.77116604102435" lon="9.937657922052933"><ele>372.8571428571429</ele><time>2026-05-02T17:57:28.998Z</time></trkpt><trkpt lat="44.7711119107882" lon="9.937726815569082"><ele>375.42857142857144</ele><time>2026-05-02T17:57:31.998Z</time></trkpt><trkpt lat="44.77105294235005" lon="9.937799884369813"><ele>378.0</ele><time>2026-05-02T17:57:34.998Z</time></trkpt><trkpt lat="44.771000621691805" lon="9.93787198912907"><ele>378.1666666666667</ele><time>2026-05-02T17:57:37.998Z</time></trkpt><trkpt lat="44.77094158869171" lon="9.937942300273868"><ele>378.3333333333333</ele><time>2026-05-02T17:57:41Z</time></trkpt><trkpt lat="44.77087077747368" lon="9.937996872930011"><ele>378.5</ele><time>2026-05-02T17:57:44Z</time></trkpt><trkpt lat="44.77078942497479" lon="9.938016392491718"><ele>378.66666666666663</ele><time>2026-05-02T17:57:47Z</time></trkpt><trkpt lat="44.77070871197198" lon="9.937985539696085"><ele>378.8333333333333</ele><time>2026-05-02T17:57:50Z</time></trkpt><trkpt lat="44.77065381918417" lon="9.937921910527075"><ele>379.0</ele><time>2026-05-02T17:57:53Z</time></trkpt><trkpt lat="44.77061516838367" lon="9.937838920967936"><ele>379.0</ele><time>2026-05-02T17:57:56Z</time></trkpt><trkpt lat="44.770574523792824" lon="9.937755783677131"><ele>379.0</ele><time>2026-05-02T17:57:59Z</time></trkpt><trkpt lat="44.770529617193326" lon="9.937677706412114"><ele>379.0</ele><time>2026-05-02T17:58:02Z</time></trkpt><trkpt lat="44.7704806965218" lon="9.93761130471392"><ele>379.0</ele><time>2026-05-02T17:58:05Z</time></trkpt><trkpt lat="44.770399563181684" lon="9.937582163175856"><ele>379.0</ele><time>2026-05-02T17:58:08Z</time></trkpt><trkpt lat="44.77031138598562" lon="9.937585033211931"><ele>379.0</ele><time>2026-05-02T17:58:10.999Z</time></trkpt><trkpt lat="44.77022573505164" lon="9.93763210888541"><ele>379.00000000000006</ele><time>2026-05-02T17:58:13.999Z</time></trkpt><trkpt lat="44.770176750284314" lon="9.93769026013517"><ele>379.0</ele><time>2026-05-02T17:58:15.999Z</time></trkpt><trkpt lat="44.77014327067467" lon="9.937768187160431"><ele>379.0</ele><time>2026-05-02T17:58:17.999Z</time></trkpt><trkpt lat="44.77012683411452" lon="9.937855707093764"><ele>379.0</ele><time>2026-05-02T17:58:19.999Z</time></trkpt><trkpt lat="44.77012948851696" lon="9.937950648356273"><ele>379.0</ele><time>2026-05-02T17:58:21.999Z</time></trkpt><trkpt lat="44.770149332711185" lon="9.938050777513816"><ele>379.00000000000006</ele><time>2026-05-02T17:58:23.999Z</time></trkpt><trkpt lat="44.77018960520198" lon="9.93813312732079"><ele>379.0</ele><time>2026-05-02T17:58:25.999Z</time></trkpt><trkpt lat="44.77023159690894" lon="9.938202314822005"><ele>379.0</ele><time>2026-05-02T17:58:27.999Z</time></trkpt><trkpt lat="44.770308119532494" lon="9.938284458919243"><ele>379.0</ele><time>2026-05-02T17:58:30.999Z</time></trkpt><trkpt lat="44.77038095386794" lon="9.93834980904491"><ele>379.0</ele><time>2026-05-02T17:58:33.999Z</time></trkpt><trkpt lat="44.77045040727165" lon="9.938419018004986"><ele>379.0</ele><time>2026-05-02T17:58:36.999Z</time></trkpt><trkpt lat="44.77051963157197" lon="9.93848207123666"><ele>379.0</ele><time>2026-05-02T17:58:39.999Z</time></trkpt><trkpt lat="44.770588484724314" lon="9.938542493057163"><ele>379.0</ele><time>2026-05-02T17:58:42.999Z</time></trkpt><trkpt lat="44.77065361251346" lon="9.938603158883614"><ele>380.5714285714286</ele><time>2026-05-02T17:58:45.999Z</time></trkpt><trkpt lat="44.77071852804528" lon="9.938655828810493"><ele>382.14285714285717</ele><time>2026-05-02T17:58:48.999Z</time></trkpt><trkpt lat="44.77078691239399" lon="9.938688412320131"><ele>383.7142857142857</ele><time>2026-05-02T17:58:51.999Z</time></trkpt><trkpt lat="44.77085878642857" lon="9.938709481039947"><ele>385.28571428571433</ele><time>2026-05-02T17:58:54.999Z</time></trkpt><trkpt lat="44.77093301612874" lon="9.938713222395814"><ele>386.85714285714283</ele><time>2026-05-02T17:58:57.999Z</time></trkpt><trkpt lat="44.77100915479602" lon="9.9386976491498"><ele>388.42857142857144</ele><time>2026-05-02T17:59:00.999Z</time></trkpt><trkpt lat="44.77108167456608" lon="9.938673077788712"><ele>390.0</ele><time>2026-05-02T17:59:03.999Z</time></trkpt><trkpt lat="44.771154876822834" lon="9.93864778650353"><ele>390.1428571428571</ele><time>2026-05-02T17:59:06.998Z</time></trkpt><trkpt lat="44.771225719102524" lon="9.938619353900718"><ele>390.2857142857143</ele><time>2026-05-02T17:59:09.998Z</time></trkpt><trkpt lat="44.771299087854835" lon="9.93859052467803"><ele>390.42857142857144</ele><time>2026-05-02T17:59:12.998Z</time></trkpt><trkpt lat="44.77137278531323" lon="9.938580520869198"><ele>390.57142857142856</ele><time>2026-05-02T17:59:15.998Z</time></trkpt><trkpt lat="44.771447770337645" lon="9.938592456081604"><ele>390.7142857142857</ele><time>2026-05-02T17:59:18.998Z</time></trkpt><trkpt lat="44.77151551679428" lon="9.938634107013817"><ele>390.85714285714283</ele><time>2026-05-02T17:59:21.998Z</time></trkpt><trkpt lat="44.771574797235374" lon="9.938694526024015"><ele>391.0</ele><time>2026-05-02T17:59:24.998Z</time></trkpt><trkpt lat="44.77162689546732" lon="9.93876515566273"><ele>390.99999999999994</ele><time>2026-05-02T17:59:27.998Z</time></trkpt><trkpt lat="44.77167103913444" lon="9.938845883395066"><ele>391.0</ele><time>2026-05-02T17:59:30.998Z</time></trkpt><trkpt lat="44.7717112029268" lon="9.938935463554758"><ele>391.0</ele><time>2026-05-02T17:59:33.998Z</time></trkpt><trkpt lat="44.771738227209035" lon="9.939037181671532"><ele>391.0</ele><time>2026-05-02T17:59:36.998Z</time></trkpt><trkpt lat="44.77175112124123" lon="9.939136999164118"><ele>391.0</ele><time>2026-05-02T17:59:39.998Z</time></trkpt><trkpt lat="44.77174965098248" lon="9.939239089655077"><ele>390.99999999999994</ele><time>2026-05-02T17:59:42.998Z</time></trkpt><trkpt lat="44.771733478405835" lon="9.939341695642616"><ele>391.0</ele><time>2026-05-02T17:59:45.998Z</time></trkpt><trkpt lat="44.77170463413011" lon="9.939440396039538"><ele>388.83333333333337</ele><time>2026-05-02T17:59:49Z</time></trkpt><trkpt lat="44.77166253323898" lon="9.939540642599848"><ele>386.6666666666667</ele><time>2026-05-02T17:59:53Z</time></trkpt><trkpt lat="44.77160593232291" lon="9.939599953728864"><ele>384.5</ele><time>2026-05-02T17:59:56Z</time></trkpt><trkpt lat="44.77154220622371" lon="9.939649060436397"><ele>382.33333333333337</ele><time>2026-05-02T17:59:59Z</time></trkpt><trkpt lat="44.77147007973875" lon="9.939693396883206"><ele>380.1666666666667</ele><time>2026-05-02T18:00:02Z</time></trkpt><trkpt lat="44.77139371966413" lon="9.939735403300231"><ele>378.0</ele><time>2026-05-02T18:00:06Z</time></trkpt><trkpt lat="44.77131718267706" lon="9.939776416015958"><ele>378.0</ele><time>2026-05-02T18:00:10Z</time></trkpt><trkpt lat="44.77124112901502" lon="9.939812128544325"><ele>378.0</ele><time>2026-05-02T18:00:13Z</time></trkpt><trkpt lat="44.7711708749755" lon="9.9398556598978"><ele>378.0</ele><time>2026-05-02T18:00:15.999Z</time></trkpt><trkpt lat="44.77111214718463" lon="9.939902784231847"><ele>378.0</ele><time>2026-05-02T18:00:18.999Z</time></trkpt><trkpt lat="44.77104942061299" lon="9.939943146609917"><ele>378.0</ele><time>2026-05-02T18:00:21.999Z</time></trkpt><trkpt lat="44.77098926707385" lon="9.939990808275043"><ele>378.0</ele><time>2026-05-02T18:00:24.999Z</time></trkpt><trkpt lat="44.770929374445686" lon="9.940040723764675"><ele>378.0</ele><time>2026-05-02T18:00:27.999Z</time></trkpt><trkpt lat="44.77087329760115" lon="9.940090261948992"><ele>380.14285714285717</ele><time>2026-05-02T18:00:30.999Z</time></trkpt><trkpt lat="44.770815517094285" lon="9.940143415501316"><ele>382.2857142857143</ele><time>2026-05-02T18:00:33.999Z</time></trkpt><trkpt lat="44.77075872955726" lon="9.94018960487614"><ele>384.42857142857144</ele><time>2026-05-02T18:00:36.999Z</time></trkpt><trkpt lat="44.77069890901201" lon="9.940224589047535"><ele>386.57142857142856</ele><time>2026-05-02T18:00:39.999Z</time></trkpt><trkpt lat="44.77063872433233" lon="9.940255902741457"><ele>388.7142857142857</ele><time>2026-05-02T18:00:42.999Z</time></trkpt><trkpt lat="44.77057685564989" lon="9.940279219050561"><ele>390.8571428571429</ele><time>2026-05-02T18:00:45.999Z</time></trkpt><trkpt lat="44.77051045632489" lon="9.940297680297082"><ele>393.0</ele><time>2026-05-02T18:00:48.999Z</time></trkpt><trkpt lat="44.77044160150321" lon="9.940324238394231"><ele>393.00000000000006</ele><time>2026-05-02T18:00:51.999Z</time></trkpt><trkpt lat="44.77037822369839" lon="9.940365170693669"><ele>393.0</ele><time>2026-05-02T18:00:54.999Z</time></trkpt><trkpt lat="44.77031986307366" lon="9.940411387434501"><ele>393.0</ele><time>2026-05-02T18:00:57.999Z</time></trkpt><trkpt lat="44.77026564648085" lon="9.940473243266624"><ele>393.0</ele><time>2026-05-02T18:01:00.999Z</time></trkpt><trkpt lat="44.77021799379658" lon="9.940545744394171"><ele>393.0</ele><time>2026-05-02T18:01:03.999Z</time></trkpt><trkpt lat="44.77017325984373" lon="9.940623055185853"><ele>393.00000000000006</ele><time>2026-05-02T18:01:06.999Z</time></trkpt><trkpt lat="44.77013422948051" lon="9.940716672163985"><ele>393.0</ele><time>2026-05-02T18:01:10.998Z</time></trkpt><trkpt lat="44.77009904072731" lon="9.940821606861597"><ele>395.7142857142857</ele><time>2026-05-02T18:01:13.998Z</time></trkpt><trkpt lat="44.77006641468894" lon="9.940899526090707"><ele>398.42857142857144</ele><time>2026-05-02T18:01:16.998Z</time></trkpt><trkpt lat="44.77002896945723" lon="9.940999997223921"><ele>401.1428571428571</ele><time>2026-05-02T18:01:20.998Z</time></trkpt><trkpt lat="44.76999657003931" lon="9.941091555151806"><ele>403.8571428571429</ele><time>2026-05-02T18:01:23.998Z</time></trkpt><trkpt lat="44.76995663871802" lon="9.941196625873133"><ele>406.57142857142856</ele><time>2026-05-02T18:01:26.998Z</time></trkpt><trkpt lat="44.76991752820507" lon="9.941270550231552"><ele>409.2857142857143</ele><time>2026-05-02T18:01:29.998Z</time></trkpt><trkpt lat="44.7698771524555" lon="9.941341628504015"><ele>412.0</ele><time>2026-05-02T18:01:32.998Z</time></trkpt><trkpt lat="44.76983213314654" lon="9.941412917682273"><ele>411.99999999999994</ele><time>2026-05-02T18:01:35.998Z</time></trkpt><trkpt lat="44.76978077080497" lon="9.941480998312974"><ele>412.0</ele><time>2026-05-02T18:01:38.998Z</time></trkpt><trkpt lat="44.76972781802212" lon="9.94154183566164"><ele>412.0</ele><time>2026-05-02T18:01:41.998Z</time></trkpt><trkpt lat="44.76966898119496" lon="9.941598349920561"><ele>412.0</ele><time>2026-05-02T18:01:44.998Z</time></trkpt><trkpt lat="44.76960576429179" lon="9.941643631382393"><ele>412.0</ele><time>2026-05-02T18:01:47.998Z</time></trkpt><trkpt lat="44.769538926672524" lon="9.941681493823285"><ele>411.99999999999994</ele><time>2026-05-02T18:01:50.998Z</time></trkpt><trkpt lat="44.76945708035513" lon="9.941714282488938"><ele>412.0</ele><time>2026-05-02T18:01:54Z</time></trkpt><trkpt lat="44.769392582393934" lon="9.94172510105632"><ele>411.85714285714283</ele><time>2026-05-02T18:01:57Z</time></trkpt><trkpt lat="44.76932102641654" lon="9.941726770740212"><ele>411.7142857142857</ele><time>2026-05-02T18:02:00Z</time></trkpt><trkpt lat="44.76925440629648" lon="9.941722985527312"><ele>411.57142857142856</ele><time>2026-05-02T18:02:03Z</time></trkpt><trkpt lat="44.76918420459051" lon="9.941711900016562"><ele>411.42857142857144</ele><time>2026-05-02T18:02:06Z</time></trkpt><trkpt lat="44.76911530717365" lon="9.94168963280309"><ele>411.2857142857143</ele><time>2026-05-02T18:02:09Z</time></trkpt><trkpt lat="44.76904157193306" lon="9.941663818809431"><ele>411.1428571428571</ele><time>2026-05-02T18:02:12Z</time></trkpt><trkpt lat="44.768972651983404" lon="9.941628629634076"><ele>411.0</ele><time>2026-05-02T18:02:14.999Z</time></trkpt><trkpt lat="44.7688986628947" lon="9.941588197565169"><ele>411.57142857142856</ele><time>2026-05-02T18:02:17.999Z</time></trkpt><trkpt lat="44.76883888673747" lon="9.941550376173659"><ele>412.1428571428571</ele><time>2026-05-02T18:02:20.999Z</time></trkpt><trkpt lat="44.768780527685195" lon="9.941506547810787"><ele>412.7142857142857</ele><time>2026-05-02T18:02:23.999Z</time></trkpt><trkpt lat="44.768722702671646" lon="9.941449475138965"><ele>413.2857142857143</ele><time>2026-05-02T18:02:26.999Z</time></trkpt><trkpt lat="44.76867050294424" lon="9.941377911562002"><ele>413.8571428571429</ele><time>2026-05-02T18:02:29.999Z</time></trkpt><trkpt lat="44.7686326194784" lon="9.941290162378877"><ele>414.42857142857144</ele><time>2026-05-02T18:02:32.999Z</time></trkpt><trkpt lat="44.76860870279239" lon="9.941196583480393"><ele>415.0</ele><time>2026-05-02T18:02:35.999Z</time></trkpt><trkpt lat="44.76857970126437" lon="9.941079321266937"><ele>415.0</ele><time>2026-05-02T18:02:38.999Z</time></trkpt><trkpt lat="44.768559095752565" lon="9.940986499177901"><ele>415.0</ele><time>2026-05-02T18:02:41.999Z</time></trkpt><trkpt lat="44.76853701473905" lon="9.940902255299635"><ele>415.0</ele><time>2026-05-02T18:02:44.999Z</time></trkpt><trkpt lat="44.768508024127634" lon="9.940815087510432"><ele>415.0</ele><time>2026-05-02T18:02:46.999Z</time></trkpt><trkpt lat="44.76846712969058" lon="9.940730727825652"><ele>415.0</ele><time>2026-05-02T18:02:49.999Z</time></trkpt><trkpt lat="44.76840983709701" lon="9.940640153516112"><ele>415.0</ele><time>2026-05-02T18:02:53.999Z</time></trkpt><trkpt lat="44.76835579696315" lon="9.940576268969915"><ele>415.0</ele><time>2026-05-02T18:02:56.999Z</time></trkpt><trkpt lat="44.76829751636334" lon="9.94052336542322"><ele>416.6666666666667</ele><time>2026-05-02T18:02:59.999Z</time></trkpt><trkpt lat="44.76822427140004" lon="9.940463102612444"><ele>418.33333333333337</ele><time>2026-05-02T18:03:02.999Z</time></trkpt><trkpt lat="44.768154939662764" lon="9.940406101987403"><ele>420.0</ele><time>2026-05-02T18:03:06.999Z</time></trkpt><trkpt lat="44.76808000608521" lon="9.940373415554074"><ele>421.66666666666663</ele><time>2026-05-02T18:03:09.999Z</time></trkpt><trkpt lat="44.768006778310685" lon="9.940341181355866"><ele>423.3333333333333</ele><time>2026-05-02T18:03:12.998Z</time></trkpt><trkpt lat="44.7679201993921" lon="9.940319723893339"><ele>425.0</ele><time>2026-05-02T18:03:15.998Z</time></trkpt><trkpt lat="44.767833349570076" lon="9.940311501200616"><ele>424.99999999999994</ele><time>2026-05-02T18:03:18.998Z</time></trkpt><trkpt lat="44.76775278454918" lon="9.94030352340703"><ele>425.0</ele><time>2026-05-02T18:03:21.998Z</time></trkpt><trkpt lat="44.767676053226246" lon="9.940311838729482"><ele>425.0</ele><time>2026-05-02T18:03:24.998Z</time></trkpt><trkpt lat="44.76759783457023" lon="9.940321635277801"><ele>425.0</ele><time>2026-05-02T18:03:27.998Z</time></trkpt><trkpt lat="44.76751849734346" lon="9.94033509331302"><ele>424.99999999999994</ele><time>2026-05-02T18:03:30.998Z</time></trkpt><trkpt lat="44.7674352470092" lon="9.940345619562029"><ele>425.0</ele><time>2026-05-02T18:03:33.998Z</time></trkpt><trkpt lat="44.76735816895632" lon="9.940366564818925"><ele>425.66666666666663</ele><time>2026-05-02T18:03:36.998Z</time></trkpt><trkpt lat="44.76728052845283" lon="9.940383407262821"><ele>426.3333333333333</ele><time>2026-05-02T18:03:39.998Z</time></trkpt><trkpt lat="44.767202682999965" lon="9.940399134076745"><ele>427.0</ele><time>2026-05-02T18:03:42.998Z</time></trkpt><trkpt lat="44.76713142285067" lon="9.940415984179666"><ele>427.66666666666663</ele><time>2026-05-02T18:03:45.998Z</time></trkpt><trkpt lat="44.767051498382884" lon="9.940429813321897"><ele>428.3333333333333</ele><time>2026-05-02T18:03:49.998Z</time></trkpt><trkpt lat="44.76697348174946" lon="9.940447624667932"><ele>429.0</ele><time>2026-05-02T18:03:52.998Z</time></trkpt><trkpt lat="44.766886102132965" lon="9.94046819672843"><ele>429.5</ele><time>2026-05-02T18:03:55.998Z</time></trkpt><trkpt lat="44.76680492660946" lon="9.940492378097698"><ele>430.0</ele><time>2026-05-02T18:04:00Z</time></trkpt><trkpt lat="44.76673931528208" lon="9.940508389274795"><ele>430.5</ele><time>2026-05-02T18:04:02Z</time></trkpt><trkpt lat="44.76666226568261" lon="9.940540141737184"><ele>431.0</ele><time>2026-05-02T18:04:05Z</time></trkpt><trkpt lat="44.76658506135169" lon="9.940562322469251"><ele>431.5</ele><time>2026-05-02T18:04:08Z</time></trkpt><trkpt lat="44.7665164323396" lon="9.940588271467169"><ele>432.0</ele><time>2026-05-02T18:04:11Z</time></trkpt><trkpt lat="44.76642399847957" lon="9.940626455511595"><ele>432.0</ele><time>2026-05-02T18:04:15Z</time></trkpt><trkpt lat="44.76635150439429" lon="9.940662139564559"><ele>432.0</ele><time>2026-05-02T18:04:18.999Z</time></trkpt><trkpt lat="44.76628332169766" lon="9.940692250236676"><ele>432.0</ele><time>2026-05-02T18:04:21.999Z</time></trkpt><trkpt lat="44.766213519919816" lon="9.940716497971385"><ele>432.0</ele><time>2026-05-02T18:04:24.999Z</time></trkpt><trkpt lat="44.76614228197166" lon="9.940745572528565"><ele>432.0</ele><time>2026-05-02T18:04:27.999Z</time></trkpt><trkpt lat="44.76607390471076" lon="9.940767553349767"><ele>432.0</ele><time>2026-05-02T18:04:30.999Z</time></trkpt><trkpt lat="44.765994814696484" lon="9.940808273265691"><ele>432.0</ele><time>2026-05-02T18:04:33.999Z</time></trkpt><trkpt lat="44.76593193928122" lon="9.940844557766013"><ele>432.0</ele><time>2026-05-02T18:04:36.999Z</time></trkpt><trkpt lat="44.76585161306912" lon="9.940878020740442"><ele>432.0</ele><time>2026-05-02T18:04:39.999Z</time></trkpt><trkpt lat="44.76577935286478" lon="9.940908712159878"><ele>432.0</ele><time>2026-05-02T18:04:42.999Z</time></trkpt><trkpt lat="44.765708191618074" lon="9.94094446924921"><ele>432.0</ele><time>2026-05-02T18:04:45.999Z</time></trkpt><trkpt lat="44.7656389761578" lon="9.940978844379217"><ele>432.0</ele><time>2026-05-02T18:04:48.999Z</time></trkpt><trkpt lat="44.76557283184118" lon="9.941014168434256"><ele>432.0</ele><time>2026-05-02T18:04:51.999Z</time></trkpt><trkpt lat="44.76550845199522" lon="9.94106241915987"><ele>432.0</ele><time>2026-05-02T18:04:54.999Z</time></trkpt><trkpt lat="44.76544618508792" lon="9.941108696340617"><ele>432.0</ele><time>2026-05-02T18:04:57.999Z</time></trkpt><trkpt lat="44.76538331277124" lon="9.941158965954202"><ele>432.0</ele><time>2026-05-02T18:05:00.999Z</time></trkpt><trkpt lat="44.76532211898115" lon="9.94120294388946"><ele>432.0</ele><time>2026-05-02T18:05:03.999Z</time></trkpt><trkpt lat="44.76526059707971" lon="9.941253830788474"><ele>432.0</ele><time>2026-05-02T18:05:06.999Z</time></trkpt><trkpt lat="44.76519719320516" lon="9.941299961241558"><ele>432.0</ele><time>2026-05-02T18:05:09.999Z</time></trkpt><trkpt lat="44.76513770109988" lon="9.941344490280784"><ele>432.0</ele><time>2026-05-02T18:05:12.999Z</time></trkpt><trkpt lat="44.765070239920966" lon="9.941394131283634"><ele>433.7142857142857</ele><time>2026-05-02T18:05:15.999Z</time></trkpt><trkpt lat="44.7650109494159" lon="9.941442342235934"><ele>435.42857142857144</ele><time>2026-05-02T18:05:18.998Z</time></trkpt><trkpt lat="44.76495082558023" lon="9.941485148958915"><ele>437.1428571428571</ele><time>2026-05-02T18:05:21.998Z</time></trkpt><trkpt lat="44.76489091681565" lon="9.941527826601083"><ele>438.8571428571429</ele><time>2026-05-02T18:05:24.998Z</time></trkpt><trkpt lat="44.76483207821308" lon="9.941574726606106"><ele>440.5714285714286</ele><time>2026-05-02T18:05:27.998Z</time></trkpt><trkpt lat="44.76477689896143" lon="9.941620013176152"><ele>442.2857142857143</ele><time>2026-05-02T18:05:30.998Z</time></trkpt><trkpt lat="44.76471753821905" lon="9.941663299615316"><ele>444.0</ele><time>2026-05-02T18:05:33.998Z</time></trkpt><trkpt lat="44.76465790574044" lon="9.941702832584559"><ele>443.1428571428571</ele><time>2026-05-02T18:05:36.998Z</time></trkpt><trkpt lat="44.76459483053599" lon="9.941748035868496"><ele>442.28571428571433</ele><time>2026-05-02T18:05:40.998Z</time></trkpt><trkpt lat="44.76453376674743" lon="9.941795740151292"><ele>441.42857142857144</ele><time>2026-05-02T18:05:43.998Z</time></trkpt><trkpt lat="44.76446172927622" lon="9.94185268199024"><ele>440.57142857142856</ele><time>2026-05-02T18:05:47.998Z</time></trkpt><trkpt lat="44.76440324877604" lon="9.941901521668344"><ele>439.71428571428567</ele><time>2026-05-02T18:05:50.998Z</time></trkpt><trkpt lat="44.76434587225283" lon="9.941948164837333"><ele>438.8571428571429</ele><time>2026-05-02T18:05:53.998Z</time></trkpt><trkpt lat="44.76428888056653" lon="9.9419923468407"><ele>438.0</ele><time>2026-05-02T18:05:56.998Z</time></trkpt><trkpt lat="44.7642312252098" lon="9.942035388063521"><ele>440.42857142857144</ele><time>2026-05-02T18:05:59.998Z</time></trkpt><trkpt lat="44.76417488610292" lon="9.942082070233246"><ele>442.85714285714283</ele><time>2026-05-02T18:06:02.998Z</time></trkpt><trkpt lat="44.76410350234196" lon="9.942143740953062"><ele>445.2857142857143</ele><time>2026-05-02T18:06:07Z</time></trkpt><trkpt lat="44.76404640136141" lon="9.942202138915277"><ele>447.7142857142857</ele><time>2026-05-02T18:06:11Z</time></trkpt><trkpt lat="44.7639826437571" lon="9.942270348101651"><ele>450.1428571428571</ele><time>2026-05-02T18:06:15Z</time></trkpt><trkpt lat="44.76393155979294" lon="9.942323115771863"><ele>452.57142857142856</ele><time>2026-05-02T18:06:18Z</time></trkpt><trkpt lat="44.76387214582072" lon="9.942374989344723"><ele>455.0</ele><time>2026-05-02T18:06:21Z</time></trkpt><trkpt lat="44.76381776771425" lon="9.942427867234874"><ele>454.99999999999994</ele><time>2026-05-02T18:06:23.999Z</time></trkpt><trkpt lat="44.763756944228525" lon="9.942482012293363"><ele>455.0</ele><time>2026-05-02T18:06:26.999Z</time></trkpt><trkpt lat="44.763685142216836" lon="9.942536577137062"><ele>455.0</ele><time>2026-05-02T18:06:30.999Z</time></trkpt><trkpt lat="44.763621856386315" lon="9.942577269029853"><ele>455.0</ele><time>2026-05-02T18:06:33.999Z</time></trkpt><trkpt lat="44.76354484967631" lon="9.942620080020959"><ele>454.99999999999994</ele><time>2026-05-02T18:06:37.999Z</time></trkpt><trkpt lat="44.763465697530435" lon="9.942653817054978"><ele>455.0</ele><time>2026-05-02T18:06:41.999Z</time></trkpt><trkpt lat="44.76340387555774" lon="9.942681348795373"><ele>456.2857142857143</ele><time>2026-05-02T18:06:44.999Z</time></trkpt><trkpt lat="44.76332532674315" lon="9.942704228233772"><ele>457.57142857142856</ele><time>2026-05-02T18:06:48.999Z</time></trkpt><trkpt lat="44.763245663767165" lon="9.942710490441188"><ele>458.8571428571429</ele><time>2026-05-02T18:06:52.999Z</time></trkpt><trkpt lat="44.76318600862648" lon="9.94266397486622"><ele>460.14285714285717</ele><time>2026-05-02T18:06:55.999Z</time></trkpt><trkpt lat="44.76316350416024" lon="9.94256583026276"><ele>461.42857142857144</ele><time>2026-05-02T18:06:59.999Z</time></trkpt><trkpt lat="44.763176162377" lon="9.94246097246498"><ele>462.7142857142858</ele><time>2026-05-02T18:07:02.999Z</time></trkpt><trkpt lat="44.76320344848187" lon="9.942376687966474"><ele>464.00000000000006</ele><time>2026-05-02T18:07:06.999Z</time></trkpt><trkpt lat="44.763251690571366" lon="9.942256622853943"><ele>464.28571428571433</ele><time>2026-05-02T18:07:10.999Z</time></trkpt><trkpt lat="44.763285662413395" lon="9.942174616525957"><ele>464.57142857142856</ele><time>2026-05-02T18:07:14.999Z</time></trkpt><trkpt lat="44.76331555630989" lon="9.942095472399203"><ele>464.8571428571429</ele><time>2026-05-02T18:07:17.999Z</time></trkpt><trkpt lat="44.76335371739135" lon="9.942012690455238"><ele>465.14285714285717</ele><time>2026-05-02T18:07:20.998Z</time></trkpt><trkpt lat="44.763395368052336" lon="9.941929023301723"><ele>465.42857142857144</ele><time>2026-05-02T18:07:24.998Z</time></trkpt><trkpt lat="44.76343325082235" lon="9.941849169761408"><ele>465.7142857142857</ele><time>2026-05-02T18:07:27.998Z</time></trkpt><trkpt lat="44.76347093580201" lon="9.941769688059008"><ele>466.0</ele><time>2026-05-02T18:07:30.998Z</time></trkpt><trkpt lat="44.76351860460165" lon="9.941677553917966"><ele>465.28571428571433</ele><time>2026-05-02T18:07:34.998Z</time></trkpt><trkpt lat="44.76355362695005" lon="9.94160255376412"><ele>464.57142857142856</ele><time>2026-05-02T18:07:37.998Z</time></trkpt><trkpt lat="44.763591600448606" lon="9.941527150866587"><ele>463.8571428571429</ele><time>2026-05-02T18:07:40.998Z</time></trkpt><trkpt lat="44.76363205379284" lon="9.941443378400365"><ele>463.14285714285717</ele><time>2026-05-02T18:07:43.998Z</time></trkpt><trkpt lat="44.76368604006763" lon="9.941354073398283"><ele>462.42857142857144</ele><time>2026-05-02T18:07:47.998Z</time></trkpt><trkpt lat="44.7637324806857" lon="9.941260795337142"><ele>461.7142857142857</ele><time>2026-05-02T18:07:51.998Z</time></trkpt><trkpt lat="44.76377075412664" lon="9.941188160203328"><ele>461.0</ele><time>2026-05-02T18:07:54.998Z</time></trkpt><trkpt lat="44.763810991174786" lon="9.941112755822534"><ele>461.0</ele><time>2026-05-02T18:07:57.998Z</time></trkpt><trkpt lat="44.763852055216304" lon="9.941031886686796"><ele>461.00000000000006</ele><time>2026-05-02T18:08:00.998Z</time></trkpt><trkpt lat="44.763888089048734" lon="9.940949486132514"><ele>461.0</ele><time>2026-05-02T18:08:03.998Z</time></trkpt><trkpt lat="44.76391709548859" lon="9.940859664338038"><ele>461.0</ele><time>2026-05-02T18:08:06.998Z</time></trkpt><trkpt lat="44.7639440069349" lon="9.940771848892211"><ele>461.00000000000006</ele><time>2026-05-02T18:08:09.999Z</time></trkpt><trkpt lat="44.763966264484544" lon="9.940678022120187"><ele>461.0</ele><time>2026-05-02T18:08:12.999Z</time></trkpt><trkpt lat="44.7639747987011" lon="9.94058642551241"><ele>461.0</ele><time>2026-05-02T18:08:15.999Z</time></trkpt><trkpt lat="44.76395446777263" lon="9.94050027517007"><ele>462.66666666666663</ele><time>2026-05-02T18:08:18.999Z</time></trkpt><trkpt lat="44.76387516174634" lon="9.940478251844933"><ele>464.3333333333333</ele><time>2026-05-02T18:08:23Z</time></trkpt><trkpt lat="44.76380692624469" lon="9.940544734980481"><ele>466.0</ele><time>2026-05-02T18:08:26.999Z</time></trkpt><trkpt lat="44.76376830621903" lon="9.940616073095434"><ele>467.66666666666663</ele><time>2026-05-02T18:08:29.999Z</time></trkpt><trkpt lat="44.76372874017947" lon="9.940700895876025"><ele>469.3333333333333</ele><time>2026-05-02T18:08:32.999Z</time></trkpt><trkpt lat="44.7636814319556" lon="9.940778421122639"><ele>471.0</ele><time>2026-05-02T18:08:35.999Z</time></trkpt><trkpt lat="44.763617774553765" lon="9.94084468541141"><ele>472.00000000000006</ele><time>2026-05-02T18:08:39.999Z</time></trkpt><trkpt lat="44.763558512881716" lon="9.94089754555643"><ele>473.0</ele><time>2026-05-02T18:08:42.999Z</time></trkpt><trkpt lat="44.763488095517744" lon="9.940945909529175"><ele>474.00000000000006</ele><time>2026-05-02T18:08:45.999Z</time></trkpt><trkpt lat="44.76341859903682" lon="9.94099134192403"><ele>475.00000000000006</ele><time>2026-05-02T18:08:49.999Z</time></trkpt><trkpt lat="44.76335665190289" lon="9.941029305873782"><ele>476.0</ele><time>2026-05-02T18:08:52.999Z</time></trkpt><trkpt lat="44.763291828720874" lon="9.941072054125614"><ele>477.00000000000006</ele><time>2026-05-02T18:08:55.999Z</time></trkpt><trkpt lat="44.76322349312715" lon="9.941107847025448"><ele>478.00000000000006</ele><time>2026-05-02T18:08:58.999Z</time></trkpt><trkpt lat="44.763144737359795" lon="9.941134353134045"><ele>478.00000000000006</ele><time>2026-05-02T18:09:01.999Z</time></trkpt><trkpt lat="44.763070871615554" lon="9.941127261160263"><ele>478.0</ele><time>2026-05-02T18:09:05.999Z</time></trkpt><trkpt lat="44.763004174241665" lon="9.941100839268817"><ele>478.00000000000006</ele><time>2026-05-02T18:09:08.999Z</time></trkpt><trkpt lat="44.7629370387271" lon="9.941070486000587"><ele>478.00000000000006</ele><time>2026-05-02T18:09:11.999Z</time></trkpt><trkpt lat="44.762853481774556" lon="9.941030255761422"><ele>478.0</ele><time>2026-05-02T18:09:14.999Z</time></trkpt><trkpt lat="44.76278689323036" lon="9.941007137088071"><ele>478.00000000000006</ele><time>2026-05-02T18:09:17.999Z</time></trkpt><trkpt lat="44.762712307326424" lon="9.940996464399424"><ele>478.00000000000006</ele><time>2026-05-02T18:09:20.999Z</time></trkpt><trkpt lat="44.762646365385834" lon="9.941015065750321"><ele>479.8571428571429</ele><time>2026-05-02T18:09:22.998Z</time></trkpt><trkpt lat="44.7625870488106" lon="9.941053300869017"><ele>481.7142857142857</ele><time>2026-05-02T18:09:24.998Z</time></trkpt><trkpt lat="44.76253099444475" lon="9.941108892439575"><ele>483.57142857142856</ele><time>2026-05-02T18:09:27.998Z</time></trkpt><trkpt lat="44.76248006041559" lon="9.941178156369126"><ele>485.42857142857144</ele><time>2026-05-02T18:09:30.998Z</time></trkpt><trkpt lat="44.76242950388259" lon="9.941260685586563"><ele>487.2857142857142</ele><time>2026-05-02T18:09:32.998Z</time></trkpt><trkpt lat="44.762378411109495" lon="9.941338478802928"><ele>489.1428571428571</ele><time>2026-05-02T18:09:35.998Z</time></trkpt><trkpt lat="44.762325162316614" lon="9.941426470200584"><ele>491.0</ele><time>2026-05-02T18:09:39.998Z</time></trkpt><trkpt lat="44.76226187078008" lon="9.941502785527986"><ele>491.0</ele><time>2026-05-02T18:09:42.998Z</time></trkpt><trkpt lat="44.762207937265565" lon="9.941569955982377"><ele>490.99999999999994</ele><time>2026-05-02T18:09:45.998Z</time></trkpt><trkpt lat="44.7621421063813" lon="9.941593993883494"><ele>491.0</ele><time>2026-05-02T18:09:48.998Z</time></trkpt><trkpt lat="44.762068725040876" lon="9.941609062950754"><ele>491.0</ele><time>2026-05-02T18:09:51.998Z</time></trkpt><trkpt lat="44.76197907414479" lon="9.941614222717961"><ele>490.99999999999994</ele><time>2026-05-02T18:09:55.998Z</time></trkpt><trkpt lat="44.76190899652576" lon="9.941612372670319"><ele>491.0</ele><time>2026-05-02T18:09:58.998Z</time></trkpt><trkpt lat="44.761842497276916" lon="9.94160744114877"><ele>491.0</ele><time>2026-05-02T18:10:01.998Z</time></trkpt><trkpt lat="44.76176870454018" lon="9.941614085666751"><ele>491.66666666666663</ele><time>2026-05-02T18:10:04.998Z</time></trkpt><trkpt lat="44.76169161794057" lon="9.941632500434396"><ele>492.3333333333333</ele><time>2026-05-02T18:10:07.998Z</time></trkpt><trkpt lat="44.7616139080888" lon="9.94166124600592"><ele>493.0</ele><time>2026-05-02T18:10:10.998Z</time></trkpt><trkpt lat="44.76153250012228" lon="9.941709998178446"><ele>493.66666666666663</ele><time>2026-05-02T18:10:13.998Z</time></trkpt><trkpt lat="44.76147816379718" lon="9.941755833696194"><ele>494.3333333333333</ele><time>2026-05-02T18:10:16.999Z</time></trkpt><trkpt lat="44.76141861275516" lon="9.941811017281617"><ele>495.0</ele><time>2026-05-02T18:10:19.999Z</time></trkpt><trkpt lat="44.76136333236953" lon="9.941877261868115"><ele>495.0</ele><time>2026-05-02T18:10:22.999Z</time></trkpt><trkpt lat="44.76131689287167" lon="9.941946773266343"><ele>495.0</ele><time>2026-05-02T18:10:25.999Z</time></trkpt><trkpt lat="44.76126715597698" lon="9.942025797640332"><ele>495.0</ele><time>2026-05-02T18:10:28.999Z</time></trkpt><trkpt lat="44.76121904258245" lon="9.942110306695009"><ele>495.0</ele><time>2026-05-02T18:10:31.999Z</time></trkpt><trkpt lat="44.761173381459024" lon="9.94219430071086"><ele>495.0</ele><time>2026-05-02T18:10:34.999Z</time></trkpt><trkpt lat="44.76112818364423" lon="9.942273336940008"><ele>495.0</ele><time>2026-05-02T18:10:37.999Z</time></trkpt><trkpt lat="44.76107942533806" lon="9.942371478593026"><ele>495.0</ele><time>2026-05-02T18:10:40.999Z</time></trkpt><trkpt lat="44.761038714137605" lon="9.942458689898373"><ele>495.0</ele><time>2026-05-02T18:10:43.999Z</time></trkpt><trkpt lat="44.7609926744662" lon="9.942565847005717"><ele>495.0</ele><time>2026-05-02T18:10:46.999Z</time></trkpt><trkpt lat="44.76096383137952" lon="9.942656446965959"><ele>495.0</ele><time>2026-05-02T18:10:50.999Z</time></trkpt><trkpt lat="44.760945134914316" lon="9.942769491785803"><ele>495.0</ele><time>2026-05-02T18:10:53.999Z</time></trkpt><trkpt lat="44.76094366726105" lon="9.942883698305693"><ele>495.0</ele><time>2026-05-02T18:10:56.999Z</time></trkpt><trkpt lat="44.76096007743934" lon="9.94299571762078"><ele>494.8333333333333</ele><time>2026-05-02T18:10:59.999Z</time></trkpt><trkpt lat="44.76099563921214" lon="9.943111119978436"><ele>494.66666666666663</ele><time>2026-05-02T18:11:02.999Z</time></trkpt><trkpt lat="44.761017827104055" lon="9.94319842930799"><ele>494.5</ele><time>2026-05-02T18:11:05.999Z</time></trkpt><trkpt lat="44.76103454956009" lon="9.943303875046693"><ele>494.3333333333333</ele><time>2026-05-02T18:11:08.999Z</time></trkpt><trkpt lat="44.76103724524764" lon="9.943404304810795"><ele>494.16666666666663</ele><time>2026-05-02T18:11:11.999Z</time></trkpt><trkpt lat="44.76102712520938" lon="9.94353174549709"><ele>494.0</ele><time>2026-05-02T18:11:14.999Z</time></trkpt><trkpt lat="44.76101244596023" lon="9.94364271129823"><ele>496.66666666666663</ele><time>2026-05-02T18:11:17.999Z</time></trkpt><trkpt lat="44.76099200733698" lon="9.943749714321388"><ele>499.3333333333333</ele><time>2026-05-02T18:11:20.999Z</time></trkpt><trkpt lat="44.7609691666944" lon="9.943856829591331"><ele>502.0</ele><time>2026-05-02T18:11:23.999Z</time></trkpt><trkpt lat="44.76093062236028" lon="9.943953880081414"><ele>504.66666666666663</ele><time>2026-05-02T18:11:26.999Z</time></trkpt><trkpt lat="44.76087145764262" lon="9.944020808382309"><ele>507.3333333333333</ele><time>2026-05-02T18:11:29.998Z</time></trkpt><trkpt lat="44.760797058335086" lon="9.944000851518743"><ele>510.0</ele><time>2026-05-02T18:11:32.998Z</time></trkpt><trkpt lat="44.760749805907864" lon="9.943918898664478"><ele>510.0</ele><time>2026-05-02T18:11:35.998Z</time></trkpt><trkpt lat="44.760724812728625" lon="9.943823275286976"><ele>510.00000000000006</ele><time>2026-05-02T18:11:38.998Z</time></trkpt><trkpt lat="44.76070146737861" lon="9.943724555536026"><ele>510.0</ele><time>2026-05-02T18:11:41.998Z</time></trkpt><trkpt lat="44.76067778284397" lon="9.943627831296839"><ele>510.0</ele><time>2026-05-02T18:11:44.998Z</time></trkpt><trkpt lat="44.76065774725887" lon="9.943529620171736"><ele>510.00000000000006</ele><time>2026-05-02T18:11:47.998Z</time></trkpt><trkpt lat="44.76064818860335" lon="9.943427434475046"><ele>510.0</ele><time>2026-05-02T18:11:50.998Z</time></trkpt><trkpt lat="44.760620775318145" lon="9.94333333573468"><ele>510.0</ele><time>2026-05-02T18:11:53.998Z</time></trkpt><trkpt lat="44.76059910003324" lon="9.94323615119153"><ele>510.7142857142857</ele><time>2026-05-02T18:11:56.998Z</time></trkpt><trkpt lat="44.76057136564387" lon="9.943144032932242"><ele>511.42857142857144</ele><time>2026-05-02T18:11:59.998Z</time></trkpt><trkpt lat="44.760537517379156" lon="9.943055652597447"><ele>512.1428571428571</ele><time>2026-05-02T18:12:02.998Z</time></trkpt><trkpt lat="44.76049255685646" lon="9.942972760322498"><ele>512.8571428571429</ele><time>2026-05-02T18:12:05.998Z</time></trkpt><trkpt lat="44.76044498972201" lon="9.942891722501804"><ele>513.5714285714286</ele><time>2026-05-02T18:12:08.998Z</time></trkpt><trkpt lat="44.760395153489554" lon="9.942799796140223"><ele>514.2857142857143</ele><time>2026-05-02T18:12:11.998Z</time></trkpt><trkpt lat="44.76035320011559" lon="9.942710623102071"><ele>515.0</ele><time>2026-05-02T18:12:14.998Z</time></trkpt><trkpt lat="44.760318828088394" lon="9.942607916747429"><ele>514.6666666666666</ele><time>2026-05-02T18:12:17.998Z</time></trkpt><trkpt lat="44.760306703951" lon="9.94248646129364"><ele>514.3333333333333</ele><time>2026-05-02T18:12:20.998Z</time></trkpt><trkpt lat="44.76031443076884" lon="9.942357230217889"><ele>514.0</ele><time>2026-05-02T18:12:23.999Z</time></trkpt><trkpt lat="44.76032663174381" lon="9.942265431325787"><ele>513.6666666666666</ele><time>2026-05-02T18:12:26.999Z</time></trkpt><trkpt lat="44.76034499349147" lon="9.94214367396103"><ele>513.3333333333334</ele><time>2026-05-02T18:12:29.999Z</time></trkpt><trkpt lat="44.760367457433276" lon="9.942022158201025"><ele>513.0</ele><time>2026-05-02T18:12:32.999Z</time></trkpt><trkpt lat="44.760386390377434" lon="9.941923764979713"><ele>513.0</ele><time>2026-05-02T18:12:34.999Z</time></trkpt><trkpt lat="44.7604040929264" lon="9.941815886188387"><ele>513.0</ele><time>2026-05-02T18:12:37.999Z</time></trkpt><trkpt lat="44.760424683672824" lon="9.941710172024484"><ele>513.0</ele><time>2026-05-02T18:12:40.999Z</time></trkpt><trkpt lat="44.76044335829609" lon="9.941601660751985"><ele>513.0</ele><time>2026-05-02T18:12:43.999Z</time></trkpt><trkpt lat="44.760469718891095" lon="9.941491053451848"><ele>513.0</ele><time>2026-05-02T18:12:47.999Z</time></trkpt><trkpt lat="44.76048857040914" lon="9.941405266333767"><ele>513.0</ele><time>2026-05-02T18:12:49.999Z</time></trkpt><trkpt lat="44.760510033601115" lon="9.941309055204876"><ele>513.3333333333334</ele><time>2026-05-02T18:12:52.999Z</time></trkpt><trkpt lat="44.76053001420689" lon="9.941210236372303"><ele>513.6666666666666</ele><time>2026-05-02T18:12:55.999Z</time></trkpt><trkpt lat="44.76055940130472" lon="9.9411121601593"><ele>514.0</ele><time>2026-05-02T18:12:58.999Z</time></trkpt><trkpt lat="44.76059563714956" lon="9.941021167483852"><ele>514.3333333333333</ele><time>2026-05-02T18:13:01.999Z</time></trkpt><trkpt lat="44.76063902472365" lon="9.940934730233376"><ele>514.6666666666666</ele><time>2026-05-02T18:13:04.999Z</time></trkpt><trkpt lat="44.76068566634427" lon="9.940857179883135"><ele>515.0</ele><time>2026-05-02T18:13:07.999Z</time></trkpt><trkpt lat="44.76074112658462" lon="9.94076866003607"><ele>516.8333333333333</ele><time>2026-05-02T18:13:10.999Z</time></trkpt><trkpt lat="44.760792209173" lon="9.940685704998392"><ele>518.6666666666666</ele><time>2026-05-02T18:13:13.999Z</time></trkpt><trkpt lat="44.76084391123248" lon="9.94061289357664"><ele>520.5</ele><time>2026-05-02T18:13:16.999Z</time></trkpt><trkpt lat="44.76088651678683" lon="9.940535681555499"><ele>522.3333333333334</ele><time>2026-05-02T18:13:19.999Z</time></trkpt><trkpt lat="44.76093667831865" lon="9.940460881594621"><ele>524.1666666666667</ele><time>2026-05-02T18:13:22.999Z</time></trkpt><trkpt lat="44.76099288599552" lon="9.940382982699294"><ele>526.0</ele><time>2026-05-02T18:13:25.999Z</time></trkpt><trkpt lat="44.761029245412395" lon="9.940269655425766"><ele>526.0</ele><time>2026-05-02T18:13:29.999Z</time></trkpt><trkpt lat="44.761024875300336" lon="9.940175634418779"><ele>526.0</ele><time>2026-05-02T18:13:32.999Z</time></trkpt><trkpt lat="44.76097959462574" lon="9.940096901585482"><ele>526.0</ele><time>2026-05-02T18:13:35.998Z</time></trkpt><trkpt lat="44.760911132637744" lon="9.940064229516217"><ele>526.0</ele><time>2026-05-02T18:13:38.998Z</time></trkpt><trkpt lat="44.76084190028574" lon="9.940071928773289"><ele>526.0</ele><time>2026-05-02T18:13:41.998Z</time></trkpt><trkpt lat="44.76077236880626" lon="9.940091060933593"><ele>526.0</ele><time>2026-05-02T18:13:44.998Z</time></trkpt><trkpt lat="44.760702790542005" lon="9.940124785823809"><ele>526.0</ele><time>2026-05-02T18:13:47.998Z</time></trkpt><trkpt lat="44.7606361497722" lon="9.940153544648519"><ele>526.0</ele><time>2026-05-02T18:13:50.998Z</time></trkpt><trkpt lat="44.76055522017436" lon="9.94019069868927"><ele>526.0</ele><time>2026-05-02T18:13:53.998Z</time></trkpt><trkpt lat="44.76047682184942" lon="9.940213871729194"><ele>526.0</ele><time>2026-05-02T18:13:56.998Z</time></trkpt><trkpt lat="44.76040132306123" lon="9.940235472462737"><ele>526.0</ele><time>2026-05-02T18:13:59.998Z</time></trkpt><trkpt lat="44.76032928383751" lon="9.940263628953256"><ele>526.0</ele><time>2026-05-02T18:14:02.999Z</time></trkpt><trkpt lat="44.760256784592244" lon="9.940295835972057"><ele>526.0</ele><time>2026-05-02T18:14:05.999Z</time></trkpt><trkpt lat="44.7601888316511" lon="9.940334039888759"><ele>528.0</ele><time>2026-05-02T18:14:08.999Z</time></trkpt><trkpt lat="44.76012277772273" lon="9.94039165737623"><ele>530.0</ele><time>2026-05-02T18:14:11.999Z</time></trkpt><trkpt lat="44.7600670002287" lon="9.940461812442107"><ele>532.0</ele><time>2026-05-02T18:14:14.999Z</time></trkpt><trkpt lat="44.760017477613694" lon="9.940534012831293"><ele>534.0</ele><time>2026-05-02T18:14:17.999Z</time></trkpt><trkpt lat="44.75996769003469" lon="9.940615766436386"><ele>536.0</ele><time>2026-05-02T18:14:20.999Z</time></trkpt><trkpt lat="44.75992356765255" lon="9.940683412218263"><ele>538.0</ele><time>2026-05-02T18:14:23.999Z</time></trkpt><trkpt lat="44.75987211548554" lon="9.940763553870546"><ele>540.0</ele><time>2026-05-02T18:14:26.999Z</time></trkpt><trkpt lat="44.7598253406387" lon="9.940835825092908"><ele>538.6666666666666</ele><time>2026-05-02T18:14:30Z</time></trkpt><trkpt lat="44.75977281503794" lon="9.940914733909096"><ele>537.3333333333334</ele><time>2026-05-02T18:14:33Z</time></trkpt><trkpt lat="44.75971733799903" lon="9.94100247353493"><ele>536.0</ele><time>2026-05-02T18:14:36Z</time></trkpt><trkpt lat="44.75966233827781" lon="9.941090936415957"><ele>534.6666666666667</ele><time>2026-05-02T18:14:39Z</time></trkpt><trkpt lat="44.759615974967815" lon="9.941180760502524"><ele>533.3333333333334</ele><time>2026-05-02T18:14:42Z</time></trkpt><trkpt lat="44.75956986965887" lon="9.941269095546852"><ele>532.0</ele><time>2026-05-02T18:14:45Z</time></trkpt><trkpt lat="44.75951868487367" lon="9.941357949113847"><ele>532.0</ele><time>2026-05-02T18:14:48Z</time></trkpt><trkpt lat="44.75947871141" lon="9.941438909133026"><ele>532.0</ele><time>2026-05-02T18:14:51Z</time></trkpt><trkpt lat="44.75943306687923" lon="9.941528862200432"><ele>532.0</ele><time>2026-05-02T18:14:54Z</time></trkpt><trkpt lat="44.759392500309" lon="9.94161909216365"><ele>532.0</ele><time>2026-05-02T18:14:57Z</time></trkpt><trkpt lat="44.75935129290983" lon="9.941706740582655"><ele>532.0</ele><time>2026-05-02T18:15:00Z</time></trkpt><trkpt lat="44.75930160219983" lon="9.941793553813422"><ele>532.0</ele><time>2026-05-02T18:15:03Z</time></trkpt><trkpt lat="44.7592621227917" lon="9.941888615731703"><ele>534.6666666666667</ele><time>2026-05-02T18:15:06Z</time></trkpt><trkpt lat="44.7592137130097" lon="9.941980495050906"><ele>537.3333333333334</ele><time>2026-05-02T18:15:09Z</time></trkpt><trkpt lat="44.75917380694034" lon="9.94207673017249"><ele>540.0</ele><time>2026-05-02T18:15:12Z</time></trkpt><trkpt lat="44.759138240608074" lon="9.94217249142667"><ele>542.6666666666666</ele><time>2026-05-02T18:15:15Z</time></trkpt><trkpt lat="44.75911443393007" lon="9.942273927125102"><ele>545.3333333333333</ele><time>2026-05-02T18:15:18Z</time></trkpt><trkpt lat="44.75909892931847" lon="9.942380719908614"><ele>548.0</ele><time>2026-05-02T18:15:21Z</time></trkpt><trkpt lat="44.75909040228686" lon="9.94248463580786"><ele>547.5714285714287</ele><time>2026-05-02T18:15:24Z</time></trkpt><trkpt lat="44.759085892717444" lon="9.942590968037903"><ele>547.1428571428571</ele><time>2026-05-02T18:15:27Z</time></trkpt><trkpt lat="44.75909237000935" lon="9.942696319349718"><ele>546.7142857142858</ele><time>2026-05-02T18:15:30Z</time></trkpt><trkpt lat="44.75909402653017" lon="9.942807735806024"><ele>546.2857142857143</ele><time>2026-05-02T18:15:33Z</time></trkpt><trkpt lat="44.75909018577747" lon="9.942917277479783"><ele>545.8571428571429</ele><time>2026-05-02T18:15:36Z</time></trkpt><trkpt lat="44.75905125568828" lon="9.943003705808186"><ele>545.4285714285714</ele><time>2026-05-02T18:15:38.999Z</time></trkpt><trkpt lat="44.75898667554795" lon="9.94299794651272"><ele>545.0</ele><time>2026-05-02T18:15:41.999Z</time></trkpt><trkpt lat="44.75896146422335" lon="9.942903714891866"><ele>545.0</ele><time>2026-05-02T18:15:44.999Z</time></trkpt><trkpt lat="44.75894755482961" lon="9.942816966132895"><ele>545.0</ele><time>2026-05-02T18:15:47.999Z</time></trkpt><trkpt lat="44.75893385950163" lon="9.9427121945578"><ele>545.0</ele><time>2026-05-02T18:15:51.999Z</time></trkpt><trkpt lat="44.75891983342999" lon="9.942623852829577"><ele>545.0</ele><time>2026-05-02T18:15:54.999Z</time></trkpt><trkpt lat="44.75890797198285" lon="9.942532068742942"><ele>545.0</ele><time>2026-05-02T18:15:57.999Z</time></trkpt><trkpt lat="44.758896732471534" lon="9.942439783701337"><ele>545.0</ele><time>2026-05-02T18:16:00.999Z</time></trkpt><trkpt lat="44.75888426599034" lon="9.942346604308451"><ele>545.0</ele><time>2026-05-02T18:16:03.999Z</time></trkpt><trkpt lat="44.75887938051171" lon="9.942252740572691"><ele>545.4285714285714</ele><time>2026-05-02T18:16:06.999Z</time></trkpt><trkpt lat="44.75888451113317" lon="9.942138132800359"><ele>545.8571428571429</ele><time>2026-05-02T18:16:10.999Z</time></trkpt><trkpt lat="44.75889422365069" lon="9.942042642428593"><ele>546.2857142857143</ele><time>2026-05-02T18:16:13.999Z</time></trkpt><trkpt lat="44.758904494437935" lon="9.94194542272249"><ele>546.7142857142858</ele><time>2026-05-02T18:16:16.999Z</time></trkpt><trkpt lat="44.758919447796025" lon="9.941834803632526"><ele>547.1428571428571</ele><time>2026-05-02T18:16:20.999Z</time></trkpt><trkpt lat="44.75893432797801" lon="9.941737997013119"><ele>547.5714285714287</ele><time>2026-05-02T18:16:23.999Z</time></trkpt><trkpt lat="44.7589560732123" lon="9.941634577299508"><ele>548.0</ele><time>2026-05-02T18:16:26.999Z</time></trkpt><trkpt lat="44.7589712589779" lon="9.941530582690863"><ele>549.3333333333333</ele><time>2026-05-02T18:16:30.999Z</time></trkpt><trkpt lat="44.75899402416712" lon="9.941409986910244"><ele>550.6666666666666</ele><time>2026-05-02T18:16:34Z</time></trkpt><trkpt lat="44.75901669064619" lon="9.941313599815313"><ele>552.0</ele><time>2026-05-02T18:16:37Z</time></trkpt><trkpt lat="44.759033451452574" lon="9.941214418042504"><ele>553.3333333333334</ele><time>2026-05-02T18:16:40Z</time></trkpt><trkpt lat="44.759049678597606" lon="9.941108210780667"><ele>554.6666666666667</ele><time>2026-05-02T18:16:44Z</time></trkpt><trkpt lat="44.75906545764694" lon="9.940990877420452"><ele>556.0</ele><time>2026-05-02T18:16:47Z</time></trkpt><trkpt lat="44.759071233068006" lon="9.940886689943335"><ele>557.5</ele><time>2026-05-02T18:16:51Z</time></trkpt><trkpt lat="44.75907298870867" lon="9.940788108350667"><ele>559.0</ele><time>2026-05-02T18:16:54Z</time></trkpt><trkpt lat="44.75906129388773" lon="9.940691106208778"><ele>560.5</ele><time>2026-05-02T18:16:57Z</time></trkpt><trkpt lat="44.759034303556305" lon="9.940574257074276"><ele>562.0</ele><time>2026-05-02T18:17:00Z</time></trkpt><trkpt lat="44.75900749330814" lon="9.940483620302151"><ele>563.5</ele><time>2026-05-02T18:17:03Z</time></trkpt><trkpt lat="44.758995876262716" lon="9.940379093034867"><ele>565.0</ele><time>2026-05-02T18:17:06Z</time></trkpt><trkpt lat="44.75900759677888" lon="9.940264740136625"><ele>565.0</ele><time>2026-05-02T18:17:09Z</time></trkpt><trkpt lat="44.759036986912285" lon="9.940164851199752"><ele>565.0</ele><time>2026-05-02T18:17:12Z</time></trkpt><trkpt lat="44.759076417754336" lon="9.940076997772508"><ele>565.0</ele><time>2026-05-02T18:17:15Z</time></trkpt><trkpt lat="44.75911549927113" lon="9.939990875540461"><ele>565.0</ele><time>2026-05-02T18:17:18Z</time></trkpt><trkpt lat="44.75915469115357" lon="9.939894834487944"><ele>565.0</ele><time>2026-05-02T18:17:21Z</time></trkpt><trkpt lat="44.75918112785302" lon="9.93979828775155"><ele>565.0</ele><time>2026-05-02T18:17:24Z</time></trkpt><trkpt lat="44.7591966111474" lon="9.93969318572333"><ele>565.5714285714286</ele><time>2026-05-02T18:17:27Z</time></trkpt><trkpt lat="44.75919306305063" lon="9.939586921561443"><ele>566.1428571428571</ele><time>2026-05-02T18:17:30Z</time></trkpt><trkpt lat="44.75918721642283" lon="9.939482323781963"><ele>566.7142857142858</ele><time>2026-05-02T18:17:33Z</time></trkpt><trkpt lat="44.7591677836101" lon="9.939385194401478"><ele>567.2857142857142</ele><time>2026-05-02T18:17:36Z</time></trkpt><trkpt lat="44.75914155939857" lon="9.939291105627756"><ele>567.8571428571429</ele><time>2026-05-02T18:17:39Z</time></trkpt><trkpt lat="44.75911218948226" lon="9.93920254290006"><ele>568.4285714285714</ele><time>2026-05-02T18:17:41.999Z</time></trkpt><trkpt lat="44.75907686999682" lon="9.939103516512336"><ele>569.0</ele><time>2026-05-02T18:17:45.999Z</time></trkpt><trkpt lat="44.75903526633931" lon="9.939024103753841"><ele>569.0000000000001</ele><time>2026-05-02T18:17:48.999Z</time></trkpt><trkpt lat="44.75898138328569" lon="9.938958115976892"><ele>569.0</ele><time>2026-05-02T18:17:51.999Z</time></trkpt><trkpt lat="44.75891624546844" lon="9.938913107369586"><ele>569.0</ele><time>2026-05-02T18:17:54.999Z</time></trkpt><trkpt lat="44.758848638519105" lon="9.938883369000408"><ele>569.0</ele><time>2026-05-02T18:17:57.999Z</time></trkpt><trkpt lat="44.7587796230813" lon="9.938865382955818"><ele>569.0</ele><time>2026-05-02T18:18:00.999Z</time></trkpt><trkpt lat="44.75868988081509" lon="9.93885773907822"><ele>569.0000000000001</ele><time>2026-05-02T18:18:03.999Z</time></trkpt><trkpt lat="44.75862458944987" lon="9.938845783968935"><ele>569.0</ele><time>2026-05-02T18:18:06.999Z</time></trkpt><trkpt lat="44.758538226223564" lon="9.938837519234486"><ele>571.2857142857143</ele><time>2026-05-02T18:18:09.999Z</time></trkpt><trkpt lat="44.758464372843974" lon="9.93880893572956"><ele>573.5714285714286</ele><time>2026-05-02T18:18:12.999Z</time></trkpt><trkpt lat="44.75839834988602" lon="9.938757469923607"><ele>575.8571428571429</ele><time>2026-05-02T18:18:15.999Z</time></trkpt><trkpt lat="44.75834319052441" lon="9.93868232451735"><ele>578.1428571428571</ele><time>2026-05-02T18:18:18.999Z</time></trkpt><trkpt lat="44.758312852545394" lon="9.938588652011509"><ele>580.4285714285714</ele><time>2026-05-02T18:18:21.999Z</time></trkpt><trkpt lat="44.758299170374784" lon="9.938488399327088"><ele>582.7142857142858</ele><time>2026-05-02T18:18:24.999Z</time></trkpt><trkpt lat="44.75828570485385" lon="9.938389399103682"><ele>585.0</ele><time>2026-05-02T18:18:27.999Z</time></trkpt><trkpt lat="44.75827017020491" lon="9.93828768995631"><ele>585.0</ele><time>2026-05-02T18:18:30.999Z</time></trkpt><trkpt lat="44.75824471721471" lon="9.938188862988305"><ele>585.0</ele><time>2026-05-02T18:18:33.999Z</time></trkpt><trkpt lat="44.758205248595296" lon="9.938096154635836"><ele>585.0</ele><time>2026-05-02T18:18:36.999Z</time></trkpt><trkpt lat="44.758157937737685" lon="9.938015670166385"><ele>585.0</ele><time>2026-05-02T18:18:40Z</time></trkpt><trkpt lat="44.75810519947818" lon="9.937941648044806"><ele>585.0</ele><time>2026-05-02T18:18:43Z</time></trkpt><trkpt lat="44.75805714043529" lon="9.937864319658576"><ele>585.0</ele><time>2026-05-02T18:18:46Z</time></trkpt><trkpt lat="44.75801768755" lon="9.93777767966777"><ele>585.0</ele><time>2026-05-02T18:18:49Z</time></trkpt><trkpt lat="44.757986466215264" lon="9.93768337003527"><ele>585.0</ele><time>2026-05-02T18:18:52Z</time></trkpt><trkpt lat="44.75796659561356" lon="9.9375906717874"><ele>585.0</ele><time>2026-05-02T18:18:55Z</time></trkpt><trkpt lat="44.75795349134394" lon="9.937491201144606"><ele>585.0</ele><time>2026-05-02T18:18:58Z</time></trkpt><trkpt lat="44.75795042521008" lon="9.937389444677555"><ele>585.0</ele><time>2026-05-02T18:19:01Z</time></trkpt><trkpt lat="44.757953436008165" lon="9.937285478308631"><ele>585.0</ele><time>2026-05-02T18:19:04Z</time></trkpt><trkpt lat="44.75796005722304" lon="9.937179835353522"><ele>585.0</ele><time>2026-05-02T18:19:07Z</time></trkpt><trkpt lat="44.757965317822816" lon="9.937089636753141"><ele>585.0</ele><time>2026-05-02T18:19:10Z</time></trkpt><trkpt lat="44.75798303157573" lon="9.936988725817706"><ele>584.5714285714286</ele><time>2026-05-02T18:19:13Z</time></trkpt><trkpt lat="44.758008501058555" lon="9.93689405645475"><ele>584.1428571428571</ele><time>2026-05-02T18:19:16Z</time></trkpt><trkpt lat="44.758039950556274" lon="9.93681183565429"><ele>583.7142857142857</ele><time>2026-05-02T18:19:19Z</time></trkpt><trkpt lat="44.75807578145456" lon="9.936724642608821"><ele>583.2857142857142</ele><time>2026-05-02T18:19:22Z</time></trkpt><trkpt lat="44.75811814131217" lon="9.936642805652355"><ele>582.8571428571428</ele><time>2026-05-02T18:19:25Z</time></trkpt><trkpt lat="44.75816709985268" lon="9.936571777589645"><ele>582.4285714285714</ele><time>2026-05-02T18:19:28Z</time></trkpt><trkpt lat="44.75822967747821" lon="9.936514660024194"><ele>582.0</ele><time>2026-05-02T18:19:31Z</time></trkpt><trkpt lat="44.75829548506927" lon="9.936458766965576"><ele>582.8571428571429</ele><time>2026-05-02T18:19:34Z</time></trkpt><trkpt lat="44.75834994946626" lon="9.936386432669043"><ele>583.7142857142857</ele><time>2026-05-02T18:19:37Z</time></trkpt><trkpt lat="44.75837768774361" lon="9.936277593352962"><ele>584.5714285714286</ele><time>2026-05-02T18:19:41Z</time></trkpt><trkpt lat="44.75836771188504" lon="9.936182864547575"><ele>585.4285714285714</ele><time>2026-05-02T18:19:44Z</time></trkpt><trkpt lat="44.758325656672284" lon="9.93610664268372"><ele>586.2857142857142</ele><time>2026-05-02T18:19:46.999Z</time></trkpt><trkpt lat="44.75825263968508" lon="9.936052144690612"><ele>587.1428571428571</ele><time>2026-05-02T18:19:49.999Z</time></trkpt><trkpt lat="44.75818526051812" lon="9.936016825906348"><ele>588.0</ele><time>2026-05-02T18:19:53.999Z</time></trkpt><trkpt lat="44.75812319454024" lon="9.935990846838159"><ele>588.0</ele><time>2026-05-02T18:19:56.999Z</time></trkpt><trkpt lat="44.75805865140435" lon="9.935972992646525"><ele>588.0</ele><time>2026-05-02T18:19:59.999Z</time></trkpt><trkpt lat="44.7579792401276" lon="9.935972367920407"><ele>588.0</ele><time>2026-05-02T18:20:02.999Z</time></trkpt><trkpt lat="44.75791045499005" lon="9.9359914935808"><ele>588.0</ele><time>2026-05-02T18:20:06.999Z</time></trkpt><trkpt lat="44.75785134650147" lon="9.93602840588067"><ele>588.0</ele><time>2026-05-02T18:20:09.999Z</time></trkpt><trkpt lat="44.75778834450255" lon="9.93607891463445"><ele>588.0</ele><time>2026-05-02T18:20:12.999Z</time></trkpt><trkpt lat="44.757732860984035" lon="9.936149193916236"><ele>588.0</ele><time>2026-05-02T18:20:15.999Z</time></trkpt><trkpt lat="44.7576811009181" lon="9.93623362253666"><ele>591.1666666666666</ele><time>2026-05-02T18:20:18.999Z</time></trkpt><trkpt lat="44.757638575958566" lon="9.936320363731552"><ele>594.3333333333334</ele><time>2026-05-02T18:20:21.999Z</time></trkpt><trkpt lat="44.75758954603979" lon="9.936416068471617"><ele>597.5</ele><time>2026-05-02T18:20:24.999Z</time></trkpt><trkpt lat="44.75755593132236" lon="9.93650513988137"><ele>600.6666666666667</ele><time>2026-05-02T18:20:27.999Z</time></trkpt><trkpt lat="44.757520942986304" lon="9.936595304747895"><ele>603.8333333333334</ele><time>2026-05-02T18:20:30.999Z</time></trkpt><trkpt lat="44.75748742714663" lon="9.93669140480515"><ele>607.0</ele><time>2026-05-02T18:20:33.999Z</time></trkpt><trkpt lat="44.757455176148135" lon="9.936788318346249"><ele>606.9999999999999</ele><time>2026-05-02T18:20:36.999Z</time></trkpt><trkpt lat="44.757426170119025" lon="9.936884821401112"><ele>607.0</ele><time>2026-05-02T18:20:39.999Z</time></trkpt><trkpt lat="44.757386389380855" lon="9.936982018251543"><ele>607.0</ele><time>2026-05-02T18:20:42.999Z</time></trkpt><trkpt lat="44.757352661650394" lon="9.93707716315894"><ele>607.0</ele><time>2026-05-02T18:20:46Z</time></trkpt><trkpt lat="44.75732195982663" lon="9.937168127965696"><ele>607.0</ele><time>2026-05-02T18:20:49Z</time></trkpt><trkpt lat="44.7572930929926" lon="9.937249414103238"><ele>606.9999999999999</ele><time>2026-05-02T18:20:52Z</time></trkpt><trkpt lat="44.75726112263963" lon="9.937347305526206"><ele>607.0</ele><time>2026-05-02T18:20:55Z</time></trkpt><trkpt lat="44.75722961995727" lon="9.9374445117003"><ele>607.0</ele><time>2026-05-02T18:20:58Z</time></trkpt><trkpt lat="44.75720128167068" lon="9.937545740394116"><ele>607.0</ele><time>2026-05-02T18:21:01Z</time></trkpt><trkpt lat="44.75718234076914" lon="9.937652868537976"><ele>607.0</ele><time>2026-05-02T18:21:04Z</time></trkpt><trkpt lat="44.75717345600733" lon="9.93776291425071"><ele>607.0</ele><time>2026-05-02T18:21:07Z</time></trkpt><trkpt lat="44.757185342151146" lon="9.937872914541813"><ele>607.0</ele><time>2026-05-02T18:21:10Z</time></trkpt><trkpt lat="44.757209439397336" lon="9.937979447352456"><ele>607.0</ele><time>2026-05-02T18:21:13Z</time></trkpt><trkpt lat="44.75724401683868" lon="9.938080931875238"><ele>607.6666666666667</ele><time>2026-05-02T18:21:16Z</time></trkpt><trkpt lat="44.757297821162844" lon="9.938171122896932"><ele>608.3333333333334</ele><time>2026-05-02T18:21:19Z</time></trkpt><trkpt lat="44.75735976894846" lon="9.938254688760935"><ele>609.0</ele><time>2026-05-02T18:21:22Z</time></trkpt><trkpt lat="44.75740618156659" lon="9.938315636772069"><ele>609.6666666666666</ele><time>2026-05-02T18:21:24Z</time></trkpt><trkpt lat="44.757475176003815" lon="9.938400911923491"><ele>610.3333333333333</ele><time>2026-05-02T18:21:27Z</time></trkpt><trkpt lat="44.757521804248086" lon="9.938463132492508"><ele>611.0</ele><time>2026-05-02T18:21:29Z</time></trkpt><trkpt lat="44.75757357837898" lon="9.938567331034289"><ele>611.0</ele><time>2026-05-02T18:21:32Z</time></trkpt><trkpt lat="44.7575893180255" lon="9.938684112306019"><ele>611.0</ele><time>2026-05-02T18:21:35Z</time></trkpt><trkpt lat="44.757580821791166" lon="9.938800530970726"><ele>611.0</ele><time>2026-05-02T18:21:38Z</time></trkpt><trkpt lat="44.7575441143519" lon="9.938898610705072"><ele>611.0</ele><time>2026-05-02T18:21:41Z</time></trkpt><trkpt lat="44.75749184556639" lon="9.938968031326405"><ele>611.0</ele><time>2026-05-02T18:21:44Z</time></trkpt><trkpt lat="44.757418316709106" lon="9.938998777620432"><ele>611.0</ele><time>2026-05-02T18:21:47Z</time></trkpt><trkpt lat="44.75733202080629" lon="9.938999583357019"><ele>611.0000000000001</ele><time>2026-05-02T18:21:50Z</time></trkpt><trkpt lat="44.757255317291566" lon="9.938965571367918"><ele>611.0</ele><time>2026-05-02T18:21:52.999Z</time></trkpt><trkpt lat="44.757186201047716" lon="9.938913057362276"><ele>611.0</ele><time>2026-05-02T18:21:55.999Z</time></trkpt><trkpt lat="44.75713509555166" lon="9.938846117024893"><ele>611.0</ele><time>2026-05-02T18:21:58.999Z</time></trkpt><trkpt lat="44.75709654555609" lon="9.938775129404574"><ele>611.0</ele><time>2026-05-02T18:22:01.999Z</time></trkpt><trkpt lat="44.75706728210905" lon="9.938683575787657"><ele>611.0000000000001</ele><time>2026-05-02T18:22:04.999Z</time></trkpt><trkpt lat="44.75704578438772" lon="9.938578951542842"><ele>611.0</ele><time>2026-05-02T18:22:07.999Z</time></trkpt><trkpt lat="44.75702361547534" lon="9.938469820156996"><ele>611.3333333333333</ele><time>2026-05-02T18:22:10.999Z</time></trkpt><trkpt lat="44.757002936676315" lon="9.938368214593321"><ele>611.6666666666666</ele><time>2026-05-02T18:22:13.999Z</time></trkpt><trkpt lat="44.756985650312316" lon="9.938265144484363"><ele>612.0</ele><time>2026-05-02T18:22:16.999Z</time></trkpt><trkpt lat="44.75697027879758" lon="9.938158829663122"><ele>612.3333333333334</ele><time>2026-05-02T18:22:19.999Z</time></trkpt><trkpt lat="44.75694395468365" lon="9.938015243130632"><ele>612.6666666666667</ele><time>2026-05-02T18:22:23.999Z</time></trkpt><trkpt lat="44.756924383305304" lon="9.937900211584576"><ele>613.0</ele><time>2026-05-02T18:22:26.999Z</time></trkpt><trkpt lat="44.75691031692059" lon="9.937781606549954"><ele>613.0</ele><time>2026-05-02T18:22:29.999Z</time></trkpt><trkpt lat="44.75689111479848" lon="9.93767162555787"><ele>613.0</ele><time>2026-05-02T18:22:32.999Z</time></trkpt><trkpt lat="44.75686883056782" lon="9.937561839086023"><ele>613.0</ele><time>2026-05-02T18:22:35.999Z</time></trkpt><trkpt lat="44.75685024466696" lon="9.93745140672652"><ele>613.0</ele><time>2026-05-02T18:22:38.999Z</time></trkpt><trkpt lat="44.756842340467315" lon="9.937340482084435"><ele>613.0</ele><time>2026-05-02T18:22:41.999Z</time></trkpt><trkpt lat="44.75683878264689" lon="9.937230215457122"><ele>613.0</ele><time>2026-05-02T18:22:44.999Z</time></trkpt><trkpt lat="44.75684634356941" lon="9.937119247431495"><ele>614.0</ele><time>2026-05-02T18:22:47.999Z</time></trkpt><trkpt lat="44.7568581859166" lon="9.93701259639036"><ele>615.0</ele><time>2026-05-02T18:22:51Z</time></trkpt><trkpt lat="44.75686655394454" lon="9.936911669391563"><ele>616.0</ele><time>2026-05-02T18:22:55Z</time></trkpt><trkpt lat="44.75680392073184" lon="9.936930608569284"><ele>617.0</ele><time>2026-05-02T18:23:05Z</time></trkpt><trkpt lat="44.75679978266462" lon="9.937036727453577"><ele>618.0</ele><time>2026-05-02T18:23:55.999Z</time></trkpt><trkpt lat="44.75679205657383" lon="9.937132911165248"><ele>619.0</ele><time>2026-05-02T18:23:57.999Z</time></trkpt><trkpt lat="44.756788007470405" lon="9.937249930221892"><ele>620.0</ele><time>2026-05-02T18:23:59.999Z</time></trkpt><trkpt lat="44.75679270350049" lon="9.937384210691382"><ele>620.0</ele><time>2026-05-02T18:24:01.999Z</time></trkpt><trkpt lat="44.75681180192025" lon="9.937533105727619"><ele>620.0</ele><time>2026-05-02T18:24:03.999Z</time></trkpt><trkpt lat="44.75683795606721" lon="9.937690537107073"><ele>620.0</ele><time>2026-05-02T18:24:05.999Z</time></trkpt><trkpt lat="44.756865387640126" lon="9.937857706391751"><ele>620.0</ele><time>2026-05-02T18:24:07.999Z</time></trkpt><trkpt lat="44.756880088341866" lon="9.937947575640734"><ele>620.0</ele><time>2026-05-02T18:24:08.999Z</time></trkpt><trkpt lat="44.756893806248" lon="9.9380360986992"><ele>619.0</ele><time>2026-05-02T18:24:09.999Z</time></trkpt><trkpt lat="44.75690990478466" lon="9.938126938402757"><ele>618.0</ele><time>2026-05-02T18:24:10.999Z</time></trkpt><trkpt lat="44.75692544074235" lon="9.938215508728494"><ele>617.0</ele><time>2026-05-02T18:24:11.999Z</time></trkpt><trkpt lat="44.756941945885266" lon="9.93830422566325"><ele>616.0</ele><time>2026-05-02T18:24:12.999Z</time></trkpt><trkpt lat="44.756955727812596" lon="9.938397035867304"><ele>615.0</ele><time>2026-05-02T18:24:13.999Z</time></trkpt><trkpt lat="44.75697033396405" lon="9.938495110135355"><ele>614.0</ele><time>2026-05-02T18:24:14.999Z</time></trkpt><trkpt lat="44.75698824068315" lon="9.938591876637467"><ele>613.0</ele><time>2026-05-02T18:24:15.999Z</time></trkpt><trkpt lat="44.75701388195889" lon="9.938690295560887"><ele>612.6666666666667</ele><time>2026-05-02T18:24:16.999Z</time></trkpt><trkpt lat="44.75704730976019" lon="9.938786531610086"><ele>612.3333333333334</ele><time>2026-05-02T18:24:17.999Z</time></trkpt><trkpt lat="44.75709376833123" lon="9.938878531377082"><ele>612.0</ele><time>2026-05-02T18:24:18.999Z</time></trkpt><trkpt lat="44.757150902499404" lon="9.93895992657898"><ele>611.6666666666666</ele><time>2026-05-02T18:24:19.999Z</time></trkpt><trkpt lat="44.75721624649054" lon="9.939027933787196"><ele>611.3333333333333</ele><time>2026-05-02T18:24:20.999Z</time></trkpt><trkpt lat="44.757287636376674" lon="9.939072589714572"><ele>611.0</ele><time>2026-05-02T18:24:21.999Z</time></trkpt><trkpt lat="44.757369229909365" lon="9.939089102742944"><ele>611.0</ele><time>2026-05-02T18:24:22.999Z</time></trkpt><trkpt lat="44.757450550558964" lon="9.93906262288753"><ele>611.0</ele><time>2026-05-02T18:24:23.999Z</time></trkpt><trkpt lat="44.75752508776566" lon="9.939012766406982"><ele>611.0</ele><time>2026-05-02T18:24:24.999Z</time></trkpt><trkpt lat="44.75758581822461" lon="9.938937263164053"><ele>611.0</ele><time>2026-05-02T18:24:25.999Z</time></trkpt><trkpt lat="44.75762553265436" lon="9.938831110009977"><ele>611.0</ele><time>2026-05-02T18:24:26.999Z</time></trkpt><trkpt lat="44.757642577064" lon="9.938711787864257"><ele>611.0</ele><time>2026-05-02T18:24:27.999Z</time></trkpt><trkpt lat="44.75763329734442" lon="9.938596576572698"><ele>611.0</ele><time>2026-05-02T18:24:28.999Z</time></trkpt><trkpt lat="44.75759589883216" lon="9.93849116244289"><ele>611.0</ele><time>2026-05-02T18:24:29.999Z</time></trkpt><trkpt lat="44.75753765218843" lon="9.938403129195446"><ele>611.0</ele><time>2026-05-02T18:24:30.999Z</time></trkpt><trkpt lat="44.757469148066384" lon="9.938332647193631"><ele>611.0</ele><time>2026-05-02T18:24:31.999Z</time></trkpt><trkpt lat="44.75739849879986" lon="9.9382668317643"><ele>611.0</ele><time>2026-05-02T18:24:32.999Z</time></trkpt><trkpt lat="44.75733223440062" lon="9.938191676262875"><ele>611.0</ele><time>2026-05-02T18:24:33.999Z</time></trkpt><trkpt lat="44.757268537829916" lon="9.938105390774654"><ele>611.3333333333333</ele><time>2026-05-02T18:24:34.999Z</time></trkpt><trkpt lat="44.757221105401946" lon="9.938001528379258"><ele>611.6666666666666</ele><time>2026-05-02T18:24:35.999Z</time></trkpt><trkpt lat="44.75719486318921" lon="9.93788205337799"><ele>612.0</ele><time>2026-05-02T18:24:36.999Z</time></trkpt><trkpt lat="44.75719111623945" lon="9.937755883316951"><ele>612.3333333333334</ele><time>2026-05-02T18:24:37.999Z</time></trkpt><trkpt lat="44.75721007672893" lon="9.937630647579818"><ele>612.6666666666667</ele><time>2026-05-02T18:24:38.999Z</time></trkpt><trkpt lat="44.75724246637226" lon="9.937509048023976"><ele>613.0</ele><time>2026-05-02T18:24:39.999Z</time></trkpt><trkpt lat="44.75728269064327" lon="9.937391960541401"><ele>611.8</ele><time>2026-05-02T18:24:40.999Z</time></trkpt><trkpt lat="44.75732369011139" lon="9.937275478929743"><ele>610.5999999999999</ele><time>2026-05-02T18:24:41.999Z</time></trkpt><trkpt lat="44.75736519738416" lon="9.937157322745982"><ele>609.4000000000001</ele><time>2026-05-02T18:24:42.999Z</time></trkpt><trkpt lat="44.757404177110665" lon="9.93703164406777"><ele>608.2</ele><time>2026-05-02T18:24:43.999Z</time></trkpt><trkpt lat="44.75744656685286" lon="9.936908535611362"><ele>607.0</ele><time>2026-05-02T18:24:44.999Z</time></trkpt><trkpt lat="44.757488512723626" lon="9.93678347719472"><ele>608.0</ele><time>2026-05-02T18:24:45.999Z</time></trkpt><trkpt lat="44.757529528353395" lon="9.936665206032936"><ele>609.0</ele><time>2026-05-02T18:24:46.999Z</time></trkpt><trkpt lat="44.75757688702435" lon="9.936549147693736"><ele>610.0</ele><time>2026-05-02T18:24:47.999Z</time></trkpt><trkpt lat="44.75762169532775" lon="9.936429945971058"><ele>611.0</ele><time>2026-05-02T18:24:48.999Z</time></trkpt><trkpt lat="44.75766996710285" lon="9.936323028100244"><ele>612.0</ele><time>2026-05-02T18:24:49.999Z</time></trkpt><trkpt lat="44.757725918210475" lon="9.936222244239632"><ele>608.0</ele><time>2026-05-02T18:24:50.999Z</time></trkpt><trkpt lat="44.757788919027554" lon="9.936130647758366"><ele>604.0</ele><time>2026-05-02T18:24:51.999Z</time></trkpt><trkpt lat="44.7578614003943" lon="9.93606027550401"><ele>600.0</ele><time>2026-05-02T18:24:52.998Z</time></trkpt><trkpt lat="44.75793999753225" lon="9.936015910539087"><ele>596.0</ele><time>2026-05-02T18:24:53.998Z</time></trkpt><trkpt lat="44.75802603518947" lon="9.936002831004657"><ele>592.0</ele><time>2026-05-02T18:24:54.998Z</time></trkpt><trkpt lat="44.758112882211066" lon="9.936020082050645"><ele>588.0</ele><time>2026-05-02T18:24:56Z</time></trkpt><trkpt lat="44.758196918746165" lon="9.936047496266527"><ele>588.0</ele><time>2026-05-02T18:24:57Z</time></trkpt><trkpt lat="44.75827261151219" lon="9.93606833628114"><ele>588.0</ele><time>2026-05-02T18:24:58Z</time></trkpt><trkpt lat="44.758329207068705" lon="9.936117129367213"><ele>588.0</ele><time>2026-05-02T18:24:59Z</time></trkpt><trkpt lat="44.75836359241481" lon="9.936199351710137"><ele>588.0</ele><time>2026-05-02T18:25:00Z</time></trkpt><trkpt lat="44.75836035873581" lon="9.936307255871515"><ele>588.0</ele><time>2026-05-02T18:25:01Z</time></trkpt><trkpt lat="44.758310924701824" lon="9.936403396963817"><ele>588.0</ele><time>2026-05-02T18:25:02Z</time></trkpt><trkpt lat="44.758224696186744" lon="9.936429570153873"><ele>588.0</ele><time>2026-05-02T18:25:03Z</time></trkpt><trkpt lat="44.75815523134005" lon="9.936500255959983"><ele>588.0</ele><time>2026-05-02T18:25:04Z</time></trkpt><trkpt lat="44.75808978592569" lon="9.936579523565143"><ele>588.0</ele><time>2026-05-02T18:25:05Z</time></trkpt><trkpt lat="44.75803649615131" lon="9.93667801546037"><ele>588.0</ele><time>2026-05-02T18:25:06Z</time></trkpt><trkpt lat="44.757988338638576" lon="9.93678895969458"><ele>588.0</ele><time>2026-05-02T18:25:07Z</time></trkpt><trkpt lat="44.757949621727526" lon="9.936907912957015"><ele>588.0</ele><time>2026-05-02T18:25:08Z</time></trkpt><trkpt lat="44.757920871352944" lon="9.937037777595275"><ele>587.4</ele><time>2026-05-02T18:25:09Z</time></trkpt><trkpt lat="44.75790035565719" lon="9.93717432421927"><ele>586.8</ele><time>2026-05-02T18:25:10Z</time></trkpt><trkpt lat="44.757889916931006" lon="9.937316717196843"><ele>586.2</ele><time>2026-05-02T18:25:11Z</time></trkpt><trkpt lat="44.75789416248513" lon="9.937463536978074"><ele>585.6</ele><time>2026-05-02T18:25:12Z</time></trkpt><trkpt lat="44.757913461087284" lon="9.937609999856313"><ele>585.0</ele><time>2026-05-02T18:25:13Z</time></trkpt><trkpt lat="44.75795088012575" lon="9.937748435244064"><ele>585.0</ele><time>2026-05-02T18:25:14Z</time></trkpt><trkpt lat="44.75800709678631" lon="9.937871724368222"><ele>585.0</ele><time>2026-05-02T18:25:15Z</time></trkpt><trkpt lat="44.75808061029708" lon="9.937977834451571"><ele>585.0</ele><time>2026-05-02T18:25:16Z</time></trkpt><trkpt lat="44.75815235805198" lon="9.938084679176047"><ele>585.0</ele><time>2026-05-02T18:25:17Z</time></trkpt><trkpt lat="44.7582043431249" lon="9.938212778224933"><ele>585.0</ele><time>2026-05-02T18:25:18Z</time></trkpt><trkpt lat="44.75822675859907" lon="9.938358355675966"><ele>586.4</ele><time>2026-05-02T18:25:19Z</time></trkpt><trkpt lat="44.75824033586548" lon="9.93850581420896"><ele>587.8</ele><time>2026-05-02T18:25:20Z</time></trkpt><trkpt lat="44.75826297512126" lon="9.938640338767666"><ele>589.2</ele><time>2026-05-02T18:25:21Z</time></trkpt><trkpt lat="44.758309288070066" lon="9.938750523317877"><ele>590.6</ele><time>2026-05-02T18:25:22Z</time></trkpt><trkpt lat="44.75838004632426" lon="9.938833255608264"><ele>592.0</ele><time>2026-05-02T18:25:23Z</time></trkpt><trkpt lat="44.7584677450844" lon="9.938879204227684"><ele>587.4</ele><time>2026-05-02T18:25:24Z</time></trkpt><trkpt lat="44.758562164528826" lon="9.938896797850092"><ele>582.8000000000001</ele><time>2026-05-02T18:25:25Z</time></trkpt><trkpt lat="44.75865908325484" lon="9.938901152294795"><ele>578.2</ele><time>2026-05-02T18:25:26Z</time></trkpt><trkpt lat="44.75875503339705" lon="9.938897874336028"><ele>573.6</ele><time>2026-05-02T18:25:27Z</time></trkpt><trkpt lat="44.7588446725048" lon="9.938909499762888"><ele>569.0</ele><time>2026-05-02T18:25:28Z</time></trkpt><trkpt lat="44.758929002116055" lon="9.938956628781028"><ele>569.0</ele><time>2026-05-02T18:25:29Z</time></trkpt><trkpt lat="44.7590007031869" lon="9.939034333041636"><ele>569.0</ele><time>2026-05-02T18:25:30Z</time></trkpt><trkpt lat="44.75905912573262" lon="9.939144291314607"><ele>569.0</ele><time>2026-05-02T18:25:31Z</time></trkpt><trkpt lat="44.75910216434754" lon="9.939270688787442"><ele>569.0</ele><time>2026-05-02T18:25:32Z</time></trkpt><trkpt lat="44.75913417712721" lon="9.939408264325387"><ele>569.0</ele><time>2026-05-02T18:25:33Z</time></trkpt><trkpt lat="44.75915553088853" lon="9.939546070370303"><ele>569.2</ele><time>2026-05-02T18:25:34Z</time></trkpt><trkpt lat="44.75916141972591" lon="9.939679563423079"><ele>569.4</ele><time>2026-05-02T18:25:35Z</time></trkpt><trkpt lat="44.75914261309239" lon="9.939813019268692"><ele>569.6</ele><time>2026-05-02T18:25:36Z</time></trkpt><trkpt lat="44.75909401324551" lon="9.939936205330259"><ele>569.8</ele><time>2026-05-02T18:25:37Z</time></trkpt><trkpt lat="44.75903223493463" lon="9.940049787029258"><ele>570.0</ele><time>2026-05-02T18:25:38Z</time></trkpt><trkpt lat="44.758978415482424" lon="9.940166960333253"><ele>569.0</ele><time>2026-05-02T18:25:39Z</time></trkpt><trkpt lat="44.75895523657811" lon="9.940301532654862"><ele>568.0</ele><time>2026-05-02T18:25:40Z</time></trkpt><trkpt lat="44.75896717392698" lon="9.940444761865095"><ele>567.0</ele><time>2026-05-02T18:25:41Z</time></trkpt><trkpt lat="44.75899897005367" lon="9.940585784587444"><ele>566.0</ele><time>2026-05-02T18:25:42Z</time></trkpt><trkpt lat="44.759028389915166" lon="9.94072749381485"><ele>565.0</ele><time>2026-05-02T18:25:43Z</time></trkpt><trkpt lat="44.75903269640565" lon="9.940877362731133"><ele>563.2</ele><time>2026-05-02T18:25:44Z</time></trkpt><trkpt lat="44.75901438262712" lon="9.941028704037295"><ele>561.4</ele><time>2026-05-02T18:25:45Z</time></trkpt><trkpt lat="44.758987037738486" lon="9.941179078844554"><ele>559.6</ele><time>2026-05-02T18:25:46Z</time></trkpt><trkpt lat="44.75895880418758" lon="9.941329307391763"><ele>557.8</ele><time>2026-05-02T18:25:47Z</time></trkpt><trkpt lat="44.7589284699025" lon="9.941482772555457"><ele>556.0</ele><time>2026-05-02T18:25:48Z</time></trkpt><trkpt lat="44.75889599408024" lon="9.94163885111701"><ele>554.0</ele><time>2026-05-02T18:25:49Z</time></trkpt><trkpt lat="44.75886631049936" lon="9.941798551443203"><ele>552.0</ele><time>2026-05-02T18:25:50Z</time></trkpt><trkpt lat="44.75884212893738" lon="9.94196238274467"><ele>550.0</ele><time>2026-05-02T18:25:51Z</time></trkpt><trkpt lat="44.758832501676274" lon="9.942128989258176"><ele>548.0</ele><time>2026-05-02T18:25:52Z</time></trkpt><trkpt lat="44.758838209546674" lon="9.942296631631667"><ele>548.0</ele><time>2026-05-02T18:25:53Z</time></trkpt><trkpt lat="44.75885407644957" lon="9.942459845955469"><ele>548.0</ele><time>2026-05-02T18:25:54Z</time></trkpt><trkpt lat="44.75887818613979" lon="9.942616576366575"><ele>548.0</ele><time>2026-05-02T18:25:55Z</time></trkpt><trkpt lat="44.758903239333215" lon="9.942757734004182"><ele>548.0</ele><time>2026-05-02T18:25:56Z</time></trkpt><trkpt lat="44.75892427503826" lon="9.942878835627633"><ele>548.0</ele><time>2026-05-02T18:25:57Z</time></trkpt><trkpt lat="44.75894323135604" lon="9.942976464247941"><ele>547.5</ele><time>2026-05-02T18:25:57.999Z</time></trkpt><trkpt lat="44.75901911523495" lon="9.943090970768376"><ele>547.0</ele><time>2026-05-02T18:25:59.999Z</time></trkpt><trkpt lat="44.759120076176366" lon="9.942989044338916"><ele>546.5</ele><time>2026-05-02T18:26:01.999Z</time></trkpt><trkpt lat="44.75912700875929" lon="9.942887607010983"><ele>546.0</ele><time>2026-05-02T18:26:02.999Z</time></trkpt><trkpt lat="44.75911763803366" lon="9.942794155795223"><ele>545.5</ele><time>2026-05-02T18:26:03.999Z</time></trkpt><trkpt lat="44.75911062116764" lon="9.94269122379719"><ele>545.0</ele><time>2026-05-02T18:26:04.999Z</time></trkpt><trkpt lat="44.759108694900554" lon="9.942582038478488"><ele>545.5</ele><time>2026-05-02T18:26:05.999Z</time></trkpt><trkpt lat="44.759115592678356" lon="9.942466921799483"><ele>546.0</ele><time>2026-05-02T18:26:06.999Z</time></trkpt><trkpt lat="44.759128984056225" lon="9.942349300266743"><ele>546.5</ele><time>2026-05-02T18:26:07.999Z</time></trkpt><trkpt lat="44.75915798935001" lon="9.94223134860798"><ele>547.0</ele><time>2026-05-02T18:26:08.999Z</time></trkpt><trkpt lat="44.759199146849" lon="9.942119549021758"><ele>547.5</ele><time>2026-05-02T18:26:09.999Z</time></trkpt><trkpt lat="44.7592495573241" lon="9.942011242775697"><ele>548.0</ele><time>2026-05-02T18:26:10.999Z</time></trkpt><trkpt lat="44.759305868028896" lon="9.941903840105464"><ele>548.0</ele><time>2026-05-02T18:26:11.999Z</time></trkpt><trkpt lat="44.75936268377856" lon="9.941790729042939"><ele>548.0</ele><time>2026-05-02T18:26:12.999Z</time></trkpt><trkpt lat="44.759417520645144" lon="9.941675974571403"><ele>548.0</ele><time>2026-05-02T18:26:13.999Z</time></trkpt><trkpt lat="44.759473502457794" lon="9.941559053035002"><ele>548.0</ele><time>2026-05-02T18:26:14.999Z</time></trkpt><trkpt lat="44.75952993200032" lon="9.941440675768531"><ele>548.0</ele><time>2026-05-02T18:26:15.999Z</time></trkpt><trkpt lat="44.7595877621427" lon="9.941321691055116"><ele>546.4</ele><time>2026-05-02T18:26:16.999Z</time></trkpt><trkpt lat="44.759649746067254" lon="9.941201545060274"><ele>544.8</ele><time>2026-05-02T18:26:17.999Z</time></trkpt><trkpt lat="44.759714390609346" lon="9.941084702737507"><ele>543.2</ele><time>2026-05-02T18:26:18.999Z</time></trkpt><trkpt lat="44.759781850377664" lon="9.94097277210366"><ele>541.6</ele><time>2026-05-02T18:26:19.999Z</time></trkpt><trkpt lat="44.75985506192569" lon="9.940863574146585"><ele>540.0</ele><time>2026-05-02T18:26:20.999Z</time></trkpt><trkpt lat="44.75992894090634" lon="9.94075473488813"><ele>540.0</ele><time>2026-05-02T18:26:21.999Z</time></trkpt><trkpt lat="44.75999865859772" lon="9.940643859242558"><ele>540.0</ele><time>2026-05-02T18:26:22.999Z</time></trkpt><trkpt lat="44.76006238910382" lon="9.940538342998357"><ele>540.0</ele><time>2026-05-02T18:26:23.999Z</time></trkpt><trkpt lat="44.76012960214149" lon="9.940440018443967"><ele>540.0</ele><time>2026-05-02T18:26:24.999Z</time></trkpt><trkpt lat="44.76021082907206" lon="9.940366820757417"><ele>540.0</ele><time>2026-05-02T18:26:25.999Z</time></trkpt><trkpt lat="44.760300588527684" lon="9.940313842991548"><ele>537.2</ele><time>2026-05-02T18:26:26.999Z</time></trkpt><trkpt lat="44.760397473154846" lon="9.940280051846804"><ele>534.4</ele><time>2026-05-02T18:26:27.999Z</time></trkpt><trkpt lat="44.760494117489785" lon="9.940248579819563"><ele>531.6</ele><time>2026-05-02T18:26:28.999Z</time></trkpt><trkpt lat="44.760591030160526" lon="9.940210888078964"><ele>528.8</ele><time>2026-05-02T18:26:29.999Z</time></trkpt><trkpt lat="44.760687192411346" lon="9.94016520713629"><ele>526.0</ele><time>2026-05-02T18:26:30.999Z</time></trkpt><trkpt lat="44.760776149475156" lon="9.940119203888454"><ele>526.0</ele><time>2026-05-02T18:26:31.999Z</time></trkpt><trkpt lat="44.760857467821424" lon="9.940086009874314"><ele>526.0</ele><time>2026-05-02T18:26:32.999Z</time></trkpt><trkpt lat="44.76092705308165" lon="9.940087432276151"><ele>526.0</ele><time>2026-05-02T18:26:33.999Z</time></trkpt><trkpt lat="44.76100400667163" lon="9.940208150780565"><ele>526.0</ele><time>2026-05-02T18:26:35.999Z</time></trkpt><trkpt lat="44.760986920005706" lon="9.940308160283784"><ele>526.0</ele><time>2026-05-02T18:26:36.999Z</time></trkpt><trkpt lat="44.76093759457921" lon="9.940392824427596"><ele>526.0</ele><time>2026-05-02T18:26:37.999Z</time></trkpt><trkpt lat="44.760882819864534" lon="9.940465393955085"><ele>526.0</ele><time>2026-05-02T18:26:38.999Z</time></trkpt><trkpt lat="44.760825614301524" lon="9.940541577289908"><ele>526.0</ele><time>2026-05-02T18:26:39.999Z</time></trkpt><trkpt lat="44.76076928632762" lon="9.940622575368087"><ele>526.0</ele><time>2026-05-02T18:26:40.999Z</time></trkpt><trkpt lat="44.76071256574558" lon="9.94071014755461"><ele>526.0</ele><time>2026-05-02T18:26:41.999Z</time></trkpt><trkpt lat="44.76065542545249" lon="9.940801489301757"><ele>526.0</ele><time>2026-05-02T18:26:42.999Z</time></trkpt><trkpt lat="44.760597132408876" lon="9.94089878620649"><ele>526.0</ele><time>2026-05-02T18:26:43.999Z</time></trkpt><trkpt lat="44.76054529315697" lon="9.941007034796746"><ele>523.8</ele><time>2026-05-02T18:26:44.999Z</time></trkpt><trkpt lat="44.76050249281391" lon="9.94112932063294"><ele>521.6</ele><time>2026-05-02T18:26:45.999Z</time></trkpt><trkpt lat="44.7604648462424" lon="9.941258606281785"><ele>519.4</ele><time>2026-05-02T18:26:46.999Z</time></trkpt><trkpt lat="44.76043367433409" lon="9.941394022303191"><ele>517.2</ele><time>2026-05-02T18:26:47.999Z</time></trkpt><trkpt lat="44.76040396749643" lon="9.941532964065907"><ele>515.0</ele><time>2026-05-02T18:26:48.999Z</time></trkpt><trkpt lat="44.76037485522454" lon="9.941673955290712"><ele>514.6</ele><time>2026-05-02T18:26:49.999Z</time></trkpt><trkpt lat="44.76034985094393" lon="9.941817732783393"><ele>514.2</ele><time>2026-05-02T18:26:50.999Z</time></trkpt><trkpt lat="44.760324788090834" lon="9.941963966389757"><ele>513.8</ele><time>2026-05-02T18:26:51.999Z</time></trkpt><trkpt lat="44.760297424171725" lon="9.942112347480347"><ele>513.4</ele><time>2026-05-02T18:26:52.999Z</time></trkpt><trkpt lat="44.76027400392716" lon="9.94225874184395"><ele>513.0</ele><time>2026-05-02T18:26:53.999Z</time></trkpt><trkpt lat="44.760258974247144" lon="9.942401151123793"><ele>513.0</ele><time>2026-05-02T18:26:54.999Z</time></trkpt><trkpt lat="44.76025836775507" lon="9.94254083969378"><ele>513.0</ele><time>2026-05-02T18:26:55.999Z</time></trkpt><trkpt lat="44.760260749938716" lon="9.94268067981401"><ele>513.0</ele><time>2026-05-02T18:26:56.998Z</time></trkpt><trkpt lat="44.76033298675729" lon="9.942794755416418"><ele>513.0</ele><time>2026-05-02T18:26:57.998Z</time></trkpt><trkpt lat="44.760394485561925" lon="9.942901100181007"><ele>513.0</ele><time>2026-05-02T18:26:58.998Z</time></trkpt><trkpt lat="44.760458365140856" lon="9.943011071884214"><ele>513.4</ele><time>2026-05-02T18:26:59.998Z</time></trkpt><trkpt lat="44.76051057696791" lon="9.943133554933155"><ele>513.8</ele><time>2026-05-02T18:27:00.998Z</time></trkpt><trkpt lat="44.76054928468412" lon="9.94327009561189"><ele>514.2</ele><time>2026-05-02T18:27:02Z</time></trkpt><trkpt lat="44.7605782109377" lon="9.94340917916136"><ele>514.6</ele><time>2026-05-02T18:27:03Z</time></trkpt><trkpt lat="44.76060852095166" lon="9.943552784835372"><ele>515.0</ele><time>2026-05-02T18:27:04Z</time></trkpt><trkpt lat="44.76064370104816" lon="9.943694321171838"><ele>514.1666666666666</ele><time>2026-05-02T18:27:05Z</time></trkpt><trkpt lat="44.76067606457333" lon="9.943827806960085"><ele>513.3333333333333</ele><time>2026-05-02T18:27:06Z</time></trkpt><trkpt lat="44.76071800689286" lon="9.943949409244297"><ele>512.5</ele><time>2026-05-02T18:27:07Z</time></trkpt><trkpt lat="44.76077461855265" lon="9.944037141968499"><ele>511.66666666666663</ele><time>2026-05-02T18:27:08Z</time></trkpt><trkpt lat="44.76083937999689" lon="9.944078771399939"><ele>510.8333333333333</ele><time>2026-05-02T18:27:09Z</time></trkpt><trkpt lat="44.760905719433865" lon="9.944065628543525"><ele>510.0</ele><time>2026-05-02T18:27:10Z</time></trkpt><trkpt lat="44.7609591372337" lon="9.943995074121393"><ele>510.0</ele><time>2026-05-02T18:27:11Z</time></trkpt><trkpt lat="44.760989929491735" lon="9.943896732248652"><ele>510.0</ele><time>2026-05-02T18:27:12Z</time></trkpt><trkpt lat="44.76101292984422" lon="9.943796047043776"><ele>510.0</ele><time>2026-05-02T18:27:13Z</time></trkpt><trkpt lat="44.76103302856805" lon="9.94369472579812"><ele>510.0</ele><time>2026-05-02T18:27:14Z</time></trkpt><trkpt lat="44.761049352706635" lon="9.943589261477426"><ele>510.0</ele><time>2026-05-02T18:27:15Z</time></trkpt><trkpt lat="44.76106332713618" lon="9.943479693969724"><ele>510.0</ele><time>2026-05-02T18:27:16Z</time></trkpt><trkpt lat="44.76106089501142" lon="9.943366143980814"><ele>510.8333333333333</ele><time>2026-05-02T18:27:17Z</time></trkpt><trkpt lat="44.761041271462965" lon="9.943250994605158"><ele>511.66666666666663</ele><time>2026-05-02T18:27:18Z</time></trkpt><trkpt lat="44.76101153135344" lon="9.943138312978244"><ele>512.5</ele><time>2026-05-02T18:27:19Z</time></trkpt><trkpt lat="44.76098044678136" lon="9.94302402443966"><ele>513.3333333333333</ele><time>2026-05-02T18:27:20Z</time></trkpt><trkpt lat="44.76096325649905" lon="9.9428987880818"><ele>514.1666666666666</ele><time>2026-05-02T18:27:21Z</time></trkpt><trkpt lat="44.760957942124186" lon="9.942768157885626"><ele>515.0</ele><time>2026-05-02T18:27:22Z</time></trkpt><trkpt lat="44.76097675955242" lon="9.942647368000555"><ele>514.6</ele><time>2026-05-02T18:27:23Z</time></trkpt><trkpt lat="44.76102347868678" lon="9.942533654714959"><ele>514.2</ele><time>2026-05-02T18:27:24Z</time></trkpt><trkpt lat="44.761077648537494" lon="9.942421846315845"><ele>513.8</ele><time>2026-05-02T18:27:25Z</time></trkpt><trkpt lat="44.7611360156902" lon="9.942312174612896"><ele>513.4</ele><time>2026-05-02T18:27:26Z</time></trkpt><trkpt lat="44.7611974667104" lon="9.942200908785399"><ele>513.0</ele><time>2026-05-02T18:27:27Z</time></trkpt><trkpt lat="44.76125892393539" lon="9.94208817957743"><ele>510.79999999999995</ele><time>2026-05-02T18:27:28Z</time></trkpt><trkpt lat="44.76132204650696" lon="9.941978708994105"><ele>508.59999999999997</ele><time>2026-05-02T18:27:29Z</time></trkpt><trkpt lat="44.7613937349974" lon="9.941881260150337"><ele>506.40000000000003</ele><time>2026-05-02T18:27:30Z</time></trkpt><trkpt lat="44.761477304478966" lon="9.941798614533996"><ele>504.20000000000005</ele><time>2026-05-02T18:27:31Z</time></trkpt><trkpt lat="44.76156974695797" lon="9.941732215215621"><ele>502.0</ele><time>2026-05-02T18:27:32Z</time></trkpt><trkpt lat="44.76166875267162" lon="9.941689806458438"><ele>502.0</ele><time>2026-05-02T18:27:33Z</time></trkpt><trkpt lat="44.76177181461614" lon="9.941674667343628"><ele>502.00000000000006</ele><time>2026-05-02T18:27:34Z</time></trkpt><trkpt lat="44.761876258518335" lon="9.941682409338501"><ele>502.00000000000006</ele><time>2026-05-02T18:27:35Z</time></trkpt><trkpt lat="44.76198133734413" lon="9.941697647916548"><ele>502.0</ele><time>2026-05-02T18:27:36Z</time></trkpt><trkpt lat="44.7620861165307" lon="9.941690984403014"><ele>502.0</ele><time>2026-05-02T18:27:37Z</time></trkpt><trkpt lat="44.76218324557641" lon="9.94163978914219"><ele>499.8</ele><time>2026-05-02T18:27:38Z</time></trkpt><trkpt lat="44.76226863978838" lon="9.94154879912928"><ele>497.6</ele><time>2026-05-02T18:27:39Z</time></trkpt><trkpt lat="44.762342055994615" lon="9.941433653697942"><ele>495.40000000000003</ele><time>2026-05-02T18:27:40Z</time></trkpt><trkpt lat="44.76241154700647" lon="9.941313009934374"><ele>493.20000000000005</ele><time>2026-05-02T18:27:41Z</time></trkpt><trkpt lat="44.76247294915348" lon="9.941198864739144"><ele>491.0</ele><time>2026-05-02T18:27:42Z</time></trkpt><trkpt lat="44.762535846635075" lon="9.941103626380109"><ele>491.0</ele><time>2026-05-02T18:27:43Z</time></trkpt><trkpt lat="44.76261744483961" lon="9.941044501248989"><ele>491.0</ele><time>2026-05-02T18:27:44Z</time></trkpt><trkpt lat="44.76271291943867" lon="9.941038229054904"><ele>491.0</ele><time>2026-05-02T18:27:45Z</time></trkpt><trkpt lat="44.76280518581886" lon="9.941079208504087"><ele>491.0</ele><time>2026-05-02T18:27:46Z</time></trkpt><trkpt lat="44.76289464733404" lon="9.941135091765434"><ele>491.0</ele><time>2026-05-02T18:27:47Z</time></trkpt><trkpt lat="44.7629860625583" lon="9.941184806889854"><ele>488.4</ele><time>2026-05-02T18:27:48Z</time></trkpt><trkpt lat="44.76308393195128" lon="9.941203932455148"><ele>485.8</ele><time>2026-05-02T18:27:49Z</time></trkpt><trkpt lat="44.76318466944115" lon="9.941192138388505"><ele>483.19999999999993</ele><time>2026-05-02T18:27:50Z</time></trkpt><trkpt lat="44.76328286726545" lon="9.941146925024665"><ele>480.59999999999997</ele><time>2026-05-02T18:27:51Z</time></trkpt><trkpt lat="44.76337729932381" lon="9.941079466572427"><ele>478.0</ele><time>2026-05-02T18:27:52Z</time></trkpt><trkpt lat="44.76347247676345" lon="9.941013332589945"><ele>476.59999999999997</ele><time>2026-05-02T18:27:53Z</time></trkpt><trkpt lat="44.76357001673856" lon="9.940947481344347"><ele>475.19999999999993</ele><time>2026-05-02T18:27:54Z</time></trkpt><trkpt lat="44.76365599144507" lon="9.940863781796757"><ele>473.8</ele><time>2026-05-02T18:27:55Z</time></trkpt><trkpt lat="44.76372318995702" lon="9.940762322927728"><ele>472.4</ele><time>2026-05-02T18:27:56Z</time></trkpt><trkpt lat="44.76377195957639" lon="9.940654169662201"><ele>471.0</ele><time>2026-05-02T18:27:57Z</time></trkpt><trkpt lat="44.76380652902995" lon="9.940564562786847"><ele>471.0</ele><time>2026-05-02T18:27:58Z</time></trkpt><trkpt lat="44.763890597343625" lon="9.94047152831681"><ele>471.0</ele><time>2026-05-02T18:28:00Z</time></trkpt><trkpt lat="44.76396784736141" lon="9.94059136895638"><ele>471.0</ele><time>2026-05-02T18:28:01.999Z</time></trkpt><trkpt lat="44.763949437684595" lon="9.940693077867957"><ele>471.0</ele><time>2026-05-02T18:28:02.999Z</time></trkpt><trkpt lat="44.76391172658174" lon="9.940786027224267"><ele>471.0</ele><time>2026-05-02T18:28:03.999Z</time></trkpt><trkpt lat="44.76387420905739" lon="9.940881486535254"><ele>469.3333333333333</ele><time>2026-05-02T18:28:04.999Z</time></trkpt><trkpt lat="44.76382691561" lon="9.940974664469895"><ele>467.66666666666663</ele><time>2026-05-02T18:28:05.999Z</time></trkpt><trkpt lat="44.76377403509812" lon="9.941067643297696"><ele>466.0</ele><time>2026-05-02T18:28:06.999Z</time></trkpt><trkpt lat="44.763718819062625" lon="9.94116589530098"><ele>464.3333333333333</ele><time>2026-05-02T18:28:07.999Z</time></trkpt><trkpt lat="44.76366321144388" lon="9.94127195509499"><ele>462.66666666666663</ele><time>2026-05-02T18:28:08.999Z</time></trkpt><trkpt lat="44.76360694164012" lon="9.941383740134567"><ele>461.0</ele><time>2026-05-02T18:28:09.999Z</time></trkpt><trkpt lat="44.76354817990826" lon="9.941499354777651"><ele>462.0</ele><time>2026-05-02T18:28:10.999Z</time></trkpt><trkpt lat="44.76349061971518" lon="9.9416195278278"><ele>463.0</ele><time>2026-05-02T18:28:11.999Z</time></trkpt><trkpt lat="44.76342842646483" lon="9.941741687574691"><ele>464.0</ele><time>2026-05-02T18:28:12.999Z</time></trkpt><trkpt lat="44.763362616957735" lon="9.941866137240197"><ele>465.0</ele><time>2026-05-02T18:28:13.999Z</time></trkpt><trkpt lat="44.763298849240655" lon="9.941992516329309"><ele>466.0</ele><time>2026-05-02T18:28:14.999Z</time></trkpt><trkpt lat="44.763237526950725" lon="9.94212109882431"><ele>466.0</ele><time>2026-05-02T18:28:15.999Z</time></trkpt><trkpt lat="44.76318382967811" lon="9.942255813020667"><ele>466.0</ele><time>2026-05-02T18:28:16.999Z</time></trkpt><trkpt lat="44.76313852492919" lon="9.942383038343525"><ele>466.0</ele><time>2026-05-02T18:28:17.999Z</time></trkpt><trkpt lat="44.76310263416667" lon="9.94250303442993"><ele>466.0</ele><time>2026-05-02T18:28:18.999Z</time></trkpt><trkpt lat="44.763090899765274" lon="9.942612498237825"><ele>466.0</ele><time>2026-05-02T18:28:19.999Z</time></trkpt><trkpt lat="44.76311747709137" lon="9.942711850517853"><ele>465.6</ele><time>2026-05-02T18:28:20.999Z</time></trkpt><trkpt lat="44.76318223419983" lon="9.942778144385054"><ele>465.20000000000005</ele><time>2026-05-02T18:28:21.999Z</time></trkpt><trkpt lat="44.76327250097967" lon="9.942797606176532"><ele>464.79999999999995</ele><time>2026-05-02T18:28:22.999Z</time></trkpt><trkpt lat="44.76336348997577" lon="9.942775410255468"><ele>464.4</ele><time>2026-05-02T18:28:23.999Z</time></trkpt><trkpt lat="44.763451464443605" lon="9.942738733050739"><ele>464.0</ele><time>2026-05-02T18:28:24.999Z</time></trkpt><trkpt lat="44.76354352773671" lon="9.94269539697947"><ele>462.2</ele><time>2026-05-02T18:28:25.999Z</time></trkpt><trkpt lat="44.763641143042584" lon="9.942645096616529"><ele>460.4</ele><time>2026-05-02T18:28:26.999Z</time></trkpt><trkpt lat="44.7637369677587" lon="9.942575426899916"><ele>458.6</ele><time>2026-05-02T18:28:27.999Z</time></trkpt><trkpt lat="44.76382911431088" lon="9.942485355591156"><ele>456.8</ele><time>2026-05-02T18:28:28.999Z</time></trkpt><trkpt lat="44.76391944031279" lon="9.9423893934117"><ele>455.0</ele><time>2026-05-02T18:28:29.999Z</time></trkpt><trkpt lat="44.76400981202154" lon="9.942294459163058"><ele>455.0</ele><time>2026-05-02T18:28:30.999Z</time></trkpt><trkpt lat="44.76410519160429" lon="9.942203595486468"><ele>455.0</ele><time>2026-05-02T18:28:31.999Z</time></trkpt><trkpt lat="44.764205717688284" lon="9.942120207433346"><ele>455.0</ele><time>2026-05-02T18:28:32.999Z</time></trkpt><trkpt lat="44.7643090784034" lon="9.942039378415492"><ele>455.0</ele><time>2026-05-02T18:28:33.999Z</time></trkpt><trkpt lat="44.76441372142281" lon="9.941956565791763"><ele>452.25</ele><time>2026-05-02T18:28:34.999Z</time></trkpt><trkpt lat="44.76452143616762" lon="9.941873059413238"><ele>449.5</ele><time>2026-05-02T18:28:35.999Z</time></trkpt><trkpt lat="44.76463354415355" lon="9.941788005024229"><ele>446.75</ele><time>2026-05-02T18:28:36.999Z</time></trkpt><trkpt lat="44.7647477643413" lon="9.941697361623842"><ele>444.0</ele><time>2026-05-02T18:28:37.999Z</time></trkpt><trkpt lat="44.76486512606872" lon="9.94160838128937"><ele>444.0</ele><time>2026-05-02T18:28:38.999Z</time></trkpt><trkpt lat="44.764983065005445" lon="9.941522299003141"><ele>444.0</ele><time>2026-05-02T18:28:39.999Z</time></trkpt><trkpt lat="44.76509955238121" lon="9.941430078527562"><ele>444.0</ele><time>2026-05-02T18:28:40.999Z</time></trkpt><trkpt lat="44.76521583177501" lon="9.941335685447445"><ele>444.0</ele><time>2026-05-02T18:28:41.999Z</time></trkpt><trkpt lat="44.7653331504848" lon="9.941248337645744"><ele>441.0</ele><time>2026-05-02T18:28:42.999Z</time></trkpt><trkpt lat="44.76545202282577" lon="9.941164648858642"><ele>438.0</ele><time>2026-05-02T18:28:43.999Z</time></trkpt><trkpt lat="44.76556875274454" lon="9.941080948672381"><ele>435.0</ele><time>2026-05-02T18:28:44.999Z</time></trkpt><trkpt lat="44.76568432024135" lon="9.94099737239394"><ele>432.0</ele><time>2026-05-02T18:28:45.999Z</time></trkpt><trkpt lat="44.76580509410777" lon="9.940931506261727"><ele>432.0</ele><time>2026-05-02T18:28:46.999Z</time></trkpt><trkpt lat="44.765928766566866" lon="9.94088072699188"><ele>432.0</ele><time>2026-05-02T18:28:47.999Z</time></trkpt><trkpt lat="44.76605514084391" lon="9.940833932274888"><ele>432.0</ele><time>2026-05-02T18:28:48.999Z</time></trkpt><trkpt lat="44.76618107054553" lon="9.940786652816536"><ele>432.0</ele><time>2026-05-02T18:28:49.999Z</time></trkpt><trkpt lat="44.766307413930846" lon="9.940731227532396"><ele>432.0</ele><time>2026-05-02T18:28:50.999Z</time></trkpt><trkpt lat="44.7664338221108" lon="9.94067460049578"><ele>432.0</ele><time>2026-05-02T18:28:51.999Z</time></trkpt><trkpt lat="44.76656195456673" lon="9.940623703058893"><ele>432.0</ele><time>2026-05-02T18:28:52.999Z</time></trkpt><trkpt lat="44.76669220876972" lon="9.940580134020873"><ele>432.0</ele><time>2026-05-02T18:28:53.999Z</time></trkpt><trkpt lat="44.76682345410735" lon="9.940542793670735"><ele>431.25</ele><time>2026-05-02T18:28:54.999Z</time></trkpt><trkpt lat="44.76695754564635" lon="9.940515329821903"><ele>430.5</ele><time>2026-05-02T18:28:55.999Z</time></trkpt><trkpt lat="44.76709131820606" lon="9.940484847729063"><ele>429.75</ele><time>2026-05-02T18:28:56.999Z</time></trkpt><trkpt lat="44.767225498182775" lon="9.940452425145672"><ele>429.0</ele><time>2026-05-02T18:28:57.999Z</time></trkpt><trkpt lat="44.76735850218992" lon="9.940421383492684"><ele>429.0</ele><time>2026-05-02T18:28:58.999Z</time></trkpt><trkpt lat="44.767492902604204" lon="9.940387646668867"><ele>429.0</ele><time>2026-05-02T18:28:59.999Z</time></trkpt><trkpt lat="44.76762474542262" lon="9.9403591139808"><ele>429.0</ele><time>2026-05-02T18:29:00.998Z</time></trkpt><trkpt lat="44.76775146214087" lon="9.940349437441393"><ele>429.0</ele><time>2026-05-02T18:29:01.998Z</time></trkpt><trkpt lat="44.767873816765245" lon="9.940361172212578"><ele>428.2</ele><time>2026-05-02T18:29:02.998Z</time></trkpt><trkpt lat="44.767987487857575" lon="9.940393325803626"><ele>427.4</ele><time>2026-05-02T18:29:03.998Z</time></trkpt><trkpt lat="44.7680968908176" lon="9.940439702558166"><ele>426.6</ele><time>2026-05-02T18:29:04.998Z</time></trkpt><trkpt lat="44.768199310999" lon="9.940505522906802"><ele>425.8</ele><time>2026-05-02T18:29:05.998Z</time></trkpt><trkpt lat="44.76829050819658" lon="9.940582167689202"><ele>425.0</ele><time>2026-05-02T18:29:06.998Z</time></trkpt><trkpt lat="44.768372685096004" lon="9.940681802963043"><ele>425.0</ele><time>2026-05-02T18:29:08Z</time></trkpt><trkpt lat="44.7684421596352" lon="9.940799977248764"><ele>425.0</ele><time>2026-05-02T18:29:09Z</time></trkpt><trkpt lat="44.768491866866164" lon="9.940933872760132"><ele>425.0</ele><time>2026-05-02T18:29:10Z</time></trkpt><trkpt lat="44.76852700504029" lon="9.941076006528837"><ele>425.0</ele><time>2026-05-02T18:29:11Z</time></trkpt><trkpt lat="44.76856419570962" lon="9.941220676498887"><ele>425.0</ele><time>2026-05-02T18:29:12Z</time></trkpt><trkpt lat="44.76860402656552" lon="9.941365283898776"><ele>423.0</ele><time>2026-05-02T18:29:13Z</time></trkpt><trkpt lat="44.76867202598987" lon="9.941486696786836"><ele>421.0</ele><time>2026-05-02T18:29:14Z</time></trkpt><trkpt lat="44.7687605788939" lon="9.941574990912923"><ele>419.0</ele><time>2026-05-02T18:29:15Z</time></trkpt><trkpt lat="44.76886280928486" lon="9.941641955852695"><ele>417.0</ele><time>2026-05-02T18:29:16Z</time></trkpt><trkpt lat="44.76896912002779" lon="9.941698049224243"><ele>415.0</ele><time>2026-05-02T18:29:17Z</time></trkpt><trkpt lat="44.76908060561382" lon="9.941744909624594"><ele>414.0</ele><time>2026-05-02T18:29:18Z</time></trkpt><trkpt lat="44.769194640606216" lon="9.941780998410847"><ele>413.0</ele><time>2026-05-02T18:29:19Z</time></trkpt><trkpt lat="44.76931011609463" lon="9.941798193814181"><ele>412.0</ele><time>2026-05-02T18:29:20Z</time></trkpt><trkpt lat="44.76942242961772" lon="9.9417857607301"><ele>411.0</ele><time>2026-05-02T18:29:21Z</time></trkpt><trkpt lat="44.76953006737172" lon="9.94174573071076"><ele>411.25</ele><time>2026-05-02T18:29:22Z</time></trkpt><trkpt lat="44.769631476797365" lon="9.941681595976235"><ele>411.5</ele><time>2026-05-02T18:29:23Z</time></trkpt><trkpt lat="44.76972632580503" lon="9.941598333668674"><ele>411.75</ele><time>2026-05-02T18:29:24Z</time></trkpt><trkpt lat="44.76981508464577" lon="9.941498253877613"><ele>412.0</ele><time>2026-05-02T18:29:25Z</time></trkpt><trkpt lat="44.76989562319447" lon="9.941381394508593"><ele>412.0</ele><time>2026-05-02T18:29:26Z</time></trkpt><trkpt lat="44.769962508004575" lon="9.941248688389027"><ele>412.0</ele><time>2026-05-02T18:29:27Z</time></trkpt><trkpt lat="44.77002033774921" lon="9.941109852433275"><ele>412.0</ele><time>2026-05-02T18:29:28Z</time></trkpt><trkpt lat="44.770077577430094" lon="9.94097307679257"><ele>412.0</ele><time>2026-05-02T18:29:29Z</time></trkpt><trkpt lat="44.77012896159231" lon="9.94083517047932"><ele>411.0</ele><time>2026-05-02T18:29:30Z</time></trkpt><trkpt lat="44.77017420571645" lon="9.94069699428126"><ele>410.0</ele><time>2026-05-02T18:29:31Z</time></trkpt><trkpt lat="44.77022895507261" lon="9.94057400530311"><ele>409.0</ele><time>2026-05-02T18:29:32Z</time></trkpt><trkpt lat="44.77030104293681" lon="9.94047661416386"><ele>408.0</ele><time>2026-05-02T18:29:33Z</time></trkpt><trkpt lat="44.770389596198356" lon="9.940408624056701"><ele>407.0</ele><time>2026-05-02T18:29:34Z</time></trkpt><trkpt lat="44.77049382698932" lon="9.940371434589068"><ele>403.5</ele><time>2026-05-02T18:29:35Z</time></trkpt><trkpt lat="44.770598273243095" lon="9.94033647226087"><ele>400.0</ele><time>2026-05-02T18:29:36Z</time></trkpt><trkpt lat="44.77070388995408" lon="9.940282316394725"><ele>396.5</ele><time>2026-05-02T18:29:37Z</time></trkpt><trkpt lat="44.77080674468457" lon="9.940211653631494"><ele>393.0</ele><time>2026-05-02T18:29:38Z</time></trkpt><trkpt lat="44.77090437989453" lon="9.940122985129598"><ele>393.5</ele><time>2026-05-02T18:29:39Z</time></trkpt><trkpt lat="44.77100458565253" lon="9.94003787086986"><ele>394.0</ele><time>2026-05-02T18:29:40Z</time></trkpt><trkpt lat="44.77110949782729" lon="9.939961535968617"><ele>394.5</ele><time>2026-05-02T18:29:41Z</time></trkpt><trkpt lat="44.771214011163764" lon="9.939897794786967"><ele>395.0</ele><time>2026-05-02T18:29:42Z</time></trkpt><trkpt lat="44.77131451149145" lon="9.939842431908428"><ele>391.6</ele><time>2026-05-02T18:29:43Z</time></trkpt><trkpt lat="44.77141436556105" lon="9.939794072873738"><ele>388.2</ele><time>2026-05-02T18:29:44Z</time></trkpt><trkpt lat="44.77150463211604" lon="9.939748156685297"><ele>384.79999999999995</ele><time>2026-05-02T18:29:45Z</time></trkpt><trkpt lat="44.771586184836956" lon="9.939696022685474"><ele>381.4</ele><time>2026-05-02T18:29:46Z</time></trkpt><trkpt lat="44.77165400869776" lon="9.939624601061563"><ele>378.0</ele><time>2026-05-02T18:29:47Z</time></trkpt><trkpt lat="44.77171044214937" lon="9.93953479992024"><ele>378.0</ele><time>2026-05-02T18:29:48Z</time></trkpt><trkpt lat="44.771753787367714" lon="9.939429133199136"><ele>378.0</ele><time>2026-05-02T18:29:49Z</time></trkpt><trkpt lat="44.771778107063646" lon="9.93930552648379"><ele>378.0</ele><time>2026-05-02T18:29:50Z</time></trkpt><trkpt lat="44.77178791716616" lon="9.939173860240219"><ele>378.0</ele><time>2026-05-02T18:29:51Z</time></trkpt><trkpt lat="44.77177993381865" lon="9.939044513843843"><ele>378.0</ele><time>2026-05-02T18:29:52Z</time></trkpt><trkpt lat="44.77175548858062" lon="9.938927433781618"><ele>380.1666666666667</ele><time>2026-05-02T18:29:53Z</time></trkpt><trkpt lat="44.77171720393803" lon="9.938822022281304"><ele>382.33333333333337</ele><time>2026-05-02T18:29:54Z</time></trkpt><trkpt lat="44.77166160710024" lon="9.938735157564997"><ele>384.5</ele><time>2026-05-02T18:29:55Z</time></trkpt><trkpt lat="44.77159246386177" lon="9.938658273411056"><ele>386.6666666666667</ele><time>2026-05-02T18:29:56Z</time></trkpt><trkpt lat="44.77152858904725" lon="9.938578345916428"><ele>388.83333333333337</ele><time>2026-05-02T18:29:57Z</time></trkpt><trkpt lat="44.77144630002568" lon="9.938532548209547"><ele>391.0</ele><time>2026-05-02T18:29:58Z</time></trkpt><trkpt lat="44.77135003127355" lon="9.938531190716148"><ele>391.0</ele><time>2026-05-02T18:29:59Z</time></trkpt><trkpt lat="44.77126118046137" lon="9.938579699746159"><ele>391.0</ele><time>2026-05-02T18:30:00Z</time></trkpt><trkpt lat="44.771172043420705" lon="9.938614450432825"><ele>391.0</ele><time>2026-05-02T18:30:01Z</time></trkpt><trkpt lat="44.771083303172546" lon="9.93864677098732"><ele>391.0</ele><time>2026-05-02T18:30:02Z</time></trkpt><trkpt lat="44.77099510271149" lon="9.93867127915511"><ele>391.0</ele><time>2026-05-02T18:30:03Z</time></trkpt><trkpt lat="44.77091296452437" lon="9.938687850388565"><ele>390.83333333333337</ele><time>2026-05-02T18:30:04Z</time></trkpt><trkpt lat="44.770838238585284" lon="9.93867017806942"><ele>390.6666666666667</ele><time>2026-05-02T18:30:05Z</time></trkpt><trkpt lat="44.770770721657634" lon="9.938642465144682"><ele>390.5</ele><time>2026-05-02T18:30:06Z</time></trkpt><trkpt lat="44.770691818851766" lon="9.938613548727728"><ele>390.33333333333337</ele><time>2026-05-02T18:30:07Z</time></trkpt><trkpt lat="44.77062136666856" lon="9.93854176530609"><ele>390.1666666666667</ele><time>2026-05-02T18:30:08Z</time></trkpt><trkpt lat="44.770545734192304" lon="9.938466078111894"><ele>390.0</ele><time>2026-05-02T18:30:08.999Z</time></trkpt><trkpt lat="44.770466227994014" lon="9.938391963872503"><ele>387.8</ele><time>2026-05-02T18:30:09.999Z</time></trkpt><trkpt lat="44.77038646382779" lon="9.938314467534381"><ele>385.6</ele><time>2026-05-02T18:30:10.999Z</time></trkpt><trkpt lat="44.7703030441195" lon="9.93824023001792"><ele>383.4</ele><time>2026-05-02T18:30:11.999Z</time></trkpt><trkpt lat="44.770227737070144" lon="9.938162367472039"><ele>381.2</ele><time>2026-05-02T18:30:12.999Z</time></trkpt><trkpt lat="44.770173708791596" lon="9.938074454877828"><ele>379.0</ele><time>2026-05-02T18:30:13.999Z</time></trkpt><trkpt lat="44.77014102730465" lon="9.937968649757357"><ele>379.0</ele><time>2026-05-02T18:30:14.999Z</time></trkpt><trkpt lat="44.770139767861394" lon="9.937857219995006"><ele>379.0</ele><time>2026-05-02T18:30:15.999Z</time></trkpt><trkpt lat="44.77017037053042" lon="9.93775419586641"><ele>379.0</ele><time>2026-05-02T18:30:16.999Z</time></trkpt><trkpt lat="44.770221211612615" lon="9.937669953767978"><ele>379.0</ele><time>2026-05-02T18:30:17.999Z</time></trkpt><trkpt lat="44.77029212219089" lon="9.937623481857027"><ele>379.0</ele><time>2026-05-02T18:30:18.999Z</time></trkpt><trkpt lat="44.77036969238212" lon="9.93761536542066"><ele>379.0</ele><time>2026-05-02T18:30:19.999Z</time></trkpt><trkpt lat="44.77044353833652" lon="9.937640784087485"><ele>379.0</ele><time>2026-05-02T18:30:20.999Z</time></trkpt><trkpt lat="44.77050554168735" lon="9.93770082537469"><ele>379.0</ele><time>2026-05-02T18:30:21.999Z</time></trkpt><trkpt lat="44.77054966716817" lon="9.937794641488134"><ele>379.0</ele><time>2026-05-02T18:30:22.999Z</time></trkpt><trkpt lat="44.77058766897986" lon="9.937890561870741"><ele>379.0</ele><time>2026-05-02T18:30:23.999Z</time></trkpt><trkpt lat="44.77063650973881" lon="9.937981287178328"><ele>379.0</ele><time>2026-05-02T18:30:24.999Z</time></trkpt><trkpt lat="44.77070804074193" lon="9.938048562104337"><ele>379.0</ele><time>2026-05-02T18:30:25.999Z</time></trkpt><trkpt lat="44.77079717104183" lon="9.938075279831676"><ele>379.0</ele><time>2026-05-02T18:30:26.999Z</time></trkpt><trkpt lat="44.77088711244996" lon="9.938050017646063"><ele>379.0</ele><time>2026-05-02T18:30:27.999Z</time></trkpt><trkpt lat="44.77096007901185" lon="9.937981311539929"><ele>379.0</ele><time>2026-05-02T18:30:28.999Z</time></trkpt><trkpt lat="44.77102110553925" lon="9.937892901297364"><ele>379.0</ele><time>2026-05-02T18:30:29.999Z</time></trkpt><trkpt lat="44.7710820015801" lon="9.937800787116155"><ele>379.0</ele><time>2026-05-02T18:30:30.999Z</time></trkpt><trkpt lat="44.77115146920438" lon="9.937716090312135"><ele>379.0</ele><time>2026-05-02T18:30:31.999Z</time></trkpt><trkpt lat="44.77123386138785" lon="9.937651446804686"><ele>378.8333333333333</ele><time>2026-05-02T18:30:32.999Z</time></trkpt><trkpt lat="44.77132581133199" lon="9.937622900178427"><ele>378.66666666666663</ele><time>2026-05-02T18:30:33.999Z</time></trkpt><trkpt lat="44.77141710028601" lon="9.937632185942473"><ele>378.5</ele><time>2026-05-02T18:30:34.999Z</time></trkpt><trkpt lat="44.7715022135607" lon="9.93766925123045"><ele>378.3333333333333</ele><time>2026-05-02T18:30:35.999Z</time></trkpt><trkpt lat="44.77157417242393" lon="9.937708680506361"><ele>378.1666666666667</ele><time>2026-05-02T18:30:36.999Z</time></trkpt><trkpt lat="44.771638308279165" lon="9.937713688110458"><ele>378.0</ele><time>2026-05-02T18:30:37.999Z</time></trkpt><trkpt lat="44.77171922468287" lon="9.937607686301408"><ele>375.42857142857144</ele><time>2026-05-02T18:30:39.999Z</time></trkpt><trkpt lat="44.77169130951538" lon="9.937494517392572"><ele>372.8571428571429</ele><time>2026-05-02T18:30:40.999Z</time></trkpt><trkpt lat="44.771617759426356" lon="9.937437496688858"><ele>370.2857142857143</ele><time>2026-05-02T18:30:41.999Z</time></trkpt><trkpt lat="44.771543204643514" lon="9.937419454303754"><ele>367.7142857142857</ele><time>2026-05-02T18:30:42.999Z</time></trkpt><trkpt lat="44.77148011921752" lon="9.937403178885246"><ele>365.14285714285717</ele><time>2026-05-02T18:30:43.999Z</time></trkpt><trkpt lat="44.77141535743114" lon="9.937386786041976"><ele>362.57142857142856</ele><time>2026-05-02T18:30:44.999Z</time></trkpt><trkpt lat="44.77134629247807" lon="9.937368064656106"><ele>360.0</ele><time>2026-05-02T18:30:45.999Z</time></trkpt><trkpt lat="44.771274480376135" lon="9.937348598571644"><ele>360.0</ele><time>2026-05-02T18:30:46.999Z</time></trkpt><trkpt lat="44.77120404999394" lon="9.93732700046189"><ele>360.0</ele><time>2026-05-02T18:30:47.999Z</time></trkpt><trkpt lat="44.77114176081011" lon="9.937299201199579"><ele>360.0</ele><time>2026-05-02T18:30:48.999Z</time></trkpt><trkpt lat="44.77109972058683" lon="9.937173395314149"><ele>360.0</ele><time>2026-05-02T18:30:50.999Z</time></trkpt><trkpt lat="44.771152585596624" lon="9.937102313278855"><ele>360.0</ele><time>2026-05-02T18:30:51.999Z</time></trkpt><trkpt lat="44.77123408307177" lon="9.937094960709402"><ele>360.0</ele><time>2026-05-02T18:30:52.999Z</time></trkpt><trkpt lat="44.77131497871235" lon="9.937123762210232"><ele>360.0</ele><time>2026-05-02T18:30:53.999Z</time></trkpt><trkpt lat="44.7713910138486" lon="9.937160203797543"><ele>360.0</ele><time>2026-05-02T18:30:54.999Z</time></trkpt><trkpt lat="44.77147036598905" lon="9.937197992145721"><ele>360.0</ele><time>2026-05-02T18:30:55.999Z</time></trkpt><trkpt lat="44.771555574646385" lon="9.937228538241381"><ele>360.0</ele><time>2026-05-02T18:30:56.999Z</time></trkpt><trkpt lat="44.77164700113056" lon="9.937251367823619"><ele>360.0</ele><time>2026-05-02T18:30:57.999Z</time></trkpt><trkpt lat="44.77174321181136" lon="9.93727606304899"><ele>360.0</ele><time>2026-05-02T18:30:58.999Z</time></trkpt><trkpt lat="44.77184255686968" lon="9.937304269905201"><ele>358.2</ele><time>2026-05-02T18:30:59.999Z</time></trkpt><trkpt lat="44.77194396045739" lon="9.937340504925992"><ele>356.4</ele><time>2026-05-02T18:31:00.999Z</time></trkpt><trkpt lat="44.772044380933835" lon="9.937372863160352"><ele>354.6</ele><time>2026-05-02T18:31:01.999Z</time></trkpt><trkpt lat="44.77214315028437" lon="9.937400970960121"><ele>352.8</ele><time>2026-05-02T18:31:02.999Z</time></trkpt><trkpt lat="44.772241162267576" lon="9.93742926405336"><ele>351.0</ele><time>2026-05-02T18:31:03.999Z</time></trkpt><trkpt lat="44.77233754964537" lon="9.937466356979435"><ele>351.0</ele><time>2026-05-02T18:31:04.999Z</time></trkpt><trkpt lat="44.77243005429215" lon="9.937509551720249"><ele>351.0</ele><time>2026-05-02T18:31:05.999Z</time></trkpt><trkpt lat="44.772523050081304" lon="9.937555634292837"><ele>351.0</ele><time>2026-05-02T18:31:06.998Z</time></trkpt><trkpt lat="44.77261090385058" lon="9.937601803110805"><ele>351.0</ele><time>2026-05-02T18:31:07.998Z</time></trkpt><trkpt lat="44.772693392490694" lon="9.937640552641453"><ele>351.0</ele><time>2026-05-02T18:31:08.998Z</time></trkpt><trkpt lat="44.772765534537044" lon="9.9376583045749"><ele>351.0</ele><time>2026-05-02T18:31:09.998Z</time></trkpt><trkpt lat="44.772864953001225" lon="9.937565043636281"><ele>351.0</ele><time>2026-05-02T18:31:11.998Z</time></trkpt><trkpt lat="44.772865035943255" lon="9.937472738403901"><ele>351.0</ele><time>2026-05-02T18:31:13Z</time></trkpt><trkpt lat="44.77281830967039" lon="9.937392745923315"><ele>351.0</ele><time>2026-05-02T18:31:14Z</time></trkpt><trkpt lat="44.77275205532361" lon="9.937347834314286"><ele>351.0</ele><time>2026-05-02T18:31:15Z</time></trkpt><trkpt lat="44.77269324165336" lon="9.937306029180501"><ele>351.0</ele><time>2026-05-02T18:31:16Z</time></trkpt><trkpt lat="44.77263404944744" lon="9.937257241107233"><ele>351.0</ele><time>2026-05-02T18:31:17Z</time></trkpt><trkpt lat="44.77257761474486" lon="9.93720451867483"><ele>351.0</ele><time>2026-05-02T18:31:18Z</time></trkpt><trkpt lat="44.77253448141961" lon="9.937058005135253"><ele>351.0</ele><time>2026-05-02T18:31:20Z</time></trkpt><trkpt lat="44.77262732918146" lon="9.93695130767602"><ele>351.0</ele><time>2026-05-02T18:31:22Z</time></trkpt><trkpt lat="44.77269587360041" lon="9.93697530207742"><ele>351.0</ele><time>2026-05-02T18:31:23Z</time></trkpt><trkpt lat="44.772761725955746" lon="9.937022714762234"><ele>351.0</ele><time>2026-05-02T18:31:24Z</time></trkpt><trkpt lat="44.77283015667018" lon="9.937063576236556"><ele>348.0</ele><time>2026-05-02T18:31:25Z</time></trkpt><trkpt lat="44.772907784662756" lon="9.937104562173234"><ele>345.0</ele><time>2026-05-02T18:31:26Z</time></trkpt><trkpt lat="44.772989135900175" lon="9.93715316533083"><ele>342.0</ele><time>2026-05-02T18:31:27Z</time></trkpt><trkpt lat="44.77307413381215" lon="9.937205435118024"><ele>339.0</ele><time>2026-05-02T18:31:28Z</time></trkpt><trkpt lat="44.77316033082429" lon="9.937263160989886"><ele>336.0</ele><time>2026-05-02T18:31:29Z</time></trkpt><trkpt lat="44.773249445636935" lon="9.937321517460443"><ele>336.0</ele><time>2026-05-02T18:31:30Z</time></trkpt><trkpt lat="44.77334108513902" lon="9.937377757309916"><ele>336.0</ele><time>2026-05-02T18:31:31Z</time></trkpt><trkpt lat="44.773432584595945" lon="9.937428923202926"><ele>336.0</ele><time>2026-05-02T18:31:32Z</time></trkpt><trkpt lat="44.77351803022957" lon="9.937479199215232"><ele>336.0</ele><time>2026-05-02T18:31:33Z</time></trkpt><trkpt lat="44.773595956631794" lon="9.937526575981602"><ele>336.0</ele><time>2026-05-02T18:31:34Z</time></trkpt><trkpt lat="44.773662689324574" lon="9.937566909830831"><ele>336.0</ele><time>2026-05-02T18:31:35Z</time></trkpt><trkpt lat="44.77375346892991" lon="9.937654090686715"><ele>336.0</ele><time>2026-05-02T18:31:37Z</time></trkpt><trkpt lat="44.77381798499527" lon="9.937642103963396"><ele>336.0</ele><time>2026-05-02T18:31:43Z</time></trkpt><trkpt lat="44.77373207161019" lon="9.937580840683308"><ele>336.0</ele><time>2026-05-02T18:31:44Z</time></trkpt><trkpt lat="44.77366354830491" lon="9.937501529950543"><ele>336.0</ele><time>2026-05-02T18:31:47Z</time></trkpt><trkpt lat="44.773597859330124" lon="9.937468057078094"><ele>336.0</ele><time>2026-05-02T18:31:49Z</time></trkpt><trkpt lat="44.77353558098532" lon="9.937432873376629"><ele>336.0</ele><time>2026-05-02T18:31:51Z</time></trkpt><trkpt lat="44.77346807429744" lon="9.937401936836812"><ele>336.0</ele><time>2026-05-02T18:31:53Z</time></trkpt><trkpt lat="44.7734028452343" lon="9.937372015935388"><ele>336.0</ele><time>2026-05-02T18:31:55Z</time></trkpt><trkpt lat="44.77334220146522" lon="9.937347893154797"><ele>336.0</ele><time>2026-05-02T18:31:57Z</time></trkpt><trkpt lat="44.773262129985255" lon="9.937324943335724"><ele>336.0</ele><time>2026-05-02T18:32:00Z</time></trkpt><trkpt lat="44.773272990601704" lon="9.937464677868821"><ele>336.0</ele><time>2026-05-02T18:33:03.999Z</time></trkpt><trkpt lat="44.77322565233999" lon="9.937385896475146"><ele>336.0</ele><time>2026-05-02T18:36:30.999Z</time></trkpt><trkpt lat="44.77319157709561" lon="9.937281669770758"><ele>336.0</ele><time>2026-05-02T18:36:34.999Z</time></trkpt><trkpt lat="44.77312487664487" lon="9.93723553616671"><ele>336.0</ele><time>2026-05-02T18:36:37.999Z</time></trkpt><trkpt lat="44.77305914379181" lon="9.937188434318283"><ele>336.0</ele><time>2026-05-02T18:36:41.999Z</time></trkpt><trkpt lat="44.772993171633274" lon="9.937141394860868"><ele>336.0</ele><time>2026-05-02T18:36:45.999Z</time></trkpt><trkpt lat="44.77292815896833" lon="9.937109013071527"><ele>336.0</ele><time>2026-05-02T18:36:48.999Z</time></trkpt><trkpt lat="44.77286090080513" lon="9.937071359647375"><ele>336.0</ele><time>2026-05-02T18:36:51.999Z</time></trkpt><trkpt lat="44.77280337005839" lon="9.937030228927613"><ele>336.0</ele><time>2026-05-02T18:36:54.999Z</time></trkpt><trkpt lat="44.77272825325646" lon="9.936985771543256"><ele>336.0</ele><time>2026-05-02T18:36:58.999Z</time></trkpt><trkpt lat="44.772652001766176" lon="9.936954965405151"><ele>336.0</ele><time>2026-05-02T18:37:02.999Z</time></trkpt><trkpt lat="44.772574379378355" lon="9.936987846360658"><ele>336.0</ele><time>2026-05-02T18:37:06.999Z</time></trkpt><trkpt lat="44.77254136630687" lon="9.937085466026662"><ele>336.0</ele><time>2026-05-02T18:37:10.999Z</time></trkpt><trkpt lat="44.77255545165567" lon="9.937172358797733"><ele>336.0</ele><time>2026-05-02T18:37:13.999Z</time></trkpt><trkpt lat="44.772603021932206" lon="9.93724005952688"><ele>336.0</ele><time>2026-05-02T18:37:16.998Z</time></trkpt><trkpt lat="44.77265515993148" lon="9.9373038226428"><ele>336.0</ele><time>2026-05-02T18:37:19.998Z</time></trkpt><trkpt lat="44.77271674104923" lon="9.937354485757478"><ele>336.0</ele><time>2026-05-02T18:37:22.998Z</time></trkpt><trkpt lat="44.772778406573096" lon="9.93740917914255"><ele>336.0</ele><time>2026-05-02T18:37:25.998Z</time></trkpt><trkpt lat="44.7728326619778" lon="9.937480674920533"><ele>336.0</ele><time>2026-05-02T18:37:28.998Z</time></trkpt><trkpt lat="44.7728465697193" lon="9.937575552961702"><ele>336.0</ele><time>2026-05-02T18:37:32Z</time></trkpt><trkpt lat="44.77279679143159" lon="9.937638424603353"><ele>336.0</ele><time>2026-05-02T18:37:35Z</time></trkpt><trkpt lat="44.77272642115305" lon="9.937621797503626"><ele>336.0</ele><time>2026-05-02T18:37:38Z</time></trkpt><trkpt lat="44.77266237974492" lon="9.937589752458964"><ele>336.0</ele><time>2026-05-02T18:37:41Z</time></trkpt><trkpt lat="44.77260109770672" lon="9.937557102772724"><ele>338.14285714285717</ele><time>2026-05-02T18:37:44Z</time></trkpt><trkpt lat="44.772539006246475" lon="9.937529579301964"><ele>340.2857142857143</ele><time>2026-05-02T18:37:47Z</time></trkpt><trkpt lat="44.77247839224602" lon="9.937496134267784"><ele>342.42857142857144</ele><time>2026-05-02T18:37:50Z</time></trkpt><trkpt lat="44.77241721917128" lon="9.93746788794944"><ele>344.57142857142856</ele><time>2026-05-02T18:37:53Z</time></trkpt><trkpt lat="44.77235400310961" lon="9.937442981229372"><ele>346.7142857142857</ele><time>2026-05-02T18:37:56Z</time></trkpt><trkpt lat="44.77227257101774" lon="9.937414636194585"><ele>348.8571428571429</ele><time>2026-05-02T18:38:00Z</time></trkpt><trkpt lat="44.77221171763619" lon="9.937387322186323"><ele>351.0</ele><time>2026-05-02T18:38:03Z</time></trkpt><trkpt lat="44.77214149076048" lon="9.937359292133866"><ele>351.00000000000006</ele><time>2026-05-02T18:38:07Z</time></trkpt><trkpt lat="44.77207120882767" lon="9.93734055415243"><ele>351.0</ele><time>2026-05-02T18:38:10Z</time></trkpt><trkpt lat="44.77200887915041" lon="9.937320208793"><ele>351.0</ele><time>2026-05-02T18:38:13Z</time></trkpt><trkpt lat="44.77192620887084" lon="9.937295619770735"><ele>351.0</ele><time>2026-05-02T18:38:17Z</time></trkpt><trkpt lat="44.771864727977444" lon="9.937275041358562"><ele>351.0</ele><time>2026-05-02T18:38:20Z</time></trkpt><trkpt lat="44.771802297890716" lon="9.937259114312253"><ele>351.00000000000006</ele><time>2026-05-02T18:38:22.999Z</time></trkpt><trkpt lat="44.77173929222311" lon="9.937237841241013"><ele>351.0</ele><time>2026-05-02T18:38:25.999Z</time></trkpt><trkpt lat="44.77167569780062" lon="9.937218634726717"><ele>352.5</ele><time>2026-05-02T18:38:28.999Z</time></trkpt><trkpt lat="44.771593629761185" lon="9.937192416522526"><ele>354.0</ele><time>2026-05-02T18:38:32.999Z</time></trkpt><trkpt lat="44.77151208050919" lon="9.937167303653249"><ele>355.5</ele><time>2026-05-02T18:38:36.999Z</time></trkpt><trkpt lat="44.77143240039797" lon="9.937140714670885"><ele>357.0</ele><time>2026-05-02T18:38:40.999Z</time></trkpt><trkpt lat="44.771351269475005" lon="9.937119759339375"><ele>358.5</ele><time>2026-05-02T18:38:44.999Z</time></trkpt><trkpt lat="44.77126856352047" lon="9.937097643923273"><ele>360.0</ele><time>2026-05-02T18:38:48.999Z</time></trkpt><trkpt lat="44.77118596389623" lon="9.937097748306003"><ele>360.0</ele><time>2026-05-02T18:38:52.999Z</time></trkpt><trkpt lat="44.77111248913766" lon="9.93714445725887"><ele>360.0</ele><time>2026-05-02T18:38:56.999Z</time></trkpt><trkpt lat="44.77109413804446" lon="9.937231524185226"><ele>360.0</ele><time>2026-05-02T18:38:59.999Z</time></trkpt><trkpt lat="44.77112120757648" lon="9.937319001460025"><ele>360.0</ele><time>2026-05-02T18:39:02.999Z</time></trkpt><trkpt lat="44.771185194687455" lon="9.937366001868424"><ele>360.0</ele><time>2026-05-02T18:39:05.999Z</time></trkpt><trkpt lat="44.77125581575354" lon="9.937394214853839"><ele>360.0</ele><time>2026-05-02T18:39:08.999Z</time></trkpt><trkpt lat="44.771323660278604" lon="9.937417408767866"><ele>360.0</ele><time>2026-05-02T18:39:11.999Z</time></trkpt><trkpt lat="44.77139243970668" lon="9.937434770959957"><ele>360.0</ele><time>2026-05-02T18:39:14.999Z</time></trkpt><trkpt lat="44.77146581552422" lon="9.93745486455851"><ele>360.0</ele><time>2026-05-02T18:39:17.998Z</time></trkpt><trkpt lat="44.77153818247772" lon="9.937482600863651"><ele>360.0</ele><time>2026-05-02T18:39:20.998Z</time></trkpt><trkpt lat="44.77161200434264" lon="9.937517470139698"><ele>360.0</ele><time>2026-05-02T18:39:23.998Z</time></trkpt><trkpt lat="44.77166681097381" lon="9.937588513241694"><ele>360.0</ele><time>2026-05-02T18:39:26.998Z</time></trkpt><trkpt lat="44.77164262357271" lon="9.937680217256641"><ele>360.0</ele><time>2026-05-02T18:39:29.998Z</time></trkpt><trkpt lat="44.77156470090069" lon="9.937667469166907"><ele>362.57142857142856</ele><time>2026-05-02T18:39:32.998Z</time></trkpt><trkpt lat="44.77149615651847" lon="9.937631776615715"><ele>365.14285714285717</ele><time>2026-05-02T18:39:36Z</time></trkpt><trkpt lat="44.77142614198523" lon="9.937600253573612"><ele>367.7142857142857</ele><time>2026-05-02T18:39:39Z</time></trkpt><trkpt lat="44.77134872698922" lon="9.937593763353421"><ele>370.2857142857143</ele><time>2026-05-02T18:39:42Z</time></trkpt><trkpt lat="44.77127453208913" lon="9.937611210533356"><ele>372.8571428571429</ele><time>2026-05-02T18:39:45Z</time></trkpt><trkpt lat="44.7712061608148" lon="9.937645912673627"><ele>375.42857142857144</ele><time>2026-05-02T18:39:48Z</time></trkpt><trkpt lat="44.771147100165756" lon="9.937705739227347"><ele>378.0</ele><time>2026-05-02T18:39:51Z</time></trkpt><trkpt lat="44.77108999317756" lon="9.937775100118554"><ele>378.0</ele><time>2026-05-02T18:39:54Z</time></trkpt><trkpt lat="44.771034260744365" lon="9.937841756290613"><ele>378.0</ele><time>2026-05-02T18:39:57Z</time></trkpt><trkpt lat="44.77097865638336" lon="9.937911969611518"><ele>378.0</ele><time>2026-05-02T18:40:00Z</time></trkpt><trkpt lat="44.77091276379264" lon="9.937985224044613"><ele>378.0</ele><time>2026-05-02T18:40:03Z</time></trkpt><trkpt lat="44.77083026233021" lon="9.938030239763068"><ele>378.0</ele><time>2026-05-02T18:40:06Z</time></trkpt><trkpt lat="44.77074112957449" lon="9.938018184122377"><ele>378.0</ele><time>2026-05-02T18:40:09Z</time></trkpt><trkpt lat="44.77067225083045" lon="9.937963100568348"><ele>378.1666666666667</ele><time>2026-05-02T18:40:12Z</time></trkpt><trkpt lat="44.77062368642841" lon="9.937883117646537"><ele>378.3333333333333</ele><time>2026-05-02T18:40:15Z</time></trkpt><trkpt lat="44.77058420003035" lon="9.937794868832814"><ele>378.5</ele><time>2026-05-02T18:40:18Z</time></trkpt><trkpt lat="44.77054100109066" lon="9.937712376380407"><ele>378.66666666666663</ele><time>2026-05-02T18:40:21Z</time></trkpt><trkpt lat="44.770485637861235" lon="9.937643184825493"><ele>378.8333333333333</ele><time>2026-05-02T18:40:23.999Z</time></trkpt><trkpt lat="44.77041185993497" lon="9.937602601742862"><ele>379.0</ele><time>2026-05-02T18:40:26.999Z</time></trkpt><trkpt lat="44.77032383138336" lon="9.93759618328325"><ele>379.0</ele><time>2026-05-02T18:40:29.999Z</time></trkpt><trkpt lat="44.77023511391892" lon="9.937631413353786"><ele>379.0</ele><time>2026-05-02T18:40:32.999Z</time></trkpt><trkpt lat="44.77016848829693" lon="9.937723538316956"><ele>379.0</ele><time>2026-05-02T18:40:35.999Z</time></trkpt><trkpt lat="44.7701354505732" lon="9.937843056058341"><ele>379.0</ele><time>2026-05-02T18:40:38.999Z</time></trkpt><trkpt lat="44.770133934021096" lon="9.937975095667365"><ele>379.0</ele><time>2026-05-02T18:40:41.999Z</time></trkpt><trkpt lat="44.770155442122025" lon="9.938066822360712"><ele>379.0</ele><time>2026-05-02T18:40:43.999Z</time></trkpt><trkpt lat="44.77019224510344" lon="9.938146238108263"><ele>379.0</ele><time>2026-05-02T18:40:45.999Z</time></trkpt><trkpt lat="44.77023829199699" lon="9.938207797353995"><ele>379.0</ele><time>2026-05-02T18:40:47.999Z</time></trkpt><trkpt lat="44.77031074281913" lon="9.93828351995623"><ele>379.0</ele><time>2026-05-02T18:40:50.999Z</time></trkpt><trkpt lat="44.77038019615695" lon="9.938352016402336"><ele>379.0</ele><time>2026-05-02T18:40:53.999Z</time></trkpt><trkpt lat="44.770446411484684" lon="9.93842310692828"><ele>379.0</ele><time>2026-05-02T18:40:56.999Z</time></trkpt><trkpt lat="44.770514242047966" lon="9.938482897874184"><ele>379.0</ele><time>2026-05-02T18:40:59.999Z</time></trkpt><trkpt lat="44.77058282415089" lon="9.938543871328356"><ele>380.8333333333333</ele><time>2026-05-02T18:41:02.999Z</time></trkpt><trkpt lat="44.77065043421889" lon="9.938610424745733"><ele>382.66666666666663</ele><time>2026-05-02T18:41:05.999Z</time></trkpt><trkpt lat="44.77071182499118" lon="9.938670145903728"><ele>384.5</ele><time>2026-05-02T18:41:08.999Z</time></trkpt><trkpt lat="44.77078968450323" lon="9.938717947598299"><ele>386.3333333333333</ele><time>2026-05-02T18:41:11.999Z</time></trkpt><trkpt lat="44.770871796807874" lon="9.938740429513546"><ele>388.1666666666667</ele><time>2026-05-02T18:41:14.999Z</time></trkpt><trkpt lat="44.7709458543029" lon="9.93873752156366"><ele>390.0</ele><time>2026-05-02T18:41:17.999Z</time></trkpt><trkpt lat="44.771019322900045" lon="9.938719277861761"><ele>390.1428571428571</ele><time>2026-05-02T18:41:20.998Z</time></trkpt><trkpt lat="44.771089525050975" lon="9.938696412847921"><ele>390.2857142857143</ele><time>2026-05-02T18:41:23.998Z</time></trkpt><trkpt lat="44.77115871441395" lon="9.938668425150539"><ele>390.42857142857144</ele><time>2026-05-02T18:41:26.998Z</time></trkpt><trkpt lat="44.77122690878401" lon="9.938636540715097"><ele>390.57142857142856</ele><time>2026-05-02T18:41:29.998Z</time></trkpt><trkpt lat="44.77129678644255" lon="9.938608882927973"><ele>390.7142857142857</ele><time>2026-05-02T18:41:32.998Z</time></trkpt><trkpt lat="44.77137020159722" lon="9.938601122574806"><ele>390.85714285714283</ele><time>2026-05-02T18:41:35.998Z</time></trkpt><trkpt lat="44.771443203779064" lon="9.938609131474182"><ele>391.0</ele><time>2026-05-02T18:41:38.998Z</time></trkpt><trkpt lat="44.77151320467382" lon="9.938648450136986"><ele>391.00000000000006</ele><time>2026-05-02T18:41:42Z</time></trkpt><trkpt lat="44.77157441878719" lon="9.938711062883762"><ele>391.0</ele><time>2026-05-02T18:41:45Z</time></trkpt><trkpt lat="44.77162755995276" lon="9.938785879315198"><ele>391.0</ele><time>2026-05-02T18:41:48Z</time></trkpt><trkpt lat="44.771680811852654" lon="9.938868033688172"><ele>391.0</ele><time>2026-05-02T18:41:51Z</time></trkpt><trkpt lat="44.77171475113288" lon="9.938968222807446"><ele>391.00000000000006</ele><time>2026-05-02T18:41:54Z</time></trkpt><trkpt lat="44.77173971207726" lon="9.939067733491566"><ele>391.0</ele><time>2026-05-02T18:41:57Z</time></trkpt><trkpt lat="44.77174633949207" lon="9.939176363805325"><ele>389.1428571428571</ele><time>2026-05-02T18:42:00Z</time></trkpt><trkpt lat="44.77174280207524" lon="9.939282167248862"><ele>387.2857142857143</ele><time>2026-05-02T18:42:03Z</time></trkpt><trkpt lat="44.77171993784501" lon="9.939380443030977"><ele>385.42857142857144</ele><time>2026-05-02T18:42:06Z</time></trkpt><trkpt lat="44.77169027912031" lon="9.93949102145045"><ele>383.57142857142856</ele><time>2026-05-02T18:42:10Z</time></trkpt><trkpt lat="44.771641569460485" lon="9.939575160291229"><ele>381.7142857142857</ele><time>2026-05-02T18:42:14Z</time></trkpt><trkpt lat="44.77158633346405" lon="9.939625713951001"><ele>379.85714285714283</ele><time>2026-05-02T18:42:17Z</time></trkpt><trkpt lat="44.77152865266034" lon="9.939665939252075"><ele>378.0</ele><time>2026-05-02T18:42:20Z</time></trkpt><trkpt lat="44.77145679614998" lon="9.939711355466724"><ele>378.0</ele><time>2026-05-02T18:42:23Z</time></trkpt><trkpt lat="44.77139257910285" lon="9.939756812258643"><ele>378.0</ele><time>2026-05-02T18:42:26.999Z</time></trkpt><trkpt lat="44.77131509241516" lon="9.939806179158472"><ele>378.0</ele><time>2026-05-02T18:42:30.999Z</time></trkpt><trkpt lat="44.7712378227804" lon="9.939839943146202"><ele>378.0</ele><time>2026-05-02T18:42:33.999Z</time></trkpt><trkpt lat="44.77117514351495" lon="9.939872643528881"><ele>378.0</ele><time>2026-05-02T18:42:36.999Z</time></trkpt><trkpt lat="44.77111692302965" lon="9.939919749424856"><ele>378.0</ele><time>2026-05-02T18:42:39.999Z</time></trkpt><trkpt lat="44.77105012989306" lon="9.93996329300842"><ele>378.0</ele><time>2026-05-02T18:42:42.999Z</time></trkpt><trkpt lat="44.7709834241953" lon="9.940015323879152"><ele>380.14285714285717</ele><time>2026-05-02T18:42:45.999Z</time></trkpt><trkpt lat="44.7709180560944" lon="9.940068766239676"><ele>382.2857142857143</ele><time>2026-05-02T18:42:48.999Z</time></trkpt><trkpt lat="44.7708596478356" lon="9.940118212443766"><ele>384.42857142857144</ele><time>2026-05-02T18:42:51.999Z</time></trkpt><trkpt lat="44.77079982243682" lon="9.940169076227136"><ele>386.57142857142856</ele><time>2026-05-02T18:42:54.999Z</time></trkpt><trkpt lat="44.77073982316557" lon="9.94020914575137"><ele>388.7142857142857</ele><time>2026-05-02T18:42:57.999Z</time></trkpt><trkpt lat="44.77067570534107" lon="9.9402463354179"><ele>390.8571428571429</ele><time>2026-05-02T18:43:00.999Z</time></trkpt><trkpt lat="44.77061051711078" lon="9.940277715587087"><ele>393.0</ele><time>2026-05-02T18:43:03.999Z</time></trkpt><trkpt lat="44.770544497057145" lon="9.940301155442476"><ele>393.00000000000006</ele><time>2026-05-02T18:43:06.999Z</time></trkpt><trkpt lat="44.77047440161855" lon="9.940325405836537"><ele>393.0</ele><time>2026-05-02T18:43:09.999Z</time></trkpt><trkpt lat="44.77040664821847" lon="9.940351249652663"><ele>393.0</ele><time>2026-05-02T18:43:12.999Z</time></trkpt><trkpt lat="44.7703445839689" lon="9.940393174851465"><ele>393.0</ele><time>2026-05-02T18:43:15.999Z</time></trkpt><trkpt lat="44.770289325923265" lon="9.940454169819894"><ele>393.0</ele><time>2026-05-02T18:43:18.999Z</time></trkpt><trkpt lat="44.77023542270647" lon="9.94052242615866"><ele>393.00000000000006</ele><time>2026-05-02T18:43:21.999Z</time></trkpt><trkpt lat="44.770186750346355" lon="9.940599790826369"><ele>393.0</ele><time>2026-05-02T18:43:24.998Z</time></trkpt><trkpt lat="44.77014689036499" lon="9.940686495202677"><ele>395.3333333333333</ele><time>2026-05-02T18:43:27.998Z</time></trkpt><trkpt lat="44.77011278486463" lon="9.9407867097001"><ele>397.66666666666663</ele><time>2026-05-02T18:43:31.998Z</time></trkpt><trkpt lat="44.77007621660054" lon="9.940894981273011"><ele>400.0</ele><time>2026-05-02T18:43:35.998Z</time></trkpt><trkpt lat="44.7700450940937" lon="9.940981044044346"><ele>402.3333333333333</ele><time>2026-05-02T18:43:38.998Z</time></trkpt><trkpt lat="44.770005750154375" lon="9.941078110596454"><ele>404.66666666666663</ele><time>2026-05-02T18:43:41.998Z</time></trkpt><trkpt lat="44.76996516625574" lon="9.941178456331398"><ele>407.0</ele><time>2026-05-02T18:43:45.998Z</time></trkpt><trkpt lat="44.76992503860577" lon="9.941260886135169"><ele>407.7142857142857</ele><time>2026-05-02T18:43:49Z</time></trkpt><trkpt lat="44.769882722881576" lon="9.941337569491976"><ele>408.42857142857144</ele><time>2026-05-02T18:43:52Z</time></trkpt><trkpt lat="44.7698353054745" lon="9.941410648153907"><ele>409.1428571428571</ele><time>2026-05-02T18:43:55Z</time></trkpt><trkpt lat="44.76978487860069" lon="9.941485227325119"><ele>409.8571428571429</ele><time>2026-05-02T18:43:58Z</time></trkpt><trkpt lat="44.76972207724003" lon="9.941557525249502"><ele>410.57142857142856</ele><time>2026-05-02T18:44:01Z</time></trkpt><trkpt lat="44.76966697927142" lon="9.941606682261524"><ele>411.2857142857143</ele><time>2026-05-02T18:44:04Z</time></trkpt><trkpt lat="44.76961126908861" lon="9.941650153363332"><ele>412.0</ele><time>2026-05-02T18:44:07Z</time></trkpt><trkpt lat="44.76954701602963" lon="9.94168766213162"><ele>411.83333333333337</ele><time>2026-05-02T18:44:10Z</time></trkpt><trkpt lat="44.76947807447589" lon="9.941715458715432"><ele>411.6666666666667</ele><time>2026-05-02T18:44:13Z</time></trkpt><trkpt lat="44.76940427417903" lon="9.941732000295042"><ele>411.5</ele><time>2026-05-02T18:44:16Z</time></trkpt><trkpt lat="44.76931632063422" lon="9.94173373842731"><ele>411.33333333333337</ele><time>2026-05-02T18:44:19Z</time></trkpt><trkpt lat="44.76924003203658" lon="9.94171727962607"><ele>411.1666666666667</ele><time>2026-05-02T18:44:23Z</time></trkpt><trkpt lat="44.76916863051434" lon="9.941703109818771"><ele>411.0</ele><time>2026-05-02T18:44:26Z</time></trkpt><trkpt lat="44.76909503560476" lon="9.941683543283991"><ele>411.57142857142856</ele><time>2026-05-02T18:44:28.999Z</time></trkpt><trkpt lat="44.76901774411677" lon="9.94165331885632"><ele>412.1428571428571</ele><time>2026-05-02T18:44:31.999Z</time></trkpt><trkpt lat="44.76895671751308" lon="9.941622348017683"><ele>412.7142857142857</ele><time>2026-05-02T18:44:34.999Z</time></trkpt><trkpt lat="44.76889677644315" lon="9.941591772771279"><ele>413.2857142857143</ele><time>2026-05-02T18:44:37.999Z</time></trkpt><trkpt lat="44.76883521843101" lon="9.941552238518929"><ele>413.8571428571429</ele><time>2026-05-02T18:44:40.999Z</time></trkpt><trkpt lat="44.76877143962539" lon="9.941502678106636"><ele>414.42857142857144</ele><time>2026-05-02T18:44:43.999Z</time></trkpt><trkpt lat="44.768704976636464" lon="9.941434167497874"><ele>415.0</ele><time>2026-05-02T18:44:46.999Z</time></trkpt><trkpt lat="44.76866237596906" lon="9.941366572429132"><ele>415.00000000000006</ele><time>2026-05-02T18:44:49.999Z</time></trkpt><trkpt lat="44.7686200133012" lon="9.941241212868048"><ele>415.0</ele><time>2026-05-02T18:44:53.999Z</time></trkpt><trkpt lat="44.768598867506284" lon="9.9411355646253"><ele>415.0</ele><time>2026-05-02T18:44:56.999Z</time></trkpt><trkpt lat="44.76857576150648" lon="9.941032654828504"><ele>415.0</ele><time>2026-05-02T18:44:59.999Z</time></trkpt><trkpt lat="44.768550407925396" lon="9.940924671923444"><ele>415.00000000000006</ele><time>2026-05-02T18:45:02.999Z</time></trkpt><trkpt lat="44.76851630318445" lon="9.940816638725991"><ele>415.0</ele><time>2026-05-02T18:45:05.999Z</time></trkpt><trkpt lat="44.76847806065629" lon="9.940740537706676"><ele>416.6666666666667</ele><time>2026-05-02T18:45:08.999Z</time></trkpt><trkpt lat="44.76841402509443" lon="9.940663847286107"><ele>418.33333333333337</ele><time>2026-05-02T18:45:12.999Z</time></trkpt><trkpt lat="44.768357929644395" lon="9.94058804264739"><ele>420.0</ele><time>2026-05-02T18:45:16.999Z</time></trkpt><trkpt lat="44.768306732263206" lon="9.94052836103634"><ele>421.66666666666663</ele><time>2026-05-02T18:45:19.999Z</time></trkpt><trkpt lat="44.76823202288446" lon="9.940470762972517"><ele>423.3333333333333</ele><time>2026-05-02T18:45:23.999Z</time></trkpt><trkpt lat="44.76816985169591" lon="9.940430070984462"><ele>425.0</ele><time>2026-05-02T18:45:26.998Z</time></trkpt><trkpt lat="44.76809524336487" lon="9.940391339073992"><ele>424.99999999999994</ele><time>2026-05-02T18:45:29.998Z</time></trkpt><trkpt lat="44.768013317270736" lon="9.940353183908677"><ele>425.0</ele><time>2026-05-02T18:45:32.998Z</time></trkpt><trkpt lat="44.767936495857825" lon="9.940334183231284"><ele>425.0</ele><time>2026-05-02T18:45:35.998Z</time></trkpt><trkpt lat="44.7678563695109" lon="9.94032669899014"><ele>425.0</ele><time>2026-05-02T18:45:38.998Z</time></trkpt><trkpt lat="44.76778124798362" lon="9.940320756294762"><ele>424.99999999999994</ele><time>2026-05-02T18:45:41.998Z</time></trkpt><trkpt lat="44.76770578669098" lon="9.940329780367962"><ele>425.0</ele><time>2026-05-02T18:45:44.998Z</time></trkpt><trkpt lat="44.7676327942015" lon="9.940341130141297"><ele>425.66666666666663</ele><time>2026-05-02T18:45:47.998Z</time></trkpt><trkpt lat="44.767553167194" lon="9.940354516976953"><ele>426.3333333333333</ele><time>2026-05-02T18:45:50.998Z</time></trkpt><trkpt lat="44.767475094390086" lon="9.940373123219642"><ele>427.0</ele><time>2026-05-02T18:45:54Z</time></trkpt><trkpt lat="44.7673993285348" lon="9.940384654811483"><ele>427.66666666666663</ele><time>2026-05-02T18:45:57Z</time></trkpt><trkpt lat="44.767322880074246" lon="9.940396381721603"><ele>428.3333333333333</ele><time>2026-05-02T18:46:00Z</time></trkpt><trkpt lat="44.76724419444973" lon="9.940399101397345"><ele>429.0</ele><time>2026-05-02T18:46:03Z</time></trkpt><trkpt lat="44.76716649056716" lon="9.940408789667405"><ele>429.0</ele><time>2026-05-02T18:46:06Z</time></trkpt><trkpt lat="44.7670892770635" lon="9.940428873258481"><ele>429.0</ele><time>2026-05-02T18:46:09Z</time></trkpt><trkpt lat="44.76700899817919" lon="9.940444972719904"><ele>429.0</ele><time>2026-05-02T18:46:12Z</time></trkpt><trkpt lat="44.76693147627174" lon="9.940457360335559"><ele>429.0</ele><time>2026-05-02T18:46:15Z</time></trkpt><trkpt lat="44.76685432887487" lon="9.940473942930392"><ele>429.0</ele><time>2026-05-02T18:46:18Z</time></trkpt><trkpt lat="44.766780231831184" lon="9.940492713025016"><ele>429.0</ele><time>2026-05-02T18:46:21Z</time></trkpt><trkpt lat="44.766713258020516" lon="9.940517254193429"><ele>429.42857142857144</ele><time>2026-05-02T18:46:24Z</time></trkpt><trkpt lat="44.76664441097897" lon="9.940539115661762"><ele>429.8571428571429</ele><time>2026-05-02T18:46:27Z</time></trkpt><trkpt lat="44.766578096695255" lon="9.94056910073442"><ele>430.2857142857143</ele><time>2026-05-02T18:46:30Z</time></trkpt><trkpt lat="44.766509534937" lon="9.940592930369219"><ele>430.7142857142857</ele><time>2026-05-02T18:46:32.999Z</time></trkpt><trkpt lat="44.76644246796588" lon="9.940621645924796"><ele>431.1428571428571</ele><time>2026-05-02T18:46:35.999Z</time></trkpt><trkpt lat="44.76637759684179" lon="9.940653992521954"><ele>431.57142857142856</ele><time>2026-05-02T18:46:38.999Z</time></trkpt><trkpt lat="44.76631088604587" lon="9.940685254526205"><ele>432.0</ele><time>2026-05-02T18:46:41.999Z</time></trkpt><trkpt lat="44.76624274707251" lon="9.940710510929838"><ele>432.0</ele><time>2026-05-02T18:46:44.999Z</time></trkpt><trkpt lat="44.766176438376974" lon="9.940737922726182"><ele>432.0</ele><time>2026-05-02T18:46:47.999Z</time></trkpt><trkpt lat="44.76611116299561" lon="9.940762399303582"><ele>432.0</ele><time>2026-05-02T18:46:50.999Z</time></trkpt><trkpt lat="44.76604795577802" lon="9.940789610781831"><ele>432.0</ele><time>2026-05-02T18:46:53.999Z</time></trkpt><trkpt lat="44.76598194251846" lon="9.940821323220211"><ele>432.0</ele><time>2026-05-02T18:46:56.999Z</time></trkpt><trkpt lat="44.76591590038247" lon="9.940848841196022"><ele>432.0</ele><time>2026-05-02T18:46:59.999Z</time></trkpt><trkpt lat="44.76585080992621" lon="9.940880526225378"><ele>432.0</ele><time>2026-05-02T18:47:02.999Z</time></trkpt><trkpt lat="44.7657702929367" lon="9.940926318286241"><ele>432.0</ele><time>2026-05-02T18:47:06.999Z</time></trkpt><trkpt lat="44.76569478584126" lon="9.940969970259413"><ele>432.0</ele><time>2026-05-02T18:47:10.999Z</time></trkpt><trkpt lat="44.765634409734936" lon="9.941010223816848"><ele>432.0</ele><time>2026-05-02T18:47:13.999Z</time></trkpt><trkpt lat="44.76557413926961" lon="9.941049765559507"><ele>432.0</ele><time>2026-05-02T18:47:16.999Z</time></trkpt><trkpt lat="44.76551766181676" lon="9.941091680132326"><ele>432.0</ele><time>2026-05-02T18:47:19.999Z</time></trkpt><trkpt lat="44.76544445832379" lon="9.94114488084392"><ele>432.0</ele><time>2026-05-02T18:47:22.999Z</time></trkpt><trkpt lat="44.76538394015743" lon="9.941189755603798"><ele>432.0</ele><time>2026-05-02T18:47:25.999Z</time></trkpt><trkpt lat="44.76531377202045" lon="9.941236535145894"><ele>432.0</ele><time>2026-05-02T18:47:28.999Z</time></trkpt><trkpt lat="44.765251558044795" lon="9.941278496992215"><ele>432.0</ele><time>2026-05-02T18:47:31.998Z</time></trkpt><trkpt lat="44.76518805636659" lon="9.941325979625173"><ele>432.0</ele><time>2026-05-02T18:47:35.998Z</time></trkpt><trkpt lat="44.765130752854816" lon="9.941375113812281"><ele>432.0</ele><time>2026-05-02T18:47:38.998Z</time></trkpt><trkpt lat="44.76507264622066" lon="9.941421371939477"><ele>432.0</ele><time>2026-05-02T18:47:41.998Z</time></trkpt><trkpt lat="44.76500712535603" lon="9.941479702224132"><ele>432.0</ele><time>2026-05-02T18:47:44.998Z</time></trkpt><trkpt lat="44.76493500737857" lon="9.941531068757868"><ele>432.0</ele><time>2026-05-02T18:47:47.998Z</time></trkpt><trkpt lat="44.76487700218426" lon="9.941576344569024"><ele>432.85714285714283</ele><time>2026-05-02T18:47:50.998Z</time></trkpt><trkpt lat="44.76480713554086" lon="9.941630004783418"><ele>433.71428571428567</ele><time>2026-05-02T18:47:54.998Z</time></trkpt><trkpt lat="44.764734846041065" lon="9.941688254360189"><ele>434.57142857142856</ele><time>2026-05-02T18:47:59Z</time></trkpt><trkpt lat="44.76467782953505" lon="9.941731581686163"><ele>435.42857142857144</ele><time>2026-05-02T18:48:02Z</time></trkpt><trkpt lat="44.76461891928092" lon="9.941775545605548"><ele>436.2857142857143</ele><time>2026-05-02T18:48:05Z</time></trkpt><trkpt lat="44.76455902036355" lon="9.941815341739739"><ele>437.14285714285717</ele><time>2026-05-02T18:48:08Z</time></trkpt><trkpt lat="44.76449909141891" lon="9.941857919085392"><ele>438.0</ele><time>2026-05-02T18:48:11Z</time></trkpt><trkpt lat="44.76444458568391" lon="9.941903641243371"><ele>438.0</ele><time>2026-05-02T18:48:14Z</time></trkpt><trkpt lat="44.764373484609074" lon="9.941951835599518"><ele>438.0</ele><time>2026-05-02T18:48:18Z</time></trkpt><trkpt lat="44.76431225724614" lon="9.941993904322839"><ele>438.0</ele><time>2026-05-02T18:48:21Z</time></trkpt><trkpt lat="44.7642458515182" lon="9.942043981300658"><ele>438.0</ele><time>2026-05-02T18:48:24Z</time></trkpt><trkpt lat="44.764185537848796" lon="9.942096745597738"><ele>438.0</ele><time>2026-05-02T18:48:28Z</time></trkpt><trkpt lat="44.76413376106102" lon="9.942149519750886"><ele>438.0</ele><time>2026-05-02T18:48:31Z</time></trkpt><trkpt lat="44.76406510615804" lon="9.942218514467669"><ele>438.0</ele><time>2026-05-02T18:48:35Z</time></trkpt><trkpt lat="44.76400652587091" lon="9.942277176048922"><ele>440.0</ele><time>2026-05-02T18:48:38.999Z</time></trkpt><trkpt lat="44.76395046735215" lon="9.942327419383071"><ele>442.0</ele><time>2026-05-02T18:48:41.999Z</time></trkpt><trkpt lat="44.76389146505499" lon="9.942379673646453"><ele>444.0</ele><time>2026-05-02T18:48:44.999Z</time></trkpt><trkpt lat="44.76384034116018" lon="9.942434314236623"><ele>446.0</ele><time>2026-05-02T18:48:47.999Z</time></trkpt><trkpt lat="44.76378500714544" lon="9.942480642864172"><ele>448.0</ele><time>2026-05-02T18:48:50.999Z</time></trkpt><trkpt lat="44.76373055602056" lon="9.942529359225768"><ele>450.0</ele><time>2026-05-02T18:48:53.999Z</time></trkpt><trkpt lat="44.76367062159585" lon="9.94257229854871"><ele>452.0</ele><time>2026-05-02T18:48:56.999Z</time></trkpt><trkpt lat="44.7635974954804" lon="9.942615086051905"><ele>451.99999999999994</ele><time>2026-05-02T18:49:00.999Z</time></trkpt><trkpt lat="44.76353708579927" lon="9.942644049369022"><ele>452.0</ele><time>2026-05-02T18:49:03.999Z</time></trkpt><trkpt lat="44.76345849334554" lon="9.942677621777957"><ele>452.0</ele><time>2026-05-02T18:49:07.999Z</time></trkpt><trkpt lat="44.76339726143942" lon="9.942701273607604"><ele>452.0</ele><time>2026-05-02T18:49:10.999Z</time></trkpt><trkpt lat="44.763309070004475" lon="9.942728934173426"><ele>451.99999999999994</ele><time>2026-05-02T18:49:14.999Z</time></trkpt><trkpt lat="44.76323603403445" lon="9.942742223674765"><ele>452.0</ele><time>2026-05-02T18:49:18.999Z</time></trkpt><trkpt lat="44.76316766329984" lon="9.94268194869841"><ele>453.99999999999994</ele><time>2026-05-02T18:49:22.999Z</time></trkpt><trkpt lat="44.7631436123599" lon="9.942583459699048"><ele>456.0</ele><time>2026-05-02T18:49:26.999Z</time></trkpt><trkpt lat="44.7631730657311" lon="9.942471411314422"><ele>458.0</ele><time>2026-05-02T18:49:30.999Z</time></trkpt><trkpt lat="44.76320853173903" lon="9.942380973837304"><ele>460.0</ele><time>2026-05-02T18:49:34.998Z</time></trkpt><trkpt lat="44.76324668853581" lon="9.942276601856816"><ele>461.99999999999994</ele><time>2026-05-02T18:49:38.998Z</time></trkpt><trkpt lat="44.763291435344094" lon="9.942169467487666"><ele>464.0</ele><time>2026-05-02T18:49:42.998Z</time></trkpt><trkpt lat="44.76332538238841" lon="9.942084735062776"><ele>464.3333333333333</ele><time>2026-05-02T18:49:46.998Z</time></trkpt><trkpt lat="44.76336022893306" lon="9.942009747404809"><ele>464.66666666666663</ele><time>2026-05-02T18:49:49.998Z</time></trkpt><trkpt lat="44.76340856468676" lon="9.94191387231174"><ele>465.0</ele><time>2026-05-02T18:49:53.998Z</time></trkpt><trkpt lat="44.76345703542106" lon="9.941820950119704"><ele>465.33333333333337</ele><time>2026-05-02T18:49:57.998Z</time></trkpt><trkpt lat="44.76350322848966" lon="9.941726653474108"><ele>465.6666666666667</ele><time>2026-05-02T18:50:01.998Z</time></trkpt><trkpt lat="44.76355344596367" lon="9.941625563056517"><ele>466.0</ele><time>2026-05-02T18:50:06Z</time></trkpt><trkpt lat="44.76359632955749" lon="9.941538295003346"><ele>465.1666666666667</ele><time>2026-05-02T18:50:09Z</time></trkpt><trkpt lat="44.76363339612197" lon="9.94146020723885"><ele>464.33333333333337</ele><time>2026-05-02T18:50:12Z</time></trkpt><trkpt lat="44.76368344988164" lon="9.941365533863074"><ele>463.5</ele><time>2026-05-02T18:50:16Z</time></trkpt><trkpt lat="44.763722615958585" lon="9.941295356327773"><ele>462.66666666666663</ele><time>2026-05-02T18:50:19Z</time></trkpt><trkpt lat="44.76377492130577" lon="9.941205763829878"><ele>461.8333333333333</ele><time>2026-05-02T18:50:23Z</time></trkpt><trkpt lat="44.76381850189558" lon="9.941125607992074"><ele>461.0</ele><time>2026-05-02T18:50:27Z</time></trkpt><trkpt lat="44.763866990086086" lon="9.941028647805858"><ele>461.0</ele><time>2026-05-02T18:50:31Z</time></trkpt><trkpt lat="44.76390330518363" lon="9.940946955884357"><ele>461.00000000000006</ele><time>2026-05-02T18:50:34Z</time></trkpt><trkpt lat="44.76393406396601" lon="9.940866470894608"><ele>461.0</ele><time>2026-05-02T18:50:37Z</time></trkpt><trkpt lat="44.76396173028974" lon="9.940783004500855"><ele>461.0</ele><time>2026-05-02T18:50:39.999Z</time></trkpt><trkpt lat="44.76398241094877" lon="9.940696989529208"><ele>461.00000000000006</ele><time>2026-05-02T18:50:42.999Z</time></trkpt><trkpt lat="44.76399035998911" lon="9.94060832051593"><ele>461.0</ele><time>2026-05-02T18:50:45.999Z</time></trkpt><trkpt lat="44.763970738037415" lon="9.940517021005148"><ele>461.0</ele><time>2026-05-02T18:50:48.999Z</time></trkpt><trkpt lat="44.76391037906552" lon="9.940482743247438"><ele>461.0</ele><time>2026-05-02T18:50:51.999Z</time></trkpt><trkpt lat="44.7638501024096" lon="9.940525569555522"><ele>461.00000000000006</ele><time>2026-05-02T18:50:54.999Z</time></trkpt><trkpt lat="44.76380242228198" lon="9.940595747308215"><ele>461.0</ele><time>2026-05-02T18:50:57.999Z</time></trkpt><trkpt lat="44.763753976254634" lon="9.9406756502315"><ele>461.0</ele><time>2026-05-02T18:51:00.999Z</time></trkpt><trkpt lat="44.76370591796412" lon="9.940756157473869"><ele>461.00000000000006</ele><time>2026-05-02T18:51:04.999Z</time></trkpt><trkpt lat="44.763660712365066" lon="9.94082776244867"><ele>461.0</ele><time>2026-05-02T18:51:06.999Z</time></trkpt><trkpt lat="44.76360455760366" lon="9.940874833585106"><ele>461.0</ele><time>2026-05-02T18:51:09.999Z</time></trkpt><trkpt lat="44.76353935495113" lon="9.94092161727221"><ele>463.42857142857144</ele><time>2026-05-02T18:51:12.999Z</time></trkpt><trkpt lat="44.76347714664418" lon="9.940959407036086"><ele>465.8571428571429</ele><time>2026-05-02T18:51:15.999Z</time></trkpt><trkpt lat="44.76341722606249" lon="9.9410044614331"><ele>468.28571428571433</ele><time>2026-05-02T18:51:18.999Z</time></trkpt><trkpt lat="44.76335861948401" lon="9.941046901626637"><ele>470.7142857142858</ele><time>2026-05-02T18:51:21.999Z</time></trkpt><trkpt lat="44.76328489025952" lon="9.941092153033665"><ele>473.14285714285717</ele><time>2026-05-02T18:51:25.999Z</time></trkpt><trkpt lat="44.76322087153284" lon="9.941128316834542"><ele>475.57142857142867</ele><time>2026-05-02T18:51:28.999Z</time></trkpt><trkpt lat="44.763152115054176" lon="9.941151137081894"><ele>478.00000000000006</ele><time>2026-05-02T18:51:31.999Z</time></trkpt><trkpt lat="44.76307630293585" lon="9.94115236153819"><ele>478.00000000000006</ele><time>2026-05-02T18:51:34.998Z</time></trkpt><trkpt lat="44.76299175236922" lon="9.9411289575547"><ele>478.0</ele><time>2026-05-02T18:51:37.998Z</time></trkpt><trkpt lat="44.76293252651405" lon="9.941097878653808"><ele>478.0</ele><time>2026-05-02T18:51:40.998Z</time></trkpt><trkpt lat="44.76286968304934" lon="9.94106238945108"><ele>478.0</ele><time>2026-05-02T18:51:43.998Z</time></trkpt><trkpt lat="44.7628026032531" lon="9.941022545177416"><ele>478.00000000000006</ele><time>2026-05-02T18:51:46.998Z</time></trkpt><trkpt lat="44.76270797407162" lon="9.941004647447626"><ele>478.0</ele><time>2026-05-02T18:51:49.998Z</time></trkpt><trkpt lat="44.76262240088892" lon="9.941015959349874"><ele>480.1666666666667</ele><time>2026-05-02T18:51:52.998Z</time></trkpt><trkpt lat="44.7625488209934" lon="9.94108360743511"><ele>482.33333333333337</ele><time>2026-05-02T18:51:56.998Z</time></trkpt><trkpt lat="44.76249152090901" lon="9.941157163576774"><ele>484.5</ele><time>2026-05-02T18:51:59.998Z</time></trkpt><trkpt lat="44.762439946491305" lon="9.941238060398941"><ele>486.66666666666663</ele><time>2026-05-02T18:52:02.998Z</time></trkpt><trkpt lat="44.762372280156384" lon="9.94134414850359"><ele>488.8333333333333</ele><time>2026-05-02T18:52:06.998Z</time></trkpt><trkpt lat="44.762310113536714" lon="9.941435161868766"><ele>491.0</ele><time>2026-05-02T18:52:10Z</time></trkpt><trkpt lat="44.762254116335335" lon="9.941519898545316"><ele>491.0</ele><time>2026-05-02T18:52:13Z</time></trkpt><trkpt lat="44.76219481857252" lon="9.941583735583615"><ele>490.99999999999994</ele><time>2026-05-02T18:52:16Z</time></trkpt><trkpt lat="44.762122592479685" lon="9.941622741683355"><ele>491.0</ele><time>2026-05-02T18:52:19Z</time></trkpt><trkpt lat="44.762048324202944" lon="9.941635544123578"><ele>491.0</ele><time>2026-05-02T18:52:22Z</time></trkpt><trkpt lat="44.761975464412274" lon="9.941635829803737"><ele>490.99999999999994</ele><time>2026-05-02T18:52:25Z</time></trkpt><trkpt lat="44.76190599965352" lon="9.941629526197195"><ele>491.0</ele><time>2026-05-02T18:52:28Z</time></trkpt><trkpt lat="44.761834986786106" lon="9.94162141525522"><ele>491.0</ele><time>2026-05-02T18:52:31Z</time></trkpt><trkpt lat="44.76176090335029" lon="9.94162353911912"><ele>491.57142857142856</ele><time>2026-05-02T18:52:34Z</time></trkpt><trkpt lat="44.76167243466841" lon="9.941640568292366"><ele>492.1428571428571</ele><time>2026-05-02T18:52:38Z</time></trkpt><trkpt lat="44.761608571162775" lon="9.941670541501589"><ele>492.71428571428567</ele><time>2026-05-02T18:52:41Z</time></trkpt><trkpt lat="44.76154853695788" lon="9.941702354665656"><ele>493.2857142857142</ele><time>2026-05-02T18:52:42.999Z</time></trkpt><trkpt lat="44.76148778610865" lon="9.941753843920065"><ele>493.85714285714283</ele><time>2026-05-02T18:52:45.999Z</time></trkpt><trkpt lat="44.76143440001746" lon="9.941809304962982"><ele>494.42857142857133</ele><time>2026-05-02T18:52:48.999Z</time></trkpt><trkpt lat="44.76137884493123" lon="9.941873308483167"><ele>494.99999999999994</ele><time>2026-05-02T18:52:51.999Z</time></trkpt><trkpt lat="44.761323597519045" lon="9.941946205208056"><ele>495.0</ele><time>2026-05-02T18:52:54.999Z</time></trkpt><trkpt lat="44.76126079869731" lon="9.942038618429644"><ele>495.0</ele><time>2026-05-02T18:52:57.999Z</time></trkpt><trkpt lat="44.761208819425235" lon="9.942126018662861"><ele>495.0</ele><time>2026-05-02T18:53:00.999Z</time></trkpt><trkpt lat="44.76116628666552" lon="9.942208299309799"><ele>495.0</ele><time>2026-05-02T18:53:03.999Z</time></trkpt><trkpt lat="44.76112247271072" lon="9.942288048257504"><ele>495.0</ele><time>2026-05-02T18:53:06.999Z</time></trkpt><trkpt lat="44.761072290132745" lon="9.942387215765478"><ele>495.0</ele><time>2026-05-02T18:53:10.999Z</time></trkpt><trkpt lat="44.76103252119925" lon="9.942462404985003"><ele>497.8571428571428</ele><time>2026-05-02T18:53:13.999Z</time></trkpt><trkpt lat="44.76099514504991" lon="9.942551141008426"><ele>500.71428571428567</ele><time>2026-05-02T18:53:16.999Z</time></trkpt><trkpt lat="44.760964888293934" lon="9.942644364032935"><ele>503.57142857142856</ele><time>2026-05-02T18:53:19.999Z</time></trkpt><trkpt lat="44.7609460320898" lon="9.942747127795322"><ele>506.4285714285714</ele><time>2026-05-02T18:53:22.999Z</time></trkpt><trkpt lat="44.760939086175945" lon="9.942861272841299"><ele>509.2857142857142</ele><time>2026-05-02T18:53:25.999Z</time></trkpt><trkpt lat="44.760949088313055" lon="9.942959980277886"><ele>512.1428571428571</ele><time>2026-05-02T18:53:28.999Z</time></trkpt><trkpt lat="44.760966044479936" lon="9.943059042010539"><ele>515.0</ele><time>2026-05-02T18:53:31.999Z</time></trkpt><trkpt lat="44.7609938354154" lon="9.943162217036457"><ele>515.0</ele><time>2026-05-02T18:53:34.999Z</time></trkpt><trkpt lat="44.76101864809373" lon="9.943268499685843"><ele>515.0</ele><time>2026-05-02T18:53:37.999Z</time></trkpt><trkpt lat="44.76103254019908" lon="9.943377159088833"><ele>515.0</ele><time>2026-05-02T18:53:40.998Z</time></trkpt><trkpt lat="44.761031123529456" lon="9.943492747489522"><ele>515.0</ele><time>2026-05-02T18:53:43.998Z</time></trkpt><trkpt lat="44.76102199911521" lon="9.943600214091571"><ele>515.0</ele><time>2026-05-02T18:53:46.998Z</time></trkpt><trkpt lat="44.76100370587981" lon="9.943701907336553"><ele>515.0</ele><time>2026-05-02T18:53:49.998Z</time></trkpt><trkpt lat="44.76098632849063" lon="9.943792635237902"><ele>514.1666666666666</ele><time>2026-05-02T18:53:52.998Z</time></trkpt><trkpt lat="44.76095956923201" lon="9.943897437860262"><ele>513.3333333333333</ele><time>2026-05-02T18:53:55.998Z</time></trkpt><trkpt lat="44.760913182129954" lon="9.943986014913667"><ele>512.5</ele><time>2026-05-02T18:53:58.998Z</time></trkpt><trkpt lat="44.760842355425666" lon="9.94401433464244"><ele>511.66666666666663</ele><time>2026-05-02T18:54:01.998Z</time></trkpt><trkpt lat="44.76078439451888" lon="9.943960461614523"><ele>510.8333333333333</ele><time>2026-05-02T18:54:04.998Z</time></trkpt><trkpt lat="44.76074041838818" lon="9.94386449126201"><ele>510.0</ele><time>2026-05-02T18:54:07.998Z</time></trkpt><trkpt lat="44.76071083794957" lon="9.943767184562383"><ele>510.0</ele><time>2026-05-02T18:54:11.998Z</time></trkpt><trkpt lat="44.76068914680207" lon="9.94367290978731"><ele>510.0</ele><time>2026-05-02T18:54:14.998Z</time></trkpt><trkpt lat="44.76066599035022" lon="9.943576294364616"><ele>510.0</ele><time>2026-05-02T18:54:18Z</time></trkpt><trkpt lat="44.760648370250664" lon="9.94347276307151"><ele>510.0</ele><time>2026-05-02T18:54:21Z</time></trkpt><trkpt lat="44.76063190662159" lon="9.943365264609556"><ele>510.0</ele><time>2026-05-02T18:54:24Z</time></trkpt><trkpt lat="44.76060118313613" lon="9.94326528897976"><ele>510.0</ele><time>2026-05-02T18:54:28Z</time></trkpt><trkpt lat="44.760566330400856" lon="9.943167641536503"><ele>510.8333333333333</ele><time>2026-05-02T18:54:31Z</time></trkpt><trkpt lat="44.76053230480305" lon="9.943072437204457"><ele>511.66666666666663</ele><time>2026-05-02T18:54:34Z</time></trkpt><trkpt lat="44.76047681632887" lon="9.94296150898596"><ele>512.5</ele><time>2026-05-02T18:54:37Z</time></trkpt><trkpt lat="44.76042140767987" lon="9.942864085102972"><ele>513.3333333333333</ele><time>2026-05-02T18:54:40Z</time></trkpt><trkpt lat="44.76037312489714" lon="9.942770837310736"><ele>514.1666666666666</ele><time>2026-05-02T18:54:43Z</time></trkpt><trkpt lat="44.76033201207186" lon="9.942671889284739"><ele>515.0</ele><time>2026-05-02T18:54:46Z</time></trkpt><trkpt lat="44.76030887774443" lon="9.94255831284157"><ele>514.6666666666666</ele><time>2026-05-02T18:54:48.999Z</time></trkpt><trkpt lat="44.760312130371574" lon="9.942440334191563"><ele>514.3333333333333</ele><time>2026-05-02T18:54:51.999Z</time></trkpt><trkpt lat="44.760328768674135" lon="9.942319170367064"><ele>514.0</ele><time>2026-05-02T18:54:54.999Z</time></trkpt><trkpt lat="44.76034478719752" lon="9.942203634572767"><ele>513.6666666666666</ele><time>2026-05-02T18:54:57.999Z</time></trkpt><trkpt lat="44.76036095050469" lon="9.942087687814821"><ele>513.3333333333334</ele><time>2026-05-02T18:55:00.999Z</time></trkpt><trkpt lat="44.76037960653963" lon="9.94197709653016"><ele>513.0</ele><time>2026-05-02T18:55:03.999Z</time></trkpt><trkpt lat="44.76040514821127" lon="9.941867608072572"><ele>513.0</ele><time>2026-05-02T18:55:06.999Z</time></trkpt><trkpt lat="44.760430606303196" lon="9.941757839283651"><ele>513.0</ele><time>2026-05-02T18:55:09.999Z</time></trkpt><trkpt lat="44.760447344031455" lon="9.941648530317053"><ele>513.0</ele><time>2026-05-02T18:55:12.999Z</time></trkpt><trkpt lat="44.76046974843628" lon="9.941537236394272"><ele>513.0</ele><time>2026-05-02T18:55:15.999Z</time></trkpt><trkpt lat="44.76049360187724" lon="9.941427538764833"><ele>513.0</ele><time>2026-05-02T18:55:18.999Z</time></trkpt><trkpt lat="44.76051959729292" lon="9.941319192003373"><ele>513.0</ele><time>2026-05-02T18:55:21.999Z</time></trkpt><trkpt lat="44.76054443411941" lon="9.941213424562013"><ele>513.2857142857143</ele><time>2026-05-02T18:55:24.999Z</time></trkpt><trkpt lat="44.760574462349034" lon="9.94111012690491"><ele>513.5714285714286</ele><time>2026-05-02T18:55:27.999Z</time></trkpt><trkpt lat="44.76061486353768" lon="9.941014668627226"><ele>513.8571428571429</ele><time>2026-05-02T18:55:30.999Z</time></trkpt><trkpt lat="44.76065778718105" lon="9.940933108869167"><ele>514.1428571428571</ele><time>2026-05-02T18:55:33.999Z</time></trkpt><trkpt lat="44.76070285139084" lon="9.940849988290351"><ele>514.4285714285714</ele><time>2026-05-02T18:55:36.999Z</time></trkpt><trkpt lat="44.76075112532247" lon="9.940779151736628"><ele>514.7142857142858</ele><time>2026-05-02T18:55:39.999Z</time></trkpt><trkpt lat="44.760796061905985" lon="9.940708135648167"><ele>515.0</ele><time>2026-05-02T18:55:42.999Z</time></trkpt><trkpt lat="44.76084212795057" lon="9.94063710322479"><ele>516.5714285714286</ele><time>2026-05-02T18:55:45.998Z</time></trkpt><trkpt lat="44.760885853577456" lon="9.940568936094046"><ele>518.1428571428571</ele><time>2026-05-02T18:55:48.998Z</time></trkpt><trkpt lat="44.76093832070694" lon="9.940485519693365"><ele>519.7142857142857</ele><time>2026-05-02T18:55:51.998Z</time></trkpt><trkpt lat="44.7609856810856" lon="9.940407645748474"><ele>521.2857142857142</ele><time>2026-05-02T18:55:54.998Z</time></trkpt><trkpt lat="44.761023155074525" lon="9.940322887503813"><ele>522.8571428571428</ele><time>2026-05-02T18:55:57.998Z</time></trkpt><trkpt lat="44.76102987562079" lon="9.940226952853134"><ele>524.4285714285714</ele><time>2026-05-02T18:56:00.998Z</time></trkpt><trkpt lat="44.761000755323536" lon="9.940137364617597"><ele>526.0</ele><time>2026-05-02T18:56:03.998Z</time></trkpt><trkpt lat="44.760940248308756" lon="9.940080157835352"><ele>526.0</ele><time>2026-05-02T18:56:06.998Z</time></trkpt><trkpt lat="44.760852653106554" lon="9.94008548091674"><ele>526.0</ele><time>2026-05-02T18:56:10.998Z</time></trkpt><trkpt lat="44.76078995655098" lon="9.94009983083925"><ele>526.0</ele><time>2026-05-02T18:56:12.998Z</time></trkpt><trkpt lat="44.760722026506855" lon="9.940129777764561"><ele>526.0</ele><time>2026-05-02T18:56:15.998Z</time></trkpt><trkpt lat="44.76065072484623" lon="9.940153586092412"><ele>526.0</ele><time>2026-05-02T18:56:18.998Z</time></trkpt><trkpt lat="44.760584091350324" lon="9.940181864669798"><ele>526.0</ele><time>2026-05-02T18:56:22Z</time></trkpt><trkpt lat="44.76051491355606" lon="9.94020711963825"><ele>526.0</ele><time>2026-05-02T18:56:25Z</time></trkpt><trkpt lat="44.760443624348106" lon="9.94022249455656"><ele>526.0</ele><time>2026-05-02T18:56:28Z</time></trkpt><trkpt lat="44.76037297193137" lon="9.940246160258404"><ele>526.0</ele><time>2026-05-02T18:56:31Z</time></trkpt><trkpt lat="44.76030361562356" lon="9.940276741170331"><ele>526.0</ele><time>2026-05-02T18:56:34Z</time></trkpt><trkpt lat="44.760233373744526" lon="9.940309223307192"><ele>526.0</ele><time>2026-05-02T18:56:37Z</time></trkpt><trkpt lat="44.76016737817094" lon="9.940359186798862"><ele>526.0</ele><time>2026-05-02T18:56:40Z</time></trkpt><trkpt lat="44.76010488103549" lon="9.940423434903472"><ele>526.0</ele><time>2026-05-02T18:56:43Z</time></trkpt><trkpt lat="44.760047175519695" lon="9.940493709853614"><ele>526.0</ele><time>2026-05-02T18:56:46Z</time></trkpt><trkpt lat="44.75999266219265" lon="9.94056400496376"><ele>527.0</ele><time>2026-05-02T18:56:49Z</time></trkpt><trkpt lat="44.75993882628433" lon="9.9406406467804"><ele>528.0</ele><time>2026-05-02T18:56:52Z</time></trkpt><trkpt lat="44.759885112525524" lon="9.940717668408574"><ele>529.0</ele><time>2026-05-02T18:56:54.999Z</time></trkpt><trkpt lat="44.7598385541668" lon="9.940795265218512"><ele>530.0</ele><time>2026-05-02T18:56:57.999Z</time></trkpt><trkpt lat="44.759787376375115" lon="9.940895664708156"><ele>531.0</ele><time>2026-05-02T18:57:01.999Z</time></trkpt><trkpt lat="44.75973895233262" lon="9.940973245641805"><ele>532.0</ele><time>2026-05-02T18:57:04.999Z</time></trkpt><trkpt lat="44.75968318048125" lon="9.941053219321784"><ele>532.0</ele><time>2026-05-02T18:57:07.999Z</time></trkpt><trkpt lat="44.75963023176888" lon="9.941140748621603"><ele>532.0</ele><time>2026-05-02T18:57:10.999Z</time></trkpt><trkpt lat="44.759581767804235" lon="9.941223482231294"><ele>532.0</ele><time>2026-05-02T18:57:13.999Z</time></trkpt><trkpt lat="44.7595416309778" lon="9.941313417283165"><ele>532.0</ele><time>2026-05-02T18:57:16.999Z</time></trkpt><trkpt lat="44.759501397123515" lon="9.94140650466749"><ele>532.0</ele><time>2026-05-02T18:57:19.999Z</time></trkpt><trkpt lat="44.75945974988053" lon="9.941489989033997"><ele>532.0</ele><time>2026-05-02T18:57:22.999Z</time></trkpt><trkpt lat="44.75942029467603" lon="9.941575687982201"><ele>532.0</ele><time>2026-05-02T18:57:25.999Z</time></trkpt><trkpt lat="44.75938375058065" lon="9.941664203745784"><ele>532.0</ele><time>2026-05-02T18:57:28.999Z</time></trkpt><trkpt lat="44.7593364036132" lon="9.941747472031082"><ele>532.0</ele><time>2026-05-02T18:57:31.999Z</time></trkpt><trkpt lat="44.75929825821928" lon="9.941838095742346"><ele>532.0</ele><time>2026-05-02T18:57:34.999Z</time></trkpt><trkpt lat="44.75925088748562" lon="9.941924077826377"><ele>532.0</ele><time>2026-05-02T18:57:37.999Z</time></trkpt><trkpt lat="44.75921440822399" lon="9.94201112460531"><ele>532.0</ele><time>2026-05-02T18:57:40.999Z</time></trkpt><trkpt lat="44.75918154855647" lon="9.942100432498114"><ele>532.0</ele><time>2026-05-02T18:57:43.999Z</time></trkpt><trkpt lat="44.75914703609957" lon="9.942193738988633"><ele>533.8571428571429</ele><time>2026-05-02T18:57:46.999Z</time></trkpt><trkpt lat="44.759128601619395" lon="9.942288341591219"><ele>535.7142857142858</ele><time>2026-05-02T18:57:49.999Z</time></trkpt><trkpt lat="44.7591104341968" lon="9.942395244409123"><ele>537.5714285714286</ele><time>2026-05-02T18:57:52.998Z</time></trkpt><trkpt lat="44.75909833412772" lon="9.942501080415202"><ele>539.4285714285714</ele><time>2026-05-02T18:57:55.998Z</time></trkpt><trkpt lat="44.759091532149526" lon="9.942603863972007"><ele>541.2857142857143</ele><time>2026-05-02T18:57:58.998Z</time></trkpt><trkpt lat="44.75909471310014" lon="9.942703204948698"><ele>543.1428571428571</ele><time>2026-05-02T18:58:01.998Z</time></trkpt><trkpt lat="44.75909939262052" lon="9.942815358365154"><ele>545.0</ele><time>2026-05-02T18:58:04.998Z</time></trkpt><trkpt lat="44.759097298535885" lon="9.94292002223729"><ele>545.0</ele><time>2026-05-02T18:58:07.998Z</time></trkpt><trkpt lat="44.759062514340506" lon="9.943008411539376"><ele>545.0</ele><time>2026-05-02T18:58:10.998Z</time></trkpt><trkpt lat="44.75899642687233" lon="9.94301061994294"><ele>545.0</ele><time>2026-05-02T18:58:13.998Z</time></trkpt><trkpt lat="44.75896416636522" lon="9.942899573094154"><ele>545.0</ele><time>2026-05-02T18:58:17.998Z</time></trkpt><trkpt lat="44.758953565327545" lon="9.942806230774098"><ele>545.0</ele><time>2026-05-02T18:58:20.998Z</time></trkpt><trkpt lat="44.75893896981341" lon="9.942712437889373"><ele>545.0</ele><time>2026-05-02T18:58:23.998Z</time></trkpt><trkpt lat="44.758930204479036" lon="9.942604983622674"><ele>545.0</ele><time>2026-05-02T18:58:28Z</time></trkpt><trkpt lat="44.758917766838465" lon="9.942492143361042"><ele>545.4285714285714</ele><time>2026-05-02T18:58:32Z</time></trkpt><trkpt lat="44.75891394028799" lon="9.942401849019292"><ele>545.8571428571429</ele><time>2026-05-02T18:58:35Z</time></trkpt><trkpt lat="44.758903031647684" lon="9.942288795680883"><ele>546.2857142857143</ele><time>2026-05-02T18:58:39Z</time></trkpt><trkpt lat="44.75890193176873" lon="9.94218912032993"><ele>546.7142857142858</ele><time>2026-05-02T18:58:43Z</time></trkpt><trkpt lat="44.75891054692713" lon="9.942093932863074"><ele>547.1428571428571</ele><time>2026-05-02T18:58:46Z</time></trkpt><trkpt lat="44.758920997684164" lon="9.941995051441612"><ele>547.5714285714287</ele><time>2026-05-02T18:58:49Z</time></trkpt><trkpt lat="44.75893355016456" lon="9.94188411573609"><ele>548.0</ele><time>2026-05-02T18:58:53Z</time></trkpt><trkpt lat="44.75895310502668" lon="9.941786118711018"><ele>549.3333333333333</ele><time>2026-05-02T18:58:55.999Z</time></trkpt><trkpt lat="44.75896906245437" lon="9.941687426223057"><ele>550.6666666666666</ele><time>2026-05-02T18:58:58.999Z</time></trkpt><trkpt lat="44.75898256525788" lon="9.94158625053581"><ele>552.0</ele><time>2026-05-02T18:59:02.999Z</time></trkpt><trkpt lat="44.75900211788185" lon="9.941492312270437"><ele>553.3333333333334</ele><time>2026-05-02T18:59:05.999Z</time></trkpt><trkpt lat="44.75902249386348" lon="9.941378970852329"><ele>554.6666666666667</ele><time>2026-05-02T18:59:08.999Z</time></trkpt><trkpt lat="44.759036251445465" lon="9.941269309036544"><ele>556.0</ele><time>2026-05-02T18:59:12.999Z</time></trkpt><trkpt lat="44.75905264877057" lon="9.941163621287645"><ele>556.0</ele><time>2026-05-02T18:59:15.999Z</time></trkpt><trkpt lat="44.759065595541166" lon="9.94105070355172"><ele>556.0</ele><time>2026-05-02T18:59:18.999Z</time></trkpt><trkpt lat="44.75906937870234" lon="9.94093719785441"><ele>556.0</ele><time>2026-05-02T18:59:22.999Z</time></trkpt><trkpt lat="44.7590735442923" lon="9.940840485316164"><ele>556.0</ele><time>2026-05-02T18:59:25.999Z</time></trkpt><trkpt lat="44.75906477805308" lon="9.940745157134941"><ele>556.0</ele><time>2026-05-02T18:59:28.999Z</time></trkpt><trkpt lat="44.75904260903304" lon="9.940631369772671"><ele>556.0</ele><time>2026-05-02T18:59:31.999Z</time></trkpt><trkpt lat="44.75902277153677" lon="9.940543588702102"><ele>556.0</ele><time>2026-05-02T18:59:34.999Z</time></trkpt><trkpt lat="44.75900711531633" lon="9.940434481936764"><ele>557.2857142857142</ele><time>2026-05-02T18:59:37.999Z</time></trkpt><trkpt lat="44.75901294061532" lon="9.9403333009306"><ele>558.5714285714286</ele><time>2026-05-02T18:59:40.999Z</time></trkpt><trkpt lat="44.7590358852384" lon="9.940235166597207"><ele>559.8571428571429</ele><time>2026-05-02T18:59:43.999Z</time></trkpt><trkpt lat="44.75907087993272" lon="9.9401482223996"><ele>561.1428571428571</ele><time>2026-05-02T18:59:46.999Z</time></trkpt><trkpt lat="44.759109919217934" lon="9.940059431710871"><ele>562.4285714285714</ele><time>2026-05-02T18:59:49.999Z</time></trkpt><trkpt lat="44.75914926883977" lon="9.93997435311785"><ele>563.7142857142857</ele><time>2026-05-02T18:59:52.999Z</time></trkpt><trkpt lat="44.75918129270193" lon="9.939885437929684"><ele>565.0</ele><time>2026-05-02T18:59:55.998Z</time></trkpt><trkpt lat="44.75920341647728" lon="9.939781342482624"><ele>565.5714285714286</ele><time>2026-05-02T18:59:58.998Z</time></trkpt><trkpt lat="44.75920804642147" lon="9.939679857199573"><ele>566.1428571428571</ele><time>2026-05-02T19:00:01.998Z</time></trkpt><trkpt lat="44.75920578187385" lon="9.93957704245619"><ele>566.7142857142858</ele><time>2026-05-02T19:00:04.998Z</time></trkpt><trkpt lat="44.759193053828945" lon="9.93947570065437"><ele>567.2857142857142</ele><time>2026-05-02T19:00:07.998Z</time></trkpt><trkpt lat="44.759176950747175" lon="9.939379372899396"><ele>567.8571428571429</ele><time>2026-05-02T19:00:10.998Z</time></trkpt><trkpt lat="44.75915091393262" lon="9.939284618242201"><ele>568.4285714285714</ele><time>2026-05-02T19:00:13.998Z</time></trkpt><trkpt lat="44.75912308896193" lon="9.93919605228052"><ele>569.0</ele><time>2026-05-02T19:00:16.998Z</time></trkpt><trkpt lat="44.75909049370716" lon="9.939110254186533"><ele>569.0000000000001</ele><time>2026-05-02T19:00:19.998Z</time></trkpt><trkpt lat="44.75904380379536" lon="9.939032033046844"><ele>569.0</ele><time>2026-05-02T19:00:22.998Z</time></trkpt><trkpt lat="44.75898707215415" lon="9.9389710466682"><ele>569.0</ele><time>2026-05-02T19:00:25.998Z</time></trkpt><trkpt lat="44.75892454154459" lon="9.938924179927684"><ele>569.0</ele><time>2026-05-02T19:00:28.998Z</time></trkpt><trkpt lat="44.75885523673667" lon="9.938902598150259"><ele>569.0</ele><time>2026-05-02T19:00:32.998Z</time></trkpt><trkpt lat="44.758792698667264" lon="9.938881433666149"><ele>569.0000000000001</ele><time>2026-05-02T19:00:36Z</time></trkpt><trkpt lat="44.75872769265852" lon="9.938870400680043"><ele>569.0</ele><time>2026-05-02T19:00:39Z</time></trkpt><trkpt lat="44.758655696484276" lon="9.938864808323881"><ele>569.0</ele><time>2026-05-02T19:00:42Z</time></trkpt><trkpt lat="44.75858462256659" lon="9.938863151286789"><ele>569.0</ele><time>2026-05-02T19:00:45Z</time></trkpt><trkpt lat="44.75850328062518" lon="9.938846726697035"><ele>569.0</ele><time>2026-05-02T19:00:48Z</time></trkpt><trkpt lat="44.75840720517164" lon="9.938783327763389"><ele>569.0</ele><time>2026-05-02T19:00:52Z</time></trkpt><trkpt lat="44.75835482173734" lon="9.938707511024086"><ele>569.0</ele><time>2026-05-02T19:00:55Z</time></trkpt><trkpt lat="44.75832369248745" lon="9.938612754350963"><ele>569.0</ele><time>2026-05-02T19:00:58Z</time></trkpt><trkpt lat="44.758312209737575" lon="9.938503922434238"><ele>571.6666666666666</ele><time>2026-05-02T19:01:00.999Z</time></trkpt><trkpt lat="44.758291994560985" lon="9.938405312396538"><ele>574.3333333333333</ele><time>2026-05-02T19:01:03.999Z</time></trkpt><trkpt lat="44.75827914424201" lon="9.938308739787264"><ele>577.0</ele><time>2026-05-02T19:01:06.999Z</time></trkpt><trkpt lat="44.758254042243415" lon="9.93821117348518"><ele>579.6666666666666</ele><time>2026-05-02T19:01:09.999Z</time></trkpt><trkpt lat="44.758217728383535" lon="9.938115041575164"><ele>582.3333333333334</ele><time>2026-05-02T19:01:12.999Z</time></trkpt><trkpt lat="44.7581768685033" lon="9.938027536727953"><ele>585.0</ele><time>2026-05-02T19:01:15.999Z</time></trkpt><trkpt lat="44.75811640268388" lon="9.937946125351457"><ele>585.0</ele><time>2026-05-02T19:01:18.999Z</time></trkpt><trkpt lat="44.75805544276905" lon="9.937861915945764"><ele>585.0</ele><time>2026-05-02T19:01:21.999Z</time></trkpt><trkpt lat="44.7580145159097" lon="9.937765949688105"><ele>585.0</ele><time>2026-05-02T19:01:24.999Z</time></trkpt><trkpt lat="44.75798627458555" lon="9.937650375859246"><ele>585.0</ele><time>2026-05-02T19:01:27.999Z</time></trkpt><trkpt lat="44.75796484324466" lon="9.937549216828634"><ele>585.0</ele><time>2026-05-02T19:01:30.999Z</time></trkpt><trkpt lat="44.75796187044512" lon="9.937442890087455"><ele>585.0</ele><time>2026-05-02T19:01:33.999Z</time></trkpt><trkpt lat="44.75795817246286" lon="9.937344613181548"><ele>584.5714285714286</ele><time>2026-05-02T19:01:36.999Z</time></trkpt><trkpt lat="44.757960015983535" lon="9.937237170862055"><ele>584.1428571428571</ele><time>2026-05-02T19:01:39.999Z</time></trkpt><trkpt lat="44.757971336513826" lon="9.937136630769535"><ele>583.7142857142857</ele><time>2026-05-02T19:01:42.999Z</time></trkpt><trkpt lat="44.75798266121704" lon="9.937049091663383"><ele>583.2857142857142</ele><time>2026-05-02T19:01:45.999Z</time></trkpt><trkpt lat="44.758001183193706" lon="9.936952703012832"><ele>582.8571428571428</ele><time>2026-05-02T19:01:48.999Z</time></trkpt><trkpt lat="44.758031233377345" lon="9.936867447585547"><ele>582.4285714285714</ele><time>2026-05-02T19:01:51.999Z</time></trkpt><trkpt lat="44.75806487521997" lon="9.936783026291785"><ele>582.0</ele><time>2026-05-02T19:01:54.999Z</time></trkpt><trkpt lat="44.75811604829543" lon="9.936679421775994"><ele>582.8571428571429</ele><time>2026-05-02T19:01:57.999Z</time></trkpt><trkpt lat="44.75816485453535" lon="9.936606950431015"><ele>583.7142857142857</ele><time>2026-05-02T19:02:00.998Z</time></trkpt><trkpt lat="44.75821975498937" lon="9.936546695512973"><ele>584.5714285714286</ele><time>2026-05-02T19:02:03.998Z</time></trkpt><trkpt lat="44.7582825951641" lon="9.93649790077644"><ele>585.4285714285714</ele><time>2026-05-02T19:02:06.998Z</time></trkpt><trkpt lat="44.75833620755849" lon="9.93644826882702"><ele>586.2857142857142</ele><time>2026-05-02T19:02:09.998Z</time></trkpt><trkpt lat="44.758378082978886" lon="9.936360873493715"><ele>587.1428571428571</ele><time>2026-05-02T19:02:12.998Z</time></trkpt><trkpt lat="44.75838677488546" lon="9.936255358178352"><ele>588.0</ele><time>2026-05-02T19:02:15.998Z</time></trkpt><trkpt lat="44.758360376145724" lon="9.936164253616006"><ele>588.0</ele><time>2026-05-02T19:02:18.998Z</time></trkpt><trkpt lat="44.75830790247446" lon="9.936093897356212"><ele>588.0</ele><time>2026-05-02T19:02:21.998Z</time></trkpt><trkpt lat="44.758239547707014" lon="9.936054608182397"><ele>588.0</ele><time>2026-05-02T19:02:24.998Z</time></trkpt><trkpt lat="44.75817452181933" lon="9.93602465555718"><ele>588.0</ele><time>2026-05-02T19:02:27.998Z</time></trkpt><trkpt lat="44.758110402022105" lon="9.936001443792586"><ele>588.0</ele><time>2026-05-02T19:02:30.998Z</time></trkpt><trkpt lat="44.758039967787575" lon="9.935982771899173"><ele>588.0</ele><time>2026-05-02T19:02:34.998Z</time></trkpt><trkpt lat="44.75795073398484" lon="9.935998241939421"><ele>588.0</ele><time>2026-05-02T19:02:38.998Z</time></trkpt><trkpt lat="44.757887595311956" lon="9.936029239060344"><ele>588.0</ele><time>2026-05-02T19:02:42Z</time></trkpt><trkpt lat="44.75782410096443" lon="9.936070167446136"><ele>588.0</ele><time>2026-05-02T19:02:45Z</time></trkpt><trkpt lat="44.75777415578391" lon="9.936126805457528"><ele>588.0</ele><time>2026-05-02T19:02:48Z</time></trkpt><trkpt lat="44.757725057164215" lon="9.936187338735776"><ele>588.0</ele><time>2026-05-02T19:02:51Z</time></trkpt><trkpt lat="44.75767429387423" lon="9.936277670336327"><ele>588.0</ele><time>2026-05-02T19:02:54Z</time></trkpt><trkpt lat="44.75762503714427" lon="9.936359355843415"><ele>588.0</ele><time>2026-05-02T19:02:57Z</time></trkpt><trkpt lat="44.75758167156508" lon="9.93644850629418"><ele>588.0</ele><time>2026-05-02T19:03:00Z</time></trkpt><trkpt lat="44.75754486427831" lon="9.936537308503915"><ele>591.1666666666666</ele><time>2026-05-02T19:03:03Z</time></trkpt><trkpt lat="44.75750563156844" lon="9.936634005834941"><ele>594.3333333333334</ele><time>2026-05-02T19:03:06Z</time></trkpt><trkpt lat="44.757468582414575" lon="9.936728758174295"><ele>597.5</ele><time>2026-05-02T19:03:08.999Z</time></trkpt><trkpt lat="44.75743442211305" lon="9.936828024999345"><ele>600.6666666666667</ele><time>2026-05-02T19:03:11.999Z</time></trkpt><trkpt lat="44.757400046210414" lon="9.936930324229237"><ele>603.8333333333334</ele><time>2026-05-02T19:03:14.999Z</time></trkpt><trkpt lat="44.75736097487812" lon="9.937033702558292"><ele>607.0</ele><time>2026-05-02T19:03:17.999Z</time></trkpt><trkpt lat="44.75732733301342" lon="9.937137264048866"><ele>607.0</ele><time>2026-05-02T19:03:20.999Z</time></trkpt><trkpt lat="44.75729473032758" lon="9.937231128912893"><ele>607.0</ele><time>2026-05-02T19:03:23.999Z</time></trkpt><trkpt lat="44.757258534682315" lon="9.937334326678217"><ele>607.0</ele><time>2026-05-02T19:03:26.999Z</time></trkpt><trkpt lat="44.7572242682794" lon="9.937437735218804"><ele>607.0</ele><time>2026-05-02T19:03:29.999Z</time></trkpt><trkpt lat="44.75719453052667" lon="9.937539152701147"><ele>607.0</ele><time>2026-05-02T19:03:32.999Z</time></trkpt><trkpt lat="44.75717720643694" lon="9.937650347550475"><ele>607.0</ele><time>2026-05-02T19:03:35.999Z</time></trkpt><trkpt lat="44.75716990750451" lon="9.937766856207665"><ele>608.0</ele><time>2026-05-02T19:03:38.999Z</time></trkpt><trkpt lat="44.75718278178409" lon="9.937884267861655"><ele>609.0</ele><time>2026-05-02T19:03:41.999Z</time></trkpt><trkpt lat="44.75720699541336" lon="9.938001432048138"><ele>610.0</ele><time>2026-05-02T19:03:44.999Z</time></trkpt><trkpt lat="44.757253353406696" lon="9.938105224062554"><ele>611.0</ele><time>2026-05-02T19:03:47.999Z</time></trkpt><trkpt lat="44.7573125225263" lon="9.938195929175485"><ele>612.0</ele><time>2026-05-02T19:03:50.999Z</time></trkpt><trkpt lat="44.75738039470766" lon="9.938282358604729"><ele>613.0</ele><time>2026-05-02T19:03:53.999Z</time></trkpt><trkpt lat="44.75743266527548" lon="9.938345256826155"><ele>612.6666666666667</ele><time>2026-05-02T19:03:56.999Z</time></trkpt><trkpt lat="44.75749407332679" lon="9.938424026305299"><ele>612.3333333333334</ele><time>2026-05-02T19:03:59.999Z</time></trkpt><trkpt lat="44.75755803541137" lon="9.938509734240453"><ele>612.0</ele><time>2026-05-02T19:04:02.999Z</time></trkpt><trkpt lat="44.757592274262365" lon="9.938615620084002"><ele>611.6666666666666</ele><time>2026-05-02T19:04:05.998Z</time></trkpt><trkpt lat="44.7575942454482" lon="9.938748838564065"><ele>611.3333333333333</ele><time>2026-05-02T19:04:09.998Z</time></trkpt><trkpt lat="44.75757396225305" lon="9.938847915778922"><ele>611.0</ele><time>2026-05-02T19:04:12.998Z</time></trkpt><trkpt lat="44.75753887745439" lon="9.938931877082842"><ele>611.0000000000001</ele><time>2026-05-02T19:04:15.998Z</time></trkpt><trkpt lat="44.75747045520008" lon="9.939007728750457"><ele>611.0</ele><time>2026-05-02T19:04:19.998Z</time></trkpt><trkpt lat="44.75740780207334" lon="9.93902016049297"><ele>611.0</ele><time>2026-05-02T19:04:22.998Z</time></trkpt><trkpt lat="44.75733917451178" lon="9.939010631780189"><ele>611.0</ele><time>2026-05-02T19:04:25.998Z</time></trkpt><trkpt lat="44.757271993179984" lon="9.9389852095776"><ele>611.0</ele><time>2026-05-02T19:04:28.998Z</time></trkpt><trkpt lat="44.75721441217836" lon="9.938937900080608"><ele>611.0000000000001</ele><time>2026-05-02T19:04:31.998Z</time></trkpt><trkpt lat="44.757160964872064" lon="9.938872353611679"><ele>611.0</ele><time>2026-05-02T19:04:34.998Z</time></trkpt><trkpt lat="44.75711698859999" lon="9.938794476639444"><ele>611.0000000000001</ele><time>2026-05-02T19:04:37.998Z</time></trkpt><trkpt lat="44.757079720673076" lon="9.938684053728673"><ele>611.0</ele><time>2026-05-02T19:04:40.998Z</time></trkpt><trkpt lat="44.75705300309595" lon="9.93858961194826"><ele>611.0</ele><time>2026-05-02T19:04:43.998Z</time></trkpt><trkpt lat="44.75703472156788" lon="9.938495909303459"><ele>611.0</ele><time>2026-05-02T19:04:47Z</time></trkpt><trkpt lat="44.75702240150369" lon="9.938403357146028"><ele>611.0</ele><time>2026-05-02T19:04:50Z</time></trkpt><trkpt lat="44.757005590465766" lon="9.93830910294181"><ele>611.0000000000001</ele><time>2026-05-02T19:04:53Z</time></trkpt><trkpt lat="44.75699247039172" lon="9.938209472546285"><ele>611.0</ele><time>2026-05-02T19:04:56Z</time></trkpt><trkpt lat="44.756977259225394" lon="9.938102165024016"><ele>611.3333333333333</ele><time>2026-05-02T19:04:59Z</time></trkpt><trkpt lat="44.75695539084692" lon="9.937979138427302"><ele>611.6666666666666</ele><time>2026-05-02T19:05:02Z</time></trkpt><trkpt lat="44.75693541506261" lon="9.937882103057591"><ele>612.0</ele><time>2026-05-02T19:05:05Z</time></trkpt><trkpt lat="44.75692027689141" lon="9.937796046371387"><ele>612.3333333333334</ele><time>2026-05-02T19:05:08Z</time></trkpt><trkpt lat="44.75690569983921" lon="9.937692223458273"><ele>612.6666666666667</ele><time>2026-05-02T19:05:10.999Z</time></trkpt><trkpt lat="44.75688570136537" lon="9.937585462776893"><ele>613.0</ele><time>2026-05-02T19:05:13.999Z</time></trkpt><trkpt lat="44.75686920803666" lon="9.937483833279156"><ele>612.1428571428571</ele><time>2026-05-02T19:05:16.999Z</time></trkpt><trkpt lat="44.75685527262913" lon="9.93738068770111"><ele>611.2857142857142</ele><time>2026-05-02T19:05:19.999Z</time></trkpt><trkpt lat="44.75685696866961" lon="9.937278492251625"><ele>610.4285714285713</ele><time>2026-05-02T19:05:22.999Z</time></trkpt><trkpt lat="44.75686044743078" lon="9.937170620564595"><ele>609.5714285714286</ele><time>2026-05-02T19:05:25.999Z</time></trkpt><trkpt lat="44.75686725248259" lon="9.937070906191186"><ele>608.7142857142857</ele><time>2026-05-02T19:05:28.999Z</time></trkpt><trkpt lat="44.75687306949074" lon="9.936973963672429"><ele>607.8571428571428</ele><time>2026-05-02T19:05:32.999Z</time></trkpt><trkpt lat="44.75681758391818" lon="9.937021515710784"><ele>607.0</ele><time>2026-05-02T19:05:39.999Z</time></trkpt><trkpt lat="44.75678572699801" lon="9.93713068626639"><ele>608.3333333333334</ele><time>2026-05-02T19:08:28.998Z</time></trkpt><trkpt lat="44.75678313883773" lon="9.937256641382922"><ele>609.6666666666667</ele><time>2026-05-02T19:08:31.998Z</time></trkpt><trkpt lat="44.756784658682726" lon="9.93735118181691"><ele>611.0</ele><time>2026-05-02T19:08:33.998Z</time></trkpt><trkpt lat="44.75680554589986" lon="9.937474245899065"><ele>612.3333333333334</ele><time>2026-05-02T19:08:36.998Z</time></trkpt><trkpt lat="44.75681929512384" lon="9.93757019310125"><ele>613.6666666666666</ele><time>2026-05-02T19:08:38.998Z</time></trkpt><trkpt lat="44.75683986583847" lon="9.937676082480662"><ele>615.0</ele><time>2026-05-02T19:08:40.998Z</time></trkpt><trkpt lat="44.756857670487996" lon="9.93779338432601"><ele>614.6</ele><time>2026-05-02T19:08:42.998Z</time></trkpt><trkpt lat="44.75688171709503" lon="9.937924841645042"><ele>614.2</ele><time>2026-05-02T19:08:44.998Z</time></trkpt><trkpt lat="44.75690788422086" lon="9.938073423146463"><ele>613.8</ele><time>2026-05-02T19:08:46.998Z</time></trkpt><trkpt lat="44.75692848694956" lon="9.938227291363745"><ele>613.4</ele><time>2026-05-02T19:08:48.998Z</time></trkpt><trkpt lat="44.75695528505164" lon="9.93839815744442"><ele>613.0</ele><time>2026-05-02T19:08:50.998Z</time></trkpt><trkpt lat="44.75697878645713" lon="9.93856888268354"><ele>612.6666666666667</ele><time>2026-05-02T19:08:52.998Z</time></trkpt><trkpt lat="44.756995607406424" lon="9.938657167811115"><ele>612.3333333333334</ele><time>2026-05-02T19:08:53.998Z</time></trkpt><trkpt lat="44.757053402225814" lon="9.938810376855988"><ele>612.0</ele><time>2026-05-02T19:08:55.998Z</time></trkpt><trkpt lat="44.75709303091948" lon="9.93888622989792"><ele>611.6666666666666</ele><time>2026-05-02T19:08:57Z</time></trkpt><trkpt lat="44.75714467062638" lon="9.938952293235356"><ele>611.3333333333333</ele><time>2026-05-02T19:08:58Z</time></trkpt><trkpt lat="44.7572053089633" lon="9.939007288205126"><ele>611.0</ele><time>2026-05-02T19:08:59Z</time></trkpt><trkpt lat="44.757262636670475" lon="9.939047632441824"><ele>611.0</ele><time>2026-05-02T19:09:00Z</time></trkpt><trkpt lat="44.75738880257425" lon="9.93909070017582"><ele>611.0</ele><time>2026-05-02T19:09:02Z</time></trkpt><trkpt lat="44.75745418329201" lon="9.939079829415228"><ele>611.0</ele><time>2026-05-02T19:09:03Z</time></trkpt><trkpt lat="44.75751184436778" lon="9.939043581918451"><ele>611.0</ele><time>2026-05-02T19:09:04Z</time></trkpt><trkpt lat="44.757561196569426" lon="9.93898209440306"><ele>611.0</ele><time>2026-05-02T19:09:05Z</time></trkpt><trkpt lat="44.75760237354476" lon="9.938909383954007"><ele>611.0</ele><time>2026-05-02T19:09:06Z</time></trkpt><trkpt lat="44.75763247970996" lon="9.938822185954447"><ele>611.0</ele><time>2026-05-02T19:09:07Z</time></trkpt><trkpt lat="44.757643908319444" lon="9.93872783877974"><ele>611.0</ele><time>2026-05-02T19:09:08Z</time></trkpt><trkpt lat="44.757638976650966" lon="9.938636138664307"><ele>611.0</ele><time>2026-05-02T19:09:09Z</time></trkpt><trkpt lat="44.75760096380559" lon="9.938467193651961"><ele>611.0</ele><time>2026-05-02T19:09:11Z</time></trkpt><trkpt lat="44.75749829287009" lon="9.938366904857984"><ele>611.0</ele><time>2026-05-02T19:09:13Z</time></trkpt><trkpt lat="44.75739951641911" lon="9.9382665774338"><ele>611.3333333333333</ele><time>2026-05-02T19:09:15Z</time></trkpt><trkpt lat="44.75730107326344" lon="9.93816049801081"><ele>611.6666666666666</ele><time>2026-05-02T19:09:17Z</time></trkpt><trkpt lat="44.75725824081413" lon="9.938089855684371"><ele>612.0</ele><time>2026-05-02T19:09:17.999Z</time></trkpt><trkpt lat="44.757227811800476" lon="9.938007941797686"><ele>612.3333333333334</ele><time>2026-05-02T19:09:18.999Z</time></trkpt><trkpt lat="44.757206444686624" lon="9.937920801872771"><ele>612.6666666666667</ele><time>2026-05-02T19:09:19.999Z</time></trkpt><trkpt lat="44.75719693353337" lon="9.937827777811792"><ele>613.0</ele><time>2026-05-02T19:09:20.999Z</time></trkpt><trkpt lat="44.75720369135041" lon="9.937730235722949"><ele>613.0</ele><time>2026-05-02T19:09:21.999Z</time></trkpt><trkpt lat="44.757218795516636" lon="9.937632330301472"><ele>613.0</ele><time>2026-05-02T19:09:22.999Z</time></trkpt><trkpt lat="44.757243423878876" lon="9.937534150879271"><ele>613.0</ele><time>2026-05-02T19:09:23.999Z</time></trkpt><trkpt lat="44.75727317316484" lon="9.937437915637968"><ele>613.0</ele><time>2026-05-02T19:09:24.999Z</time></trkpt><trkpt lat="44.75730756687822" lon="9.93734106270962"><ele>613.0</ele><time>2026-05-02T19:09:25.999Z</time></trkpt><trkpt lat="44.757341723951576" lon="9.937243711267387"><ele>613.0</ele><time>2026-05-02T19:09:26.999Z</time></trkpt><trkpt lat="44.75737561150028" lon="9.937143077847923"><ele>612.8333333333334</ele><time>2026-05-02T19:09:27.999Z</time></trkpt><trkpt lat="44.75741194964656" lon="9.9370418903389"><ele>612.6666666666667</ele><time>2026-05-02T19:09:28.999Z</time></trkpt><trkpt lat="44.75744802512775" lon="9.93693860365015"><ele>612.5</ele><time>2026-05-02T19:09:29.999Z</time></trkpt><trkpt lat="44.75748204567027" lon="9.93683639918692"><ele>612.3333333333334</ele><time>2026-05-02T19:09:30.999Z</time></trkpt><trkpt lat="44.75751574710592" lon="9.936736156189598"><ele>612.1666666666666</ele><time>2026-05-02T19:09:31.999Z</time></trkpt><trkpt lat="44.75755034648414" lon="9.936638349038178"><ele>612.0</ele><time>2026-05-02T19:09:32.999Z</time></trkpt><trkpt lat="44.757587390006236" lon="9.936541918941233"><ele>612.0</ele><time>2026-05-02T19:09:33.999Z</time></trkpt><trkpt lat="44.757625974572534" lon="9.936444900379007"><ele>612.0</ele><time>2026-05-02T19:09:34.999Z</time></trkpt><trkpt lat="44.75766721079276" lon="9.936350872653689"><ele>612.0</ele><time>2026-05-02T19:09:35.999Z</time></trkpt><trkpt lat="44.75771376417963" lon="9.936260326326249"><ele>612.0</ele><time>2026-05-02T19:09:36.999Z</time></trkpt><trkpt lat="44.7577709462714" lon="9.936180931840836"><ele>612.0</ele><time>2026-05-02T19:09:37.999Z</time></trkpt><trkpt lat="44.757834247270814" lon="9.936104781823852"><ele>612.0</ele><time>2026-05-02T19:09:38.999Z</time></trkpt><trkpt lat="44.7579028104182" lon="9.936052406857387"><ele>608.0</ele><time>2026-05-02T19:09:39.999Z</time></trkpt><trkpt lat="44.75797844011301" lon="9.936025914744924"><ele>604.0</ele><time>2026-05-02T19:09:40.999Z</time></trkpt><trkpt lat="44.758052723139855" lon="9.936024836563055"><ele>600.0</ele><time>2026-05-02T19:09:41.999Z</time></trkpt><trkpt lat="44.75812546351387" lon="9.93604442305868"><ele>596.0</ele><time>2026-05-02T19:09:42.999Z</time></trkpt><trkpt lat="44.75819204970789" lon="9.936069254194106"><ele>592.0</ele><time>2026-05-02T19:09:43.999Z</time></trkpt><trkpt lat="44.758298219116654" lon="9.936137887100468"><ele>588.0</ele><time>2026-05-02T19:09:45.999Z</time></trkpt><trkpt lat="44.7583644037994" lon="9.936254877775646"><ele>588.0</ele><time>2026-05-02T19:09:47.999Z</time></trkpt><trkpt lat="44.75835729211927" lon="9.936345014067513"><ele>588.0</ele><time>2026-05-02T19:09:48.999Z</time></trkpt><trkpt lat="44.75828994958255" lon="9.936396753580015"><ele>588.0</ele><time>2026-05-02T19:09:49.999Z</time></trkpt><trkpt lat="44.7582262142671" lon="9.93642851167896"><ele>588.0</ele><time>2026-05-02T19:09:50.999Z</time></trkpt><trkpt lat="44.75815989663251" lon="9.93648191017989"><ele>588.0</ele><time>2026-05-02T19:09:51.999Z</time></trkpt><trkpt lat="44.75809895046341" lon="9.936560286092353"><ele>588.0</ele><time>2026-05-02T19:09:52.999Z</time></trkpt><trkpt lat="44.7580438788644" lon="9.936648532879758"><ele>587.0</ele><time>2026-05-02T19:09:53.999Z</time></trkpt><trkpt lat="44.75799490987121" lon="9.936751881104064"><ele>586.0</ele><time>2026-05-02T19:09:54.999Z</time></trkpt><trkpt lat="44.75795571658593" lon="9.936861376309182"><ele>585.0</ele><time>2026-05-02T19:09:55.999Z</time></trkpt><trkpt lat="44.75792499521983" lon="9.936979404042637"><ele>584.0</ele><time>2026-05-02T19:09:56.999Z</time></trkpt><trkpt lat="44.75790435033652" lon="9.937103434028437"><ele>583.0</ele><time>2026-05-02T19:09:57.999Z</time></trkpt><trkpt lat="44.75788644069091" lon="9.937231834148582"><ele>582.0</ele><time>2026-05-02T19:09:58.999Z</time></trkpt><trkpt lat="44.757882123460234" lon="9.937362668262981"><ele>582.0</ele><time>2026-05-02T19:09:59.999Z</time></trkpt><trkpt lat="44.757890311795784" lon="9.937493931198784"><ele>582.0</ele><time>2026-05-02T19:10:00.999Z</time></trkpt><trkpt lat="44.75792377903989" lon="9.937613644140287"><ele>582.0</ele><time>2026-05-02T19:10:01.999Z</time></trkpt><trkpt lat="44.75794697447139" lon="9.937725328193787"><ele>582.0</ele><time>2026-05-02T19:10:02.999Z</time></trkpt><trkpt lat="44.75798660004833" lon="9.937825972414903"><ele>582.0</ele><time>2026-05-02T19:10:03.999Z</time></trkpt><trkpt lat="44.75803852044296" lon="9.937920657824494"><ele>582.0</ele><time>2026-05-02T19:10:04.999Z</time></trkpt><trkpt lat="44.75809636926465" lon="9.93800794263274"><ele>582.5</ele><time>2026-05-02T19:10:05.999Z</time></trkpt><trkpt lat="44.758152851133524" lon="9.938093213986194"><ele>583.0</ele><time>2026-05-02T19:10:06.999Z</time></trkpt><trkpt lat="44.758194826720015" lon="9.93819169093882"><ele>583.5</ele><time>2026-05-02T19:10:07.999Z</time></trkpt><trkpt lat="44.7582205740483" lon="9.938303307596343"><ele>584.0</ele><time>2026-05-02T19:10:08.999Z</time></trkpt><trkpt lat="44.75823825712442" lon="9.938417115894813"><ele>584.5</ele><time>2026-05-02T19:10:09.999Z</time></trkpt><trkpt lat="44.75825142556059" lon="9.938531472621266"><ele>585.0</ele><time>2026-05-02T19:10:10.999Z</time></trkpt><trkpt lat="44.758269849666334" lon="9.938637752422798"><ele>586.1666666666666</ele><time>2026-05-02T19:10:11.999Z</time></trkpt><trkpt lat="44.7583063973099" lon="9.938732741823529"><ele>587.3333333333334</ele><time>2026-05-02T19:10:12.999Z</time></trkpt><trkpt lat="44.758358827197405" lon="9.938811437517282"><ele>588.5</ele><time>2026-05-02T19:10:13.999Z</time></trkpt><trkpt lat="44.758426781403024" lon="9.938868280089977"><ele>589.6666666666667</ele><time>2026-05-02T19:10:14.999Z</time></trkpt><trkpt lat="44.758506475344085" lon="9.938900196176776"><ele>590.8333333333334</ele><time>2026-05-02T19:10:15.998Z</time></trkpt><trkpt lat="44.758591911887294" lon="9.938912557955836"><ele>592.0</ele><time>2026-05-02T19:10:16.998Z</time></trkpt><trkpt lat="44.75868262673791" lon="9.938913618824367"><ele>588.3333333333334</ele><time>2026-05-02T19:10:17.998Z</time></trkpt><trkpt lat="44.75877493264364" lon="9.938917169967104"><ele>584.6666666666667</ele><time>2026-05-02T19:10:18.998Z</time></trkpt><trkpt lat="44.758862633205254" lon="9.938934497044718"><ele>581.0</ele><time>2026-05-02T19:10:19.998Z</time></trkpt><trkpt lat="44.758937805985354" lon="9.93898732057931"><ele>577.3333333333334</ele><time>2026-05-02T19:10:20.998Z</time></trkpt><trkpt lat="44.759001652028566" lon="9.939060634836633"><ele>573.6666666666666</ele><time>2026-05-02T19:10:21.998Z</time></trkpt><trkpt lat="44.759051691998245" lon="9.939160549601308"><ele>570.0</ele><time>2026-05-02T19:10:22.998Z</time></trkpt><trkpt lat="44.759093531980895" lon="9.939274004751793"><ele>570.0</ele><time>2026-05-02T19:10:23.998Z</time></trkpt><trkpt lat="44.75912861375668" lon="9.939399188098939"><ele>570.0</ele><time>2026-05-02T19:10:24.998Z</time></trkpt><trkpt lat="44.759152409587664" lon="9.939523846621988"><ele>570.0</ele><time>2026-05-02T19:10:25.998Z</time></trkpt><trkpt lat="44.75916052655914" lon="9.939644630928305"><ele>570.0</ele><time>2026-05-02T19:10:26.998Z</time></trkpt><trkpt lat="44.75915562988287" lon="9.93975748027311"><ele>570.0</ele><time>2026-05-02T19:10:27.998Z</time></trkpt><trkpt lat="44.759126913969425" lon="9.939866816687438"><ele>570.0</ele><time>2026-05-02T19:10:28.998Z</time></trkpt><trkpt lat="44.75908167025559" lon="9.939967127118111"><ele>569.0</ele><time>2026-05-02T19:10:29.998Z</time></trkpt><trkpt lat="44.75902867002475" lon="9.940066708686942"><ele>568.0</ele><time>2026-05-02T19:10:30.998Z</time></trkpt><trkpt lat="44.75898547722885" lon="9.940172279215203"><ele>567.0</ele><time>2026-05-02T19:10:31.998Z</time></trkpt><trkpt lat="44.75894561272319" lon="9.940282924695722"><ele>566.0</ele><time>2026-05-02T19:10:32.998Z</time></trkpt><trkpt lat="44.758965286861134" lon="9.94041705203083"><ele>565.0</ele><time>2026-05-02T19:10:33.998Z</time></trkpt><trkpt lat="44.75898863399843" lon="9.940544970997326"><ele>565.0</ele><time>2026-05-02T19:10:34.998Z</time></trkpt><trkpt lat="44.75901967096556" lon="9.940672762190298"><ele>565.0</ele><time>2026-05-02T19:10:35.998Z</time></trkpt><trkpt lat="44.75902945839421" lon="9.940809884885333"><ele>565.0</ele><time>2026-05-02T19:10:36.998Z</time></trkpt><trkpt lat="44.75902546542879" lon="9.940946687093012"><ele>565.0</ele><time>2026-05-02T19:10:37.998Z</time></trkpt><trkpt lat="44.75900704961737" lon="9.941080793963717"><ele>565.0</ele><time>2026-05-02T19:10:38.998Z</time></trkpt><trkpt lat="44.75898749503062" lon="9.941215334160189"><ele>563.2</ele><time>2026-05-02T19:10:39.998Z</time></trkpt><trkpt lat="44.758966199124586" lon="9.941352568798628"><ele>561.4</ele><time>2026-05-02T19:10:40.998Z</time></trkpt><trkpt lat="44.758939379188874" lon="9.941484705594693"><ele>559.6</ele><time>2026-05-02T19:10:41.998Z</time></trkpt><trkpt lat="44.7589080265599" lon="9.941616869646914"><ele>557.8</ele><time>2026-05-02T19:10:42.998Z</time></trkpt><trkpt lat="44.7588800337415" lon="9.941753730324614"><ele>556.0</ele><time>2026-05-02T19:10:43.998Z</time></trkpt><trkpt lat="44.758858998178134" lon="9.941891380296868"><ele>554.4</ele><time>2026-05-02T19:10:44.998Z</time></trkpt><trkpt lat="44.7588447027332" lon="9.942032717618215"><ele>552.8</ele><time>2026-05-02T19:10:45.998Z</time></trkpt><trkpt lat="44.75883950114055" lon="9.942174983071363"><ele>551.1999999999999</ele><time>2026-05-02T19:10:46.998Z</time></trkpt><trkpt lat="44.75884501746453" lon="9.942316169904101"><ele>549.6</ele><time>2026-05-02T19:10:47.998Z</time></trkpt><trkpt lat="44.758858146653566" lon="9.942453508159238"><ele>548.0</ele><time>2026-05-02T19:10:48.998Z</time></trkpt><trkpt lat="44.75887606419682" lon="9.942585675776272"><ele>547.4</ele><time>2026-05-02T19:10:49.998Z</time></trkpt><trkpt lat="44.75889571358953" lon="9.942706735280881"><ele>546.8</ele><time>2026-05-02T19:10:50.998Z</time></trkpt><trkpt lat="44.75891367874879" lon="9.942811474864113"><ele>546.2</ele><time>2026-05-02T19:10:51.998Z</time></trkpt><trkpt lat="44.75892752207539" lon="9.942903119729118"><ele>545.6</ele><time>2026-05-02T19:10:52.998Z</time></trkpt><trkpt lat="44.75896710136797" lon="9.94305917880428"><ele>545.0</ele><time>2026-05-02T19:10:54.998Z</time></trkpt><trkpt lat="44.75906488304611" lon="9.943107272659395"><ele>545.0</ele><time>2026-05-02T19:10:56.998Z</time></trkpt><trkpt lat="44.75911460232843" lon="9.943052581673522"><ele>545.0</ele><time>2026-05-02T19:10:57.998Z</time></trkpt><trkpt lat="44.75913371217368" lon="9.942967941922657"><ele>545.0</ele><time>2026-05-02T19:10:58.998Z</time></trkpt><trkpt lat="44.75912983190057" lon="9.942870619823744"><ele>545.0</ele><time>2026-05-02T19:10:59.998Z</time></trkpt><trkpt lat="44.75912065874017" lon="9.942774243613421"><ele>545.0</ele><time>2026-05-02T19:11:00.998Z</time></trkpt><trkpt lat="44.75911410445358" lon="9.942669522857466"><ele>545.0</ele><time>2026-05-02T19:11:01.998Z</time></trkpt><trkpt lat="44.75911378869925" lon="9.942561399865776"><ele>545.0</ele><time>2026-05-02T19:11:03Z</time></trkpt><trkpt lat="44.75912219498921" lon="9.942448882369268"><ele>545.5</ele><time>2026-05-02T19:11:04Z</time></trkpt><trkpt lat="44.7591378263395" lon="9.942335508855715"><ele>546.0</ele><time>2026-05-02T19:11:05Z</time></trkpt><trkpt lat="44.7591657969917" lon="9.942225698994537"><ele>546.5</ele><time>2026-05-02T19:11:06Z</time></trkpt><trkpt lat="44.75920757515832" lon="9.942118264469084"><ele>547.0</ele><time>2026-05-02T19:11:07Z</time></trkpt><trkpt lat="44.75925510831906" lon="9.942013956002699"><ele>547.5</ele><time>2026-05-02T19:11:08Z</time></trkpt><trkpt lat="44.759304257006676" lon="9.941910393043324"><ele>548.0</ele><time>2026-05-02T19:11:09Z</time></trkpt><trkpt lat="44.75935533190656" lon="9.941804193815095"><ele>544.8</ele><time>2026-05-02T19:11:10Z</time></trkpt><trkpt lat="44.75940821067684" lon="9.941696597023158"><ele>541.5999999999999</ele><time>2026-05-02T19:11:11Z</time></trkpt><trkpt lat="44.759462091418236" lon="9.941594540082782"><ele>538.4000000000001</ele><time>2026-05-02T19:11:12Z</time></trkpt><trkpt lat="44.7595171405329" lon="9.94149138217368"><ele>535.2</ele><time>2026-05-02T19:11:13Z</time></trkpt><trkpt lat="44.759569945960166" lon="9.94138425387961"><ele>532.0</ele><time>2026-05-02T19:11:14Z</time></trkpt><trkpt lat="44.75962177637819" lon="9.941274683522312"><ele>532.0</ele><time>2026-05-02T19:11:15Z</time></trkpt><trkpt lat="44.759679746064" lon="9.941169242885515"><ele>532.0</ele><time>2026-05-02T19:11:16Z</time></trkpt><trkpt lat="44.75973847171945" lon="9.941067186319703"><ele>532.0</ele><time>2026-05-02T19:11:17Z</time></trkpt><trkpt lat="44.75979876907649" lon="9.940963932846238"><ele>532.0</ele><time>2026-05-02T19:11:18Z</time></trkpt><trkpt lat="44.75986256133743" lon="9.940863404351573"><ele>532.0</ele><time>2026-05-02T19:11:19Z</time></trkpt><trkpt lat="44.75992578357713" lon="9.940764335608845"><ele>530.8000000000001</ele><time>2026-05-02T19:11:20Z</time></trkpt><trkpt lat="44.759986676039844" lon="9.94066793841825"><ele>529.6</ele><time>2026-05-02T19:11:20.999Z</time></trkpt><trkpt lat="44.76004870084065" lon="9.940576217257686"><ele>528.4000000000001</ele><time>2026-05-02T19:11:21.999Z</time></trkpt><trkpt lat="44.76011234647635" lon="9.940482562252155"><ele>527.2</ele><time>2026-05-02T19:11:22.999Z</time></trkpt><trkpt lat="44.760181295481054" lon="9.940400782581106"><ele>526.0</ele><time>2026-05-02T19:11:23.999Z</time></trkpt><trkpt lat="44.760261259087294" lon="9.940343234034442"><ele>526.0</ele><time>2026-05-02T19:11:24.999Z</time></trkpt><trkpt lat="44.76034801750049" lon="9.940301819477295"><ele>526.0</ele><time>2026-05-02T19:11:25.999Z</time></trkpt><trkpt lat="44.760440229464805" lon="9.940275331425847"><ele>526.0</ele><time>2026-05-02T19:11:26.999Z</time></trkpt><trkpt lat="44.760532698405704" lon="9.940241619161226"><ele>526.0</ele><time>2026-05-02T19:11:27.999Z</time></trkpt><trkpt lat="44.76062641546822" lon="9.940200178219206"><ele>526.0</ele><time>2026-05-02T19:11:28.999Z</time></trkpt><trkpt lat="44.76071954960908" lon="9.94015664613903"><ele>526.0</ele><time>2026-05-02T19:11:29.999Z</time></trkpt><trkpt lat="44.76080708848221" lon="9.94011323021222"><ele>526.0</ele><time>2026-05-02T19:11:30.999Z</time></trkpt><trkpt lat="44.76088359747481" lon="9.940091183025364"><ele>526.0</ele><time>2026-05-02T19:11:31.999Z</time></trkpt><trkpt lat="44.76099233932304" lon="9.940134813665447"><ele>526.0</ele><time>2026-05-02T19:11:33.999Z</time></trkpt><trkpt lat="44.76097943769899" lon="9.940305933861515"><ele>526.0</ele><time>2026-05-02T19:11:35.999Z</time></trkpt><trkpt lat="44.760931516873406" lon="9.940375441333032"><ele>526.0</ele><time>2026-05-02T19:11:36.999Z</time></trkpt><trkpt lat="44.760881447344694" lon="9.940450004975686"><ele>526.0</ele><time>2026-05-02T19:11:37.999Z</time></trkpt><trkpt lat="44.76083034761689" lon="9.940527066487375"><ele>526.0</ele><time>2026-05-02T19:11:38.999Z</time></trkpt><trkpt lat="44.76077616443578" lon="9.940608778035879"><ele>526.0</ele><time>2026-05-02T19:11:39.999Z</time></trkpt><trkpt lat="44.760720092644334" lon="9.940693337726929"><ele>526.0</ele><time>2026-05-02T19:11:40.999Z</time></trkpt><trkpt lat="44.76066218184084" lon="9.940780670755546"><ele>526.0</ele><time>2026-05-02T19:11:41.999Z</time></trkpt><trkpt lat="44.760603781411476" lon="9.94087770639402"><ele>523.8</ele><time>2026-05-02T19:11:42.999Z</time></trkpt><trkpt lat="44.76054980201944" lon="9.940985329557776"><ele>521.6</ele><time>2026-05-02T19:11:43.999Z</time></trkpt><trkpt lat="44.760505767026466" lon="9.941098447543173"><ele>519.4</ele><time>2026-05-02T19:11:44.999Z</time></trkpt><trkpt lat="44.760470048885296" lon="9.941217625333493"><ele>517.2</ele><time>2026-05-02T19:11:45.999Z</time></trkpt><trkpt lat="44.76044068847151" lon="9.94134509521993"><ele>515.0</ele><time>2026-05-02T19:11:46.999Z</time></trkpt><trkpt lat="44.760429174272645" lon="9.941475612049313"><ele>515.0</ele><time>2026-05-02T19:11:47.999Z</time></trkpt><trkpt lat="44.760387000429134" lon="9.941592336803117"><ele>515.0</ele><time>2026-05-02T19:11:48.999Z</time></trkpt><trkpt lat="44.7603781558092" lon="9.941719740764144"><ele>515.0</ele><time>2026-05-02T19:11:49.999Z</time></trkpt><trkpt lat="44.76035487360944" lon="9.941838247997755"><ele>515.0</ele><time>2026-05-02T19:11:50.999Z</time></trkpt><trkpt lat="44.76031784315863" lon="9.941953697535745"><ele>515.0</ele><time>2026-05-02T19:11:51.999Z</time></trkpt><trkpt lat="44.76029636114055" lon="9.942073771400414"><ele>515.0</ele><time>2026-05-02T19:11:52.999Z</time></trkpt><trkpt lat="44.76027815726755" lon="9.942191092583426"><ele>515.0</ele><time>2026-05-02T19:11:53.999Z</time></trkpt><trkpt lat="44.760261280925924" lon="9.942303273512033"><ele>515.0</ele><time>2026-05-02T19:11:54.999Z</time></trkpt><trkpt lat="44.760248140876875" lon="9.942413876735534"><ele>515.0</ele><time>2026-05-02T19:11:55.999Z</time></trkpt><trkpt lat="44.76024017177526" lon="9.942521797731333"><ele>515.0</ele><time>2026-05-02T19:11:56.999Z</time></trkpt><trkpt lat="44.76025381215155" lon="9.942634306114021"><ele>515.0</ele><time>2026-05-02T19:11:57.999Z</time></trkpt><trkpt lat="44.76030683639874" lon="9.942728171402992"><ele>515.0</ele><time>2026-05-02T19:11:58.999Z</time></trkpt><trkpt lat="44.76035480483583" lon="9.942818471747346"><ele>515.0</ele><time>2026-05-02T19:11:59.999Z</time></trkpt><trkpt lat="44.76040791372091" lon="9.942908156866624"><ele>515.0</ele><time>2026-05-02T19:12:00.999Z</time></trkpt><trkpt lat="44.760461167181525" lon="9.943002456776593"><ele>515.0</ele><time>2026-05-02T19:12:01.999Z</time></trkpt><trkpt lat="44.76050618095317" lon="9.943108303524943"><ele>515.0</ele><time>2026-05-02T19:12:02.999Z</time></trkpt><trkpt lat="44.76054305434273" lon="9.943225633147712"><ele>515.0</ele><time>2026-05-02T19:12:03.999Z</time></trkpt><trkpt lat="44.76057474394627" lon="9.94334794391615"><ele>515.0</ele><time>2026-05-02T19:12:04.999Z</time></trkpt><trkpt lat="44.76060207695291" lon="9.943473676212415"><ele>514.1666666666666</ele><time>2026-05-02T19:12:05.999Z</time></trkpt><trkpt lat="44.760631409961896" lon="9.943603078176828"><ele>513.3333333333333</ele><time>2026-05-02T19:12:06.999Z</time></trkpt><trkpt lat="44.76065882294869" lon="9.94372807801476"><ele>512.5</ele><time>2026-05-02T19:12:07.999Z</time></trkpt><trkpt lat="44.76068351068865" lon="9.943839731205161"><ele>511.66666666666663</ele><time>2026-05-02T19:12:08.999Z</time></trkpt><trkpt lat="44.760720034832914" lon="9.943942411290084"><ele>510.8333333333333</ele><time>2026-05-02T19:12:09.999Z</time></trkpt><trkpt lat="44.760768538824074" lon="9.944028513807512"><ele>510.0</ele><time>2026-05-02T19:12:10.999Z</time></trkpt><trkpt lat="44.760825297686786" lon="9.944076755787597"><ele>510.0</ele><time>2026-05-02T19:12:11.999Z</time></trkpt><trkpt lat="44.76093954478806" lon="9.94405376390075"><ele>510.0</ele><time>2026-05-02T19:12:13.999Z</time></trkpt><trkpt lat="44.760976671134515" lon="9.943968312195953"><ele>510.0</ele><time>2026-05-02T19:12:14.999Z</time></trkpt><trkpt lat="44.76099946238181" lon="9.9438727838977"><ele>510.0</ele><time>2026-05-02T19:12:15.999Z</time></trkpt><trkpt lat="44.76102407527422" lon="9.943777413762811"><ele>510.0</ele><time>2026-05-02T19:12:16.999Z</time></trkpt><trkpt lat="44.76104591334823" lon="9.943678454879095"><ele>510.0</ele><time>2026-05-02T19:12:17.999Z</time></trkpt><trkpt lat="44.76105963610068" lon="9.943571017765082"><ele>510.8333333333333</ele><time>2026-05-02T19:12:18.999Z</time></trkpt><trkpt lat="44.76106497974127" lon="9.943460427311564"><ele>511.66666666666663</ele><time>2026-05-02T19:12:19.998Z</time></trkpt><trkpt lat="44.761060239163605" lon="9.943345022911236"><ele>512.5</ele><time>2026-05-02T19:12:20.998Z</time></trkpt><trkpt lat="44.761040736584434" lon="9.943228920981415"><ele>513.3333333333333</ele><time>2026-05-02T19:12:21.998Z</time></trkpt><trkpt lat="44.76100944619221" lon="9.94311524883051"><ele>514.1666666666666</ele><time>2026-05-02T19:12:22.998Z</time></trkpt><trkpt lat="44.7609791323456" lon="9.943001232187736"><ele>515.0</ele><time>2026-05-02T19:12:23.998Z</time></trkpt><trkpt lat="44.76096550872564" lon="9.942890113878036"><ele>515.0</ele><time>2026-05-02T19:12:24.998Z</time></trkpt><trkpt lat="44.76096370583117" lon="9.942774515293133"><ele>515.0</ele><time>2026-05-02T19:12:25.998Z</time></trkpt><trkpt lat="44.76098425085367" lon="9.942666350952539"><ele>515.0</ele><time>2026-05-02T19:12:26.998Z</time></trkpt><trkpt lat="44.76102158397125" lon="9.94256382067253"><ele>515.0</ele><time>2026-05-02T19:12:27.998Z</time></trkpt><trkpt lat="44.76106933295089" lon="9.942463389015263"><ele>515.0</ele><time>2026-05-02T19:12:28.998Z</time></trkpt><trkpt lat="44.76111718268153" lon="9.942363469802029"><ele>515.0</ele><time>2026-05-02T19:12:29.998Z</time></trkpt><trkpt lat="44.76116381695255" lon="9.942262949182135"><ele>511.66666666666663</ele><time>2026-05-02T19:12:30.998Z</time></trkpt><trkpt lat="44.761217008151675" lon="9.942166482669416"><ele>508.3333333333333</ele><time>2026-05-02T19:12:31.998Z</time></trkpt><trkpt lat="44.76127181342524" lon="9.942068950830736"><ele>505.0</ele><time>2026-05-02T19:12:32.998Z</time></trkpt><trkpt lat="44.76133133121072" lon="9.941972566225944"><ele>501.66666666666663</ele><time>2026-05-02T19:12:33.998Z</time></trkpt><trkpt lat="44.761398998554455" lon="9.94188704343917"><ele>498.3333333333333</ele><time>2026-05-02T19:12:34.998Z</time></trkpt><trkpt lat="44.76147595507324" lon="9.941814640687598"><ele>495.0</ele><time>2026-05-02T19:12:35.998Z</time></trkpt><trkpt lat="44.76155722443536" lon="9.941750961724141"><ele>494.2</ele><time>2026-05-02T19:12:36.998Z</time></trkpt><trkpt lat="44.761641630954976" lon="9.941705814037581"><ele>493.4</ele><time>2026-05-02T19:12:37.998Z</time></trkpt><trkpt lat="44.76172948769239" lon="9.941682243589492"><ele>492.6</ele><time>2026-05-02T19:12:38.998Z</time></trkpt><trkpt lat="44.76182186949419" lon="9.941677163088153"><ele>491.8</ele><time>2026-05-02T19:12:39.998Z</time></trkpt><trkpt lat="44.76191602704851" lon="9.941690927826787"><ele>491.0</ele><time>2026-05-02T19:12:40.998Z</time></trkpt><trkpt lat="44.762009159408976" lon="9.941710501747965"><ele>491.0</ele><time>2026-05-02T19:12:41.998Z</time></trkpt><trkpt lat="44.76210227502724" lon="9.941699323376671"><ele>491.0</ele><time>2026-05-02T19:12:42.998Z</time></trkpt><trkpt lat="44.762191248276196" lon="9.94164716807688"><ele>491.0</ele><time>2026-05-02T19:12:43.998Z</time></trkpt><trkpt lat="44.76227267605005" lon="9.94156647611718"><ele>491.0</ele><time>2026-05-02T19:12:44.998Z</time></trkpt><trkpt lat="44.762343764905495" lon="9.941462542737737"><ele>491.0</ele><time>2026-05-02T19:12:45.998Z</time></trkpt><trkpt lat="44.76240936193125" lon="9.941347842280718"><ele>490.99999999999994</ele><time>2026-05-02T19:12:46.998Z</time></trkpt><trkpt lat="44.762472898933176" lon="9.941236681867176"><ele>491.0</ele><time>2026-05-02T19:12:47.998Z</time></trkpt><trkpt lat="44.762533230017105" lon="9.941145643681935"><ele>491.0</ele><time>2026-05-02T19:12:48.998Z</time></trkpt><trkpt lat="44.7626034150206" lon="9.941078925181603"><ele>491.0</ele><time>2026-05-02T19:12:49.998Z</time></trkpt><trkpt lat="44.76268515767115" lon="9.941049489009467"><ele>490.99999999999994</ele><time>2026-05-02T19:12:50.998Z</time></trkpt><trkpt lat="44.762765676280736" lon="9.941066364270052"><ele>491.0</ele><time>2026-05-02T19:12:51.998Z</time></trkpt><trkpt lat="44.76284329383355" lon="9.941111455375694"><ele>488.8333333333333</ele><time>2026-05-02T19:12:52.998Z</time></trkpt><trkpt lat="44.76292181864308" lon="9.941161273282546"><ele>486.66666666666663</ele><time>2026-05-02T19:12:53.998Z</time></trkpt><trkpt lat="44.76300262421954" lon="9.941202088659209"><ele>484.5</ele><time>2026-05-02T19:12:54.998Z</time></trkpt><trkpt lat="44.763085251398415" lon="9.941220389001007"><ele>482.33333333333337</ele><time>2026-05-02T19:12:55.998Z</time></trkpt><trkpt lat="44.76317238726539" lon="9.941209439973655"><ele>480.1666666666667</ele><time>2026-05-02T19:12:56.998Z</time></trkpt><trkpt lat="44.76325876930363" lon="9.941170212380534"><ele>478.0</ele><time>2026-05-02T19:12:57.998Z</time></trkpt><trkpt lat="44.763344192021165" lon="9.94111547304352"><ele>478.0</ele><time>2026-05-02T19:12:58.998Z</time></trkpt><trkpt lat="44.76343052664521" lon="9.94106236984008"><ele>477.99999999999994</ele><time>2026-05-02T19:12:59.998Z</time></trkpt><trkpt lat="44.76352147060927" lon="9.94100745581579"><ele>477.99999999999994</ele><time>2026-05-02T19:13:00.998Z</time></trkpt><trkpt lat="44.76360583510656" lon="9.940949930706786"><ele>478.0</ele><time>2026-05-02T19:13:01.998Z</time></trkpt><trkpt lat="44.763674528359" lon="9.940878983006982"><ele>478.0</ele><time>2026-05-02T19:13:02.998Z</time></trkpt><trkpt lat="44.76372923766137" lon="9.940788107761861"><ele>476.83333333333337</ele><time>2026-05-02T19:13:03.998Z</time></trkpt><trkpt lat="44.76377152631933" lon="9.940689270088082"><ele>475.6666666666667</ele><time>2026-05-02T19:13:04.998Z</time></trkpt><trkpt lat="44.76380735111616" lon="9.940604742727695"><ele>474.5</ele><time>2026-05-02T19:13:05.998Z</time></trkpt><trkpt lat="44.76388335097943" lon="9.940499047565428"><ele>473.33333333333337</ele><time>2026-05-02T19:13:07.998Z</time></trkpt><trkpt lat="44.76396649190883" lon="9.940504316623036"><ele>472.1666666666667</ele><time>2026-05-02T19:13:10Z</time></trkpt><trkpt lat="44.7639542536683" lon="9.940629771079239"><ele>471.0</ele><time>2026-05-02T19:13:11Z</time></trkpt><trkpt lat="44.76392576501931" lon="9.94071295450451"><ele>471.0</ele><time>2026-05-02T19:13:12Z</time></trkpt><trkpt lat="44.763911771329845" lon="9.940811111784548"><ele>471.0</ele><time>2026-05-02T19:13:13Z</time></trkpt><trkpt lat="44.7638762496795" lon="9.940902321621673"><ele>471.0</ele><time>2026-05-02T19:13:14Z</time></trkpt><trkpt lat="44.76382164694901" lon="9.940982230846299"><ele>471.0</ele><time>2026-05-02T19:13:15Z</time></trkpt><trkpt lat="44.76377190216324" lon="9.941074133219974"><ele>471.0</ele><time>2026-05-02T19:13:16Z</time></trkpt><trkpt lat="44.763717662153766" lon="9.941170429641486"><ele>471.0</ele><time>2026-05-02T19:13:17Z</time></trkpt><trkpt lat="44.763660952307454" lon="9.941273316408266"><ele>470.0</ele><time>2026-05-02T19:13:18Z</time></trkpt><trkpt lat="44.7636032299767" lon="9.94138138088828"><ele>469.0</ele><time>2026-05-02T19:13:19Z</time></trkpt><trkpt lat="44.76354351408017" lon="9.941493177615916"><ele>468.0</ele><time>2026-05-02T19:13:20Z</time></trkpt><trkpt lat="44.76348232756438" lon="9.941612542404973"><ele>467.0</ele><time>2026-05-02T19:13:21Z</time></trkpt><trkpt lat="44.76342050380769" lon="9.94173540467106"><ele>466.0</ele><time>2026-05-02T19:13:22Z</time></trkpt><trkpt lat="44.763357369319934" lon="9.94186152846406"><ele>466.0</ele><time>2026-05-02T19:13:23Z</time></trkpt><trkpt lat="44.76329499940406" lon="9.941986320236502"><ele>466.0</ele><time>2026-05-02T19:13:24Z</time></trkpt><trkpt lat="44.763240402714686" lon="9.942113086108847"><ele>466.0</ele><time>2026-05-02T19:13:25Z</time></trkpt><trkpt lat="44.76320512763683" lon="9.94224175559174"><ele>466.0</ele><time>2026-05-02T19:13:25.999Z</time></trkpt><trkpt lat="44.763160675231994" lon="9.942349240092142"><ele>466.0</ele><time>2026-05-02T19:13:26.999Z</time></trkpt><trkpt lat="44.763121447895955" lon="9.942452764857743"><ele>466.0</ele><time>2026-05-02T19:13:27.999Z</time></trkpt><trkpt lat="44.76308278679097" lon="9.942545289063895"><ele>466.0</ele><time>2026-05-02T19:13:28.999Z</time></trkpt><trkpt lat="44.76308400308458" lon="9.942648837763754"><ele>466.0</ele><time>2026-05-02T19:13:29.999Z</time></trkpt><trkpt lat="44.76312950247245" lon="9.942733432313776"><ele>466.0</ele><time>2026-05-02T19:13:30.999Z</time></trkpt><trkpt lat="44.76318443151952" lon="9.9427899534273"><ele>466.0</ele><time>2026-05-02T19:13:31.999Z</time></trkpt><trkpt lat="44.763257241667944" lon="9.942811640773243"><ele>466.0</ele><time>2026-05-02T19:13:32.999Z</time></trkpt><trkpt lat="44.76333813853744" lon="9.942800629496274"><ele>466.0</ele><time>2026-05-02T19:13:33.999Z</time></trkpt><trkpt lat="44.76342061995579" lon="9.942769898223107"><ele>465.6</ele><time>2026-05-02T19:13:34.999Z</time></trkpt><trkpt lat="44.76350627897344" lon="9.94273182697756"><ele>465.20000000000005</ele><time>2026-05-02T19:13:35.999Z</time></trkpt><trkpt lat="44.76359728906644" lon="9.942688654053747"><ele>464.79999999999995</ele><time>2026-05-02T19:13:36.999Z</time></trkpt><trkpt lat="44.76368726039162" lon="9.942631520310199"><ele>464.4</ele><time>2026-05-02T19:13:37.999Z</time></trkpt><trkpt lat="44.763773552542226" lon="9.942557134775623"><ele>464.0</ele><time>2026-05-02T19:13:38.999Z</time></trkpt><trkpt lat="44.76385863515608" lon="9.942475722113224"><ele>462.2</ele><time>2026-05-02T19:13:39.999Z</time></trkpt><trkpt lat="44.76394340164096" lon="9.942386764696108"><ele>460.4</ele><time>2026-05-02T19:13:40.999Z</time></trkpt><trkpt lat="44.76403126316583" lon="9.942300783583388"><ele>458.6</ele><time>2026-05-02T19:13:41.999Z</time></trkpt><trkpt lat="44.76412057343239" lon="9.94222062393731"><ele>456.8</ele><time>2026-05-02T19:13:42.999Z</time></trkpt><trkpt lat="44.764211693601254" lon="9.942138211584513"><ele>455.0</ele><time>2026-05-02T19:13:43.999Z</time></trkpt><trkpt lat="44.76430385341292" lon="9.942057875604462"><ele>450.75</ele><time>2026-05-02T19:13:44.999Z</time></trkpt><trkpt lat="44.76440440403462" lon="9.94197800923288"><ele>446.5</ele><time>2026-05-02T19:13:45.999Z</time></trkpt><trkpt lat="44.764507266116986" lon="9.941898971960782"><ele>442.25</ele><time>2026-05-02T19:13:46.999Z</time></trkpt><trkpt lat="44.76461140734702" lon="9.941820686268017"><ele>438.0</ele><time>2026-05-02T19:13:47.999Z</time></trkpt><trkpt lat="44.76471408055525" lon="9.941744795141044"><ele>439.5</ele><time>2026-05-02T19:13:48.999Z</time></trkpt><trkpt lat="44.76481563314631" lon="9.941670532037724"><ele>441.0</ele><time>2026-05-02T19:13:49.999Z</time></trkpt><trkpt lat="44.7649148632783" lon="9.941594790511981"><ele>442.5</ele><time>2026-05-02T19:13:50.999Z</time></trkpt><trkpt lat="44.76501486209505" lon="9.941519050385258"><ele>444.0</ele><time>2026-05-02T19:13:51.999Z</time></trkpt><trkpt lat="44.76511741308845" lon="9.941439612616088"><ele>441.0</ele><time>2026-05-02T19:13:52.999Z</time></trkpt><trkpt lat="44.765219309689066" lon="9.941359102686064"><ele>438.0</ele><time>2026-05-02T19:13:53.999Z</time></trkpt><trkpt lat="44.765320655774666" lon="9.94128109195284"><ele>435.0</ele><time>2026-05-02T19:13:54.999Z</time></trkpt><trkpt lat="44.76542583262908" lon="9.94120255220882"><ele>432.0</ele><time>2026-05-02T19:13:55.999Z</time></trkpt><trkpt lat="44.76552916859689" lon="9.941129964105667"><ele>432.0</ele><time>2026-05-02T19:13:56.999Z</time></trkpt><trkpt lat="44.76563542253753" lon="9.941058158649277"><ele>432.0</ele><time>2026-05-02T19:13:57.999Z</time></trkpt><trkpt lat="44.76574117112353" lon="9.94099584743035"><ele>432.0</ele><time>2026-05-02T19:13:58.999Z</time></trkpt><trkpt lat="44.7658512069535" lon="9.940943476702003"><ele>432.0</ele><time>2026-05-02T19:13:59.999Z</time></trkpt><trkpt lat="44.76596282613248" lon="9.940898632660412"><ele>432.0</ele><time>2026-05-02T19:14:00.999Z</time></trkpt><trkpt lat="44.76607716161956" lon="9.940852969970669"><ele>432.0</ele><time>2026-05-02T19:14:01.999Z</time></trkpt><trkpt lat="44.76619088691707" lon="9.940806016896056"><ele>432.0</ele><time>2026-05-02T19:14:02.999Z</time></trkpt><trkpt lat="44.76630560056593" lon="9.9407560066075"><ele>432.0</ele><time>2026-05-02T19:14:03.999Z</time></trkpt><trkpt lat="44.76642175495852" lon="9.940702942469704"><ele>432.0</ele><time>2026-05-02T19:14:04.999Z</time></trkpt><trkpt lat="44.76653566924153" lon="9.940651692192567"><ele>432.0</ele><time>2026-05-02T19:14:05.999Z</time></trkpt><trkpt lat="44.766653018069235" lon="9.940605055766236"><ele>432.0</ele><time>2026-05-02T19:14:06.999Z</time></trkpt><trkpt lat="44.766773034244785" lon="9.940568572998684"><ele>432.0</ele><time>2026-05-02T19:14:07.999Z</time></trkpt><trkpt lat="44.766896088675416" lon="9.940542065118148"><ele>431.25</ele><time>2026-05-02T19:14:08.999Z</time></trkpt><trkpt lat="44.76701662216722" lon="9.940512612601456"><ele>430.5</ele><time>2026-05-02T19:14:09.999Z</time></trkpt><trkpt lat="44.76713792910299" lon="9.940482581712018"><ele>429.75</ele><time>2026-05-02T19:14:10.999Z</time></trkpt><trkpt lat="44.767260823173736" lon="9.940457677022511"><ele>429.0</ele><time>2026-05-02T19:14:11.999Z</time></trkpt><trkpt lat="44.76738418586305" lon="9.940428849720353"><ele>429.0</ele><time>2026-05-02T19:14:12.999Z</time></trkpt><trkpt lat="44.767504083131286" lon="9.940401302912518"><ele>429.0</ele><time>2026-05-02T19:14:13.999Z</time></trkpt><trkpt lat="44.767618689380974" lon="9.940378330533797"><ele>429.0</ele><time>2026-05-02T19:14:14.999Z</time></trkpt><trkpt lat="44.76772157172804" lon="9.94036318943943"><ele>429.0</ele><time>2026-05-02T19:14:15.999Z</time></trkpt><trkpt lat="44.767821150876294" lon="9.94036544606868"><ele>429.0</ele><time>2026-05-02T19:14:16.999Z</time></trkpt><trkpt lat="44.76792227463209" lon="9.940383293330974"><ele>428.2</ele><time>2026-05-02T19:14:17.999Z</time></trkpt><trkpt lat="44.76802123052023" lon="9.940415691066198"><ele>427.4</ele><time>2026-05-02T19:14:18.999Z</time></trkpt><trkpt lat="44.76811585889523" lon="9.940456725643585"><ele>426.6</ele><time>2026-05-02T19:14:19.999Z</time></trkpt><trkpt lat="44.76820269166529" lon="9.940507036334587"><ele>425.8</ele><time>2026-05-02T19:14:20.999Z</time></trkpt><trkpt lat="44.76828368122903" lon="9.940572501797826"><ele>425.0</ele><time>2026-05-02T19:14:21.999Z</time></trkpt><trkpt lat="44.768361091623916" lon="9.94065336747978"><ele>425.0</ele><time>2026-05-02T19:14:22.999Z</time></trkpt><trkpt lat="44.768428860846676" lon="9.940752406144865"><ele>425.0</ele><time>2026-05-02T19:14:23.999Z</time></trkpt><trkpt lat="44.7684787987183" lon="9.940861416142248"><ele>425.0</ele><time>2026-05-02T19:14:24.999Z</time></trkpt><trkpt lat="44.76851095537348" lon="9.94098285373516"><ele>425.0</ele><time>2026-05-02T19:14:25.998Z</time></trkpt><trkpt lat="44.76853987589393" lon="9.941108041576893"><ele>425.0</ele><time>2026-05-02T19:14:26.998Z</time></trkpt><trkpt lat="44.76856905106138" lon="9.941231443452992"><ele>423.0</ele><time>2026-05-02T19:14:27.998Z</time></trkpt><trkpt lat="44.768606528550386" lon="9.94134695793178"><ele>421.0</ele><time>2026-05-02T19:14:28.998Z</time></trkpt><trkpt lat="44.768655559726305" lon="9.941453511201248"><ele>419.0</ele><time>2026-05-02T19:14:29.998Z</time></trkpt><trkpt lat="44.7687207733078" lon="9.941538861476646"><ele>417.0</ele><time>2026-05-02T19:14:30.998Z</time></trkpt><trkpt lat="44.768798652537164" lon="9.941606703128166"><ele>415.0</ele><time>2026-05-02T19:14:31.998Z</time></trkpt><trkpt lat="44.768885690289565" lon="9.941662096046198"><ele>414.2</ele><time>2026-05-02T19:14:32.998Z</time></trkpt><trkpt lat="44.76897626019621" lon="9.941716264791195"><ele>413.4</ele><time>2026-05-02T19:14:33.998Z</time></trkpt><trkpt lat="44.769070051271555" lon="9.941763452823555"><ele>412.6</ele><time>2026-05-02T19:14:34.998Z</time></trkpt><trkpt lat="44.76916731762819" lon="9.94179110399648"><ele>411.8</ele><time>2026-05-02T19:14:35.998Z</time></trkpt><trkpt lat="44.76926824953587" lon="9.941808332669332"><ele>411.0</ele><time>2026-05-02T19:14:36.998Z</time></trkpt><trkpt lat="44.7693713475476" lon="9.941811477615996"><ele>411.20000000000005</ele><time>2026-05-02T19:14:37.998Z</time></trkpt><trkpt lat="44.769472672188435" lon="9.941791842908971"><ele>411.40000000000003</ele><time>2026-05-02T19:14:38.998Z</time></trkpt><trkpt lat="44.76956845072515" lon="9.941748415898948"><ele>411.6</ele><time>2026-05-02T19:14:39.998Z</time></trkpt><trkpt lat="44.769657685955444" lon="9.941681698213559"><ele>411.8</ele><time>2026-05-02T19:14:40.998Z</time></trkpt><trkpt lat="44.76974252301143" lon="9.941601734496968"><ele>412.0</ele><time>2026-05-02T19:14:41.998Z</time></trkpt><trkpt lat="44.769822612416824" lon="9.94151318915545"><ele>412.0</ele><time>2026-05-02T19:14:42.998Z</time></trkpt><trkpt lat="44.769895664951534" lon="9.941409530397312"><ele>412.0</ele><time>2026-05-02T19:14:43.998Z</time></trkpt><trkpt lat="44.76995805374358" lon="9.941292242980445"><ele>412.0</ele><time>2026-05-02T19:14:44.998Z</time></trkpt><trkpt lat="44.770009910736775" lon="9.941163520803698"><ele>412.0</ele><time>2026-05-02T19:14:45.998Z</time></trkpt><trkpt lat="44.77005870568467" lon="9.941031803873207"><ele>412.0</ele><time>2026-05-02T19:14:46.998Z</time></trkpt><trkpt lat="44.77010768246555" lon="9.940901124807425"><ele>411.0</ele><time>2026-05-02T19:14:47.998Z</time></trkpt><trkpt lat="44.770155677119575" lon="9.94077571006065"><ele>410.0</ele><time>2026-05-02T19:14:48.998Z</time></trkpt><trkpt lat="44.77020318687127" lon="9.94065554499395"><ele>409.0</ele><time>2026-05-02T19:14:49.998Z</time></trkpt><trkpt lat="44.77025869388005" lon="9.940551566624267"><ele>408.0</ele><time>2026-05-02T19:14:50.998Z</time></trkpt><trkpt lat="44.77032980227986" lon="9.940471532275533"><ele>407.0</ele><time>2026-05-02T19:14:51.998Z</time></trkpt><trkpt lat="44.77041843789797" lon="9.940418805534947"><ele>404.20000000000005</ele><time>2026-05-02T19:14:52.998Z</time></trkpt><trkpt lat="44.770513384968375" lon="9.94038194918945"><ele>401.4</ele><time>2026-05-02T19:14:53.998Z</time></trkpt><trkpt lat="44.77061297898165" lon="9.940349823308686"><ele>398.6</ele><time>2026-05-02T19:14:54.998Z</time></trkpt><trkpt lat="44.77071262547503" lon="9.940297601820928"><ele>395.79999999999995</ele><time>2026-05-02T19:14:55.998Z</time></trkpt><trkpt lat="44.770809294837846" lon="9.94022776764055"><ele>393.0</ele><time>2026-05-02T19:14:56.998Z</time></trkpt><trkpt lat="44.77090243509264" lon="9.940148433970506"><ele>393.0</ele><time>2026-05-02T19:14:57.998Z</time></trkpt><trkpt lat="44.77099179273846" lon="9.94007335207471"><ele>393.0</ele><time>2026-05-02T19:14:58.998Z</time></trkpt><trkpt lat="44.771080779055175" lon="9.94000293990559"><ele>393.0</ele><time>2026-05-02T19:14:59.998Z</time></trkpt><trkpt lat="44.771170148987544" lon="9.939939724049923"><ele>393.0</ele><time>2026-05-02T19:15:00.998Z</time></trkpt><trkpt lat="44.77126412427287" lon="9.939883681307558"><ele>393.0</ele><time>2026-05-02T19:15:01.998Z</time></trkpt><trkpt lat="44.77135046089696" lon="9.939843794462352"><ele>390.5</ele><time>2026-05-02T19:15:02.998Z</time></trkpt><trkpt lat="44.77143107879195" lon="9.939809896375436"><ele>388.0</ele><time>2026-05-02T19:15:03.998Z</time></trkpt><trkpt lat="44.77150440280721" lon="9.93977082417683"><ele>385.5</ele><time>2026-05-02T19:15:04.998Z</time></trkpt><trkpt lat="44.77157641314445" lon="9.93972700291975"><ele>383.0</ele><time>2026-05-02T19:15:05.998Z</time></trkpt><trkpt lat="44.77164145906201" lon="9.939667720341879"><ele>380.5</ele><time>2026-05-02T19:15:06.998Z</time></trkpt><trkpt lat="44.771695865189706" lon="9.939587547523322"><ele>378.0</ele><time>2026-05-02T19:15:07.998Z</time></trkpt><trkpt lat="44.77173982183626" lon="9.939492432299483"><ele>378.0</ele><time>2026-05-02T19:15:08.998Z</time></trkpt><trkpt lat="44.77177278381048" lon="9.939387352922566"><ele>378.0</ele><time>2026-05-02T19:15:09.998Z</time></trkpt><trkpt lat="44.77179197847408" lon="9.939275412185765"><ele>378.0</ele><time>2026-05-02T19:15:10.998Z</time></trkpt><trkpt lat="44.77179389888925" lon="9.939155147663847"><ele>378.0</ele><time>2026-05-02T19:15:11.998Z</time></trkpt><trkpt lat="44.77178164903402" lon="9.939037897134355"><ele>378.0</ele><time>2026-05-02T19:15:12.998Z</time></trkpt><trkpt lat="44.77175538332355" lon="9.938929654263244"><ele>378.0</ele><time>2026-05-02T19:15:14Z</time></trkpt><trkpt lat="44.77171684814092" lon="9.938836165537912"><ele>380.1666666666667</ele><time>2026-05-02T19:15:15Z</time></trkpt><trkpt lat="44.771671413269516" lon="9.93875174327034"><ele>382.33333333333337</ele><time>2026-05-02T19:15:16Z</time></trkpt><trkpt lat="44.771623692372096" lon="9.938685579699346"><ele>384.5</ele><time>2026-05-02T19:15:17Z</time></trkpt><trkpt lat="44.771561191863135" lon="9.938631733301731"><ele>386.6666666666667</ele><time>2026-05-02T19:15:18Z</time></trkpt><trkpt lat="44.77150222102665" lon="9.938560425975197"><ele>388.83333333333337</ele><time>2026-05-02T19:15:19Z</time></trkpt><trkpt lat="44.77142204471256" lon="9.938533661780916"><ele>391.0</ele><time>2026-05-02T19:15:20Z</time></trkpt><trkpt lat="44.77134031884969" lon="9.938536967945746"><ele>391.00000000000006</ele><time>2026-05-02T19:15:21Z</time></trkpt><trkpt lat="44.77125660933838" lon="9.938562648519813"><ele>391.0</ele><time>2026-05-02T19:15:22Z</time></trkpt><trkpt lat="44.7711767347029" lon="9.9385933433246"><ele>391.0</ele><time>2026-05-02T19:15:23Z</time></trkpt><trkpt lat="44.77109468167311" lon="9.93862705805735"><ele>391.0</ele><time>2026-05-02T19:15:24Z</time></trkpt><trkpt lat="44.77101284233088" lon="9.938652645148455"><ele>391.00000000000006</ele><time>2026-05-02T19:15:25Z</time></trkpt><trkpt lat="44.77094029223887" lon="9.93867007139319"><ele>391.0</ele><time>2026-05-02T19:15:26Z</time></trkpt><trkpt lat="44.770874864261714" lon="9.938671288082473"><ele>390.83333333333337</ele><time>2026-05-02T19:15:27Z</time></trkpt><trkpt lat="44.770807343747606" lon="9.938657547804311"><ele>390.6666666666667</ele><time>2026-05-02T19:15:28Z</time></trkpt><trkpt lat="44.77074071976545" lon="9.93862597529404"><ele>390.5</ele><time>2026-05-02T19:15:29Z</time></trkpt><trkpt lat="44.77067591168272" lon="9.938570697948443"><ele>390.33333333333337</ele><time>2026-05-02T19:15:30Z</time></trkpt><trkpt lat="44.77060637289277" lon="9.938502577323693"><ele>390.1666666666667</ele><time>2026-05-02T19:15:30.999Z</time></trkpt><trkpt lat="44.77053059997841" lon="9.938431371702064"><ele>390.0</ele><time>2026-05-02T19:15:31.999Z</time></trkpt><trkpt lat="44.77045650338306" lon="9.938362010095322"><ele>388.1666666666667</ele><time>2026-05-02T19:15:32.999Z</time></trkpt><trkpt lat="44.77038314508582" lon="9.938293339780968"><ele>386.3333333333333</ele><time>2026-05-02T19:15:33.999Z</time></trkpt><trkpt lat="44.77031334100687" lon="9.938228153730291"><ele>384.5</ele><time>2026-05-02T19:15:34.999Z</time></trkpt><trkpt lat="44.770243095579076" lon="9.938178761616998"><ele>382.66666666666663</ele><time>2026-05-02T19:15:35.999Z</time></trkpt><trkpt lat="44.77019136179497" lon="9.938097222723858"><ele>380.8333333333333</ele><time>2026-05-02T19:15:36.999Z</time></trkpt><trkpt lat="44.77015456558218" lon="9.938003919271289"><ele>379.0</ele><time>2026-05-02T19:15:37.999Z</time></trkpt><trkpt lat="44.770146203532605" lon="9.9379028455217"><ele>379.00000000000006</ele><time>2026-05-02T19:15:38.999Z</time></trkpt><trkpt lat="44.77016597963098" lon="9.93780426246491"><ele>379.0</ele><time>2026-05-02T19:15:39.999Z</time></trkpt><trkpt lat="44.77020574585301" lon="9.937717918718953"><ele>379.0</ele><time>2026-05-02T19:15:40.999Z</time></trkpt><trkpt lat="44.77026242944757" lon="9.937653055996623"><ele>379.0</ele><time>2026-05-02T19:15:41.999Z</time></trkpt><trkpt lat="44.770332224374684" lon="9.93762365910819"><ele>379.0</ele><time>2026-05-02T19:15:42.999Z</time></trkpt><trkpt lat="44.77040475474753" lon="9.937627836608923"><ele>379.00000000000006</ele><time>2026-05-02T19:15:43.999Z</time></trkpt><trkpt lat="44.77047170748333" lon="9.937662940241134"><ele>379.0</ele><time>2026-05-02T19:15:44.999Z</time></trkpt><trkpt lat="44.770526762234965" lon="9.937732531577284"><ele>379.0</ele><time>2026-05-02T19:15:45.999Z</time></trkpt><trkpt lat="44.77056836016307" lon="9.9378229357966"><ele>379.0</ele><time>2026-05-02T19:15:46.999Z</time></trkpt><trkpt lat="44.770609009978386" lon="9.937915275921064"><ele>379.0</ele><time>2026-05-02T19:15:47.999Z</time></trkpt><trkpt lat="44.77065903399267" lon="9.938001945674289"><ele>379.0</ele><time>2026-05-02T19:15:48.999Z</time></trkpt><trkpt lat="44.77072671107277" lon="9.938065490873907"><ele>379.0</ele><time>2026-05-02T19:15:49.999Z</time></trkpt><trkpt lat="44.7708038539176" lon="9.938090944414045"><ele>379.0</ele><time>2026-05-02T19:15:50.999Z</time></trkpt><trkpt lat="44.770875353469144" lon="9.93808018774626"><ele>379.0</ele><time>2026-05-02T19:15:51.999Z</time></trkpt><trkpt lat="44.77093904362474" lon="9.93802964044213"><ele>379.0</ele><time>2026-05-02T19:15:52.999Z</time></trkpt><trkpt lat="44.770994406861014" lon="9.937959325435177"><ele>379.0</ele><time>2026-05-02T19:15:53.999Z</time></trkpt><trkpt lat="44.771048319149436" lon="9.937887026043045"><ele>379.0</ele><time>2026-05-02T19:15:54.999Z</time></trkpt><trkpt lat="44.771105455576865" lon="9.937810793841429"><ele>379.0</ele><time>2026-05-02T19:15:55.999Z</time></trkpt><trkpt lat="44.771170116630536" lon="9.93773964720693"><ele>379.0</ele><time>2026-05-02T19:15:56.999Z</time></trkpt><trkpt lat="44.7712418719889" lon="9.93767551529279"><ele>378.8333333333333</ele><time>2026-05-02T19:15:57.999Z</time></trkpt><trkpt lat="44.77131869272941" lon="9.937631580541364"><ele>378.66666666666663</ele><time>2026-05-02T19:15:58.999Z</time></trkpt><trkpt lat="44.77140618449512" lon="9.93762398099931"><ele>378.5</ele><time>2026-05-02T19:15:59.999Z</time></trkpt><trkpt lat="44.77149422553611" lon="9.93765397460861"><ele>378.3333333333333</ele><time>2026-05-02T19:16:00.999Z</time></trkpt><trkpt lat="44.77157131856483" lon="9.937701208954381"><ele>378.1666666666667</ele><time>2026-05-02T19:16:01.999Z</time></trkpt><trkpt lat="44.77163266151751" lon="9.937729423875288"><ele>378.0</ele><time>2026-05-02T19:16:02.999Z</time></trkpt><trkpt lat="44.77171477298686" lon="9.937665052505253"><ele>374.4</ele><time>2026-05-02T19:16:04.999Z</time></trkpt><trkpt lat="44.77169252023512" lon="9.93749863778826"><ele>370.79999999999995</ele><time>2026-05-02T19:16:06.999Z</time></trkpt><trkpt lat="44.771636809414005" lon="9.937436584503683"><ele>367.2</ele><time>2026-05-02T19:16:07.999Z</time></trkpt><trkpt lat="44.7715622466774" lon="9.937432759868503"><ele>363.6</ele><time>2026-05-02T19:16:08.999Z</time></trkpt><trkpt lat="44.771440735295194" lon="9.937416220168032"><ele>360.0</ele><time>2026-05-02T19:16:10.999Z</time></trkpt><trkpt lat="44.77138060107878" lon="9.937377364673003"><ele>360.0</ele><time>2026-05-02T19:16:11.999Z</time></trkpt><trkpt lat="44.77131429261025" lon="9.937359390541907"><ele>360.0</ele><time>2026-05-02T19:16:12.999Z</time></trkpt><trkpt lat="44.771245291602874" lon="9.937340686590591"><ele>360.0</ele><time>2026-05-02T19:16:13.999Z</time></trkpt><trkpt lat="44.77118382228895" lon="9.93731968061618"><ele>360.0</ele><time>2026-05-02T19:16:14.999Z</time></trkpt><trkpt lat="44.77111230900432" lon="9.937251992190845"><ele>360.0</ele><time>2026-05-02T19:16:16.999Z</time></trkpt><trkpt lat="44.771185478244334" lon="9.93712065809722"><ele>360.0</ele><time>2026-05-02T19:16:18.999Z</time></trkpt><trkpt lat="44.77126291680891" lon="9.937131144008246"><ele>360.0</ele><time>2026-05-02T19:16:19.999Z</time></trkpt><trkpt lat="44.77133848974337" lon="9.937174835299986"><ele>360.0</ele><time>2026-05-02T19:16:20.999Z</time></trkpt><trkpt lat="44.77141246290199" lon="9.93720763162487"><ele>360.0</ele><time>2026-05-02T19:16:21.999Z</time></trkpt><trkpt lat="44.77149377599286" lon="9.937228339668378"><ele>360.0</ele><time>2026-05-02T19:16:22.999Z</time></trkpt><trkpt lat="44.77157575232901" lon="9.937248095864543"><ele>360.0</ele><time>2026-05-02T19:16:23.999Z</time></trkpt><trkpt lat="44.771655634608635" lon="9.937269811898604"><ele>360.0</ele><time>2026-05-02T19:16:24.999Z</time></trkpt><trkpt lat="44.77173696299408" lon="9.93729330480756"><ele>360.0</ele><time>2026-05-02T19:16:25.999Z</time></trkpt><trkpt lat="44.771816249602146" lon="9.93731630388033"><ele>360.0</ele><time>2026-05-02T19:16:26.999Z</time></trkpt><trkpt lat="44.77189495332682" lon="9.937340274549175"><ele>360.0</ele><time>2026-05-02T19:16:27.999Z</time></trkpt><trkpt lat="44.77197720540054" lon="9.937366429331858"><ele>360.0</ele><time>2026-05-02T19:16:28.999Z</time></trkpt><trkpt lat="44.772062877362515" lon="9.937393467255701"><ele>360.0</ele><time>2026-05-02T19:16:29.999Z</time></trkpt><trkpt lat="44.772140680491056" lon="9.937418505174202"><ele>360.0</ele><time>2026-05-02T19:16:30.998Z</time></trkpt><trkpt lat="44.77221916564597" lon="9.937443297219877"><ele>361.1666666666667</ele><time>2026-05-02T19:16:31.998Z</time></trkpt><trkpt lat="44.772299117610316" lon="9.937470737000476"><ele>362.3333333333333</ele><time>2026-05-02T19:16:32.998Z</time></trkpt><trkpt lat="44.77237886557813" lon="9.937502202556322"><ele>363.5</ele><time>2026-05-02T19:16:33.998Z</time></trkpt><trkpt lat="44.77245952156245" lon="9.937543170765798"><ele>364.66666666666663</ele><time>2026-05-02T19:16:34.998Z</time></trkpt><trkpt lat="44.77253777268632" lon="9.937580587139147"><ele>365.8333333333333</ele><time>2026-05-02T19:16:35.998Z</time></trkpt><trkpt lat="44.77261442653942" lon="9.937621582692394"><ele>367.0</ele><time>2026-05-02T19:16:36.998Z</time></trkpt><trkpt lat="44.77268466489467" lon="9.937657621038234"><ele>362.0</ele><time>2026-05-02T19:16:37.998Z</time></trkpt><trkpt lat="44.772750289189965" lon="9.937683529458255"><ele>357.0</ele><time>2026-05-02T19:16:38.998Z</time></trkpt><trkpt lat="44.77285790447126" lon="9.937642352249442"><ele>352.0</ele><time>2026-05-02T19:16:40.998Z</time></trkpt><trkpt lat="44.77286429673709" lon="9.937485496944516"><ele>347.0</ele><time>2026-05-02T19:16:42.998Z</time></trkpt><trkpt lat="44.77284235565238" lon="9.93739914642822"><ele>342.0</ele><time>2026-05-02T19:16:43.998Z</time></trkpt><trkpt lat="44.77277229489372" lon="9.937343827837692"><ele>337.0</ele><time>2026-05-02T19:16:44.998Z</time></trkpt><trkpt lat="44.77271194177595" lon="9.93729995576711"><ele>336.8333333333333</ele><time>2026-05-02T19:16:45.998Z</time></trkpt><trkpt lat="44.772656967595445" lon="9.937253352023536"><ele>336.66666666666663</ele><time>2026-05-02T19:16:46.998Z</time></trkpt><trkpt lat="44.77260222884581" lon="9.937202272900171"><ele>336.5</ele><time>2026-05-02T19:16:47.998Z</time></trkpt><trkpt lat="44.77253730873088" lon="9.93710038731394"><ele>336.3333333333333</ele><time>2026-05-02T19:16:49.998Z</time></trkpt><trkpt lat="44.77260578105071" lon="9.936971928826388"><ele>336.1666666666667</ele><time>2026-05-02T19:16:51.998Z</time></trkpt><trkpt lat="44.77267755609585" lon="9.936965982446727"><ele>336.0</ele><time>2026-05-02T19:16:52.998Z</time></trkpt><trkpt lat="44.772747679810216" lon="9.937006444486961"><ele>336.0</ele><time>2026-05-02T19:16:53.998Z</time></trkpt><trkpt lat="44.77281460592169" lon="9.937061655392494"><ele>336.0</ele><time>2026-05-02T19:16:54.998Z</time></trkpt><trkpt lat="44.77288553315667" lon="9.937115695441822"><ele>336.0</ele><time>2026-05-02T19:16:55.998Z</time></trkpt><trkpt lat="44.77295851710761" lon="9.937163346993367"><ele>336.0</ele><time>2026-05-02T19:16:56.998Z</time></trkpt><trkpt lat="44.77303122136292" lon="9.93720915492462"><ele>336.0</ele><time>2026-05-02T19:16:57.998Z</time></trkpt><trkpt lat="44.7731045352079" lon="9.937255626740065"><ele>336.0</ele><time>2026-05-02T19:16:58.998Z</time></trkpt><trkpt lat="44.77318181843963" lon="9.937300121435065"><ele>336.0</ele><time>2026-05-02T19:16:59.998Z</time></trkpt><trkpt lat="44.77325840381804" lon="9.937345181790002"><ele>336.0</ele><time>2026-05-02T19:17:00.998Z</time></trkpt><trkpt lat="44.77333129557574" lon="9.937389354863477"><ele>336.0</ele><time>2026-05-02T19:17:01.998Z</time></trkpt><trkpt lat="44.77340387419941" lon="9.937431348266816"><ele>336.0</ele><time>2026-05-02T19:17:02.998Z</time></trkpt><trkpt lat="44.77347417762827" lon="9.937476044325228"><ele>336.0</ele><time>2026-05-02T19:17:03.998Z</time></trkpt><trkpt lat="44.77354039529674" lon="9.937519113099064"><ele>336.0</ele><time>2026-05-02T19:17:04.998Z</time></trkpt><trkpt lat="44.773600812914566" lon="9.937555323300312"><ele>335.85714285714283</ele><time>2026-05-02T19:17:05.998Z</time></trkpt><trkpt lat="44.77369649903906" lon="9.937617338032213"><ele>335.7142857142857</ele><time>2026-05-02T19:17:07.998Z</time></trkpt><trkpt lat="44.77375603165367" lon="9.937674173725965"><ele>335.57142857142856</ele><time>2026-05-02T19:17:09.998Z</time></trkpt><trkpt lat="44.773814999874865" lon="9.937705600649238"><ele>335.42857142857144</ele><time>2026-05-02T19:17:11.999Z</time></trkpt><trkpt lat="44.77379547363518" lon="9.937620952177237"><ele>335.2857142857143</ele><time>2026-05-02T19:18:14Z</time></trkpt><trkpt lat="44.773728234594266" lon="9.937580513278585"><ele>335.1428571428571</ele><time>2026-05-02T19:18:17Z</time></trkpt><trkpt lat="44.77367084563754" lon="9.937539706436025"><ele>335.0</ele><time>2026-05-02T19:18:19Z</time></trkpt><trkpt lat="44.77360703344208" lon="9.937491508699576"><ele>335.0</ele><time>2026-05-02T19:18:21Z</time></trkpt><trkpt lat="44.773534970620645" lon="9.937447112486579"><ele>335.0</ele><time>2026-05-02T19:18:23Z</time></trkpt><trkpt lat="44.77345897411227" lon="9.937404256199642"><ele>335.0</ele><time>2026-05-02T19:18:25Z</time></trkpt><trkpt lat="44.773384821361326" lon="9.937366951916973"><ele>335.0</ele><time>2026-05-02T19:18:27Z</time></trkpt><trkpt lat="44.77331675213942" lon="9.937329132923699"><ele>335.0</ele><time>2026-05-02T19:18:29Z</time></trkpt><trkpt lat="44.773252348490125" lon="9.937297001506069"><ele>335.0</ele><time>2026-05-02T19:18:31Z</time></trkpt><trkpt lat="44.773167918939855" lon="9.937245851464954"><ele>335.1666666666667</ele><time>2026-05-02T19:18:33.999Z</time></trkpt><trkpt lat="44.77308431026083" lon="9.937198747969347"><ele>335.33333333333337</ele><time>2026-05-02T19:18:36.999Z</time></trkpt><trkpt lat="44.77300869471315" lon="9.937150979960835"><ele>335.5</ele><time>2026-05-02T19:18:39.999Z</time></trkpt><trkpt lat="44.77293913155697" lon="9.937107924425394"><ele>335.6666666666667</ele><time>2026-05-02T19:18:42.999Z</time></trkpt><trkpt lat="44.772871476832826" lon="9.93706006099319"><ele>335.8333333333333</ele><time>2026-05-02T19:18:45.999Z</time></trkpt><trkpt lat="44.77280299606807" lon="9.937009634305822"><ele>336.0</ele><time>2026-05-02T19:18:48.999Z</time></trkpt><trkpt lat="44.7727384772826" lon="9.936971138839878"><ele>336.0</ele><time>2026-05-02T19:18:51.999Z</time></trkpt><trkpt lat="44.77266841197197" lon="9.936954319282268"><ele>336.0</ele><time>2026-05-02T19:18:54.999Z</time></trkpt><trkpt lat="44.77260131749595" lon="9.936966281021776"><ele>336.0</ele><time>2026-05-02T19:18:57.999Z</time></trkpt><trkpt lat="44.772553609995896" lon="9.93703856793969"><ele>336.0</ele><time>2026-05-02T19:19:00.999Z</time></trkpt><trkpt lat="44.77255024417854" lon="9.937139393048444"><ele>336.0</ele><time>2026-05-02T19:19:03.999Z</time></trkpt><trkpt lat="44.77258562327836" lon="9.937230158758474"><ele>336.0</ele><time>2026-05-02T19:19:06.999Z</time></trkpt><trkpt lat="44.77263609231556" lon="9.937298399244554"><ele>336.0</ele><time>2026-05-02T19:19:09.999Z</time></trkpt><trkpt lat="44.77270155727333" lon="9.93735953494853"><ele>336.0</ele><time>2026-05-02T19:19:12.999Z</time></trkpt><trkpt lat="44.772768944996066" lon="9.937421199567066"><ele>336.0</ele><time>2026-05-02T19:19:15.999Z</time></trkpt><trkpt lat="44.77282544533875" lon="9.937498115096695"><ele>336.0</ele><time>2026-05-02T19:19:18.999Z</time></trkpt><trkpt lat="44.77283330653067" lon="9.937592503554109"><ele>336.0</ele><time>2026-05-02T19:19:21.999Z</time></trkpt><trkpt lat="44.772772721957715" lon="9.937632100964418"><ele>336.0</ele><time>2026-05-02T19:19:24.999Z</time></trkpt><trkpt lat="44.77270907139679" lon="9.937601579933665"><ele>336.0</ele><time>2026-05-02T19:19:28.001Z</time></trkpt><trkpt lat="44.77264483896125" lon="9.937569606350866"><ele>336.0</ele><time>2026-05-02T19:19:31.001Z</time></trkpt><trkpt lat="44.772582342132" lon="9.937538659863279"><ele>338.14285714285717</ele><time>2026-05-02T19:19:34.001Z</time></trkpt><trkpt lat="44.77251502413992" lon="9.937513262966332"><ele>340.2857142857143</ele><time>2026-05-02T19:19:37.001Z</time></trkpt><trkpt lat="44.77244944784578" lon="9.93747631820836"><ele>342.42857142857144</ele><time>2026-05-02T19:19:40.001Z</time></trkpt><trkpt lat="44.77238177520597" lon="9.937445024181118"><ele>344.57142857142856</ele><time>2026-05-02T19:19:43Z</time></trkpt><trkpt lat="44.772315588452706" lon="9.937414655297426"><ele>346.7142857142857</ele><time>2026-05-02T19:19:46Z</time></trkpt><trkpt lat="44.772250526934435" lon="9.937388531202387"><ele>348.8571428571429</ele><time>2026-05-02T19:19:49Z</time></trkpt><trkpt lat="44.77218570391151" lon="9.937366126506404"><ele>351.0</ele><time>2026-05-02T19:19:52Z</time></trkpt><trkpt lat="44.77211676182852" lon="9.93733821651465"><ele>351.0</ele><time>2026-05-02T19:19:56Z</time></trkpt><trkpt lat="44.772039403697065" lon="9.937313883003133"><ele>351.0</ele><time>2026-05-02T19:19:59Z</time></trkpt><trkpt lat="44.77196712380594" lon="9.937287070858227"><ele>351.0</ele><time>2026-05-02T19:20:03Z</time></trkpt><trkpt lat="44.771904174695486" lon="9.937270199979723"><ele>351.0</ele><time>2026-05-02T19:20:06Z</time></trkpt><trkpt lat="44.77180978581004" lon="9.937247042158122"><ele>351.0</ele><time>2026-05-02T19:20:10Z</time></trkpt><trkpt lat="44.77174736366912" lon="9.937228764603322"><ele>351.0</ele><time>2026-05-02T19:20:13Z</time></trkpt><trkpt lat="44.77167503463397" lon="9.937204529215657"><ele>352.28571428571433</ele><time>2026-05-02T19:20:16Z</time></trkpt><trkpt lat="44.77160611392996" lon="9.937186360962526"><ele>353.57142857142856</ele><time>2026-05-02T19:20:19Z</time></trkpt><trkpt lat="44.77153637338952" lon="9.937170282684926"><ele>354.8571428571429</ele><time>2026-05-02T19:20:22Z</time></trkpt><trkpt lat="44.77147200260778" lon="9.937147184052545"><ele>356.14285714285717</ele><time>2026-05-02T19:20:25Z</time></trkpt><trkpt lat="44.77140802141942" lon="9.937124149338432"><ele>357.42857142857144</ele><time>2026-05-02T19:20:28Z</time></trkpt><trkpt lat="44.771344051925794" lon="9.937102935393604"><ele>358.7142857142857</ele><time>2026-05-02T19:20:31Z</time></trkpt><trkpt lat="44.77127879369526" lon="9.937085270262653"><ele>360.0</ele><time>2026-05-02T19:20:34Z</time></trkpt><trkpt lat="44.77121439557252" lon="9.937078883637728"><ele>360.0</ele><time>2026-05-02T19:20:37Z</time></trkpt><trkpt lat="44.771142382738375" lon="9.937102885262263"><ele>360.0</ele><time>2026-05-02T19:20:39.999Z</time></trkpt><trkpt lat="44.771100507309356" lon="9.937183691723757"><ele>360.0</ele><time>2026-05-02T19:20:42.999Z</time></trkpt><trkpt lat="44.77111481170468" lon="9.937288147459133"><ele>360.0</ele><time>2026-05-02T19:20:45.999Z</time></trkpt><trkpt lat="44.77117026569004" lon="9.937361553195506"><ele>360.0</ele><time>2026-05-02T19:20:48.999Z</time></trkpt><trkpt lat="44.771242457171894" lon="9.937390131384895"><ele>360.0</ele><time>2026-05-02T19:20:51.999Z</time></trkpt><trkpt lat="44.77131488822821" lon="9.937411664819297"><ele>360.0</ele><time>2026-05-02T19:20:54.999Z</time></trkpt><trkpt lat="44.77138660638805" lon="9.937432771849197"><ele>360.0</ele><time>2026-05-02T19:20:57.999Z</time></trkpt><trkpt lat="44.771459560165866" lon="9.937459680209654"><ele>360.0</ele><time>2026-05-02T19:21:00.999Z</time></trkpt><trkpt lat="44.77153276634179" lon="9.937483919560147"><ele>360.0</ele><time>2026-05-02T19:21:03.999Z</time></trkpt><trkpt lat="44.77160634411358" lon="9.937522198501828"><ele>360.0</ele><time>2026-05-02T19:21:06.999Z</time></trkpt><trkpt lat="44.7716626169924" lon="9.937587363964669"><ele>360.0</ele><time>2026-05-02T19:21:09.999Z</time></trkpt><trkpt lat="44.77163146169302" lon="9.93768752804127"><ele>360.0</ele><time>2026-05-02T19:21:13.999Z</time></trkpt><trkpt lat="44.771555653709726" lon="9.937656031349194"><ele>362.57142857142856</ele><time>2026-05-02T19:21:16.999Z</time></trkpt><trkpt lat="44.77148962278494" lon="9.937615475379113"><ele>365.14285714285717</ele><time>2026-05-02T19:21:19.999Z</time></trkpt><trkpt lat="44.771420420875586" lon="9.937593223128518"><ele>367.7142857142857</ele><time>2026-05-02T19:21:22.999Z</time></trkpt><trkpt lat="44.77134761435766" lon="9.937596414772191"><ele>370.2857142857143</ele><time>2026-05-02T19:21:25.999Z</time></trkpt><trkpt lat="44.771277706228496" lon="9.937608448246284"><ele>372.8571428571429</ele><time>2026-05-02T19:21:28.999Z</time></trkpt><trkpt lat="44.77121009388485" lon="9.937642080627446"><ele>375.42857142857144</ele><time>2026-05-02T19:21:32.001Z</time></trkpt><trkpt lat="44.77114912948326" lon="9.937698197763593"><ele>378.0</ele><time>2026-05-02T19:21:35.001Z</time></trkpt><trkpt lat="44.77109511614579" lon="9.937765959672374"><ele>378.0</ele><time>2026-05-02T19:21:38.001Z</time></trkpt><trkpt lat="44.77104434984932" lon="9.937836507124985"><ele>378.0</ele><time>2026-05-02T19:21:41.001Z</time></trkpt><trkpt lat="44.77098606365263" lon="9.937902821838028"><ele>378.0</ele><time>2026-05-02T19:21:44.001Z</time></trkpt><trkpt lat="44.77092523014302" lon="9.937974589465076"><ele>378.0</ele><time>2026-05-02T19:21:47Z</time></trkpt><trkpt lat="44.770849268834326" lon="9.93802130893996"><ele>378.0</ele><time>2026-05-02T19:21:50Z</time></trkpt><trkpt lat="44.770766722896944" lon="9.938025433998813"><ele>378.0</ele><time>2026-05-02T19:21:53Z</time></trkpt><trkpt lat="44.77069402686785" lon="9.937980714887294"><ele>378.1666666666667</ele><time>2026-05-02T19:21:56Z</time></trkpt><trkpt lat="44.77064371166733" lon="9.937905605757834"><ele>378.3333333333333</ele><time>2026-05-02T19:21:59Z</time></trkpt><trkpt lat="44.77060318271735" lon="9.937818106777714"><ele>378.5</ele><time>2026-05-02T19:22:02Z</time></trkpt><trkpt lat="44.77056179652772" lon="9.937723803656404"><ele>378.66666666666663</ele><time>2026-05-02T19:22:05Z</time></trkpt><trkpt lat="44.77051068195378" lon="9.937646064306625"><ele>378.8333333333333</ele><time>2026-05-02T19:22:08Z</time></trkpt><trkpt lat="44.77044574064471" lon="9.93760051283198"><ele>379.0</ele><time>2026-05-02T19:22:11Z</time></trkpt><trkpt lat="44.77035881660725" lon="9.93758772673218"><ele>379.0</ele><time>2026-05-02T19:22:14Z</time></trkpt><trkpt lat="44.77026708914377" lon="9.93761390415986"><ele>379.0</ele><time>2026-05-02T19:22:17Z</time></trkpt><trkpt lat="44.77021043729153" lon="9.937657982223024"><ele>379.0</ele><time>2026-05-02T19:22:19Z</time></trkpt><trkpt lat="44.770168156318825" lon="9.937729539387647"><ele>379.0</ele><time>2026-05-02T19:22:21Z</time></trkpt><trkpt lat="44.770137287076516" lon="9.937846549175141"><ele>379.0</ele><time>2026-05-02T19:22:24Z</time></trkpt><trkpt lat="44.77013579567959" lon="9.937977327173105"><ele>379.0</ele><time>2026-05-02T19:22:27Z</time></trkpt><trkpt lat="44.77015871989276" lon="9.938067383007825"><ele>379.0</ele><time>2026-05-02T19:22:29Z</time></trkpt><trkpt lat="44.7701967745935" lon="9.938142615807578"><ele>379.0</ele><time>2026-05-02T19:22:31Z</time></trkpt><trkpt lat="44.77025970139681" lon="9.938232733301197"><ele>379.0</ele><time>2026-05-02T19:22:34Z</time></trkpt><trkpt lat="44.77032854912546" lon="9.938311579392932"><ele>379.0</ele><time>2026-05-02T19:22:37Z</time></trkpt><trkpt lat="44.77039301953469" lon="9.9383787929954"><ele>379.0</ele><time>2026-05-02T19:22:40Z</time></trkpt><trkpt lat="44.770457154726856" lon="9.938438793336324"><ele>379.0</ele><time>2026-05-02T19:22:42.999Z</time></trkpt><trkpt lat="44.77051436326378" lon="9.938491660830373"><ele>380.5714285714286</ele><time>2026-05-02T19:22:45.999Z</time></trkpt><trkpt lat="44.77057587193547" lon="9.93852900437747"><ele>382.14285714285717</ele><time>2026-05-02T19:22:48.999Z</time></trkpt><trkpt lat="44.77064019695309" lon="9.938591107613561"><ele>383.7142857142857</ele><time>2026-05-02T19:22:52.999Z</time></trkpt><trkpt lat="44.770693854735825" lon="9.938644967393763"><ele>385.28571428571433</ele><time>2026-05-02T19:22:57.999Z</time></trkpt><trkpt lat="44.770756342967495" lon="9.938676199083616"><ele>386.85714285714283</ele><time>2026-05-02T19:23:01.999Z</time></trkpt><trkpt lat="44.77083655174944" lon="9.93870822996783"><ele>388.42857142857144</ele><time>2026-05-02T19:23:04.999Z</time></trkpt><trkpt lat="44.77091247615527" lon="9.938714104465605"><ele>390.0</ele><time>2026-05-02T19:23:07.999Z</time></trkpt><trkpt lat="44.77098665030766" lon="9.938710455647186"><ele>390.1428571428571</ele><time>2026-05-02T19:23:10.999Z</time></trkpt><trkpt lat="44.77106431928058" lon="9.938694340176239"><ele>390.2857142857143</ele><time>2026-05-02T19:23:13.999Z</time></trkpt><trkpt lat="44.77113567607977" lon="9.938666189487796"><ele>390.42857142857144</ele><time>2026-05-02T19:23:16.999Z</time></trkpt><trkpt lat="44.77121679291363" lon="9.938637593339282"><ele>390.57142857142856</ele><time>2026-05-02T19:23:20.999Z</time></trkpt><trkpt lat="44.77128117683058" lon="9.938611552306124"><ele>390.7142857142857</ele><time>2026-05-02T19:23:23.999Z</time></trkpt><trkpt lat="44.77134836429954" lon="9.938605734762465"><ele>390.85714285714283</ele><time>2026-05-02T19:23:26.999Z</time></trkpt><trkpt lat="44.77141900494056" lon="9.938605968710347"><ele>391.0</ele><time>2026-05-02T19:23:29.999Z</time></trkpt><trkpt lat="44.77148534923427" lon="9.93863770853219"><ele>390.99999999999994</ele><time>2026-05-02T19:23:32.999Z</time></trkpt><trkpt lat="44.7715442513581" lon="9.93869011835325"><ele>391.0</ele><time>2026-05-02T19:23:35.999Z</time></trkpt><trkpt lat="44.77159986094759" lon="9.938754431003671"><ele>391.0</ele><time>2026-05-02T19:23:39Z</time></trkpt><trkpt lat="44.77164976312284" lon="9.938826139812079"><ele>391.0</ele><time>2026-05-02T19:23:42Z</time></trkpt><trkpt lat="44.771692686771374" lon="9.938902289229375"><ele>391.0</ele><time>2026-05-02T19:23:45Z</time></trkpt><trkpt lat="44.771723372891046" lon="9.938980781780167"><ele>390.99999999999994</ele><time>2026-05-02T19:23:48Z</time></trkpt><trkpt lat="44.77174051273709" lon="9.939085440188185"><ele>391.0</ele><time>2026-05-02T19:23:51Z</time></trkpt><trkpt lat="44.771744095629835" lon="9.939188372043986"><ele>389.1428571428571</ele><time>2026-05-02T19:23:54Z</time></trkpt><trkpt lat="44.771741857601306" lon="9.939287209233127"><ele>387.2857142857143</ele><time>2026-05-02T19:23:57Z</time></trkpt><trkpt lat="44.77172589300376" lon="9.93938106645641"><ele>385.42857142857144</ele><time>2026-05-02T19:24:00Z</time></trkpt><trkpt lat="44.771701502565705" lon="9.939468541650692"><ele>383.57142857142856</ele><time>2026-05-02T19:24:03Z</time></trkpt><trkpt lat="44.771665036772596" lon="9.939546907832272"><ele>381.7142857142857</ele><time>2026-05-02T19:24:06Z</time></trkpt><trkpt lat="44.77161644191666" lon="9.93961175164004"><ele>379.85714285714283</ele><time>2026-05-02T19:24:09Z</time></trkpt><trkpt lat="44.771557586245905" lon="9.939655842159578"><ele>378.0</ele><time>2026-05-02T19:24:12Z</time></trkpt><trkpt lat="44.77149655147666" lon="9.939692097393843"><ele>378.0</ele><time>2026-05-02T19:24:15Z</time></trkpt><trkpt lat="44.771433329714476" lon="9.939724172503297"><ele>378.0</ele><time>2026-05-02T19:24:18Z</time></trkpt><trkpt lat="44.77136045432794" lon="9.939772937477766"><ele>378.0</ele><time>2026-05-02T19:24:22Z</time></trkpt><trkpt lat="44.77128181354547" lon="9.939805275896783"><ele>378.0</ele><time>2026-05-02T19:24:25Z</time></trkpt><trkpt lat="44.77121106850917" lon="9.9398409958449"><ele>378.0</ele><time>2026-05-02T19:24:28Z</time></trkpt><trkpt lat="44.77115130226447" lon="9.93988223004229"><ele>378.0</ele><time>2026-05-02T19:24:31Z</time></trkpt><trkpt lat="44.77108350319074" lon="9.939931533255576"><ele>378.0</ele><time>2026-05-02T19:24:34Z</time></trkpt><trkpt lat="44.771015911314926" lon="9.939975651918504"><ele>380.14285714285717</ele><time>2026-05-02T19:24:37Z</time></trkpt><trkpt lat="44.770956402380136" lon="9.940028619557905"><ele>382.2857142857143</ele><time>2026-05-02T19:24:40Z</time></trkpt><trkpt lat="44.77089670462251" lon="9.940085525756121"><ele>384.42857142857144</ele><time>2026-05-02T19:24:43Z</time></trkpt><trkpt lat="44.77083252957431" lon="9.940136182112173"><ele>386.57142857142856</ele><time>2026-05-02T19:24:45.999Z</time></trkpt><trkpt lat="44.770766602508886" lon="9.94018159379418"><ele>388.7142857142857</ele><time>2026-05-02T19:24:48.999Z</time></trkpt><trkpt lat="44.77070580131344" lon="9.940227647900596"><ele>390.8571428571429</ele><time>2026-05-02T19:24:51.999Z</time></trkpt><trkpt lat="44.770638307606156" lon="9.940262768091635"><ele>393.0</ele><time>2026-05-02T19:24:54.999Z</time></trkpt><trkpt lat="44.770569285967255" lon="9.940289867497102"><ele>393.0</ele><time>2026-05-02T19:24:57.999Z</time></trkpt><trkpt lat="44.770497381559686" lon="9.940309325926156"><ele>393.0</ele><time>2026-05-02T19:25:00.999Z</time></trkpt><trkpt lat="44.77042562580542" lon="9.940336469112049"><ele>393.0</ele><time>2026-05-02T19:25:03.999Z</time></trkpt><trkpt lat="44.77035603284624" lon="9.94037647030392"><ele>393.0</ele><time>2026-05-02T19:25:06.999Z</time></trkpt><trkpt lat="44.770296650185614" lon="9.940434039369189"><ele>393.0</ele><time>2026-05-02T19:25:09.999Z</time></trkpt><trkpt lat="44.770239747625396" lon="9.940513881222497"><ele>393.0</ele><time>2026-05-02T19:25:12.999Z</time></trkpt><trkpt lat="44.77019041831316" lon="9.940601403413897"><ele>395.00000000000006</ele><time>2026-05-02T19:25:15.999Z</time></trkpt><trkpt lat="44.7701485994432" lon="9.940690938322756"><ele>397.0</ele><time>2026-05-02T19:25:18.999Z</time></trkpt><trkpt lat="44.77011397970273" lon="9.940787047855926"><ele>399.0</ele><time>2026-05-02T19:25:21.999Z</time></trkpt><trkpt lat="44.77008280029584" lon="9.94087820303406"><ele>401.0</ele><time>2026-05-02T19:25:24.999Z</time></trkpt><trkpt lat="44.770046379171745" lon="9.940968479487491"><ele>403.0</ele><time>2026-05-02T19:25:27.999Z</time></trkpt><trkpt lat="44.7700095511944" lon="9.941060413110964"><ele>405.00000000000006</ele><time>2026-05-02T19:25:30.999Z</time></trkpt><trkpt lat="44.7699747255262" lon="9.941154584880184"><ele>407.0</ele><time>2026-05-02T19:25:33.999Z</time></trkpt><trkpt lat="44.76993427493085" lon="9.941245207989144"><ele>407.8333333333333</ele><time>2026-05-02T19:25:36.999Z</time></trkpt><trkpt lat="44.76989235423763" lon="9.94133048950552"><ele>408.66666666666663</ele><time>2026-05-02T19:25:39.999Z</time></trkpt><trkpt lat="44.76983963721273" lon="9.941413766366972"><ele>409.5</ele><time>2026-05-02T19:25:43Z</time></trkpt><trkpt lat="44.769780988829126" lon="9.941489639134858"><ele>410.33333333333337</ele><time>2026-05-02T19:25:46Z</time></trkpt><trkpt lat="44.76971901348595" lon="9.941553982010836"><ele>411.1666666666667</ele><time>2026-05-02T19:25:49Z</time></trkpt><trkpt lat="44.769655135103896" lon="9.941615207553248"><ele>412.0</ele><time>2026-05-02T19:25:52Z</time></trkpt><trkpt lat="44.76958710624134" lon="9.941666415525182"><ele>412.00000000000006</ele><time>2026-05-02T19:25:55Z</time></trkpt><trkpt lat="44.769507233616714" lon="9.941700899293254"><ele>412.0</ele><time>2026-05-02T19:25:58Z</time></trkpt><trkpt lat="44.769429055614076" lon="9.941728042304224"><ele>412.0</ele><time>2026-05-02T19:26:01Z</time></trkpt><trkpt lat="44.76935049861313" lon="9.94173597079582"><ele>412.0</ele><time>2026-05-02T19:26:04Z</time></trkpt><trkpt lat="44.76928053515289" lon="9.941730980751704"><ele>412.00000000000006</ele><time>2026-05-02T19:26:07Z</time></trkpt><trkpt lat="44.76920033155481" lon="9.941715015171393"><ele>412.0</ele><time>2026-05-02T19:26:11Z</time></trkpt><trkpt lat="44.76912883538974" lon="9.941688265286395"><ele>412.50000000000006</ele><time>2026-05-02T19:26:14Z</time></trkpt><trkpt lat="44.76904238381638" lon="9.941654897091585"><ele>413.0</ele><time>2026-05-02T19:26:17Z</time></trkpt><trkpt lat="44.768976762206556" lon="9.941623842148568"><ele>413.5</ele><time>2026-05-02T19:26:20Z</time></trkpt><trkpt lat="44.76891123064284" lon="9.941589176551064"><ele>414.0</ele><time>2026-05-02T19:26:23Z</time></trkpt><trkpt lat="44.76884271723823" lon="9.941547689415355"><ele>414.50000000000006</ele><time>2026-05-02T19:26:27Z</time></trkpt><trkpt lat="44.76877818964992" lon="9.941493424746588"><ele>415.0</ele><time>2026-05-02T19:26:30Z</time></trkpt><trkpt lat="44.768715687328324" lon="9.941430458271189"><ele>415.00000000000006</ele><time>2026-05-02T19:26:33Z</time></trkpt><trkpt lat="44.76866660419036" lon="9.941352562531161"><ele>415.0</ele><time>2026-05-02T19:26:36Z</time></trkpt><trkpt lat="44.76862707284144" lon="9.941257267057525"><ele>415.0</ele><time>2026-05-02T19:26:39Z</time></trkpt><trkpt lat="44.76860441068293" lon="9.941153846701337"><ele>415.0</ele><time>2026-05-02T19:26:41Z</time></trkpt><trkpt lat="44.768589995413755" lon="9.941053342144732"><ele>415.00000000000006</ele><time>2026-05-02T19:26:44Z</time></trkpt><trkpt lat="44.76856950638616" lon="9.940947689610258"><ele>415.0</ele><time>2026-05-02T19:26:46.999Z</time></trkpt><trkpt lat="44.768539891424865" lon="9.940838382325982"><ele>416.6666666666667</ele><time>2026-05-02T19:26:49.999Z</time></trkpt><trkpt lat="44.76849943738405" lon="9.940745962332684"><ele>418.33333333333337</ele><time>2026-05-02T19:26:52.999Z</time></trkpt><trkpt lat="44.768446433838584" lon="9.940674200638856"><ele>420.0</ele><time>2026-05-02T19:26:55.999Z</time></trkpt><trkpt lat="44.768396529690264" lon="9.940598705558834"><ele>421.66666666666663</ele><time>2026-05-02T19:26:58.999Z</time></trkpt><trkpt lat="44.76833636944404" lon="9.940541174286802"><ele>423.3333333333333</ele><time>2026-05-02T19:27:01.999Z</time></trkpt><trkpt lat="44.76826852856837" lon="9.94048703684469"><ele>425.0</ele><time>2026-05-02T19:27:04.999Z</time></trkpt><trkpt lat="44.76819489283179" lon="9.940437517568846"><ele>424.99999999999994</ele><time>2026-05-02T19:27:07.999Z</time></trkpt><trkpt lat="44.76811923671537" lon="9.940391506291318"><ele>425.0</ele><time>2026-05-02T19:27:10.999Z</time></trkpt><trkpt lat="44.768036483989825" lon="9.94035459573336"><ele>425.0</ele><time>2026-05-02T19:27:13.999Z</time></trkpt><trkpt lat="44.767957155974585" lon="9.940325105233075"><ele>425.0</ele><time>2026-05-02T19:27:16.999Z</time></trkpt><trkpt lat="44.76784517420774" lon="9.940300269404574"><ele>424.99999999999994</ele><time>2026-05-02T19:27:20.999Z</time></trkpt><trkpt lat="44.767766137117384" lon="9.940298739006277"><ele>425.0</ele><time>2026-05-02T19:27:23.999Z</time></trkpt><trkpt lat="44.76768549605491" lon="9.940309759773314"><ele>425.66666666666663</ele><time>2026-05-02T19:27:26.999Z</time></trkpt><trkpt lat="44.767605158106086" lon="9.940326295889946"><ele>426.3333333333333</ele><time>2026-05-02T19:27:29.999Z</time></trkpt><trkpt lat="44.76752655793451" lon="9.940344401110785"><ele>427.0</ele><time>2026-05-02T19:27:32.999Z</time></trkpt><trkpt lat="44.76743969749124" lon="9.940349971969189"><ele>427.66666666666663</ele><time>2026-05-02T19:27:35.999Z</time></trkpt><trkpt lat="44.767358262716044" lon="9.94036897186625"><ele>428.3333333333333</ele><time>2026-05-02T19:27:38.999Z</time></trkpt><trkpt lat="44.767277043065505" lon="9.940387274646959"><ele>429.0</ele><time>2026-05-02T19:27:41.999Z</time></trkpt><trkpt lat="44.76719631705004" lon="9.940405874760016"><ele>429.0</ele><time>2026-05-02T19:27:44.998Z</time></trkpt><trkpt lat="44.767116238330054" lon="9.940424759807906"><ele>429.0</ele><time>2026-05-02T19:27:47.998Z</time></trkpt><trkpt lat="44.767038109532386" lon="9.940434380926296"><ele>429.0</ele><time>2026-05-02T19:27:51Z</time></trkpt><trkpt lat="44.76696006658352" lon="9.940452134387995"><ele>429.0</ele><time>2026-05-02T19:27:54Z</time></trkpt><trkpt lat="44.766877812673336" lon="9.940470839071493"><ele>429.0</ele><time>2026-05-02T19:27:57Z</time></trkpt><trkpt lat="44.76679825287811" lon="9.940492425914565"><ele>429.0</ele><time>2026-05-02T19:28:00Z</time></trkpt><trkpt lat="44.76671948158522" lon="9.940517120941415"><ele>429.5</ele><time>2026-05-02T19:28:03Z</time></trkpt><trkpt lat="44.76664121121134" lon="9.940543263226678"><ele>430.0</ele><time>2026-05-02T19:28:06Z</time></trkpt><trkpt lat="44.76656748753058" lon="9.940570301599195"><ele>430.5</ele><time>2026-05-02T19:28:09Z</time></trkpt><trkpt lat="44.766493135615924" lon="9.940598707819296"><ele>431.0</ele><time>2026-05-02T19:28:12Z</time></trkpt><trkpt lat="44.766422817042226" lon="9.940627480300808"><ele>431.5</ele><time>2026-05-02T19:28:15Z</time></trkpt><trkpt lat="44.76635082398334" lon="9.940660355099887"><ele>432.0</ele><time>2026-05-02T19:28:18Z</time></trkpt><trkpt lat="44.76627938816414" lon="9.940691319278992"><ele>432.0</ele><time>2026-05-02T19:28:21Z</time></trkpt><trkpt lat="44.76620870142989" lon="9.940720367015127"><ele>432.0</ele><time>2026-05-02T19:28:24Z</time></trkpt><trkpt lat="44.766138925781235" lon="9.940742729290367"><ele>432.0</ele><time>2026-05-02T19:28:27Z</time></trkpt><trkpt lat="44.766068601603344" lon="9.940770919879862"><ele>432.0</ele><time>2026-05-02T19:28:30Z</time></trkpt><trkpt lat="44.76599755253821" lon="9.940806907028472"><ele>432.0</ele><time>2026-05-02T19:28:33Z</time></trkpt><trkpt lat="44.765925478554735" lon="9.940839701469187"><ele>432.0</ele><time>2026-05-02T19:28:36Z</time></trkpt><trkpt lat="44.76585583681145" lon="9.940873984044813"><ele>432.0</ele><time>2026-05-02T19:28:39Z</time></trkpt><trkpt lat="44.765786242315194" lon="9.940905932754495"><ele>432.0</ele><time>2026-05-02T19:28:42Z</time></trkpt><trkpt lat="44.765718498440215" lon="9.940938640769291"><ele>432.0</ele><time>2026-05-02T19:28:45Z</time></trkpt><trkpt lat="44.7656527591205" lon="9.940981512235995"><ele>432.0</ele><time>2026-05-02T19:28:47.999Z</time></trkpt><trkpt lat="44.76558232661297" lon="9.941022358694369"><ele>432.0</ele><time>2026-05-02T19:28:50.999Z</time></trkpt><trkpt lat="44.765518669324614" lon="9.941069432313771"><ele>432.0</ele><time>2026-05-02T19:28:53.999Z</time></trkpt><trkpt lat="44.7654550229689" lon="9.941121641371543"><ele>432.0</ele><time>2026-05-02T19:28:56.999Z</time></trkpt><trkpt lat="44.7653901136991" lon="9.941169888868597"><ele>432.0</ele><time>2026-05-02T19:28:59.999Z</time></trkpt><trkpt lat="44.76532018374092" lon="9.941222698467769"><ele>432.0</ele><time>2026-05-02T19:29:03.999Z</time></trkpt><trkpt lat="44.76526099720472" lon="9.941267175243315"><ele>432.0</ele><time>2026-05-02T19:29:06.999Z</time></trkpt><trkpt lat="44.76520082170694" lon="9.9413129167631"><ele>432.0</ele><time>2026-05-02T19:29:09.999Z</time></trkpt><trkpt lat="44.76514398019009" lon="9.941355999507364"><ele>432.0</ele><time>2026-05-02T19:29:12.999Z</time></trkpt><trkpt lat="44.76508673363346" lon="9.94140115087156"><ele>432.0</ele><time>2026-05-02T19:29:15.999Z</time></trkpt><trkpt lat="44.765028702178824" lon="9.941443337922298"><ele>432.0</ele><time>2026-05-02T19:29:18.999Z</time></trkpt><trkpt lat="44.76497091080391" lon="9.941482343839361"><ele>432.0</ele><time>2026-05-02T19:29:21.999Z</time></trkpt><trkpt lat="44.76489800317041" lon="9.941540278974626"><ele>432.85714285714283</ele><time>2026-05-02T19:29:25.999Z</time></trkpt><trkpt lat="44.764841867126954" lon="9.941583314670764"><ele>433.71428571428567</ele><time>2026-05-02T19:29:28.999Z</time></trkpt><trkpt lat="44.7647721238722" lon="9.94163366717671"><ele>434.57142857142856</ele><time>2026-05-02T19:29:32.999Z</time></trkpt><trkpt lat="44.764703485703045" lon="9.941688197159205"><ele>435.42857142857144</ele><time>2026-05-02T19:29:36.999Z</time></trkpt><trkpt lat="44.76463218779499" lon="9.94174063765823"><ele>436.2857142857143</ele><time>2026-05-02T19:29:40.999Z</time></trkpt><trkpt lat="44.76457435987772" lon="9.941791569035143"><ele>437.14285714285717</ele><time>2026-05-02T19:29:44.999Z</time></trkpt><trkpt lat="44.76450946192743" lon="9.941834822784502"><ele>438.0</ele><time>2026-05-02T19:29:48.998Z</time></trkpt><trkpt lat="44.76444586789166" lon="9.941889740720374"><ele>438.0</ele><time>2026-05-02T19:29:51.998Z</time></trkpt><trkpt lat="44.764389018762444" lon="9.941929871068256"><ele>438.0</ele><time>2026-05-02T19:29:55Z</time></trkpt><trkpt lat="44.76431651446844" lon="9.941978760513289"><ele>438.0</ele><time>2026-05-02T19:29:59Z</time></trkpt><trkpt lat="44.76424350339623" lon="9.942035155274608"><ele>438.0</ele><time>2026-05-02T19:30:03Z</time></trkpt><trkpt lat="44.76416934300527" lon="9.942084873954776"><ele>438.0</ele><time>2026-05-02T19:30:07Z</time></trkpt><trkpt lat="44.76411256685351" lon="9.942143291106094"><ele>438.0</ele><time>2026-05-02T19:30:11Z</time></trkpt><trkpt lat="44.76404644638647" lon="9.942206038757853"><ele>440.0</ele><time>2026-05-02T19:30:15Z</time></trkpt><trkpt lat="44.763989196466376" lon="9.942269591947133"><ele>442.0</ele><time>2026-05-02T19:30:19Z</time></trkpt><trkpt lat="44.763929651535086" lon="9.942341142989063"><ele>444.0</ele><time>2026-05-02T19:30:23Z</time></trkpt><trkpt lat="44.7638647842097" lon="9.942416343171514"><ele>446.0</ele><time>2026-05-02T19:30:27Z</time></trkpt><trkpt lat="44.76380042285641" lon="9.94247747175318"><ele>448.0</ele><time>2026-05-02T19:30:31Z</time></trkpt><trkpt lat="44.763740267519864" lon="9.942526710398338"><ele>450.0</ele><time>2026-05-02T19:30:34Z</time></trkpt><trkpt lat="44.76368240184817" lon="9.942563149954537"><ele>452.0</ele><time>2026-05-02T19:30:37Z</time></trkpt><trkpt lat="44.763625467871464" lon="9.942608192786697"><ele>452.0</ele><time>2026-05-02T19:30:40Z</time></trkpt><trkpt lat="44.76355025190922" lon="9.94265022394503"><ele>452.0</ele><time>2026-05-02T19:30:44Z</time></trkpt><trkpt lat="44.76348238639396" lon="9.942677097786657"><ele>452.0</ele><time>2026-05-02T19:30:48Z</time></trkpt><trkpt lat="44.76341306920004" lon="9.94270521793862"><ele>452.0</ele><time>2026-05-02T19:30:50.999Z</time></trkpt><trkpt lat="44.76334124676394" lon="9.94272337513969"><ele>452.0</ele><time>2026-05-02T19:30:54.999Z</time></trkpt><trkpt lat="44.763269040998786" lon="9.942738134839088"><ele>452.0</ele><time>2026-05-02T19:30:58.999Z</time></trkpt><trkpt lat="44.763197646501546" lon="9.94272706094012"><ele>452.0</ele><time>2026-05-02T19:31:01.999Z</time></trkpt><trkpt lat="44.76314402280363" lon="9.942637066204666"><ele>454.3333333333333</ele><time>2026-05-02T19:31:05.999Z</time></trkpt><trkpt lat="44.763148450035445" lon="9.942526140086569"><ele>456.66666666666663</ele><time>2026-05-02T19:31:09.999Z</time></trkpt><trkpt lat="44.763185782453455" lon="9.942427588210842"><ele>459.0</ele><time>2026-05-02T19:31:13.999Z</time></trkpt><trkpt lat="44.763225586648815" lon="9.942327840897352"><ele>461.33333333333337</ele><time>2026-05-02T19:31:17.999Z</time></trkpt><trkpt lat="44.76326028044243" lon="9.942225354313855"><ele>463.6666666666667</ele><time>2026-05-02T19:31:21.999Z</time></trkpt><trkpt lat="44.763298652908155" lon="9.94212516338292"><ele>466.0</ele><time>2026-05-02T19:31:25.999Z</time></trkpt><trkpt lat="44.76333933583825" lon="9.94202532267189"><ele>466.0</ele><time>2026-05-02T19:31:29.999Z</time></trkpt><trkpt lat="44.76338374614147" lon="9.941935386296365"><ele>466.0</ele><time>2026-05-02T19:31:33.999Z</time></trkpt><trkpt lat="44.76342958981428" lon="9.941844551950858"><ele>466.0</ele><time>2026-05-02T19:31:37.999Z</time></trkpt><trkpt lat="44.76347594724964" lon="9.941764467776228"><ele>466.0</ele><time>2026-05-02T19:31:41.999Z</time></trkpt><trkpt lat="44.76351662307489" lon="9.94169254489955"><ele>466.0</ele><time>2026-05-02T19:31:45.999Z</time></trkpt><trkpt lat="44.76355918898515" lon="9.9415986753287"><ele>466.0</ele><time>2026-05-02T19:31:49.998Z</time></trkpt><trkpt lat="44.76359388614586" lon="9.941521336732627"><ele>466.0</ele><time>2026-05-02T19:31:52.998Z</time></trkpt><trkpt lat="44.76363548928226" lon="9.94145160200419"><ele>465.28571428571433</ele><time>2026-05-02T19:31:55.998Z</time></trkpt><trkpt lat="44.7636809770911" lon="9.941360719793607"><ele>464.57142857142856</ele><time>2026-05-02T19:31:58.998Z</time></trkpt><trkpt lat="44.763720491639525" lon="9.941290416229553"><ele>463.8571428571429</ele><time>2026-05-02T19:32:02Z</time></trkpt><trkpt lat="44.76377259849006" lon="9.941196955233739"><ele>463.14285714285717</ele><time>2026-05-02T19:32:06Z</time></trkpt><trkpt lat="44.763817193042975" lon="9.941102032076747"><ele>462.42857142857144</ele><time>2026-05-02T19:32:10Z</time></trkpt><trkpt lat="44.763853021356624" lon="9.941027620607565"><ele>461.7142857142857</ele><time>2026-05-02T19:32:13Z</time></trkpt><trkpt lat="44.763886940253585" lon="9.940949528003207"><ele>461.0</ele><time>2026-05-02T19:32:16Z</time></trkpt><trkpt lat="44.763928945608164" lon="9.940846712035157"><ele>462.66666666666663</ele><time>2026-05-02T19:32:20Z</time></trkpt><trkpt lat="44.76395892413902" lon="9.940742796364376"><ele>464.3333333333333</ele><time>2026-05-02T19:32:24Z</time></trkpt><trkpt lat="44.76398236795477" lon="9.940634570686468"><ele>466.0</ele><time>2026-05-02T19:32:28Z</time></trkpt><trkpt lat="44.763967741045995" lon="9.940544487094083"><ele>467.66666666666663</ele><time>2026-05-02T19:32:32Z</time></trkpt><trkpt lat="44.763902404049986" lon="9.940487619399768"><ele>469.3333333333333</ele><time>2026-05-02T19:32:36Z</time></trkpt><trkpt lat="44.763839431287515" lon="9.940525068820266"><ele>471.0</ele><time>2026-05-02T19:32:40Z</time></trkpt><trkpt lat="44.7637828778402" lon="9.940620055793786"><ele>471.00000000000006</ele><time>2026-05-02T19:32:44Z</time></trkpt><trkpt lat="44.763732669898" lon="9.940713546042073"><ele>471.0</ele><time>2026-05-02T19:32:48Z</time></trkpt><trkpt lat="44.763690334328786" lon="9.940781166452156"><ele>471.00000000000006</ele><time>2026-05-02T19:32:51Z</time></trkpt><trkpt lat="44.76364197544248" lon="9.94083877685601"><ele>471.00000000000006</ele><time>2026-05-02T19:32:53.999Z</time></trkpt><trkpt lat="44.763587108130864" lon="9.940891236271836"><ele>471.0</ele><time>2026-05-02T19:32:56.999Z</time></trkpt><trkpt lat="44.76352901517681" lon="9.940933860913189"><ele>471.00000000000006</ele><time>2026-05-02T19:32:59.999Z</time></trkpt><trkpt lat="44.763470025365166" lon="9.940969011792973"><ele>471.00000000000006</ele><time>2026-05-02T19:33:02.999Z</time></trkpt><trkpt lat="44.76340909070931" lon="9.941006408894541"><ele>472.00000000000006</ele><time>2026-05-02T19:33:05.999Z</time></trkpt><trkpt lat="44.76334783046852" lon="9.941042209396187"><ele>473.0</ele><time>2026-05-02T19:33:08.999Z</time></trkpt><trkpt lat="44.763284341900196" lon="9.941079489546318"><ele>474.00000000000006</ele><time>2026-05-02T19:33:11.999Z</time></trkpt><trkpt lat="44.76322034446726" lon="9.941113650648415"><ele>475.00000000000006</ele><time>2026-05-02T19:33:14.999Z</time></trkpt><trkpt lat="44.763152474981425" lon="9.941135374649633"><ele>476.0</ele><time>2026-05-02T19:33:17.999Z</time></trkpt><trkpt lat="44.76307524728148" lon="9.94114039882598"><ele>477.00000000000006</ele><time>2026-05-02T19:33:21.999Z</time></trkpt><trkpt lat="44.76300792675212" lon="9.941124100084304"><ele>478.00000000000006</ele><time>2026-05-02T19:33:24.999Z</time></trkpt><trkpt lat="44.76294048335447" lon="9.941094217582277"><ele>478.00000000000006</ele><time>2026-05-02T19:33:27.999Z</time></trkpt><trkpt lat="44.76287411537984" lon="9.941064352323728"><ele>478.0</ele><time>2026-05-02T19:33:30.999Z</time></trkpt><trkpt lat="44.76280317355031" lon="9.941034757477793"><ele>478.00000000000006</ele><time>2026-05-02T19:33:33.999Z</time></trkpt><trkpt lat="44.76273472342272" lon="9.941014796659571"><ele>478.00000000000006</ele><time>2026-05-02T19:33:36.999Z</time></trkpt><trkpt lat="44.762658456372314" lon="9.94102224226513"><ele>478.0</ele><time>2026-05-02T19:33:39.999Z</time></trkpt><trkpt lat="44.76259015939409" lon="9.941056663547915"><ele>478.00000000000006</ele><time>2026-05-02T19:33:42.999Z</time></trkpt><trkpt lat="44.7625352302751" lon="9.941116148033343"><ele>478.00000000000006</ele><time>2026-05-02T19:33:45.999Z</time></trkpt><trkpt lat="44.76248424358437" lon="9.941190765561757"><ele>479.8571428571429</ele><time>2026-05-02T19:33:48.999Z</time></trkpt><trkpt lat="44.762434289994786" lon="9.941266294079584"><ele>481.7142857142857</ele><time>2026-05-02T19:33:51.999Z</time></trkpt><trkpt lat="44.76238392354061" lon="9.941341725974096"><ele>483.57142857142856</ele><time>2026-05-02T19:33:54.998Z</time></trkpt><trkpt lat="44.76233785604057" lon="9.941418057521075"><ele>485.42857142857144</ele><time>2026-05-02T19:33:57.998Z</time></trkpt><trkpt lat="44.7622871087892" lon="9.941487975096166"><ele>487.2857142857142</ele><time>2026-05-02T19:34:00.998Z</time></trkpt><trkpt lat="44.76223683940652" lon="9.941552166288691"><ele>489.1428571428571</ele><time>2026-05-02T19:34:03.998Z</time></trkpt><trkpt lat="44.76216092016369" lon="9.94161365324429"><ele>491.0</ele><time>2026-05-02T19:34:08Z</time></trkpt><trkpt lat="44.762096615001866" lon="9.941645098091541"><ele>491.0</ele><time>2026-05-02T19:34:11Z</time></trkpt><trkpt lat="44.76201775727864" lon="9.941642491834159"><ele>490.99999999999994</ele><time>2026-05-02T19:34:14Z</time></trkpt><trkpt lat="44.761944447922374" lon="9.941642110710053"><ele>491.0</ele><time>2026-05-02T19:34:17Z</time></trkpt><trkpt lat="44.7618707533507" lon="9.94163451299909"><ele>491.0</ele><time>2026-05-02T19:34:20Z</time></trkpt><trkpt lat="44.76180180321268" lon="9.94163548065665"><ele>490.99999999999994</ele><time>2026-05-02T19:34:23Z</time></trkpt><trkpt lat="44.761733539938405" lon="9.941642542248927"><ele>491.0</ele><time>2026-05-02T19:34:26Z</time></trkpt><trkpt lat="44.76166269087888" lon="9.9416678018107"><ele>491.0</ele><time>2026-05-02T19:34:29Z</time></trkpt><trkpt lat="44.76159118069811" lon="9.941692582191676"><ele>491.57142857142856</ele><time>2026-05-02T19:34:32Z</time></trkpt><trkpt lat="44.761525636013516" lon="9.941729553720595"><ele>492.1428571428571</ele><time>2026-05-02T19:34:35Z</time></trkpt><trkpt lat="44.761466029096" lon="9.941778488781278"><ele>492.71428571428567</ele><time>2026-05-02T19:34:38Z</time></trkpt><trkpt lat="44.76140771351012" lon="9.941835812760806"><ele>493.2857142857142</ele><time>2026-05-02T19:34:41Z</time></trkpt><trkpt lat="44.76135276102043" lon="9.941898691359441"><ele>493.85714285714283</ele><time>2026-05-02T19:34:44Z</time></trkpt><trkpt lat="44.76130588867799" lon="9.941966825391606"><ele>494.42857142857133</ele><time>2026-05-02T19:34:47Z</time></trkpt><trkpt lat="44.76125585446492" lon="9.942051984945422"><ele>494.99999999999994</ele><time>2026-05-02T19:34:50Z</time></trkpt><trkpt lat="44.761209595843376" lon="9.942130640293366"><ele>494.99999999999994</ele><time>2026-05-02T19:34:53Z</time></trkpt><trkpt lat="44.761167651532425" lon="9.942206830524658"><ele>495.0</ele><time>2026-05-02T19:34:56Z</time></trkpt><trkpt lat="44.76112149028047" lon="9.942284225616374"><ele>494.99999999999994</ele><time>2026-05-02T19:34:58.999Z</time></trkpt><trkpt lat="44.76107788305031" lon="9.942362346652999"><ele>494.99999999999994</ele><time>2026-05-02T19:35:01.999Z</time></trkpt><trkpt lat="44.761038911968086" lon="9.94244428717539"><ele>495.0</ele><time>2026-05-02T19:35:04.999Z</time></trkpt><trkpt lat="44.76100408713881" lon="9.942529710707145"><ele>494.99999999999994</ele><time>2026-05-02T19:35:07.999Z</time></trkpt><trkpt lat="44.760972770562155" lon="9.942616577321816"><ele>494.99999999999994</ele><time>2026-05-02T19:35:10.999Z</time></trkpt><trkpt lat="44.760953444686514" lon="9.94271254657076"><ele>494.8571428571428</ele><time>2026-05-02T19:35:13.999Z</time></trkpt><trkpt lat="44.76094315796327" lon="9.942810738760448"><ele>494.71428571428567</ele><time>2026-05-02T19:35:16.999Z</time></trkpt><trkpt lat="44.76095227589966" lon="9.942913718796495"><ele>494.57142857142856</ele><time>2026-05-02T19:35:19.999Z</time></trkpt><trkpt lat="44.760973337501795" lon="9.943015962523452"><ele>494.4285714285714</ele><time>2026-05-02T19:35:22.999Z</time></trkpt><trkpt lat="44.76099806118586" lon="9.943113881591554"><ele>494.2857142857142</ele><time>2026-05-02T19:35:25.999Z</time></trkpt><trkpt lat="44.761024246706505" lon="9.943208391769524"><ele>494.14285714285717</ele><time>2026-05-02T19:35:28.999Z</time></trkpt><trkpt lat="44.761038336146676" lon="9.943309598445136"><ele>494.0</ele><time>2026-05-02T19:35:31.999Z</time></trkpt><trkpt lat="44.76104497496874" lon="9.943412592450617"><ele>494.0</ele><time>2026-05-02T19:35:34.999Z</time></trkpt><trkpt lat="44.76104291182323" lon="9.943509372542938"><ele>494.0</ele><time>2026-05-02T19:35:37.999Z</time></trkpt><trkpt lat="44.761031712552175" lon="9.943612714820828"><ele>494.0</ele><time>2026-05-02T19:35:40.999Z</time></trkpt><trkpt lat="44.761014749278374" lon="9.94371103436321"><ele>494.0</ele><time>2026-05-02T19:35:43.999Z</time></trkpt><trkpt lat="44.76099276479079" lon="9.943809015281392"><ele>494.0</ele><time>2026-05-02T19:35:46.999Z</time></trkpt><trkpt lat="44.76096990786214" lon="9.943906510028835"><ele>494.0</ele><time>2026-05-02T19:35:49.999Z</time></trkpt><trkpt lat="44.7609236784527" lon="9.943984519577503"><ele>494.0</ele><time>2026-05-02T19:35:52.999Z</time></trkpt><trkpt lat="44.7608577879477" lon="9.944024991720203"><ele>496.28571428571433</ele><time>2026-05-02T19:35:55.999Z</time></trkpt><trkpt lat="44.76078547310394" lon="9.943995770590277"><ele>498.57142857142856</ele><time>2026-05-02T19:35:58.999Z</time></trkpt><trkpt lat="44.760739871290674" lon="9.943907574278423"><ele>500.8571428571429</ele><time>2026-05-02T19:36:01.998Z</time></trkpt><trkpt lat="44.760715835414906" lon="9.943806031924744"><ele>503.14285714285717</ele><time>2026-05-02T19:36:05.998Z</time></trkpt><trkpt lat="44.760690622440144" lon="9.94371240089489"><ele>505.42857142857144</ele><time>2026-05-02T19:36:08.998Z</time></trkpt><trkpt lat="44.76066638716772" lon="9.943621595264716"><ele>507.7142857142857</ele><time>2026-05-02T19:36:10.998Z</time></trkpt><trkpt lat="44.760645914911194" lon="9.943522833890848"><ele>510.0</ele><time>2026-05-02T19:36:14Z</time></trkpt><trkpt lat="44.76063042408437" lon="9.943421305444652"><ele>510.8333333333333</ele><time>2026-05-02T19:36:17Z</time></trkpt><trkpt lat="44.76061196144574" lon="9.943323493905112"><ele>511.66666666666663</ele><time>2026-05-02T19:36:20Z</time></trkpt><trkpt lat="44.76057274120541" lon="9.943234141105515"><ele>512.5</ele><time>2026-05-02T19:36:23Z</time></trkpt><trkpt lat="44.76053556594583" lon="9.943127649192359"><ele>513.3333333333333</ele><time>2026-05-02T19:36:27Z</time></trkpt><trkpt lat="44.76049880795968" lon="9.943036412300282"><ele>514.1666666666666</ele><time>2026-05-02T19:36:30Z</time></trkpt><trkpt lat="44.760453600636716" lon="9.942950088255138"><ele>515.0</ele><time>2026-05-02T19:36:33Z</time></trkpt><trkpt lat="44.76040944763182" lon="9.942868703625075"><ele>515.0</ele><time>2026-05-02T19:36:36Z</time></trkpt><trkpt lat="44.76036851148641" lon="9.942797094371967"><ele>515.0</ele><time>2026-05-02T19:36:38Z</time></trkpt><trkpt lat="44.76032764845372" lon="9.942690493790083"><ele>515.0</ele><time>2026-05-02T19:36:41Z</time></trkpt><trkpt lat="44.76030948892069" lon="9.942576043207456"><ele>515.0</ele><time>2026-05-02T19:36:44Z</time></trkpt><trkpt lat="44.76030919329824" lon="9.942457321350416"><ele>515.0</ele><time>2026-05-02T19:36:47Z</time></trkpt><trkpt lat="44.76031804228104" lon="9.942343102121143"><ele>515.0</ele><time>2026-05-02T19:36:50Z</time></trkpt><trkpt lat="44.760327719441335" lon="9.942231948281284"><ele>515.0</ele><time>2026-05-02T19:36:54Z</time></trkpt><trkpt lat="44.76034115098801" lon="9.942120272615172"><ele>515.0</ele><time>2026-05-02T19:36:57Z</time></trkpt><trkpt lat="44.760364520180495" lon="9.942012731470077"><ele>515.0</ele><time>2026-05-02T19:37:00Z</time></trkpt><trkpt lat="44.760383708094196" lon="9.94189031837525"><ele>515.0</ele><time>2026-05-02T19:37:03Z</time></trkpt><trkpt lat="44.760399906387704" lon="9.941797922498743"><ele>515.0</ele><time>2026-05-02T19:37:05.999Z</time></trkpt><trkpt lat="44.760429303322546" lon="9.941677277563265"><ele>515.0</ele><time>2026-05-02T19:37:08.999Z</time></trkpt><trkpt lat="44.760453211806436" lon="9.941574789730259"><ele>515.0</ele><time>2026-05-02T19:37:11.999Z</time></trkpt><trkpt lat="44.760477629300475" lon="9.941471128916055"><ele>515.0</ele><time>2026-05-02T19:37:14.999Z</time></trkpt><trkpt lat="44.760494386291334" lon="9.941368126605163"><ele>515.0</ele><time>2026-05-02T19:37:17.999Z</time></trkpt><trkpt lat="44.76051827780733" lon="9.941274770647691"><ele>515.0</ele><time>2026-05-02T19:37:20.999Z</time></trkpt><trkpt lat="44.76054819848476" lon="9.941174010172418"><ele>515.0</ele><time>2026-05-02T19:37:23.999Z</time></trkpt><trkpt lat="44.76058215082213" lon="9.941081788862475"><ele>515.0</ele><time>2026-05-02T19:37:26.999Z</time></trkpt><trkpt lat="44.76062133880091" lon="9.940993638488365"><ele>515.0</ele><time>2026-05-02T19:37:29.999Z</time></trkpt><trkpt lat="44.76066629960672" lon="9.940913654827975"><ele>516.8333333333333</ele><time>2026-05-02T19:37:32.999Z</time></trkpt><trkpt lat="44.76071431596143" lon="9.94083489344171"><ele>518.6666666666666</ele><time>2026-05-02T19:37:35.999Z</time></trkpt><trkpt lat="44.76077611130563" lon="9.94073294482725"><ele>520.5</ele><time>2026-05-02T19:37:39.999Z</time></trkpt><trkpt lat="44.76082765783045" lon="9.940646431915319"><ele>522.3333333333334</ele><time>2026-05-02T19:37:42.999Z</time></trkpt><trkpt lat="44.76087662210842" lon="9.940563956282373"><ele>524.1666666666667</ele><time>2026-05-02T19:37:45.999Z</time></trkpt><trkpt lat="44.76092594594065" lon="9.940497288074237"><ele>526.0</ele><time>2026-05-02T19:37:48.999Z</time></trkpt><trkpt lat="44.76098230786699" lon="9.940409552055057"><ele>526.0</ele><time>2026-05-02T19:37:52.999Z</time></trkpt><trkpt lat="44.76101399983775" lon="9.940329748029288"><ele>526.0</ele><time>2026-05-02T19:37:55.999Z</time></trkpt><trkpt lat="44.76101932406465" lon="9.94023821509774"><ele>526.0</ele><time>2026-05-02T19:37:58.999Z</time></trkpt><trkpt lat="44.760998418549484" lon="9.940152911080853"><ele>526.0</ele><time>2026-05-02T19:38:01.999Z</time></trkpt><trkpt lat="44.760938059241695" lon="9.94008679386043"><ele>526.0</ele><time>2026-05-02T19:38:04.999Z</time></trkpt><trkpt lat="44.760871078293874" lon="9.940075924816815"><ele>526.0</ele><time>2026-05-02T19:38:07.998Z</time></trkpt><trkpt lat="44.760805265104814" lon="9.940092253855381"><ele>526.0</ele><time>2026-05-02T19:38:10.998Z</time></trkpt><trkpt lat="44.760740136420175" lon="9.940117086784923"><ele>526.0</ele><time>2026-05-02T19:38:13.998Z</time></trkpt><trkpt lat="44.76067380517565" lon="9.940136771287202"><ele>526.0</ele><time>2026-05-02T19:38:16.998Z</time></trkpt><trkpt lat="44.760610273186586" lon="9.940162484855593"><ele>526.0</ele><time>2026-05-02T19:38:20Z</time></trkpt><trkpt lat="44.76054528927408" lon="9.940194774246743"><ele>526.0</ele><time>2026-05-02T19:38:23Z</time></trkpt><trkpt lat="44.76047668730081" lon="9.940210573758511"><ele>526.0</ele><time>2026-05-02T19:38:26Z</time></trkpt><trkpt lat="44.760406899017674" lon="9.940227267958457"><ele>526.0</ele><time>2026-05-02T19:38:29Z</time></trkpt><trkpt lat="44.760334685300876" lon="9.940254706387657"><ele>526.0</ele><time>2026-05-02T19:38:32Z</time></trkpt><trkpt lat="44.76026263780883" lon="9.940292298063031"><ele>528.3333333333334</ele><time>2026-05-02T19:38:35Z</time></trkpt><trkpt lat="44.76019544220451" lon="9.940336034521035"><ele>530.6666666666667</ele><time>2026-05-02T19:38:38Z</time></trkpt><trkpt lat="44.76013326343955" lon="9.940396368416206"><ele>533.0</ele><time>2026-05-02T19:38:41Z</time></trkpt><trkpt lat="44.76007928938134" lon="9.940461763835344"><ele>535.3333333333334</ele><time>2026-05-02T19:38:44Z</time></trkpt><trkpt lat="44.76002771930886" lon="9.940537878677024"><ele>537.6666666666666</ele><time>2026-05-02T19:38:47Z</time></trkpt><trkpt lat="44.759978206383245" lon="9.94062018508595"><ele>540.0</ele><time>2026-05-02T19:38:50Z</time></trkpt><trkpt lat="44.75991434928152" lon="9.940717268697668"><ele>540.0</ele><time>2026-05-02T19:38:54Z</time></trkpt><trkpt lat="44.75986654431601" lon="9.940793805054284"><ele>540.0</ele><time>2026-05-02T19:38:58Z</time></trkpt><trkpt lat="44.75982296646851" lon="9.94086975736936"><ele>540.0</ele><time>2026-05-02T19:39:01Z</time></trkpt><trkpt lat="44.75976649975633" lon="9.94095927677921"><ele>540.0</ele><time>2026-05-02T19:39:04Z</time></trkpt><trkpt lat="44.75972823513421" lon="9.941030698752531"><ele>540.0</ele><time>2026-05-02T19:39:07Z</time></trkpt><trkpt lat="44.7596835500212" lon="9.941109496195716"><ele>540.0</ele><time>2026-05-02T19:39:09.999Z</time></trkpt><trkpt lat="44.759638025828345" lon="9.94119415872761"><ele>540.0</ele><time>2026-05-02T19:39:12.999Z</time></trkpt><trkpt lat="44.75959178723495" lon="9.9412747764955"><ele>538.6666666666666</ele><time>2026-05-02T19:39:15.999Z</time></trkpt><trkpt lat="44.759546927823656" lon="9.941358965930336"><ele>537.3333333333334</ele><time>2026-05-02T19:39:18.999Z</time></trkpt><trkpt lat="44.759501304068145" lon="9.941449392803452"><ele>536.0</ele><time>2026-05-02T19:39:21.999Z</time></trkpt><trkpt lat="44.75945542506574" lon="9.941545348234078"><ele>534.6666666666667</ele><time>2026-05-02T19:39:24.999Z</time></trkpt><trkpt lat="44.75941389528693" lon="9.941643851202182"><ele>533.3333333333334</ele><time>2026-05-02T19:39:28.999Z</time></trkpt><trkpt lat="44.75936224550665" lon="9.941745754778262"><ele>532.0</ele><time>2026-05-02T19:39:31.999Z</time></trkpt><trkpt lat="44.75931727443335" lon="9.94184049567942"><ele>534.6666666666667</ele><time>2026-05-02T19:39:34.999Z</time></trkpt><trkpt lat="44.75927633686067" lon="9.941927986039346"><ele>537.3333333333334</ele><time>2026-05-02T19:39:37.999Z</time></trkpt><trkpt lat="44.759231542237366" lon="9.942022125984337"><ele>540.0</ele><time>2026-05-02T19:39:41.999Z</time></trkpt><trkpt lat="44.7591912548954" lon="9.942110078416327"><ele>542.6666666666666</ele><time>2026-05-02T19:39:44.999Z</time></trkpt><trkpt lat="44.75916454385301" lon="9.942213462708533"><ele>545.3333333333333</ele><time>2026-05-02T19:39:47.999Z</time></trkpt><trkpt lat="44.75914074142037" lon="9.942316683400378"><ele>548.0</ele><time>2026-05-02T19:39:50.999Z</time></trkpt><trkpt lat="44.75912617828303" lon="9.94243185035718"><ele>548.0</ele><time>2026-05-02T19:39:53.999Z</time></trkpt><trkpt lat="44.759117474085656" lon="9.942532762927001"><ele>548.0</ele><time>2026-05-02T19:39:56.999Z</time></trkpt><trkpt lat="44.75911117185082" lon="9.942651381097669"><ele>548.0</ele><time>2026-05-02T19:39:59.999Z</time></trkpt><trkpt lat="44.759115968757094" lon="9.942764437780742"><ele>548.0</ele><time>2026-05-02T19:40:02.999Z</time></trkpt><trkpt lat="44.75911472374596" lon="9.942873360322347"><ele>548.0</ele><time>2026-05-02T19:40:05.999Z</time></trkpt><trkpt lat="44.75909736821077" lon="9.942973927370963"><ele>548.0</ele><time>2026-05-02T19:40:08.999Z</time></trkpt><trkpt lat="44.75903680261646" lon="9.943020453921337"><ele>548.0</ele><time>2026-05-02T19:40:11.998Z</time></trkpt><trkpt lat="44.75897919863103" lon="9.942954502581795"><ele>548.0</ele><time>2026-05-02T19:40:15.998Z</time></trkpt><trkpt lat="44.758958706036665" lon="9.942859766630301"><ele>548.0</ele><time>2026-05-02T19:40:19.998Z</time></trkpt><trkpt lat="44.75893704665788" lon="9.942723578371723"><ele>548.0</ele><time>2026-05-02T19:40:24Z</time></trkpt><trkpt lat="44.75892095005153" lon="9.942635747408344"><ele>548.0</ele><time>2026-05-02T19:40:27Z</time></trkpt><trkpt lat="44.75890617948272" lon="9.94252212496035"><ele>548.0</ele><time>2026-05-02T19:40:31Z</time></trkpt><trkpt lat="44.75889856603632" lon="9.942431740145862"><ele>548.0000000000001</ele><time>2026-05-02T19:40:34Z</time></trkpt><trkpt lat="44.758889666720066" lon="9.942318229468341"><ele>548.0</ele><time>2026-05-02T19:40:38Z</time></trkpt><trkpt lat="44.75888681198526" lon="9.942224914622555"><ele>548.0</ele><time>2026-05-02T19:40:41Z</time></trkpt><trkpt lat="44.7588926350433" lon="9.942135955547258"><ele>548.0</ele><time>2026-05-02T19:40:44Z</time></trkpt><trkpt lat="44.75889836772489" lon="9.942020058557974"><ele>548.0</ele><time>2026-05-02T19:40:48Z</time></trkpt><trkpt lat="44.75890858552712" lon="9.941931139305401"><ele>548.0000000000001</ele><time>2026-05-02T19:40:51Z</time></trkpt><trkpt lat="44.7589267297978" lon="9.941837841328084"><ele>548.0</ele><time>2026-05-02T19:40:54Z</time></trkpt><trkpt lat="44.7589391748757" lon="9.941743235949199"><ele>549.1428571428572</ele><time>2026-05-02T19:40:57Z</time></trkpt><trkpt lat="44.75895623734658" lon="9.941652809808538"><ele>550.2857142857143</ele><time>2026-05-02T19:41:00Z</time></trkpt><trkpt lat="44.758978840751034" lon="9.941568039196504"><ele>551.4285714285714</ele><time>2026-05-02T19:41:02.999Z</time></trkpt><trkpt lat="44.75899336888827" lon="9.941478303647077"><ele>552.5714285714287</ele><time>2026-05-02T19:41:05.999Z</time></trkpt><trkpt lat="44.759012032811064" lon="9.94136385379481"><ele>553.7142857142858</ele><time>2026-05-02T19:41:09.999Z</time></trkpt><trkpt lat="44.7590246573312" lon="9.941263080846742"><ele>554.8571428571429</ele><time>2026-05-02T19:41:13.999Z</time></trkpt><trkpt lat="44.759038838703795" lon="9.94117291831429"><ele>556.0</ele><time>2026-05-02T19:41:16.999Z</time></trkpt><trkpt lat="44.75905577141041" lon="9.9410804832202"><ele>556.0</ele><time>2026-05-02T19:41:19.999Z</time></trkpt><trkpt lat="44.75906344685241" lon="9.940971430615969"><ele>556.0</ele><time>2026-05-02T19:41:22.999Z</time></trkpt><trkpt lat="44.75906406978754" lon="9.940867958110418"><ele>556.0</ele><time>2026-05-02T19:41:26.999Z</time></trkpt><trkpt lat="44.75906025955199" lon="9.940773812154205"><ele>556.0</ele><time>2026-05-02T19:41:29.999Z</time></trkpt><trkpt lat="44.759054383865646" lon="9.940676586524265"><ele>556.0</ele><time>2026-05-02T19:41:32.999Z</time></trkpt><trkpt lat="44.759037814194265" lon="9.940569524969648"><ele>556.0</ele><time>2026-05-02T19:41:35.999Z</time></trkpt><trkpt lat="44.75901806636997" lon="9.940484120452602"><ele>556.0</ele><time>2026-05-02T19:41:38.999Z</time></trkpt><trkpt lat="44.75901023252839" lon="9.94037666580863"><ele>557.2857142857142</ele><time>2026-05-02T19:41:42.999Z</time></trkpt><trkpt lat="44.759022216999455" lon="9.940279393824854"><ele>558.5714285714286</ele><time>2026-05-02T19:41:45.999Z</time></trkpt><trkpt lat="44.759049645292286" lon="9.940172462201584"><ele>559.8571428571429</ele><time>2026-05-02T19:41:48.999Z</time></trkpt><trkpt lat="44.75908583483455" lon="9.940073575135058"><ele>561.1428571428571</ele><time>2026-05-02T19:41:51.999Z</time></trkpt><trkpt lat="44.759119938449814" lon="9.93998605637445"><ele>562.4285714285714</ele><time>2026-05-02T19:41:54.999Z</time></trkpt><trkpt lat="44.75915626342735" lon="9.93989877738956"><ele>563.7142857142857</ele><time>2026-05-02T19:41:57.999Z</time></trkpt><trkpt lat="44.75917819293409" lon="9.93979793501555"><ele>565.0</ele><time>2026-05-02T19:42:00.999Z</time></trkpt><trkpt lat="44.759196055648275" lon="9.93967971153089"><ele>565.5714285714286</ele><time>2026-05-02T19:42:04.998Z</time></trkpt><trkpt lat="44.75919400623634" lon="9.93957836482041"><ele>566.1428571428571</ele><time>2026-05-02T19:42:07.998Z</time></trkpt><trkpt lat="44.75919123046179" lon="9.939481724014561"><ele>566.7142857142858</ele><time>2026-05-02T19:42:10.998Z</time></trkpt><trkpt lat="44.75918044991336" lon="9.939388612439906"><ele>567.2857142857142</ele><time>2026-05-02T19:42:13.998Z</time></trkpt><trkpt lat="44.75915010865786" lon="9.939281120003377"><ele>567.8571428571429</ele><time>2026-05-02T19:42:17.998Z</time></trkpt><trkpt lat="44.75911090086529" lon="9.939172155855756"><ele>568.4285714285714</ele><time>2026-05-02T19:42:20.998Z</time></trkpt><trkpt lat="44.759075884303634" lon="9.939084481785494"><ele>569.0</ele><time>2026-05-02T19:42:23.998Z</time></trkpt><trkpt lat="44.75903059823561" lon="9.939006906674622"><ele>569.0000000000001</ele><time>2026-05-02T19:42:26.998Z</time></trkpt><trkpt lat="44.75897424371498" lon="9.938947959140382"><ele>569.0</ele><time>2026-05-02T19:42:30Z</time></trkpt><trkpt lat="44.75890860255641" lon="9.938914630171078"><ele>569.0</ele><time>2026-05-02T19:42:33Z</time></trkpt><trkpt lat="44.7588429999689" lon="9.93889433960998"><ele>569.0</ele><time>2026-05-02T19:42:36Z</time></trkpt><trkpt lat="44.75877442795146" lon="9.938880939119542"><ele>569.0</ele><time>2026-05-02T19:42:39Z</time></trkpt><trkpt lat="44.758703747311785" lon="9.938873754896237"><ele>569.0000000000001</ele><time>2026-05-02T19:42:42Z</time></trkpt><trkpt lat="44.75863833920304" lon="9.938872938879765"><ele>569.0</ele><time>2026-05-02T19:42:45Z</time></trkpt><trkpt lat="44.758572017201786" lon="9.938862654605538"><ele>572.2857142857143</ele><time>2026-05-02T19:42:48Z</time></trkpt><trkpt lat="44.758504977974766" lon="9.938859093361291"><ele>575.5714285714286</ele><time>2026-05-02T19:42:51Z</time></trkpt><trkpt lat="44.75844318754519" lon="9.938826660242936"><ele>578.8571428571429</ele><time>2026-05-02T19:42:54Z</time></trkpt><trkpt lat="44.75838783926763" lon="9.938773955695174"><ele>582.1428571428571</ele><time>2026-05-02T19:42:57Z</time></trkpt><trkpt lat="44.75834035464049" lon="9.93869762507943"><ele>585.4285714285714</ele><time>2026-05-02T19:43:00Z</time></trkpt><trkpt lat="44.758308931525264" lon="9.938605064272659"><ele>588.7142857142858</ele><time>2026-05-02T19:43:03Z</time></trkpt><trkpt lat="44.75830003396692" lon="9.938499037867501"><ele>592.0</ele><time>2026-05-02T19:43:07Z</time></trkpt><trkpt lat="44.75828959106102" lon="9.938400033501633"><ele>590.8333333333334</ele><time>2026-05-02T19:43:10Z</time></trkpt><trkpt lat="44.75827544967025" lon="9.93829852617515"><ele>589.6666666666667</ele><time>2026-05-02T19:43:13Z</time></trkpt><trkpt lat="44.75824763079115" lon="9.93819707794622"><ele>588.5</ele><time>2026-05-02T19:43:16Z</time></trkpt><trkpt lat="44.758208603251134" lon="9.938097119627882"><ele>587.3333333333334</ele><time>2026-05-02T19:43:19.999Z</time></trkpt><trkpt lat="44.758163089334225" lon="9.938011578224026"><ele>586.1666666666666</ele><time>2026-05-02T19:43:22.999Z</time></trkpt><trkpt lat="44.75811041085323" lon="9.937928718997444"><ele>585.0</ele><time>2026-05-02T19:43:25.999Z</time></trkpt><trkpt lat="44.75806176165238" lon="9.937848201177125"><ele>585.0</ele><time>2026-05-02T19:43:28.999Z</time></trkpt><trkpt lat="44.75802268346256" lon="9.937760724682802"><ele>585.0</ele><time>2026-05-02T19:43:31.999Z</time></trkpt><trkpt lat="44.757994085430525" lon="9.937665377212467"><ele>585.0</ele><time>2026-05-02T19:43:34.999Z</time></trkpt><trkpt lat="44.757973142481546" lon="9.93756875895994"><ele>585.0</ele><time>2026-05-02T19:43:37.999Z</time></trkpt><trkpt lat="44.757962008624794" lon="9.937467241413414"><ele>585.0</ele><time>2026-05-02T19:43:40.999Z</time></trkpt><trkpt lat="44.75795330372854" lon="9.937367866714675"><ele>585.0</ele><time>2026-05-02T19:43:43.999Z</time></trkpt><trkpt lat="44.75795203163357" lon="9.937268059973272"><ele>585.0</ele><time>2026-05-02T19:43:46.999Z</time></trkpt><trkpt lat="44.7579592820745" lon="9.937167971480935"><ele>584.5714285714286</ele><time>2026-05-02T19:43:49.999Z</time></trkpt><trkpt lat="44.757972895669205" lon="9.937070145297271"><ele>584.1428571428571</ele><time>2026-05-02T19:43:52.999Z</time></trkpt><trkpt lat="44.757989713932204" lon="9.936968201335683"><ele>583.7142857142857</ele><time>2026-05-02T19:43:55.999Z</time></trkpt><trkpt lat="44.758016707106954" lon="9.936869976203539"><ele>583.2857142857142</ele><time>2026-05-02T19:43:58.999Z</time></trkpt><trkpt lat="44.7580524357897" lon="9.936783419740905"><ele>582.8571428571428</ele><time>2026-05-02T19:44:01.999Z</time></trkpt><trkpt lat="44.758094732740346" lon="9.936700876825318"><ele>582.4285714285714</ele><time>2026-05-02T19:44:04.999Z</time></trkpt><trkpt lat="44.75813722485731" lon="9.93662229910938"><ele>582.0</ele><time>2026-05-02T19:44:07.999Z</time></trkpt><trkpt lat="44.75818851261318" lon="9.936557529321622"><ele>582.8571428571429</ele><time>2026-05-02T19:44:10.999Z</time></trkpt><trkpt lat="44.75824528495084" lon="9.93649761462679"><ele>583.7142857142857</ele><time>2026-05-02T19:44:13.999Z</time></trkpt><trkpt lat="44.75830042624809" lon="9.936444335733805"><ele>584.5714285714286</ele><time>2026-05-02T19:44:16.999Z</time></trkpt><trkpt lat="44.75834911815029" lon="9.936383643976857"><ele>585.4285714285714</ele><time>2026-05-02T19:44:19.998Z</time></trkpt><trkpt lat="44.75837837754966" lon="9.936298125764164"><ele>586.2857142857142</ele><time>2026-05-02T19:44:22.998Z</time></trkpt><trkpt lat="44.75837703515944" lon="9.936199857774662"><ele>587.1428571428571</ele><time>2026-05-02T19:44:25.998Z</time></trkpt><trkpt lat="44.75833901874307" lon="9.936123987809264"><ele>588.0</ele><time>2026-05-02T19:44:28.998Z</time></trkpt><trkpt lat="44.758275383811856" lon="9.936061455873446"><ele>588.0</ele><time>2026-05-02T19:44:31.998Z</time></trkpt><trkpt lat="44.75820899588348" lon="9.936025896401356"><ele>588.0</ele><time>2026-05-02T19:44:35Z</time></trkpt><trkpt lat="44.75814077006176" lon="9.936004344017576"><ele>588.0</ele><time>2026-05-02T19:44:38Z</time></trkpt><trkpt lat="44.75807553345178" lon="9.935987264887762"><ele>588.0</ele><time>2026-05-02T19:44:41Z</time></trkpt><trkpt lat="44.75800581219994" lon="9.935974444885424"><ele>588.0</ele><time>2026-05-02T19:44:44Z</time></trkpt><trkpt lat="44.75793076995446" lon="9.935994977060737"><ele>588.0</ele><time>2026-05-02T19:44:48Z</time></trkpt><trkpt lat="44.75785713115904" lon="9.936048601638886"><ele>588.0</ele><time>2026-05-02T19:44:52Z</time></trkpt><trkpt lat="44.75779879249613" lon="9.936106260058859"><ele>588.0</ele><time>2026-05-02T19:44:55Z</time></trkpt><trkpt lat="44.757743399887914" lon="9.936197164415729"><ele>588.0</ele><time>2026-05-02T19:44:59Z</time></trkpt><trkpt lat="44.75769420675916" lon="9.936272523013313"><ele>588.0</ele><time>2026-05-02T19:45:03Z</time></trkpt><trkpt lat="44.75763784168214" lon="9.936381149958574"><ele>588.0</ele><time>2026-05-02T19:45:07Z</time></trkpt><trkpt lat="44.757596076047214" lon="9.9364543579856"><ele>588.0</ele><time>2026-05-02T19:45:10Z</time></trkpt><trkpt lat="44.757554463257875" lon="9.936553524723367"><ele>588.0</ele><time>2026-05-02T19:45:14Z</time></trkpt><trkpt lat="44.75752221902774" lon="9.936645769594671"><ele>591.1666666666666</ele><time>2026-05-02T19:45:17Z</time></trkpt><trkpt lat="44.75748365369702" lon="9.936758386460061"><ele>594.3333333333334</ele><time>2026-05-02T19:45:20Z</time></trkpt><trkpt lat="44.757457700747835" lon="9.936868025701697"><ele>597.5</ele><time>2026-05-02T19:45:23.999Z</time></trkpt><trkpt lat="44.75741886965546" lon="9.9369639379339"><ele>600.6666666666667</ele><time>2026-05-02T19:45:26.999Z</time></trkpt><trkpt lat="44.75737949380716" lon="9.937053230459954"><ele>603.8333333333334</ele><time>2026-05-02T19:45:29.999Z</time></trkpt><trkpt lat="44.75734167837947" lon="9.937154488994741"><ele>607.0</ele><time>2026-05-02T19:45:32.999Z</time></trkpt><trkpt lat="44.75730960152558" lon="9.93725544535059"><ele>607.0</ele><time>2026-05-02T19:45:36.999Z</time></trkpt><trkpt lat="44.75727599934269" lon="9.937354368025204"><ele>607.0</ele><time>2026-05-02T19:45:39.999Z</time></trkpt><trkpt lat="44.7572350808394" lon="9.937468796389943"><ele>607.0</ele><time>2026-05-02T19:45:42.999Z</time></trkpt><trkpt lat="44.757210679258826" lon="9.937576810049785"><ele>607.0</ele><time>2026-05-02T19:45:46.999Z</time></trkpt><trkpt lat="44.75719770939635" lon="9.937681208402019"><ele>607.0</ele><time>2026-05-02T19:45:49.999Z</time></trkpt><trkpt lat="44.75719444230792" lon="9.937797491598507"><ele>607.0</ele><time>2026-05-02T19:45:52.999Z</time></trkpt><trkpt lat="44.757208520019475" lon="9.937915832173317"><ele>607.5714285714286</ele><time>2026-05-02T19:45:55.999Z</time></trkpt><trkpt lat="44.75723186231652" lon="9.938006184612973"><ele>608.1428571428571</ele><time>2026-05-02T19:45:58.999Z</time></trkpt><trkpt lat="44.75727318612818" lon="9.938094794386224"><ele>608.7142857142858</ele><time>2026-05-02T19:46:01.999Z</time></trkpt><trkpt lat="44.75731568657923" lon="9.93816406576882"><ele>609.2857142857142</ele><time>2026-05-02T19:46:03.999Z</time></trkpt><trkpt lat="44.75736724348964" lon="9.938224193035989"><ele>609.8571428571429</ele><time>2026-05-02T19:46:06.999Z</time></trkpt><trkpt lat="44.75742520641387" lon="9.938296028640956"><ele>610.4285714285714</ele><time>2026-05-02T19:46:09.999Z</time></trkpt><trkpt lat="44.75747481018091" lon="9.938353176296737"><ele>611.0</ele><time>2026-05-02T19:46:11.999Z</time></trkpt><trkpt lat="44.75752323348007" lon="9.938421490894866"><ele>611.0000000000001</ele><time>2026-05-02T19:46:14.999Z</time></trkpt><trkpt lat="44.75756797022358" lon="9.938506360028372"><ele>611.0</ele><time>2026-05-02T19:46:17.999Z</time></trkpt><trkpt lat="44.7575970051802" lon="9.938609121357189"><ele>611.0</ele><time>2026-05-02T19:46:20.999Z</time></trkpt><trkpt lat="44.75760268193176" lon="9.93870960201223"><ele>611.0</ele><time>2026-05-02T19:46:23.999Z</time></trkpt><trkpt lat="44.75758783947131" lon="9.93881234981889"><ele>611.0</ele><time>2026-05-02T19:46:26.998Z</time></trkpt><trkpt lat="44.75755243742867" lon="9.938897285612885"><ele>611.0000000000001</ele><time>2026-05-02T19:46:29.998Z</time></trkpt><trkpt lat="44.75750311842568" lon="9.938969951895423"><ele>611.0</ele><time>2026-05-02T19:46:32.998Z</time></trkpt><trkpt lat="44.75744233039045" lon="9.939007231671551"><ele>611.0</ele><time>2026-05-02T19:46:35.998Z</time></trkpt><trkpt lat="44.75736406697765" lon="9.939017692089799"><ele>611.0</ele><time>2026-05-02T19:46:38.998Z</time></trkpt><trkpt lat="44.757287751122924" lon="9.938991216848628"><ele>611.0</ele><time>2026-05-02T19:46:42Z</time></trkpt><trkpt lat="44.757210797763726" lon="9.938949078450035"><ele>611.0</ele><time>2026-05-02T19:46:45Z</time></trkpt><trkpt lat="44.757143150886186" lon="9.938886527953484"><ele>611.0</ele><time>2026-05-02T19:46:49Z</time></trkpt><trkpt lat="44.75709986593664" lon="9.938814410710796"><ele>611.0</ele><time>2026-05-02T19:46:52Z</time></trkpt><trkpt lat="44.75706277820536" lon="9.938734738704738"><ele>611.0</ele><time>2026-05-02T19:46:55Z</time></trkpt><trkpt lat="44.75704227895723" lon="9.938643926850045"><ele>611.0</ele><time>2026-05-02T19:46:58Z</time></trkpt><trkpt lat="44.75701141112946" lon="9.938504771617618"><ele>611.0</ele><time>2026-05-02T19:47:02Z</time></trkpt><trkpt lat="44.75699065754474" lon="9.938402505132307"><ele>611.0</ele><time>2026-05-02T19:47:06Z</time></trkpt><trkpt lat="44.75697183097758" lon="9.938305338698068"><ele>611.0</ele><time>2026-05-02T19:47:09Z</time></trkpt><trkpt lat="44.75695309674407" lon="9.93820525682069"><ele>611.0</ele><time>2026-05-02T19:47:12Z</time></trkpt><trkpt lat="44.75693869358999" lon="9.938102174498415"><ele>611.2857142857143</ele><time>2026-05-02T19:47:15Z</time></trkpt><trkpt lat="44.75691722285665" lon="9.937991477411241"><ele>611.5714285714286</ele><time>2026-05-02T19:47:18Z</time></trkpt><trkpt lat="44.75690265668158" lon="9.937888106908543"><ele>611.8571428571429</ele><time>2026-05-02T19:47:21Z</time></trkpt><trkpt lat="44.75688449493474" lon="9.937782015652187"><ele>612.1428571428571</ele><time>2026-05-02T19:47:25Z</time></trkpt><trkpt lat="44.75687108747249" lon="9.93768662949948"><ele>612.4285714285714</ele><time>2026-05-02T19:47:27.999Z</time></trkpt><trkpt lat="44.75685577733594" lon="9.937597520045198"><ele>612.7142857142858</ele><time>2026-05-02T19:47:30.999Z</time></trkpt><trkpt lat="44.7568419985027" lon="9.93749903830223"><ele>613.0</ele><time>2026-05-02T19:47:33.999Z</time></trkpt><trkpt lat="44.756831209844165" lon="9.937395917737065"><ele>614.0</ele><time>2026-05-02T19:47:36.999Z</time></trkpt><trkpt lat="44.7568197348836" lon="9.93729157853678"><ele>615.0</ele><time>2026-05-02T19:47:39.999Z</time></trkpt><trkpt lat="44.756814508337314" lon="9.937180773199936"><ele>616.0</ele><time>2026-05-02T19:47:42.999Z</time></trkpt><trkpt lat="44.756826389878285" lon="9.937072596046374"><ele>617.0</ele><time>2026-05-02T19:47:46.999Z</time></trkpt><trkpt lat="44.75683848086013" lon="9.93698513809667"><ele>618.0</ele><time>2026-05-02T19:47:49.999Z</time></trkpt><trkpt lat="44.756786852206034" lon="9.937046560951131"><ele>619.0</ele><time>2026-05-02T19:47:58.999Z</time></trkpt><trkpt lat="44.75678135822752" lon="9.937152035650213"><ele>620.0</ele><time>2026-05-02T19:48:02.999Z</time></trkpt><trkpt lat="44.756775429292865" lon="9.93724123386076"><ele>620.0</ele><time>2026-05-02T19:48:05.999Z</time></trkpt><trkpt lat="44.75677933284036" lon="9.937338197761548"><ele>620.0</ele><time>2026-05-02T19:48:08.999Z</time></trkpt><trkpt lat="44.756790804915646" lon="9.937451501584315"><ele>620.0</ele><time>2026-05-02T19:48:11.999Z</time></trkpt><trkpt lat="44.75680682228409" lon="9.937572582914061"><ele>620.0</ele><time>2026-05-02T19:48:14.999Z</time></trkpt><trkpt lat="44.756825599416395" lon="9.937691046326467"><ele>620.0</ele><time>2026-05-02T19:48:17.999Z</time></trkpt><trkpt lat="44.75684531977111" lon="9.937807173069201"><ele>620.0</ele><time>2026-05-02T19:48:20.999Z</time></trkpt><trkpt lat="44.7568689193087" lon="9.937936784515983"><ele>618.8333333333333</ele><time>2026-05-02T19:48:23.999Z</time></trkpt><trkpt lat="44.7568888663046" lon="9.938023345190418"><ele>617.6666666666666</ele><time>2026-05-02T19:48:25.999Z</time></trkpt><trkpt lat="44.75690167764024" lon="9.938116624297779"><ele>616.5</ele><time>2026-05-02T19:48:27.999Z</time></trkpt><trkpt lat="44.75692224313784" lon="9.93821468987493"><ele>615.3333333333334</ele><time>2026-05-02T19:48:29.999Z</time></trkpt><trkpt lat="44.7569378207761" lon="9.938317989079962"><ele>614.1666666666667</ele><time>2026-05-02T19:48:31.998Z</time></trkpt><trkpt lat="44.75696024918112" lon="9.938431844436371"><ele>613.0</ele><time>2026-05-02T19:48:33.998Z</time></trkpt><trkpt lat="44.75697703615608" lon="9.938555560604515"><ele>612.6666666666667</ele><time>2026-05-02T19:48:35.998Z</time></trkpt><trkpt lat="44.757001577763546" lon="9.938676887190931"><ele>612.3333333333334</ele><time>2026-05-02T19:48:37.998Z</time></trkpt><trkpt lat="44.75703959987542" lon="9.938800496444381"><ele>612.0</ele><time>2026-05-02T19:48:39.998Z</time></trkpt><trkpt lat="44.75709434734318" lon="9.938914767519048"><ele>611.6666666666666</ele><time>2026-05-02T19:48:41.998Z</time></trkpt><trkpt lat="44.75716024268821" lon="9.938990579785303"><ele>611.3333333333333</ele><time>2026-05-02T19:48:43.998Z</time></trkpt><trkpt lat="44.757224997852695" lon="9.939042237576166"><ele>611.0</ele><time>2026-05-02T19:48:45.998Z</time></trkpt><trkpt lat="44.7572872582113" lon="9.939074285597242"><ele>611.0</ele><time>2026-05-02T19:48:48Z</time></trkpt><trkpt lat="44.75735932284818" lon="9.939096455962897"><ele>611.0</ele><time>2026-05-02T19:50:36.998Z</time></trkpt><trkpt lat="44.757442240519055" lon="9.939081163433679"><ele>611.0</ele><time>2026-05-02T19:50:39.998Z</time></trkpt><trkpt lat="44.75751194433874" lon="9.939043539727237"><ele>611.0</ele><time>2026-05-02T19:50:41.998Z</time></trkpt><trkpt lat="44.757577688380906" lon="9.93895126026907"><ele>611.0</ele><time>2026-05-02T19:50:43.998Z</time></trkpt><trkpt lat="44.757626021832564" lon="9.938807278747603"><ele>611.0</ele><time>2026-05-02T19:50:45.998Z</time></trkpt><trkpt lat="44.7576358126583" lon="9.938718263753502"><ele>611.0</ele><time>2026-05-02T19:50:46.998Z</time></trkpt><trkpt lat="44.75763583185282" lon="9.938544536389813"><ele>611.0</ele><time>2026-05-02T19:50:48.998Z</time></trkpt><trkpt lat="44.75760400140731" lon="9.938463094813477"><ele>611.0</ele><time>2026-05-02T19:50:49.998Z</time></trkpt><trkpt lat="44.75755279616838" lon="9.938395987417058"><ele>611.0</ele><time>2026-05-02T19:50:50.998Z</time></trkpt><trkpt lat="44.75745382067267" lon="9.93830002146453"><ele>611.0</ele><time>2026-05-02T19:50:53Z</time></trkpt><trkpt lat="44.75735105599088" lon="9.938202712792489"><ele>611.3333333333333</ele><time>2026-05-02T19:50:55Z</time></trkpt><trkpt lat="44.75725743206728" lon="9.93808740300967"><ele>611.6666666666666</ele><time>2026-05-02T19:50:57Z</time></trkpt><trkpt lat="44.75722604516801" lon="9.93800451952034"><ele>612.0</ele><time>2026-05-02T19:50:58Z</time></trkpt><trkpt lat="44.75720504607793" lon="9.937915522551156"><ele>612.3333333333334</ele><time>2026-05-02T19:50:59Z</time></trkpt><trkpt lat="44.75719773333095" lon="9.937823019112932"><ele>612.6666666666667</ele><time>2026-05-02T19:51:00Z</time></trkpt><trkpt lat="44.75720408528714" lon="9.93772855950881"><ele>613.0</ele><time>2026-05-02T19:51:01Z</time></trkpt><trkpt lat="44.75722252066404" lon="9.937635894131883"><ele>612.1428571428571</ele><time>2026-05-02T19:51:02Z</time></trkpt><trkpt lat="44.757248433344344" lon="9.937543753535458"><ele>611.2857142857142</ele><time>2026-05-02T19:51:03Z</time></trkpt><trkpt lat="44.75727647023631" lon="9.937449975840853"><ele>610.4285714285713</ele><time>2026-05-02T19:51:04Z</time></trkpt><trkpt lat="44.75730686698477" lon="9.937358290294053"><ele>609.5714285714286</ele><time>2026-05-02T19:51:05Z</time></trkpt><trkpt lat="44.75733886536795" lon="9.937267122144847"><ele>608.7142857142857</ele><time>2026-05-02T19:51:06Z</time></trkpt><trkpt lat="44.75737256300024" lon="9.937175159208726"><ele>607.8571428571428</ele><time>2026-05-02T19:51:07Z</time></trkpt><trkpt lat="44.75740561863339" lon="9.937081832152499"><ele>607.0</ele><time>2026-05-02T19:51:08Z</time></trkpt><trkpt lat="44.75743660575765" lon="9.936989469754165"><ele>606.9999999999999</ele><time>2026-05-02T19:51:09Z</time></trkpt><trkpt lat="44.75746629154759" lon="9.936898472911741"><ele>607.0</ele><time>2026-05-02T19:51:10Z</time></trkpt><trkpt lat="44.757496724886295" lon="9.936808585991603"><ele>607.0</ele><time>2026-05-02T19:51:11Z</time></trkpt><trkpt lat="44.75752662112737" lon="9.936718865265942"><ele>607.0</ele><time>2026-05-02T19:51:12Z</time></trkpt><trkpt lat="44.75755559383516" lon="9.936629704633612"><ele>607.0</ele><time>2026-05-02T19:51:13Z</time></trkpt><trkpt lat="44.75758811447454" lon="9.93653904244092"><ele>606.9999999999999</ele><time>2026-05-02T19:51:14Z</time></trkpt><trkpt lat="44.757623633278676" lon="9.93644677436144"><ele>607.0</ele><time>2026-05-02T19:51:15Z</time></trkpt><trkpt lat="44.75766379070057" lon="9.9363560507305"><ele>603.8333333333334</ele><time>2026-05-02T19:51:16Z</time></trkpt><trkpt lat="44.757710438689855" lon="9.936267668954208"><ele>600.6666666666667</ele><time>2026-05-02T19:51:17Z</time></trkpt><trkpt lat="44.75776337654505" lon="9.936186141641528"><ele>597.5</ele><time>2026-05-02T19:51:18Z</time></trkpt><trkpt lat="44.757822889116035" lon="9.936113289717033"><ele>594.3333333333334</ele><time>2026-05-02T19:51:19Z</time></trkpt><trkpt lat="44.75788664231421" lon="9.936057632927037"><ele>591.1666666666666</ele><time>2026-05-02T19:51:20Z</time></trkpt><trkpt lat="44.75795411124066" lon="9.936022835960452"><ele>588.0</ele><time>2026-05-02T19:51:21Z</time></trkpt><trkpt lat="44.75802683320359" lon="9.936016349980045"><ele>588.0</ele><time>2026-05-02T19:51:22Z</time></trkpt><trkpt lat="44.7581001071661" lon="9.936033122620639"><ele>588.0</ele><time>2026-05-02T19:51:23Z</time></trkpt><trkpt lat="44.75817001839045" lon="9.936058545328354"><ele>588.0</ele><time>2026-05-02T19:51:24Z</time></trkpt><trkpt lat="44.75823056956371" lon="9.9360887257856"><ele>588.0</ele><time>2026-05-02T19:51:25Z</time></trkpt><trkpt lat="44.75832877529654" lon="9.936151672225364"><ele>588.0</ele><time>2026-05-02T19:51:27Z</time></trkpt><trkpt lat="44.75836330863409" lon="9.936300143639244"><ele>588.0</ele><time>2026-05-02T19:51:29Z</time></trkpt><trkpt lat="44.75832682112674" lon="9.936383506880853"><ele>588.0</ele><time>2026-05-02T19:51:30Z</time></trkpt><trkpt lat="44.758252238787975" lon="9.93641036576846"><ele>588.0</ele><time>2026-05-02T19:51:31Z</time></trkpt><trkpt lat="44.75819361042798" lon="9.936475188996614"><ele>588.0</ele><time>2026-05-02T19:51:32Z</time></trkpt><trkpt lat="44.75813226322022" lon="9.936531607435626"><ele>588.0</ele><time>2026-05-02T19:51:32.999Z</time></trkpt><trkpt lat="44.75808070334608" lon="9.936613834370448"><ele>588.0</ele><time>2026-05-02T19:51:33.999Z</time></trkpt><trkpt lat="44.758019859266675" lon="9.936693154155744"><ele>588.0</ele><time>2026-05-02T19:51:34.999Z</time></trkpt><trkpt lat="44.75797694566934" lon="9.936797949591615"><ele>586.8</ele><time>2026-05-02T19:51:35.999Z</time></trkpt><trkpt lat="44.75795636943428" lon="9.93691747387726"><ele>585.5999999999999</ele><time>2026-05-02T19:51:36.999Z</time></trkpt><trkpt lat="44.75791534844019" lon="9.937030892807984"><ele>584.4000000000001</ele><time>2026-05-02T19:51:37.999Z</time></trkpt><trkpt lat="44.75789576445221" lon="9.93715886501356"><ele>583.2</ele><time>2026-05-02T19:51:38.999Z</time></trkpt><trkpt lat="44.75788378287737" lon="9.937291226138745"><ele>582.0</ele><time>2026-05-02T19:51:39.999Z</time></trkpt><trkpt lat="44.757884974591924" lon="9.937421835476743"><ele>582.0</ele><time>2026-05-02T19:51:40.999Z</time></trkpt><trkpt lat="44.75789771682287" lon="9.937551081994277"><ele>582.0</ele><time>2026-05-02T19:51:41.999Z</time></trkpt><trkpt lat="44.757922120816026" lon="9.937674748888965"><ele>582.0</ele><time>2026-05-02T19:51:42.999Z</time></trkpt><trkpt lat="44.75795601996828" lon="9.937791512957624"><ele>582.0</ele><time>2026-05-02T19:51:43.999Z</time></trkpt><trkpt lat="44.75802466201548" lon="9.937879881799889"><ele>582.0</ele><time>2026-05-02T19:51:44.999Z</time></trkpt><trkpt lat="44.758083211197224" lon="9.93796888794798"><ele>582.5</ele><time>2026-05-02T19:51:45.999Z</time></trkpt><trkpt lat="44.758140288828294" lon="9.938049818457579"><ele>583.0</ele><time>2026-05-02T19:51:46.999Z</time></trkpt><trkpt lat="44.75818630513729" lon="9.938143296874689"><ele>583.5</ele><time>2026-05-02T19:51:47.999Z</time></trkpt><trkpt lat="44.75821772424484" lon="9.938249535998802"><ele>584.0</ele><time>2026-05-02T19:51:48.999Z</time></trkpt><trkpt lat="44.75823595399325" lon="9.93836263688894"><ele>584.5</ele><time>2026-05-02T19:51:49.999Z</time></trkpt><trkpt lat="44.75825021761828" lon="9.938475077721824"><ele>585.0</ele><time>2026-05-02T19:51:50.999Z</time></trkpt><trkpt lat="44.75826405870738" lon="9.9385842625501"><ele>586.1666666666666</ele><time>2026-05-02T19:51:51.999Z</time></trkpt><trkpt lat="44.75827370388253" lon="9.938685275809455"><ele>587.3333333333334</ele><time>2026-05-02T19:51:52.999Z</time></trkpt><trkpt lat="44.758318342701315" lon="9.93877295929601"><ele>588.5</ele><time>2026-05-02T19:51:53.999Z</time></trkpt><trkpt lat="44.75837804132844" lon="9.938840218706309"><ele>589.6666666666667</ele><time>2026-05-02T19:51:54.999Z</time></trkpt><trkpt lat="44.75845526711801" lon="9.93886885212421"><ele>590.8333333333334</ele><time>2026-05-02T19:51:55.999Z</time></trkpt><trkpt lat="44.758532444017234" lon="9.93889420466417"><ele>592.0</ele><time>2026-05-02T19:51:56.999Z</time></trkpt><trkpt lat="44.75861506558345" lon="9.938898125773967"><ele>588.1666666666667</ele><time>2026-05-02T19:51:57.999Z</time></trkpt><trkpt lat="44.758701325994544" lon="9.938896942045622"><ele>584.3333333333334</ele><time>2026-05-02T19:51:58.999Z</time></trkpt><trkpt lat="44.75878753089368" lon="9.938902371621595"><ele>580.5</ele><time>2026-05-02T19:51:59.999Z</time></trkpt><trkpt lat="44.75886914489984" lon="9.938925532392362"><ele>576.6666666666666</ele><time>2026-05-02T19:52:00.999Z</time></trkpt><trkpt lat="44.75894601164574" lon="9.938971152024376"><ele>572.8333333333333</ele><time>2026-05-02T19:52:01.999Z</time></trkpt><trkpt lat="44.759010213941764" lon="9.939038624905033"><ele>569.0</ele><time>2026-05-02T19:52:02.999Z</time></trkpt><trkpt lat="44.75906175132826" lon="9.939136369488285"><ele>569.1666666666666</ele><time>2026-05-02T19:52:03.999Z</time></trkpt><trkpt lat="44.759101591834934" lon="9.93925228149944"><ele>569.3333333333333</ele><time>2026-05-02T19:52:04.999Z</time></trkpt><trkpt lat="44.75913376245505" lon="9.9393746551702"><ele>569.5</ele><time>2026-05-02T19:52:05.999Z</time></trkpt><trkpt lat="44.75915760604681" lon="9.93949899443499"><ele>569.6666666666666</ele><time>2026-05-02T19:52:06.999Z</time></trkpt><trkpt lat="44.75916736377992" lon="9.939619973358928"><ele>569.8333333333334</ele><time>2026-05-02T19:52:07.999Z</time></trkpt><trkpt lat="44.75916329117995" lon="9.939735412898836"><ele>570.0</ele><time>2026-05-02T19:52:08.999Z</time></trkpt><trkpt lat="44.759137282564176" lon="9.939846577945406"><ele>570.0</ele><time>2026-05-02T19:52:09.999Z</time></trkpt><trkpt lat="44.7590776455441" lon="9.939938944855593"><ele>570.0</ele><time>2026-05-02T19:52:10.999Z</time></trkpt><trkpt lat="44.75903791116923" lon="9.94005202893806"><ele>570.0</ele><time>2026-05-02T19:52:11.999Z</time></trkpt><trkpt lat="44.75897642187002" lon="9.940142798077256"><ele>570.0</ele><time>2026-05-02T19:52:12.999Z</time></trkpt><trkpt lat="44.758948717773414" lon="9.940268641129556"><ele>570.0</ele><time>2026-05-02T19:52:13.999Z</time></trkpt><trkpt lat="44.75895205764943" lon="9.94040552783081"><ele>569.0</ele><time>2026-05-02T19:52:14.999Z</time></trkpt><trkpt lat="44.75899623726736" lon="9.940525381522063"><ele>568.0</ele><time>2026-05-02T19:52:15.999Z</time></trkpt><trkpt lat="44.75902419718528" lon="9.94064553433602"><ele>567.0</ele><time>2026-05-02T19:52:16.999Z</time></trkpt><trkpt lat="44.75903889132889" lon="9.940770675598722"><ele>566.0</ele><time>2026-05-02T19:52:17.999Z</time></trkpt><trkpt lat="44.759035550390166" lon="9.94090083887695"><ele>565.0</ele><time>2026-05-02T19:52:18.999Z</time></trkpt><trkpt lat="44.75900391380463" lon="9.941027712624086"><ele>563.2</ele><time>2026-05-02T19:52:19.999Z</time></trkpt><trkpt lat="44.758985848910925" lon="9.94115796201161"><ele>561.4</ele><time>2026-05-02T19:52:20.999Z</time></trkpt><trkpt lat="44.75896497585269" lon="9.941287087451133"><ele>559.6</ele><time>2026-05-02T19:52:21.999Z</time></trkpt><trkpt lat="44.75893841948547" lon="9.941413004752798"><ele>557.8</ele><time>2026-05-02T19:52:22.999Z</time></trkpt><trkpt lat="44.75892522966535" lon="9.941546538165673"><ele>556.0</ele><time>2026-05-02T19:52:23.999Z</time></trkpt><trkpt lat="44.758897102343305" lon="9.941680951023752"><ele>554.4</ele><time>2026-05-02T19:52:24.999Z</time></trkpt><trkpt lat="44.758873178285185" lon="9.941820665570456"><ele>552.8</ele><time>2026-05-02T19:52:25.999Z</time></trkpt><trkpt lat="44.758854539703506" lon="9.941961464774746"><ele>551.1999999999999</ele><time>2026-05-02T19:52:26.999Z</time></trkpt><trkpt lat="44.75884538566318" lon="9.942102629082633"><ele>549.6</ele><time>2026-05-02T19:52:27.999Z</time></trkpt><trkpt lat="44.75884526599363" lon="9.942248763494343"><ele>548.0</ele><time>2026-05-02T19:52:28.999Z</time></trkpt><trkpt lat="44.758854673923395" lon="9.942392603186333"><ele>548.0</ele><time>2026-05-02T19:52:29.999Z</time></trkpt><trkpt lat="44.75887434163579" lon="9.94253073404601"><ele>548.0</ele><time>2026-05-02T19:52:30.999Z</time></trkpt><trkpt lat="44.75889345040323" lon="9.942658322314665"><ele>548.0</ele><time>2026-05-02T19:52:31.999Z</time></trkpt><trkpt lat="44.75891056734883" lon="9.94277170248975"><ele>548.0</ele><time>2026-05-02T19:52:32.999Z</time></trkpt><trkpt lat="44.75892847539146" lon="9.942872556599717"><ele>548.0</ele><time>2026-05-02T19:52:33.999Z</time></trkpt><trkpt lat="44.75892979132947" lon="9.94296416542615"><ele>548.0</ele><time>2026-05-02T19:52:34.999Z</time></trkpt><trkpt lat="44.75900323962552" lon="9.943098248178543"><ele>548.0</ele><time>2026-05-02T19:52:36.998Z</time></trkpt><trkpt lat="44.75912262071036" lon="9.94304291183178"><ele>548.0</ele><time>2026-05-02T19:52:38.998Z</time></trkpt><trkpt lat="44.75912839959589" lon="9.942924363177283"><ele>548.0</ele><time>2026-05-02T19:52:39.998Z</time></trkpt><trkpt lat="44.75912624180759" lon="9.942828242993128"><ele>548.0</ele><time>2026-05-02T19:52:40.998Z</time></trkpt><trkpt lat="44.759121498305745" lon="9.94273367688304"><ele>548.0</ele><time>2026-05-02T19:52:41.998Z</time></trkpt><trkpt lat="44.75911759456985" lon="9.942632179180457"><ele>548.0</ele><time>2026-05-02T19:52:42.998Z</time></trkpt><trkpt lat="44.75911731585434" lon="9.942524027626106"><ele>548.0</ele><time>2026-05-02T19:52:43.998Z</time></trkpt><trkpt lat="44.759126668080775" lon="9.942413853195761"><ele>548.0</ele><time>2026-05-02T19:52:44.998Z</time></trkpt><trkpt lat="44.759145823806506" lon="9.942299738499942"><ele>548.0</ele><time>2026-05-02T19:52:45.998Z</time></trkpt><trkpt lat="44.75917473310775" lon="9.94218532621763"><ele>548.0</ele><time>2026-05-02T19:52:46.998Z</time></trkpt><trkpt lat="44.759217500480126" lon="9.942075435225458"><ele>548.0</ele><time>2026-05-02T19:52:47.998Z</time></trkpt><trkpt lat="44.75926694713744" lon="9.94196986000455"><ele>548.0</ele><time>2026-05-02T19:52:48.998Z</time></trkpt><trkpt lat="44.759316416914366" lon="9.94186710635203"><ele>544.8</ele><time>2026-05-02T19:52:49.998Z</time></trkpt><trkpt lat="44.7593682644982" lon="9.941762395117"><ele>541.5999999999999</ele><time>2026-05-02T19:52:50.998Z</time></trkpt><trkpt lat="44.75942245861542" lon="9.941657095423514"><ele>538.4000000000001</ele><time>2026-05-02T19:52:51.998Z</time></trkpt><trkpt lat="44.75947820800191" lon="9.941552661604037"><ele>535.2</ele><time>2026-05-02T19:52:52.998Z</time></trkpt><trkpt lat="44.75953410520655" lon="9.941447034024597"><ele>532.0</ele><time>2026-05-02T19:52:53.998Z</time></trkpt><trkpt lat="44.759587905982926" lon="9.941334373773925"><ele>532.0</ele><time>2026-05-02T19:52:54.998Z</time></trkpt><trkpt lat="44.75964319922907" lon="9.941228862919557"><ele>532.0</ele><time>2026-05-02T19:52:55.998Z</time></trkpt><trkpt lat="44.759701283258394" lon="9.94112173841933"><ele>532.0</ele><time>2026-05-02T19:52:56.998Z</time></trkpt><trkpt lat="44.75976329985159" lon="9.94101767401914"><ele>532.0</ele><time>2026-05-02T19:52:58Z</time></trkpt><trkpt lat="44.759827455920785" lon="9.940915083031754"><ele>532.0</ele><time>2026-05-02T19:52:59Z</time></trkpt><trkpt lat="44.75989145599018" lon="9.940811337013244"><ele>530.8000000000001</ele><time>2026-05-02T19:53:00Z</time></trkpt><trkpt lat="44.75995536468445" lon="9.94070824791556"><ele>529.6</ele><time>2026-05-02T19:53:01Z</time></trkpt><trkpt lat="44.7600168413343" lon="9.94061104845352"><ele>528.4000000000001</ele><time>2026-05-02T19:53:02Z</time></trkpt><trkpt lat="44.760075478086705" lon="9.940516040446376"><ele>527.2</ele><time>2026-05-02T19:53:03Z</time></trkpt><trkpt lat="44.76013641885427" lon="9.940432057115723"><ele>526.0</ele><time>2026-05-02T19:53:04Z</time></trkpt><trkpt lat="44.76020920375287" lon="9.940362550404354"><ele>526.0</ele><time>2026-05-02T19:53:05Z</time></trkpt><trkpt lat="44.760289497209776" lon="9.94031664067147"><ele>526.0</ele><time>2026-05-02T19:53:06Z</time></trkpt><trkpt lat="44.76037838214955" lon="9.940286301088621"><ele>526.0</ele><time>2026-05-02T19:53:07Z</time></trkpt><trkpt lat="44.76046689206996" lon="9.940255958493179"><ele>526.0</ele><time>2026-05-02T19:53:08Z</time></trkpt><trkpt lat="44.76055573082729" lon="9.940217005607618"><ele>526.0</ele><time>2026-05-02T19:53:09Z</time></trkpt><trkpt lat="44.760645170148415" lon="9.940173845572541"><ele>526.0</ele><time>2026-05-02T19:53:10Z</time></trkpt><trkpt lat="44.760733035411775" lon="9.940132057544341"><ele>526.0</ele><time>2026-05-02T19:53:11Z</time></trkpt><trkpt lat="44.76081443393588" lon="9.940096971268217"><ele>526.0</ele><time>2026-05-02T19:53:12Z</time></trkpt><trkpt lat="44.76088957352935" lon="9.9400825145837"><ele>526.0</ele><time>2026-05-02T19:53:13Z</time></trkpt><trkpt lat="44.760991309413704" lon="9.940133258590384"><ele>526.0</ele><time>2026-05-02T19:53:15Z</time></trkpt><trkpt lat="44.76099186211683" lon="9.940306934572998"><ele>526.0</ele><time>2026-05-02T19:53:17Z</time></trkpt><trkpt lat="44.76094471881908" lon="9.940386153316231"><ele>526.0</ele><time>2026-05-02T19:53:18Z</time></trkpt><trkpt lat="44.760890726794926" lon="9.940457921262542"><ele>526.0</ele><time>2026-05-02T19:53:19Z</time></trkpt><trkpt lat="44.76083950626841" lon="9.940535449947713"><ele>526.0</ele><time>2026-05-02T19:53:20Z</time></trkpt><trkpt lat="44.76078635062179" lon="9.940615286134546"><ele>526.0</ele><time>2026-05-02T19:53:21Z</time></trkpt><trkpt lat="44.76073151996003" lon="9.940699509980046"><ele>526.0</ele><time>2026-05-02T19:53:22Z</time></trkpt><trkpt lat="44.76067524739108" lon="9.940787009785137"><ele>523.8</ele><time>2026-05-02T19:53:23Z</time></trkpt><trkpt lat="44.76062159175589" lon="9.940882620854373"><ele>521.6</ele><time>2026-05-02T19:53:24Z</time></trkpt><trkpt lat="44.76055623477908" lon="9.940971193490489"><ele>519.4</ele><time>2026-05-02T19:53:25Z</time></trkpt><trkpt lat="44.76051027383586" lon="9.94108478153977"><ele>517.2</ele><time>2026-05-02T19:53:26Z</time></trkpt><trkpt lat="44.76047259215952" lon="9.94120880370894"><ele>515.0</ele><time>2026-05-02T19:53:27Z</time></trkpt><trkpt lat="44.760441990269186" lon="9.941339100157307"><ele>515.0</ele><time>2026-05-02T19:53:28Z</time></trkpt><trkpt lat="44.76041337223686" lon="9.941470890465096"><ele>515.0</ele><time>2026-05-02T19:53:29Z</time></trkpt><trkpt lat="44.760398599188804" lon="9.941610403303176"><ele>515.0</ele><time>2026-05-02T19:53:30Z</time></trkpt><trkpt lat="44.760369310249764" lon="9.941743284822"><ele>515.0</ele><time>2026-05-02T19:53:31Z</time></trkpt><trkpt lat="44.76034230826396" lon="9.941875080948586"><ele>515.0</ele><time>2026-05-02T19:53:32Z</time></trkpt><trkpt lat="44.760320033043186" lon="9.942010185901307"><ele>515.0</ele><time>2026-05-02T19:53:33Z</time></trkpt><trkpt lat="44.76030128263141" lon="9.942140601087527"><ele>515.0</ele><time>2026-05-02T19:53:34Z</time></trkpt><trkpt lat="44.760267471362354" lon="9.942262124191556"><ele>515.0</ele><time>2026-05-02T19:53:35Z</time></trkpt><trkpt lat="44.76025161722402" lon="9.942382905605658"><ele>515.0</ele><time>2026-05-02T19:53:36Z</time></trkpt><trkpt lat="44.760241211190625" lon="9.942502382928778"><ele>515.0</ele><time>2026-05-02T19:53:36.999Z</time></trkpt><trkpt lat="44.76025325384101" lon="9.94263057412732"><ele>515.0</ele><time>2026-05-02T19:53:37.999Z</time></trkpt><trkpt lat="44.7603061819543" lon="9.942747142440785"><ele>515.0</ele><time>2026-05-02T19:53:38.999Z</time></trkpt><trkpt lat="44.76036249735746" lon="9.94284458183343"><ele>515.0</ele><time>2026-05-02T19:53:39.999Z</time></trkpt><trkpt lat="44.76042990706579" lon="9.942926777205848"><ele>515.0</ele><time>2026-05-02T19:53:40.999Z</time></trkpt><trkpt lat="44.76047945097829" lon="9.943027629444297"><ele>515.0</ele><time>2026-05-02T19:53:41.999Z</time></trkpt><trkpt lat="44.76052090780848" lon="9.943135906403212"><ele>515.0</ele><time>2026-05-02T19:53:42.999Z</time></trkpt><trkpt lat="44.76055378369659" lon="9.943254417078899"><ele>515.0</ele><time>2026-05-02T19:53:43.999Z</time></trkpt><trkpt lat="44.76058109131008" lon="9.943377026349294"><ele>515.0</ele><time>2026-05-02T19:53:44.999Z</time></trkpt><trkpt lat="44.76061014965368" lon="9.943501421966667"><ele>515.0</ele><time>2026-05-02T19:53:45.999Z</time></trkpt><trkpt lat="44.760641502891815" lon="9.943629377679969"><ele>515.0</ele><time>2026-05-02T19:53:46.999Z</time></trkpt><trkpt lat="44.76067116340913" lon="9.943758796451867"><ele>514.1666666666666</ele><time>2026-05-02T19:53:47.999Z</time></trkpt><trkpt lat="44.760705978237624" lon="9.943873282730324"><ele>513.3333333333333</ele><time>2026-05-02T19:53:48.999Z</time></trkpt><trkpt lat="44.760748516072006" lon="9.943975116048232"><ele>512.5</ele><time>2026-05-02T19:53:49.999Z</time></trkpt><trkpt lat="44.76078877728961" lon="9.94405991840319"><ele>511.66666666666663</ele><time>2026-05-02T19:53:50.999Z</time></trkpt><trkpt lat="44.76084830111504" lon="9.944095590482354"><ele>510.8333333333333</ele><time>2026-05-02T19:53:51.999Z</time></trkpt><trkpt lat="44.76091827337887" lon="9.944059247876055"><ele>510.0</ele><time>2026-05-02T19:53:52.999Z</time></trkpt><trkpt lat="44.7609694872763" lon="9.943991021768465"><ele>510.0</ele><time>2026-05-02T19:53:53.999Z</time></trkpt><trkpt lat="44.760998025827426" lon="9.943898644099104"><ele>510.00000000000006</ele><time>2026-05-02T19:53:54.999Z</time></trkpt><trkpt lat="44.761019707577674" lon="9.943803080902756"><ele>510.0</ele><time>2026-05-02T19:53:55.999Z</time></trkpt><trkpt lat="44.76103938317502" lon="9.943706137925046"><ele>510.0</ele><time>2026-05-02T19:53:56.999Z</time></trkpt><trkpt lat="44.76105568791458" lon="9.943606385026168"><ele>510.00000000000006</ele><time>2026-05-02T19:53:57.999Z</time></trkpt><trkpt lat="44.761065935382135" lon="9.943499927168837"><ele>510.0</ele><time>2026-05-02T19:53:58.999Z</time></trkpt><trkpt lat="44.761068087420426" lon="9.943389173603796"><ele>510.0</ele><time>2026-05-02T19:53:59.999Z</time></trkpt><trkpt lat="44.761056892457" lon="9.943275766032142"><ele>510.8333333333333</ele><time>2026-05-02T19:54:00.999Z</time></trkpt><trkpt lat="44.76103058436116" lon="9.943164365172251"><ele>511.66666666666663</ele><time>2026-05-02T19:54:01.999Z</time></trkpt><trkpt lat="44.76099924017002" lon="9.943055116426079"><ele>512.5</ele><time>2026-05-02T19:54:02.999Z</time></trkpt><trkpt lat="44.76098000233508" lon="9.942946545234474"><ele>513.3333333333333</ele><time>2026-05-02T19:54:03.999Z</time></trkpt><trkpt lat="44.76096894940082" lon="9.942833252363982"><ele>514.1666666666666</ele><time>2026-05-02T19:54:04.999Z</time></trkpt><trkpt lat="44.76096967550643" lon="9.94272080042838"><ele>515.0</ele><time>2026-05-02T19:54:05.999Z</time></trkpt><trkpt lat="44.76099436485639" lon="9.94262365681804"><ele>511.66666666666663</ele><time>2026-05-02T19:54:06.999Z</time></trkpt><trkpt lat="44.76103890846462" lon="9.94252875972302"><ele>508.3333333333333</ele><time>2026-05-02T19:54:07.999Z</time></trkpt><trkpt lat="44.76109195360251" lon="9.942433091751562"><ele>505.0</ele><time>2026-05-02T19:54:08.999Z</time></trkpt><trkpt lat="44.76114198220936" lon="9.942331200009864"><ele>501.66666666666663</ele><time>2026-05-02T19:54:09.999Z</time></trkpt><trkpt lat="44.76119389654289" lon="9.942228902830268"><ele>498.3333333333333</ele><time>2026-05-02T19:54:10.999Z</time></trkpt><trkpt lat="44.76124837145503" lon="9.942125492639446"><ele>495.0</ele><time>2026-05-02T19:54:11.999Z</time></trkpt><trkpt lat="44.76130176011143" lon="9.942023567584537"><ele>495.0</ele><time>2026-05-02T19:54:12.999Z</time></trkpt><trkpt lat="44.76136066370786" lon="9.94193210175916"><ele>495.0</ele><time>2026-05-02T19:54:13.999Z</time></trkpt><trkpt lat="44.761429882996204" lon="9.941852458596113"><ele>495.0</ele><time>2026-05-02T19:54:14.999Z</time></trkpt><trkpt lat="44.76150558179791" lon="9.941782890736166"><ele>495.0</ele><time>2026-05-02T19:54:15.999Z</time></trkpt><trkpt lat="44.76158480250896" lon="9.941727884733417"><ele>495.0</ele><time>2026-05-02T19:54:16.999Z</time></trkpt><trkpt lat="44.761667948994614" lon="9.941691739085604"><ele>495.0</ele><time>2026-05-02T19:54:17.999Z</time></trkpt><trkpt lat="44.761757262056044" lon="9.94167304026669"><ele>494.3333333333333</ele><time>2026-05-02T19:54:18.999Z</time></trkpt><trkpt lat="44.76184611730818" lon="9.941671525831866"><ele>493.66666666666663</ele><time>2026-05-02T19:54:19.999Z</time></trkpt><trkpt lat="44.76193679655419" lon="9.941681643946758"><ele>493.0</ele><time>2026-05-02T19:54:20.999Z</time></trkpt><trkpt lat="44.76202483174183" lon="9.941691077288317"><ele>492.3333333333333</ele><time>2026-05-02T19:54:21.999Z</time></trkpt><trkpt lat="44.76210912296542" lon="9.941676385954073"><ele>491.66666666666663</ele><time>2026-05-02T19:54:22.999Z</time></trkpt><trkpt lat="44.76219000747127" lon="9.941632031881646"><ele>491.0</ele><time>2026-05-02T19:54:23.999Z</time></trkpt><trkpt lat="44.76226005676104" lon="9.941555294477258"><ele>490.99999999999994</ele><time>2026-05-02T19:54:24.999Z</time></trkpt><trkpt lat="44.7623238864437" lon="9.941466658662497"><ele>491.0</ele><time>2026-05-02T19:54:25.999Z</time></trkpt><trkpt lat="44.76238463277696" lon="9.941369567362086"><ele>491.0</ele><time>2026-05-02T19:54:26.999Z</time></trkpt><trkpt lat="44.762442474516114" lon="9.941271772854602"><ele>491.0</ele><time>2026-05-02T19:54:27.999Z</time></trkpt><trkpt lat="44.76250004030535" lon="9.941182159430271"><ele>490.99999999999994</ele><time>2026-05-02T19:54:28.999Z</time></trkpt><trkpt lat="44.76255832149828" lon="9.941110296595614"><ele>491.0</ele><time>2026-05-02T19:54:29.999Z</time></trkpt><trkpt lat="44.76262355028376" lon="9.941054328751083"><ele>488.8333333333333</ele><time>2026-05-02T19:54:30.999Z</time></trkpt><trkpt lat="44.762700964758054" lon="9.941038077104817"><ele>486.66666666666663</ele><time>2026-05-02T19:54:31.999Z</time></trkpt><trkpt lat="44.76277773230485" lon="9.941064708727502"><ele>484.5</ele><time>2026-05-02T19:54:32.999Z</time></trkpt><trkpt lat="44.762851319236304" lon="9.941111741776147"><ele>482.33333333333337</ele><time>2026-05-02T19:54:33.999Z</time></trkpt><trkpt lat="44.762925459054614" lon="9.941156945560378"><ele>480.1666666666667</ele><time>2026-05-02T19:54:34.999Z</time></trkpt><trkpt lat="44.763003321477875" lon="9.941188368459061"><ele>478.0</ele><time>2026-05-02T19:54:35.999Z</time></trkpt><trkpt lat="44.76308464152462" lon="9.9412040573871"><ele>478.0</ele><time>2026-05-02T19:54:36.999Z</time></trkpt><trkpt lat="44.76317140929403" lon="9.941192760740128"><ele>477.99999999999994</ele><time>2026-05-02T19:54:37.999Z</time></trkpt><trkpt lat="44.7632581291804" lon="9.941152061161617"><ele>477.99999999999994</ele><time>2026-05-02T19:54:38.999Z</time></trkpt><trkpt lat="44.76334503907389" lon="9.941098100135168"><ele>478.0</ele><time>2026-05-02T19:54:39.999Z</time></trkpt><trkpt lat="44.763432175225105" lon="9.941042185962035"><ele>478.0</ele><time>2026-05-02T19:54:40.999Z</time></trkpt><trkpt lat="44.7635185014873" lon="9.940987145087705"><ele>476.83333333333337</ele><time>2026-05-02T19:54:41.999Z</time></trkpt><trkpt lat="44.76359656432922" lon="9.940932024276524"><ele>475.6666666666667</ele><time>2026-05-02T19:54:42.998Z</time></trkpt><trkpt lat="44.76366475970313" lon="9.940858491842205"><ele>474.5</ele><time>2026-05-02T19:54:43.998Z</time></trkpt><trkpt lat="44.763719365419156" lon="9.94076801079516"><ele>473.33333333333337</ele><time>2026-05-02T19:54:44.998Z</time></trkpt><trkpt lat="44.763768587713734" lon="9.940669031746634"><ele>472.1666666666667</ele><time>2026-05-02T19:54:45.998Z</time></trkpt><trkpt lat="44.763803707912125" lon="9.940582403849092"><ele>471.0</ele><time>2026-05-02T19:54:46.998Z</time></trkpt><trkpt lat="44.7638775914663" lon="9.940484890458244"><ele>471.0</ele><time>2026-05-02T19:54:48.998Z</time></trkpt><trkpt lat="44.76396437639323" lon="9.940504478983028"><ele>471.0</ele><time>2026-05-02T19:54:50.998Z</time></trkpt><trkpt lat="44.76397035366329" lon="9.94062688151162"><ele>471.0</ele><time>2026-05-02T19:54:51.998Z</time></trkpt><trkpt lat="44.76394039871366" lon="9.940718529631434"><ele>471.0</ele><time>2026-05-02T19:54:52.998Z</time></trkpt><trkpt lat="44.76390552776371" lon="9.940800995159208"><ele>471.0</ele><time>2026-05-02T19:54:53.998Z</time></trkpt><trkpt lat="44.76386833276457" lon="9.940887257180812"><ele>471.0</ele><time>2026-05-02T19:54:54.998Z</time></trkpt><trkpt lat="44.76382927999651" lon="9.940981235350897"><ele>472.1666666666667</ele><time>2026-05-02T19:54:55.998Z</time></trkpt><trkpt lat="44.763783788464366" lon="9.941074383614527"><ele>473.33333333333337</ele><time>2026-05-02T19:54:56.998Z</time></trkpt><trkpt lat="44.76373225734923" lon="9.94117013836611"><ele>474.5</ele><time>2026-05-02T19:54:57.998Z</time></trkpt><trkpt lat="44.763676553985256" lon="9.941267339998054"><ele>475.6666666666667</ele><time>2026-05-02T19:54:58.998Z</time></trkpt><trkpt lat="44.763619286383125" lon="9.941371046044853"><ele>476.83333333333337</ele><time>2026-05-02T19:54:59.998Z</time></trkpt><trkpt lat="44.76356659311225" lon="9.941476440812629"><ele>478.0</ele><time>2026-05-02T19:55:00.998Z</time></trkpt><trkpt lat="44.763515948477945" lon="9.941583533590236"><ele>478.0</ele><time>2026-05-02T19:55:01.998Z</time></trkpt><trkpt lat="44.76346363295747" lon="9.941687712011335"><ele>477.99999999999994</ele><time>2026-05-02T19:55:02.998Z</time></trkpt><trkpt lat="44.76340967425163" lon="9.941794828358745"><ele>477.99999999999994</ele><time>2026-05-02T19:55:04Z</time></trkpt><trkpt lat="44.76334112789531" lon="9.94189402454876"><ele>478.0</ele><time>2026-05-02T19:55:05Z</time></trkpt><trkpt lat="44.76328512006533" lon="9.942006086888446"><ele>478.0</ele><time>2026-05-02T19:55:06Z</time></trkpt><trkpt lat="44.7632427406237" lon="9.942134232314116"><ele>476.00000000000006</ele><time>2026-05-02T19:55:07Z</time></trkpt><trkpt lat="44.763191095004515" lon="9.942253410859761"><ele>474.0</ele><time>2026-05-02T19:55:08Z</time></trkpt><trkpt lat="44.763149272581096" lon="9.942365557714746"><ele>472.0</ele><time>2026-05-02T19:55:09Z</time></trkpt><trkpt lat="44.76311418643171" lon="9.942466078159685"><ele>470.0</ele><time>2026-05-02T19:55:10Z</time></trkpt><trkpt lat="44.763096444395615" lon="9.942560881026392"><ele>468.00000000000006</ele><time>2026-05-02T19:55:11Z</time></trkpt><trkpt lat="44.76310437946866" lon="9.942657960691323"><ele>466.0</ele><time>2026-05-02T19:55:12Z</time></trkpt><trkpt lat="44.76314227916331" lon="9.942738604974547"><ele>465.6666666666667</ele><time>2026-05-02T19:55:13Z</time></trkpt><trkpt lat="44.76320579186022" lon="9.942786024847944"><ele>465.33333333333337</ele><time>2026-05-02T19:55:14Z</time></trkpt><trkpt lat="44.763283797084775" lon="9.94279433949175"><ele>465.0</ele><time>2026-05-02T19:55:15Z</time></trkpt><trkpt lat="44.76336588677746" lon="9.942769692734872"><ele>464.66666666666663</ele><time>2026-05-02T19:55:16Z</time></trkpt><trkpt lat="44.76344799269364" lon="9.942733035823728"><ele>464.3333333333333</ele><time>2026-05-02T19:55:17Z</time></trkpt><trkpt lat="44.76353588284961" lon="9.942697805424693"><ele>464.0</ele><time>2026-05-02T19:55:18Z</time></trkpt><trkpt lat="44.763624755532355" lon="9.942654171665898"><ele>462.2</ele><time>2026-05-02T19:55:19Z</time></trkpt><trkpt lat="44.76371205523219" lon="9.942596484160033"><ele>460.4</ele><time>2026-05-02T19:55:20Z</time></trkpt><trkpt lat="44.76379429134832" lon="9.942522897977113"><ele>458.6</ele><time>2026-05-02T19:55:21Z</time></trkpt><trkpt lat="44.76387408631727" lon="9.942441189190507"><ele>456.8</ele><time>2026-05-02T19:55:22Z</time></trkpt><trkpt lat="44.763954597548455" lon="9.94235703952252"><ele>455.0</ele><time>2026-05-02T19:55:23Z</time></trkpt><trkpt lat="44.764037513768585" lon="9.942277852855796"><ele>455.0</ele><time>2026-05-02T19:55:24Z</time></trkpt><trkpt lat="44.76412201746776" lon="9.942195146111045"><ele>455.0</ele><time>2026-05-02T19:55:25Z</time></trkpt><trkpt lat="44.764209014967015" lon="9.942114843515688"><ele>455.0</ele><time>2026-05-02T19:55:26Z</time></trkpt><trkpt lat="44.764299138258885" lon="9.942043761765627"><ele>455.0</ele><time>2026-05-02T19:55:27Z</time></trkpt><trkpt lat="44.7643907976125" lon="9.941976223760557"><ele>455.0</ele><time>2026-05-02T19:55:28Z</time></trkpt><trkpt lat="44.76448217967035" lon="9.941908908716057"><ele>452.8</ele><time>2026-05-02T19:55:29Z</time></trkpt><trkpt lat="44.7645772586912" lon="9.941835640896482"><ele>450.6</ele><time>2026-05-02T19:55:30Z</time></trkpt><trkpt lat="44.76467135402177" lon="9.941760889586863"><ele>448.4</ele><time>2026-05-02T19:55:31Z</time></trkpt><trkpt lat="44.764767508025464" lon="9.941686903169751"><ele>446.2</ele><time>2026-05-02T19:55:32Z</time></trkpt><trkpt lat="44.764864891682656" lon="9.941615028461579"><ele>444.0</ele><time>2026-05-02T19:55:33Z</time></trkpt><trkpt lat="44.764961691388564" lon="9.941543932331548"><ele>444.0</ele><time>2026-05-02T19:55:34Z</time></trkpt><trkpt lat="44.76505750335029" lon="9.941472021929098"><ele>444.0</ele><time>2026-05-02T19:55:35Z</time></trkpt><trkpt lat="44.76515354521541" lon="9.941399053470263"><ele>444.0</ele><time>2026-05-02T19:55:36Z</time></trkpt><trkpt lat="44.76524444096324" lon="9.941328034924416"><ele>444.0</ele><time>2026-05-02T19:55:37Z</time></trkpt><trkpt lat="44.765339694709596" lon="9.941253354675636"><ele>444.0</ele><time>2026-05-02T19:55:38Z</time></trkpt><trkpt lat="44.7654377441169" lon="9.941177579507334"><ele>441.0</ele><time>2026-05-02T19:55:39Z</time></trkpt><trkpt lat="44.765539399735914" lon="9.941101625126352"><ele>438.0</ele><time>2026-05-02T19:55:40Z</time></trkpt><trkpt lat="44.765644147154845" lon="9.941031794582711"><ele>435.0</ele><time>2026-05-02T19:55:41Z</time></trkpt><trkpt lat="44.765749816626425" lon="9.940974429009739"><ele>432.0</ele><time>2026-05-02T19:55:42Z</time></trkpt><trkpt lat="44.765857433059594" lon="9.940927418456969"><ele>432.0</ele><time>2026-05-02T19:55:42.999Z</time></trkpt><trkpt lat="44.76596380554724" lon="9.940883107087613"><ele>432.0</ele><time>2026-05-02T19:55:43.999Z</time></trkpt><trkpt lat="44.76607135359519" lon="9.94083247237575"><ele>432.0</ele><time>2026-05-02T19:55:44.999Z</time></trkpt><trkpt lat="44.76618059073594" lon="9.940785821646303"><ele>432.0</ele><time>2026-05-02T19:55:45.999Z</time></trkpt><trkpt lat="44.766287604950186" lon="9.940739645530996"><ele>432.0</ele><time>2026-05-02T19:55:46.999Z</time></trkpt><trkpt lat="44.76639357097259" lon="9.940696098610491"><ele>432.00000000000006</ele><time>2026-05-02T19:55:47.999Z</time></trkpt><trkpt lat="44.766496108479565" lon="9.94065160637189"><ele>432.00000000000006</ele><time>2026-05-02T19:55:48.999Z</time></trkpt><trkpt lat="44.766595950743934" lon="9.940608528644338"><ele>432.0</ele><time>2026-05-02T19:55:49.999Z</time></trkpt><trkpt lat="44.76669997879153" lon="9.940567999673966"><ele>432.0</ele><time>2026-05-02T19:55:50.999Z</time></trkpt><trkpt lat="44.7668082729709" lon="9.940535129063719"><ele>431.40000000000003</ele><time>2026-05-02T19:55:51.999Z</time></trkpt><trkpt lat="44.76691878242092" lon="9.940510338333212"><ele>430.80000000000007</ele><time>2026-05-02T19:55:52.999Z</time></trkpt><trkpt lat="44.76702477006855" lon="9.940486828073324"><ele>430.2</ele><time>2026-05-02T19:55:53.999Z</time></trkpt><trkpt lat="44.767129250468955" lon="9.940464087227951"><ele>429.6</ele><time>2026-05-02T19:55:54.999Z</time></trkpt><trkpt lat="44.767234083025514" lon="9.94044199449154"><ele>429.0</ele><time>2026-05-02T19:55:55.999Z</time></trkpt><trkpt lat="44.76733795475431" lon="9.940420834386606"><ele>429.0</ele><time>2026-05-02T19:55:56.999Z</time></trkpt><trkpt lat="44.76744020831904" lon="9.940399417157023"><ele>429.0</ele><time>2026-05-02T19:55:57.999Z</time></trkpt><trkpt lat="44.7675406744294" lon="9.940377608802747"><ele>429.0</ele><time>2026-05-02T19:55:58.999Z</time></trkpt><trkpt lat="44.767640802605605" lon="9.940354693380751"><ele>429.0</ele><time>2026-05-02T19:55:59.999Z</time></trkpt><trkpt lat="44.76773565451778" lon="9.940345239014274"><ele>429.0</ele><time>2026-05-02T19:56:00.999Z</time></trkpt><trkpt lat="44.767824782418664" lon="9.940348054171666"><ele>428.3333333333333</ele><time>2026-05-02T19:56:01.999Z</time></trkpt><trkpt lat="44.76791077291027" lon="9.94036096050644"><ele>427.66666666666663</ele><time>2026-05-02T19:56:02.999Z</time></trkpt><trkpt lat="44.76799545883153" lon="9.940387702763196"><ele>427.0</ele><time>2026-05-02T19:56:03.999Z</time></trkpt><trkpt lat="44.768078183935835" lon="9.94042654294764"><ele>426.3333333333333</ele><time>2026-05-02T19:56:04.999Z</time></trkpt><trkpt lat="44.76815556269203" lon="9.940467754410475"><ele>425.66666666666663</ele><time>2026-05-02T19:56:05.999Z</time></trkpt><trkpt lat="44.76822654710334" lon="9.940517322863494"><ele>425.0</ele><time>2026-05-02T19:56:06.999Z</time></trkpt><trkpt lat="44.76829364827424" lon="9.94057347719687"><ele>424.99999999999994</ele><time>2026-05-02T19:56:07.999Z</time></trkpt><trkpt lat="44.768357654288096" lon="9.940646085257969"><ele>425.0</ele><time>2026-05-02T19:56:08.999Z</time></trkpt><trkpt lat="44.76841539160147" lon="9.94073442259878"><ele>425.0</ele><time>2026-05-02T19:56:09.999Z</time></trkpt><trkpt lat="44.768463683033126" lon="9.940832068042496"><ele>425.0</ele><time>2026-05-02T19:56:10.999Z</time></trkpt><trkpt lat="44.76850276268966" lon="9.940937525769117"><ele>424.99999999999994</ele><time>2026-05-02T19:56:11.999Z</time></trkpt><trkpt lat="44.768529239431594" lon="9.941045224121305"><ele>425.0</ele><time>2026-05-02T19:56:12.999Z</time></trkpt><trkpt lat="44.76855402480824" lon="9.941159251541603"><ele>423.3333333333333</ele><time>2026-05-02T19:56:13.999Z</time></trkpt><trkpt lat="44.76858124459272" lon="9.941273119730694"><ele>421.66666666666663</ele><time>2026-05-02T19:56:14.999Z</time></trkpt><trkpt lat="44.76861821695046" lon="9.941379009790985"><ele>420.0</ele><time>2026-05-02T19:56:15.999Z</time></trkpt><trkpt lat="44.76867705026384" lon="9.941469358048616"><ele>418.33333333333337</ele><time>2026-05-02T19:56:16.999Z</time></trkpt><trkpt lat="44.768748086986456" lon="9.941543527568289"><ele>416.6666666666667</ele><time>2026-05-02T19:56:17.999Z</time></trkpt><trkpt lat="44.768829179708476" lon="9.941602433448379"><ele>415.0</ele><time>2026-05-02T19:56:18.999Z</time></trkpt><trkpt lat="44.768915689364775" lon="9.941656911095475"><ele>415.0</ele><time>2026-05-02T19:56:19.999Z</time></trkpt><trkpt lat="44.76900625170155" lon="9.94170640708698"><ele>415.0</ele><time>2026-05-02T19:56:20.999Z</time></trkpt><trkpt lat="44.769099084060144" lon="9.941749033917006"><ele>415.0</ele><time>2026-05-02T19:56:21.999Z</time></trkpt><trkpt lat="44.76919435851117" lon="9.941775473010926"><ele>415.0</ele><time>2026-05-02T19:56:22.999Z</time></trkpt><trkpt lat="44.76929029916265" lon="9.941790676126079"><ele>415.0</ele><time>2026-05-02T19:56:23.999Z</time></trkpt><trkpt lat="44.769383438892774" lon="9.941787769453104"><ele>414.4</ele><time>2026-05-02T19:56:24.999Z</time></trkpt><trkpt lat="44.76947490106103" lon="9.941763934997674"><ele>413.8</ele><time>2026-05-02T19:56:25.999Z</time></trkpt><trkpt lat="44.769562606523486" lon="9.941719266590386"><ele>413.20000000000005</ele><time>2026-05-02T19:56:26.999Z</time></trkpt><trkpt lat="44.76964721515319" lon="9.941662372820124"><ele>412.6</ele><time>2026-05-02T19:56:27.999Z</time></trkpt><trkpt lat="44.76972942942042" lon="9.941590762511336"><ele>412.0</ele><time>2026-05-02T19:56:28.999Z</time></trkpt><trkpt lat="44.76980660110886" lon="9.941504956452993"><ele>412.0</ele><time>2026-05-02T19:56:29.999Z</time></trkpt><trkpt lat="44.76987748956482" lon="9.941404498895729"><ele>412.0</ele><time>2026-05-02T19:56:30.999Z</time></trkpt><trkpt lat="44.76993800670345" lon="9.941290145583366"><ele>412.0</ele><time>2026-05-02T19:56:31.999Z</time></trkpt><trkpt lat="44.76999272781807" lon="9.941165507688103"><ele>412.0</ele><time>2026-05-02T19:56:32.999Z</time></trkpt><trkpt lat="44.770043838817585" lon="9.94103743442404"><ele>412.0</ele><time>2026-05-02T19:56:33.999Z</time></trkpt><trkpt lat="44.77009466773317" lon="9.94091650197359"><ele>411.0</ele><time>2026-05-02T19:56:34.999Z</time></trkpt><trkpt lat="44.770138611579576" lon="9.940790979498557"><ele>410.0</ele><time>2026-05-02T19:56:35.999Z</time></trkpt><trkpt lat="44.77018575256047" lon="9.940673938810697"><ele>409.0</ele><time>2026-05-02T19:56:36.999Z</time></trkpt><trkpt lat="44.77023916161049" lon="9.940570745104804"><ele>408.0</ele><time>2026-05-02T19:56:37.999Z</time></trkpt><trkpt lat="44.77030207844317" lon="9.940482518845636"><ele>407.0</ele><time>2026-05-02T19:56:38.999Z</time></trkpt><trkpt lat="44.77038226838713" lon="9.940425383076164"><ele>404.20000000000005</ele><time>2026-05-02T19:56:39.999Z</time></trkpt><trkpt lat="44.77047004591572" lon="9.940392139076407"><ele>401.4</ele><time>2026-05-02T19:56:40.999Z</time></trkpt><trkpt lat="44.770559183158426" lon="9.940362501287598"><ele>398.6</ele><time>2026-05-02T19:56:41.999Z</time></trkpt><trkpt lat="44.770649841031016" lon="9.940319639553763"><ele>395.79999999999995</ele><time>2026-05-02T19:56:42.999Z</time></trkpt><trkpt lat="44.770739697467725" lon="9.940263412859064"><ele>393.0</ele><time>2026-05-02T19:56:43.999Z</time></trkpt><trkpt lat="44.77082658327231" lon="9.940198349360521"><ele>393.0</ele><time>2026-05-02T19:56:44.999Z</time></trkpt><trkpt lat="44.77091424409414" lon="9.940125876908157"><ele>393.0</ele><time>2026-05-02T19:56:45.999Z</time></trkpt><trkpt lat="44.77099845079038" lon="9.940050058441978"><ele>393.0</ele><time>2026-05-02T19:56:46.999Z</time></trkpt><trkpt lat="44.771081725353106" lon="9.939989288788901"><ele>393.0</ele><time>2026-05-02T19:56:47.999Z</time></trkpt><trkpt lat="44.77117602462456" lon="9.939931828924614"><ele>393.0</ele><time>2026-05-02T19:56:48.998Z</time></trkpt><trkpt lat="44.77126162977573" lon="9.939880493286855"><ele>390.5</ele><time>2026-05-02T19:56:49.998Z</time></trkpt><trkpt lat="44.77134308029837" lon="9.93984277925213"><ele>388.0</ele><time>2026-05-02T19:56:50.998Z</time></trkpt><trkpt lat="44.77142119055049" lon="9.939805503016"><ele>385.5</ele><time>2026-05-02T19:56:51.998Z</time></trkpt><trkpt lat="44.77149876679474" lon="9.939765459798526"><ele>383.0</ele><time>2026-05-02T19:56:52.998Z</time></trkpt><trkpt lat="44.771564356360905" lon="9.939721684823416"><ele>380.5</ele><time>2026-05-02T19:56:53.998Z</time></trkpt><trkpt lat="44.77162882281649" lon="9.939662943157069"><ele>378.0</ele><time>2026-05-02T19:56:54.998Z</time></trkpt><trkpt lat="44.7716855367828" lon="9.939586788829853"><ele>378.0</ele><time>2026-05-02T19:56:55.998Z</time></trkpt><trkpt lat="44.77172740402601" lon="9.939493822854384"><ele>378.0</ele><time>2026-05-02T19:56:56.998Z</time></trkpt><trkpt lat="44.77176183889381" lon="9.939383101653638"><ele>378.0</ele><time>2026-05-02T19:56:57.998Z</time></trkpt><trkpt lat="44.77178280650276" lon="9.939274273250177"><ele>378.0</ele><time>2026-05-02T19:56:58.998Z</time></trkpt><trkpt lat="44.771792106027895" lon="9.939160851941825"><ele>378.0</ele><time>2026-05-02T19:56:59.998Z</time></trkpt><trkpt lat="44.77178207770585" lon="9.93905099273905"><ele>378.0</ele><time>2026-05-02T19:57:00.998Z</time></trkpt><trkpt lat="44.77175599770322" lon="9.938942428056862"><ele>380.1666666666667</ele><time>2026-05-02T19:57:01.998Z</time></trkpt><trkpt lat="44.7717227862535" lon="9.938843600707214"><ele>382.33333333333337</ele><time>2026-05-02T19:57:02.998Z</time></trkpt><trkpt lat="44.7716672562413" lon="9.938752801696404"><ele>384.5</ele><time>2026-05-02T19:57:03.998Z</time></trkpt><trkpt lat="44.77161205970437" lon="9.938679050922461"><ele>386.6666666666667</ele><time>2026-05-02T19:57:04.998Z</time></trkpt><trkpt lat="44.77155696234786" lon="9.938599275518543"><ele>388.83333333333337</ele><time>2026-05-02T19:57:05.998Z</time></trkpt><trkpt lat="44.771490115147046" lon="9.938552401835354"><ele>391.0</ele><time>2026-05-02T19:57:06.998Z</time></trkpt><trkpt lat="44.77140492193022" lon="9.938533520356984"><ele>391.00000000000006</ele><time>2026-05-02T19:57:07.998Z</time></trkpt><trkpt lat="44.77131897657655" lon="9.938539051534622"><ele>391.0</ele><time>2026-05-02T19:57:08.998Z</time></trkpt><trkpt lat="44.77123249256059" lon="9.938571775864526"><ele>391.0</ele><time>2026-05-02T19:57:10Z</time></trkpt><trkpt lat="44.77114976218328" lon="9.938604427378717"><ele>391.0</ele><time>2026-05-02T19:57:11Z</time></trkpt><trkpt lat="44.77107153660096" lon="9.938657334036243"><ele>391.00000000000006</ele><time>2026-05-02T19:57:12Z</time></trkpt><trkpt lat="44.770984909337066" lon="9.93865890225928"><ele>391.0</ele><time>2026-05-02T19:57:13Z</time></trkpt><trkpt lat="44.77091120705818" lon="9.938690831894746"><ele>390.83333333333337</ele><time>2026-05-02T19:57:14Z</time></trkpt><trkpt lat="44.77084000596298" lon="9.938676870598636"><ele>390.6666666666667</ele><time>2026-05-02T19:57:15Z</time></trkpt><trkpt lat="44.770770654120675" lon="9.93865080736459"><ele>390.5</ele><time>2026-05-02T19:57:16Z</time></trkpt><trkpt lat="44.770702431253056" lon="9.93860160809395"><ele>390.33333333333337</ele><time>2026-05-02T19:57:17Z</time></trkpt><trkpt lat="44.77063315364815" lon="9.938535762694936"><ele>390.1666666666667</ele><time>2026-05-02T19:57:18Z</time></trkpt><trkpt lat="44.77055909990874" lon="9.938465573749392"><ele>390.0</ele><time>2026-05-02T19:57:19Z</time></trkpt><trkpt lat="44.77048505228335" lon="9.938397840506576"><ele>388.1666666666667</ele><time>2026-05-02T19:57:20Z</time></trkpt><trkpt lat="44.77041443058513" lon="9.938335627077434"><ele>386.3333333333333</ele><time>2026-05-02T19:57:21Z</time></trkpt><trkpt lat="44.77034433162107" lon="9.938272090465171"><ele>384.5</ele><time>2026-05-02T19:57:22Z</time></trkpt><trkpt lat="44.77027508280917" lon="9.938203619726647"><ele>382.66666666666663</ele><time>2026-05-02T19:57:23Z</time></trkpt><trkpt lat="44.77021497297849" lon="9.938122303051115"><ele>380.8333333333333</ele><time>2026-05-02T19:57:24Z</time></trkpt><trkpt lat="44.77017003713335" lon="9.938026673722756"><ele>379.0</ele><time>2026-05-02T19:57:25Z</time></trkpt><trkpt lat="44.77014791482094" lon="9.937925473956408"><ele>379.00000000000006</ele><time>2026-05-02T19:57:26Z</time></trkpt><trkpt lat="44.770159078686746" lon="9.937829811233309"><ele>379.0</ele><time>2026-05-02T19:57:27Z</time></trkpt><trkpt lat="44.770192762392554" lon="9.937740150434736"><ele>379.0</ele><time>2026-05-02T19:57:28Z</time></trkpt><trkpt lat="44.77023920584834" lon="9.937665969448666"><ele>379.0</ele><time>2026-05-02T19:57:29Z</time></trkpt><trkpt lat="44.77029973533627" lon="9.937622788210664"><ele>379.0</ele><time>2026-05-02T19:57:30Z</time></trkpt><trkpt lat="44.770367637358845" lon="9.937614214438524"><ele>379.00000000000006</ele><time>2026-05-02T19:57:31Z</time></trkpt><trkpt lat="44.770433259314736" lon="9.93763205822773"><ele>379.0</ele><time>2026-05-02T19:57:32Z</time></trkpt><trkpt lat="44.770492130617875" lon="9.937676598511743"><ele>379.0</ele><time>2026-05-02T19:57:33Z</time></trkpt><trkpt lat="44.77053774638668" lon="9.937750992786565"><ele>379.0</ele><time>2026-05-02T19:57:34Z</time></trkpt><trkpt lat="44.77057144628477" lon="9.937845565581902"><ele>379.0</ele><time>2026-05-02T19:57:35Z</time></trkpt><trkpt lat="44.77061325355381" lon="9.937931301902315"><ele>379.0</ele><time>2026-05-02T19:57:36Z</time></trkpt><trkpt lat="44.770665849797076" lon="9.938005529910065"><ele>379.0</ele><time>2026-05-02T19:57:37Z</time></trkpt><trkpt lat="44.77073401300758" lon="9.93805834825785"><ele>379.0</ele><time>2026-05-02T19:57:38Z</time></trkpt><trkpt lat="44.7708133617217" lon="9.93807793710423"><ele>379.0</ele><time>2026-05-02T19:57:39Z</time></trkpt><trkpt lat="44.770889265708064" lon="9.938055504246684"><ele>379.0</ele><time>2026-05-02T19:57:40Z</time></trkpt><trkpt lat="44.77095426051158" lon="9.937993289900376"><ele>379.0</ele><time>2026-05-02T19:57:41Z</time></trkpt><trkpt lat="44.7710078156922" lon="9.93791653128021"><ele>379.0</ele><time>2026-05-02T19:57:42Z</time></trkpt><trkpt lat="44.77106374463151" lon="9.937843231273991"><ele>379.0</ele><time>2026-05-02T19:57:43Z</time></trkpt><trkpt lat="44.7711228010623" lon="9.9377703177546"><ele>379.0</ele><time>2026-05-02T19:57:44Z</time></trkpt><trkpt lat="44.77118741257878" lon="9.937703578463761"><ele>378.8333333333333</ele><time>2026-05-02T19:57:45Z</time></trkpt><trkpt lat="44.7712559692245" lon="9.937655491140456"><ele>378.66666666666663</ele><time>2026-05-02T19:57:46Z</time></trkpt><trkpt lat="44.77133189356161" lon="9.937632321977137"><ele>378.5</ele><time>2026-05-02T19:57:47Z</time></trkpt><trkpt lat="44.771412064602586" lon="9.93763193096489"><ele>378.3333333333333</ele><time>2026-05-02T19:57:48Z</time></trkpt><trkpt lat="44.77149228973544" lon="9.937659012670949"><ele>378.1666666666667</ele><time>2026-05-02T19:57:49Z</time></trkpt><trkpt lat="44.771564213287704" lon="9.937697180450812"><ele>378.0</ele><time>2026-05-02T19:57:50Z</time></trkpt><trkpt lat="44.771669745847255" lon="9.937695537052473"><ele>378.0</ele><time>2026-05-02T19:57:51.999Z</time></trkpt><trkpt lat="44.771719179109326" lon="9.937576127968494"><ele>378.0</ele><time>2026-05-02T19:57:53.999Z</time></trkpt><trkpt lat="44.77167987563309" lon="9.937483453547408"><ele>378.0</ele><time>2026-05-02T19:57:54.999Z</time></trkpt><trkpt lat="44.77160926080763" lon="9.937437961008413"><ele>378.0</ele><time>2026-05-02T19:57:55.999Z</time></trkpt><trkpt lat="44.77154331270836" lon="9.93741948987856"><ele>378.0</ele><time>2026-05-02T19:57:56.999Z</time></trkpt><trkpt lat="44.77142284298913" lon="9.937388816694181"><ele>378.0</ele><time>2026-05-02T19:57:58.999Z</time></trkpt><trkpt lat="44.77135753740573" lon="9.937371114355788"><ele>375.0</ele><time>2026-05-02T19:57:59.999Z</time></trkpt><trkpt lat="44.77128942636595" lon="9.9373526515349"><ele>372.0</ele><time>2026-05-02T19:58:00.999Z</time></trkpt><trkpt lat="44.771222401152734" lon="9.93733364247209"><ele>369.0</ele><time>2026-05-02T19:58:01.999Z</time></trkpt><trkpt lat="44.77112676847602" lon="9.937283789919702"><ele>366.0</ele><time>2026-05-02T19:58:03.999Z</time></trkpt><trkpt lat="44.771149657483306" lon="9.93714243875018"><ele>363.0</ele><time>2026-05-02T19:58:05.999Z</time></trkpt><trkpt lat="44.77121640449278" lon="9.937118325519364"><ele>360.0</ele><time>2026-05-02T19:58:06.999Z</time></trkpt><trkpt lat="44.77129055822378" lon="9.937146893488832"><ele>360.0</ele><time>2026-05-02T19:58:07.999Z</time></trkpt><trkpt lat="44.771360384131704" lon="9.93717719542619"><ele>360.0</ele><time>2026-05-02T19:58:08.999Z</time></trkpt><trkpt lat="44.77143268430086" lon="9.937198328079331"><ele>360.0</ele><time>2026-05-02T19:58:09.999Z</time></trkpt><trkpt lat="44.771511663683356" lon="9.937217100308779"><ele>360.0</ele><time>2026-05-02T19:58:10.999Z</time></trkpt><trkpt lat="44.77158881823587" lon="9.937233441911342"><ele>360.0</ele><time>2026-05-02T19:58:11.999Z</time></trkpt><trkpt lat="44.771665807101485" lon="9.937259325133502"><ele>360.0</ele><time>2026-05-02T19:58:12.999Z</time></trkpt><trkpt lat="44.77174446509986" lon="9.937282794378683"><ele>360.0</ele><time>2026-05-02T19:58:13.999Z</time></trkpt><trkpt lat="44.77182284011354" lon="9.937301629826718"><ele>360.0</ele><time>2026-05-02T19:58:14.999Z</time></trkpt><trkpt lat="44.771902199436454" lon="9.937324706639519"><ele>360.0</ele><time>2026-05-02T19:58:15.999Z</time></trkpt><trkpt lat="44.77198389230157" lon="9.937349362351117"><ele>360.0</ele><time>2026-05-02T19:58:16.999Z</time></trkpt><trkpt lat="44.77206497887473" lon="9.93737942719864"><ele>360.0</ele><time>2026-05-02T19:58:17.999Z</time></trkpt><trkpt lat="44.77214668829261" lon="9.937405019610436"><ele>360.0</ele><time>2026-05-02T19:58:18.999Z</time></trkpt><trkpt lat="44.77222615109217" lon="9.937431183616951"><ele>361.1666666666667</ele><time>2026-05-02T19:58:19.999Z</time></trkpt><trkpt lat="44.77230403090594" lon="9.937464351055945"><ele>362.3333333333333</ele><time>2026-05-02T19:58:20.999Z</time></trkpt><trkpt lat="44.7723808556608" lon="9.937497173362589"><ele>363.5</ele><time>2026-05-02T19:58:21.999Z</time></trkpt><trkpt lat="44.7724579232679" lon="9.937528899359943"><ele>364.66666666666663</ele><time>2026-05-02T19:58:22.999Z</time></trkpt><trkpt lat="44.77253265996932" lon="9.937568871494804"><ele>365.8333333333333</ele><time>2026-05-02T19:58:23.999Z</time></trkpt><trkpt lat="44.772605800281234" lon="9.937608397147644"><ele>367.0</ele><time>2026-05-02T19:58:24.999Z</time></trkpt><trkpt lat="44.772677692832" lon="9.93764614484131"><ele>362.0</ele><time>2026-05-02T19:58:25.999Z</time></trkpt><trkpt lat="44.772742736130034" lon="9.937669575061971"><ele>357.0</ele><time>2026-05-02T19:58:26.999Z</time></trkpt><trkpt lat="44.77285535101143" lon="9.937634547988814"><ele>352.0</ele><time>2026-05-02T19:58:28.999Z</time></trkpt><trkpt lat="44.77286471131855" lon="9.937480692490656"><ele>347.0</ele><time>2026-05-02T19:58:30.999Z</time></trkpt><trkpt lat="44.77283077982545" lon="9.937394592574941"><ele>342.0</ele><time>2026-05-02T19:58:31.999Z</time></trkpt><trkpt lat="44.77275725706142" lon="9.93736255269819"><ele>337.0</ele><time>2026-05-02T19:58:32.999Z</time></trkpt><trkpt lat="44.772701788486096" lon="9.937318452773214"><ele>336.8333333333333</ele><time>2026-05-02T19:58:33.999Z</time></trkpt><trkpt lat="44.77264465930996" lon="9.937266939893131"><ele>336.66666666666663</ele><time>2026-05-02T19:58:34.999Z</time></trkpt><trkpt lat="44.772588415456575" lon="9.93721295487213"><ele>336.5</ele><time>2026-05-02T19:58:35.999Z</time></trkpt><trkpt lat="44.77254497972517" lon="9.937070739941586"><ele>336.3333333333333</ele><time>2026-05-02T19:58:37.999Z</time></trkpt><trkpt lat="44.772631892880504" lon="9.936956930405987"><ele>336.1666666666667</ele><time>2026-05-02T19:58:39.999Z</time></trkpt><trkpt lat="44.772696780908326" lon="9.936972484064949"><ele>336.0</ele><time>2026-05-02T19:58:40.999Z</time></trkpt><trkpt lat="44.77275830567644" lon="9.93701969263751"><ele>336.0</ele><time>2026-05-02T19:58:41.999Z</time></trkpt><trkpt lat="44.77282206277423" lon="9.937062726445847"><ele>336.0</ele><time>2026-05-02T19:58:42.999Z</time></trkpt><trkpt lat="44.77289318591677" lon="9.937105911789574"><ele>336.0</ele><time>2026-05-02T19:58:43.999Z</time></trkpt><trkpt lat="44.77296400193224" lon="9.93715157458787"><ele>336.0</ele><time>2026-05-02T19:58:44.999Z</time></trkpt><trkpt lat="44.7730260416999" lon="9.937193601"><ele>336.0</ele><time>2026-05-02T19:58:45.999Z</time></trkpt><trkpt lat="44.7731259334649" lon="9.937265994000665"><ele>336.0</ele><time>2026-05-02T19:58:47.999Z</time></trkpt><trkpt lat="44.77317885374544" lon="9.937336686526113"><ele>336.0</ele><time>2026-05-02T19:58:49.999Z</time></trkpt><trkpt lat="44.77322947399592" lon="9.93739012661038"><ele>336.0</ele><time>2026-05-02T19:59:20Z</time></trkpt><trkpt lat="44.77328753549648" lon="9.937332962011517"><ele>336.0</ele><time>2026-05-02T20:11:40.998Z</time></trkpt><trkpt lat="44.77335759195432" lon="9.93737674646017"><ele>336.0</ele><time>2026-05-02T20:11:42.998Z</time></trkpt><trkpt lat="44.77342483237412" lon="9.937427384164083"><ele>336.0</ele><time>2026-05-02T20:11:44.998Z</time></trkpt><trkpt lat="44.77349699772483" lon="9.937467404322518"><ele>336.0</ele><time>2026-05-02T20:11:46.998Z</time></trkpt><trkpt lat="44.7735665979013" lon="9.937512218725924"><ele>336.0</ele><time>2026-05-02T20:11:49Z</time></trkpt><trkpt lat="44.77363230256762" lon="9.937558053743457"><ele>335.85714285714283</ele><time>2026-05-02T20:11:51Z</time></trkpt><trkpt lat="44.77369310554143" lon="9.937596985645822"><ele>335.7142857142857</ele><time>2026-05-02T20:11:53Z</time></trkpt><trkpt lat="44.77376368228924" lon="9.937654783191242"><ele>335.57142857142856</ele><time>2026-05-02T20:11:56Z</time></trkpt><trkpt lat="44.77383499671467" lon="9.937665613715907"><ele>335.42857142857144</ele><time>2026-05-02T20:11:59Z</time></trkpt><trkpt lat="44.77378581822369" lon="9.937580819785305"><ele>335.2857142857143</ele><time>2026-05-02T20:12:04Z</time></trkpt><trkpt lat="44.77371171907152" lon="9.93754073953868"><ele>335.1428571428571</ele><time>2026-05-02T20:12:07Z</time></trkpt><trkpt lat="44.77365181793872" lon="9.937498688574502"><ele>335.0</ele><time>2026-05-02T20:12:09Z</time></trkpt><trkpt lat="44.773591159423624" lon="9.93745935235735"><ele>335.0</ele><time>2026-05-02T20:12:11Z</time></trkpt><trkpt lat="44.77353129513199" lon="9.937423180914344"><ele>335.0</ele><time>2026-05-02T20:12:13Z</time></trkpt><trkpt lat="44.77346994479134" lon="9.93738443986124"><ele>335.0</ele><time>2026-05-02T20:12:15Z</time></trkpt><trkpt lat="44.77341024619302" lon="9.937346409934975"><ele>335.0</ele><time>2026-05-02T20:12:17Z</time></trkpt><trkpt lat="44.77332370902519" lon="9.937296893557482"><ele>335.0</ele><time>2026-05-02T20:12:20Z</time></trkpt><trkpt lat="44.773243604944945" lon="9.937256440198945"><ele>335.0</ele><time>2026-05-02T20:12:22.999Z</time></trkpt><trkpt lat="44.773175171913216" lon="9.937212279642603"><ele>335.1666666666667</ele><time>2026-05-02T20:12:25.999Z</time></trkpt><trkpt lat="44.77310624206398" lon="9.937172997008053"><ele>335.33333333333337</ele><time>2026-05-02T20:12:28.999Z</time></trkpt><trkpt lat="44.77304355123568" lon="9.93713340442531"><ele>335.5</ele><time>2026-05-02T20:12:31.999Z</time></trkpt><trkpt lat="44.77297039768742" lon="9.937088438438538"><ele>335.6666666666667</ele><time>2026-05-02T20:12:35.999Z</time></trkpt><trkpt lat="44.7728948136493" lon="9.937046338488862"><ele>335.8333333333333</ele><time>2026-05-02T20:12:39.999Z</time></trkpt><trkpt lat="44.772826096407556" lon="9.937003772442797"><ele>336.0</ele><time>2026-05-02T20:12:42.999Z</time></trkpt><trkpt lat="44.7727598480134" lon="9.936961214743487"><ele>336.0</ele><time>2026-05-02T20:12:45.999Z</time></trkpt><trkpt lat="44.77269645148307" lon="9.936934213366804"><ele>336.0</ele><time>2026-05-02T20:12:49.999Z</time></trkpt><trkpt lat="44.77263212498028" lon="9.936923974756477"><ele>336.0</ele><time>2026-05-02T20:12:52.999Z</time></trkpt><trkpt lat="44.77255694943674" lon="9.936975007899129"><ele>336.0</ele><time>2026-05-02T20:12:56.999Z</time></trkpt><trkpt lat="44.77254029362233" lon="9.937084379435825"><ele>336.0</ele><time>2026-05-02T20:13:00.999Z</time></trkpt><trkpt lat="44.77257115811704" lon="9.937191441762744"><ele>336.0</ele><time>2026-05-02T20:13:03.999Z</time></trkpt><trkpt lat="44.772625763485266" lon="9.937281248278039"><ele>336.0</ele><time>2026-05-02T20:13:07.999Z</time></trkpt><trkpt lat="44.77269044738524" lon="9.937347614398966"><ele>336.0</ele><time>2026-05-02T20:13:10.999Z</time></trkpt><trkpt lat="44.77275435719798" lon="9.937410137688634"><ele>336.0</ele><time>2026-05-02T20:13:13.999Z</time></trkpt><trkpt lat="44.7728075076303" lon="9.93746720792726"><ele>336.0</ele><time>2026-05-02T20:13:16.999Z</time></trkpt><trkpt lat="44.77283289778232" lon="9.937578294201083"><ele>336.0</ele><time>2026-05-02T20:13:20.999Z</time></trkpt><trkpt lat="44.77277795280655" lon="9.93762933383273"><ele>336.0</ele><time>2026-05-02T20:13:24.999Z</time></trkpt><trkpt lat="44.77270060000958" lon="9.9375988247956"><ele>338.14285714285717</ele><time>2026-05-02T20:13:28.999Z</time></trkpt><trkpt lat="44.77263581062351" lon="9.937558754474269"><ele>340.2857142857143</ele><time>2026-05-02T20:13:32.998Z</time></trkpt><trkpt lat="44.772571176788084" lon="9.937531995909355"><ele>342.42857142857144</ele><time>2026-05-02T20:13:35.998Z</time></trkpt><trkpt lat="44.77250054893962" lon="9.937494729055492"><ele>344.57142857142856</ele><time>2026-05-02T20:13:39.998Z</time></trkpt><trkpt lat="44.77243850869363" lon="9.937459686886868"><ele>346.7142857142857</ele><time>2026-05-02T20:13:42.998Z</time></trkpt><trkpt lat="44.77236427777377" lon="9.937434126621651"><ele>348.8571428571429</ele><time>2026-05-02T20:13:45.998Z</time></trkpt><trkpt lat="44.772299747427205" lon="9.937404215526207"><ele>351.0</ele><time>2026-05-02T20:13:49.998Z</time></trkpt><trkpt lat="44.77223893361212" lon="9.93737422566919"><ele>351.00000000000006</ele><time>2026-05-02T20:13:51.998Z</time></trkpt><trkpt lat="44.77215832947333" lon="9.937347601336361"><ele>351.0</ele><time>2026-05-02T20:13:56Z</time></trkpt><trkpt lat="44.77209187406262" lon="9.937320911482464"><ele>351.0</ele><time>2026-05-02T20:13:59Z</time></trkpt><trkpt lat="44.772024665726065" lon="9.937303257215598"><ele>351.0</ele><time>2026-05-02T20:14:02Z</time></trkpt><trkpt lat="44.771959759902494" lon="9.93728034676474"><ele>351.0</ele><time>2026-05-02T20:14:05Z</time></trkpt><trkpt lat="44.77189755708226" lon="9.937258948470596"><ele>351.00000000000006</ele><time>2026-05-02T20:14:08Z</time></trkpt><trkpt lat="44.77182617424315" lon="9.937239913842307"><ele>351.0</ele><time>2026-05-02T20:14:12Z</time></trkpt><trkpt lat="44.77176176043961" lon="9.937221760797518"><ele>352.28571428571433</ele><time>2026-05-02T20:14:15Z</time></trkpt><trkpt lat="44.77168679577859" lon="9.937202375293369"><ele>353.57142857142856</ele><time>2026-05-02T20:14:18Z</time></trkpt><trkpt lat="44.771614262396895" lon="9.937183280589696"><ele>354.8571428571429</ele><time>2026-05-02T20:14:22Z</time></trkpt><trkpt lat="44.7715500223027" lon="9.937163361973987"><ele>356.14285714285717</ele><time>2026-05-02T20:14:25Z</time></trkpt><trkpt lat="44.771483559473914" lon="9.937145238932121"><ele>357.42857142857144</ele><time>2026-05-02T20:14:28Z</time></trkpt><trkpt lat="44.771410607260805" lon="9.937123373356114"><ele>358.7142857142857</ele><time>2026-05-02T20:14:31Z</time></trkpt><trkpt lat="44.77133753375014" lon="9.937102094361927"><ele>360.0</ele><time>2026-05-02T20:14:35Z</time></trkpt><trkpt lat="44.77127411667364" lon="9.937092652825337"><ele>360.0</ele><time>2026-05-02T20:14:37.999Z</time></trkpt><trkpt lat="44.77120457366717" lon="9.937099818165017"><ele>360.0</ele><time>2026-05-02T20:14:40.999Z</time></trkpt><trkpt lat="44.77113745778306" lon="9.937151908572158"><ele>360.0</ele><time>2026-05-02T20:14:44.999Z</time></trkpt><trkpt lat="44.77111365317133" lon="9.937237725535523"><ele>360.0</ele><time>2026-05-02T20:14:47.999Z</time></trkpt><trkpt lat="44.77114741556169" lon="9.937328726982845"><ele>360.0</ele><time>2026-05-02T20:14:50.999Z</time></trkpt><trkpt lat="44.77121799674691" lon="9.937383499231451"><ele>360.0</ele><time>2026-05-02T20:14:54.999Z</time></trkpt><trkpt lat="44.7712853180511" lon="9.937410748908801"><ele>360.0</ele><time>2026-05-02T20:14:57.999Z</time></trkpt><trkpt lat="44.771357791135905" lon="9.937429836540705"><ele>360.0</ele><time>2026-05-02T20:15:00.999Z</time></trkpt><trkpt lat="44.771435555369195" lon="9.9374503726272"><ele>360.0</ele><time>2026-05-02T20:15:04.999Z</time></trkpt><trkpt lat="44.77150843051337" lon="9.937479404514859"><ele>360.0</ele><time>2026-05-02T20:15:07.999Z</time></trkpt><trkpt lat="44.77158293010357" lon="9.937509282580427"><ele>360.0</ele><time>2026-05-02T20:15:10.999Z</time></trkpt><trkpt lat="44.77164836955808" lon="9.93755340698279"><ele>360.0</ele><time>2026-05-02T20:15:13.999Z</time></trkpt><trkpt lat="44.771665403975575" lon="9.937649425500116"><ele>360.0</ele><time>2026-05-02T20:15:17.999Z</time></trkpt><trkpt lat="44.771595955847914" lon="9.937668760617333"><ele>360.0</ele><time>2026-05-02T20:15:20.999Z</time></trkpt><trkpt lat="44.77153214999615" lon="9.937629288933605"><ele>362.57142857142856</ele><time>2026-05-02T20:15:24.999Z</time></trkpt><trkpt lat="44.77146890875139" lon="9.937609255918016"><ele>365.14285714285717</ele><time>2026-05-02T20:15:27.999Z</time></trkpt><trkpt lat="44.771403782152724" lon="9.937595744120406"><ele>367.7142857142857</ele><time>2026-05-02T20:15:30.999Z</time></trkpt><trkpt lat="44.77133176919565" lon="9.937598777235388"><ele>370.2857142857143</ele><time>2026-05-02T20:15:33.999Z</time></trkpt><trkpt lat="44.77125518631616" lon="9.937627820848057"><ele>372.8571428571429</ele><time>2026-05-02T20:15:36.999Z</time></trkpt><trkpt lat="44.77118473519618" lon="9.937677729329677"><ele>375.42857142857144</ele><time>2026-05-02T20:15:40.998Z</time></trkpt><trkpt lat="44.77111718668374" lon="9.937754650703818"><ele>378.0</ele><time>2026-05-02T20:15:43.998Z</time></trkpt><trkpt lat="44.77106094382359" lon="9.937823612455917"><ele>378.14285714285717</ele><time>2026-05-02T20:15:47.998Z</time></trkpt><trkpt lat="44.77100848494477" lon="9.937891026260044"><ele>378.2857142857143</ele><time>2026-05-02T20:15:50.998Z</time></trkpt><trkpt lat="44.770947906515275" lon="9.93795843868799"><ele>378.42857142857144</ele><time>2026-05-02T20:15:53.998Z</time></trkpt><trkpt lat="44.77086641170567" lon="9.938016621032292"><ele>378.57142857142856</ele><time>2026-05-02T20:15:56.998Z</time></trkpt><trkpt lat="44.77079462141912" lon="9.938020014318889"><ele>378.7142857142857</ele><time>2026-05-02T20:15:59.998Z</time></trkpt><trkpt lat="44.77073138921339" lon="9.9379852936003"><ele>378.8571428571429</ele><time>2026-05-02T20:16:03Z</time></trkpt><trkpt lat="44.770678715902754" lon="9.93793285701545"><ele>379.0</ele><time>2026-05-02T20:16:06Z</time></trkpt><trkpt lat="44.77063760152333" lon="9.937861387838998"><ele>379.00000000000006</ele><time>2026-05-02T20:16:09Z</time></trkpt><trkpt lat="44.77060259720821" lon="9.93777646808844"><ele>379.0</ele><time>2026-05-02T20:16:12Z</time></trkpt><trkpt lat="44.77056616326398" lon="9.93768792302588"><ele>379.0</ele><time>2026-05-02T20:16:15Z</time></trkpt><trkpt lat="44.77051269863309" lon="9.937613328942168"><ele>379.0</ele><time>2026-05-02T20:16:18Z</time></trkpt><trkpt lat="44.77044916591516" lon="9.937582637875746"><ele>379.0</ele><time>2026-05-02T20:16:21Z</time></trkpt><trkpt lat="44.770373366726574" lon="9.93757400899236"><ele>379.00000000000006</ele><time>2026-05-02T20:16:24Z</time></trkpt><trkpt lat="44.77029471696044" lon="9.937598384118802"><ele>379.0</ele><time>2026-05-02T20:16:27Z</time></trkpt><trkpt lat="44.77023424066157" lon="9.937643496904752"><ele>379.0</ele><time>2026-05-02T20:16:29Z</time></trkpt><trkpt lat="44.770176681444866" lon="9.937725884939999"><ele>379.0</ele><time>2026-05-02T20:16:32Z</time></trkpt><trkpt lat="44.770149511714614" lon="9.937810223041359"><ele>379.0</ele><time>2026-05-02T20:16:34Z</time></trkpt><trkpt lat="44.770139032718895" lon="9.937922661219364"><ele>379.0</ele><time>2026-05-02T20:16:37Z</time></trkpt><trkpt lat="44.77015313888313" lon="9.938046803622095"><ele>379.0</ele><time>2026-05-02T20:16:39Z</time></trkpt><trkpt lat="44.770196959547505" lon="9.938136180577894"><ele>379.0</ele><time>2026-05-02T20:16:41.999Z</time></trkpt><trkpt lat="44.770251533876184" lon="9.938210828687327"><ele>379.0</ele><time>2026-05-02T20:16:44.999Z</time></trkpt><trkpt lat="44.77032957318549" lon="9.938300503963356"><ele>379.0</ele><time>2026-05-02T20:16:47.999Z</time></trkpt><trkpt lat="44.77039001976394" lon="9.938360436797737"><ele>379.0</ele><time>2026-05-02T20:16:50.999Z</time></trkpt><trkpt lat="44.77046028831589" lon="9.938431017888918"><ele>379.0</ele><time>2026-05-02T20:16:54.999Z</time></trkpt><trkpt lat="44.77051628325415" lon="9.938486359706918"><ele>379.0</ele><time>2026-05-02T20:16:57.999Z</time></trkpt><trkpt lat="44.77059373563463" lon="9.938565392472237"><ele>379.0</ele><time>2026-05-02T20:17:00.999Z</time></trkpt><trkpt lat="44.77064557593065" lon="9.938618226761896"><ele>380.5714285714286</ele><time>2026-05-02T20:17:03.999Z</time></trkpt><trkpt lat="44.77071151325128" lon="9.938675625293147"><ele>382.14285714285717</ele><time>2026-05-02T20:17:07.999Z</time></trkpt><trkpt lat="44.770774518025384" lon="9.93873337655557"><ele>383.7142857142857</ele><time>2026-05-02T20:17:11.999Z</time></trkpt><trkpt lat="44.77085784351036" lon="9.938750651150391"><ele>385.28571428571433</ele><time>2026-05-02T20:17:14.999Z</time></trkpt><trkpt lat="44.77093615442836" lon="9.938743408387761"><ele>386.85714285714283</ele><time>2026-05-02T20:17:17.999Z</time></trkpt><trkpt lat="44.77100297958847" lon="9.938737031786196"><ele>388.42857142857144</ele><time>2026-05-02T20:17:20.999Z</time></trkpt><trkpt lat="44.77106858405822" lon="9.938718016080847"><ele>390.0</ele><time>2026-05-02T20:17:23.999Z</time></trkpt><trkpt lat="44.77113440466834" lon="9.938695324457097"><ele>390.1428571428571</ele><time>2026-05-02T20:17:26.999Z</time></trkpt><trkpt lat="44.77121595770002" lon="9.938665635604854"><ele>390.2857142857143</ele><time>2026-05-02T20:17:30.999Z</time></trkpt><trkpt lat="44.77128388731934" lon="9.938643603686053"><ele>390.42857142857144</ele><time>2026-05-02T20:17:33.999Z</time></trkpt><trkpt lat="44.77135116191267" lon="9.93863136681789"><ele>390.57142857142856</ele><time>2026-05-02T20:17:36.999Z</time></trkpt><trkpt lat="44.77142264637457" lon="9.938639439418699"><ele>390.7142857142857</ele><time>2026-05-02T20:17:39.999Z</time></trkpt><trkpt lat="44.771486587463365" lon="9.938658445658534"><ele>390.85714285714283</ele><time>2026-05-02T20:17:42.998Z</time></trkpt><trkpt lat="44.77154350657678" lon="9.938699088195467"><ele>391.0</ele><time>2026-05-02T20:17:45.998Z</time></trkpt><trkpt lat="44.77159458936579" lon="9.938758124136532"><ele>390.99999999999994</ele><time>2026-05-02T20:17:48.998Z</time></trkpt><trkpt lat="44.77164078943955" lon="9.938825344977223"><ele>391.0</ele><time>2026-05-02T20:17:51.998Z</time></trkpt><trkpt lat="44.771681544049315" lon="9.93890538838047"><ele>391.0</ele><time>2026-05-02T20:17:54.998Z</time></trkpt><trkpt lat="44.77171979346163" lon="9.938999433555738"><ele>391.0</ele><time>2026-05-02T20:17:57.998Z</time></trkpt><trkpt lat="44.771736967910975" lon="9.939097622589882"><ele>391.0</ele><time>2026-05-02T20:18:01.998Z</time></trkpt><trkpt lat="44.771748448792195" lon="9.93919290514404"><ele>390.99999999999994</ele><time>2026-05-02T20:18:04.998Z</time></trkpt><trkpt lat="44.77174656883345" lon="9.939286192237818"><ele>391.0</ele><time>2026-05-02T20:18:08Z</time></trkpt><trkpt lat="44.771730083363316" lon="9.939378968405753"><ele>388.83333333333337</ele><time>2026-05-02T20:18:11Z</time></trkpt><trkpt lat="44.771700579137224" lon="9.939468238237664"><ele>386.6666666666667</ele><time>2026-05-02T20:18:14Z</time></trkpt><trkpt lat="44.77165683111465" lon="9.939555146503388"><ele>384.5</ele><time>2026-05-02T20:18:18Z</time></trkpt><trkpt lat="44.771591859379406" lon="9.939628475862161"><ele>382.33333333333337</ele><time>2026-05-02T20:18:22Z</time></trkpt><trkpt lat="44.77151545668144" lon="9.939673521464746"><ele>380.1666666666667</ele><time>2026-05-02T20:18:26Z</time></trkpt><trkpt lat="44.771443015850934" lon="9.939709474764967"><ele>378.0</ele><time>2026-05-02T20:18:29Z</time></trkpt><trkpt lat="44.77138084927312" lon="9.939748205329806"><ele>378.0</ele><time>2026-05-02T20:18:33Z</time></trkpt><trkpt lat="44.7713147625405" lon="9.93978359676602"><ele>378.0</ele><time>2026-05-02T20:18:36Z</time></trkpt><trkpt lat="44.7712465872215" lon="9.939820471230584"><ele>378.0</ele><time>2026-05-02T20:18:39Z</time></trkpt><trkpt lat="44.771178516298455" lon="9.939863276355561"><ele>378.0</ele><time>2026-05-02T20:18:42.999Z</time></trkpt><trkpt lat="44.77112275854014" lon="9.939906336921831"><ele>378.0</ele><time>2026-05-02T20:18:45.999Z</time></trkpt><trkpt lat="44.7710558512519" lon="9.939945320280355"><ele>378.0</ele><time>2026-05-02T20:18:48.999Z</time></trkpt><trkpt lat="44.77098781008879" lon="9.940006441295187"><ele>378.0</ele><time>2026-05-02T20:18:52.999Z</time></trkpt><trkpt lat="44.770928738244194" lon="9.94005698811448"><ele>380.5</ele><time>2026-05-02T20:18:55.999Z</time></trkpt><trkpt lat="44.770865143429596" lon="9.940110213983072"><ele>383.0</ele><time>2026-05-02T20:18:58.999Z</time></trkpt><trkpt lat="44.77080347587482" lon="9.940161373308957"><ele>385.5</ele><time>2026-05-02T20:19:02.999Z</time></trkpt><trkpt lat="44.77072621518313" lon="9.94021039578382"><ele>388.0</ele><time>2026-05-02T20:19:06.999Z</time></trkpt><trkpt lat="44.77065372161305" lon="9.940251953493592"><ele>390.5</ele><time>2026-05-02T20:19:10.999Z</time></trkpt><trkpt lat="44.77057514190477" lon="9.940283807999185"><ele>393.0</ele><time>2026-05-02T20:19:14.999Z</time></trkpt><trkpt lat="44.77049598453638" lon="9.940308474556867"><ele>393.00000000000006</ele><time>2026-05-02T20:19:18.999Z</time></trkpt><trkpt lat="44.770423598138485" lon="9.940330106367943"><ele>393.0</ele><time>2026-05-02T20:19:21.999Z</time></trkpt><trkpt lat="44.77035639589531" lon="9.940376729709344"><ele>393.0</ele><time>2026-05-02T20:19:25.999Z</time></trkpt><trkpt lat="44.77030070359722" lon="9.94042338517848"><ele>393.0</ele><time>2026-05-02T20:19:28.999Z</time></trkpt><trkpt lat="44.77024367195587" lon="9.940503663011592"><ele>393.0</ele><time>2026-05-02T20:19:32.999Z</time></trkpt><trkpt lat="44.77020415151013" lon="9.940578604455842"><ele>393.00000000000006</ele><time>2026-05-02T20:19:35.999Z</time></trkpt><trkpt lat="44.77016892741392" lon="9.940657530354724"><ele>393.0</ele><time>2026-05-02T20:19:38.998Z</time></trkpt><trkpt lat="44.770135265867545" lon="9.94073566544061"><ele>395.00000000000006</ele><time>2026-05-02T20:19:41.998Z</time></trkpt><trkpt lat="44.77010251254021" lon="9.940815295598222"><ele>397.0</ele><time>2026-05-02T20:19:44.998Z</time></trkpt><trkpt lat="44.770070923586864" lon="9.940895621934322"><ele>399.0</ele><time>2026-05-02T20:19:47.998Z</time></trkpt><trkpt lat="44.770040091746004" lon="9.940976340761845"><ele>401.0</ele><time>2026-05-02T20:19:50.998Z</time></trkpt><trkpt lat="44.77001036117954" lon="9.941058377054436"><ele>403.0</ele><time>2026-05-02T20:19:53.998Z</time></trkpt><trkpt lat="44.76997796085115" lon="9.941139079939706"><ele>405.00000000000006</ele><time>2026-05-02T20:19:56.998Z</time></trkpt><trkpt lat="44.76994264299672" lon="9.94122098819031"><ele>407.0</ele><time>2026-05-02T20:19:59.998Z</time></trkpt><trkpt lat="44.76990465034377" lon="9.941297860898182"><ele>407.7142857142857</ele><time>2026-05-02T20:20:02.998Z</time></trkpt><trkpt lat="44.769862669241476" lon="9.941372617033775"><ele>408.42857142857144</ele><time>2026-05-02T20:20:05.998Z</time></trkpt><trkpt lat="44.769816610357495" lon="9.94144151859642"><ele>409.1428571428571</ele><time>2026-05-02T20:20:08.998Z</time></trkpt><trkpt lat="44.769766518681855" lon="9.941503748324623"><ele>409.8571428571429</ele><time>2026-05-02T20:20:11.998Z</time></trkpt><trkpt lat="44.76971365643717" lon="9.941561300632495"><ele>410.57142857142856</ele><time>2026-05-02T20:20:15Z</time></trkpt><trkpt lat="44.76965993210883" lon="9.941609668005155"><ele>411.2857142857143</ele><time>2026-05-02T20:20:18Z</time></trkpt><trkpt lat="44.76960201026182" lon="9.94165124474378"><ele>412.0</ele><time>2026-05-02T20:20:21Z</time></trkpt><trkpt lat="44.769537368784896" lon="9.941685967062362"><ele>411.99999999999994</ele><time>2026-05-02T20:20:24Z</time></trkpt><trkpt lat="44.76946917361828" lon="9.941709795830182"><ele>412.0</ele><time>2026-05-02T20:20:27Z</time></trkpt><trkpt lat="44.76939848680247" lon="9.941724127427296"><ele>412.0</ele><time>2026-05-02T20:20:30Z</time></trkpt><trkpt lat="44.769329791928755" lon="9.94172445428019"><ele>412.0</ele><time>2026-05-02T20:20:33Z</time></trkpt><trkpt lat="44.76925973064539" lon="9.94172621368173"><ele>412.0</ele><time>2026-05-02T20:20:36Z</time></trkpt><trkpt lat="44.769190363446405" lon="9.941714110280728"><ele>411.99999999999994</ele><time>2026-05-02T20:20:39Z</time></trkpt><trkpt lat="44.76912283424475" lon="9.941694233955625"><ele>412.0</ele><time>2026-05-02T20:20:41.999Z</time></trkpt><trkpt lat="44.76905586760519" lon="9.941671239086215"><ele>412.4285714285714</ele><time>2026-05-02T20:20:44.999Z</time></trkpt><trkpt lat="44.768981591893244" lon="9.941636866115163"><ele>412.85714285714283</ele><time>2026-05-02T20:20:47.999Z</time></trkpt><trkpt lat="44.768913271945834" lon="9.941601907477896"><ele>413.2857142857143</ele><time>2026-05-02T20:20:50.999Z</time></trkpt><trkpt lat="44.76885511321887" lon="9.941559488369839"><ele>413.71428571428567</ele><time>2026-05-02T20:20:53.999Z</time></trkpt><trkpt lat="44.768798187415776" lon="9.941513937546942"><ele>414.14285714285717</ele><time>2026-05-02T20:20:57Z</time></trkpt><trkpt lat="44.76873948868911" lon="9.941459006950316"><ele>414.57142857142856</ele><time>2026-05-02T20:21:00Z</time></trkpt><trkpt lat="44.76868988487161" lon="9.941392980443219"><ele>415.0</ele><time>2026-05-02T20:21:03Z</time></trkpt><trkpt lat="44.768651217740775" lon="9.941307422438866"><ele>415.0</ele><time>2026-05-02T20:21:06Z</time></trkpt><trkpt lat="44.76862596023268" lon="9.94121010018711"><ele>415.0</ele><time>2026-05-02T20:21:09Z</time></trkpt><trkpt lat="44.768604784767426" lon="9.941115062482115"><ele>415.0</ele><time>2026-05-02T20:21:12Z</time></trkpt><trkpt lat="44.768585389225336" lon="9.941019682820674"><ele>415.0</ele><time>2026-05-02T20:21:15Z</time></trkpt><trkpt lat="44.76856375345935" lon="9.940930994673703"><ele>415.0</ele><time>2026-05-02T20:21:18Z</time></trkpt><trkpt lat="44.768538049251546" lon="9.940841490802416"><ele>415.0</ele><time>2026-05-02T20:21:21Z</time></trkpt><trkpt lat="44.76850608971735" lon="9.940758064891835"><ele>415.0</ele><time>2026-05-02T20:21:24Z</time></trkpt><trkpt lat="44.768453461420485" lon="9.940666869075145"><ele>416.42857142857144</ele><time>2026-05-02T20:21:28Z</time></trkpt><trkpt lat="44.768410665685096" lon="9.940598126207465"><ele>417.8571428571429</ele><time>2026-05-02T20:21:31Z</time></trkpt><trkpt lat="44.76835616958117" lon="9.940544909506166"><ele>419.2857142857143</ele><time>2026-05-02T20:21:33.999Z</time></trkpt><trkpt lat="44.76829704486015" lon="9.940491999721324"><ele>420.7142857142857</ele><time>2026-05-02T20:21:36.999Z</time></trkpt><trkpt lat="44.76823812461171" lon="9.940440116396493"><ele>422.1428571428571</ele><time>2026-05-02T20:21:39.999Z</time></trkpt><trkpt lat="44.76817083542816" lon="9.940404454472302"><ele>423.57142857142856</ele><time>2026-05-02T20:21:42.999Z</time></trkpt><trkpt lat="44.76810205416496" lon="9.940373807380876"><ele>425.0</ele><time>2026-05-02T20:21:45.999Z</time></trkpt><trkpt lat="44.76803245296946" lon="9.940337825661711"><ele>424.99999999999994</ele><time>2026-05-02T20:21:48.999Z</time></trkpt><trkpt lat="44.767941871233454" lon="9.940305774880903"><ele>425.0</ele><time>2026-05-02T20:21:51.999Z</time></trkpt><trkpt lat="44.767862995390324" lon="9.940297582577651"><ele>425.0</ele><time>2026-05-02T20:21:54.999Z</time></trkpt><trkpt lat="44.767788866753286" lon="9.940291340664961"><ele>425.0</ele><time>2026-05-02T20:21:57.999Z</time></trkpt><trkpt lat="44.767717601423755" lon="9.94029948248576"><ele>424.99999999999994</ele><time>2026-05-02T20:22:00.999Z</time></trkpt><trkpt lat="44.76764652786409" lon="9.940300738867561"><ele>425.0</ele><time>2026-05-02T20:22:03.999Z</time></trkpt><trkpt lat="44.7675759914644" lon="9.940316228080846"><ele>425.57142857142856</ele><time>2026-05-02T20:22:06.999Z</time></trkpt><trkpt lat="44.76751086573823" lon="9.940324725538305"><ele>426.1428571428571</ele><time>2026-05-02T20:22:09.999Z</time></trkpt><trkpt lat="44.76743897509415" lon="9.940341216925047"><ele>426.7142857142857</ele><time>2026-05-02T20:22:12.999Z</time></trkpt><trkpt lat="44.76737601220654" lon="9.940353526133535"><ele>427.2857142857143</ele><time>2026-05-02T20:22:15.999Z</time></trkpt><trkpt lat="44.76730718616757" lon="9.940368372436048"><ele>427.8571428571429</ele><time>2026-05-02T20:22:19.001Z</time></trkpt><trkpt lat="44.76723346337613" lon="9.940384075200004"><ele>428.42857142857144</ele><time>2026-05-02T20:22:22.001Z</time></trkpt><trkpt lat="44.76714904879629" lon="9.940402066137935"><ele>429.0</ele><time>2026-05-02T20:22:25.001Z</time></trkpt><trkpt lat="44.76707644006017" lon="9.940422568138704"><ele>429.0</ele><time>2026-05-02T20:22:29.001Z</time></trkpt><trkpt lat="44.76700786194331" lon="9.940440789947703"><ele>429.0</ele><time>2026-05-02T20:22:32.001Z</time></trkpt><trkpt lat="44.76693894466559" lon="9.940453811294626"><ele>429.0</ele><time>2026-05-02T20:22:35.001Z</time></trkpt><trkpt lat="44.76687533443854" lon="9.940465996536366"><ele>429.0</ele><time>2026-05-02T20:22:37.001Z</time></trkpt><trkpt lat="44.76680306986294" lon="9.940489833671855"><ele>429.0</ele><time>2026-05-02T20:22:40Z</time></trkpt><trkpt lat="44.76673547572044" lon="9.94051671185299"><ele>429.0</ele><time>2026-05-02T20:22:44Z</time></trkpt><trkpt lat="44.7666550196021" lon="9.940538794261833"><ele>429.0</ele><time>2026-05-02T20:22:48Z</time></trkpt><trkpt lat="44.76659356879161" lon="9.940566151044886"><ele>429.42857142857144</ele><time>2026-05-02T20:22:51Z</time></trkpt><trkpt lat="44.766531585836724" lon="9.940590300846631"><ele>429.8571428571429</ele><time>2026-05-02T20:22:54Z</time></trkpt><trkpt lat="44.76646934721801" lon="9.940616410131284"><ele>430.2857142857143</ele><time>2026-05-02T20:22:57Z</time></trkpt><trkpt lat="44.76640694094653" lon="9.940646324808757"><ele>430.7142857142857</ele><time>2026-05-02T20:23:00Z</time></trkpt><trkpt lat="44.766341401464196" lon="9.94067749128614"><ele>431.1428571428571</ele><time>2026-05-02T20:23:03Z</time></trkpt><trkpt lat="44.76627624071396" lon="9.940706097063332"><ele>431.57142857142856</ele><time>2026-05-02T20:23:06Z</time></trkpt><trkpt lat="44.766209305588724" lon="9.940731831392563"><ele>432.0</ele><time>2026-05-02T20:23:09Z</time></trkpt><trkpt lat="44.76614461628472" lon="9.940760002402232"><ele>432.0</ele><time>2026-05-02T20:23:12Z</time></trkpt><trkpt lat="44.766076406774886" lon="9.940790309100347"><ele>432.0</ele><time>2026-05-02T20:23:15Z</time></trkpt><trkpt lat="44.76600907306532" lon="9.940817698001299"><ele>432.0</ele><time>2026-05-02T20:23:18Z</time></trkpt><trkpt lat="44.765938880967724" lon="9.940844278421231"><ele>432.0</ele><time>2026-05-02T20:23:21Z</time></trkpt><trkpt lat="44.765868296343974" lon="9.940869851044216"><ele>432.0</ele><time>2026-05-02T20:23:24Z</time></trkpt><trkpt lat="44.76579564500908" lon="9.94090683859588"><ele>432.0</ele><time>2026-05-02T20:23:27Z</time></trkpt><trkpt lat="44.76572262588946" lon="9.940943678958526"><ele>432.0</ele><time>2026-05-02T20:23:30Z</time></trkpt><trkpt lat="44.76566015895992" lon="9.940972401048786"><ele>432.0</ele><time>2026-05-02T20:23:32.999Z</time></trkpt><trkpt lat="44.76560026479344" lon="9.941011155953403"><ele>432.0</ele><time>2026-05-02T20:23:35.999Z</time></trkpt><trkpt lat="44.765532391133284" lon="9.94105837026644"><ele>432.0</ele><time>2026-05-02T20:23:38.999Z</time></trkpt><trkpt lat="44.76547398568684" lon="9.941110787928242"><ele>432.0</ele><time>2026-05-02T20:23:40.999Z</time></trkpt><trkpt lat="44.76541274293964" lon="9.941156728731936"><ele>432.0</ele><time>2026-05-02T20:23:43.999Z</time></trkpt><trkpt lat="44.76534229827601" lon="9.941206119463974"><ele>432.0</ele><time>2026-05-02T20:23:47.999Z</time></trkpt><trkpt lat="44.76528376436583" lon="9.941249957740183"><ele>432.0</ele><time>2026-05-02T20:23:50.999Z</time></trkpt><trkpt lat="44.76522688611131" lon="9.941291911445875"><ele>433.7142857142857</ele><time>2026-05-02T20:23:53.999Z</time></trkpt><trkpt lat="44.76516865520755" lon="9.941327831164926"><ele>435.42857142857144</ele><time>2026-05-02T20:23:56.999Z</time></trkpt><trkpt lat="44.7651150651988" lon="9.94137533062605"><ele>437.1428571428571</ele><time>2026-05-02T20:23:59.999Z</time></trkpt><trkpt lat="44.76506033956618" lon="9.94142133009364"><ele>438.8571428571429</ele><time>2026-05-02T20:24:02.999Z</time></trkpt><trkpt lat="44.764988378260846" lon="9.941478757919427"><ele>440.5714285714286</ele><time>2026-05-02T20:24:06.999Z</time></trkpt><trkpt lat="44.764915497902315" lon="9.941534707142997"><ele>442.2857142857143</ele><time>2026-05-02T20:24:10.999Z</time></trkpt><trkpt lat="44.76486060499106" lon="9.941581915684699"><ele>444.0</ele><time>2026-05-02T20:24:13.999Z</time></trkpt><trkpt lat="44.764792441590664" lon="9.941632710868722"><ele>444.0</ele><time>2026-05-02T20:24:17.999Z</time></trkpt><trkpt lat="44.764713163723606" lon="9.941688931721322"><ele>444.0</ele><time>2026-05-02T20:24:21.999Z</time></trkpt><trkpt lat="44.76464811995599" lon="9.94172962961501"><ele>444.0</ele><time>2026-05-02T20:24:26.001Z</time></trkpt><trkpt lat="44.76457416584811" lon="9.941788497486696"><ele>444.0</ele><time>2026-05-02T20:24:30.001Z</time></trkpt><trkpt lat="44.7645184948362" lon="9.941831912564263"><ele>444.0</ele><time>2026-05-02T20:24:33.001Z</time></trkpt><trkpt lat="44.764455055388595" lon="9.941885255584213"><ele>444.0</ele><time>2026-05-02T20:24:37.001Z</time></trkpt><trkpt lat="44.76437640253055" lon="9.941936929916196"><ele>445.8333333333333</ele><time>2026-05-02T20:24:41Z</time></trkpt><trkpt lat="44.76431520426227" lon="9.941983437025138"><ele>447.66666666666663</ele><time>2026-05-02T20:24:45Z</time></trkpt><trkpt lat="44.76424609222861" lon="9.94203382740414"><ele>449.5</ele><time>2026-05-02T20:24:49Z</time></trkpt><trkpt lat="44.764177619071795" lon="9.942083684410589"><ele>451.3333333333333</ele><time>2026-05-02T20:24:53Z</time></trkpt><trkpt lat="44.76411337775198" lon="9.94215789576044"><ele>453.16666666666663</ele><time>2026-05-02T20:24:57Z</time></trkpt><trkpt lat="44.76404990708555" lon="9.94220770581558"><ele>455.0</ele><time>2026-05-02T20:25:01Z</time></trkpt><trkpt lat="44.76398521901672" lon="9.942275884375901"><ele>454.99999999999994</ele><time>2026-05-02T20:25:05Z</time></trkpt><trkpt lat="44.76392139411982" lon="9.942330203349451"><ele>455.0</ele><time>2026-05-02T20:25:09Z</time></trkpt><trkpt lat="44.763855170784865" lon="9.942407192212356"><ele>455.0</ele><time>2026-05-02T20:25:13Z</time></trkpt><trkpt lat="44.7637903716367" lon="9.942461853171642"><ele>455.0</ele><time>2026-05-02T20:25:17Z</time></trkpt><trkpt lat="44.76371850101655" lon="9.942521248984784"><ele>454.99999999999994</ele><time>2026-05-02T20:25:21Z</time></trkpt><trkpt lat="44.76364433952669" lon="9.942563814659241"><ele>455.0</ele><time>2026-05-02T20:25:25Z</time></trkpt><trkpt lat="44.76358491285314" lon="9.942603052490751"><ele>456.49999999999994</ele><time>2026-05-02T20:25:28Z</time></trkpt><trkpt lat="44.763516720058746" lon="9.942637577280685"><ele>458.0</ele><time>2026-05-02T20:25:31.999Z</time></trkpt><trkpt lat="44.76343788732291" lon="9.942670788204039"><ele>459.5</ele><time>2026-05-02T20:25:35.999Z</time></trkpt><trkpt lat="44.76336232260793" lon="9.942695645154451"><ele>461.0</ele><time>2026-05-02T20:25:39.999Z</time></trkpt><trkpt lat="44.76328512665093" lon="9.942718980772003"><ele>462.49999999999994</ele><time>2026-05-02T20:25:43.999Z</time></trkpt><trkpt lat="44.7632072971891" lon="9.942719662624963"><ele>464.0</ele><time>2026-05-02T20:25:47.999Z</time></trkpt><trkpt lat="44.763154787001625" lon="9.942663787738116"><ele>464.00000000000006</ele><time>2026-05-02T20:25:50.999Z</time></trkpt><trkpt lat="44.76315016767796" lon="9.94257277219143"><ele>464.0</ele><time>2026-05-02T20:25:54.999Z</time></trkpt><trkpt lat="44.76317048228469" lon="9.942486865952162"><ele>464.00000000000006</ele><time>2026-05-02T20:25:57.999Z</time></trkpt><trkpt lat="44.76320462739998" lon="9.94240468203705"><ele>464.00000000000006</ele><time>2026-05-02T20:26:00.999Z</time></trkpt><trkpt lat="44.763237667648085" lon="9.942327415088386"><ele>464.0</ele><time>2026-05-02T20:26:03.999Z</time></trkpt><trkpt lat="44.76327901817092" lon="9.942221591892793"><ele>464.00000000000006</ele><time>2026-05-02T20:26:07.999Z</time></trkpt><trkpt lat="44.76331257256399" lon="9.94213883924826"><ele>464.00000000000006</ele><time>2026-05-02T20:26:10.999Z</time></trkpt><trkpt lat="44.763349083120275" lon="9.942056736012722"><ele>464.3333333333333</ele><time>2026-05-02T20:26:14.999Z</time></trkpt><trkpt lat="44.763391470430534" lon="9.941961000042014"><ele>464.66666666666663</ele><time>2026-05-02T20:26:18.999Z</time></trkpt><trkpt lat="44.76343353037143" lon="9.941872560945653"><ele>465.0</ele><time>2026-05-02T20:26:22.999Z</time></trkpt><trkpt lat="44.76348555063323" lon="9.9417879070958"><ele>465.33333333333337</ele><time>2026-05-02T20:26:26.998Z</time></trkpt><trkpt lat="44.76352885957148" lon="9.941699997340601"><ele>465.6666666666667</ele><time>2026-05-02T20:26:31Z</time></trkpt><trkpt lat="44.76357141844298" lon="9.941628618437367"><ele>466.0</ele><time>2026-05-02T20:26:34Z</time></trkpt><trkpt lat="44.763614559193066" lon="9.941531417040666"><ele>465.28571428571433</ele><time>2026-05-02T20:26:38Z</time></trkpt><trkpt lat="44.763661098055934" lon="9.941433847899699"><ele>464.57142857142856</ele><time>2026-05-02T20:26:42Z</time></trkpt><trkpt lat="44.76370578880673" lon="9.941361923040338"><ele>463.8571428571429</ele><time>2026-05-02T20:26:45Z</time></trkpt><trkpt lat="44.76374594200672" lon="9.941291465931966"><ele>463.14285714285717</ele><time>2026-05-02T20:26:48Z</time></trkpt><trkpt lat="44.763799762148444" lon="9.941198582948457"><ele>462.42857142857144</ele><time>2026-05-02T20:26:52Z</time></trkpt><trkpt lat="44.76383662261321" lon="9.941123918199198"><ele>461.7142857142857</ele><time>2026-05-02T20:26:55Z</time></trkpt><trkpt lat="44.763872078337286" lon="9.9410477431089"><ele>461.0</ele><time>2026-05-02T20:26:58Z</time></trkpt><trkpt lat="44.76391138575087" lon="9.940972619557439"><ele>461.0</ele><time>2026-05-02T20:27:01Z</time></trkpt><trkpt lat="44.763941858761" lon="9.940893377183569"><ele>461.00000000000006</ele><time>2026-05-02T20:27:04Z</time></trkpt><trkpt lat="44.763974430742174" lon="9.940784720593886"><ele>461.0</ele><time>2026-05-02T20:27:08Z</time></trkpt><trkpt lat="44.76399395973827" lon="9.940700224436073"><ele>461.0</ele><time>2026-05-02T20:27:11Z</time></trkpt><trkpt lat="44.76400647773137" lon="9.940612568129131"><ele>461.00000000000006</ele><time>2026-05-02T20:27:14Z</time></trkpt><trkpt lat="44.763983352276256" lon="9.940499460644086"><ele>461.0</ele><time>2026-05-02T20:27:18Z</time></trkpt><trkpt lat="44.763920249134976" lon="9.940462760930147"><ele>461.0</ele><time>2026-05-02T20:27:21Z</time></trkpt><trkpt lat="44.7638462021419" lon="9.940507301077599"><ele>461.0</ele><time>2026-05-02T20:27:25Z</time></trkpt><trkpt lat="44.76379494029142" lon="9.940594375313763"><ele>461.00000000000006</ele><time>2026-05-02T20:27:29Z</time></trkpt><trkpt lat="44.76374635999631" lon="9.94067511555559"><ele>461.0</ele><time>2026-05-02T20:27:32Z</time></trkpt><trkpt lat="44.7636959116311" lon="9.940755963979004"><ele>461.0</ele><time>2026-05-02T20:27:34.999Z</time></trkpt><trkpt lat="44.763638494937" lon="9.940833957085864"><ele>461.00000000000006</ele><time>2026-05-02T20:27:38.999Z</time></trkpt><trkpt lat="44.76358523652701" lon="9.940888943198162"><ele>461.0</ele><time>2026-05-02T20:27:40.999Z</time></trkpt><trkpt lat="44.76352662439878" lon="9.940927391741548"><ele>461.0</ele><time>2026-05-02T20:27:43.999Z</time></trkpt><trkpt lat="44.763450821838894" lon="9.940973332564335"><ele>463.42857142857144</ele><time>2026-05-02T20:27:47.999Z</time></trkpt><trkpt lat="44.76339629435394" lon="9.941020772667242"><ele>465.8571428571429</ele><time>2026-05-02T20:27:50.999Z</time></trkpt><trkpt lat="44.763337339132434" lon="9.94105625069497"><ele>468.28571428571433</ele><time>2026-05-02T20:27:53.999Z</time></trkpt><trkpt lat="44.76327655506021" lon="9.94108681762085"><ele>470.7142857142858</ele><time>2026-05-02T20:27:56.999Z</time></trkpt><trkpt lat="44.7632181771532" lon="9.941122866755684"><ele>473.14285714285717</ele><time>2026-05-02T20:27:59.999Z</time></trkpt><trkpt lat="44.763145888024354" lon="9.94113895946634"><ele>475.57142857142867</ele><time>2026-05-02T20:28:03.999Z</time></trkpt><trkpt lat="44.76306278595989" lon="9.941135124094744"><ele>478.00000000000006</ele><time>2026-05-02T20:28:07.999Z</time></trkpt><trkpt lat="44.76298481712272" lon="9.94110057397735"><ele>478.00000000000006</ele><time>2026-05-02T20:28:11.999Z</time></trkpt><trkpt lat="44.76292358348311" lon="9.941067942524239"><ele>478.0</ele><time>2026-05-02T20:28:14.999Z</time></trkpt><trkpt lat="44.76284547902798" lon="9.941036627326076"><ele>478.0</ele><time>2026-05-02T20:28:17.999Z</time></trkpt><trkpt lat="44.762770947903235" lon="9.941004892163859"><ele>478.0</ele><time>2026-05-02T20:28:20.999Z</time></trkpt><trkpt lat="44.7627009277725" lon="9.940992869126314"><ele>478.00000000000006</ele><time>2026-05-02T20:28:23.999Z</time></trkpt><trkpt lat="44.762621127285655" lon="9.941009630911942"><ele>478.0</ele><time>2026-05-02T20:28:26.998Z</time></trkpt><trkpt lat="44.76255085772811" lon="9.941060885689758"><ele>479.8571428571429</ele><time>2026-05-02T20:28:30.998Z</time></trkpt><trkpt lat="44.76249755246511" lon="9.941120934884996"><ele>481.7142857142857</ele><time>2026-05-02T20:28:33.998Z</time></trkpt><trkpt lat="44.76245039881733" lon="9.94119076718087"><ele>483.57142857142856</ele><time>2026-05-02T20:28:37Z</time></trkpt><trkpt lat="44.7624096699721" lon="9.941266207187955"><ele>485.42857142857144</ele><time>2026-05-02T20:28:40Z</time></trkpt><trkpt lat="44.762360536602245" lon="9.941343961317932"><ele>487.2857142857142</ele><time>2026-05-02T20:28:43Z</time></trkpt><trkpt lat="44.76231694101519" lon="9.941423733655265"><ele>489.1428571428571</ele><time>2026-05-02T20:28:46Z</time></trkpt><trkpt lat="44.76226422594714" lon="9.94150286542283"><ele>491.0</ele><time>2026-05-02T20:28:49Z</time></trkpt><trkpt lat="44.76220682712723" lon="9.941567620892416"><ele>490.99999999999994</ele><time>2026-05-02T20:28:52Z</time></trkpt><trkpt lat="44.76214422367698" lon="9.94160696150929"><ele>491.0</ele><time>2026-05-02T20:28:55Z</time></trkpt><trkpt lat="44.76207400244879" lon="9.94162329974196"><ele>491.0</ele><time>2026-05-02T20:28:58Z</time></trkpt><trkpt lat="44.76198750396294" lon="9.941631907363814"><ele>491.0</ele><time>2026-05-02T20:29:02Z</time></trkpt><trkpt lat="44.76188232542896" lon="9.941631707206513"><ele>490.99999999999994</ele><time>2026-05-02T20:29:06Z</time></trkpt><trkpt lat="44.761807054722276" lon="9.941627362401327"><ele>491.0</ele><time>2026-05-02T20:29:09Z</time></trkpt><trkpt lat="44.76173201656111" lon="9.941628841631193"><ele>491.57142857142856</ele><time>2026-05-02T20:29:12Z</time></trkpt><trkpt lat="44.76166211916738" lon="9.941634736346039"><ele>492.1428571428571</ele><time>2026-05-02T20:29:15Z</time></trkpt><trkpt lat="44.76159802945632" lon="9.941664828817187"><ele>492.71428571428567</ele><time>2026-05-02T20:29:18Z</time></trkpt><trkpt lat="44.761536177219796" lon="9.94169552276606"><ele>493.2857142857142</ele><time>2026-05-02T20:29:21Z</time></trkpt><trkpt lat="44.761476145657525" lon="9.941737584657924"><ele>493.85714285714283</ele><time>2026-05-02T20:29:24Z</time></trkpt><trkpt lat="44.76142048668651" lon="9.94179543368198"><ele>494.42857142857133</ele><time>2026-05-02T20:29:27Z</time></trkpt><trkpt lat="44.76136211598174" lon="9.941865872675406"><ele>494.99999999999994</ele><time>2026-05-02T20:29:31Z</time></trkpt><trkpt lat="44.76131183807905" lon="9.94192994005685"><ele>494.99999999999994</ele><time>2026-05-02T20:29:34Z</time></trkpt><trkpt lat="44.76125616531856" lon="9.942013645100818"><ele>495.0</ele><time>2026-05-02T20:29:36.999Z</time></trkpt><trkpt lat="44.761212861137636" lon="9.942084218156467"><ele>494.99999999999994</ele><time>2026-05-02T20:29:39.999Z</time></trkpt><trkpt lat="44.7611743310973" lon="9.94215942923683"><ele>494.99999999999994</ele><time>2026-05-02T20:29:42.999Z</time></trkpt><trkpt lat="44.76113964694965" lon="9.942238160353304"><ele>495.0</ele><time>2026-05-02T20:29:45.999Z</time></trkpt><trkpt lat="44.76109686322257" lon="9.942305812330792"><ele>494.99999999999994</ele><time>2026-05-02T20:29:48.999Z</time></trkpt><trkpt lat="44.76105761560076" lon="9.942384675252274"><ele>494.99999999999994</ele><time>2026-05-02T20:29:51.999Z</time></trkpt><trkpt lat="44.76102564919811" lon="9.9424672559241"><ele>498.3333333333333</ele><time>2026-05-02T20:29:54.999Z</time></trkpt><trkpt lat="44.76099150733432" lon="9.942548189214241"><ele>501.66666666666663</ele><time>2026-05-02T20:29:57.999Z</time></trkpt><trkpt lat="44.76095291673595" lon="9.942654989463325"><ele>505.0</ele><time>2026-05-02T20:30:01.999Z</time></trkpt><trkpt lat="44.76094366351749" lon="9.94275967599832"><ele>508.3333333333333</ele><time>2026-05-02T20:30:05.999Z</time></trkpt><trkpt lat="44.76093728027196" lon="9.94286035498465"><ele>511.66666666666663</ele><time>2026-05-02T20:30:08.999Z</time></trkpt><trkpt lat="44.76095330835034" lon="9.942965707460615"><ele>515.0</ele><time>2026-05-02T20:30:11.999Z</time></trkpt><trkpt lat="44.76097519237437" lon="9.94307563379554"><ele>515.0</ele><time>2026-05-02T20:30:14.999Z</time></trkpt><trkpt lat="44.76100260202824" lon="9.943171567220615"><ele>515.0</ele><time>2026-05-02T20:30:17.999Z</time></trkpt><trkpt lat="44.76102828986093" lon="9.943267434853851"><ele>515.0</ele><time>2026-05-02T20:30:20.999Z</time></trkpt><trkpt lat="44.76104241282792" lon="9.943363228659425"><ele>515.0</ele><time>2026-05-02T20:30:23.999Z</time></trkpt><trkpt lat="44.761043299764665" lon="9.943459918680135"><ele>515.0</ele><time>2026-05-02T20:30:26.999Z</time></trkpt><trkpt lat="44.761036476808755" lon="9.943557181994404"><ele>515.0</ele><time>2026-05-02T20:30:29.999Z</time></trkpt><trkpt lat="44.76102695731409" lon="9.94366302515331"><ele>515.0</ele><time>2026-05-02T20:30:33.998Z</time></trkpt><trkpt lat="44.76101563556861" lon="9.943754132236121"><ele>514.2857142857143</ele><time>2026-05-02T20:30:36.998Z</time></trkpt><trkpt lat="44.76098905355651" lon="9.94385342855452"><ele>513.5714285714286</ele><time>2026-05-02T20:30:39.998Z</time></trkpt><trkpt lat="44.760957377701416" lon="9.943957298788089"><ele>512.8571428571429</ele><time>2026-05-02T20:30:44Z</time></trkpt><trkpt lat="44.760910146977636" lon="9.944024156183952"><ele>512.1428571428571</ele><time>2026-05-02T20:30:47Z</time></trkpt><trkpt lat="44.760845709554125" lon="9.944036988164786"><ele>511.42857142857144</ele><time>2026-05-02T20:30:50Z</time></trkpt><trkpt lat="44.76078569926785" lon="9.943983728557216"><ele>510.7142857142857</ele><time>2026-05-02T20:30:53Z</time></trkpt><trkpt lat="44.76075047828227" lon="9.943878878919396"><ele>510.0</ele><time>2026-05-02T20:30:57Z</time></trkpt><trkpt lat="44.76072333128445" lon="9.943789472535148"><ele>510.0</ele><time>2026-05-02T20:31:00Z</time></trkpt><trkpt lat="44.7606916281481" lon="9.943691780788443"><ele>510.00000000000006</ele><time>2026-05-02T20:31:03Z</time></trkpt><trkpt lat="44.760671601160006" lon="9.943590288488275"><ele>510.0</ele><time>2026-05-02T20:31:07Z</time></trkpt><trkpt lat="44.76064705755441" lon="9.94349766638321"><ele>510.0</ele><time>2026-05-02T20:31:10Z</time></trkpt><trkpt lat="44.76062938479491" lon="9.943384006779475"><ele>510.00000000000006</ele><time>2026-05-02T20:31:13Z</time></trkpt><trkpt lat="44.76061405794479" lon="9.943288041356968"><ele>510.0</ele><time>2026-05-02T20:31:16Z</time></trkpt><trkpt lat="44.760591743711245" lon="9.943195740036424"><ele>510.0</ele><time>2026-05-02T20:31:19Z</time></trkpt><trkpt lat="44.76055838963451" lon="9.943110261511482"><ele>510.8333333333333</ele><time>2026-05-02T20:31:22Z</time></trkpt><trkpt lat="44.76052172336352" lon="9.943023659309352"><ele>511.66666666666663</ele><time>2026-05-02T20:31:25Z</time></trkpt><trkpt lat="44.760482837622924" lon="9.942934405962076"><ele>512.5</ele><time>2026-05-02T20:31:28Z</time></trkpt><trkpt lat="44.76043773982605" lon="9.94284701680531"><ele>513.3333333333333</ele><time>2026-05-02T20:31:31Z</time></trkpt><trkpt lat="44.760392211022754" lon="9.942765031269255"><ele>514.1666666666666</ele><time>2026-05-02T20:31:34Z</time></trkpt><trkpt lat="44.760347084117086" lon="9.942675382863278"><ele>515.0</ele><time>2026-05-02T20:31:37Z</time></trkpt><trkpt lat="44.76031074669717" lon="9.942573168761504"><ele>514.6666666666666</ele><time>2026-05-02T20:31:39.999Z</time></trkpt><trkpt lat="44.76030489077105" lon="9.942450923052423"><ele>514.3333333333333</ele><time>2026-05-02T20:31:42.999Z</time></trkpt><trkpt lat="44.76031663619699" lon="9.942346595841174"><ele>514.0</ele><time>2026-05-02T20:31:45.999Z</time></trkpt><trkpt lat="44.7603369585249" lon="9.942230793570545"><ele>513.6666666666666</ele><time>2026-05-02T20:31:48.999Z</time></trkpt><trkpt lat="44.760351077665405" lon="9.9421395346249"><ele>513.3333333333334</ele><time>2026-05-02T20:31:50.999Z</time></trkpt><trkpt lat="44.760370748593026" lon="9.942037677981135"><ele>513.0</ele><time>2026-05-02T20:31:53.999Z</time></trkpt><trkpt lat="44.76038824436498" lon="9.941938410278423"><ele>513.0000000000001</ele><time>2026-05-02T20:31:56.999Z</time></trkpt><trkpt lat="44.76040383130777" lon="9.941838289557943"><ele>513.0</ele><time>2026-05-02T20:31:59.999Z</time></trkpt><trkpt lat="44.76042880601298" lon="9.94173361637216"><ele>513.0</ele><time>2026-05-02T20:32:03.999Z</time></trkpt><trkpt lat="44.760449919674194" lon="9.941647890157387"><ele>513.0</ele><time>2026-05-02T20:32:06.999Z</time></trkpt><trkpt lat="44.76047135146765" lon="9.941557499308699"><ele>513.0</ele><time>2026-05-02T20:32:09.999Z</time></trkpt><trkpt lat="44.76049212414798" lon="9.94146107093999"><ele>513.0000000000001</ele><time>2026-05-02T20:32:12.999Z</time></trkpt><trkpt lat="44.76051080126056" lon="9.941363000560772"><ele>513.0</ele><time>2026-05-02T20:32:15.999Z</time></trkpt><trkpt lat="44.76053913126967" lon="9.941253540519526"><ele>513.3333333333334</ele><time>2026-05-02T20:32:18.999Z</time></trkpt><trkpt lat="44.76057037224185" lon="9.941131669061384"><ele>513.6666666666666</ele><time>2026-05-02T20:32:22.999Z</time></trkpt><trkpt lat="44.76059786283551" lon="9.941042828424798"><ele>514.0</ele><time>2026-05-02T20:32:25.999Z</time></trkpt><trkpt lat="44.760632998659354" lon="9.940957497592146"><ele>514.3333333333333</ele><time>2026-05-02T20:32:28.999Z</time></trkpt><trkpt lat="44.760683849680035" lon="9.940861629470218"><ele>514.6666666666666</ele><time>2026-05-02T20:32:32.998Z</time></trkpt><trkpt lat="44.760736187858235" lon="9.940784837151227"><ele>515.0</ele><time>2026-05-02T20:32:35.998Z</time></trkpt><trkpt lat="44.7607918740029" lon="9.940698312173227"><ele>514.8571428571429</ele><time>2026-05-02T20:32:39.998Z</time></trkpt><trkpt lat="44.76083893926939" lon="9.940630492774998"><ele>514.7142857142857</ele><time>2026-05-02T20:32:42.998Z</time></trkpt><trkpt lat="44.7608821483093" lon="9.940563074935278"><ele>514.5714285714286</ele><time>2026-05-02T20:32:45.998Z</time></trkpt><trkpt lat="44.76093233311745" lon="9.940483601743216"><ele>514.4285714285714</ele><time>2026-05-02T20:32:50Z</time></trkpt><trkpt lat="44.76097725264276" lon="9.940421084675595"><ele>514.2857142857143</ele><time>2026-05-02T20:32:53Z</time></trkpt><trkpt lat="44.76102187016103" lon="9.940323951720055"><ele>514.1428571428571</ele><time>2026-05-02T20:32:57Z</time></trkpt><trkpt lat="44.76103844913689" lon="9.940210190276835"><ele>514.0</ele><time>2026-05-02T20:33:01Z</time></trkpt><trkpt lat="44.76100323467049" lon="9.940103375250832"><ele>515.7142857142857</ele><time>2026-05-02T20:33:05Z</time></trkpt><trkpt lat="44.76094038173682" lon="9.940059797408521"><ele>517.4285714285714</ele><time>2026-05-02T20:33:08Z</time></trkpt><trkpt lat="44.76087402170337" lon="9.940049440302806"><ele>519.1428571428571</ele><time>2026-05-02T20:33:11Z</time></trkpt><trkpt lat="44.76079438196194" lon="9.94007030321289"><ele>520.8571428571429</ele><time>2026-05-02T20:33:14Z</time></trkpt><trkpt lat="44.76072848846207" lon="9.940105963874261"><ele>522.5714285714286</ele><time>2026-05-02T20:33:17Z</time></trkpt><trkpt lat="44.76066593534836" lon="9.940132005346456"><ele>524.2857142857142</ele><time>2026-05-02T20:33:20Z</time></trkpt><trkpt lat="44.76060405156259" lon="9.940161550452602"><ele>526.0</ele><time>2026-05-02T20:33:23Z</time></trkpt><trkpt lat="44.760541499434176" lon="9.940184097054232"><ele>526.0</ele><time>2026-05-02T20:33:26Z</time></trkpt><trkpt lat="44.76047613225988" lon="9.940207267216442"><ele>526.0</ele><time>2026-05-02T20:33:29Z</time></trkpt><trkpt lat="44.76041162875315" lon="9.940229589837982"><ele>526.0</ele><time>2026-05-02T20:33:32Z</time></trkpt><trkpt lat="44.76034636704842" lon="9.940250753106508"><ele>526.0</ele><time>2026-05-02T20:33:35Z</time></trkpt><trkpt lat="44.76028166540697" lon="9.940271830174195"><ele>526.0</ele><time>2026-05-02T20:33:38Z</time></trkpt><trkpt lat="44.7602064459439" lon="9.940314683135329"><ele>526.0</ele><time>2026-05-02T20:33:42Z</time></trkpt><trkpt lat="44.760138866528244" lon="9.940365910051126"><ele>526.0</ele><time>2026-05-02T20:33:45.999Z</time></trkpt><trkpt lat="44.76008728936151" lon="9.940434812168569"><ele>526.8571428571429</ele><time>2026-05-02T20:33:48.999Z</time></trkpt><trkpt lat="44.76003545223693" lon="9.94051629674208"><ele>527.7142857142857</ele><time>2026-05-02T20:33:51.999Z</time></trkpt><trkpt lat="44.759994414683455" lon="9.940583598314383"><ele>528.5714285714286</ele><time>2026-05-02T20:33:54.999Z</time></trkpt><trkpt lat="44.759941119196554" lon="9.94066262385269"><ele>529.4285714285714</ele><time>2026-05-02T20:33:58.999Z</time></trkpt><trkpt lat="44.759892024689435" lon="9.940734313085867"><ele>530.2857142857142</ele><time>2026-05-02T20:34:01.999Z</time></trkpt><trkpt lat="44.75984372146055" lon="9.94080935732753"><ele>531.1428571428571</ele><time>2026-05-02T20:34:04.999Z</time></trkpt><trkpt lat="44.759791778795666" lon="9.94088718590071"><ele>532.0</ele><time>2026-05-02T20:34:08.999Z</time></trkpt><trkpt lat="44.75974174404042" lon="9.940955362131842"><ele>532.0</ele><time>2026-05-02T20:34:11.999Z</time></trkpt><trkpt lat="44.75969225471043" lon="9.941031023370963"><ele>532.0</ele><time>2026-05-02T20:34:14.999Z</time></trkpt><trkpt lat="44.75964465285563" lon="9.941125714961839"><ele>532.0</ele><time>2026-05-02T20:34:18.999Z</time></trkpt><trkpt lat="44.759596795560626" lon="9.941215137440198"><ele>532.0</ele><time>2026-05-02T20:34:21.999Z</time></trkpt><trkpt lat="44.759556045620435" lon="9.941299424500711"><ele>532.0</ele><time>2026-05-02T20:34:25.999Z</time></trkpt><trkpt lat="44.75952299033445" lon="9.94137874816131"><ele>532.0</ele><time>2026-05-02T20:34:28.999Z</time></trkpt><trkpt lat="44.75947722123935" lon="9.941471291618914"><ele>532.0</ele><time>2026-05-02T20:34:31.999Z</time></trkpt><trkpt lat="44.759443418091365" lon="9.941557267646147"><ele>532.0</ele><time>2026-05-02T20:34:35.999Z</time></trkpt><trkpt lat="44.75940581331216" lon="9.941629158946107"><ele>532.0</ele><time>2026-05-02T20:34:38.998Z</time></trkpt><trkpt lat="44.759370280320134" lon="9.941706508302362"><ele>532.0</ele><time>2026-05-02T20:34:41.998Z</time></trkpt><trkpt lat="44.759333121527234" lon="9.941781952067169"><ele>532.0</ele><time>2026-05-02T20:34:44.998Z</time></trkpt><trkpt lat="44.75929191146772" lon="9.941859979218036"><ele>532.0</ele><time>2026-05-02T20:34:47.998Z</time></trkpt><trkpt lat="44.75925240432645" lon="9.941951652699371"><ele>532.0</ele><time>2026-05-02T20:34:52Z</time></trkpt><trkpt lat="44.75921751325682" lon="9.94205936106811"><ele>533.8571428571429</ele><time>2026-05-02T20:34:55Z</time></trkpt><trkpt lat="44.75917552139043" lon="9.942133123249194"><ele>535.7142857142858</ele><time>2026-05-02T20:34:58Z</time></trkpt><trkpt lat="44.759144357854076" lon="9.942226940445083"><ele>537.5714285714286</ele><time>2026-05-02T20:35:02Z</time></trkpt><trkpt lat="44.759126218261045" lon="9.94231442385023"><ele>539.4285714285714</ele><time>2026-05-02T20:35:05Z</time></trkpt><trkpt lat="44.75910364755795" lon="9.942417309811702"><ele>541.2857142857143</ele><time>2026-05-02T20:35:08Z</time></trkpt><trkpt lat="44.75909585022955" lon="9.942520044202519"><ele>543.1428571428571</ele><time>2026-05-02T20:35:12Z</time></trkpt><trkpt lat="44.759098200754515" lon="9.942612842659704"><ele>545.0</ele><time>2026-05-02T20:35:15Z</time></trkpt><trkpt lat="44.759098126146604" lon="9.942723133214677"><ele>545.0</ele><time>2026-05-02T20:35:18Z</time></trkpt><trkpt lat="44.75909751614375" lon="9.942833069138434"><ele>545.0</ele><time>2026-05-02T20:35:22Z</time></trkpt><trkpt lat="44.7590958426874" lon="9.942936908880476"><ele>545.0</ele><time>2026-05-02T20:35:25Z</time></trkpt><trkpt lat="44.75906980471839" lon="9.943019089102805"><ele>545.0</ele><time>2026-05-02T20:35:28Z</time></trkpt><trkpt lat="44.75899245819567" lon="9.943020966881269"><ele>545.0</ele><time>2026-05-02T20:35:32Z</time></trkpt><trkpt lat="44.758970040944206" lon="9.942934619501337"><ele>545.0</ele><time>2026-05-02T20:35:35Z</time></trkpt><trkpt lat="44.75895996059371" lon="9.942820908746095"><ele>545.0</ele><time>2026-05-02T20:35:39Z</time></trkpt><trkpt lat="44.75894212074176" lon="9.9427114861229"><ele>545.0</ele><time>2026-05-02T20:35:42Z</time></trkpt><trkpt lat="44.758925869545834" lon="9.942613461228168"><ele>545.0</ele><time>2026-05-02T20:35:46Z</time></trkpt><trkpt lat="44.75891572012387" lon="9.942512014603494"><ele>545.0</ele><time>2026-05-02T20:35:49.999Z</time></trkpt><trkpt lat="44.75890722818067" lon="9.942399648577572"><ele>545.0</ele><time>2026-05-02T20:35:53.999Z</time></trkpt><trkpt lat="44.75889986593902" lon="9.94228734130275"><ele>545.0</ele><time>2026-05-02T20:35:57.999Z</time></trkpt><trkpt lat="44.75889956965701" lon="9.942197572835905"><ele>545.0</ele><time>2026-05-02T20:36:00.999Z</time></trkpt><trkpt lat="44.75891034353628" lon="9.942098714703766"><ele>545.0</ele><time>2026-05-02T20:36:04.999Z</time></trkpt><trkpt lat="44.758917830975335" lon="9.942003888892764"><ele>545.4285714285714</ele><time>2026-05-02T20:36:07.999Z</time></trkpt><trkpt lat="44.75893182421646" lon="9.941907695091826"><ele>545.8571428571429</ele><time>2026-05-02T20:36:11.999Z</time></trkpt><trkpt lat="44.75894298413495" lon="9.941817864950517"><ele>546.2857142857143</ele><time>2026-05-02T20:36:14.999Z</time></trkpt><trkpt lat="44.75896793542761" lon="9.941720816606752"><ele>546.7142857142858</ele><time>2026-05-02T20:36:18.999Z</time></trkpt><trkpt lat="44.75899349490009" lon="9.94160634021305"><ele>547.1428571428571</ele><time>2026-05-02T20:36:22.999Z</time></trkpt><trkpt lat="44.75900692019625" lon="9.941504156620674"><ele>547.5714285714287</ele><time>2026-05-02T20:36:26.999Z</time></trkpt><trkpt lat="44.75902172642141" lon="9.941407756189513"><ele>548.0</ele><time>2026-05-02T20:36:29.999Z</time></trkpt><trkpt lat="44.75903761335208" lon="9.941315637433977"><ele>549.1428571428572</ele><time>2026-05-02T20:36:33.999Z</time></trkpt><trkpt lat="44.75905370642583" lon="9.941203253732338"><ele>550.2857142857143</ele><time>2026-05-02T20:36:37.999Z</time></trkpt><trkpt lat="44.75906579445483" lon="9.941098829685618"><ele>551.4285714285714</ele><time>2026-05-02T20:36:41.998Z</time></trkpt><trkpt lat="44.75907744375694" lon="9.941009978724436"><ele>552.5714285714287</ele><time>2026-05-02T20:36:44.998Z</time></trkpt><trkpt lat="44.75908519905721" lon="9.940913968002912"><ele>553.7142857142858</ele><time>2026-05-02T20:36:48.998Z</time></trkpt><trkpt lat="44.759083204633484" lon="9.940817109451103"><ele>554.8571428571429</ele><time>2026-05-02T20:36:51.998Z</time></trkpt><trkpt lat="44.75908043407984" lon="9.940727574423939"><ele>556.0</ele><time>2026-05-02T20:36:55.998Z</time></trkpt><trkpt lat="44.75906398021064" lon="9.940613718741837"><ele>557.5</ele><time>2026-05-02T20:37:00Z</time></trkpt><trkpt lat="44.75904213774161" lon="9.940517404844307"><ele>559.0</ele><time>2026-05-02T20:37:04Z</time></trkpt><trkpt lat="44.759022103024165" lon="9.940418656468415"><ele>560.5</ele><time>2026-05-02T20:37:08Z</time></trkpt><trkpt lat="44.759013751362026" lon="9.940302884872315"><ele>562.0</ele><time>2026-05-02T20:37:12Z</time></trkpt><trkpt lat="44.75903341374197" lon="9.940209261956328"><ele>563.5</ele><time>2026-05-02T20:37:16Z</time></trkpt><trkpt lat="44.75906159589601" lon="9.94012862031154"><ele>565.0</ele><time>2026-05-02T20:37:19Z</time></trkpt><trkpt lat="44.7591130302027" lon="9.940022055131836"><ele>565.8333333333334</ele><time>2026-05-02T20:37:24Z</time></trkpt><trkpt lat="44.75915809460426" lon="9.93990716965481"><ele>566.6666666666667</ele><time>2026-05-02T20:37:29Z</time></trkpt><trkpt lat="44.759188551153265" lon="9.939789190897791"><ele>567.5</ele><time>2026-05-02T20:37:34Z</time></trkpt><trkpt lat="44.75920475937241" lon="9.939696005364876"><ele>568.3333333333334</ele><time>2026-05-02T20:37:38Z</time></trkpt><trkpt lat="44.75920253062566" lon="9.939606697354845"><ele>569.1666666666666</ele><time>2026-05-02T20:37:41Z</time></trkpt><trkpt lat="44.759197438981154" lon="9.939514272743676"><ele>570.0</ele><time>2026-05-02T20:37:44Z</time></trkpt><trkpt lat="44.75918456874111" lon="9.93941448806215"><ele>570.0</ele><time>2026-05-02T20:37:48Z</time></trkpt><trkpt lat="44.7591631162174" lon="9.939322601488595"><ele>570.0</ele><time>2026-05-02T20:37:50.999Z</time></trkpt><trkpt lat="44.75913852004552" lon="9.939238617792551"><ele>570.0</ele><time>2026-05-02T20:37:54.999Z</time></trkpt><trkpt lat="44.759113967482435" lon="9.939147067390683"><ele>570.0</ele><time>2026-05-02T20:37:57.999Z</time></trkpt><trkpt lat="44.759073034619725" lon="9.939075171525737"><ele>570.0</ele><time>2026-05-02T20:38:01.999Z</time></trkpt><trkpt lat="44.759019386524834" lon="9.938984137020283"><ele>570.0</ele><time>2026-05-02T20:38:05.999Z</time></trkpt><trkpt lat="44.7589564393466" lon="9.93892464661255"><ele>570.0</ele><time>2026-05-02T20:38:09.999Z</time></trkpt><trkpt lat="44.758895879803426" lon="9.93888734493701"><ele>569.8571428571429</ele><time>2026-05-02T20:38:12.999Z</time></trkpt><trkpt lat="44.75882330690359" lon="9.938865137602106"><ele>569.7142857142858</ele><time>2026-05-02T20:38:16.999Z</time></trkpt><trkpt lat="44.75875715017944" lon="9.938858875725716"><ele>569.5714285714287</ele><time>2026-05-02T20:38:19.999Z</time></trkpt><trkpt lat="44.75868952804899" lon="9.938848242100777"><ele>569.4285714285714</ele><time>2026-05-02T20:38:23.999Z</time></trkpt><trkpt lat="44.75861463783407" lon="9.938846063682469"><ele>569.2857142857143</ele><time>2026-05-02T20:38:26.999Z</time></trkpt><trkpt lat="44.758548491910936" lon="9.938845537211566"><ele>569.1428571428572</ele><time>2026-05-02T20:38:29.999Z</time></trkpt><trkpt lat="44.758481241117394" lon="9.93883311437522"><ele>569.0</ele><time>2026-05-02T20:38:32.999Z</time></trkpt><trkpt lat="44.758412740326406" lon="9.938785847894449"><ele>571.2857142857143</ele><time>2026-05-02T20:38:35.999Z</time></trkpt><trkpt lat="44.75835080336805" lon="9.938710137892867"><ele>573.5714285714286</ele><time>2026-05-02T20:38:38.999Z</time></trkpt><trkpt lat="44.758317743646714" lon="9.938620701294184"><ele>575.8571428571429</ele><time>2026-05-02T20:38:41.999Z</time></trkpt><trkpt lat="44.75830199544721" lon="9.938518883853023"><ele>578.1428571428571</ele><time>2026-05-02T20:38:44.998Z</time></trkpt><trkpt lat="44.758286683431294" lon="9.938428108386764"><ele>580.4285714285714</ele><time>2026-05-02T20:38:47.998Z</time></trkpt><trkpt lat="44.7582747995425" lon="9.938332130834395"><ele>582.7142857142858</ele><time>2026-05-02T20:38:50.998Z</time></trkpt><trkpt lat="44.75826117265233" lon="9.938239940592648"><ele>585.0</ele><time>2026-05-02T20:38:53.998Z</time></trkpt><trkpt lat="44.75823710272362" lon="9.938156206602663"><ele>585.0</ele><time>2026-05-02T20:38:56.998Z</time></trkpt><trkpt lat="44.75820266843902" lon="9.938073096901169"><ele>585.0</ele><time>2026-05-02T20:39:00.998Z</time></trkpt><trkpt lat="44.75816195401877" lon="9.938004277260012"><ele>585.0</ele><time>2026-05-02T20:39:04Z</time></trkpt><trkpt lat="44.75811035456012" lon="9.93792349587961"><ele>585.0</ele><time>2026-05-02T20:39:07Z</time></trkpt><trkpt lat="44.758063911468355" lon="9.937851079220692"><ele>585.0</ele><time>2026-05-02T20:39:11Z</time></trkpt><trkpt lat="44.75802752147854" lon="9.937775012764991"><ele>585.0</ele><time>2026-05-02T20:39:14Z</time></trkpt><trkpt lat="44.75799766320499" lon="9.937684924980177"><ele>585.0</ele><time>2026-05-02T20:39:17Z</time></trkpt><trkpt lat="44.75797328378659" lon="9.937594842279704"><ele>584.5</ele><time>2026-05-02T20:39:21Z</time></trkpt><trkpt lat="44.75795365302695" lon="9.937478011554928"><ele>584.0</ele><time>2026-05-02T20:39:25Z</time></trkpt><trkpt lat="44.75794929057492" lon="9.937369171840894"><ele>583.5</ele><time>2026-05-02T20:39:29Z</time></trkpt><trkpt lat="44.75795085015759" lon="9.937267351400513"><ele>583.0</ele><time>2026-05-02T20:39:32Z</time></trkpt><trkpt lat="44.75795573227388" lon="9.937176521720922"><ele>582.5</ele><time>2026-05-02T20:39:36Z</time></trkpt><trkpt lat="44.757972345427845" lon="9.937048638978045"><ele>582.0</ele><time>2026-05-02T20:39:40Z</time></trkpt><trkpt lat="44.75798669798264" lon="9.936961102185423"><ele>582.0</ele><time>2026-05-02T20:39:43Z</time></trkpt><trkpt lat="44.75801342026917" lon="9.936876203411042"><ele>582.0</ele><time>2026-05-02T20:39:47Z</time></trkpt><trkpt lat="44.758061846938745" lon="9.93675534487082"><ele>582.0</ele><time>2026-05-02T20:39:51Z</time></trkpt><trkpt lat="44.75809827655229" lon="9.936679709896975"><ele>582.0</ele><time>2026-05-02T20:39:54.999Z</time></trkpt><trkpt lat="44.758157051594864" lon="9.936589503464724"><ele>582.0</ele><time>2026-05-02T20:39:58.999Z</time></trkpt><trkpt lat="44.75821823298845" lon="9.936532925522553"><ele>582.0</ele><time>2026-05-02T20:40:02.999Z</time></trkpt><trkpt lat="44.758287269055124" lon="9.93647247307325"><ele>582.8571428571429</ele><time>2026-05-02T20:40:06.999Z</time></trkpt><trkpt lat="44.75835640663393" lon="9.93639131783671"><ele>583.7142857142857</ele><time>2026-05-02T20:40:10.999Z</time></trkpt><trkpt lat="44.758389195146876" lon="9.936305512597835"><ele>584.5714285714286</ele><time>2026-05-02T20:40:14.999Z</time></trkpt><trkpt lat="44.75839125511837" lon="9.93620061818355"><ele>585.4285714285714</ele><time>2026-05-02T20:40:17.999Z</time></trkpt><trkpt lat="44.758353439707534" lon="9.936119383712816"><ele>586.2857142857142</ele><time>2026-05-02T20:40:21.999Z</time></trkpt><trkpt lat="44.75830599041694" lon="9.936059495225914"><ele>587.1428571428571</ele><time>2026-05-02T20:40:24.999Z</time></trkpt><trkpt lat="44.758240074679044" lon="9.936013462946695"><ele>588.0</ele><time>2026-05-02T20:40:27.999Z</time></trkpt><trkpt lat="44.75816741067417" lon="9.935994134559857"><ele>588.0</ele><time>2026-05-02T20:40:31.999Z</time></trkpt><trkpt lat="44.758088421984986" lon="9.935975492210545"><ele>588.0</ele><time>2026-05-02T20:40:35.999Z</time></trkpt><trkpt lat="44.758014998376225" lon="9.935956086958667"><ele>588.0</ele><time>2026-05-02T20:40:39.999Z</time></trkpt><trkpt lat="44.75793021499587" lon="9.935973321744687"><ele>588.0</ele><time>2026-05-02T20:40:43.999Z</time></trkpt><trkpt lat="44.75786765768021" lon="9.936025365238743"><ele>588.0</ele><time>2026-05-02T20:40:47.999Z</time></trkpt><trkpt lat="44.75778731850304" lon="9.936099587620978"><ele>588.0</ele><time>2026-05-02T20:40:51.998Z</time></trkpt><trkpt lat="44.757736063759296" lon="9.93617254821528"><ele>590.7142857142857</ele><time>2026-05-02T20:40:55.998Z</time></trkpt><trkpt lat="44.757695563120414" lon="9.93627374621219"><ele>593.4285714285714</ele><time>2026-05-02T20:40:58.998Z</time></trkpt><trkpt lat="44.75763681103154" lon="9.936343684617198"><ele>596.1428571428571</ele><time>2026-05-02T20:41:01.998Z</time></trkpt><trkpt lat="44.757592277023214" lon="9.936432263184184"><ele>598.8571428571429</ele><time>2026-05-02T20:41:04.998Z</time></trkpt><trkpt lat="44.75755335416789" lon="9.936522386047736"><ele>601.5714285714286</ele><time>2026-05-02T20:41:07.998Z</time></trkpt><trkpt lat="44.75752441675894" lon="9.936604062829698"><ele>604.2857142857142</ele><time>2026-05-02T20:41:11Z</time></trkpt><trkpt lat="44.757494500581394" lon="9.93669028454583"><ele>607.0</ele><time>2026-05-02T20:41:14Z</time></trkpt><trkpt lat="44.75746921317385" lon="9.936781524391016"><ele>607.0</ele><time>2026-05-02T20:41:17Z</time></trkpt><trkpt lat="44.75743308291248" lon="9.936882523298964"><ele>607.0</ele><time>2026-05-02T20:41:21Z</time></trkpt><trkpt lat="44.75740159784355" lon="9.936959465243653"><ele>607.0</ele><time>2026-05-02T20:41:24Z</time></trkpt><trkpt lat="44.757365633492874" lon="9.93707031204263"><ele>607.0</ele><time>2026-05-02T20:41:28Z</time></trkpt><trkpt lat="44.75733561851606" lon="9.937172094302804"><ele>607.0</ele><time>2026-05-02T20:41:31Z</time></trkpt><trkpt lat="44.75730016423403" lon="9.937260422792013"><ele>607.0</ele><time>2026-05-02T20:41:35Z</time></trkpt><trkpt lat="44.75727187658127" lon="9.937353137161411"><ele>606.9999999999999</ele><time>2026-05-02T20:41:38Z</time></trkpt><trkpt lat="44.7572354011865" lon="9.937440272371877"><ele>607.0</ele><time>2026-05-02T20:41:41Z</time></trkpt><trkpt lat="44.75720596544515" lon="9.937524968093152"><ele>607.0</ele><time>2026-05-02T20:41:44Z</time></trkpt><trkpt lat="44.757184676820444" lon="9.937610784364537"><ele>607.0</ele><time>2026-05-02T20:41:47Z</time></trkpt><trkpt lat="44.757175855023185" lon="9.937701652507895"><ele>607.0</ele><time>2026-05-02T20:41:50Z</time></trkpt><trkpt lat="44.757173916740825" lon="9.937795699502622"><ele>606.9999999999999</ele><time>2026-05-02T20:41:53Z</time></trkpt><trkpt lat="44.75718341501031" lon="9.937893576752169"><ele>607.0</ele><time>2026-05-02T20:41:56Z</time></trkpt><trkpt lat="44.75720046055115" lon="9.938003915464387"><ele>607.5714285714286</ele><time>2026-05-02T20:41:59Z</time></trkpt><trkpt lat="44.75723012893651" lon="9.938101162508849"><ele>608.1428571428571</ele><time>2026-05-02T20:42:02.999Z</time></trkpt><trkpt lat="44.75727696255279" lon="9.93818124365344"><ele>608.7142857142858</ele><time>2026-05-02T20:42:05.999Z</time></trkpt><trkpt lat="44.75732925207555" lon="9.93825643642036"><ele>609.2857142857142</ele><time>2026-05-02T20:42:08.999Z</time></trkpt><trkpt lat="44.75738771592169" lon="9.938332064634888"><ele>609.8571428571429</ele><time>2026-05-02T20:42:11.999Z</time></trkpt><trkpt lat="44.7574438875324" lon="9.938385477792169"><ele>610.4285714285714</ele><time>2026-05-02T20:42:14.999Z</time></trkpt><trkpt lat="44.75749633110625" lon="9.938442343042922"><ele>611.0</ele><time>2026-05-02T20:42:17.999Z</time></trkpt><trkpt lat="44.75754836905425" lon="9.938507614451952"><ele>611.0000000000001</ele><time>2026-05-02T20:42:20.999Z</time></trkpt><trkpt lat="44.75758845751939" lon="9.938590412739797"><ele>611.0</ele><time>2026-05-02T20:42:23.999Z</time></trkpt><trkpt lat="44.75760692040011" lon="9.938682307175872"><ele>611.0</ele><time>2026-05-02T20:42:26.999Z</time></trkpt><trkpt lat="44.75760106308591" lon="9.938777292055011"><ele>611.0</ele><time>2026-05-02T20:42:29.999Z</time></trkpt><trkpt lat="44.757579284822405" lon="9.93886586125312"><ele>611.0</ele><time>2026-05-02T20:42:32.999Z</time></trkpt><trkpt lat="44.75754520906151" lon="9.93894332614926"><ele>611.0000000000001</ele><time>2026-05-02T20:42:35.999Z</time></trkpt><trkpt lat="44.75748348947716" lon="9.938999477041117"><ele>611.0</ele><time>2026-05-02T20:42:38.999Z</time></trkpt><trkpt lat="44.75741415831518" lon="9.939013957940778"><ele>611.0000000000001</ele><time>2026-05-02T20:42:41.999Z</time></trkpt><trkpt lat="44.75734696910397" lon="9.938998225469499"><ele>611.0</ele><time>2026-05-02T20:42:44.999Z</time></trkpt><trkpt lat="44.75728564690595" lon="9.93897474131735"><ele>611.0</ele><time>2026-05-02T20:42:47.999Z</time></trkpt><trkpt lat="44.75722092492001" lon="9.93893417852214"><ele>611.0</ele><time>2026-05-02T20:42:49.999Z</time></trkpt><trkpt lat="44.75716613078326" lon="9.938866587509645"><ele>611.0</ele><time>2026-05-02T20:42:52.999Z</time></trkpt><trkpt lat="44.757111374139896" lon="9.938782829308789"><ele>611.0000000000001</ele><time>2026-05-02T20:42:56.998Z</time></trkpt><trkpt lat="44.75708050178258" lon="9.93870520251541"><ele>611.0</ele><time>2026-05-02T20:42:59.998Z</time></trkpt><trkpt lat="44.75705425275753" lon="9.938605513842818"><ele>611.0000000000001</ele><time>2026-05-02T20:43:02.998Z</time></trkpt><trkpt lat="44.75703675074389" lon="9.93849469207535"><ele>611.0</ele><time>2026-05-02T20:43:06.998Z</time></trkpt><trkpt lat="44.757020757830965" lon="9.938407402580435"><ele>611.0</ele><time>2026-05-02T20:43:09.998Z</time></trkpt><trkpt lat="44.75700786779526" lon="9.938315826971552"><ele>611.0</ele><time>2026-05-02T20:43:12.998Z</time></trkpt><trkpt lat="44.756991333493104" lon="9.938205186175189"><ele>611.0</ele><time>2026-05-02T20:43:17Z</time></trkpt><trkpt lat="44.75697964215669" lon="9.938097704265335"><ele>611.0000000000001</ele><time>2026-05-02T20:43:20Z</time></trkpt><trkpt lat="44.75696516383639" lon="9.937996535098991"><ele>611.0</ele><time>2026-05-02T20:43:24Z</time></trkpt><trkpt lat="44.756950618808254" lon="9.937899842892097"><ele>611.3333333333333</ele><time>2026-05-02T20:43:27Z</time></trkpt><trkpt lat="44.75692411954925" lon="9.937777507009685"><ele>611.6666666666666</ele><time>2026-05-02T20:43:30Z</time></trkpt><trkpt lat="44.75690654291852" lon="9.937688637905481"><ele>612.0</ele><time>2026-05-02T20:43:33Z</time></trkpt><trkpt lat="44.75688588540925" lon="9.937565597883502"><ele>612.3333333333334</ele><time>2026-05-02T20:43:37Z</time></trkpt><trkpt lat="44.756874794298945" lon="9.937459803230766"><ele>612.6666666666667</ele><time>2026-05-02T20:43:41Z</time></trkpt><trkpt lat="44.75686667484906" lon="9.937360462227245"><ele>613.0</ele><time>2026-05-02T20:43:44Z</time></trkpt><trkpt lat="44.756861986309914" lon="9.937260616470398"><ele>614.0</ele><time>2026-05-02T20:43:46Z</time></trkpt><trkpt lat="44.75685169056615" lon="9.937172042902423"><ele>615.0</ele><time>2026-05-02T20:43:49Z</time></trkpt><trkpt lat="44.75685532982876" lon="9.937072457957946"><ele>616.0</ele><time>2026-05-02T20:43:53Z</time></trkpt><trkpt lat="44.75686900252563" lon="9.936962215718037"><ele>617.0</ele><time>2026-05-02T20:43:57Z</time></trkpt><trkpt lat="44.75681161968197" lon="9.93701759596084"><ele>618.0</ele><time>2026-05-02T20:44:05.999Z</time></trkpt><trkpt lat="44.75676933032023" lon="9.937090421412469"><ele>619.0</ele><time>2026-05-02T20:44:43.999Z</time></trkpt><trkpt lat="44.7567659125168" lon="9.93720444357865"><ele>620.0</ele><time>2026-05-02T20:44:47.999Z</time></trkpt><trkpt lat="44.75678355346227" lon="9.93731451556258"><ele>620.0</ele><time>2026-05-02T20:46:39.999Z</time></trkpt><trkpt lat="44.75680032971796" lon="9.937423729133574"><ele>620.0</ele><time>2026-05-02T20:46:43.999Z</time></trkpt><trkpt lat="44.756809432393865" lon="9.937529608001483"><ele>620.0</ele><time>2026-05-02T20:46:46.999Z</time></trkpt><trkpt lat="44.756822215519456" lon="9.937649620370564"><ele>620.0</ele><time>2026-05-02T20:46:49.999Z</time></trkpt><trkpt lat="44.7568370052358" lon="9.9377442237045"><ele>620.0</ele><time>2026-05-02T20:46:51.999Z</time></trkpt><trkpt lat="44.756853531378475" lon="9.937846846237077"><ele>620.0</ele><time>2026-05-02T20:46:53.999Z</time></trkpt><trkpt lat="44.75687023898876" lon="9.937961574992546"><ele>618.6</ele><time>2026-05-02T20:46:55.999Z</time></trkpt><trkpt lat="44.75689199014596" lon="9.9380780949837"><ele>617.2</ele><time>2026-05-02T20:46:57.999Z</time></trkpt><trkpt lat="44.75691352500589" lon="9.938200656461534"><ele>615.8</ele><time>2026-05-02T20:46:59.999Z</time></trkpt><trkpt lat="44.75694143838528" lon="9.938323694733498"><ele>614.4</ele><time>2026-05-02T20:47:01.998Z</time></trkpt><trkpt lat="44.75696573890636" lon="9.938466153072856"><ele>613.0</ele><time>2026-05-02T20:47:03.998Z</time></trkpt><trkpt lat="44.75698732901705" lon="9.93861835650988"><ele>612.6</ele><time>2026-05-02T20:47:05.998Z</time></trkpt><trkpt lat="44.75701999001819" lon="9.93875221088669"><ele>612.1999999999999</ele><time>2026-05-02T20:47:07.998Z</time></trkpt><trkpt lat="44.757077936047274" lon="9.938887136705779"><ele>611.8</ele><time>2026-05-02T20:47:09.998Z</time></trkpt><trkpt lat="44.757166036077535" lon="9.938992017770582"><ele>611.4</ele><time>2026-05-02T20:47:11.998Z</time></trkpt><trkpt lat="44.75726875990601" lon="9.939061051119205"><ele>611.0</ele><time>2026-05-02T20:47:13.998Z</time></trkpt><trkpt lat="44.75737515541492" lon="9.939097412305168"><ele>611.0</ele><time>2026-05-02T20:47:15.998Z</time></trkpt><trkpt lat="44.75747866755344" lon="9.939074097859839"><ele>611.0</ele><time>2026-05-02T20:47:17.998Z</time></trkpt><trkpt lat="44.757563509286086" lon="9.938987947288837"><ele>611.0</ele><time>2026-05-02T20:47:19.998Z</time></trkpt><trkpt lat="44.757621687673485" lon="9.938868063725153"><ele>611.0</ele><time>2026-05-02T20:47:21.998Z</time></trkpt><trkpt lat="44.75764887394407" lon="9.938729654442854"><ele>611.0</ele><time>2026-05-02T20:47:23.998Z</time></trkpt><trkpt lat="44.75764153134456" lon="9.938585676821116"><ele>611.0</ele><time>2026-05-02T20:47:26Z</time></trkpt><trkpt lat="44.757584433552516" lon="9.93845993320951"><ele>611.0</ele><time>2026-05-02T20:47:28Z</time></trkpt><trkpt lat="44.757510289625365" lon="9.938361305880102"><ele>611.0</ele><time>2026-05-02T20:47:30Z</time></trkpt><trkpt lat="44.75741928289092" lon="9.938268043696265"><ele>611.0</ele><time>2026-05-02T20:47:32Z</time></trkpt><trkpt lat="44.75732571907213" lon="9.938163100505694"><ele>611.0</ele><time>2026-05-02T20:47:34Z</time></trkpt><trkpt lat="44.75724864333055" lon="9.938029665037346"><ele>611.2857142857143</ele><time>2026-05-02T20:47:36Z</time></trkpt><trkpt lat="44.75722360463845" lon="9.937945926598212"><ele>611.5714285714286</ele><time>2026-05-02T20:47:37Z</time></trkpt><trkpt lat="44.757212910158536" lon="9.937852162713812"><ele>611.8571428571429</ele><time>2026-05-02T20:47:38Z</time></trkpt><trkpt lat="44.757213137599" lon="9.937754538639739"><ele>612.1428571428571</ele><time>2026-05-02T20:47:39Z</time></trkpt><trkpt lat="44.757221484583546" lon="9.93765378731763"><ele>612.4285714285714</ele><time>2026-05-02T20:47:40Z</time></trkpt><trkpt lat="44.75723895077389" lon="9.937556889991074"><ele>612.7142857142858</ele><time>2026-05-02T20:47:41Z</time></trkpt><trkpt lat="44.75726709897106" lon="9.937465800160213"><ele>613.0</ele><time>2026-05-02T20:47:42Z</time></trkpt><trkpt lat="44.75729358817635" lon="9.937379325533644"><ele>612.1428571428571</ele><time>2026-05-02T20:47:43Z</time></trkpt><trkpt lat="44.757322552102906" lon="9.937294721240644"><ele>611.2857142857142</ele><time>2026-05-02T20:47:44Z</time></trkpt><trkpt lat="44.757353648310215" lon="9.937205634083016"><ele>610.4285714285713</ele><time>2026-05-02T20:47:45Z</time></trkpt><trkpt lat="44.757383945017075" lon="9.937113396173459"><ele>609.5714285714286</ele><time>2026-05-02T20:47:46Z</time></trkpt><trkpt lat="44.7574133662768" lon="9.93701976634847"><ele>608.7142857142857</ele><time>2026-05-02T20:47:47Z</time></trkpt><trkpt lat="44.757443839930175" lon="9.93693114679996"><ele>607.8571428571428</ele><time>2026-05-02T20:47:48Z</time></trkpt><trkpt lat="44.75747553722709" lon="9.93684064827006"><ele>607.0</ele><time>2026-05-02T20:47:49Z</time></trkpt><trkpt lat="44.75750542157524" lon="9.936753944623288"><ele>607.7142857142857</ele><time>2026-05-02T20:47:50Z</time></trkpt><trkpt lat="44.75753489620402" lon="9.936668106451334"><ele>608.4285714285714</ele><time>2026-05-02T20:47:51Z</time></trkpt><trkpt lat="44.75756840351047" lon="9.93658219534328"><ele>609.1428571428571</ele><time>2026-05-02T20:47:52Z</time></trkpt><trkpt lat="44.7576000450565" lon="9.936497607689553"><ele>609.8571428571429</ele><time>2026-05-02T20:47:53Z</time></trkpt><trkpt lat="44.75763227533791" lon="9.936409108728649"><ele>610.5714285714286</ele><time>2026-05-02T20:47:54Z</time></trkpt><trkpt lat="44.75767093319871" lon="9.936321732892077"><ele>611.2857142857142</ele><time>2026-05-02T20:47:55Z</time></trkpt><trkpt lat="44.75771283645099" lon="9.93623799770483"><ele>612.0</ele><time>2026-05-02T20:47:56Z</time></trkpt><trkpt lat="44.757760898538706" lon="9.936163160255163"><ele>608.5714285714286</ele><time>2026-05-02T20:47:57Z</time></trkpt><trkpt lat="44.757816887111474" lon="9.936097785212596"><ele>605.1428571428571</ele><time>2026-05-02T20:47:58Z</time></trkpt><trkpt lat="44.75788037688017" lon="9.936040628799523"><ele>601.7142857142858</ele><time>2026-05-02T20:47:59Z</time></trkpt><trkpt lat="44.75794682664212" lon="9.93600735892842"><ele>598.2857142857142</ele><time>2026-05-02T20:48:00Z</time></trkpt><trkpt lat="44.75801468450759" lon="9.935995681183439"><ele>594.8571428571429</ele><time>2026-05-02T20:48:01Z</time></trkpt><trkpt lat="44.75808699480068" lon="9.936008901739756"><ele>591.4285714285714</ele><time>2026-05-02T20:48:02Z</time></trkpt><trkpt lat="44.75815606463572" lon="9.936035329838164"><ele>588.0</ele><time>2026-05-02T20:48:03Z</time></trkpt><trkpt lat="44.75826822148678" lon="9.936088816303602"><ele>588.0</ele><time>2026-05-02T20:48:05Z</time></trkpt><trkpt lat="44.75835020083171" lon="9.936168950153512"><ele>588.0</ele><time>2026-05-02T20:48:07Z</time></trkpt><trkpt lat="44.75835035308928" lon="9.936330927699139"><ele>588.0</ele><time>2026-05-02T20:48:09Z</time></trkpt><trkpt lat="44.75829976930707" lon="9.936401249792999"><ele>588.0</ele><time>2026-05-02T20:48:10Z</time></trkpt><trkpt lat="44.758225352205805" lon="9.936429112720237"><ele>588.0</ele><time>2026-05-02T20:48:11Z</time></trkpt><trkpt lat="44.75816579452499" lon="9.936500692364126"><ele>588.0</ele><time>2026-05-02T20:48:11.999Z</time></trkpt><trkpt lat="44.758108752387216" lon="9.93657264123061"><ele>588.0</ele><time>2026-05-02T20:48:12.999Z</time></trkpt><trkpt lat="44.75805594554659" lon="9.936660285774254"><ele>588.0</ele><time>2026-05-02T20:48:13.999Z</time></trkpt><trkpt lat="44.75800912953234" lon="9.936759740998045"><ele>588.0</ele><time>2026-05-02T20:48:14.999Z</time></trkpt><trkpt lat="44.75797133877771" lon="9.936862728474265"><ele>588.0</ele><time>2026-05-02T20:48:15.999Z</time></trkpt><trkpt lat="44.75792638444364" lon="9.936960926449268"><ele>588.0</ele><time>2026-05-02T20:48:16.999Z</time></trkpt><trkpt lat="44.757923663464844" lon="9.937082273772617"><ele>588.0</ele><time>2026-05-02T20:48:17.999Z</time></trkpt><trkpt lat="44.75789043779337" lon="9.937193265621687"><ele>587.5</ele><time>2026-05-02T20:48:18.999Z</time></trkpt><trkpt lat="44.757883209286746" lon="9.93731592057599"><ele>587.0</ele><time>2026-05-02T20:48:19.999Z</time></trkpt><trkpt lat="44.75788537340255" lon="9.937438732770866"><ele>586.5</ele><time>2026-05-02T20:48:20.999Z</time></trkpt><trkpt lat="44.757914106086496" lon="9.937558053439021"><ele>586.0</ele><time>2026-05-02T20:48:21.999Z</time></trkpt><trkpt lat="44.7579231152781" lon="9.937679288946127"><ele>585.5</ele><time>2026-05-02T20:48:22.999Z</time></trkpt><trkpt lat="44.75795727604712" lon="9.937795069607947"><ele>585.0</ele><time>2026-05-02T20:48:23.999Z</time></trkpt><trkpt lat="44.75802143385413" lon="9.937881401930586"><ele>585.0</ele><time>2026-05-02T20:48:24.999Z</time></trkpt><trkpt lat="44.75807826166514" lon="9.937965441641882"><ele>585.0</ele><time>2026-05-02T20:48:25.999Z</time></trkpt><trkpt lat="44.758138464296074" lon="9.938044941826341"><ele>585.0</ele><time>2026-05-02T20:48:26.999Z</time></trkpt><trkpt lat="44.758185723593044" lon="9.938134981515413"><ele>585.0</ele><time>2026-05-02T20:48:27.999Z</time></trkpt><trkpt lat="44.75821807670793" lon="9.93824233466342"><ele>585.0</ele><time>2026-05-02T20:48:28.999Z</time></trkpt><trkpt lat="44.758235753015555" lon="9.93834895854312"><ele>585.0</ele><time>2026-05-02T20:48:29.999Z</time></trkpt><trkpt lat="44.758248981283984" lon="9.938469594630897"><ele>586.1666666666666</ele><time>2026-05-02T20:48:30.999Z</time></trkpt><trkpt lat="44.758264371897944" lon="9.938575662244556"><ele>587.3333333333334</ele><time>2026-05-02T20:48:31.999Z</time></trkpt><trkpt lat="44.758272673085486" lon="9.938681248451973"><ele>588.5</ele><time>2026-05-02T20:48:32.999Z</time></trkpt><trkpt lat="44.758318695514994" lon="9.938773581226792"><ele>589.6666666666667</ele><time>2026-05-02T20:48:33.999Z</time></trkpt><trkpt lat="44.758385963165935" lon="9.938844774784968"><ele>590.8333333333334</ele><time>2026-05-02T20:48:34.999Z</time></trkpt><trkpt lat="44.758459146457916" lon="9.938892120894524"><ele>592.0</ele><time>2026-05-02T20:48:35.999Z</time></trkpt><trkpt lat="44.75854853682794" lon="9.938887608406038"><ele>588.1666666666667</ele><time>2026-05-02T20:48:36.999Z</time></trkpt><trkpt lat="44.75863264413198" lon="9.938898295702886"><ele>584.3333333333334</ele><time>2026-05-02T20:48:37.999Z</time></trkpt><trkpt lat="44.75871648988848" lon="9.938898539085923"><ele>580.5</ele><time>2026-05-02T20:48:38.999Z</time></trkpt><trkpt lat="44.75879981840965" lon="9.938906558947853"><ele>576.6666666666666</ele><time>2026-05-02T20:48:39.999Z</time></trkpt><trkpt lat="44.758879111614384" lon="9.93892686440781"><ele>572.8333333333333</ele><time>2026-05-02T20:48:40.999Z</time></trkpt><trkpt lat="44.75894841505722" lon="9.938972645020309"><ele>569.0</ele><time>2026-05-02T20:48:41.999Z</time></trkpt><trkpt lat="44.759008540921805" lon="9.939046735212024"><ele>569.0</ele><time>2026-05-02T20:48:42.999Z</time></trkpt><trkpt lat="44.75905839034023" lon="9.939140503688838"><ele>569.0</ele><time>2026-05-02T20:48:43.999Z</time></trkpt><trkpt lat="44.75910011381718" lon="9.939243118729737"><ele>569.0</ele><time>2026-05-02T20:48:44.999Z</time></trkpt><trkpt lat="44.759135054491416" lon="9.939352545964232"><ele>569.0</ele><time>2026-05-02T20:48:45.999Z</time></trkpt><trkpt lat="44.759158931650774" lon="9.939468893740619"><ele>569.0</ele><time>2026-05-02T20:48:46.999Z</time></trkpt><trkpt lat="44.759170192497294" lon="9.939587768550112"><ele>569.0</ele><time>2026-05-02T20:48:47.999Z</time></trkpt><trkpt lat="44.759170844993" lon="9.939705702147391"><ele>569.1666666666666</ele><time>2026-05-02T20:48:48.999Z</time></trkpt><trkpt lat="44.75914921813151" lon="9.939814082505045"><ele>569.3333333333333</ele><time>2026-05-02T20:48:49.999Z</time></trkpt><trkpt lat="44.75910630044725" lon="9.939914464695274"><ele>569.5</ele><time>2026-05-02T20:48:50.999Z</time></trkpt><trkpt lat="44.75905790898021" lon="9.940009167675843"><ele>569.6666666666666</ele><time>2026-05-02T20:48:51.999Z</time></trkpt><trkpt lat="44.759013894057226" lon="9.940102911645718"><ele>569.8333333333334</ele><time>2026-05-02T20:48:52.999Z</time></trkpt><trkpt lat="44.75896401986292" lon="9.940196520858013"><ele>570.0</ele><time>2026-05-02T20:48:53.999Z</time></trkpt><trkpt lat="44.758948034731894" lon="9.940324779091593"><ele>569.1666666666666</ele><time>2026-05-02T20:48:54.999Z</time></trkpt><trkpt lat="44.75895911192987" lon="9.940454911520142"><ele>568.3333333333334</ele><time>2026-05-02T20:48:55.999Z</time></trkpt><trkpt lat="44.75901022899092" lon="9.94056696712704"><ele>567.5</ele><time>2026-05-02T20:48:56.999Z</time></trkpt><trkpt lat="44.75903163010698" lon="9.940684225656929"><ele>566.6666666666667</ele><time>2026-05-02T20:48:57.999Z</time></trkpt><trkpt lat="44.759035939717734" lon="9.940804170435781"><ele>565.8333333333334</ele><time>2026-05-02T20:48:58.999Z</time></trkpt><trkpt lat="44.759030113247896" lon="9.94092922101042"><ele>565.0</ele><time>2026-05-02T20:48:59.999Z</time></trkpt><trkpt lat="44.759014871370624" lon="9.94105446788214"><ele>563.2</ele><time>2026-05-02T20:49:00.999Z</time></trkpt><trkpt lat="44.758982778549914" lon="9.941176731799205"><ele>561.4</ele><time>2026-05-02T20:49:01.999Z</time></trkpt><trkpt lat="44.75896075448967" lon="9.941302668976222"><ele>559.6</ele><time>2026-05-02T20:49:02.999Z</time></trkpt><trkpt lat="44.75894816754115" lon="9.941435473611513"><ele>557.8</ele><time>2026-05-02T20:49:03.999Z</time></trkpt><trkpt lat="44.75891988507786" lon="9.941557888849957"><ele>556.0</ele><time>2026-05-02T20:49:04.999Z</time></trkpt><trkpt lat="44.75889576997648" lon="9.941684692259853"><ele>554.4</ele><time>2026-05-02T20:49:05.999Z</time></trkpt><trkpt lat="44.758875830415974" lon="9.941810672714865"><ele>552.8</ele><time>2026-05-02T20:49:06.998Z</time></trkpt><trkpt lat="44.75885738980195" lon="9.941940682919917"><ele>551.1999999999999</ele><time>2026-05-02T20:49:07.998Z</time></trkpt><trkpt lat="44.758842113659085" lon="9.942073431711776"><ele>549.6</ele><time>2026-05-02T20:49:08.998Z</time></trkpt><trkpt lat="44.758840150303016" lon="9.942209204616152"><ele>548.0</ele><time>2026-05-02T20:49:09.998Z</time></trkpt><trkpt lat="44.75884529611258" lon="9.94234258723395"><ele>548.0</ele><time>2026-05-02T20:49:10.998Z</time></trkpt><trkpt lat="44.75885877985588" lon="9.942474702231616"><ele>548.0</ele><time>2026-05-02T20:49:11.998Z</time></trkpt><trkpt lat="44.75887773687026" lon="9.942600773282852"><ele>548.0</ele><time>2026-05-02T20:49:12.998Z</time></trkpt><trkpt lat="44.758896305188735" lon="9.942718725467861"><ele>548.0</ele><time>2026-05-02T20:49:13.998Z</time></trkpt><trkpt lat="44.75891392197262" lon="9.942822364824508"><ele>548.0</ele><time>2026-05-02T20:49:14.998Z</time></trkpt><trkpt lat="44.75892888546961" lon="9.942912785395455"><ele>548.0</ele><time>2026-05-02T20:49:15.998Z</time></trkpt><trkpt lat="44.758974513065034" lon="9.943052275847418"><ele>547.5</ele><time>2026-05-02T20:49:17.998Z</time></trkpt><trkpt lat="44.75906229305964" lon="9.943091809792206"><ele>547.0</ele><time>2026-05-02T20:49:19.998Z</time></trkpt><trkpt lat="44.75912607959431" lon="9.942957535049"><ele>546.5</ele><time>2026-05-02T20:49:21.998Z</time></trkpt><trkpt lat="44.759123009428265" lon="9.94286345520366"><ele>546.0</ele><time>2026-05-02T20:49:22.998Z</time></trkpt><trkpt lat="44.75911490562709" lon="9.942767613411942"><ele>545.5</ele><time>2026-05-02T20:49:23.998Z</time></trkpt><trkpt lat="44.75911067325111" lon="9.942667921080387"><ele>545.0</ele><time>2026-05-02T20:49:24.998Z</time></trkpt><trkpt lat="44.75910999730112" lon="9.942563249675372"><ele>545.5</ele><time>2026-05-02T20:49:25.998Z</time></trkpt><trkpt lat="44.75911577403432" lon="9.942456355907922"><ele>546.0</ele><time>2026-05-02T20:49:26.998Z</time></trkpt><trkpt lat="44.75913085058711" lon="9.94234951760926"><ele>546.5</ele><time>2026-05-02T20:49:27.998Z</time></trkpt><trkpt lat="44.75915669263844" lon="9.942242132255071"><ele>547.0</ele><time>2026-05-02T20:49:28.998Z</time></trkpt><trkpt lat="44.75919215426036" lon="9.942137046615178"><ele>547.5</ele><time>2026-05-02T20:49:29.998Z</time></trkpt><trkpt lat="44.759236221009424" lon="9.942038312101431"><ele>548.0</ele><time>2026-05-02T20:49:30.998Z</time></trkpt><trkpt lat="44.75928223232219" lon="9.941938779795526"><ele>548.0</ele><time>2026-05-02T20:49:32Z</time></trkpt><trkpt lat="44.75933223109116" lon="9.941840648487782"><ele>548.0</ele><time>2026-05-02T20:49:33Z</time></trkpt><trkpt lat="44.75938355802943" lon="9.941740532323816"><ele>548.0</ele><time>2026-05-02T20:49:34Z</time></trkpt><trkpt lat="44.75943357081752" lon="9.941639957991399"><ele>548.0</ele><time>2026-05-02T20:49:35Z</time></trkpt><trkpt lat="44.75948209678457" lon="9.941538816712756"><ele>548.0</ele><time>2026-05-02T20:49:36Z</time></trkpt><trkpt lat="44.75952954341303" lon="9.94143410162306"><ele>548.0</ele><time>2026-05-02T20:49:37Z</time></trkpt><trkpt lat="44.75957786139914" lon="9.9413301551623"><ele>546.4</ele><time>2026-05-02T20:49:38Z</time></trkpt><trkpt lat="44.75963305768912" lon="9.941229213686977"><ele>544.8</ele><time>2026-05-02T20:49:39Z</time></trkpt><trkpt lat="44.75969004000972" lon="9.941130561655601"><ele>543.2</ele><time>2026-05-02T20:49:40Z</time></trkpt><trkpt lat="44.759747911698206" lon="9.941034995997907"><ele>541.6</ele><time>2026-05-02T20:49:41Z</time></trkpt><trkpt lat="44.75980671887589" lon="9.940939675371757"><ele>540.0</ele><time>2026-05-02T20:49:42Z</time></trkpt><trkpt lat="44.759867855149174" lon="9.940845340771244"><ele>540.0</ele><time>2026-05-02T20:49:43Z</time></trkpt><trkpt lat="44.75992806126529" lon="9.940745664930382"><ele>540.0</ele><time>2026-05-02T20:49:44Z</time></trkpt><trkpt lat="44.75998660764774" lon="9.940654215706497"><ele>540.0</ele><time>2026-05-02T20:49:45Z</time></trkpt><trkpt lat="44.760042807139115" lon="9.940572058566822"><ele>540.0</ele><time>2026-05-02T20:49:46Z</time></trkpt><trkpt lat="44.76009644166443" lon="9.940494673450782"><ele>540.0</ele><time>2026-05-02T20:49:47Z</time></trkpt><trkpt lat="44.760145960729574" lon="9.940421331484739"><ele>540.0</ele><time>2026-05-02T20:49:48Z</time></trkpt><trkpt lat="44.76020647626057" lon="9.940358864335813"><ele>537.6666666666666</ele><time>2026-05-02T20:49:49Z</time></trkpt><trkpt lat="44.76027853287654" lon="9.940315669399393"><ele>535.3333333333334</ele><time>2026-05-02T20:49:50Z</time></trkpt><trkpt lat="44.76035570133696" lon="9.940283664355606"><ele>533.0</ele><time>2026-05-02T20:49:51Z</time></trkpt><trkpt lat="44.760436587484115" lon="9.940253655590464"><ele>530.6666666666667</ele><time>2026-05-02T20:49:52Z</time></trkpt><trkpt lat="44.760518982022624" lon="9.940220302452243"><ele>528.3333333333334</ele><time>2026-05-02T20:49:53Z</time></trkpt><trkpt lat="44.76060242826417" lon="9.940183602090478"><ele>526.0</ele><time>2026-05-02T20:49:54Z</time></trkpt><trkpt lat="44.76068452388317" lon="9.940145596505175"><ele>526.0</ele><time>2026-05-02T20:49:55Z</time></trkpt><trkpt lat="44.76076512983001" lon="9.94010946069495"><ele>526.0</ele><time>2026-05-02T20:49:56Z</time></trkpt><trkpt lat="44.76083988475585" lon="9.940079230082262"><ele>526.0</ele><time>2026-05-02T20:49:57Z</time></trkpt><trkpt lat="44.76090601734617" lon="9.94007045794265"><ele>526.0</ele><time>2026-05-02T20:49:58Z</time></trkpt><trkpt lat="44.76099731769331" lon="9.940137769058587"><ele>526.0</ele><time>2026-05-02T20:50:00Z</time></trkpt><trkpt lat="44.760990476472784" lon="9.940307419963661"><ele>526.0</ele><time>2026-05-02T20:50:02Z</time></trkpt><trkpt lat="44.760941659396124" lon="9.940383606150501"><ele>526.0</ele><time>2026-05-02T20:50:03Z</time></trkpt><trkpt lat="44.760890430892445" lon="9.940455942892935"><ele>526.0</ele><time>2026-05-02T20:50:04Z</time></trkpt><trkpt lat="44.76084128149375" lon="9.940532902496658"><ele>526.0</ele><time>2026-05-02T20:50:05Z</time></trkpt><trkpt lat="44.760789723440055" lon="9.940614031644856"><ele>526.0</ele><time>2026-05-02T20:50:06Z</time></trkpt><trkpt lat="44.76073598177733" lon="9.940695024671646"><ele>526.0</ele><time>2026-05-02T20:50:07Z</time></trkpt><trkpt lat="44.760681300482545" lon="9.940782943363335"><ele>526.0</ele><time>2026-05-02T20:50:08Z</time></trkpt><trkpt lat="44.76062162406361" lon="9.940874972588611"><ele>526.0</ele><time>2026-05-02T20:50:09Z</time></trkpt><trkpt lat="44.760574130426136" lon="9.940971774460337"><ele>526.0</ele><time>2026-05-02T20:50:10Z</time></trkpt><trkpt lat="44.76053061417352" lon="9.941075608304406"><ele>526.0</ele><time>2026-05-02T20:50:11Z</time></trkpt><trkpt lat="44.760494420910774" lon="9.941190925300889"><ele>526.0</ele><time>2026-05-02T20:50:12Z</time></trkpt><trkpt lat="44.760464607652345" lon="9.941309849793436"><ele>526.0</ele><time>2026-05-02T20:50:13Z</time></trkpt><trkpt lat="44.76043855286425" lon="9.941428968803685"><ele>523.8</ele><time>2026-05-02T20:50:14Z</time></trkpt><trkpt lat="44.7604107151912" lon="9.941551647839468"><ele>521.6</ele><time>2026-05-02T20:50:15Z</time></trkpt><trkpt lat="44.76038763825197" lon="9.941673259062393"><ele>519.4</ele><time>2026-05-02T20:50:15.999Z</time></trkpt><trkpt lat="44.76036418112362" lon="9.94179550822987"><ele>517.2</ele><time>2026-05-02T20:50:16.999Z</time></trkpt><trkpt lat="44.760324982460126" lon="9.94191379236647"><ele>515.0</ele><time>2026-05-02T20:50:17.999Z</time></trkpt><trkpt lat="44.76030267448495" lon="9.942038482921534"><ele>515.0</ele><time>2026-05-02T20:50:18.999Z</time></trkpt><trkpt lat="44.76028241424078" lon="9.942162795501273"><ele>515.0</ele><time>2026-05-02T20:50:19.999Z</time></trkpt><trkpt lat="44.760264263824645" lon="9.94228344549104"><ele>515.0</ele><time>2026-05-02T20:50:20.999Z</time></trkpt><trkpt lat="44.76024929826629" lon="9.942403565443989"><ele>515.0</ele><time>2026-05-02T20:50:21.999Z</time></trkpt><trkpt lat="44.76024020939927" lon="9.942521094970033"><ele>515.0</ele><time>2026-05-02T20:50:22.999Z</time></trkpt><trkpt lat="44.76025476264145" lon="9.942640659422201"><ele>515.0</ele><time>2026-05-02T20:50:23.999Z</time></trkpt><trkpt lat="44.7603177008959" lon="9.942736554147153"><ele>515.0</ele><time>2026-05-02T20:50:24.999Z</time></trkpt><trkpt lat="44.76036623205387" lon="9.942830984341004"><ele>515.0</ele><time>2026-05-02T20:50:25.999Z</time></trkpt><trkpt lat="44.76041953591471" lon="9.942921317038499"><ele>515.0</ele><time>2026-05-02T20:50:26.999Z</time></trkpt><trkpt lat="44.760472415353824" lon="9.943016134959342"><ele>515.0</ele><time>2026-05-02T20:50:27.999Z</time></trkpt><trkpt lat="44.76051632825171" lon="9.9431186774778"><ele>515.0</ele><time>2026-05-02T20:50:28.999Z</time></trkpt><trkpt lat="44.76054588002629" lon="9.943226532310756"><ele>515.0</ele><time>2026-05-02T20:50:29.999Z</time></trkpt><trkpt lat="44.76057180428601" lon="9.943343479509764"><ele>514.1666666666666</ele><time>2026-05-02T20:50:30.999Z</time></trkpt><trkpt lat="44.760598478663496" lon="9.94346080954576"><ele>513.3333333333333</ele><time>2026-05-02T20:50:31.999Z</time></trkpt><trkpt lat="44.76062598841006" lon="9.943583452100436"><ele>512.5</ele><time>2026-05-02T20:50:32.999Z</time></trkpt><trkpt lat="44.7606544097431" lon="9.943702142900085"><ele>511.66666666666663</ele><time>2026-05-02T20:50:33.999Z</time></trkpt><trkpt lat="44.76068341813582" lon="9.94381278940778"><ele>510.8333333333333</ele><time>2026-05-02T20:50:34.999Z</time></trkpt><trkpt lat="44.760721308067986" lon="9.943914148739255"><ele>510.0</ele><time>2026-05-02T20:50:35.999Z</time></trkpt><trkpt lat="44.76076385215226" lon="9.943999019831896"><ele>510.0</ele><time>2026-05-02T20:50:36.999Z</time></trkpt><trkpt lat="44.76086354790443" lon="9.944080714305162"><ele>510.0</ele><time>2026-05-02T20:50:38.999Z</time></trkpt><trkpt lat="44.76096447504624" lon="9.944012400777613"><ele>510.0</ele><time>2026-05-02T20:50:40.999Z</time></trkpt><trkpt lat="44.76099316791951" lon="9.943927619871516"><ele>510.0</ele><time>2026-05-02T20:50:41.999Z</time></trkpt><trkpt lat="44.76101125163325" lon="9.943837015966595"><ele>510.0</ele><time>2026-05-02T20:50:42.999Z</time></trkpt><trkpt lat="44.76103341307" lon="9.943747158100969"><ele>510.0</ele><time>2026-05-02T20:50:43.999Z</time></trkpt><trkpt lat="44.761051684905624" lon="9.94365299341808"><ele>510.8333333333333</ele><time>2026-05-02T20:50:44.999Z</time></trkpt><trkpt lat="44.76106444801393" lon="9.943553704177324"><ele>511.66666666666663</ele><time>2026-05-02T20:50:45.999Z</time></trkpt><trkpt lat="44.761069866008356" lon="9.943451470780541"><ele>512.5</ele><time>2026-05-02T20:50:46.999Z</time></trkpt><trkpt lat="44.76106330401571" lon="9.943343182366014"><ele>513.3333333333333</ele><time>2026-05-02T20:50:47.999Z</time></trkpt><trkpt lat="44.761047136279345" lon="9.943234622266997"><ele>514.1666666666666</ele><time>2026-05-02T20:50:48.999Z</time></trkpt><trkpt lat="44.7610219451983" lon="9.943126395282817"><ele>515.0</ele><time>2026-05-02T20:50:49.999Z</time></trkpt><trkpt lat="44.76099572455019" lon="9.943020801616866"><ele>515.0</ele><time>2026-05-02T20:50:50.999Z</time></trkpt><trkpt lat="44.76097771368359" lon="9.942916233213358"><ele>515.0</ele><time>2026-05-02T20:50:51.999Z</time></trkpt><trkpt lat="44.76097220534299" lon="9.942806272081992"><ele>515.0</ele><time>2026-05-02T20:50:52.999Z</time></trkpt><trkpt lat="44.76098366680508" lon="9.942703377088337"><ele>515.0</ele><time>2026-05-02T20:50:53.999Z</time></trkpt><trkpt lat="44.76100889737765" lon="9.942605048824399"><ele>515.0</ele><time>2026-05-02T20:50:54.999Z</time></trkpt><trkpt lat="44.7610475214335" lon="9.942508242030206"><ele>515.0</ele><time>2026-05-02T20:50:55.999Z</time></trkpt><trkpt lat="44.761093633226494" lon="9.942414318827579"><ele>511.66666666666663</ele><time>2026-05-02T20:50:56.999Z</time></trkpt><trkpt lat="44.76114110553021" lon="9.942317028316241"><ele>508.3333333333333</ele><time>2026-05-02T20:50:57.999Z</time></trkpt><trkpt lat="44.76119111167073" lon="9.942220984689273"><ele>505.0</ele><time>2026-05-02T20:50:58.999Z</time></trkpt><trkpt lat="44.761242635147745" lon="9.942126532936236"><ele>501.66666666666663</ele><time>2026-05-02T20:50:59.999Z</time></trkpt><trkpt lat="44.76129492331978" lon="9.942031584827456"><ele>498.3333333333333</ele><time>2026-05-02T20:51:00.999Z</time></trkpt><trkpt lat="44.76135096034925" lon="9.94194762129959"><ele>495.0</ele><time>2026-05-02T20:51:01.999Z</time></trkpt><trkpt lat="44.76141206078979" lon="9.94186972696186"><ele>495.0</ele><time>2026-05-02T20:51:02.999Z</time></trkpt><trkpt lat="44.76147491453843" lon="9.941801324398869"><ele>495.0</ele><time>2026-05-02T20:51:03.999Z</time></trkpt><trkpt lat="44.76154480694479" lon="9.941743076375253"><ele>495.0</ele><time>2026-05-02T20:51:04.999Z</time></trkpt><trkpt lat="44.76162079570593" lon="9.941701472289104"><ele>495.0</ele><time>2026-05-02T20:51:05.999Z</time></trkpt><trkpt lat="44.761699425446814" lon="9.941675289901724"><ele>495.0</ele><time>2026-05-02T20:51:06.999Z</time></trkpt><trkpt lat="44.76178258540685" lon="9.941657365570848"><ele>495.0</ele><time>2026-05-02T20:51:07.999Z</time></trkpt><trkpt lat="44.76186447687421" lon="9.941662583227645"><ele>494.3333333333333</ele><time>2026-05-02T20:51:08.999Z</time></trkpt><trkpt lat="44.761945524270914" lon="9.941679505322005"><ele>493.66666666666663</ele><time>2026-05-02T20:51:09.999Z</time></trkpt><trkpt lat="44.762024010645476" lon="9.941688042313668"><ele>493.0</ele><time>2026-05-02T20:51:10.998Z</time></trkpt><trkpt lat="44.762104353541716" lon="9.941669755520797"><ele>492.3333333333333</ele><time>2026-05-02T20:51:11.998Z</time></trkpt><trkpt lat="44.7621832870856" lon="9.941623674377999"><ele>491.66666666666663</ele><time>2026-05-02T20:51:12.998Z</time></trkpt><trkpt lat="44.76225568721854" lon="9.941557210339937"><ele>491.0</ele><time>2026-05-02T20:51:13.998Z</time></trkpt><trkpt lat="44.76232104428749" lon="9.941468925291938"><ele>490.99999999999994</ele><time>2026-05-02T20:51:14.998Z</time></trkpt><trkpt lat="44.76238307280162" lon="9.941370063805534"><ele>491.0</ele><time>2026-05-02T20:51:15.998Z</time></trkpt><trkpt lat="44.76244004553859" lon="9.94127446130195"><ele>491.0</ele><time>2026-05-02T20:51:16.998Z</time></trkpt><trkpt lat="44.762492323278465" lon="9.941186802536146"><ele>491.0</ele><time>2026-05-02T20:51:17.998Z</time></trkpt><trkpt lat="44.76255043723366" lon="9.941114586177724"><ele>490.99999999999994</ele><time>2026-05-02T20:51:18.998Z</time></trkpt><trkpt lat="44.762619522930905" lon="9.94105675786673"><ele>491.0</ele><time>2026-05-02T20:51:19.998Z</time></trkpt><trkpt lat="44.76268899465848" lon="9.941026071507503"><ele>489.1428571428571</ele><time>2026-05-02T20:51:20.998Z</time></trkpt><trkpt lat="44.762758838508155" lon="9.941046409561988"><ele>487.2857142857142</ele><time>2026-05-02T20:51:21.998Z</time></trkpt><trkpt lat="44.76282883851853" lon="9.941084002398204"><ele>485.42857142857144</ele><time>2026-05-02T20:51:22.998Z</time></trkpt><trkpt lat="44.762898717151" lon="9.941122506647087"><ele>483.57142857142856</ele><time>2026-05-02T20:51:23.998Z</time></trkpt><trkpt lat="44.76297089132888" lon="9.941157089469145"><ele>481.7142857142857</ele><time>2026-05-02T20:51:24.998Z</time></trkpt><trkpt lat="44.763044799155935" lon="9.941184530437098"><ele>479.8571428571429</ele><time>2026-05-02T20:51:25.998Z</time></trkpt><trkpt lat="44.76312002217371" lon="9.941193947183724"><ele>478.00000000000006</ele><time>2026-05-02T20:51:26.998Z</time></trkpt><trkpt lat="44.76319889475562" lon="9.941174269766183"><ele>478.00000000000006</ele><time>2026-05-02T20:51:27.998Z</time></trkpt><trkpt lat="44.76327868403637" lon="9.941134720879848"><ele>478.0</ele><time>2026-05-02T20:51:28.998Z</time></trkpt><trkpt lat="44.763360234088054" lon="9.94108774473397"><ele>478.0</ele><time>2026-05-02T20:51:29.998Z</time></trkpt><trkpt lat="44.76344232596486" lon="9.9410334551277"><ele>478.0</ele><time>2026-05-02T20:51:30.998Z</time></trkpt><trkpt lat="44.76352186873911" lon="9.940977596138717"><ele>478.00000000000006</ele><time>2026-05-02T20:51:31.998Z</time></trkpt><trkpt lat="44.76359494237201" lon="9.94092104812354"><ele>478.0</ele><time>2026-05-02T20:51:32.998Z</time></trkpt><trkpt lat="44.763660025112024" lon="9.940858103305759"><ele>476.83333333333337</ele><time>2026-05-02T20:51:33.998Z</time></trkpt><trkpt lat="44.763714593774104" lon="9.940781944020427"><ele>475.6666666666667</ele><time>2026-05-02T20:51:34.998Z</time></trkpt><trkpt lat="44.76376379633565" lon="9.94069588131742"><ele>474.5</ele><time>2026-05-02T20:51:35.998Z</time></trkpt><trkpt lat="44.76380090034928" lon="9.940609659865041"><ele>473.33333333333337</ele><time>2026-05-02T20:51:36.998Z</time></trkpt><trkpt lat="44.763866251433775" lon="9.940486126940744"><ele>472.1666666666667</ele><time>2026-05-02T20:51:39Z</time></trkpt><trkpt lat="44.76395292831852" lon="9.940478035497303"><ele>471.0</ele><time>2026-05-02T20:51:41Z</time></trkpt><trkpt lat="44.76394762775607" lon="9.940643144377745"><ele>471.0</ele><time>2026-05-02T20:51:43Z</time></trkpt><trkpt lat="44.76390073689685" lon="9.940813882503816"><ele>471.0</ele><time>2026-05-02T20:51:45Z</time></trkpt><trkpt lat="44.76386628981005" lon="9.94090496457058"><ele>471.0</ele><time>2026-05-02T20:51:46Z</time></trkpt><trkpt lat="44.76382499999975" lon="9.940997480459393"><ele>471.0</ele><time>2026-05-02T20:51:47Z</time></trkpt><trkpt lat="44.76377601407556" lon="9.941089721270659"><ele>471.0</ele><time>2026-05-02T20:51:48Z</time></trkpt><trkpt lat="44.763725920724525" lon="9.941179163428927"><ele>471.0</ele><time>2026-05-02T20:51:49Z</time></trkpt><trkpt lat="44.763672650833975" lon="9.941271255551438"><ele>470.1666666666667</ele><time>2026-05-02T20:51:50Z</time></trkpt><trkpt lat="44.76362218169845" lon="9.941366876777952"><ele>469.33333333333337</ele><time>2026-05-02T20:51:51Z</time></trkpt><trkpt lat="44.763573674015454" lon="9.941464784835798"><ele>468.5</ele><time>2026-05-02T20:51:52Z</time></trkpt><trkpt lat="44.763524624077135" lon="9.941564857785623"><ele>467.6666666666667</ele><time>2026-05-02T20:51:53Z</time></trkpt><trkpt lat="44.76347484184971" lon="9.941662573562116"><ele>466.83333333333337</ele><time>2026-05-02T20:51:54Z</time></trkpt><trkpt lat="44.763422171989504" lon="9.941761527404777"><ele>466.0</ele><time>2026-05-02T20:51:55Z</time></trkpt><trkpt lat="44.763371909255106" lon="9.941860953928392"><ele>466.00000000000006</ele><time>2026-05-02T20:51:56Z</time></trkpt><trkpt lat="44.76332237164568" lon="9.941964577490133"><ele>466.0</ele><time>2026-05-02T20:51:57Z</time></trkpt><trkpt lat="44.76327596287692" lon="9.942065056768444"><ele>466.0</ele><time>2026-05-02T20:51:58Z</time></trkpt><trkpt lat="44.763229760729565" lon="9.942168194014226"><ele>466.0</ele><time>2026-05-02T20:51:59Z</time></trkpt><trkpt lat="44.76318627289953" lon="9.942269880599659"><ele>466.00000000000006</ele><time>2026-05-02T20:52:00Z</time></trkpt><trkpt lat="44.76314632002274" lon="9.94236849284871"><ele>466.0</ele><time>2026-05-02T20:52:01Z</time></trkpt><trkpt lat="44.763112783282665" lon="9.942464241152914"><ele>465.7142857142857</ele><time>2026-05-02T20:52:02Z</time></trkpt><trkpt lat="44.76309179840442" lon="9.942562351402652"><ele>465.42857142857144</ele><time>2026-05-02T20:52:03Z</time></trkpt><trkpt lat="44.76309978035978" lon="9.942657917006654"><ele>465.14285714285717</ele><time>2026-05-02T20:52:04Z</time></trkpt><trkpt lat="44.763139008531596" lon="9.942737577445257"><ele>464.8571428571429</ele><time>2026-05-02T20:52:05Z</time></trkpt><trkpt lat="44.76320468938774" lon="9.942786065180444"><ele>464.57142857142856</ele><time>2026-05-02T20:52:06Z</time></trkpt><trkpt lat="44.76328331810587" lon="9.942796997801658"><ele>464.28571428571433</ele><time>2026-05-02T20:52:07Z</time></trkpt><trkpt lat="44.763365627077995" lon="9.942772877142456"><ele>464.00000000000006</ele><time>2026-05-02T20:52:08Z</time></trkpt><trkpt lat="44.76344777523605" lon="9.94273923357184"><ele>462.2</ele><time>2026-05-02T20:52:09Z</time></trkpt><trkpt lat="44.763535175933626" lon="9.942700081186892"><ele>460.4</ele><time>2026-05-02T20:52:10Z</time></trkpt><trkpt lat="44.7636246957909" lon="9.942653296185387"><ele>458.6</ele><time>2026-05-02T20:52:11Z</time></trkpt><trkpt lat="44.76371266797268" lon="9.942591558105395"><ele>456.8</ele><time>2026-05-02T20:52:12Z</time></trkpt><trkpt lat="44.763798438058515" lon="9.942520776808164"><ele>455.0</ele><time>2026-05-02T20:52:13Z</time></trkpt><trkpt lat="44.763880144968894" lon="9.942439399087291"><ele>455.0</ele><time>2026-05-02T20:52:14Z</time></trkpt><trkpt lat="44.76395790785176" lon="9.942354335086415"><ele>455.0</ele><time>2026-05-02T20:52:15Z</time></trkpt><trkpt lat="44.764035199130376" lon="9.942275593222668"><ele>455.0</ele><time>2026-05-02T20:52:16Z</time></trkpt><trkpt lat="44.76411519638257" lon="9.942201289838804"><ele>455.0</ele><time>2026-05-02T20:52:17Z</time></trkpt><trkpt lat="44.764195479440886" lon="9.942128332198669"><ele>455.0</ele><time>2026-05-02T20:52:18Z</time></trkpt><trkpt lat="44.76427772915789" lon="9.942054386581571"><ele>455.0</ele><time>2026-05-02T20:52:19Z</time></trkpt><trkpt lat="44.764363007836145" lon="9.941980753538619"><ele>455.0</ele><time>2026-05-02T20:52:19.999Z</time></trkpt><trkpt lat="44.764452266259795" lon="9.941914747278737"><ele>455.0</ele><time>2026-05-02T20:52:20.999Z</time></trkpt><trkpt lat="44.76453890046244" lon="9.941853562518164"><ele>455.0</ele><time>2026-05-02T20:52:21.999Z</time></trkpt><trkpt lat="44.764622802386235" lon="9.941791476585419"><ele>455.0</ele><time>2026-05-02T20:52:22.999Z</time></trkpt><trkpt lat="44.764707491614416" lon="9.941726872925686"><ele>452.8</ele><time>2026-05-02T20:52:23.999Z</time></trkpt><trkpt lat="44.764792859208924" lon="9.941661983841561"><ele>450.6</ele><time>2026-05-02T20:52:24.999Z</time></trkpt><trkpt lat="44.76487734553393" lon="9.941596279816709"><ele>448.4</ele><time>2026-05-02T20:52:25.999Z</time></trkpt><trkpt lat="44.76496338088271" lon="9.941533964339886"><ele>446.2</ele><time>2026-05-02T20:52:26.999Z</time></trkpt><trkpt lat="44.76504854613934" lon="9.941465543428912"><ele>444.0</ele><time>2026-05-02T20:52:27.999Z</time></trkpt><trkpt lat="44.76513365931516" lon="9.941397397221623"><ele>441.6</ele><time>2026-05-02T20:52:28.999Z</time></trkpt><trkpt lat="44.765219339367555" lon="9.941337101550388"><ele>439.2</ele><time>2026-05-02T20:52:29.999Z</time></trkpt><trkpt lat="44.76530820076649" lon="9.941275720961496"><ele>436.80000000000007</ele><time>2026-05-02T20:52:30.999Z</time></trkpt><trkpt lat="44.76539907789038" lon="9.941205848366618"><ele>434.40000000000003</ele><time>2026-05-02T20:52:31.999Z</time></trkpt><trkpt lat="44.765490127421806" lon="9.941132793788636"><ele>432.0</ele><time>2026-05-02T20:52:32.999Z</time></trkpt><trkpt lat="44.76558072615134" lon="9.941065055105652"><ele>432.0</ele><time>2026-05-02T20:52:33.999Z</time></trkpt><trkpt lat="44.76567128357118" lon="9.94100265172895"><ele>432.00000000000006</ele><time>2026-05-02T20:52:34.999Z</time></trkpt><trkpt lat="44.765762083034424" lon="9.940955494217375"><ele>432.00000000000006</ele><time>2026-05-02T20:52:35.999Z</time></trkpt><trkpt lat="44.76585238286052" lon="9.940913407277865"><ele>432.0</ele><time>2026-05-02T20:52:36.999Z</time></trkpt><trkpt lat="44.76594368084266" lon="9.940878044066837"><ele>432.0</ele><time>2026-05-02T20:52:37.999Z</time></trkpt><trkpt lat="44.76603526143425" lon="9.940840231158921"><ele>432.0</ele><time>2026-05-02T20:52:38.999Z</time></trkpt><trkpt lat="44.766126022674904" lon="9.940800649396747"><ele>432.00000000000006</ele><time>2026-05-02T20:52:39.999Z</time></trkpt><trkpt lat="44.7662147916691" lon="9.94076083529317"><ele>432.00000000000006</ele><time>2026-05-02T20:52:40.999Z</time></trkpt><trkpt lat="44.76630414779421" lon="9.940722464742562"><ele>432.0</ele><time>2026-05-02T20:52:41.999Z</time></trkpt><trkpt lat="44.76639643205587" lon="9.940684058562551"><ele>432.0</ele><time>2026-05-02T20:52:42.999Z</time></trkpt><trkpt lat="44.76648778339725" lon="9.940643619318557"><ele>432.0</ele><time>2026-05-02T20:52:43.999Z</time></trkpt><trkpt lat="44.766580561902074" lon="9.940599624132771"><ele>432.00000000000006</ele><time>2026-05-02T20:52:44.999Z</time></trkpt><trkpt lat="44.76667764622798" lon="9.940565110917776"><ele>432.00000000000006</ele><time>2026-05-02T20:52:45.999Z</time></trkpt><trkpt lat="44.76677659317229" lon="9.940535617220101"><ele>432.0</ele><time>2026-05-02T20:52:46.999Z</time></trkpt><trkpt lat="44.76687939500944" lon="9.94050948026092"><ele>432.0</ele><time>2026-05-02T20:52:47.999Z</time></trkpt><trkpt lat="44.766984042344795" lon="9.940481922394541"><ele>431.40000000000003</ele><time>2026-05-02T20:52:48.999Z</time></trkpt><trkpt lat="44.767090055908696" lon="9.940453644106562"><ele>430.80000000000007</ele><time>2026-05-02T20:52:49.999Z</time></trkpt><trkpt lat="44.767192896771384" lon="9.94043205977194"><ele>430.2</ele><time>2026-05-02T20:52:50.999Z</time></trkpt><trkpt lat="44.76729292038809" lon="9.940414245434116"><ele>429.6</ele><time>2026-05-02T20:52:51.999Z</time></trkpt><trkpt lat="44.76739108669519" lon="9.940392401202695"><ele>429.0</ele><time>2026-05-02T20:52:52.999Z</time></trkpt><trkpt lat="44.76748911564523" lon="9.940371652789334"><ele>429.0</ele><time>2026-05-02T20:52:53.999Z</time></trkpt><trkpt lat="44.76758798306671" lon="9.940350686110921"><ele>429.0</ele><time>2026-05-02T20:52:54.999Z</time></trkpt><trkpt lat="44.76769035375529" lon="9.94033781215774"><ele>429.0</ele><time>2026-05-02T20:52:55.999Z</time></trkpt><trkpt lat="44.76779415029582" lon="9.940339044685103"><ele>429.0</ele><time>2026-05-02T20:52:56.999Z</time></trkpt><trkpt lat="44.76789495478579" lon="9.94035219834179"><ele>429.0</ele><time>2026-05-02T20:52:57.999Z</time></trkpt><trkpt lat="44.76799150602444" lon="9.940376707172673"><ele>428.3333333333333</ele><time>2026-05-02T20:52:58.999Z</time></trkpt><trkpt lat="44.76807932863638" lon="9.940415852405275"><ele>427.66666666666663</ele><time>2026-05-02T20:52:59.999Z</time></trkpt><trkpt lat="44.768168004067206" lon="9.940463669060307"><ele>427.0</ele><time>2026-05-02T20:53:00.999Z</time></trkpt><trkpt lat="44.7682492178066" lon="9.940518933686095"><ele>426.3333333333333</ele><time>2026-05-02T20:53:01.999Z</time></trkpt><trkpt lat="44.76832041333871" lon="9.94058200601903"><ele>425.66666666666663</ele><time>2026-05-02T20:53:02.999Z</time></trkpt><trkpt lat="44.76838773359135" lon="9.940660803876428"><ele>425.0</ele><time>2026-05-02T20:53:03.999Z</time></trkpt><trkpt lat="44.768447767495665" lon="9.940754876157575"><ele>425.0</ele><time>2026-05-02T20:53:04.999Z</time></trkpt><trkpt lat="44.768485182098054" lon="9.940874189706875"><ele>425.0</ele><time>2026-05-02T20:53:05.999Z</time></trkpt><trkpt lat="44.768514112343375" lon="9.940993684701992"><ele>425.0</ele><time>2026-05-02T20:53:06.999Z</time></trkpt><trkpt lat="44.768539112210334" lon="9.941116831356508"><ele>425.0</ele><time>2026-05-02T20:53:07.999Z</time></trkpt><trkpt lat="44.76856572308128" lon="9.941247236896446"><ele>425.0</ele><time>2026-05-02T20:53:08.999Z</time></trkpt><trkpt lat="44.768603678257385" lon="9.941365035890275"><ele>423.0</ele><time>2026-05-02T20:53:09.999Z</time></trkpt><trkpt lat="44.768659552337226" lon="9.941467376469209"><ele>421.0</ele><time>2026-05-02T20:53:10.999Z</time></trkpt><trkpt lat="44.76873962031949" lon="9.941544452878793"><ele>419.0</ele><time>2026-05-02T20:53:11.999Z</time></trkpt><trkpt lat="44.768819207655376" lon="9.941608233529998"><ele>417.0</ele><time>2026-05-02T20:53:12.999Z</time></trkpt><trkpt lat="44.76890523891192" lon="9.941664051557856"><ele>415.0</ele><time>2026-05-02T20:53:13.999Z</time></trkpt><trkpt lat="44.76900281055566" lon="9.941689839824376"><ele>414.2</ele><time>2026-05-02T20:53:14.998Z</time></trkpt><trkpt lat="44.76909584411831" lon="9.941730822658881"><ele>413.4</ele><time>2026-05-02T20:53:15.998Z</time></trkpt><trkpt lat="44.76919235805422" lon="9.941757365674018"><ele>412.6</ele><time>2026-05-02T20:53:16.998Z</time></trkpt><trkpt lat="44.76928655835901" lon="9.941774695805236"><ele>411.8</ele><time>2026-05-02T20:53:17.998Z</time></trkpt><trkpt lat="44.76937960111315" lon="9.941779141649034"><ele>411.0</ele><time>2026-05-02T20:53:18.998Z</time></trkpt><trkpt lat="44.76946856020141" lon="9.941762675792937"><ele>411.20000000000005</ele><time>2026-05-02T20:53:19.998Z</time></trkpt><trkpt lat="44.76955289222196" lon="9.941721263860737"><ele>411.40000000000003</ele><time>2026-05-02T20:53:20.998Z</time></trkpt><trkpt lat="44.76964103544845" lon="9.941689846344381"><ele>411.6</ele><time>2026-05-02T20:53:21.998Z</time></trkpt><trkpt lat="44.76971040072214" lon="9.941602579217212"><ele>411.8</ele><time>2026-05-02T20:53:22.998Z</time></trkpt><trkpt lat="44.769795258888834" lon="9.941547083478898"><ele>412.0</ele><time>2026-05-02T20:53:23.998Z</time></trkpt><trkpt lat="44.76985371293781" lon="9.941439232664814"><ele>412.0</ele><time>2026-05-02T20:53:24.998Z</time></trkpt><trkpt lat="44.769916665369095" lon="9.941339931069956"><ele>412.0</ele><time>2026-05-02T20:53:25.998Z</time></trkpt><trkpt lat="44.76996957248126" lon="9.941231208060572"><ele>412.0</ele><time>2026-05-02T20:53:26.998Z</time></trkpt><trkpt lat="44.770019732831734" lon="9.94111739736053"><ele>412.0</ele><time>2026-05-02T20:53:27.998Z</time></trkpt><trkpt lat="44.77006625542591" lon="9.941003373566849"><ele>412.0</ele><time>2026-05-02T20:53:28.998Z</time></trkpt><trkpt lat="44.77010977270553" lon="9.94088688587409"><ele>411.1666666666667</ele><time>2026-05-02T20:53:29.998Z</time></trkpt><trkpt lat="44.77015132843817" lon="9.940771501902635"><ele>410.33333333333337</ele><time>2026-05-02T20:53:30.998Z</time></trkpt><trkpt lat="44.770191361321125" lon="9.940664172050202"><ele>409.5</ele><time>2026-05-02T20:53:31.998Z</time></trkpt><trkpt lat="44.770237054934675" lon="9.940570278550414"><ele>408.66666666666663</ele><time>2026-05-02T20:53:32.998Z</time></trkpt><trkpt lat="44.77028931376172" lon="9.940490649561761"><ele>407.8333333333333</ele><time>2026-05-02T20:53:33.998Z</time></trkpt><trkpt lat="44.7703546712327" lon="9.940425970730427"><ele>407.0</ele><time>2026-05-02T20:53:34.998Z</time></trkpt><trkpt lat="44.77043295605218" lon="9.940404172098491"><ele>404.20000000000005</ele><time>2026-05-02T20:53:35.998Z</time></trkpt><trkpt lat="44.77051190850276" lon="9.940373813020875"><ele>401.4</ele><time>2026-05-02T20:53:36.998Z</time></trkpt><trkpt lat="44.77059585341333" lon="9.940342739475147"><ele>398.6</ele><time>2026-05-02T20:53:37.998Z</time></trkpt><trkpt lat="44.77068156770454" lon="9.940300802522874"><ele>395.79999999999995</ele><time>2026-05-02T20:53:38.998Z</time></trkpt><trkpt lat="44.77076859407697" lon="9.94024182925143"><ele>393.0</ele><time>2026-05-02T20:53:39.998Z</time></trkpt><trkpt lat="44.77085321288913" lon="9.940174984262173"><ele>393.0</ele><time>2026-05-02T20:53:40.998Z</time></trkpt><trkpt lat="44.77093423250606" lon="9.940108335395166"><ele>393.0</ele><time>2026-05-02T20:53:41.998Z</time></trkpt><trkpt lat="44.77100602099413" lon="9.94003452477663"><ele>393.0</ele><time>2026-05-02T20:53:42.998Z</time></trkpt><trkpt lat="44.77108690067073" lon="9.939977189294435"><ele>393.0</ele><time>2026-05-02T20:53:44Z</time></trkpt><trkpt lat="44.77116894180333" lon="9.93992123882243"><ele>393.0</ele><time>2026-05-02T20:53:45Z</time></trkpt><trkpt lat="44.77124959595988" lon="9.939877533709693"><ele>390.5</ele><time>2026-05-02T20:53:46Z</time></trkpt><trkpt lat="44.7713290822957" lon="9.939835002672508"><ele>388.0</ele><time>2026-05-02T20:53:47Z</time></trkpt><trkpt lat="44.77140913602602" lon="9.939796432364473"><ele>385.5</ele><time>2026-05-02T20:53:48Z</time></trkpt><trkpt lat="44.771487628004465" lon="9.939754270112575"><ele>383.0</ele><time>2026-05-02T20:53:49Z</time></trkpt><trkpt lat="44.771561452986035" lon="9.939708392207244"><ele>380.5</ele><time>2026-05-02T20:53:50Z</time></trkpt><trkpt lat="44.771629935351974" lon="9.93965559265592"><ele>378.0</ele><time>2026-05-02T20:53:51Z</time></trkpt><trkpt lat="44.77168820463985" lon="9.93958704104223"><ele>378.0</ele><time>2026-05-02T20:53:52Z</time></trkpt><trkpt lat="44.77173401152767" lon="9.939498772770346"><ele>378.0</ele><time>2026-05-02T20:53:53Z</time></trkpt><trkpt lat="44.771772325087625" lon="9.939403498861234"><ele>378.0</ele><time>2026-05-02T20:53:54Z</time></trkpt><trkpt lat="44.77179882490143" lon="9.939299132735634"><ele>378.0</ele><time>2026-05-02T20:53:55Z</time></trkpt><trkpt lat="44.77181304093719" lon="9.939193202899729"><ele>378.0</ele><time>2026-05-02T20:53:56Z</time></trkpt><trkpt lat="44.77181173709624" lon="9.93908650526802"><ele>378.0</ele><time>2026-05-02T20:53:57Z</time></trkpt><trkpt lat="44.77179452032316" lon="9.938981710100668"><ele>380.1666666666667</ele><time>2026-05-02T20:53:58Z</time></trkpt><trkpt lat="44.7717756479343" lon="9.938881374442696"><ele>382.33333333333337</ele><time>2026-05-02T20:53:59Z</time></trkpt><trkpt lat="44.77173626720012" lon="9.938789439390861"><ele>384.5</ele><time>2026-05-02T20:54:00Z</time></trkpt><trkpt lat="44.77168135537504" lon="9.938709216956262"><ele>386.6666666666667</ele><time>2026-05-02T20:54:01Z</time></trkpt><trkpt lat="44.771622166882814" lon="9.938639136740782"><ele>388.83333333333337</ele><time>2026-05-02T20:54:02Z</time></trkpt><trkpt lat="44.77155572887329" lon="9.938581315595375"><ele>391.0</ele><time>2026-05-02T20:54:03Z</time></trkpt><trkpt lat="44.77148149574598" lon="9.938544867759536"><ele>391.00000000000006</ele><time>2026-05-02T20:54:04Z</time></trkpt><trkpt lat="44.77140358721546" lon="9.938532214435128"><ele>391.0</ele><time>2026-05-02T20:54:05Z</time></trkpt><trkpt lat="44.771321162292175" lon="9.938542115714423"><ele>391.0</ele><time>2026-05-02T20:54:06Z</time></trkpt><trkpt lat="44.77123988261402" lon="9.93856568666084"><ele>391.0</ele><time>2026-05-02T20:54:07Z</time></trkpt><trkpt lat="44.771157788993904" lon="9.938595391205306"><ele>391.00000000000006</ele><time>2026-05-02T20:54:08Z</time></trkpt><trkpt lat="44.77107372892484" lon="9.938623588699915"><ele>391.0</ele><time>2026-05-02T20:54:09Z</time></trkpt><trkpt lat="44.77099420821446" lon="9.93864786254835"><ele>390.85714285714283</ele><time>2026-05-02T20:54:10Z</time></trkpt><trkpt lat="44.77092019438201" lon="9.938660444947628"><ele>390.7142857142857</ele><time>2026-05-02T20:54:11Z</time></trkpt><trkpt lat="44.77085358041072" lon="9.938654881909628"><ele>390.57142857142856</ele><time>2026-05-02T20:54:12Z</time></trkpt><trkpt lat="44.770790492764014" lon="9.938625493012086"><ele>390.42857142857144</ele><time>2026-05-02T20:54:13Z</time></trkpt><trkpt lat="44.77072230895239" lon="9.93858093073521"><ele>390.2857142857143</ele><time>2026-05-02T20:54:14Z</time></trkpt><trkpt lat="44.770654991022674" lon="9.938522608339671"><ele>390.1428571428571</ele><time>2026-05-02T20:54:15Z</time></trkpt><trkpt lat="44.770584612219054" lon="9.938454827716667"><ele>390.0</ele><time>2026-05-02T20:54:16Z</time></trkpt><trkpt lat="44.77051069477883" lon="9.938387026456349"><ele>388.1666666666667</ele><time>2026-05-02T20:54:17Z</time></trkpt><trkpt lat="44.770438553277884" lon="9.938326160290615"><ele>386.3333333333333</ele><time>2026-05-02T20:54:18Z</time></trkpt><trkpt lat="44.77036761822464" lon="9.938264231769296"><ele>384.5</ele><time>2026-05-02T20:54:19Z</time></trkpt><trkpt lat="44.770299945118" lon="9.938200547334482"><ele>382.66666666666663</ele><time>2026-05-02T20:54:20Z</time></trkpt><trkpt lat="44.77024213549265" lon="9.938131033216775"><ele>380.8333333333333</ele><time>2026-05-02T20:54:21Z</time></trkpt><trkpt lat="44.77019683773347" lon="9.938057325682063"><ele>379.0</ele><time>2026-05-02T20:54:22Z</time></trkpt><trkpt lat="44.77016754936746" lon="9.937975856634832"><ele>379.0</ele><time>2026-05-02T20:54:22.999Z</time></trkpt><trkpt lat="44.770172049579465" lon="9.937797574184879"><ele>379.0</ele><time>2026-05-02T20:54:24.999Z</time></trkpt><trkpt lat="44.77022628464825" lon="9.93765500796892"><ele>379.0</ele><time>2026-05-02T20:54:26.999Z</time></trkpt><trkpt lat="44.77028185620225" lon="9.937604239536123"><ele>379.0</ele><time>2026-05-02T20:54:27.999Z</time></trkpt><trkpt lat="44.7703483365299" lon="9.937594953388498"><ele>379.0</ele><time>2026-05-02T20:54:28.999Z</time></trkpt><trkpt lat="44.770412821028835" lon="9.937599164517689"><ele>379.0</ele><time>2026-05-02T20:54:29.999Z</time></trkpt><trkpt lat="44.77047442863033" lon="9.93762401655462"><ele>379.0</ele><time>2026-05-02T20:54:30.999Z</time></trkpt><trkpt lat="44.77051090438949" lon="9.937697349967097"><ele>379.0</ele><time>2026-05-02T20:54:31.999Z</time></trkpt><trkpt lat="44.77057289702367" lon="9.937850865340508"><ele>379.0</ele><time>2026-05-02T20:54:33.999Z</time></trkpt><trkpt lat="44.77061181146463" lon="9.937933868818233"><ele>379.0</ele><time>2026-05-02T20:54:34.999Z</time></trkpt><trkpt lat="44.77066102869312" lon="9.938010551120753"><ele>379.0</ele><time>2026-05-02T20:54:35.999Z</time></trkpt><trkpt lat="44.770735587821484" lon="9.938063611305228"><ele>379.0</ele><time>2026-05-02T20:54:36.999Z</time></trkpt><trkpt lat="44.77081518368054" lon="9.938058114804925"><ele>379.00000000000006</ele><time>2026-05-02T20:54:37.999Z</time></trkpt><trkpt lat="44.770881629970674" lon="9.938046387455444"><ele>379.0</ele><time>2026-05-02T20:54:38.999Z</time></trkpt><trkpt lat="44.77094023797583" lon="9.937999278472036"><ele>379.0</ele><time>2026-05-02T20:54:39.999Z</time></trkpt><trkpt lat="44.77099154702776" lon="9.93793495335323"><ele>379.0</ele><time>2026-05-02T20:54:40.999Z</time></trkpt><trkpt lat="44.771043853228385" lon="9.93786986751314"><ele>379.0</ele><time>2026-05-02T20:54:41.999Z</time></trkpt><trkpt lat="44.77109651367032" lon="9.93779834356158"><ele>379.00000000000006</ele><time>2026-05-02T20:54:42.999Z</time></trkpt><trkpt lat="44.771152277542484" lon="9.937724277403083"><ele>379.0</ele><time>2026-05-02T20:54:43.999Z</time></trkpt><trkpt lat="44.77121453388102" lon="9.937660332160693"><ele>378.8333333333333</ele><time>2026-05-02T20:54:44.999Z</time></trkpt><trkpt lat="44.771283646949115" lon="9.937614695640018"><ele>378.66666666666663</ele><time>2026-05-02T20:54:45.999Z</time></trkpt><trkpt lat="44.771363998712935" lon="9.937594050120653"><ele>378.5</ele><time>2026-05-02T20:54:46.999Z</time></trkpt><trkpt lat="44.77144529236451" lon="9.937606851931884"><ele>378.3333333333333</ele><time>2026-05-02T20:54:47.999Z</time></trkpt><trkpt lat="44.771518738327366" lon="9.937667408841378"><ele>378.1666666666667</ele><time>2026-05-02T20:54:48.999Z</time></trkpt><trkpt lat="44.77159533187157" lon="9.937679934094644"><ele>378.0</ele><time>2026-05-02T20:54:49.999Z</time></trkpt><trkpt lat="44.771699723995695" lon="9.937698284985547"><ele>378.0</ele><time>2026-05-02T20:54:51.999Z</time></trkpt><trkpt lat="44.77172321173819" lon="9.937611444299947"><ele>378.0</ele><time>2026-05-02T20:54:52.999Z</time></trkpt><trkpt lat="44.77166661021203" lon="9.93747018430785"><ele>378.0</ele><time>2026-05-02T20:54:54.999Z</time></trkpt><trkpt lat="44.77160568115587" lon="9.937437538500859"><ele>378.0</ele><time>2026-05-02T20:54:55.999Z</time></trkpt><trkpt lat="44.77149117378967" lon="9.937408745580937"><ele>378.0</ele><time>2026-05-02T20:54:57.999Z</time></trkpt><trkpt lat="44.771373666099585" lon="9.93738064444494"><ele>374.4</ele><time>2026-05-02T20:54:59.999Z</time></trkpt><trkpt lat="44.77131037973721" lon="9.937362029864993"><ele>370.79999999999995</ele><time>2026-05-02T20:55:00.999Z</time></trkpt><trkpt lat="44.771245290164785" lon="9.937343136353297"><ele>367.2</ele><time>2026-05-02T20:55:01.999Z</time></trkpt><trkpt lat="44.77114177242435" lon="9.937295455284655"><ele>363.6</ele><time>2026-05-02T20:55:03.999Z</time></trkpt><trkpt lat="44.77112103341116" lon="9.937160206825672"><ele>360.0</ele><time>2026-05-02T20:55:05.999Z</time></trkpt><trkpt lat="44.77122782880154" lon="9.9370810168922"><ele>360.0</ele><time>2026-05-02T20:55:07.999Z</time></trkpt><trkpt lat="44.77130287947084" lon="9.937141394360127"><ele>360.0</ele><time>2026-05-02T20:55:08.999Z</time></trkpt><trkpt lat="44.77137643299241" lon="9.937149066438588"><ele>360.0</ele><time>2026-05-02T20:55:09.999Z</time></trkpt><trkpt lat="44.77145311975585" lon="9.937180668317168"><ele>360.0</ele><time>2026-05-02T20:55:10.999Z</time></trkpt><trkpt lat="44.771531526101214" lon="9.937201358913311"><ele>360.0</ele><time>2026-05-02T20:55:11.999Z</time></trkpt><trkpt lat="44.77161546059931" lon="9.937215309534713"><ele>360.0</ele><time>2026-05-02T20:55:12.999Z</time></trkpt><trkpt lat="44.77170257563247" lon="9.937238278704147"><ele>360.0</ele><time>2026-05-02T20:55:13.999Z</time></trkpt><trkpt lat="44.77178636609431" lon="9.937261291568728"><ele>360.0</ele><time>2026-05-02T20:55:14.999Z</time></trkpt><trkpt lat="44.77186800972589" lon="9.937292333366898"><ele>360.0</ele><time>2026-05-02T20:55:15.999Z</time></trkpt><trkpt lat="44.771949304526196" lon="9.937313002275518"><ele>360.0</ele><time>2026-05-02T20:55:16.998Z</time></trkpt><trkpt lat="44.77203005137926" lon="9.937338687045415"><ele>360.0</ele><time>2026-05-02T20:55:17.998Z</time></trkpt><trkpt lat="44.77211009412447" lon="9.937365314187362"><ele>360.0</ele><time>2026-05-02T20:55:18.998Z</time></trkpt><trkpt lat="44.7721888182934" lon="9.937393781296759"><ele>361.1666666666667</ele><time>2026-05-02T20:55:19.998Z</time></trkpt><trkpt lat="44.772268070599544" lon="9.937427162890575"><ele>362.3333333333333</ele><time>2026-05-02T20:55:20.998Z</time></trkpt><trkpt lat="44.77234736278681" lon="9.937461852515018"><ele>363.5</ele><time>2026-05-02T20:55:21.998Z</time></trkpt><trkpt lat="44.77242453875618" lon="9.937497298800016"><ele>364.66666666666663</ele><time>2026-05-02T20:55:22.998Z</time></trkpt><trkpt lat="44.77250332528104" lon="9.937536844071742"><ele>365.8333333333333</ele><time>2026-05-02T20:55:23.998Z</time></trkpt><trkpt lat="44.77257859660806" lon="9.93757416480541"><ele>367.0</ele><time>2026-05-02T20:55:24.998Z</time></trkpt><trkpt lat="44.7726532488908" lon="9.937610323695358"><ele>361.0</ele><time>2026-05-02T20:55:25.998Z</time></trkpt><trkpt lat="44.77272079993407" lon="9.937640156430106"><ele>355.0</ele><time>2026-05-02T20:55:26.998Z</time></trkpt><trkpt lat="44.77283040128284" lon="9.937667388348684"><ele>349.0</ele><time>2026-05-02T20:55:28.998Z</time></trkpt><trkpt lat="44.772881036604765" lon="9.937582712044522"><ele>343.0</ele><time>2026-05-02T20:55:30.998Z</time></trkpt><trkpt lat="44.7728706913639" lon="9.937489197716149"><ele>337.0</ele><time>2026-05-02T20:55:31.998Z</time></trkpt><trkpt lat="44.7727752111614" lon="9.93737222037776"><ele>336.8</ele><time>2026-05-02T20:55:33.998Z</time></trkpt><trkpt lat="44.77266804953995" lon="9.93728213099887"><ele>336.6</ele><time>2026-05-02T20:55:35.998Z</time></trkpt><trkpt lat="44.7726160832444" lon="9.937230634874432"><ele>336.40000000000003</ele><time>2026-05-02T20:55:36.998Z</time></trkpt><trkpt lat="44.772549469187354" lon="9.937106986537245"><ele>336.20000000000005</ele><time>2026-05-02T20:55:38.998Z</time></trkpt><trkpt lat="44.772590022073565" lon="9.936969690489434"><ele>336.0</ele><time>2026-05-02T20:55:40.998Z</time></trkpt><trkpt lat="44.77271819536783" lon="9.936951290230787"><ele>336.0</ele><time>2026-05-02T20:55:42.998Z</time></trkpt><trkpt lat="44.77278087855509" lon="9.937009300768644"><ele>336.0</ele><time>2026-05-02T20:55:43.998Z</time></trkpt><trkpt lat="44.77284241568815" lon="9.937066554823415"><ele>336.0</ele><time>2026-05-02T20:55:44.998Z</time></trkpt><trkpt lat="44.772916867671675" lon="9.937108098619262"><ele>336.0</ele><time>2026-05-02T20:55:45.998Z</time></trkpt><trkpt lat="44.772995173395664" lon="9.93715172577034"><ele>336.0</ele><time>2026-05-02T20:55:46.998Z</time></trkpt><trkpt lat="44.77307061509687" lon="9.93720817924336"><ele>336.0</ele><time>2026-05-02T20:55:47.998Z</time></trkpt><trkpt lat="44.77314754481296" lon="9.937257109852776"><ele>336.0</ele><time>2026-05-02T20:55:48.998Z</time></trkpt><trkpt lat="44.77322214707171" lon="9.937302797918731"><ele>336.0</ele><time>2026-05-02T20:55:50Z</time></trkpt><trkpt lat="44.773298580806625" lon="9.937344899057413"><ele>336.0</ele><time>2026-05-02T20:55:51Z</time></trkpt><trkpt lat="44.77337061314241" lon="9.937387718189033"><ele>336.0</ele><time>2026-05-02T20:55:52Z</time></trkpt><trkpt lat="44.773436624632744" lon="9.937434200112788"><ele>336.0</ele><time>2026-05-02T20:55:53Z</time></trkpt><trkpt lat="44.77349847986515" lon="9.937470418101872"><ele>336.0</ele><time>2026-05-02T20:55:54Z</time></trkpt><trkpt lat="44.77360500459159" lon="9.937534887393136"><ele>335.8333333333333</ele><time>2026-05-02T20:55:56Z</time></trkpt><trkpt lat="44.77369053579128" lon="9.937584685277866"><ele>335.6666666666667</ele><time>2026-05-02T20:55:58Z</time></trkpt><trkpt lat="44.77375743125096" lon="9.937632380745807"><ele>335.5</ele><time>2026-05-02T20:56:00Z</time></trkpt><trkpt lat="44.773824581849865" lon="9.937679979905127"><ele>335.33333333333337</ele><time>2026-05-02T20:56:03Z</time></trkpt><trkpt lat="44.773781519689905" lon="9.937573038720256"><ele>335.1666666666667</ele><time>2026-05-02T20:56:44.999Z</time></trkpt><trkpt lat="44.77371293603957" lon="9.93753792348784"><ele>335.0</ele><time>2026-05-02T20:56:48.999Z</time></trkpt><trkpt lat="44.773633711968266" lon="9.937491762342079"><ele>335.0</ele><time>2026-05-02T20:56:51.999Z</time></trkpt><trkpt lat="44.77354706955078" lon="9.937431327572238"><ele>335.0</ele><time>2026-05-02T20:56:54.999Z</time></trkpt><trkpt lat="44.773481372064495" lon="9.937391800272806"><ele>335.0</ele><time>2026-05-02T20:56:56.999Z</time></trkpt><trkpt lat="44.773415629639935" lon="9.937352796392052"><ele>335.0</ele><time>2026-05-02T20:56:58.999Z</time></trkpt><trkpt lat="44.77335160454991" lon="9.937317237857801"><ele>335.0</ele><time>2026-05-02T20:57:00.999Z</time></trkpt><trkpt lat="44.77326498069118" lon="9.937272986954738"><ele>335.0</ele><time>2026-05-02T20:57:03.999Z</time></trkpt><trkpt lat="44.77318552234604" lon="9.937230180773604"><ele>335.1428571428571</ele><time>2026-05-02T20:57:06.999Z</time></trkpt><trkpt lat="44.77311208073171" lon="9.937184185834745"><ele>335.2857142857143</ele><time>2026-05-02T20:57:09.999Z</time></trkpt><trkpt lat="44.7730452906333" lon="9.937142971616856"><ele>335.42857142857144</ele><time>2026-05-02T20:57:12.999Z</time></trkpt><trkpt lat="44.772976823314664" lon="9.937103564026676"><ele>335.57142857142856</ele><time>2026-05-02T20:57:15.999Z</time></trkpt><trkpt lat="44.772915324420296" lon="9.93706741225157"><ele>335.7142857142857</ele><time>2026-05-02T20:57:18.999Z</time></trkpt><trkpt lat="44.77285481969818" lon="9.937018634519845"><ele>335.85714285714283</ele><time>2026-05-02T20:57:22.999Z</time></trkpt><trkpt lat="44.772797258368236" lon="9.936979711058727"><ele>336.0</ele><time>2026-05-02T20:57:25.998Z</time></trkpt><trkpt lat="44.772735408308165" lon="9.936946816924966"><ele>336.0</ele><time>2026-05-02T20:57:28.998Z</time></trkpt><trkpt lat="44.77266581563056" lon="9.936918677404806"><ele>336.0</ele><time>2026-05-02T20:57:31.998Z</time></trkpt><trkpt lat="44.77259302523547" lon="9.936939997271946"><ele>336.0</ele><time>2026-05-02T20:57:35.998Z</time></trkpt><trkpt lat="44.772550117659414" lon="9.937012498708011"><ele>336.0</ele><time>2026-05-02T20:57:38.998Z</time></trkpt><trkpt lat="44.77255001568406" lon="9.937109292079601"><ele>336.0</ele><time>2026-05-02T20:57:41.998Z</time></trkpt><trkpt lat="44.77258197417605" lon="9.937197241468825"><ele>336.0</ele><time>2026-05-02T20:57:44.998Z</time></trkpt><trkpt lat="44.772639750260815" lon="9.93726570842368"><ele>336.0</ele><time>2026-05-02T20:57:48.998Z</time></trkpt><trkpt lat="44.77272206921668" lon="9.937349109970441"><ele>336.0</ele><time>2026-05-02T20:57:52.998Z</time></trkpt><trkpt lat="44.7727784891541" lon="9.937415100408444"><ele>336.0</ele><time>2026-05-02T20:57:57Z</time></trkpt><trkpt lat="44.772822029089674" lon="9.937479607119467"><ele>336.0</ele><time>2026-05-02T20:58:00Z</time></trkpt><trkpt lat="44.77282429695895" lon="9.937582403096865"><ele>336.0</ele><time>2026-05-02T20:58:04Z</time></trkpt><trkpt lat="44.77275425259676" lon="9.937621686365237"><ele>336.0</ele><time>2026-05-02T20:58:08Z</time></trkpt><trkpt lat="44.77267075997604" lon="9.937580482081975"><ele>336.0</ele><time>2026-05-02T20:58:13Z</time></trkpt><trkpt lat="44.77260195051934" lon="9.937551100466758"><ele>336.0</ele><time>2026-05-02T20:58:17Z</time></trkpt><trkpt lat="44.772534545505245" lon="9.9375191781534"><ele>338.5</ele><time>2026-05-02T20:58:21Z</time></trkpt><trkpt lat="44.7724578304663" lon="9.937480694630334"><ele>341.0</ele><time>2026-05-02T20:58:25Z</time></trkpt><trkpt lat="44.772387041422704" lon="9.93745254653151"><ele>343.5</ele><time>2026-05-02T20:58:29Z</time></trkpt><trkpt lat="44.772323581038485" lon="9.93741933859262"><ele>346.0</ele><time>2026-05-02T20:58:32Z</time></trkpt><trkpt lat="44.77225801211567" lon="9.93739575715661"><ele>348.5</ele><time>2026-05-02T20:58:35.999Z</time></trkpt><trkpt lat="44.77216983832131" lon="9.937368168103914"><ele>351.0</ele><time>2026-05-02T20:58:39.999Z</time></trkpt><trkpt lat="44.7721034197182" lon="9.93733984736721"><ele>351.00000000000006</ele><time>2026-05-02T20:58:43.999Z</time></trkpt><trkpt lat="44.772038095194475" lon="9.937316406378322"><ele>351.0</ele><time>2026-05-02T20:58:46.999Z</time></trkpt><trkpt lat="44.771975740340736" lon="9.937294323017143"><ele>351.0</ele><time>2026-05-02T20:58:50.999Z</time></trkpt><trkpt lat="44.77190363901059" lon="9.937268413144274"><ele>351.0</ele><time>2026-05-02T20:58:53.999Z</time></trkpt><trkpt lat="44.77181727248339" lon="9.93725088716657"><ele>351.0</ele><time>2026-05-02T20:58:58.999Z</time></trkpt><trkpt lat="44.771751258893765" lon="9.937234093011968"><ele>351.00000000000006</ele><time>2026-05-02T20:59:02.999Z</time></trkpt><trkpt lat="44.771687794206116" lon="9.937218223883717"><ele>351.0</ele><time>2026-05-02T20:59:05.999Z</time></trkpt><trkpt lat="44.771621231249306" lon="9.937185941077026"><ele>352.5</ele><time>2026-05-02T20:59:09.999Z</time></trkpt><trkpt lat="44.77154747055042" lon="9.937159674746805"><ele>354.0</ele><time>2026-05-02T20:59:13.999Z</time></trkpt><trkpt lat="44.77148304352168" lon="9.937142819935666"><ele>355.5</ele><time>2026-05-02T20:59:16.999Z</time></trkpt><trkpt lat="44.771409608392226" lon="9.937119455985425"><ele>357.0</ele><time>2026-05-02T20:59:20.999Z</time></trkpt><trkpt lat="44.7713219870503" lon="9.937102650580176"><ele>358.5</ele><time>2026-05-02T20:59:24.999Z</time></trkpt><trkpt lat="44.77124183657459" lon="9.937094181289384"><ele>360.0</ele><time>2026-05-02T20:59:28.998Z</time></trkpt><trkpt lat="44.771174037221954" lon="9.937098951709725"><ele>360.0</ele><time>2026-05-02T20:59:31.998Z</time></trkpt><trkpt lat="44.771120452660675" lon="9.937163472115765"><ele>360.0</ele><time>2026-05-02T20:59:35.998Z</time></trkpt><trkpt lat="44.77112465245481" lon="9.937252083781381"><ele>360.0</ele><time>2026-05-02T20:59:38.998Z</time></trkpt><trkpt lat="44.77118579276707" lon="9.93733686785418"><ele>360.0</ele><time>2026-05-02T20:59:42.998Z</time></trkpt><trkpt lat="44.7712550042678" lon="9.93737958817466"><ele>360.0</ele><time>2026-05-02T20:59:46.998Z</time></trkpt><trkpt lat="44.771336467059086" lon="9.937420566021002"><ele>360.0</ele><time>2026-05-02T20:59:50.998Z</time></trkpt><trkpt lat="44.771412235338836" lon="9.937447818855231"><ele>360.0</ele><time>2026-05-02T20:59:54.998Z</time></trkpt><trkpt lat="44.77147862219497" lon="9.937473577458256"><ele>360.0</ele><time>2026-05-02T20:59:57.998Z</time></trkpt><trkpt lat="44.77154914734758" lon="9.937501807123466"><ele>360.0</ele><time>2026-05-02T21:00:01Z</time></trkpt><trkpt lat="44.771620321997744" lon="9.937545121471935"><ele>360.0</ele><time>2026-05-02T21:00:04Z</time></trkpt><trkpt lat="44.771647090681206" lon="9.937629240886073"><ele>360.0</ele><time>2026-05-02T21:00:08Z</time></trkpt><trkpt lat="44.771578252336575" lon="9.93765439687161"><ele>360.0</ele><time>2026-05-02T21:00:12Z</time></trkpt><trkpt lat="44.77150878828645" lon="9.937631463142278"><ele>360.0</ele><time>2026-05-02T21:00:16Z</time></trkpt><trkpt lat="44.771430353743334" lon="9.937595038768253"><ele>363.0</ele><time>2026-05-02T21:00:20Z</time></trkpt><trkpt lat="44.77134791857666" lon="9.937588757460823"><ele>366.0</ele><time>2026-05-02T21:00:24Z</time></trkpt><trkpt lat="44.77128411283035" lon="9.937601549777725"><ele>369.0</ele><time>2026-05-02T21:00:27Z</time></trkpt><trkpt lat="44.77121818158156" lon="9.93763924301639"><ele>372.0</ele><time>2026-05-02T21:00:31Z</time></trkpt><trkpt lat="44.771142362012675" lon="9.93770350990634"><ele>375.0</ele><time>2026-05-02T21:00:35Z</time></trkpt><trkpt lat="44.77109035596211" lon="9.937756572789697"><ele>378.0</ele><time>2026-05-02T21:00:37.999Z</time></trkpt><trkpt lat="44.771033294608536" lon="9.937836617588497"><ele>378.14285714285717</ele><time>2026-05-02T21:00:41.999Z</time></trkpt><trkpt lat="44.770976980282406" lon="9.93791485822086"><ele>378.2857142857143</ele><time>2026-05-02T21:00:44.999Z</time></trkpt><trkpt lat="44.770913009771085" lon="9.937977195469603"><ele>378.42857142857144</ele><time>2026-05-02T21:00:48.999Z</time></trkpt><trkpt lat="44.770844288229036" lon="9.938014955512196"><ele>378.57142857142856</ele><time>2026-05-02T21:00:51.999Z</time></trkpt><trkpt lat="44.77076758314249" lon="9.938020307957261"><ele>378.7142857142857</ele><time>2026-05-02T21:00:54.999Z</time></trkpt><trkpt lat="44.7707025131343" lon="9.937974752282019"><ele>378.8571428571429</ele><time>2026-05-02T21:00:57.999Z</time></trkpt><trkpt lat="44.7706544478485" lon="9.937906323954401"><ele>379.0</ele><time>2026-05-02T21:01:00.999Z</time></trkpt><trkpt lat="44.770610473706036" lon="9.937808965910046"><ele>379.0</ele><time>2026-05-02T21:01:04.999Z</time></trkpt><trkpt lat="44.77056975711174" lon="9.937710008835081"><ele>379.0</ele><time>2026-05-02T21:01:07.999Z</time></trkpt><trkpt lat="44.770515057538724" lon="9.937627615746084"><ele>379.0</ele><time>2026-05-02T21:01:11.999Z</time></trkpt><trkpt lat="44.77045230722923" lon="9.937584239657662"><ele>379.0</ele><time>2026-05-02T21:01:14.999Z</time></trkpt><trkpt lat="44.77036737637129" lon="9.937568378392053"><ele>379.0</ele><time>2026-05-02T21:01:17.999Z</time></trkpt><trkpt lat="44.77028517078235" lon="9.937581595025408"><ele>379.0</ele><time>2026-05-02T21:01:19.999Z</time></trkpt><trkpt lat="44.7702095448802" lon="9.937648388267899"><ele>379.0</ele><time>2026-05-02T21:01:22.999Z</time></trkpt><trkpt lat="44.77015418168158" lon="9.937739857194446"><ele>379.0</ele><time>2026-05-02T21:01:25.999Z</time></trkpt><trkpt lat="44.770128174079964" lon="9.937843074086022"><ele>379.0</ele><time>2026-05-02T21:01:28.999Z</time></trkpt><trkpt lat="44.770130638699094" lon="9.93795759327274"><ele>379.0</ele><time>2026-05-02T21:01:31.998Z</time></trkpt><trkpt lat="44.77015790265438" lon="9.938050226314822"><ele>379.0</ele><time>2026-05-02T21:01:34.998Z</time></trkpt><trkpt lat="44.7702011961687" lon="9.938136145738795"><ele>379.0</ele><time>2026-05-02T21:01:37.998Z</time></trkpt><trkpt lat="44.770254009133986" lon="9.938211725889797"><ele>379.00000000000006</ele><time>2026-05-02T21:01:40.998Z</time></trkpt><trkpt lat="44.77031128648985" lon="9.938259739891063"><ele>379.0</ele><time>2026-05-02T21:01:42.998Z</time></trkpt><trkpt lat="44.77037088189202" lon="9.938320753158072"><ele>379.0</ele><time>2026-05-02T21:01:45.998Z</time></trkpt><trkpt lat="44.77042734151599" lon="9.938401505051916"><ele>379.0</ele><time>2026-05-02T21:01:49.998Z</time></trkpt><trkpt lat="44.77048866984402" lon="9.938456912982367"><ele>379.0</ele><time>2026-05-02T21:01:53.998Z</time></trkpt><trkpt lat="44.770545390130955" lon="9.938509310901496"><ele>379.00000000000006</ele><time>2026-05-02T21:01:56.998Z</time></trkpt><trkpt lat="44.770610449870425" lon="9.938564252948748"><ele>379.0</ele><time>2026-05-02T21:02:00.998Z</time></trkpt><trkpt lat="44.77066437028163" lon="9.938625302102924"><ele>380.8333333333333</ele><time>2026-05-02T21:02:04.998Z</time></trkpt><trkpt lat="44.7707356765922" lon="9.938679330075418"><ele>382.66666666666663</ele><time>2026-05-02T21:02:09Z</time></trkpt><trkpt lat="44.77081642786372" lon="9.938711188246685"><ele>384.5</ele><time>2026-05-02T21:02:14Z</time></trkpt><trkpt lat="44.77089053838576" lon="9.938737358242134"><ele>386.3333333333333</ele><time>2026-05-02T21:02:18Z</time></trkpt><trkpt lat="44.77097164946667" lon="9.938728442332108"><ele>388.1666666666667</ele><time>2026-05-02T21:02:23Z</time></trkpt><trkpt lat="44.771037039844515" lon="9.938713770733237"><ele>390.0</ele><time>2026-05-02T21:02:27Z</time></trkpt><trkpt lat="44.771101209035116" lon="9.938704303240543"><ele>390.1428571428571</ele><time>2026-05-02T21:02:31Z</time></trkpt><trkpt lat="44.77117298227405" lon="9.938660898217378"><ele>390.2857142857143</ele><time>2026-05-02T21:02:54.999Z</time></trkpt><trkpt lat="44.77124615461168" lon="9.938628699387692"><ele>390.42857142857144</ele><time>2026-05-02T21:02:59.999Z</time></trkpt><trkpt lat="44.771322546824656" lon="9.938624457916635"><ele>390.57142857142856</ele><time>2026-05-02T21:03:03.999Z</time></trkpt><trkpt lat="44.77139798577385" lon="9.938619523591585"><ele>390.7142857142857</ele><time>2026-05-02T21:03:07.999Z</time></trkpt><trkpt lat="44.77146169762385" lon="9.938632041475538"><ele>390.85714285714283</ele><time>2026-05-02T21:03:10.999Z</time></trkpt><trkpt lat="44.77153162769613" lon="9.938672156347334"><ele>391.0</ele><time>2026-05-02T21:03:14.999Z</time></trkpt><trkpt lat="44.771598065826154" lon="9.938735686592674"><ele>390.99999999999994</ele><time>2026-05-02T21:03:18.999Z</time></trkpt><trkpt lat="44.771661298071656" lon="9.938831953826929"><ele>391.0</ele><time>2026-05-02T21:03:23.999Z</time></trkpt><trkpt lat="44.77170644371143" lon="9.938938668012158"><ele>391.0</ele><time>2026-05-02T21:03:28.999Z</time></trkpt><trkpt lat="44.77173386048247" lon="9.939021901932179"><ele>391.0</ele><time>2026-05-02T21:03:31.999Z</time></trkpt><trkpt lat="44.77175271465654" lon="9.939117741727744"><ele>391.0</ele><time>2026-05-02T21:03:35.998Z</time></trkpt><trkpt lat="44.77175032018836" lon="9.9392065442895"><ele>390.99999999999994</ele><time>2026-05-02T21:03:38.998Z</time></trkpt><trkpt lat="44.77174537650434" lon="9.939298871903173"><ele>391.0</ele><time>2026-05-02T21:03:41.998Z</time></trkpt><trkpt lat="44.77171879610282" lon="9.939404380462884"><ele>389.1428571428571</ele><time>2026-05-02T21:03:44.998Z</time></trkpt><trkpt lat="44.77167716092243" lon="9.939498792858338"><ele>387.2857142857143</ele><time>2026-05-02T21:03:48.998Z</time></trkpt><trkpt lat="44.77163447403411" lon="9.939573479269754"><ele>385.42857142857144</ele><time>2026-05-02T21:03:52.998Z</time></trkpt><trkpt lat="44.77158207708463" lon="9.939624275883315"><ele>383.57142857142856</ele><time>2026-05-02T21:03:55.998Z</time></trkpt><trkpt lat="44.77151560728395" lon="9.939663946307387"><ele>381.7142857142857</ele><time>2026-05-02T21:03:59.998Z</time></trkpt><trkpt lat="44.77145617583497" lon="9.939693483189041"><ele>379.85714285714283</ele><time>2026-05-02T21:04:02.998Z</time></trkpt><trkpt lat="44.77139524916212" lon="9.939732379402564"><ele>378.0</ele><time>2026-05-02T21:04:06.998Z</time></trkpt><trkpt lat="44.771323224772715" lon="9.939780981733348"><ele>378.0</ele><time>2026-05-02T21:04:11Z</time></trkpt><trkpt lat="44.771253581663466" lon="9.939811907387094"><ele>378.0</ele><time>2026-05-02T21:04:15Z</time></trkpt><trkpt lat="44.77117464831796" lon="9.939851453562978"><ele>378.0</ele><time>2026-05-02T21:04:19Z</time></trkpt><trkpt lat="44.77110055178281" lon="9.939897162156532"><ele>378.0</ele><time>2026-05-02T21:04:23Z</time></trkpt><trkpt lat="44.77101937452536" lon="9.939948708005511"><ele>378.0</ele><time>2026-05-02T21:04:27Z</time></trkpt><trkpt lat="44.77095420421757" lon="9.940018038861796"><ele>378.0</ele><time>2026-05-02T21:04:31Z</time></trkpt><trkpt lat="44.77090035267774" lon="9.940073839094731"><ele>380.5</ele><time>2026-05-02T21:04:34Z</time></trkpt><trkpt lat="44.77083141368733" lon="9.940143357709426"><ele>383.0</ele><time>2026-05-02T21:04:38Z</time></trkpt><trkpt lat="44.770763504024394" lon="9.940200689713535"><ele>385.5</ele><time>2026-05-02T21:04:42Z</time></trkpt><trkpt lat="44.77068799765197" lon="9.940253853806006"><ele>388.0</ele><time>2026-05-02T21:04:45.999Z</time></trkpt><trkpt lat="44.77061486422235" lon="9.940282197416728"><ele>390.5</ele><time>2026-05-02T21:04:49.999Z</time></trkpt><trkpt lat="44.77053039682981" lon="9.94030540482257"><ele>393.0</ele><time>2026-05-02T21:04:53.999Z</time></trkpt><trkpt lat="44.77045616558265" lon="9.940340435639136"><ele>393.00000000000006</ele><time>2026-05-02T21:04:57.999Z</time></trkpt><trkpt lat="44.77039633056355" lon="9.940377163863182"><ele>393.0</ele><time>2026-05-02T21:05:00.999Z</time></trkpt><trkpt lat="44.77033620830136" lon="9.94041057425085"><ele>393.0</ele><time>2026-05-02T21:05:03.999Z</time></trkpt><trkpt lat="44.7702665692233" lon="9.940478837583392"><ele>393.0</ele><time>2026-05-02T21:05:07.999Z</time></trkpt><trkpt lat="44.77022700937553" lon="9.940557536971685"><ele>393.0</ele><time>2026-05-02T21:05:10.999Z</time></trkpt><trkpt lat="44.77018621097083" lon="9.94063608443516"><ele>393.00000000000006</ele><time>2026-05-02T21:05:13.999Z</time></trkpt><trkpt lat="44.77014873834762" lon="9.940718319992019"><ele>393.0</ele><time>2026-05-02T21:05:16.999Z</time></trkpt><trkpt lat="44.770115309441586" lon="9.940801762250421"><ele>395.7142857142857</ele><time>2026-05-02T21:05:19.999Z</time></trkpt><trkpt lat="44.77007876433025" lon="9.940882722366801"><ele>398.42857142857144</ele><time>2026-05-02T21:05:22.999Z</time></trkpt><trkpt lat="44.77004440297883" lon="9.940967216507186"><ele>401.1428571428571</ele><time>2026-05-02T21:05:25.999Z</time></trkpt><trkpt lat="44.770013666902116" lon="9.941052953470097"><ele>403.8571428571429</ele><time>2026-05-02T21:05:28.999Z</time></trkpt><trkpt lat="44.76998400364831" lon="9.941132191897527"><ele>406.57142857142856</ele><time>2026-05-02T21:05:31.999Z</time></trkpt><trkpt lat="44.76994780909669" lon="9.941214542653885"><ele>409.2857142857143</ele><time>2026-05-02T21:05:34.999Z</time></trkpt><trkpt lat="44.769907752438165" lon="9.941289406110101"><ele>412.0</ele><time>2026-05-02T21:05:37.998Z</time></trkpt><trkpt lat="44.76986672451088" lon="9.941364040394204"><ele>411.99999999999994</ele><time>2026-05-02T21:05:40.998Z</time></trkpt><trkpt lat="44.76981912189192" lon="9.941436977754593"><ele>412.0</ele><time>2026-05-02T21:05:43.998Z</time></trkpt><trkpt lat="44.769764515804596" lon="9.94150182462562"><ele>412.0</ele><time>2026-05-02T21:05:46.998Z</time></trkpt><trkpt lat="44.76971094894556" lon="9.941569528555538"><ele>412.0</ele><time>2026-05-02T21:05:48.998Z</time></trkpt><trkpt lat="44.769636150979274" lon="9.941628657218427"><ele>412.0</ele><time>2026-05-02T21:05:51.998Z</time></trkpt><trkpt lat="44.76957081586863" lon="9.941675614991649"><ele>411.99999999999994</ele><time>2026-05-02T21:05:54.998Z</time></trkpt><trkpt lat="44.76950549864518" lon="9.941706133911605"><ele>412.0</ele><time>2026-05-02T21:05:57.998Z</time></trkpt><trkpt lat="44.769442896780966" lon="9.941722743286519"><ele>411.83333333333337</ele><time>2026-05-02T21:05:59.998Z</time></trkpt><trkpt lat="44.76935641211039" lon="9.941735068851974"><ele>411.6666666666667</ele><time>2026-05-02T21:06:02.998Z</time></trkpt><trkpt lat="44.769275127312916" lon="9.941730347798497"><ele>411.5</ele><time>2026-05-02T21:06:05.998Z</time></trkpt><trkpt lat="44.76919972973125" lon="9.94172049474262"><ele>411.33333333333337</ele><time>2026-05-02T21:06:08.998Z</time></trkpt><trkpt lat="44.76912840191602" lon="9.941693870099527"><ele>411.1666666666667</ele><time>2026-05-02T21:06:11.998Z</time></trkpt><trkpt lat="44.76905721827581" lon="9.941672165994259"><ele>411.0</ele><time>2026-05-02T21:06:14.998Z</time></trkpt><trkpt lat="44.76899119480604" lon="9.94165094340397"><ele>411.57142857142856</ele><time>2026-05-02T21:06:18Z</time></trkpt><trkpt lat="44.76892713379971" lon="9.941615394191167"><ele>412.1428571428571</ele><time>2026-05-02T21:06:21Z</time></trkpt><trkpt lat="44.76886866432576" lon="9.941578085872527"><ele>412.7142857142857</ele><time>2026-05-02T21:06:24Z</time></trkpt><trkpt lat="44.76879743274346" lon="9.941522621384024"><ele>413.2857142857143</ele><time>2026-05-02T21:06:28Z</time></trkpt><trkpt lat="44.76873046996108" lon="9.941453563415607"><ele>413.8571428571429</ele><time>2026-05-02T21:06:31Z</time></trkpt><trkpt lat="44.76868113817563" lon="9.941393218219782"><ele>414.42857142857144</ele><time>2026-05-02T21:06:34Z</time></trkpt><trkpt lat="44.76864163275809" lon="9.941303886685242"><ele>415.0</ele><time>2026-05-02T21:06:38Z</time></trkpt><trkpt lat="44.76861794892421" lon="9.94121938520804"><ele>415.0</ele><time>2026-05-02T21:06:41Z</time></trkpt><trkpt lat="44.76860025736099" lon="9.941133036768491"><ele>415.0</ele><time>2026-05-02T21:06:43Z</time></trkpt><trkpt lat="44.76857607738747" lon="9.941027004832161"><ele>415.0</ele><time>2026-05-02T21:06:45.999Z</time></trkpt><trkpt lat="44.76854322214671" lon="9.940934066115075"><ele>415.0</ele><time>2026-05-02T21:06:48.999Z</time></trkpt><trkpt lat="44.76852015315272" lon="9.940841753780298"><ele>415.0</ele><time>2026-05-02T21:06:51.999Z</time></trkpt><trkpt lat="44.76848850288846" lon="9.940746211716919"><ele>415.0</ele><time>2026-05-02T21:06:55.999Z</time></trkpt><trkpt lat="44.7684397810811" lon="9.940652912970872"><ele>415.0</ele><time>2026-05-02T21:06:59.999Z</time></trkpt><trkpt lat="44.76840386883995" lon="9.940579379032439"><ele>416.42857142857144</ele><time>2026-05-02T21:07:02.999Z</time></trkpt><trkpt lat="44.768350457914394" lon="9.940524042643835"><ele>417.8571428571429</ele><time>2026-05-02T21:07:05.999Z</time></trkpt><trkpt lat="44.76829359860976" lon="9.940478970456555"><ele>419.2857142857143</ele><time>2026-05-02T21:07:08.999Z</time></trkpt><trkpt lat="44.76822922162131" lon="9.940437647641877"><ele>420.7142857142857</ele><time>2026-05-02T21:07:11.999Z</time></trkpt><trkpt lat="44.76816626585558" lon="9.940402753347902"><ele>422.1428571428571</ele><time>2026-05-02T21:07:14.999Z</time></trkpt><trkpt lat="44.76810111290516" lon="9.940369437849018"><ele>423.57142857142856</ele><time>2026-05-02T21:07:17.999Z</time></trkpt><trkpt lat="44.768024818481365" lon="9.940334134401285"><ele>425.0</ele><time>2026-05-02T21:07:20.999Z</time></trkpt><trkpt lat="44.76796237655588" lon="9.940311042732333"><ele>425.0</ele><time>2026-05-02T21:07:22.999Z</time></trkpt><trkpt lat="44.76789833607287" lon="9.940308623084263"><ele>425.0</ele><time>2026-05-02T21:07:25.999Z</time></trkpt><trkpt lat="44.76782525108574" lon="9.940302224351822"><ele>425.0</ele><time>2026-05-02T21:07:28.999Z</time></trkpt><trkpt lat="44.76775810951685" lon="9.940300683258194"><ele>425.0</ele><time>2026-05-02T21:07:31.999Z</time></trkpt><trkpt lat="44.76768160953745" lon="9.940304495479287"><ele>425.0</ele><time>2026-05-02T21:07:34.999Z</time></trkpt><trkpt lat="44.76760762277406" lon="9.940321933207873"><ele>425.0</ele><time>2026-05-02T21:07:37.999Z</time></trkpt><trkpt lat="44.76753274804965" lon="9.940336899712111"><ele>425.0</ele><time>2026-05-02T21:07:40.998Z</time></trkpt><trkpt lat="44.76744982397621" lon="9.94035811341859"><ele>425.57142857142856</ele><time>2026-05-02T21:07:43.998Z</time></trkpt><trkpt lat="44.767374496179464" lon="9.940376660360277"><ele>426.1428571428571</ele><time>2026-05-02T21:07:46.998Z</time></trkpt><trkpt lat="44.767303002039164" lon="9.940391165387004"><ele>426.7142857142857</ele><time>2026-05-02T21:07:49.998Z</time></trkpt><trkpt lat="44.76723088010965" lon="9.940409559264106"><ele>427.2857142857143</ele><time>2026-05-02T21:07:52.998Z</time></trkpt><trkpt lat="44.76716154922285" lon="9.940421940636957"><ele>427.8571428571429</ele><time>2026-05-02T21:07:55.998Z</time></trkpt><trkpt lat="44.76709207859426" lon="9.940429645807658"><ele>428.42857142857144</ele><time>2026-05-02T21:07:58.998Z</time></trkpt><trkpt lat="44.76701426343648" lon="9.940449521208809"><ele>429.0</ele><time>2026-05-02T21:08:02.998Z</time></trkpt><trkpt lat="44.7669448634226" lon="9.940458857866817"><ele>429.0</ele><time>2026-05-02T21:08:05.998Z</time></trkpt><trkpt lat="44.766867981078455" lon="9.940475860277877"><ele>429.0</ele><time>2026-05-02T21:08:08.998Z</time></trkpt><trkpt lat="44.76679791549477" lon="9.940495921606324"><ele>429.0</ele><time>2026-05-02T21:08:11.998Z</time></trkpt><trkpt lat="44.76671118624079" lon="9.940533412209978"><ele>429.0</ele><time>2026-05-02T21:08:14.998Z</time></trkpt><trkpt lat="44.766637048077065" lon="9.940556578221624"><ele>429.0</ele><time>2026-05-02T21:08:17.998Z</time></trkpt><trkpt lat="44.766562292159605" lon="9.940579877157363"><ele>429.0</ele><time>2026-05-02T21:08:20.998Z</time></trkpt><trkpt lat="44.7664930778045" lon="9.940613073802373"><ele>429.5</ele><time>2026-05-02T21:08:24Z</time></trkpt><trkpt lat="44.766419150727216" lon="9.94063897722675"><ele>430.0</ele><time>2026-05-02T21:08:27Z</time></trkpt><trkpt lat="44.76634155689415" lon="9.940676017107556"><ele>430.5</ele><time>2026-05-02T21:08:30Z</time></trkpt><trkpt lat="44.766271163224445" lon="9.940703382628175"><ele>431.0</ele><time>2026-05-02T21:08:33Z</time></trkpt><trkpt lat="44.76620309953002" lon="9.940735005158194"><ele>431.5</ele><time>2026-05-02T21:08:36Z</time></trkpt><trkpt lat="44.7661281671184" lon="9.940766563701313"><ele>432.0</ele><time>2026-05-02T21:08:40Z</time></trkpt><trkpt lat="44.766046317934" lon="9.94080309572266"><ele>432.0</ele><time>2026-05-02T21:08:44Z</time></trkpt><trkpt lat="44.76597586211861" lon="9.940829394496456"><ele>432.0</ele><time>2026-05-02T21:08:47Z</time></trkpt><trkpt lat="44.76590808204783" lon="9.940854363097506"><ele>432.0</ele><time>2026-05-02T21:08:49.999Z</time></trkpt><trkpt lat="44.765830424810126" lon="9.940894446731162"><ele>432.0</ele><time>2026-05-02T21:08:53.999Z</time></trkpt><trkpt lat="44.765766556324806" lon="9.940924410796885"><ele>432.0</ele><time>2026-05-02T21:08:56.999Z</time></trkpt><trkpt lat="44.765699686591454" lon="9.940959379650703"><ele>432.0</ele><time>2026-05-02T21:08:59.999Z</time></trkpt><trkpt lat="44.765636716894726" lon="9.94099061314644"><ele>432.0</ele><time>2026-05-02T21:09:02.999Z</time></trkpt><trkpt lat="44.76557438325121" lon="9.94102604094231"><ele>432.0</ele><time>2026-05-02T21:09:05.999Z</time></trkpt><trkpt lat="44.76551747953814" lon="9.941071984556556"><ele>432.0</ele><time>2026-05-02T21:09:08.999Z</time></trkpt><trkpt lat="44.765458097857916" lon="9.941111882657033"><ele>432.0</ele><time>2026-05-02T21:09:11.999Z</time></trkpt><trkpt lat="44.7654001276573" lon="9.941158586384784"><ele>432.0</ele><time>2026-05-02T21:09:14.999Z</time></trkpt><trkpt lat="44.76534169095061" lon="9.94120485905705"><ele>432.0</ele><time>2026-05-02T21:09:17.999Z</time></trkpt><trkpt lat="44.76528448796684" lon="9.941251821071177"><ele>432.0</ele><time>2026-05-02T21:09:20.999Z</time></trkpt><trkpt lat="44.76522652747521" lon="9.941289269146106"><ele>432.0</ele><time>2026-05-02T21:09:23.999Z</time></trkpt><trkpt lat="44.76516393509955" lon="9.941337929188304"><ele>434.0</ele><time>2026-05-02T21:09:26.999Z</time></trkpt><trkpt lat="44.76508987080959" lon="9.941390880157993"><ele>436.0</ele><time>2026-05-02T21:09:29.999Z</time></trkpt><trkpt lat="44.76501842043051" lon="9.941453764688802"><ele>438.0</ele><time>2026-05-02T21:09:33.999Z</time></trkpt><trkpt lat="44.76495217744527" lon="9.941493722507692"><ele>440.0</ele><time>2026-05-02T21:09:37.999Z</time></trkpt><trkpt lat="44.76488560705088" lon="9.941546453502474"><ele>442.0</ele><time>2026-05-02T21:09:40.999Z</time></trkpt><trkpt lat="44.764828941447995" lon="9.941596169217386"><ele>444.0</ele><time>2026-05-02T21:09:43.998Z</time></trkpt><trkpt lat="44.76476288581761" lon="9.941645908030603"><ele>444.0</ele><time>2026-05-02T21:09:47.998Z</time></trkpt><trkpt lat="44.764703883420054" lon="9.941687123507705"><ele>444.0</ele><time>2026-05-02T21:09:50.998Z</time></trkpt><trkpt lat="44.76464300136098" lon="9.941741215191707"><ele>444.0</ele><time>2026-05-02T21:09:53.998Z</time></trkpt><trkpt lat="44.76458720070995" lon="9.94178936989968"><ele>444.0</ele><time>2026-05-02T21:09:56.998Z</time></trkpt><trkpt lat="44.76451301045489" lon="9.941837920061968"><ele>444.0</ele><time>2026-05-02T21:10:00.998Z</time></trkpt><trkpt lat="44.76445391054343" lon="9.941875933443825"><ele>444.0</ele><time>2026-05-02T21:10:03.998Z</time></trkpt><trkpt lat="44.76439035355349" lon="9.9419236330404"><ele>444.0</ele><time>2026-05-02T21:10:07.998Z</time></trkpt><trkpt lat="44.76432306166509" lon="9.941979779281825"><ele>445.8333333333333</ele><time>2026-05-02T21:10:11.998Z</time></trkpt><trkpt lat="44.764255104511754" lon="9.942038002444798"><ele>447.66666666666663</ele><time>2026-05-02T21:10:14.998Z</time></trkpt><trkpt lat="44.764180884812184" lon="9.942088786003659"><ele>449.5</ele><time>2026-05-02T21:10:18.998Z</time></trkpt><trkpt lat="44.764113925638526" lon="9.942157487147607"><ele>451.3333333333333</ele><time>2026-05-02T21:10:22.998Z</time></trkpt><trkpt lat="44.76404813646504" lon="9.942216192896405"><ele>453.16666666666663</ele><time>2026-05-02T21:10:26.998Z</time></trkpt><trkpt lat="44.76397955786716" lon="9.942266288340448"><ele>455.0</ele><time>2026-05-02T21:10:31Z</time></trkpt><trkpt lat="44.763914940385476" lon="9.942329332424631"><ele>454.99999999999994</ele><time>2026-05-02T21:10:35Z</time></trkpt><trkpt lat="44.76385214595523" lon="9.942396469095664"><ele>455.0</ele><time>2026-05-02T21:10:39Z</time></trkpt><trkpt lat="44.76378543189361" lon="9.942461960549515"><ele>455.0</ele><time>2026-05-02T21:10:43Z</time></trkpt><trkpt lat="44.7637129253267" lon="9.942518780910442"><ele>455.0</ele><time>2026-05-02T21:10:47Z</time></trkpt><trkpt lat="44.76364285535961" lon="9.94257335814701"><ele>454.99999999999994</ele><time>2026-05-02T21:10:51Z</time></trkpt><trkpt lat="44.76357273718795" lon="9.942620469061572"><ele>455.0</ele><time>2026-05-02T21:10:54.999Z</time></trkpt><trkpt lat="44.76349400391975" lon="9.942656808266433"><ele>456.2857142857143</ele><time>2026-05-02T21:10:58.999Z</time></trkpt><trkpt lat="44.7634244255483" lon="9.942680633231275"><ele>457.57142857142856</ele><time>2026-05-02T21:11:02.999Z</time></trkpt><trkpt lat="44.76334847105958" lon="9.942699062337999"><ele>458.8571428571429</ele><time>2026-05-02T21:11:06.999Z</time></trkpt><trkpt lat="44.76327587902865" lon="9.942724013806307"><ele>460.14285714285717</ele><time>2026-05-02T21:11:10.999Z</time></trkpt><trkpt lat="44.76320219579874" lon="9.94270835875173"><ele>461.42857142857144</ele><time>2026-05-02T21:11:14.999Z</time></trkpt><trkpt lat="44.763152286904266" lon="9.942629144097436"><ele>462.7142857142858</ele><time>2026-05-02T21:11:18.999Z</time></trkpt><trkpt lat="44.7631531605273" lon="9.942527900717952"><ele>464.00000000000006</ele><time>2026-05-02T21:11:22.999Z</time></trkpt><trkpt lat="44.763182810944315" lon="9.942422783527283"><ele>464.3333333333333</ele><time>2026-05-02T21:11:26.999Z</time></trkpt><trkpt lat="44.763220367291446" lon="9.942333597318576"><ele>464.66666666666663</ele><time>2026-05-02T21:11:30.999Z</time></trkpt><trkpt lat="44.76326228826489" lon="9.94222852305599"><ele>465.0</ele><time>2026-05-02T21:11:34.999Z</time></trkpt><trkpt lat="44.76330144450872" lon="9.94213881736371"><ele>465.33333333333337</ele><time>2026-05-02T21:11:38.999Z</time></trkpt><trkpt lat="44.76334930037899" lon="9.942036586233765"><ele>465.6666666666667</ele><time>2026-05-02T21:11:42.999Z</time></trkpt><trkpt lat="44.76339334067831" lon="9.94195454173581"><ele>466.0</ele><time>2026-05-02T21:11:46.998Z</time></trkpt><trkpt lat="44.76344689352448" lon="9.941850158991588"><ele>466.00000000000006</ele><time>2026-05-02T21:11:50.998Z</time></trkpt><trkpt lat="44.76349100193521" lon="9.941765404162151"><ele>466.0</ele><time>2026-05-02T21:11:54.998Z</time></trkpt><trkpt lat="44.76354413291572" lon="9.941661868267895"><ele>466.0</ele><time>2026-05-02T21:11:58.998Z</time></trkpt><trkpt lat="44.763582911507214" lon="9.941583338936258"><ele>466.0</ele><time>2026-05-02T21:12:02.998Z</time></trkpt><trkpt lat="44.76363794261026" lon="9.941480230280378"><ele>466.00000000000006</ele><time>2026-05-02T21:12:06.998Z</time></trkpt><trkpt lat="44.76367515477284" lon="9.941393094961503"><ele>466.0</ele><time>2026-05-02T21:12:10.998Z</time></trkpt><trkpt lat="44.76372138395377" lon="9.94132681233344"><ele>465.1666666666667</ele><time>2026-05-02T21:12:13.998Z</time></trkpt><trkpt lat="44.76377553542563" lon="9.94123150037724"><ele>464.33333333333337</ele><time>2026-05-02T21:12:17.998Z</time></trkpt><trkpt lat="44.763818927731165" lon="9.941142891263034"><ele>463.5</ele><time>2026-05-02T21:12:21.998Z</time></trkpt><trkpt lat="44.7638610258874" lon="9.941045583393002"><ele>462.66666666666663</ele><time>2026-05-02T21:12:25.998Z</time></trkpt><trkpt lat="44.7639047894229" lon="9.940949916322213"><ele>461.8333333333333</ele><time>2026-05-02T21:12:29.998Z</time></trkpt><trkpt lat="44.76393377514903" lon="9.94086970820296"><ele>461.0</ele><time>2026-05-02T21:12:32.998Z</time></trkpt><trkpt lat="44.763960458890956" lon="9.94078431545374"><ele>462.42857142857144</ele><time>2026-05-02T21:12:36Z</time></trkpt><trkpt lat="44.763983880091644" lon="9.940673439128894"><ele>463.8571428571429</ele><time>2026-05-02T21:12:40Z</time></trkpt><trkpt lat="44.76399169067285" lon="9.940585315114605"><ele>465.28571428571433</ele><time>2026-05-02T21:12:43Z</time></trkpt><trkpt lat="44.76396884755681" lon="9.940501448722433"><ele>466.7142857142858</ele><time>2026-05-02T21:12:46Z</time></trkpt><trkpt lat="44.763910650779735" lon="9.940467294962255"><ele>468.14285714285717</ele><time>2026-05-02T21:12:49Z</time></trkpt><trkpt lat="44.76385426527378" lon="9.940511679369934"><ele>469.57142857142867</ele><time>2026-05-02T21:12:52Z</time></trkpt><trkpt lat="44.76379862967035" lon="9.94058351997157"><ele>471.00000000000006</ele><time>2026-05-02T21:12:55Z</time></trkpt><trkpt lat="44.763764226547345" lon="9.940659014917332"><ele>471.00000000000006</ele><time>2026-05-02T21:12:57.999Z</time></trkpt><trkpt lat="44.763719584726985" lon="9.940728150574886"><ele>471.0</ele><time>2026-05-02T21:13:00.999Z</time></trkpt><trkpt lat="44.76366403679577" lon="9.940801662044281"><ele>471.00000000000006</ele><time>2026-05-02T21:13:03.999Z</time></trkpt><trkpt lat="44.76361210453957" lon="9.940861160573556"><ele>471.00000000000006</ele><time>2026-05-02T21:13:05.999Z</time></trkpt><trkpt lat="44.76353854900449" lon="9.94091406761084"><ele>471.0</ele><time>2026-05-02T21:13:08.999Z</time></trkpt><trkpt lat="44.7634701984939" lon="9.940957205468134"><ele>471.00000000000006</ele><time>2026-05-02T21:13:11.999Z</time></trkpt><trkpt lat="44.76340886148311" lon="9.941002971698378"><ele>471.00000000000006</ele><time>2026-05-02T21:13:14.999Z</time></trkpt><trkpt lat="44.763345673555364" lon="9.94104569681927"><ele>472.1666666666667</ele><time>2026-05-02T21:13:17.999Z</time></trkpt><trkpt lat="44.76326909129087" lon="9.941102684955464"><ele>473.33333333333337</ele><time>2026-05-02T21:13:21.999Z</time></trkpt><trkpt lat="44.763188963264305" lon="9.941131021213199"><ele>474.5</ele><time>2026-05-02T21:13:25.999Z</time></trkpt><trkpt lat="44.76311179601544" lon="9.941149189865556"><ele>475.6666666666667</ele><time>2026-05-02T21:13:28.999Z</time></trkpt><trkpt lat="44.76304222739403" lon="9.94113865162675"><ele>476.83333333333337</ele><time>2026-05-02T21:13:32.999Z</time></trkpt><trkpt lat="44.762978123742805" lon="9.941113998343162"><ele>478.0</ele><time>2026-05-02T21:13:35.999Z</time></trkpt><trkpt lat="44.76291061060827" lon="9.941085907938989"><ele>478.00000000000006</ele><time>2026-05-02T21:13:38.999Z</time></trkpt><trkpt lat="44.762841034746515" lon="9.941047516529903"><ele>478.0</ele><time>2026-05-02T21:13:41.999Z</time></trkpt><trkpt lat="44.76276128545218" lon="9.941015338599762"><ele>478.0</ele><time>2026-05-02T21:13:45.999Z</time></trkpt><trkpt lat="44.76268633962142" lon="9.941006397609092"><ele>478.0</ele><time>2026-05-02T21:13:48.999Z</time></trkpt><trkpt lat="44.76260011139566" lon="9.941038233944287"><ele>478.00000000000006</ele><time>2026-05-02T21:13:51.998Z</time></trkpt><trkpt lat="44.76254470935518" lon="9.94108799626111"><ele>478.0</ele><time>2026-05-02T21:13:54.998Z</time></trkpt><trkpt lat="44.76250048753081" lon="9.94115585381026"><ele>479.8571428571429</ele><time>2026-05-02T21:13:57.998Z</time></trkpt><trkpt lat="44.76245364305406" lon="9.941219847730453"><ele>481.7142857142857</ele><time>2026-05-02T21:14:00.998Z</time></trkpt><trkpt lat="44.762405580443954" lon="9.94129206771205"><ele>483.57142857142856</ele><time>2026-05-02T21:14:03.998Z</time></trkpt><trkpt lat="44.762360268855524" lon="9.941369164564726"><ele>485.42857142857144</ele><time>2026-05-02T21:14:06.998Z</time></trkpt><trkpt lat="44.76230588525135" lon="9.941450427200454"><ele>487.2857142857142</ele><time>2026-05-02T21:14:09.998Z</time></trkpt><trkpt lat="44.76226071028449" lon="9.94151335015808"><ele>489.1428571428571</ele><time>2026-05-02T21:14:12.998Z</time></trkpt><trkpt lat="44.76220322011116" lon="9.941566487501767"><ele>491.0</ele><time>2026-05-02T21:14:15.998Z</time></trkpt><trkpt lat="44.762143252998676" lon="9.941605558444044"><ele>491.0</ele><time>2026-05-02T21:14:18.998Z</time></trkpt><trkpt lat="44.76207582816548" lon="9.941628354990423"><ele>490.99999999999994</ele><time>2026-05-02T21:14:21.998Z</time></trkpt><trkpt lat="44.762004803850765" lon="9.941634987228088"><ele>491.0</ele><time>2026-05-02T21:14:24.998Z</time></trkpt><trkpt lat="44.76192560628368" lon="9.94163396146377"><ele>491.0</ele><time>2026-05-02T21:14:27.998Z</time></trkpt><trkpt lat="44.76186254662226" lon="9.941630007545234"><ele>490.99999999999994</ele><time>2026-05-02T21:14:30.998Z</time></trkpt><trkpt lat="44.76178171763752" lon="9.941620899565729"><ele>491.0</ele><time>2026-05-02T21:14:34.998Z</time></trkpt><trkpt lat="44.761710235415435" lon="9.941628637913919"><ele>491.0</ele><time>2026-05-02T21:14:37.998Z</time></trkpt><trkpt lat="44.761630658534436" lon="9.941655466183835"><ele>491.57142857142856</ele><time>2026-05-02T21:14:41Z</time></trkpt><trkpt lat="44.761567936114346" lon="9.941692849633105"><ele>492.1428571428571</ele><time>2026-05-02T21:14:44Z</time></trkpt><trkpt lat="44.7615023556325" lon="9.94174082127191"><ele>492.71428571428567</ele><time>2026-05-02T21:14:47Z</time></trkpt><trkpt lat="44.76144634234648" lon="9.941796740243257"><ele>493.2857142857142</ele><time>2026-05-02T21:14:50Z</time></trkpt><trkpt lat="44.76138944284375" lon="9.941860098140225"><ele>493.85714285714283</ele><time>2026-05-02T21:14:53Z</time></trkpt><trkpt lat="44.7613354107085" lon="9.941925780592337"><ele>494.42857142857133</ele><time>2026-05-02T21:14:56Z</time></trkpt><trkpt lat="44.761284224144696" lon="9.942000393967811"><ele>494.99999999999994</ele><time>2026-05-02T21:14:59Z</time></trkpt><trkpt lat="44.76123607646255" lon="9.942089544909118"><ele>494.99999999999994</ele><time>2026-05-02T21:15:01.999Z</time></trkpt><trkpt lat="44.76119730189103" lon="9.94216269624846"><ele>495.0</ele><time>2026-05-02T21:15:04.999Z</time></trkpt><trkpt lat="44.76115098926714" lon="9.942236056770131"><ele>494.99999999999994</ele><time>2026-05-02T21:15:07.999Z</time></trkpt><trkpt lat="44.76111002014762" lon="9.942305699167056"><ele>494.99999999999994</ele><time>2026-05-02T21:15:09.999Z</time></trkpt><trkpt lat="44.76107327040793" lon="9.942384341088779"><ele>495.0</ele><time>2026-05-02T21:15:12.999Z</time></trkpt><trkpt lat="44.761031729674094" lon="9.942465654842822"><ele>494.99999999999994</ele><time>2026-05-02T21:15:15.999Z</time></trkpt><trkpt lat="44.760999394418945" lon="9.942547502785443"><ele>494.99999999999994</ele><time>2026-05-02T21:15:17.999Z</time></trkpt><trkpt lat="44.76097440677669" lon="9.942637004626944"><ele>497.8571428571428</ele><time>2026-05-02T21:15:20.999Z</time></trkpt><trkpt lat="44.76095488019566" lon="9.942730210424822"><ele>500.71428571428567</ele><time>2026-05-02T21:15:23.999Z</time></trkpt><trkpt lat="44.76094953250518" lon="9.942831852379262"><ele>503.57142857142856</ele><time>2026-05-02T21:15:26.999Z</time></trkpt><trkpt lat="44.7609529688046" lon="9.942943843140872"><ele>506.4285714285714</ele><time>2026-05-02T21:15:30.999Z</time></trkpt><trkpt lat="44.760966438945516" lon="9.943038915889662"><ele>509.2857142857142</ele><time>2026-05-02T21:15:32.999Z</time></trkpt><trkpt lat="44.76098881024941" lon="9.943124511116045"><ele>512.1428571428571</ele><time>2026-05-02T21:15:35.999Z</time></trkpt><trkpt lat="44.76100787071618" lon="9.943215088215782"><ele>515.0</ele><time>2026-05-02T21:15:38.999Z</time></trkpt><trkpt lat="44.761032349719045" lon="9.943310259959933"><ele>514.2857142857143</ele><time>2026-05-02T21:15:42.999Z</time></trkpt><trkpt lat="44.76104194142717" lon="9.943406884239575"><ele>513.5714285714286</ele><time>2026-05-02T21:15:45.999Z</time></trkpt><trkpt lat="44.761035451222526" lon="9.943502761527919"><ele>512.8571428571429</ele><time>2026-05-02T21:15:48.999Z</time></trkpt><trkpt lat="44.76102249051117" lon="9.943613844290592"><ele>512.1428571428571</ele><time>2026-05-02T21:15:51.999Z</time></trkpt><trkpt lat="44.7610093706405" lon="9.943701582368323"><ele>511.42857142857144</ele><time>2026-05-02T21:15:54.998Z</time></trkpt><trkpt lat="44.760986818714" lon="9.943811117922332"><ele>510.7142857142857</ele><time>2026-05-02T21:15:58.998Z</time></trkpt><trkpt lat="44.76096111515088" lon="9.943905274367967"><ele>510.0</ele><time>2026-05-02T21:16:01.998Z</time></trkpt><trkpt lat="44.76092305531495" lon="9.943987748734452"><ele>510.0</ele><time>2026-05-02T21:16:04.998Z</time></trkpt><trkpt lat="44.7608530729506" lon="9.944034837980078"><ele>510.00000000000006</ele><time>2026-05-02T21:16:07.998Z</time></trkpt><trkpt lat="44.76078882366054" lon="9.943981724995071"><ele>510.0</ele><time>2026-05-02T21:16:11.998Z</time></trkpt><trkpt lat="44.760748032320976" lon="9.943903628586924"><ele>510.0</ele><time>2026-05-02T21:16:14.998Z</time></trkpt><trkpt lat="44.76072196024012" lon="9.94381362257342"><ele>510.00000000000006</ele><time>2026-05-02T21:16:17.998Z</time></trkpt><trkpt lat="44.760694288036696" lon="9.943716527228016"><ele>510.0</ele><time>2026-05-02T21:16:20.998Z</time></trkpt><trkpt lat="44.76067123531108" lon="9.943617294850283"><ele>510.0</ele><time>2026-05-02T21:16:24.998Z</time></trkpt><trkpt lat="44.76065173185312" lon="9.943524064139847"><ele>510.0</ele><time>2026-05-02T21:16:27.998Z</time></trkpt><trkpt lat="44.76063325460136" lon="9.943424692415737"><ele>510.00000000000006</ele><time>2026-05-02T21:16:30.998Z</time></trkpt><trkpt lat="44.76061260302971" lon="9.943328263475127"><ele>510.0</ele><time>2026-05-02T21:16:34.998Z</time></trkpt><trkpt lat="44.760591868946555" lon="9.943240940619672"><ele>510.0</ele><time>2026-05-02T21:16:37.998Z</time></trkpt><trkpt lat="44.76057174756939" lon="9.943153536365346"><ele>510.00000000000006</ele><time>2026-05-02T21:16:40.998Z</time></trkpt><trkpt lat="44.76053260726465" lon="9.943057198821345"><ele>510.0</ele><time>2026-05-02T21:16:43.998Z</time></trkpt><trkpt lat="44.760494447238386" lon="9.942969621320687"><ele>510.0</ele><time>2026-05-02T21:16:48Z</time></trkpt><trkpt lat="44.760457317234774" lon="9.942891436946828"><ele>510.5</ele><time>2026-05-02T21:16:51Z</time></trkpt><trkpt lat="44.76041535788258" lon="9.942811101431623"><ele>511.0</ele><time>2026-05-02T21:16:54Z</time></trkpt><trkpt lat="44.76036671848534" lon="9.942720690216959"><ele>511.5</ele><time>2026-05-02T21:16:57Z</time></trkpt><trkpt lat="44.76032260931195" lon="9.942627242322553"><ele>512.0</ele><time>2026-05-02T21:17:01Z</time></trkpt><trkpt lat="44.76030487977253" lon="9.942529753914625"><ele>512.5</ele><time>2026-05-02T21:17:04Z</time></trkpt><trkpt lat="44.760305193148646" lon="9.942410613078366"><ele>513.0</ele><time>2026-05-02T21:17:06.999Z</time></trkpt><trkpt lat="44.76031833863773" lon="9.942319724221319"><ele>513.0000000000001</ele><time>2026-05-02T21:17:09.999Z</time></trkpt><trkpt lat="44.760327517694165" lon="9.94223177752255"><ele>513.0</ele><time>2026-05-02T21:17:12.999Z</time></trkpt><trkpt lat="44.76034190476837" lon="9.942143923481618"><ele>513.0</ele><time>2026-05-02T21:17:14.999Z</time></trkpt><trkpt lat="44.760366781548065" lon="9.94201518834281"><ele>513.0</ele><time>2026-05-02T21:17:17.999Z</time></trkpt><trkpt lat="44.760379482376976" lon="9.94191143878234"><ele>513.0</ele><time>2026-05-02T21:17:20.999Z</time></trkpt><trkpt lat="44.76039837382228" lon="9.941825255153502"><ele>513.0000000000001</ele><time>2026-05-02T21:17:22.999Z</time></trkpt><trkpt lat="44.76041682174254" lon="9.941734682577325"><ele>513.0</ele><time>2026-05-02T21:17:25.999Z</time></trkpt><trkpt lat="44.76043809785007" lon="9.941630068877458"><ele>513.2857142857143</ele><time>2026-05-02T21:17:28.999Z</time></trkpt><trkpt lat="44.76046021963492" lon="9.941531371738028"><ele>513.5714285714286</ele><time>2026-05-02T21:17:30.999Z</time></trkpt><trkpt lat="44.76047671529236" lon="9.941432549055623"><ele>513.8571428571429</ele><time>2026-05-02T21:17:34.999Z</time></trkpt><trkpt lat="44.760502279823555" lon="9.941343097460283"><ele>514.1428571428571</ele><time>2026-05-02T21:17:37.999Z</time></trkpt><trkpt lat="44.760523875714746" lon="9.941247673693182"><ele>514.4285714285714</ele><time>2026-05-02T21:17:40.999Z</time></trkpt><trkpt lat="44.76054991503929" lon="9.941155714277848"><ele>514.7142857142858</ele><time>2026-05-02T21:17:43.999Z</time></trkpt><trkpt lat="44.760583970011794" lon="9.941069831539934"><ele>515.0</ele><time>2026-05-02T21:17:46.999Z</time></trkpt><trkpt lat="44.760619759495" lon="9.940980780167786"><ele>515.0</ele><time>2026-05-02T21:17:49.999Z</time></trkpt><trkpt lat="44.76066006850772" lon="9.940907694540698"><ele>515.0</ele><time>2026-05-02T21:17:52.999Z</time></trkpt><trkpt lat="44.76070855055935" lon="9.940823724543538"><ele>515.0</ele><time>2026-05-02T21:17:56.999Z</time></trkpt><trkpt lat="44.76075214487388" lon="9.940751050131965"><ele>515.0</ele><time>2026-05-02T21:17:59.998Z</time></trkpt><trkpt lat="44.7608120906211" lon="9.940678343448972"><ele>515.0</ele><time>2026-05-02T21:18:02.998Z</time></trkpt><trkpt lat="44.76085864882157" lon="9.940596653615891"><ele>515.0</ele><time>2026-05-02T21:18:06.998Z</time></trkpt><trkpt lat="44.760905716174186" lon="9.940532533874949"><ele>515.0</ele><time>2026-05-02T21:18:09.998Z</time></trkpt><trkpt lat="44.76095362455254" lon="9.940461572942793"><ele>514.8571428571429</ele><time>2026-05-02T21:18:12.998Z</time></trkpt><trkpt lat="44.76099388358612" lon="9.940388599664415"><ele>514.7142857142857</ele><time>2026-05-02T21:18:15.998Z</time></trkpt><trkpt lat="44.76103599146569" lon="9.940289940510537"><ele>514.5714285714286</ele><time>2026-05-02T21:18:19.998Z</time></trkpt><trkpt lat="44.76104013439934" lon="9.940198873211473"><ele>514.4285714285714</ele><time>2026-05-02T21:18:22.998Z</time></trkpt><trkpt lat="44.76101426301307" lon="9.9401117863962"><ele>514.2857142857143</ele><time>2026-05-02T21:18:25.998Z</time></trkpt><trkpt lat="44.76096139481179" lon="9.940057657348353"><ele>514.1428571428571</ele><time>2026-05-02T21:18:28.998Z</time></trkpt><trkpt lat="44.760889799291974" lon="9.940040994186115"><ele>514.0</ele><time>2026-05-02T21:18:31.998Z</time></trkpt><trkpt lat="44.76082314305974" lon="9.940059860245341"><ele>515.7142857142857</ele><time>2026-05-02T21:18:34.998Z</time></trkpt><trkpt lat="44.760751237414794" lon="9.940099881242208"><ele>517.4285714285714</ele><time>2026-05-02T21:18:37.998Z</time></trkpt><trkpt lat="44.76068190122302" lon="9.940136196105446"><ele>519.1428571428571</ele><time>2026-05-02T21:18:41.998Z</time></trkpt><trkpt lat="44.760618605231976" lon="9.940160647119237"><ele>520.8571428571429</ele><time>2026-05-02T21:18:44.998Z</time></trkpt><trkpt lat="44.76055482641551" lon="9.940187487228455"><ele>522.5714285714286</ele><time>2026-05-02T21:18:47.998Z</time></trkpt><trkpt lat="44.7604923905286" lon="9.940218497828061"><ele>524.2857142857142</ele><time>2026-05-02T21:18:50.998Z</time></trkpt><trkpt lat="44.76041777669697" lon="9.940241255075515"><ele>526.0</ele><time>2026-05-02T21:18:54Z</time></trkpt><trkpt lat="44.7603423690486" lon="9.940259248110095"><ele>526.0</ele><time>2026-05-02T21:18:58Z</time></trkpt><trkpt lat="44.76027593401035" lon="9.940286289024465"><ele>526.0</ele><time>2026-05-02T21:19:01Z</time></trkpt><trkpt lat="44.760198071298944" lon="9.940331835086944"><ele>526.0</ele><time>2026-05-02T21:19:04Z</time></trkpt><trkpt lat="44.76014003169654" lon="9.94039349306608"><ele>526.0</ele><time>2026-05-02T21:19:08Z</time></trkpt><trkpt lat="44.76009261952827" lon="9.94045985754888"><ele>526.0</ele><time>2026-05-02T21:19:10.999Z</time></trkpt><trkpt lat="44.76004372370746" lon="9.940532462972655"><ele>526.0</ele><time>2026-05-02T21:19:13.999Z</time></trkpt><trkpt lat="44.75998494139933" lon="9.94061384258421"><ele>526.0</ele><time>2026-05-02T21:19:16.999Z</time></trkpt><trkpt lat="44.759938338192626" lon="9.94070224396898"><ele>526.8571428571429</ele><time>2026-05-02T21:19:20.999Z</time></trkpt><trkpt lat="44.75988519536324" lon="9.940777170122873"><ele>527.7142857142857</ele><time>2026-05-02T21:19:23.999Z</time></trkpt><trkpt lat="44.759837932541245" lon="9.940855690842787"><ele>528.5714285714286</ele><time>2026-05-02T21:19:26.999Z</time></trkpt><trkpt lat="44.7597967960883" lon="9.94092449843122"><ele>529.4285714285714</ele><time>2026-05-02T21:19:29.999Z</time></trkpt><trkpt lat="44.75974675667738" lon="9.940993745257854"><ele>530.2857142857142</ele><time>2026-05-02T21:19:32.999Z</time></trkpt><trkpt lat="44.75969565704631" lon="9.94107446718302"><ele>531.1428571428571</ele><time>2026-05-02T21:19:35.999Z</time></trkpt><trkpt lat="44.759648117203845" lon="9.941164020526848"><ele>532.0</ele><time>2026-05-02T21:19:38.999Z</time></trkpt><trkpt lat="44.759601505958756" lon="9.94125877293864"><ele>532.0</ele><time>2026-05-02T21:19:41.999Z</time></trkpt><trkpt lat="44.75954128273926" lon="9.94136081260914"><ele>532.0</ele><time>2026-05-02T21:19:44.999Z</time></trkpt><trkpt lat="44.759510198997674" lon="9.941439748746"><ele>532.0</ele><time>2026-05-02T21:19:47.999Z</time></trkpt><trkpt lat="44.759457444948886" lon="9.941521447492986"><ele>532.0</ele><time>2026-05-02T21:19:49.999Z</time></trkpt><trkpt lat="44.75940357706549" lon="9.941616604695108"><ele>532.0</ele><time>2026-05-02T21:19:52.999Z</time></trkpt><trkpt lat="44.759358932671546" lon="9.94171463825087"><ele>532.0</ele><time>2026-05-02T21:19:55.999Z</time></trkpt><trkpt lat="44.75931833977844" lon="9.94180392213418"><ele>534.2857142857143</ele><time>2026-05-02T21:19:58.999Z</time></trkpt><trkpt lat="44.75928120425771" lon="9.94189386372542"><ele>536.5714285714286</ele><time>2026-05-02T21:20:01.999Z</time></trkpt><trkpt lat="44.75924373758311" lon="9.941972525740512"><ele>538.8571428571429</ele><time>2026-05-02T21:20:04.998Z</time></trkpt><trkpt lat="44.75919864937569" lon="9.942051121694007"><ele>541.1428571428571</ele><time>2026-05-02T21:20:07.998Z</time></trkpt><trkpt lat="44.75916400971239" lon="9.94213373322674"><ele>543.4285714285714</ele><time>2026-05-02T21:20:10.998Z</time></trkpt><trkpt lat="44.75912849710141" lon="9.942222349458502"><ele>545.7142857142858</ele><time>2026-05-02T21:20:14.998Z</time></trkpt><trkpt lat="44.75910875411504" lon="9.94232511480209"><ele>548.0</ele><time>2026-05-02T21:20:17.998Z</time></trkpt><trkpt lat="44.7590916757168" lon="9.942422554474874"><ele>548.0000000000001</ele><time>2026-05-02T21:20:21.998Z</time></trkpt><trkpt lat="44.75908058476042" lon="9.942512723247589"><ele>548.0</ele><time>2026-05-02T21:20:24.998Z</time></trkpt><trkpt lat="44.75907874233918" lon="9.942620029730831"><ele>548.0</ele><time>2026-05-02T21:20:27.998Z</time></trkpt><trkpt lat="44.759084034084026" lon="9.942724678282708"><ele>548.0</ele><time>2026-05-02T21:20:31.998Z</time></trkpt><trkpt lat="44.7590880904226" lon="9.942816309489295"><ele>548.0</ele><time>2026-05-02T21:20:34.998Z</time></trkpt><trkpt lat="44.75908485366044" lon="9.942909423212388"><ele>548.0000000000001</ele><time>2026-05-02T21:20:37.998Z</time></trkpt><trkpt lat="44.75905727729626" lon="9.943013123263427"><ele>548.0</ele><time>2026-05-02T21:20:40.998Z</time></trkpt><trkpt lat="44.7589910193212" lon="9.94300176619794"><ele>548.0000000000001</ele><time>2026-05-02T21:20:44.998Z</time></trkpt><trkpt lat="44.7589572498943" lon="9.94288515519021"><ele>548.0</ele><time>2026-05-02T21:20:48.998Z</time></trkpt><trkpt lat="44.758945682192056" lon="9.942794919010234"><ele>548.0</ele><time>2026-05-02T21:20:52.998Z</time></trkpt><trkpt lat="44.758926146797485" lon="9.942706484578967"><ele>548.0</ele><time>2026-05-02T21:20:55.998Z</time></trkpt><trkpt lat="44.758911016458114" lon="9.942590575008516"><ele>548.0</ele><time>2026-05-02T21:21:00Z</time></trkpt><trkpt lat="44.75890754412867" lon="9.94249681901415"><ele>548.0000000000001</ele><time>2026-05-02T21:21:03Z</time></trkpt><trkpt lat="44.758895385338" lon="9.942398636677249"><ele>548.0</ele><time>2026-05-02T21:21:06Z</time></trkpt><trkpt lat="44.758887753794866" lon="9.942278915538175"><ele>548.0</ele><time>2026-05-02T21:21:10Z</time></trkpt><trkpt lat="44.758890049290144" lon="9.942175802616676"><ele>548.0</ele><time>2026-05-02T21:21:14Z</time></trkpt><trkpt lat="44.758897561904014" lon="9.942062029204747"><ele>548.0</ele><time>2026-05-02T21:21:17.999Z</time></trkpt><trkpt lat="44.75890453495966" lon="9.941957781071483"><ele>548.0</ele><time>2026-05-02T21:21:21.999Z</time></trkpt><trkpt lat="44.75891985024721" lon="9.941840732883877"><ele>548.0</ele><time>2026-05-02T21:21:25.999Z</time></trkpt><trkpt lat="44.758933591879796" lon="9.941734313551528"><ele>548.0</ele><time>2026-05-02T21:21:29.999Z</time></trkpt><trkpt lat="44.758953028205525" lon="9.941627523607437"><ele>549.1428571428572</ele><time>2026-05-02T21:21:33.999Z</time></trkpt><trkpt lat="44.75897430651287" lon="9.9415218642688"><ele>550.2857142857143</ele><time>2026-05-02T21:21:37.999Z</time></trkpt><trkpt lat="44.75899394279145" lon="9.94142304004746"><ele>551.4285714285714</ele><time>2026-05-02T21:21:40.999Z</time></trkpt><trkpt lat="44.7590118463082" lon="9.94132860573241"><ele>552.5714285714287</ele><time>2026-05-02T21:21:44.999Z</time></trkpt><trkpt lat="44.759025160347136" lon="9.941240385101226"><ele>553.7142857142858</ele><time>2026-05-02T21:21:47.999Z</time></trkpt><trkpt lat="44.759038259376425" lon="9.941149781516195"><ele>554.8571428571429</ele><time>2026-05-02T21:21:50.999Z</time></trkpt><trkpt lat="44.75905277928548" lon="9.941061253599397"><ele>556.0</ele><time>2026-05-02T21:21:53.999Z</time></trkpt><trkpt lat="44.759065363597365" lon="9.940959259443186"><ele>557.5</ele><time>2026-05-02T21:21:57.999Z</time></trkpt><trkpt lat="44.75906572706942" lon="9.940834428725292"><ele>559.0</ele><time>2026-05-02T21:22:01.999Z</time></trkpt><trkpt lat="44.75906245223973" lon="9.940725279068298"><ele>560.5</ele><time>2026-05-02T21:22:05.998Z</time></trkpt><trkpt lat="44.759048370806966" lon="9.940613913913433"><ele>562.0</ele><time>2026-05-02T21:22:08.998Z</time></trkpt><trkpt lat="44.759030575816375" lon="9.940519965004999"><ele>563.5</ele><time>2026-05-02T21:22:12.998Z</time></trkpt><trkpt lat="44.75901411215878" lon="9.940430729210123"><ele>565.0</ele><time>2026-05-02T21:22:15.998Z</time></trkpt><trkpt lat="44.759003265404594" lon="9.940328946418443"><ele>564.9999999999999</ele><time>2026-05-02T21:22:18.998Z</time></trkpt><trkpt lat="44.75901022478016" lon="9.940230988401828"><ele>565.0</ele><time>2026-05-02T21:22:22.998Z</time></trkpt><trkpt lat="44.75904613117555" lon="9.940117187479975"><ele>565.0</ele><time>2026-05-02T21:22:26.998Z</time></trkpt><trkpt lat="44.759089758982164" lon="9.940029818033802"><ele>565.0</ele><time>2026-05-02T21:22:30.998Z</time></trkpt><trkpt lat="44.75912323391678" lon="9.939954725717996"><ele>565.0</ele><time>2026-05-02T21:22:33.998Z</time></trkpt><trkpt lat="44.759155067937414" lon="9.939863558875718"><ele>564.9999999999999</ele><time>2026-05-02T21:22:36.998Z</time></trkpt><trkpt lat="44.759181127442766" lon="9.939771700690924"><ele>565.0</ele><time>2026-05-02T21:22:40.998Z</time></trkpt><trkpt lat="44.75918999842787" lon="9.939677176717419"><ele>565.5714285714286</ele><time>2026-05-02T21:22:43.998Z</time></trkpt><trkpt lat="44.759189046731635" lon="9.939579214299274"><ele>566.1428571428571</ele><time>2026-05-02T21:22:46.998Z</time></trkpt><trkpt lat="44.75918384445838" lon="9.939468151066327"><ele>566.7142857142858</ele><time>2026-05-02T21:22:50.998Z</time></trkpt><trkpt lat="44.75916292346068" lon="9.939364744177867"><ele>567.2857142857142</ele><time>2026-05-02T21:22:53.998Z</time></trkpt><trkpt lat="44.75913954939042" lon="9.939272625302385"><ele>567.8571428571429</ele><time>2026-05-02T21:22:57.998Z</time></trkpt><trkpt lat="44.759113983287826" lon="9.939189391218616"><ele>568.4285714285714</ele><time>2026-05-02T21:23:00.997Z</time></trkpt><trkpt lat="44.75908140710788" lon="9.939103361939491"><ele>569.0</ele><time>2026-05-02T21:23:04Z</time></trkpt><trkpt lat="44.75903040080528" lon="9.939005099723632"><ele>569.0000000000001</ele><time>2026-05-02T21:23:07Z</time></trkpt><trkpt lat="44.75895880166453" lon="9.938917953915215"><ele>569.0</ele><time>2026-05-02T21:23:11Z</time></trkpt><trkpt lat="44.75890075566498" lon="9.938873427607476"><ele>569.0</ele><time>2026-05-02T21:23:14Z</time></trkpt><trkpt lat="44.75883604152119" lon="9.938858149180117"><ele>569.0</ele><time>2026-05-02T21:23:17Z</time></trkpt><trkpt lat="44.758773041372265" lon="9.93884857103345"><ele>569.0</ele><time>2026-05-02T21:23:19.999Z</time></trkpt><trkpt lat="44.7587073876491" lon="9.938841091183697"><ele>569.0000000000001</ele><time>2026-05-02T21:23:22.999Z</time></trkpt><trkpt lat="44.758633399771654" lon="9.938833679539918"><ele>569.0</ele><time>2026-05-02T21:23:26.999Z</time></trkpt><trkpt lat="44.7585653016738" lon="9.938834370163264"><ele>571.2857142857143</ele><time>2026-05-02T21:23:29.999Z</time></trkpt><trkpt lat="44.75850170827901" lon="9.93882697975686"><ele>573.5714285714286</ele><time>2026-05-02T21:23:33.999Z</time></trkpt><trkpt lat="44.758417667092566" lon="9.938782402912604"><ele>575.8571428571429</ele><time>2026-05-02T21:23:37.999Z</time></trkpt><trkpt lat="44.75835943306794" lon="9.93870834404808"><ele>578.1428571428571</ele><time>2026-05-02T21:23:41.999Z</time></trkpt><trkpt lat="44.75832081521295" lon="9.938612656829605"><ele>580.4285714285714</ele><time>2026-05-02T21:23:44.999Z</time></trkpt><trkpt lat="44.75829725975611" lon="9.9385213421386"><ele>582.7142857142858</ele><time>2026-05-02T21:23:48.999Z</time></trkpt><trkpt lat="44.75827978144781" lon="9.93843315472469"><ele>585.0</ele><time>2026-05-02T21:23:51.999Z</time></trkpt><trkpt lat="44.758276377535516" lon="9.93834116843304"><ele>585.0</ele><time>2026-05-02T21:23:54.999Z</time></trkpt><trkpt lat="44.75825995995446" lon="9.938253329116794"><ele>585.0</ele><time>2026-05-02T21:23:57.999Z</time></trkpt><trkpt lat="44.758236275003895" lon="9.938156750436091"><ele>585.0</ele><time>2026-05-02T21:24:00.999Z</time></trkpt><trkpt lat="44.75819869924279" lon="9.938068907156373"><ele>585.0</ele><time>2026-05-02T21:24:04.999Z</time></trkpt><trkpt lat="44.758158460173384" lon="9.937996887318414"><ele>585.0</ele><time>2026-05-02T21:24:07.999Z</time></trkpt><trkpt lat="44.75810341128432" lon="9.937915776035254"><ele>585.0</ele><time>2026-05-02T21:24:10.999Z</time></trkpt><trkpt lat="44.758058042897204" lon="9.937835675636356"><ele>585.0</ele><time>2026-05-02T21:24:14.998Z</time></trkpt><trkpt lat="44.758022799389934" lon="9.937758874639236"><ele>585.0</ele><time>2026-05-02T21:24:17.998Z</time></trkpt><trkpt lat="44.7579913266099" lon="9.937678138287858"><ele>585.0</ele><time>2026-05-02T21:24:20.998Z</time></trkpt><trkpt lat="44.75796729494672" lon="9.937577574086527"><ele>585.0</ele><time>2026-05-02T21:24:23.998Z</time></trkpt><trkpt lat="44.75795139196625" lon="9.937479903625267"><ele>585.0</ele><time>2026-05-02T21:24:27.998Z</time></trkpt><trkpt lat="44.757946074945096" lon="9.937390190127042"><ele>585.0</ele><time>2026-05-02T21:24:30.998Z</time></trkpt><trkpt lat="44.75794511633148" lon="9.93728807029186"><ele>585.0</ele><time>2026-05-02T21:24:33.998Z</time></trkpt><trkpt lat="44.757949539603636" lon="9.93718628342804"><ele>585.0</ele><time>2026-05-02T21:24:37.998Z</time></trkpt><trkpt lat="44.75796429121015" lon="9.93706338576458"><ele>584.5714285714286</ele><time>2026-05-02T21:24:41.998Z</time></trkpt><trkpt lat="44.75797992524925" lon="9.936962973070424"><ele>584.1428571428571</ele><time>2026-05-02T21:24:45.999Z</time></trkpt><trkpt lat="44.75800665987506" lon="9.936864341042584"><ele>583.7142857142857</ele><time>2026-05-02T21:24:48.999Z</time></trkpt><trkpt lat="44.75804083620012" lon="9.936782153144717"><ele>583.2857142857142</ele><time>2026-05-02T21:24:52.999Z</time></trkpt><trkpt lat="44.75807672557234" lon="9.936708148384435"><ele>582.8571428571428</ele><time>2026-05-02T21:24:55.999Z</time></trkpt><trkpt lat="44.758121002391" lon="9.936629023220659"><ele>582.4285714285714</ele><time>2026-05-02T21:24:58.999Z</time></trkpt><trkpt lat="44.75816835348986" lon="9.93655546354953"><ele>582.0</ele><time>2026-05-02T21:25:02.999Z</time></trkpt><trkpt lat="44.75821933305754" lon="9.936495663926259"><ele>582.8571428571429</ele><time>2026-05-02T21:25:05.998Z</time></trkpt><trkpt lat="44.75828022210238" lon="9.936446517363931"><ele>583.7142857142857</ele><time>2026-05-02T21:25:08.998Z</time></trkpt><trkpt lat="44.75833542157954" lon="9.93639067326222"><ele>584.5714285714286</ele><time>2026-05-02T21:25:12.001Z</time></trkpt><trkpt lat="44.758374619387666" lon="9.936313080634754"><ele>585.4285714285714</ele><time>2026-05-02T21:25:15.001Z</time></trkpt><trkpt lat="44.758373800856425" lon="9.936216922448398"><ele>586.2857142857142</ele><time>2026-05-02T21:25:18.001Z</time></trkpt><trkpt lat="44.758344951957966" lon="9.936117860989222"><ele>587.1428571428571</ele><time>2026-05-02T21:25:22.001Z</time></trkpt><trkpt lat="44.75828558422234" lon="9.93604211447456"><ele>588.0</ele><time>2026-05-02T21:25:26Z</time></trkpt><trkpt lat="44.758210605417986" lon="9.93600055608159"><ele>588.0</ele><time>2026-05-02T21:25:30Z</time></trkpt><trkpt lat="44.75813319036873" lon="9.935976686560211"><ele>588.0</ele><time>2026-05-02T21:25:34Z</time></trkpt><trkpt lat="44.758070379735784" lon="9.935946597214143"><ele>588.0</ele><time>2026-05-02T21:25:37Z</time></trkpt><trkpt lat="44.757997578407505" lon="9.935941605406068"><ele>588.0</ele><time>2026-05-02T21:25:41Z</time></trkpt><trkpt lat="44.75793433004764" lon="9.935944868753829"><ele>588.0</ele><time>2026-05-02T21:25:44Z</time></trkpt><trkpt lat="44.75787439961128" lon="9.935973333636035"><ele>588.0</ele><time>2026-05-02T21:25:47Z</time></trkpt><trkpt lat="44.75780726018955" lon="9.936040796865502"><ele>588.0</ele><time>2026-05-02T21:25:51Z</time></trkpt><trkpt lat="44.7577656353548" lon="9.93610768293033"><ele>588.0</ele><time>2026-05-02T21:25:54Z</time></trkpt><trkpt lat="44.75771105618278" lon="9.936195793262305"><ele>588.0</ele><time>2026-05-02T21:25:58Z</time></trkpt><trkpt lat="44.7576663884934" lon="9.93627237737922"><ele>588.0</ele><time>2026-05-02T21:26:01Z</time></trkpt><trkpt lat="44.75762436563844" lon="9.936339404355099"><ele>588.0</ele><time>2026-05-02T21:26:04Z</time></trkpt><trkpt lat="44.75759220563434" lon="9.936420055960859"><ele>588.0</ele><time>2026-05-02T21:26:07Z</time></trkpt><trkpt lat="44.757558286636026" lon="9.936495007634914"><ele>588.0</ele><time>2026-05-02T21:26:10Z</time></trkpt><trkpt lat="44.75752589893724" lon="9.936577156616453"><ele>588.0</ele><time>2026-05-02T21:26:13Z</time></trkpt><trkpt lat="44.757500519280384" lon="9.936664917141986"><ele>590.7142857142857</ele><time>2026-05-02T21:26:16Z</time></trkpt><trkpt lat="44.757467301257286" lon="9.936760983548627"><ele>593.4285714285714</ele><time>2026-05-02T21:26:18.999Z</time></trkpt><trkpt lat="44.75743343974348" lon="9.936859979080287"><ele>596.1428571428571</ele><time>2026-05-02T21:26:22.999Z</time></trkpt><trkpt lat="44.75740492130234" lon="9.936946717659657"><ele>598.8571428571429</ele><time>2026-05-02T21:26:25.999Z</time></trkpt><trkpt lat="44.75738151001746" lon="9.937048695745899"><ele>601.5714285714286</ele><time>2026-05-02T21:26:28.999Z</time></trkpt><trkpt lat="44.75734474185898" lon="9.937141676177268"><ele>604.2857142857142</ele><time>2026-05-02T21:26:32.999Z</time></trkpt><trkpt lat="44.757311386618014" lon="9.937227274533187"><ele>607.0</ele><time>2026-05-02T21:26:35.999Z</time></trkpt><trkpt lat="44.757277575933564" lon="9.937332220849072"><ele>606.9999999999999</ele><time>2026-05-02T21:26:38.999Z</time></trkpt><trkpt lat="44.7572482232965" lon="9.937419009753413"><ele>607.0</ele><time>2026-05-02T21:26:41.999Z</time></trkpt><trkpt lat="44.75722403377364" lon="9.937519000967907"><ele>607.0</ele><time>2026-05-02T21:26:45.999Z</time></trkpt><trkpt lat="44.75719987260629" lon="9.93760911001398"><ele>607.0</ele><time>2026-05-02T21:26:48.999Z</time></trkpt><trkpt lat="44.757186257102354" lon="9.937702718998883"><ele>607.0</ele><time>2026-05-02T21:26:51.999Z</time></trkpt><trkpt lat="44.7571869772582" lon="9.937826129447167"><ele>606.9999999999999</ele><time>2026-05-02T21:26:54.999Z</time></trkpt><trkpt lat="44.75718904637516" lon="9.937924155717244"><ele>607.0</ele><time>2026-05-02T21:26:58.999Z</time></trkpt><trkpt lat="44.75720904848922" lon="9.938018005762457"><ele>607.6666666666667</ele><time>2026-05-02T21:27:01.999Z</time></trkpt><trkpt lat="44.75724221727784" lon="9.938107919890513"><ele>608.3333333333334</ele><time>2026-05-02T21:27:04.999Z</time></trkpt><trkpt lat="44.757286883593984" lon="9.938190523058871"><ele>609.0</ele><time>2026-05-02T21:27:07.999Z</time></trkpt><trkpt lat="44.757351558953836" lon="9.938273126338512"><ele>609.6666666666666</ele><time>2026-05-02T21:27:10.998Z</time></trkpt><trkpt lat="44.7574069490255" lon="9.938339335934351"><ele>610.3333333333333</ele><time>2026-05-02T21:27:13.998Z</time></trkpt><trkpt lat="44.757461756771036" lon="9.938413482991372"><ele>611.0</ele><time>2026-05-02T21:27:16Z</time></trkpt><trkpt lat="44.75752561938171" lon="9.938491505826494"><ele>611.0</ele><time>2026-05-02T21:27:19Z</time></trkpt><trkpt lat="44.75757013342445" lon="9.938591144002126"><ele>611.0</ele><time>2026-05-02T21:27:22Z</time></trkpt><trkpt lat="44.757582691441634" lon="9.93869845713724"><ele>611.0</ele><time>2026-05-02T21:27:25Z</time></trkpt><trkpt lat="44.75757692544782" lon="9.938810586519638"><ele>611.0</ele><time>2026-05-02T21:27:28Z</time></trkpt><trkpt lat="44.75753864536235" lon="9.938917451346487"><ele>611.0</ele><time>2026-05-02T21:27:31Z</time></trkpt><trkpt lat="44.75748359018959" lon="9.938974032036844"><ele>611.0</ele><time>2026-05-02T21:27:34Z</time></trkpt><trkpt lat="44.757420475929734" lon="9.93899925888925"><ele>611.0000000000001</ele><time>2026-05-02T21:27:37Z</time></trkpt><trkpt lat="44.75734390464655" lon="9.939007415533647"><ele>611.0</ele><time>2026-05-02T21:27:40Z</time></trkpt><trkpt lat="44.75728085124217" lon="9.9389801718321"><ele>611.0</ele><time>2026-05-02T21:27:44Z</time></trkpt><trkpt lat="44.757218671914906" lon="9.938932562117392"><ele>611.0</ele><time>2026-05-02T21:27:47Z</time></trkpt><trkpt lat="44.7571646886804" lon="9.93887531758428"><ele>611.0</ele><time>2026-05-02T21:27:51Z</time></trkpt><trkpt lat="44.75710523725993" lon="9.938789724876862"><ele>611.0000000000001</ele><time>2026-05-02T21:27:55Z</time></trkpt><trkpt lat="44.75707172570746" lon="9.938699196474994"><ele>611.0</ele><time>2026-05-02T21:27:59Z</time></trkpt><trkpt lat="44.7570465866829" lon="9.938602304687818"><ele>611.0</ele><time>2026-05-02T21:28:02Z</time></trkpt><trkpt lat="44.757027314382384" lon="9.93846754720637"><ele>611.0</ele><time>2026-05-02T21:28:07Z</time></trkpt><trkpt lat="44.757011844273016" lon="9.938377579457713"><ele>611.0</ele><time>2026-05-02T21:28:11Z</time></trkpt><trkpt lat="44.756988801693936" lon="9.938262176925717"><ele>611.0</ele><time>2026-05-02T21:28:15Z</time></trkpt><trkpt lat="44.75697496304576" lon="9.93815535462769"><ele>611.0</ele><time>2026-05-02T21:28:19Z</time></trkpt><trkpt lat="44.7569595611729" lon="9.938053993276204"><ele>611.0</ele><time>2026-05-02T21:28:21.999Z</time></trkpt><trkpt lat="44.75694246333506" lon="9.93795372434902"><ele>611.3333333333333</ele><time>2026-05-02T21:28:25.999Z</time></trkpt><trkpt lat="44.756928071318946" lon="9.93785735855365"><ele>611.6666666666666</ele><time>2026-05-02T21:28:28.999Z</time></trkpt><trkpt lat="44.756907727159344" lon="9.93773770848912"><ele>612.0</ele><time>2026-05-02T21:28:31.999Z</time></trkpt><trkpt lat="44.7568869552153" lon="9.937644941273563"><ele>612.3333333333334</ele><time>2026-05-02T21:28:34.999Z</time></trkpt><trkpt lat="44.756871502614466" lon="9.937532235935095"><ele>612.6666666666667</ele><time>2026-05-02T21:28:38.999Z</time></trkpt><trkpt lat="44.75685782547509" lon="9.937429149377927"><ele>613.0</ele><time>2026-05-02T21:28:41.999Z</time></trkpt><trkpt lat="44.75684977755674" lon="9.937314489760436"><ele>614.0</ele><time>2026-05-02T21:28:44.999Z</time></trkpt><trkpt lat="44.756842010195115" lon="9.937214576946836"><ele>615.0</ele><time>2026-05-02T21:28:48.999Z</time></trkpt><trkpt lat="44.756844475778394" lon="9.93711454004692"><ele>616.0</ele><time>2026-05-02T21:28:51.999Z</time></trkpt><trkpt lat="44.75685394759199" lon="9.937017793929053"><ele>617.0</ele><time>2026-05-02T21:28:54.999Z</time></trkpt><trkpt lat="44.75686286209478" lon="9.936924370847564"><ele>618.0</ele><time>2026-05-02T21:28:57.999Z</time></trkpt><trkpt lat="44.756801406364715" lon="9.937007567301364"><ele>619.0</ele><time>2026-05-02T21:29:03.999Z</time></trkpt><trkpt lat="44.75677250383515" lon="9.937108059786874"><ele>620.0</ele><time>2026-05-02T21:33:24.998Z</time></trkpt><trkpt lat="44.7567754552461" lon="9.937208576145926"><ele>620.0</ele><time>2026-05-02T21:33:27.998Z</time></trkpt><trkpt lat="44.75677757292161" lon="9.937301288114405"><ele>620.0</ele><time>2026-05-02T21:33:29.998Z</time></trkpt><trkpt lat="44.756779530634155" lon="9.937405456244585"><ele>620.0</ele><time>2026-05-02T21:33:31.998Z</time></trkpt><trkpt lat="44.7567937257489" lon="9.937498964450429"><ele>620.0</ele><time>2026-05-02T21:33:34Z</time></trkpt><trkpt lat="44.756811133056644" lon="9.937600527704701"><ele>620.0</ele><time>2026-05-02T21:33:36Z</time></trkpt><trkpt lat="44.75682998806867" lon="9.937699784436658"><ele>620.0</ele><time>2026-05-02T21:33:38Z</time></trkpt><trkpt lat="44.756846835715635" lon="9.937802479132593"><ele>620.0</ele><time>2026-05-02T21:33:40Z</time></trkpt><trkpt lat="44.756867049898766" lon="9.937922238100917"><ele>618.6</ele><time>2026-05-02T21:33:42Z</time></trkpt><trkpt lat="44.756888395826905" lon="9.938056879745808"><ele>617.2</ele><time>2026-05-02T21:33:44Z</time></trkpt><trkpt lat="44.75691607930696" lon="9.938209568118717"><ele>615.8</ele><time>2026-05-02T21:33:46Z</time></trkpt><trkpt lat="44.75693764875889" lon="9.938361765873388"><ele>614.4</ele><time>2026-05-02T21:33:48Z</time></trkpt><trkpt lat="44.75696276284016" lon="9.938516850830347"><ele>613.0</ele><time>2026-05-02T21:33:50Z</time></trkpt><trkpt lat="44.756989753982985" lon="9.938675722746238"><ele>612.6</ele><time>2026-05-02T21:33:52Z</time></trkpt><trkpt lat="44.757038639565785" lon="9.938808926230692"><ele>612.1999999999999</ele><time>2026-05-02T21:33:54Z</time></trkpt><trkpt lat="44.75710509635072" lon="9.938932870132378"><ele>611.8</ele><time>2026-05-02T21:33:56Z</time></trkpt><trkpt lat="44.757203252083045" lon="9.939025536703639"><ele>611.4</ele><time>2026-05-02T21:33:58Z</time></trkpt><trkpt lat="44.75730516989025" lon="9.939089667786977"><ele>611.0</ele><time>2026-05-02T21:34:00Z</time></trkpt><trkpt lat="44.7574088001496" lon="9.939091269225669"><ele>611.0</ele><time>2026-05-02T21:34:02Z</time></trkpt><trkpt lat="44.757512186973514" lon="9.93903809505083"><ele>611.0</ele><time>2026-05-02T21:34:04Z</time></trkpt><trkpt lat="44.75760604491249" lon="9.938914790518254"><ele>611.0</ele><time>2026-05-02T21:34:06Z</time></trkpt><trkpt lat="44.75763841201322" lon="9.938819705446775"><ele>611.0</ele><time>2026-05-02T21:34:07Z</time></trkpt><trkpt lat="44.757651219324465" lon="9.938721899916553"><ele>611.0</ele><time>2026-05-02T21:34:08Z</time></trkpt><trkpt lat="44.757631206188705" lon="9.938555494191203"><ele>611.0000000000001</ele><time>2026-05-02T21:34:10Z</time></trkpt><trkpt lat="44.75755432785925" lon="9.938419796472315"><ele>611.0</ele><time>2026-05-02T21:34:12Z</time></trkpt><trkpt lat="44.7575063022249" lon="9.938359557705166"><ele>611.0</ele><time>2026-05-02T21:34:13Z</time></trkpt><trkpt lat="44.757454046583284" lon="9.938305241641011"><ele>611.0</ele><time>2026-05-02T21:34:14Z</time></trkpt><trkpt lat="44.75740208178691" lon="9.93824939553718"><ele>611.0</ele><time>2026-05-02T21:34:15Z</time></trkpt><trkpt lat="44.75735100749853" lon="9.938192208742997"><ele>611.0000000000001</ele><time>2026-05-02T21:34:16Z</time></trkpt><trkpt lat="44.75730258290917" lon="9.938129019783235"><ele>611.0</ele><time>2026-05-02T21:34:17Z</time></trkpt><trkpt lat="44.757259514713425" lon="9.938057002213327"><ele>611.2857142857143</ele><time>2026-05-02T21:34:18Z</time></trkpt><trkpt lat="44.75722847916872" lon="9.937975619975228"><ele>611.5714285714286</ele><time>2026-05-02T21:34:19Z</time></trkpt><trkpt lat="44.75721080100012" lon="9.937886312239844"><ele>611.8571428571429</ele><time>2026-05-02T21:34:20Z</time></trkpt><trkpt lat="44.75720382638851" lon="9.937795701250327"><ele>612.1428571428571</ele><time>2026-05-02T21:34:21Z</time></trkpt><trkpt lat="44.757206043015465" lon="9.937699392884905"><ele>612.4285714285714</ele><time>2026-05-02T21:34:22Z</time></trkpt><trkpt lat="44.75721780556476" lon="9.93760659289283"><ele>612.7142857142858</ele><time>2026-05-02T21:34:23Z</time></trkpt><trkpt lat="44.75724337961101" lon="9.937517314810847"><ele>613.0</ele><time>2026-05-02T21:34:24Z</time></trkpt><trkpt lat="44.757275819163404" lon="9.93742861705979"><ele>612.1428571428571</ele><time>2026-05-02T21:34:25Z</time></trkpt><trkpt lat="44.75730994055464" lon="9.93733904334606"><ele>611.2857142857142</ele><time>2026-05-02T21:34:26Z</time></trkpt><trkpt lat="44.75733888076384" lon="9.93724784027918"><ele>610.4285714285713</ele><time>2026-05-02T21:34:27Z</time></trkpt><trkpt lat="44.75736980136585" lon="9.937154562577957"><ele>609.5714285714286</ele><time>2026-05-02T21:34:28Z</time></trkpt><trkpt lat="44.75740007946319" lon="9.937059867090543"><ele>608.7142857142857</ele><time>2026-05-02T21:34:29Z</time></trkpt><trkpt lat="44.757430907480654" lon="9.936973794799307"><ele>607.8571428571428</ele><time>2026-05-02T21:34:29.999Z</time></trkpt><trkpt lat="44.757459621044276" lon="9.936888634487818"><ele>607.0</ele><time>2026-05-02T21:34:30.999Z</time></trkpt><trkpt lat="44.7574865989191" lon="9.936806892597955"><ele>607.8333333333334</ele><time>2026-05-02T21:34:31.999Z</time></trkpt><trkpt lat="44.75754079966575" lon="9.936646877880671"><ele>608.6666666666667</ele><time>2026-05-02T21:34:33.999Z</time></trkpt><trkpt lat="44.75757068547827" lon="9.936563740530534"><ele>609.5</ele><time>2026-05-02T21:34:34.999Z</time></trkpt><trkpt lat="44.757601772906575" lon="9.936478776925577"><ele>610.3333333333334</ele><time>2026-05-02T21:34:35.999Z</time></trkpt><trkpt lat="44.75763301374787" lon="9.936395821832372"><ele>611.1666666666666</ele><time>2026-05-02T21:34:36.999Z</time></trkpt><trkpt lat="44.757668325627314" lon="9.936315991305843"><ele>612.0</ele><time>2026-05-02T21:34:37.999Z</time></trkpt><trkpt lat="44.75770926090409" lon="9.936235678443513"><ele>608.5714285714286</ele><time>2026-05-02T21:34:38.999Z</time></trkpt><trkpt lat="44.75775869893463" lon="9.93616111043586"><ele>605.1428571428571</ele><time>2026-05-02T21:34:39.999Z</time></trkpt><trkpt lat="44.75781051465757" lon="9.936097232179499"><ele>601.7142857142858</ele><time>2026-05-02T21:34:40.999Z</time></trkpt><trkpt lat="44.75786459881793" lon="9.936042031727307"><ele>598.2857142857142</ele><time>2026-05-02T21:34:41.999Z</time></trkpt><trkpt lat="44.757927687670346" lon="9.936007587948673"><ele>594.8571428571429</ele><time>2026-05-02T21:34:42.999Z</time></trkpt><trkpt lat="44.75799672162337" lon="9.935995220392359"><ele>591.4285714285714</ele><time>2026-05-02T21:34:43.999Z</time></trkpt><trkpt lat="44.75807063699269" lon="9.936006411918676"><ele>588.0</ele><time>2026-05-02T21:34:44.999Z</time></trkpt><trkpt lat="44.758144610951085" lon="9.936028827723666"><ele>588.0</ele><time>2026-05-02T21:34:45.999Z</time></trkpt><trkpt lat="44.75820550250977" lon="9.936052085341363"><ele>588.0</ele><time>2026-05-02T21:34:46.999Z</time></trkpt><trkpt lat="44.75830502362856" lon="9.93611469609938"><ele>588.0</ele><time>2026-05-02T21:34:48.999Z</time></trkpt><trkpt lat="44.75835686695523" lon="9.936224914802686"><ele>588.0</ele><time>2026-05-02T21:34:50.999Z</time></trkpt><trkpt lat="44.75831071753666" lon="9.936378619347844"><ele>588.0</ele><time>2026-05-02T21:34:52.999Z</time></trkpt><trkpt lat="44.758247064028204" lon="9.936427638089711"><ele>588.0</ele><time>2026-05-02T21:34:53.999Z</time></trkpt><trkpt lat="44.7581811399215" lon="9.936472208825107"><ele>588.0</ele><time>2026-05-02T21:34:54.999Z</time></trkpt><trkpt lat="44.758121897194336" lon="9.936533098946597"><ele>588.0</ele><time>2026-05-02T21:34:55.999Z</time></trkpt><trkpt lat="44.758073643781486" lon="9.936608755440604"><ele>588.0</ele><time>2026-05-02T21:34:56.999Z</time></trkpt><trkpt lat="44.75802720204292" lon="9.936696814682815"><ele>588.0</ele><time>2026-05-02T21:34:57.999Z</time></trkpt><trkpt lat="44.75798756836076" lon="9.936787529915446"><ele>588.0</ele><time>2026-05-02T21:34:58.999Z</time></trkpt><trkpt lat="44.757957014159345" lon="9.936886261813717"><ele>588.0</ele><time>2026-05-02T21:34:59.999Z</time></trkpt><trkpt lat="44.757931399556156" lon="9.936992010552427"><ele>587.5</ele><time>2026-05-02T21:35:00.999Z</time></trkpt><trkpt lat="44.75791172273832" lon="9.93710290619296"><ele>587.0</ele><time>2026-05-02T21:35:01.999Z</time></trkpt><trkpt lat="44.757901091352686" lon="9.937211911126365"><ele>586.5</ele><time>2026-05-02T21:35:02.999Z</time></trkpt><trkpt lat="44.75789539898065" lon="9.937321755769418"><ele>586.0</ele><time>2026-05-02T21:35:03.999Z</time></trkpt><trkpt lat="44.7578959725217" lon="9.937431924095396"><ele>585.5</ele><time>2026-05-02T21:35:04.999Z</time></trkpt><trkpt lat="44.757906641399885" lon="9.937540940085594"><ele>585.0</ele><time>2026-05-02T21:35:05.999Z</time></trkpt><trkpt lat="44.75792499490204" lon="9.937644353275397"><ele>585.0</ele><time>2026-05-02T21:35:06.999Z</time></trkpt><trkpt lat="44.757950125183754" lon="9.937739710224117"><ele>585.0</ele><time>2026-05-02T21:35:07.999Z</time></trkpt><trkpt lat="44.75798872257644" lon="9.937827020911582"><ele>585.0</ele><time>2026-05-02T21:35:08.999Z</time></trkpt><trkpt lat="44.75803757807196" lon="9.937905566614218"><ele>585.0</ele><time>2026-05-02T21:35:09.999Z</time></trkpt><trkpt lat="44.75808920936529" lon="9.937982003281546"><ele>585.0</ele><time>2026-05-02T21:35:10.999Z</time></trkpt><trkpt lat="44.758141316206704" lon="9.938057012949546"><ele>585.0</ele><time>2026-05-02T21:35:11.999Z</time></trkpt><trkpt lat="44.75818318664493" lon="9.93814423286429"><ele>585.0</ele><time>2026-05-02T21:35:12.999Z</time></trkpt><trkpt lat="44.7582138270028" lon="9.938246128598593"><ele>585.0</ele><time>2026-05-02T21:35:13.999Z</time></trkpt><trkpt lat="44.758228609625775" lon="9.938348995308345"><ele>585.0</ele><time>2026-05-02T21:35:14.999Z</time></trkpt><trkpt lat="44.75824254320964" lon="9.93845051303978"><ele>585.0</ele><time>2026-05-02T21:35:15.999Z</time></trkpt><trkpt lat="44.758256084203964" lon="9.938543956170596"><ele>585.0</ele><time>2026-05-02T21:35:16.999Z</time></trkpt><trkpt lat="44.75827459582006" lon="9.938632126472871"><ele>585.0</ele><time>2026-05-02T21:35:17.999Z</time></trkpt><trkpt lat="44.75829009709726" lon="9.938723938079079"><ele>585.0</ele><time>2026-05-02T21:35:18.999Z</time></trkpt><trkpt lat="44.75834340257321" lon="9.938781525862844"><ele>585.0</ele><time>2026-05-02T21:35:19.999Z</time></trkpt><trkpt lat="44.75839514966791" lon="9.938833233973687"><ele>586.0</ele><time>2026-05-02T21:35:20.999Z</time></trkpt><trkpt lat="44.75846062698734" lon="9.938866800763742"><ele>587.0</ele><time>2026-05-02T21:35:21.999Z</time></trkpt><trkpt lat="44.75853103630893" lon="9.938882096112538"><ele>588.0</ele><time>2026-05-02T21:35:22.998Z</time></trkpt><trkpt lat="44.758601244179644" lon="9.938895641419844"><ele>589.0</ele><time>2026-05-02T21:35:23.998Z</time></trkpt><trkpt lat="44.758674553456814" lon="9.938897034669022"><ele>590.0</ele><time>2026-05-02T21:35:24.998Z</time></trkpt><trkpt lat="44.75874780155434" lon="9.938895086182416"><ele>591.0</ele><time>2026-05-02T21:35:25.998Z</time></trkpt><trkpt lat="44.7588212446602" lon="9.938898426594815"><ele>592.0</ele><time>2026-05-02T21:35:26.998Z</time></trkpt><trkpt lat="44.75889180242818" lon="9.938932738681565"><ele>588.3333333333334</ele><time>2026-05-02T21:35:27.998Z</time></trkpt><trkpt lat="44.75895723398712" lon="9.938987278960306"><ele>584.6666666666667</ele><time>2026-05-02T21:35:28.998Z</time></trkpt><trkpt lat="44.75901372636306" lon="9.93905929547761"><ele>581.0</ele><time>2026-05-02T21:35:29.998Z</time></trkpt><trkpt lat="44.75906214665335" lon="9.93914845263206"><ele>577.3333333333334</ele><time>2026-05-02T21:35:30.998Z</time></trkpt><trkpt lat="44.75909699472087" lon="9.939249045151554"><ele>573.6666666666666</ele><time>2026-05-02T21:35:31.998Z</time></trkpt><trkpt lat="44.759129876851404" lon="9.93935224819593"><ele>570.0</ele><time>2026-05-02T21:35:32.998Z</time></trkpt><trkpt lat="44.75915066675793" lon="9.939461096578139"><ele>570.0</ele><time>2026-05-02T21:35:33.998Z</time></trkpt><trkpt lat="44.759164557679476" lon="9.939573719895758"><ele>570.0</ele><time>2026-05-02T21:35:34.998Z</time></trkpt><trkpt lat="44.759164015810626" lon="9.939684516062648"><ele>570.0</ele><time>2026-05-02T21:35:35.998Z</time></trkpt><trkpt lat="44.75914805401253" lon="9.93979119894221"><ele>570.0</ele><time>2026-05-02T21:35:36.998Z</time></trkpt><trkpt lat="44.75911177342635" lon="9.939892057847176"><ele>570.0</ele><time>2026-05-02T21:35:37.998Z</time></trkpt><trkpt lat="44.759060706673786" lon="9.939984036715456"><ele>570.0</ele><time>2026-05-02T21:35:39Z</time></trkpt><trkpt lat="44.759011254548646" lon="9.940072660646303"><ele>569.1666666666666</ele><time>2026-05-02T21:35:40Z</time></trkpt><trkpt lat="44.75897618934927" lon="9.940167865461511"><ele>568.3333333333334</ele><time>2026-05-02T21:35:41Z</time></trkpt><trkpt lat="44.75895945476233" lon="9.94027289761853"><ele>567.5</ele><time>2026-05-02T21:35:42Z</time></trkpt><trkpt lat="44.75896229957465" lon="9.940381692516368"><ele>566.6666666666667</ele><time>2026-05-02T21:35:43Z</time></trkpt><trkpt lat="44.758980113464006" lon="9.940488709040947"><ele>565.8333333333334</ele><time>2026-05-02T21:35:44Z</time></trkpt><trkpt lat="44.75900233762332" lon="9.940595257028294"><ele>565.0</ele><time>2026-05-02T21:35:45Z</time></trkpt><trkpt lat="44.75901672499222" lon="9.940702647573566"><ele>565.0</ele><time>2026-05-02T21:35:46Z</time></trkpt><trkpt lat="44.759023531966925" lon="9.940813365719148"><ele>565.0</ele><time>2026-05-02T21:35:47Z</time></trkpt><trkpt lat="44.75902004754605" lon="9.940923951885678"><ele>565.0</ele><time>2026-05-02T21:35:48Z</time></trkpt><trkpt lat="44.75900407664277" lon="9.94103283568982"><ele>565.0</ele><time>2026-05-02T21:35:49Z</time></trkpt><trkpt lat="44.758989384832724" lon="9.941143883994792"><ele>565.0</ele><time>2026-05-02T21:35:50Z</time></trkpt><trkpt lat="44.7589744488096" lon="9.941254960374495"><ele>565.0</ele><time>2026-05-02T21:35:51Z</time></trkpt><trkpt lat="44.758956790114276" lon="9.941367488490416"><ele>563.5</ele><time>2026-05-02T21:35:52Z</time></trkpt><trkpt lat="44.758933223045446" lon="9.941479412445812"><ele>562.0</ele><time>2026-05-02T21:35:53Z</time></trkpt><trkpt lat="44.758907833500714" lon="9.941592228669084"><ele>560.5</ele><time>2026-05-02T21:35:54Z</time></trkpt><trkpt lat="44.75888288969805" lon="9.941705104966706"><ele>559.0</ele><time>2026-05-02T21:35:55Z</time></trkpt><trkpt lat="44.75886283303908" lon="9.941817661646358"><ele>557.5</ele><time>2026-05-02T21:35:56Z</time></trkpt><trkpt lat="44.75884978553039" lon="9.941929523866683"><ele>556.0</ele><time>2026-05-02T21:35:57Z</time></trkpt><trkpt lat="44.75884009961958" lon="9.942041677298098"><ele>554.6666666666667</ele><time>2026-05-02T21:35:58Z</time></trkpt><trkpt lat="44.75883559512576" lon="9.942157541905974"><ele>553.3333333333334</ele><time>2026-05-02T21:35:59Z</time></trkpt><trkpt lat="44.75884041615564" lon="9.94228225434321"><ele>552.0</ele><time>2026-05-02T21:36:00Z</time></trkpt><trkpt lat="44.75884771289343" lon="9.942404214764274"><ele>550.6666666666666</ele><time>2026-05-02T21:36:01Z</time></trkpt><trkpt lat="44.758858738562516" lon="9.94252572883942"><ele>549.3333333333333</ele><time>2026-05-02T21:36:02Z</time></trkpt><trkpt lat="44.75887620086695" lon="9.942643728373605"><ele>548.0</ele><time>2026-05-02T21:36:03Z</time></trkpt><trkpt lat="44.75889688461401" lon="9.942749913364901"><ele>547.4</ele><time>2026-05-02T21:36:04Z</time></trkpt><trkpt lat="44.75891564450717" lon="9.94284680419967"><ele>546.8</ele><time>2026-05-02T21:36:05Z</time></trkpt><trkpt lat="44.75894821329456" lon="9.94300624093813"><ele>546.2</ele><time>2026-05-02T21:36:07Z</time></trkpt><trkpt lat="44.75901444710415" lon="9.94309261417663"><ele>545.6</ele><time>2026-05-02T21:36:09Z</time></trkpt><trkpt lat="44.759102347004955" lon="9.943043599453953"><ele>545.0</ele><time>2026-05-02T21:36:11Z</time></trkpt><trkpt lat="44.75911753947963" lon="9.94287553172925"><ele>545.0</ele><time>2026-05-02T21:36:13Z</time></trkpt><trkpt lat="44.759113110770805" lon="9.942784737847301"><ele>545.0</ele><time>2026-05-02T21:36:14Z</time></trkpt><trkpt lat="44.75910752414564" lon="9.942690901589359"><ele>545.0</ele><time>2026-05-02T21:36:15Z</time></trkpt><trkpt lat="44.759104861045316" lon="9.94259194477217"><ele>545.0</ele><time>2026-05-02T21:36:16Z</time></trkpt><trkpt lat="44.7591078119991" lon="9.94248861245036"><ele>545.0</ele><time>2026-05-02T21:36:17Z</time></trkpt><trkpt lat="44.75911663933441" lon="9.942389107425662"><ele>545.0</ele><time>2026-05-02T21:36:18Z</time></trkpt><trkpt lat="44.75913467184815" lon="9.942288005267093"><ele>545.0</ele><time>2026-05-02T21:36:19Z</time></trkpt><trkpt lat="44.75916654729769" lon="9.942186937149808"><ele>545.5</ele><time>2026-05-02T21:36:20Z</time></trkpt><trkpt lat="44.75920250840914" lon="9.94209076247221"><ele>546.0</ele><time>2026-05-02T21:36:21Z</time></trkpt><trkpt lat="44.75924572826875" lon="9.94200120481361"><ele>546.5</ele><time>2026-05-02T21:36:22Z</time></trkpt><trkpt lat="44.759289724606255" lon="9.941914842498543"><ele>547.0</ele><time>2026-05-02T21:36:23Z</time></trkpt><trkpt lat="44.759332627557484" lon="9.941829085913815"><ele>547.5</ele><time>2026-05-02T21:36:24Z</time></trkpt><trkpt lat="44.759377680627324" lon="9.941745953546487"><ele>548.0</ele><time>2026-05-02T21:36:25Z</time></trkpt><trkpt lat="44.75942246144772" lon="9.941658416601532"><ele>545.3333333333333</ele><time>2026-05-02T21:36:26Z</time></trkpt><trkpt lat="44.75946813441246" lon="9.941566481632204"><ele>542.6666666666666</ele><time>2026-05-02T21:36:27Z</time></trkpt><trkpt lat="44.75951196462642" lon="9.94147225510154"><ele>540.0</ele><time>2026-05-02T21:36:28Z</time></trkpt><trkpt lat="44.75955934476056" lon="9.941376741249297"><ele>537.3333333333334</ele><time>2026-05-02T21:36:29Z</time></trkpt><trkpt lat="44.759605348263385" lon="9.941278976047053"><ele>534.6666666666667</ele><time>2026-05-02T21:36:30Z</time></trkpt><trkpt lat="44.75965347169701" lon="9.941182786411188"><ele>532.0</ele><time>2026-05-02T21:36:31Z</time></trkpt><trkpt lat="44.75970486423686" lon="9.941089656788737"><ele>532.0</ele><time>2026-05-02T21:36:32Z</time></trkpt><trkpt lat="44.75975745446574" lon="9.940999399160717"><ele>532.0</ele><time>2026-05-02T21:36:33Z</time></trkpt><trkpt lat="44.75981069613876" lon="9.940910123984565"><ele>532.0</ele><time>2026-05-02T21:36:34Z</time></trkpt><trkpt lat="44.7598658237912" lon="9.940819378541136"><ele>532.0</ele><time>2026-05-02T21:36:35Z</time></trkpt><trkpt lat="44.759920171583325" lon="9.940734620055913"><ele>532.0</ele><time>2026-05-02T21:36:35.999Z</time></trkpt><trkpt lat="44.759973113088556" lon="9.940653657327717"><ele>532.0</ele><time>2026-05-02T21:36:36.999Z</time></trkpt><trkpt lat="44.76002552920936" lon="9.940574821392897"><ele>531.1428571428571</ele><time>2026-05-02T21:36:37.999Z</time></trkpt><trkpt lat="44.76007734642355" lon="9.940494831247356"><ele>530.2857142857142</ele><time>2026-05-02T21:36:38.999Z</time></trkpt><trkpt lat="44.760130739141964" lon="9.940418985554631"><ele>529.4285714285714</ele><time>2026-05-02T21:36:39.999Z</time></trkpt><trkpt lat="44.7601942803111" lon="9.940365387760222"><ele>528.5714285714286</ele><time>2026-05-02T21:36:40.999Z</time></trkpt><trkpt lat="44.760261992799904" lon="9.940326007573642"><ele>527.7142857142857</ele><time>2026-05-02T21:36:41.999Z</time></trkpt><trkpt lat="44.76033171209445" lon="9.940296616973518"><ele>526.8571428571429</ele><time>2026-05-02T21:36:42.999Z</time></trkpt><trkpt lat="44.76040270911233" lon="9.94026986515953"><ele>526.0</ele><time>2026-05-02T21:36:43.999Z</time></trkpt><trkpt lat="44.760476607658106" lon="9.94024163780287"><ele>526.0</ele><time>2026-05-02T21:36:44.999Z</time></trkpt><trkpt lat="44.76055077436819" lon="9.940207927732686"><ele>526.0</ele><time>2026-05-02T21:36:45.999Z</time></trkpt><trkpt lat="44.76062375908927" lon="9.940170790738575"><ele>526.0</ele><time>2026-05-02T21:36:46.999Z</time></trkpt><trkpt lat="44.76069664576641" lon="9.940136522301268"><ele>526.0</ele><time>2026-05-02T21:36:47.999Z</time></trkpt><trkpt lat="44.76077016662062" lon="9.940103410901996"><ele>526.0</ele><time>2026-05-02T21:36:48.999Z</time></trkpt><trkpt lat="44.7608392887481" lon="9.940073929047626"><ele>526.0</ele><time>2026-05-02T21:36:49.999Z</time></trkpt><trkpt lat="44.76090476480772" lon="9.940066907289271"><ele>526.0</ele><time>2026-05-02T21:36:50.999Z</time></trkpt><trkpt lat="44.76100231722993" lon="9.940138027051212"><ele>526.0</ele><time>2026-05-02T21:36:52.999Z</time></trkpt><trkpt lat="44.76099421634846" lon="9.940301481888879"><ele>526.0</ele><time>2026-05-02T21:36:54.999Z</time></trkpt><trkpt lat="44.7609430742334" lon="9.940377508802626"><ele>526.0</ele><time>2026-05-02T21:36:55.999Z</time></trkpt><trkpt lat="44.76089184634418" lon="9.940442937389987"><ele>526.0</ele><time>2026-05-02T21:36:56.999Z</time></trkpt><trkpt lat="44.76084397391063" lon="9.940511186559645"><ele>526.0</ele><time>2026-05-02T21:36:57.999Z</time></trkpt><trkpt lat="44.76079709741678" lon="9.940585939948006"><ele>526.0</ele><time>2026-05-02T21:36:58.999Z</time></trkpt><trkpt lat="44.76074869459145" lon="9.940661002738132"><ele>526.0</ele><time>2026-05-02T21:36:59.999Z</time></trkpt><trkpt lat="44.760696052566786" lon="9.940735749895833"><ele>526.0</ele><time>2026-05-02T21:37:00.999Z</time></trkpt><trkpt lat="44.760645962239174" lon="9.940815449973474"><ele>526.0</ele><time>2026-05-02T21:37:01.999Z</time></trkpt><trkpt lat="44.76060248477986" lon="9.940903435167511"><ele>526.0</ele><time>2026-05-02T21:37:02.999Z</time></trkpt><trkpt lat="44.76056049668565" lon="9.940992956387005"><ele>526.0</ele><time>2026-05-02T21:37:03.999Z</time></trkpt><trkpt lat="44.76051678206257" lon="9.941080391977984"><ele>526.0</ele><time>2026-05-02T21:37:04.999Z</time></trkpt><trkpt lat="44.76048286836624" lon="9.941180744240532"><ele>524.1666666666667</ele><time>2026-05-02T21:37:05.999Z</time></trkpt><trkpt lat="44.76045719161567" lon="9.941287520311139"><ele>522.3333333333334</ele><time>2026-05-02T21:37:06.999Z</time></trkpt><trkpt lat="44.76043294407901" lon="9.941393458736123"><ele>520.5</ele><time>2026-05-02T21:37:07.999Z</time></trkpt><trkpt lat="44.760408497409784" lon="9.941503445280008"><ele>518.6666666666666</ele><time>2026-05-02T21:37:08.999Z</time></trkpt><trkpt lat="44.760385712106" lon="9.941615164959511"><ele>516.8333333333333</ele><time>2026-05-02T21:37:09.999Z</time></trkpt><trkpt lat="44.760364506438435" lon="9.94172644324147"><ele>515.0</ele><time>2026-05-02T21:37:10.999Z</time></trkpt><trkpt lat="44.76034630880617" lon="9.941838899815112"><ele>514.6666666666666</ele><time>2026-05-02T21:37:11.999Z</time></trkpt><trkpt lat="44.76032356339043" lon="9.94194954634005"><ele>514.3333333333333</ele><time>2026-05-02T21:37:12.999Z</time></trkpt><trkpt lat="44.76030348557759" lon="9.942060381021378"><ele>514.0</ele><time>2026-05-02T21:37:13.999Z</time></trkpt><trkpt lat="44.760285935430566" lon="9.94216874786524"><ele>513.6666666666666</ele><time>2026-05-02T21:37:14.999Z</time></trkpt><trkpt lat="44.76027203174009" lon="9.942273441870826"><ele>513.3333333333334</ele><time>2026-05-02T21:37:15.999Z</time></trkpt><trkpt lat="44.7602614164565" lon="9.942376035974322"><ele>513.0</ele><time>2026-05-02T21:37:16.999Z</time></trkpt><trkpt lat="44.76025713386888" lon="9.942480810024293"><ele>513.3333333333334</ele><time>2026-05-02T21:37:17.999Z</time></trkpt><trkpt lat="44.76024660177815" lon="9.942589223308524"><ele>513.6666666666666</ele><time>2026-05-02T21:37:18.999Z</time></trkpt><trkpt lat="44.76029285883902" lon="9.942683142679535"><ele>514.0</ele><time>2026-05-02T21:37:19.999Z</time></trkpt><trkpt lat="44.76033231364418" lon="9.942771601708477"><ele>514.3333333333333</ele><time>2026-05-02T21:37:20.999Z</time></trkpt><trkpt lat="44.76037978759124" lon="9.942859699973361"><ele>514.6666666666666</ele><time>2026-05-02T21:37:21.999Z</time></trkpt><trkpt lat="44.760427968624725" lon="9.942947206468194"><ele>515.0</ele><time>2026-05-02T21:37:22.999Z</time></trkpt><trkpt lat="44.76047527591371" lon="9.94304183135074"><ele>515.0</ele><time>2026-05-02T21:37:23.999Z</time></trkpt><trkpt lat="44.760512764989265" lon="9.943142250143003"><ele>515.0</ele><time>2026-05-02T21:37:24.999Z</time></trkpt><trkpt lat="44.76054458873312" lon="9.943250757004673"><ele>515.0</ele><time>2026-05-02T21:37:25.999Z</time></trkpt><trkpt lat="44.760572348373756" lon="9.943362342156266"><ele>515.0</ele><time>2026-05-02T21:37:26.999Z</time></trkpt><trkpt lat="44.760596809464886" lon="9.943479911878807"><ele>515.0</ele><time>2026-05-02T21:37:27.998Z</time></trkpt><trkpt lat="44.760619478899336" lon="9.943597049317177"><ele>515.0</ele><time>2026-05-02T21:37:28.998Z</time></trkpt><trkpt lat="44.7606425195163" lon="9.943708946671675"><ele>514.1666666666666</ele><time>2026-05-02T21:37:29.998Z</time></trkpt><trkpt lat="44.76066890146819" lon="9.943815859713089"><ele>513.3333333333333</ele><time>2026-05-02T21:37:30.998Z</time></trkpt><trkpt lat="44.760703629347155" lon="9.943911711374556"><ele>512.5</ele><time>2026-05-02T21:37:31.998Z</time></trkpt><trkpt lat="44.76074848034064" lon="9.94399064634274"><ele>511.66666666666663</ele><time>2026-05-02T21:37:32.998Z</time></trkpt><trkpt lat="44.76079763064421" lon="9.944047164035789"><ele>510.8333333333333</ele><time>2026-05-02T21:37:33.998Z</time></trkpt><trkpt lat="44.760904063525764" lon="9.944062089974562"><ele>510.0</ele><time>2026-05-02T21:37:35.998Z</time></trkpt><trkpt lat="44.76096238462599" lon="9.944016736113639"><ele>510.0</ele><time>2026-05-02T21:37:36.998Z</time></trkpt><trkpt lat="44.76097934794412" lon="9.943915186786018"><ele>510.00000000000006</ele><time>2026-05-02T21:37:37.998Z</time></trkpt><trkpt lat="44.76100160006272" lon="9.94382920613301"><ele>510.0</ele><time>2026-05-02T21:37:38.998Z</time></trkpt><trkpt lat="44.761021443757365" lon="9.94373881866443"><ele>510.0</ele><time>2026-05-02T21:37:39.998Z</time></trkpt><trkpt lat="44.761036246617884" lon="9.943643864986802"><ele>510.00000000000006</ele><time>2026-05-02T21:37:40.998Z</time></trkpt><trkpt lat="44.76105184763816" lon="9.943546835897758"><ele>510.0</ele><time>2026-05-02T21:37:41.998Z</time></trkpt><trkpt lat="44.76105684919194" lon="9.943442918563502"><ele>510.0</ele><time>2026-05-02T21:37:42.998Z</time></trkpt><trkpt lat="44.76105326520034" lon="9.943338124482022"><ele>510.7142857142857</ele><time>2026-05-02T21:37:43.998Z</time></trkpt><trkpt lat="44.761039355187116" lon="9.943236334990642"><ele>511.42857142857144</ele><time>2026-05-02T21:37:45Z</time></trkpt><trkpt lat="44.76101290857711" lon="9.943140695918439"><ele>512.1428571428571</ele><time>2026-05-02T21:37:46Z</time></trkpt><trkpt lat="44.76098535431021" lon="9.943049128377142"><ele>512.8571428571429</ele><time>2026-05-02T21:37:47Z</time></trkpt><trkpt lat="44.76096706817722" lon="9.942953003826071"><ele>513.5714285714286</ele><time>2026-05-02T21:37:48Z</time></trkpt><trkpt lat="44.76095945273086" lon="9.942847213707514"><ele>514.2857142857143</ele><time>2026-05-02T21:37:49Z</time></trkpt><trkpt lat="44.760962018684076" lon="9.942738026394855"><ele>515.0</ele><time>2026-05-02T21:37:50Z</time></trkpt><trkpt lat="44.76098296137787" lon="9.94263629894638"><ele>514.6666666666666</ele><time>2026-05-02T21:37:51Z</time></trkpt><trkpt lat="44.761024317772325" lon="9.94254267468647"><ele>514.3333333333333</ele><time>2026-05-02T21:37:52Z</time></trkpt><trkpt lat="44.761069214626694" lon="9.942451214744018"><ele>514.0</ele><time>2026-05-02T21:37:53Z</time></trkpt><trkpt lat="44.76111480670056" lon="9.94236008166714"><ele>513.6666666666666</ele><time>2026-05-02T21:37:54Z</time></trkpt><trkpt lat="44.76116067267457" lon="9.942273580180162"><ele>513.3333333333334</ele><time>2026-05-02T21:37:55Z</time></trkpt><trkpt lat="44.76120519804566" lon="9.94218487228975"><ele>513.0</ele><time>2026-05-02T21:37:56Z</time></trkpt><trkpt lat="44.76124960417098" lon="9.942094238924659"><ele>511.1666666666667</ele><time>2026-05-02T21:37:57Z</time></trkpt><trkpt lat="44.76129841204394" lon="9.942006128901573"><ele>509.33333333333337</ele><time>2026-05-02T21:37:58Z</time></trkpt><trkpt lat="44.761355397132405" lon="9.941924560156266"><ele>507.5</ele><time>2026-05-02T21:37:59Z</time></trkpt><trkpt lat="44.761419527187904" lon="9.941847226310763"><ele>505.6666666666667</ele><time>2026-05-02T21:38:00Z</time></trkpt><trkpt lat="44.761487620496396" lon="9.941782513574468"><ele>503.83333333333337</ele><time>2026-05-02T21:38:01Z</time></trkpt><trkpt lat="44.761559954727375" lon="9.941730605429312"><ele>502.0</ele><time>2026-05-02T21:38:02Z</time></trkpt><trkpt lat="44.761636848726205" lon="9.941691519003443"><ele>502.00000000000006</ele><time>2026-05-02T21:38:03Z</time></trkpt><trkpt lat="44.761717213510344" lon="9.9416672309897"><ele>502.0</ele><time>2026-05-02T21:38:04Z</time></trkpt><trkpt lat="44.76179980309017" lon="9.941659417502558"><ele>502.0</ele><time>2026-05-02T21:38:05Z</time></trkpt><trkpt lat="44.76188077256458" lon="9.941667760881488"><ele>502.0</ele><time>2026-05-02T21:38:06Z</time></trkpt><trkpt lat="44.76196364413417" lon="9.941684231336382"><ele>502.00000000000006</ele><time>2026-05-02T21:38:07Z</time></trkpt><trkpt lat="44.762047294224494" lon="9.941682642074475"><ele>502.0</ele><time>2026-05-02T21:38:08Z</time></trkpt><trkpt lat="44.7621279208496" lon="9.941656381016342"><ele>500.1666666666667</ele><time>2026-05-02T21:38:09Z</time></trkpt><trkpt lat="44.76220329952691" lon="9.941605297339297"><ele>498.33333333333337</ele><time>2026-05-02T21:38:10Z</time></trkpt><trkpt lat="44.762273840109074" lon="9.941532441716872"><ele>496.5</ele><time>2026-05-02T21:38:11Z</time></trkpt><trkpt lat="44.762335387229335" lon="9.94144398583386"><ele>494.66666666666663</ele><time>2026-05-02T21:38:12Z</time></trkpt><trkpt lat="44.76239224255551" lon="9.941355934800114"><ele>492.8333333333333</ele><time>2026-05-02T21:38:13Z</time></trkpt><trkpt lat="44.76243998474834" lon="9.941266170608356"><ele>491.0</ele><time>2026-05-02T21:38:14Z</time></trkpt><trkpt lat="44.76249064890955" lon="9.941182821151031"><ele>490.99999999999994</ele><time>2026-05-02T21:38:15Z</time></trkpt><trkpt lat="44.76254050708666" lon="9.941108666549773"><ele>491.0</ele><time>2026-05-02T21:38:16Z</time></trkpt><trkpt lat="44.762599825740224" lon="9.941047014010254"><ele>491.0</ele><time>2026-05-02T21:38:17Z</time></trkpt><trkpt lat="44.76267652347619" lon="9.941021044853189"><ele>491.0</ele><time>2026-05-02T21:38:18Z</time></trkpt><trkpt lat="44.76275117881219" lon="9.941034665319233"><ele>490.99999999999994</ele><time>2026-05-02T21:38:19Z</time></trkpt><trkpt lat="44.7628235046961" lon="9.941070436749007"><ele>491.0</ele><time>2026-05-02T21:38:20Z</time></trkpt><trkpt lat="44.76289181190344" lon="9.941117700053308"><ele>488.8333333333333</ele><time>2026-05-02T21:38:21Z</time></trkpt><trkpt lat="44.76296266670619" lon="9.941159997986372"><ele>486.66666666666663</ele><time>2026-05-02T21:38:22Z</time></trkpt><trkpt lat="44.763037114227956" lon="9.941188017872676"><ele>484.5</ele><time>2026-05-02T21:38:23Z</time></trkpt><trkpt lat="44.763114164607366" lon="9.94119340704063"><ele>482.33333333333337</ele><time>2026-05-02T21:38:24Z</time></trkpt><trkpt lat="44.76319343159409" lon="9.941176366081123"><ele>480.1666666666667</ele><time>2026-05-02T21:38:25Z</time></trkpt><trkpt lat="44.76327323228875" lon="9.941138744435955"><ele>478.0</ele><time>2026-05-02T21:38:26Z</time></trkpt><trkpt lat="44.763351788468256" lon="9.941087443310694"><ele>478.00000000000006</ele><time>2026-05-02T21:38:27Z</time></trkpt><trkpt lat="44.763431764380755" lon="9.941034200224992"><ele>478.0</ele><time>2026-05-02T21:38:28Z</time></trkpt><trkpt lat="44.7635116142674" lon="9.940982974689058"><ele>478.0</ele><time>2026-05-02T21:38:29Z</time></trkpt><trkpt lat="44.763590064731346" lon="9.940930530157823"><ele>478.0</ele><time>2026-05-02T21:38:30Z</time></trkpt><trkpt lat="44.76365808327929" lon="9.940866979179882"><ele>478.00000000000006</ele><time>2026-05-02T21:38:31Z</time></trkpt><trkpt lat="44.763712790111605" lon="9.94078436161839"><ele>478.0</ele><time>2026-05-02T21:38:32Z</time></trkpt><trkpt lat="44.7637568424228" lon="9.940695551121683"><ele>476.83333333333337</ele><time>2026-05-02T21:38:33Z</time></trkpt><trkpt lat="44.76379715172566" lon="9.940606794549746"><ele>475.6666666666667</ele><time>2026-05-02T21:38:34Z</time></trkpt><trkpt lat="44.76386060540206" lon="9.940494906194925"><ele>474.5</ele><time>2026-05-02T21:38:36Z</time></trkpt><trkpt lat="44.76394271709853" lon="9.940478196848604"><ele>473.33333333333337</ele><time>2026-05-02T21:38:38Z</time></trkpt><trkpt lat="44.763948604388595" lon="9.94063245287718"><ele>472.1666666666667</ele><time>2026-05-02T21:38:40Z</time></trkpt><trkpt lat="44.76393621881833" lon="9.94072150991743"><ele>471.0</ele><time>2026-05-02T21:38:40.999Z</time></trkpt><trkpt lat="44.76390354634128" lon="9.940803010249999"><ele>469.3333333333333</ele><time>2026-05-02T21:38:41.999Z</time></trkpt><trkpt lat="44.76387051214916" lon="9.940894735348492"><ele>467.66666666666663</ele><time>2026-05-02T21:38:42.999Z</time></trkpt><trkpt lat="44.76382887058213" lon="9.94098590168463"><ele>466.0</ele><time>2026-05-02T21:38:43.999Z</time></trkpt><trkpt lat="44.76377925106144" lon="9.941075812380925"><ele>464.3333333333333</ele><time>2026-05-02T21:38:44.999Z</time></trkpt><trkpt lat="44.7637237321751" lon="9.941166406614256"><ele>462.66666666666663</ele><time>2026-05-02T21:38:45.999Z</time></trkpt><trkpt lat="44.76366995996664" lon="9.941261122737844"><ele>461.0</ele><time>2026-05-02T21:38:46.999Z</time></trkpt><trkpt lat="44.76361836204184" lon="9.941362611032977"><ele>460.99999999999994</ele><time>2026-05-02T21:38:47.999Z</time></trkpt><trkpt lat="44.763567342462885" lon="9.941463117610647"><ele>461.0</ele><time>2026-05-02T21:38:48.999Z</time></trkpt><trkpt lat="44.763516894127015" lon="9.941563992786971"><ele>461.0</ele><time>2026-05-02T21:38:49.999Z</time></trkpt><trkpt lat="44.76346635418262" lon="9.94166196031329"><ele>461.0</ele><time>2026-05-02T21:38:50.999Z</time></trkpt><trkpt lat="44.76341438186463" lon="9.941758494096153"><ele>460.99999999999994</ele><time>2026-05-02T21:38:51.999Z</time></trkpt><trkpt lat="44.763368094713094" lon="9.941858617056415"><ele>461.0</ele><time>2026-05-02T21:38:52.999Z</time></trkpt><trkpt lat="44.76332077574269" lon="9.941956973998476"><ele>461.8333333333333</ele><time>2026-05-02T21:38:53.999Z</time></trkpt><trkpt lat="44.763269650026174" lon="9.942052739372624"><ele>462.66666666666663</ele><time>2026-05-02T21:38:54.999Z</time></trkpt><trkpt lat="44.76322377277773" lon="9.942156609322126"><ele>463.5</ele><time>2026-05-02T21:38:55.999Z</time></trkpt><trkpt lat="44.7631810447063" lon="9.942262375992433"><ele>464.33333333333337</ele><time>2026-05-02T21:38:56.999Z</time></trkpt><trkpt lat="44.763142305706175" lon="9.942359639535121"><ele>465.1666666666667</ele><time>2026-05-02T21:38:57.999Z</time></trkpt><trkpt lat="44.763109434871225" lon="9.942451448677469"><ele>466.0</ele><time>2026-05-02T21:38:58.999Z</time></trkpt><trkpt lat="44.763091571605386" lon="9.942547314728856"><ele>465.7142857142857</ele><time>2026-05-02T21:38:59.999Z</time></trkpt><trkpt lat="44.763096106925495" lon="9.942643694003335"><ele>465.42857142857144</ele><time>2026-05-02T21:39:00.999Z</time></trkpt><trkpt lat="44.76313059981531" lon="9.942726629282072"><ele>465.14285714285717</ele><time>2026-05-02T21:39:01.999Z</time></trkpt><trkpt lat="44.76318877857362" lon="9.942780670759294"><ele>464.8571428571429</ele><time>2026-05-02T21:39:02.999Z</time></trkpt><trkpt lat="44.76326360513948" lon="9.942797101281938"><ele>464.57142857142856</ele><time>2026-05-02T21:39:03.999Z</time></trkpt><trkpt lat="44.76334149992918" lon="9.942775123212218"><ele>464.28571428571433</ele><time>2026-05-02T21:39:04.999Z</time></trkpt><trkpt lat="44.76341797152773" lon="9.942742782640554"><ele>464.00000000000006</ele><time>2026-05-02T21:39:05.999Z</time></trkpt><trkpt lat="44.76349507836518" lon="9.942713318141312"><ele>462.49999999999994</ele><time>2026-05-02T21:39:06.999Z</time></trkpt><trkpt lat="44.76357405655618" lon="9.94267961312197"><ele>461.0</ele><time>2026-05-02T21:39:07.999Z</time></trkpt><trkpt lat="44.76365180422798" lon="9.942628745472323"><ele>459.5</ele><time>2026-05-02T21:39:08.999Z</time></trkpt><trkpt lat="44.76372570116577" lon="9.942572979831697"><ele>458.0</ele><time>2026-05-02T21:39:09.999Z</time></trkpt><trkpt lat="44.763796388672255" lon="9.94250997815044"><ele>456.49999999999994</ele><time>2026-05-02T21:39:10.999Z</time></trkpt><trkpt lat="44.76386903175025" lon="9.942439068734453"><ele>455.0</ele><time>2026-05-02T21:39:11.999Z</time></trkpt><trkpt lat="44.763935488277795" lon="9.942367879029565"><ele>455.0</ele><time>2026-05-02T21:39:12.999Z</time></trkpt><trkpt lat="44.76400163585069" lon="9.94229771748138"><ele>455.0</ele><time>2026-05-02T21:39:13.999Z</time></trkpt><trkpt lat="44.764071137022306" lon="9.9422290933442"><ele>455.0</ele><time>2026-05-02T21:39:14.999Z</time></trkpt><trkpt lat="44.76414839491795" lon="9.94215981313933"><ele>455.0</ele><time>2026-05-02T21:39:15.999Z</time></trkpt><trkpt lat="44.76423010629993" lon="9.942089662794924"><ele>455.0</ele><time>2026-05-02T21:39:16.999Z</time></trkpt><trkpt lat="44.764316243335934" lon="9.942021934711741"><ele>452.8</ele><time>2026-05-02T21:39:17.999Z</time></trkpt><trkpt lat="44.76440589884489" lon="9.941954203029624"><ele>450.6</ele><time>2026-05-02T21:39:18.999Z</time></trkpt><trkpt lat="44.76449483821779" lon="9.94189255591845"><ele>448.4</ele><time>2026-05-02T21:39:19.999Z</time></trkpt><trkpt lat="44.76458127632679" lon="9.941828586613646"><ele>446.2</ele><time>2026-05-02T21:39:20.999Z</time></trkpt><trkpt lat="44.76466727431688" lon="9.941760932161662"><ele>444.0</ele><time>2026-05-02T21:39:21.999Z</time></trkpt><trkpt lat="44.764753036199295" lon="9.941690965069755"><ele>444.0</ele><time>2026-05-02T21:39:22.999Z</time></trkpt><trkpt lat="44.76483864944222" lon="9.941621452759254"><ele>444.0</ele><time>2026-05-02T21:39:23.999Z</time></trkpt><trkpt lat="44.76492615313206" lon="9.9415565404368"><ele>444.0</ele><time>2026-05-02T21:39:24.999Z</time></trkpt><trkpt lat="44.76501368301994" lon="9.941492568815878"><ele>444.0</ele><time>2026-05-02T21:39:25.999Z</time></trkpt><trkpt lat="44.76510066792921" lon="9.941424926742581"><ele>444.0</ele><time>2026-05-02T21:39:26.999Z</time></trkpt><trkpt lat="44.76518735105356" lon="9.941358032527344"><ele>441.6</ele><time>2026-05-02T21:39:27.999Z</time></trkpt><trkpt lat="44.765273628714674" lon="9.941294001137209"><ele>439.2</ele><time>2026-05-02T21:39:28.999Z</time></trkpt><trkpt lat="44.765364234944485" lon="9.941224147662906"><ele>436.80000000000007</ele><time>2026-05-02T21:39:29.999Z</time></trkpt><trkpt lat="44.765454856103325" lon="9.941151736639858"><ele>434.40000000000003</ele><time>2026-05-02T21:39:30.999Z</time></trkpt><trkpt lat="44.76554035004999" lon="9.94108780902833"><ele>432.0</ele><time>2026-05-02T21:39:31.999Z</time></trkpt><trkpt lat="44.7656289399598" lon="9.941031755832071"><ele>432.0</ele><time>2026-05-02T21:39:32.998Z</time></trkpt><trkpt lat="44.765719994948896" lon="9.940982060296346"><ele>432.00000000000006</ele><time>2026-05-02T21:39:33.998Z</time></trkpt><trkpt lat="44.765808749506036" lon="9.940932479940683"><ele>432.00000000000006</ele><time>2026-05-02T21:39:34.998Z</time></trkpt><trkpt lat="44.765900322396014" lon="9.9408913542205"><ele>432.0</ele><time>2026-05-02T21:39:35.998Z</time></trkpt><trkpt lat="44.765991836076296" lon="9.940856156427634"><ele>432.0</ele><time>2026-05-02T21:39:36.998Z</time></trkpt><trkpt lat="44.7660830806639" lon="9.940819553850904"><ele>432.0</ele><time>2026-05-02T21:39:37.998Z</time></trkpt><trkpt lat="44.76617352105809" lon="9.940783078713217"><ele>432.00000000000006</ele><time>2026-05-02T21:39:38.998Z</time></trkpt><trkpt lat="44.76626350941319" lon="9.940743152394452"><ele>432.00000000000006</ele><time>2026-05-02T21:39:39.998Z</time></trkpt><trkpt lat="44.76635212668241" lon="9.940704796028763"><ele>432.0</ele><time>2026-05-02T21:39:40.998Z</time></trkpt><trkpt lat="44.7664418728895" lon="9.940666317862538"><ele>432.0</ele><time>2026-05-02T21:39:41.998Z</time></trkpt><trkpt lat="44.766530736444025" lon="9.940625606921158"><ele>432.0</ele><time>2026-05-02T21:39:42.998Z</time></trkpt><trkpt lat="44.7666221663712" lon="9.94058752620483"><ele>432.00000000000006</ele><time>2026-05-02T21:39:43.998Z</time></trkpt><trkpt lat="44.766716011164256" lon="9.940552587874762"><ele>432.00000000000006</ele><time>2026-05-02T21:39:44.998Z</time></trkpt><trkpt lat="44.76681660250742" lon="9.940524942819279"><ele>432.0</ele><time>2026-05-02T21:39:45.998Z</time></trkpt><trkpt lat="44.76691584015906" lon="9.940501771660543"><ele>432.0</ele><time>2026-05-02T21:39:46.998Z</time></trkpt><trkpt lat="44.76701132648325" lon="9.940479705098657"><ele>431.40000000000003</ele><time>2026-05-02T21:39:47.998Z</time></trkpt><trkpt lat="44.767106040092074" lon="9.940457080265645"><ele>430.80000000000007</ele><time>2026-05-02T21:39:48.998Z</time></trkpt><trkpt lat="44.76720156405528" lon="9.940434140905557"><ele>430.2</ele><time>2026-05-02T21:39:49.998Z</time></trkpt><trkpt lat="44.767295008708395" lon="9.940413615953323"><ele>429.6</ele><time>2026-05-02T21:39:51Z</time></trkpt><trkpt lat="44.76738752647218" lon="9.940394506179324"><ele>429.0</ele><time>2026-05-02T21:39:52Z</time></trkpt><trkpt lat="44.767481474559546" lon="9.940378578854146"><ele>429.0</ele><time>2026-05-02T21:39:53Z</time></trkpt><trkpt lat="44.76757464033807" lon="9.940359888361302"><ele>429.0</ele><time>2026-05-02T21:39:54Z</time></trkpt><trkpt lat="44.76766540825394" lon="9.940337982707845"><ele>429.0</ele><time>2026-05-02T21:39:55Z</time></trkpt><trkpt lat="44.767753588917614" lon="9.940329293224382"><ele>429.0</ele><time>2026-05-02T21:39:56Z</time></trkpt><trkpt lat="44.767839028917734" lon="9.940334317677959"><ele>429.0</ele><time>2026-05-02T21:39:57Z</time></trkpt><trkpt lat="44.767923832466835" lon="9.940347370510061"><ele>429.0</ele><time>2026-05-02T21:39:58Z</time></trkpt><trkpt lat="44.768004266364315" lon="9.940369027681246"><ele>428.3333333333333</ele><time>2026-05-02T21:39:59Z</time></trkpt><trkpt lat="44.768082447347446" lon="9.940402484738948"><ele>427.66666666666663</ele><time>2026-05-02T21:40:00Z</time></trkpt><trkpt lat="44.76815721446418" lon="9.940440350010716"><ele>427.0</ele><time>2026-05-02T21:40:01Z</time></trkpt><trkpt lat="44.76823260877809" lon="9.940486919531452"><ele>426.3333333333333</ele><time>2026-05-02T21:40:02Z</time></trkpt><trkpt lat="44.76830278256072" lon="9.940549093366588"><ele>425.66666666666663</ele><time>2026-05-02T21:40:03Z</time></trkpt><trkpt lat="44.76836805080166" lon="9.940623180777818"><ele>425.0</ele><time>2026-05-02T21:40:04Z</time></trkpt><trkpt lat="44.768428522010105" lon="9.940707907205994"><ele>424.99999999999994</ele><time>2026-05-02T21:40:05Z</time></trkpt><trkpt lat="44.76847473606323" lon="9.940811427508857"><ele>425.0</ele><time>2026-05-02T21:40:06Z</time></trkpt><trkpt lat="44.768513738010476" lon="9.940924110863484"><ele>425.0</ele><time>2026-05-02T21:40:07Z</time></trkpt><trkpt lat="44.76852520165553" lon="9.941049212250281"><ele>425.0</ele><time>2026-05-02T21:40:08Z</time></trkpt><trkpt lat="44.768549475557826" lon="9.941168539503082"><ele>424.99999999999994</ele><time>2026-05-02T21:40:09Z</time></trkpt><trkpt lat="44.76857811149794" lon="9.941289605063972"><ele>425.0</ele><time>2026-05-02T21:40:10Z</time></trkpt><trkpt lat="44.768621076497226" lon="9.941402770004002"><ele>423.3333333333333</ele><time>2026-05-02T21:40:11Z</time></trkpt><trkpt lat="44.768683018853686" lon="9.94149342138553"><ele>421.66666666666663</ele><time>2026-05-02T21:40:12Z</time></trkpt><trkpt lat="44.7687572578534" lon="9.94156086764113"><ele>420.0</ele><time>2026-05-02T21:40:13Z</time></trkpt><trkpt lat="44.7688411731564" lon="9.94160549132205"><ele>418.33333333333337</ele><time>2026-05-02T21:40:14Z</time></trkpt><trkpt lat="44.768920711255106" lon="9.941659456667814"><ele>416.6666666666667</ele><time>2026-05-02T21:40:15Z</time></trkpt><trkpt lat="44.76900516483927" lon="9.941703905266738"><ele>415.0</ele><time>2026-05-02T21:40:16Z</time></trkpt><trkpt lat="44.769091449326694" lon="9.941742663766279"><ele>414.50000000000006</ele><time>2026-05-02T21:40:17Z</time></trkpt><trkpt lat="44.76917951990255" lon="9.941766231389389"><ele>414.0</ele><time>2026-05-02T21:40:18Z</time></trkpt><trkpt lat="44.76926709892115" lon="9.941783629056548"><ele>413.5</ele><time>2026-05-02T21:40:19Z</time></trkpt><trkpt lat="44.76935213488951" lon="9.941788247691493"><ele>413.0</ele><time>2026-05-02T21:40:20Z</time></trkpt><trkpt lat="44.76943632479343" lon="9.941774953484556"><ele>412.50000000000006</ele><time>2026-05-02T21:40:21Z</time></trkpt><trkpt lat="44.769516332224654" lon="9.941747428722739"><ele>412.0</ele><time>2026-05-02T21:40:22Z</time></trkpt><trkpt lat="44.769591539437286" lon="9.94170294412641"><ele>412.00000000000006</ele><time>2026-05-02T21:40:23Z</time></trkpt><trkpt lat="44.76966295095505" lon="9.941651513062745"><ele>412.0</ele><time>2026-05-02T21:40:24Z</time></trkpt><trkpt lat="44.76973302400623" lon="9.941592720031474"><ele>412.0</ele><time>2026-05-02T21:40:25Z</time></trkpt><trkpt lat="44.769800087158245" lon="9.94152385429311"><ele>412.0</ele><time>2026-05-02T21:40:26Z</time></trkpt><trkpt lat="44.76986001202336" lon="9.94144269151413"><ele>412.00000000000006</ele><time>2026-05-02T21:40:27Z</time></trkpt><trkpt lat="44.76991149455847" lon="9.941348195466993"><ele>412.0</ele><time>2026-05-02T21:40:28Z</time></trkpt><trkpt lat="44.7699586948213" lon="9.941250541156466"><ele>412.00000000000006</ele><time>2026-05-02T21:40:29Z</time></trkpt><trkpt lat="44.770002905055115" lon="9.941150759653002"><ele>412.0</ele><time>2026-05-02T21:40:30Z</time></trkpt><trkpt lat="44.77004412666482" lon="9.941046551231205"><ele>412.0</ele><time>2026-05-02T21:40:31Z</time></trkpt><trkpt lat="44.770087205965744" lon="9.940944506006055"><ele>412.0</ele><time>2026-05-02T21:40:32Z</time></trkpt><trkpt lat="44.77013021596117" lon="9.940841243067094"><ele>412.00000000000006</ele><time>2026-05-02T21:40:33Z</time></trkpt><trkpt lat="44.77016766954914" lon="9.940734759008423"><ele>412.0</ele><time>2026-05-02T21:40:34Z</time></trkpt><trkpt lat="44.770204230657924" lon="9.94063514330153"><ele>408.83333333333337</ele><time>2026-05-02T21:40:35Z</time></trkpt><trkpt lat="44.77025152630783" lon="9.94054454827138"><ele>405.6666666666667</ele><time>2026-05-02T21:40:36Z</time></trkpt><trkpt lat="44.77031322672663" lon="9.940474049875055"><ele>402.5</ele><time>2026-05-02T21:40:37Z</time></trkpt><trkpt lat="44.77038386572598" lon="9.940418727909382"><ele>399.33333333333337</ele><time>2026-05-02T21:40:38Z</time></trkpt><trkpt lat="44.77046147567271" lon="9.940379182905884"><ele>396.1666666666667</ele><time>2026-05-02T21:40:39Z</time></trkpt><trkpt lat="44.77054250697222" lon="9.94034158138463"><ele>393.0</ele><time>2026-05-02T21:40:40Z</time></trkpt><trkpt lat="44.77062914527019" lon="9.940307974392766"><ele>393.0</ele><time>2026-05-02T21:40:41Z</time></trkpt><trkpt lat="44.770714839016705" lon="9.940258396299086"><ele>393.0</ele><time>2026-05-02T21:40:42Z</time></trkpt><trkpt lat="44.77080293533043" lon="9.940202278433324"><ele>393.0</ele><time>2026-05-02T21:40:43Z</time></trkpt><trkpt lat="44.77088710943152" lon="9.94012815129637"><ele>393.0</ele><time>2026-05-02T21:40:44Z</time></trkpt><trkpt lat="44.77097436242662" lon="9.940059053464292"><ele>393.0</ele><time>2026-05-02T21:40:44.999Z</time></trkpt><trkpt lat="44.77105870876641" lon="9.939995868902724"><ele>390.5</ele><time>2026-05-02T21:40:45.999Z</time></trkpt><trkpt lat="44.77114240416436" lon="9.939933833868672"><ele>388.0</ele><time>2026-05-02T21:40:46.999Z</time></trkpt><trkpt lat="44.77122907614875" lon="9.939879213236884"><ele>385.5</ele><time>2026-05-02T21:40:47.999Z</time></trkpt><trkpt lat="44.771318990073645" lon="9.939830866687494"><ele>383.0</ele><time>2026-05-02T21:40:48.999Z</time></trkpt><trkpt lat="44.77139555942341" lon="9.939800039806814"><ele>380.5</ele><time>2026-05-02T21:40:49.999Z</time></trkpt><trkpt lat="44.77146519680231" lon="9.939777160451825"><ele>378.0</ele><time>2026-05-02T21:40:50.999Z</time></trkpt><trkpt lat="44.77152910216817" lon="9.93974047051739"><ele>378.0</ele><time>2026-05-02T21:40:51.999Z</time></trkpt><trkpt lat="44.77159512663754" lon="9.939700550843439"><ele>378.0</ele><time>2026-05-02T21:40:52.999Z</time></trkpt><trkpt lat="44.77164712918249" lon="9.939643726661895"><ele>378.0</ele><time>2026-05-02T21:40:53.999Z</time></trkpt><trkpt lat="44.77169947079894" lon="9.939568135400181"><ele>378.0</ele><time>2026-05-02T21:40:54.999Z</time></trkpt><trkpt lat="44.77173737315803" lon="9.939484030031544"><ele>378.0</ele><time>2026-05-02T21:40:55.999Z</time></trkpt><trkpt lat="44.771770717541706" lon="9.939387727722226"><ele>378.0</ele><time>2026-05-02T21:40:56.999Z</time></trkpt><trkpt lat="44.77179098590237" lon="9.939288992202991"><ele>378.0</ele><time>2026-05-02T21:40:57.999Z</time></trkpt><trkpt lat="44.77179952520915" lon="9.939187440702801"><ele>379.85714285714283</ele><time>2026-05-02T21:40:58.999Z</time></trkpt><trkpt lat="44.77179505918642" lon="9.939086091717758"><ele>381.7142857142857</ele><time>2026-05-02T21:40:59.999Z</time></trkpt><trkpt lat="44.77178384764336" lon="9.93899054595734"><ele>383.57142857142856</ele><time>2026-05-02T21:41:00.999Z</time></trkpt><trkpt lat="44.77176884659976" lon="9.938898069025855"><ele>385.42857142857144</ele><time>2026-05-02T21:41:01.999Z</time></trkpt><trkpt lat="44.77172731710308" lon="9.938806102002458"><ele>387.2857142857143</ele><time>2026-05-02T21:41:02.999Z</time></trkpt><trkpt lat="44.77168131349623" lon="9.938736261450765"><ele>389.1428571428571</ele><time>2026-05-02T21:41:03.999Z</time></trkpt><trkpt lat="44.77162586639458" lon="9.938662977357327"><ele>391.0</ele><time>2026-05-02T21:41:04.999Z</time></trkpt><trkpt lat="44.771568326838114" lon="9.938610534328346"><ele>390.99999999999994</ele><time>2026-05-02T21:41:05.999Z</time></trkpt><trkpt lat="44.77150418024627" lon="9.938562167867154"><ele>391.0</ele><time>2026-05-02T21:41:06.999Z</time></trkpt><trkpt lat="44.771432006118374" lon="9.93854468483771"><ele>391.0</ele><time>2026-05-02T21:41:07.999Z</time></trkpt><trkpt lat="44.771359980673616" lon="9.938540275209943"><ele>391.0</ele><time>2026-05-02T21:41:08.999Z</time></trkpt><trkpt lat="44.77128799953415" lon="9.938556984865416"><ele>391.0</ele><time>2026-05-02T21:41:09.999Z</time></trkpt><trkpt lat="44.771212882876206" lon="9.938577391098224"><ele>390.99999999999994</ele><time>2026-05-02T21:41:10.999Z</time></trkpt><trkpt lat="44.771142018599264" lon="9.938601575289578"><ele>391.0</ele><time>2026-05-02T21:41:11.999Z</time></trkpt><trkpt lat="44.771070397998535" lon="9.938623364648256"><ele>390.85714285714283</ele><time>2026-05-02T21:41:12.999Z</time></trkpt><trkpt lat="44.77099894724505" lon="9.938657861882694"><ele>390.7142857142857</ele><time>2026-05-02T21:41:13.999Z</time></trkpt><trkpt lat="44.770930087495856" lon="9.938667694700642"><ele>390.57142857142856</ele><time>2026-05-02T21:41:14.999Z</time></trkpt><trkpt lat="44.770866457166264" lon="9.938644806750036"><ele>390.42857142857144</ele><time>2026-05-02T21:41:15.999Z</time></trkpt><trkpt lat="44.77079828843962" lon="9.93864077852066"><ele>390.2857142857143</ele><time>2026-05-02T21:41:16.999Z</time></trkpt><trkpt lat="44.77073024085693" lon="9.938607653299645"><ele>390.1428571428571</ele><time>2026-05-02T21:41:17.999Z</time></trkpt><trkpt lat="44.770664470194156" lon="9.938546245578829"><ele>390.0</ele><time>2026-05-02T21:41:18.999Z</time></trkpt><trkpt lat="44.77059472416387" lon="9.938479568364615"><ele>390.0</ele><time>2026-05-02T21:41:19.999Z</time></trkpt><trkpt lat="44.77052261849751" lon="9.938414148215674"><ele>390.0</ele><time>2026-05-02T21:41:20.999Z</time></trkpt><trkpt lat="44.7704535022696" lon="9.938353609742032"><ele>390.0</ele><time>2026-05-02T21:41:21.999Z</time></trkpt><trkpt lat="44.770386664060084" lon="9.938291238405126"><ele>390.0</ele><time>2026-05-02T21:41:22.999Z</time></trkpt><trkpt lat="44.77032097965504" lon="9.938228451312533"><ele>390.0</ele><time>2026-05-02T21:41:23.999Z</time></trkpt><trkpt lat="44.77025948461141" lon="9.938162450478652"><ele>390.0</ele><time>2026-05-02T21:41:24.999Z</time></trkpt><trkpt lat="44.77020694822976" lon="9.938090603970306"><ele>388.42857142857144</ele><time>2026-05-02T21:41:25.999Z</time></trkpt><trkpt lat="44.7701671617272" lon="9.938005564941845"><ele>386.85714285714283</ele><time>2026-05-02T21:41:26.999Z</time></trkpt><trkpt lat="44.77014844552558" lon="9.937912177953494"><ele>385.28571428571433</ele><time>2026-05-02T21:41:27.999Z</time></trkpt><trkpt lat="44.770158913009446" lon="9.93782331366778"><ele>383.7142857142857</ele><time>2026-05-02T21:41:28.999Z</time></trkpt><trkpt lat="44.77018305089253" lon="9.937739170089925"><ele>382.14285714285717</ele><time>2026-05-02T21:41:29.999Z</time></trkpt><trkpt lat="44.77022501331158" lon="9.937666513470624"><ele>380.5714285714286</ele><time>2026-05-02T21:41:30.999Z</time></trkpt><trkpt lat="44.770282935397226" lon="9.937615706945259"><ele>379.0</ele><time>2026-05-02T21:41:31.999Z</time></trkpt><trkpt lat="44.77034670176568" lon="9.937593539840638"><ele>379.00000000000006</ele><time>2026-05-02T21:41:32.999Z</time></trkpt><trkpt lat="44.77041136882345" lon="9.937601396268734"><ele>379.0</ele><time>2026-05-02T21:41:33.999Z</time></trkpt><trkpt lat="44.770474035446206" lon="9.937638660608407"><ele>379.0</ele><time>2026-05-02T21:41:34.999Z</time></trkpt><trkpt lat="44.77052292972669" lon="9.937701187606077"><ele>379.0</ele><time>2026-05-02T21:41:35.999Z</time></trkpt><trkpt lat="44.77055951017726" lon="9.937787405538401"><ele>379.0</ele><time>2026-05-02T21:41:36.999Z</time></trkpt><trkpt lat="44.77059315985271" lon="9.937873988222119"><ele>379.00000000000006</ele><time>2026-05-02T21:41:37.998Z</time></trkpt><trkpt lat="44.770637131767366" lon="9.937948218756224"><ele>379.0</ele><time>2026-05-02T21:41:38.998Z</time></trkpt><trkpt lat="44.77068362202802" lon="9.938029772806212"><ele>379.00000000000006</ele><time>2026-05-02T21:41:39.998Z</time></trkpt><trkpt lat="44.77076162157966" lon="9.938055989234226"><ele>379.0</ele><time>2026-05-02T21:41:40.998Z</time></trkpt><trkpt lat="44.77083330163565" lon="9.938065223365244"><ele>379.0</ele><time>2026-05-02T21:41:41.998Z</time></trkpt><trkpt lat="44.770897067878934" lon="9.938040284815406"><ele>379.0</ele><time>2026-05-02T21:41:42.998Z</time></trkpt><trkpt lat="44.77095469099909" lon="9.937982065855339"><ele>379.0</ele><time>2026-05-02T21:41:43.998Z</time></trkpt><trkpt lat="44.77100693535935" lon="9.937913654222948"><ele>379.00000000000006</ele><time>2026-05-02T21:41:44.998Z</time></trkpt><trkpt lat="44.77106024240003" lon="9.937841807165578"><ele>379.0</ele><time>2026-05-02T21:41:45.998Z</time></trkpt><trkpt lat="44.77111650879827" lon="9.937771026063364"><ele>378.8571428571429</ele><time>2026-05-02T21:41:46.998Z</time></trkpt><trkpt lat="44.771174035842996" lon="9.937710219295745"><ele>378.7142857142857</ele><time>2026-05-02T21:41:47.998Z</time></trkpt><trkpt lat="44.771231931502996" lon="9.937664150124254"><ele>378.57142857142856</ele><time>2026-05-02T21:41:48.998Z</time></trkpt><trkpt lat="44.771296270913275" lon="9.937626874473386"><ele>378.42857142857144</ele><time>2026-05-02T21:41:49.998Z</time></trkpt><trkpt lat="44.77136328316538" lon="9.937612129479634"><ele>378.2857142857143</ele><time>2026-05-02T21:41:50.998Z</time></trkpt><trkpt lat="44.77143166149722" lon="9.937621958779463"><ele>378.14285714285717</ele><time>2026-05-02T21:41:51.998Z</time></trkpt><trkpt lat="44.771499070762914" lon="9.937648106804227"><ele>378.0</ele><time>2026-05-02T21:41:52.998Z</time></trkpt><trkpt lat="44.77156041635479" lon="9.937668949037363"><ele>378.0</ele><time>2026-05-02T21:41:53.998Z</time></trkpt><trkpt lat="44.77166136813195" lon="9.937688901939445"><ele>378.0</ele><time>2026-05-02T21:41:55.998Z</time></trkpt><trkpt lat="44.771712222544956" lon="9.937592799185591"><ele>378.0</ele><time>2026-05-02T21:41:58Z</time></trkpt><trkpt lat="44.77164714050286" lon="9.9374699752247"><ele>378.0</ele><time>2026-05-02T21:42:00Z</time></trkpt><trkpt lat="44.771585327262876" lon="9.937444211140452"><ele>378.0</ele><time>2026-05-02T21:42:01Z</time></trkpt><trkpt lat="44.771472360090684" lon="9.937415935993306"><ele>374.4</ele><time>2026-05-02T21:42:03Z</time></trkpt><trkpt lat="44.77135657766337" lon="9.937383536263521"><ele>370.79999999999995</ele><time>2026-05-02T21:42:05Z</time></trkpt><trkpt lat="44.7712933060368" lon="9.937363739877584"><ele>367.2</ele><time>2026-05-02T21:42:06Z</time></trkpt><trkpt lat="44.77118289406515" lon="9.937321716037003"><ele>363.6</ele><time>2026-05-02T21:42:08Z</time></trkpt><trkpt lat="44.771126123879654" lon="9.93722104987281"><ele>360.0</ele><time>2026-05-02T21:42:10Z</time></trkpt><trkpt lat="44.77118200314172" lon="9.937100578590325"><ele>360.0</ele><time>2026-05-02T21:42:12Z</time></trkpt><trkpt lat="44.771250421133146" lon="9.937118679813434"><ele>360.0</ele><time>2026-05-02T21:42:13Z</time></trkpt><trkpt lat="44.771315835984375" lon="9.93712095273443"><ele>360.0</ele><time>2026-05-02T21:42:14Z</time></trkpt><trkpt lat="44.771383195763114" lon="9.937147051223667"><ele>360.0</ele><time>2026-05-02T21:42:15Z</time></trkpt><trkpt lat="44.771458087112656" lon="9.937165286408943"><ele>360.0</ele><time>2026-05-02T21:42:16Z</time></trkpt><trkpt lat="44.77153078133897" lon="9.937184083741295"><ele>360.0</ele><time>2026-05-02T21:42:17Z</time></trkpt><trkpt lat="44.771602445248654" lon="9.937203407201315"><ele>360.0</ele><time>2026-05-02T21:42:18Z</time></trkpt><trkpt lat="44.77167506975844" lon="9.93722937448286"><ele>360.0</ele><time>2026-05-02T21:42:19Z</time></trkpt><trkpt lat="44.77174901990604" lon="9.93725171639304"><ele>360.0</ele><time>2026-05-02T21:42:20Z</time></trkpt><trkpt lat="44.7718229185777" lon="9.937274471345182"><ele>360.0</ele><time>2026-05-02T21:42:21Z</time></trkpt><trkpt lat="44.771896915416406" lon="9.937297997352614"><ele>360.0</ele><time>2026-05-02T21:42:22Z</time></trkpt><trkpt lat="44.771972673531735" lon="9.937321334725889"><ele>360.0</ele><time>2026-05-02T21:42:23Z</time></trkpt><trkpt lat="44.7720477065866" lon="9.937341765652414"><ele>360.0</ele><time>2026-05-02T21:42:24Z</time></trkpt><trkpt lat="44.77211922005152" lon="9.937365272926087"><ele>361.0</ele><time>2026-05-02T21:42:25Z</time></trkpt><trkpt lat="44.77219103075068" lon="9.937392938498972"><ele>362.0</ele><time>2026-05-02T21:42:26Z</time></trkpt><trkpt lat="44.77226247732359" lon="9.937419730097398"><ele>363.0</ele><time>2026-05-02T21:42:27Z</time></trkpt><trkpt lat="44.77233324243109" lon="9.937448785812853"><ele>364.0</ele><time>2026-05-02T21:42:28Z</time></trkpt><trkpt lat="44.77240647414329" lon="9.937482314495645"><ele>365.0</ele><time>2026-05-02T21:42:29Z</time></trkpt><trkpt lat="44.77247652588104" lon="9.937516476948927"><ele>366.0</ele><time>2026-05-02T21:42:30Z</time></trkpt><trkpt lat="44.77254519888049" lon="9.937550141902737"><ele>367.0</ele><time>2026-05-02T21:42:31Z</time></trkpt><trkpt lat="44.77261080352452" lon="9.93758213838176"><ele>367.0</ele><time>2026-05-02T21:42:32Z</time></trkpt><trkpt lat="44.77267311066112" lon="9.937618122989006"><ele>367.0</ele><time>2026-05-02T21:42:33Z</time></trkpt><trkpt lat="44.77278971095279" lon="9.937657821006505"><ele>367.0</ele><time>2026-05-02T21:42:35Z</time></trkpt><trkpt lat="44.77287075146162" lon="9.93758218020946"><ele>367.0</ele><time>2026-05-02T21:42:37Z</time></trkpt><trkpt lat="44.772847977525714" lon="9.937426713165712"><ele>367.0</ele><time>2026-05-02T21:42:39Z</time></trkpt><trkpt lat="44.77279283946764" lon="9.937366956383956"><ele>363.8</ele><time>2026-05-02T21:42:40Z</time></trkpt><trkpt lat="44.7727324103852" lon="9.93732996133756"><ele>360.6</ele><time>2026-05-02T21:42:41Z</time></trkpt><trkpt lat="44.77263160116891" lon="9.937234483287138"><ele>357.40000000000003</ele><time>2026-05-02T21:42:43Z</time></trkpt><trkpt lat="44.772556027327745" lon="9.93711675764198"><ele>354.20000000000005</ele><time>2026-05-02T21:42:45Z</time></trkpt><trkpt lat="44.772579898708855" lon="9.936979136745084"><ele>351.0</ele><time>2026-05-02T21:42:47Z</time></trkpt><trkpt lat="44.77269834446475" lon="9.936953716510647"><ele>348.5</ele><time>2026-05-02T21:42:48.999Z</time></trkpt><trkpt lat="44.772760079216425" lon="9.936997609711534"><ele>346.0</ele><time>2026-05-02T21:42:49.999Z</time></trkpt><trkpt lat="44.77282424648607" lon="9.937043146348216"><ele>343.5</ele><time>2026-05-02T21:42:50.999Z</time></trkpt><trkpt lat="44.772885224440024" lon="9.937082868960045"><ele>341.0</ele><time>2026-05-02T21:42:51.999Z</time></trkpt><trkpt lat="44.77294392559243" lon="9.93711668997032"><ele>338.5</ele><time>2026-05-02T21:42:52.999Z</time></trkpt><trkpt lat="44.77305096159055" lon="9.937183390056523"><ele>336.0</ele><time>2026-05-02T21:42:54.999Z</time></trkpt><trkpt lat="44.77313369480266" lon="9.93724630129143"><ele>336.0</ele><time>2026-05-02T21:42:56.999Z</time></trkpt><trkpt lat="44.77319310335504" lon="9.937325412232067"><ele>336.0</ele><time>2026-05-02T21:42:59.999Z</time></trkpt><trkpt lat="44.77324773271832" lon="9.937375792287794"><ele>336.0</ele><time>2026-05-02T21:44:24Z</time></trkpt><trkpt lat="44.77324773271832" lon="9.937375792287794"><ele>336.0</ele><time>2026-05-02T21:44:24Z</time></trkpt></trkseg></trk></gpx>